<?xml version='1.0' encoding='UTF-8'?><gpx version="1.1" creator="JPX - https://github.com/jenetics/jpx" xmlns="http://www.topografix.com/GPX/1/1"><trk><trkseg><trkpt lat="45.53526813396687" lon="11.29171964298193"><ele>170.0</ele><time>2026-04-26T09:43:05.999Z</time></trkpt><trkpt lat="45.5353230092079" lon="11.291786020409448"><ele>170.0</ele><time>2026-04-26T09:43:07.999Z</time></trkpt><trkpt lat="45.53540853262149" lon="11.291723589550509"><ele>170.0</ele><time>2026-04-26T09:43:20.999Z</time></trkpt><trkpt lat="45.53549276308205" lon="11.291618995271348"><ele>170.0</ele><time>2026-04-26T09:43:22.999Z</time></trkpt><trkpt lat="45.53554090404719" lon="11.291554705730107"><ele>170.0</ele><time>2026-04-26T09:43:23.999Z</time></trkpt><trkpt lat="45.53563147379319" lon="11.291540276240518"><ele>170.0</ele><time>2026-04-26T09:43:24.999Z</time></trkpt><trkpt lat="45.53568331775702" lon="11.291468509094456"><ele>167.66666666666666</ele><time>2026-04-26T09:43:25.999Z</time></trkpt><trkpt lat="45.535738628236736" lon="11.291391943289556"><ele>165.33333333333331</ele><time>2026-04-26T09:43:26.999Z</time></trkpt><trkpt lat="45.5357969749344" lon="11.291311174662711"><ele>163.0</ele><time>2026-04-26T09:43:27.999Z</time></trkpt><trkpt lat="45.5358532183542" lon="11.291231535809908"><ele>160.66666666666666</ele><time>2026-04-26T09:43:28.999Z</time></trkpt><trkpt lat="45.5359088305502" lon="11.291152891475269"><ele>158.33333333333334</ele><time>2026-04-26T09:43:29.999Z</time></trkpt><trkpt lat="45.53596129610992" lon="11.291078696967853"><ele>156.0</ele><time>2026-04-26T09:43:30.999Z</time></trkpt><trkpt lat="45.536009633644355" lon="11.291013256918081"><ele>156.0</ele><time>2026-04-26T09:43:31.999Z</time></trkpt><trkpt lat="45.536058962176405" lon="11.290956256712773"><ele>156.0</ele><time>2026-04-26T09:43:32.999Z</time></trkpt><trkpt lat="45.536113234389745" lon="11.290898970220786"><ele>156.0</ele><time>2026-04-26T09:43:33.999Z</time></trkpt><trkpt lat="45.536142567899965" lon="11.290796215705766"><ele>156.0</ele><time>2026-04-26T09:43:34.999Z</time></trkpt><trkpt lat="45.53620259790452" lon="11.290750310736078"><ele>156.0</ele><time>2026-04-26T09:43:35.999Z</time></trkpt><trkpt lat="45.53626426227868" lon="11.290707767061408"><ele>156.0</ele><time>2026-04-26T09:43:36.999Z</time></trkpt><trkpt lat="45.53633270408766" lon="11.29066597003683"><ele>156.0</ele><time>2026-04-26T09:43:37.999Z</time></trkpt><trkpt lat="45.53640552530078" lon="11.290660962683408"><ele>155.83333333333334</ele><time>2026-04-26T09:43:38.999Z</time></trkpt><trkpt lat="45.53647411704294" lon="11.290630630306081"><ele>155.66666666666666</ele><time>2026-04-26T09:43:39.999Z</time></trkpt><trkpt lat="45.53653974720954" lon="11.290618245593388"><ele>155.5</ele><time>2026-04-26T09:43:40.999Z</time></trkpt><trkpt lat="45.53664732747677" lon="11.290583066199861"><ele>155.33333333333331</ele><time>2026-04-26T09:43:42.999Z</time></trkpt><trkpt lat="45.53671696052939" lon="11.290590845607635"><ele>155.16666666666666</ele><time>2026-04-26T09:43:44.999Z</time></trkpt><trkpt lat="45.53684211706569" lon="11.290632649123285"><ele>155.0</ele><time>2026-04-26T09:43:46.999Z</time></trkpt><trkpt lat="45.53691619658135" lon="11.290639255810946"><ele>155.0</ele><time>2026-04-26T09:43:47.999Z</time></trkpt><trkpt lat="45.53698144768884" lon="11.29066232713878"><ele>155.0</ele><time>2026-04-26T09:43:48.999Z</time></trkpt><trkpt lat="45.537056165302936" lon="11.290692361584131"><ele>155.0</ele><time>2026-04-26T09:43:51.999Z</time></trkpt><trkpt lat="45.53707927635983" lon="11.290872368938206"><ele>155.0</ele><time>2026-04-26T09:43:54.999Z</time></trkpt><trkpt lat="45.53707196465694" lon="11.290972755516073"><ele>155.0</ele><time>2026-04-26T09:43:55.999Z</time></trkpt><trkpt lat="45.537054570482134" lon="11.291067988530822"><ele>155.0</ele><time>2026-04-26T09:43:56.999Z</time></trkpt><trkpt lat="45.537033870461656" lon="11.291174326963556"><ele>155.0</ele><time>2026-04-26T09:43:57.999Z</time></trkpt><trkpt lat="45.537003010347064" lon="11.291278349795201"><ele>155.0</ele><time>2026-04-26T09:43:58.999Z</time></trkpt><trkpt lat="45.53698132092774" lon="11.291376817075491"><ele>155.0</ele><time>2026-04-26T09:43:59.999Z</time></trkpt><trkpt lat="45.53696507505142" lon="11.291474106376338"><ele>155.0</ele><time>2026-04-26T09:44:00.999Z</time></trkpt><trkpt lat="45.53694232905385" lon="11.29158076221977"><ele>155.0</ele><time>2026-04-26T09:44:01.999Z</time></trkpt><trkpt lat="45.536920423662146" lon="11.291694341163012"><ele>155.0</ele><time>2026-04-26T09:44:02.999Z</time></trkpt><trkpt lat="45.53690350577911" lon="11.291812099607252"><ele>154.8</ele><time>2026-04-26T09:44:03.999Z</time></trkpt><trkpt lat="45.53688462725739" lon="11.291911571113285"><ele>154.6</ele><time>2026-04-26T09:44:04.999Z</time></trkpt><trkpt lat="45.53688519626259" lon="11.292010306898678"><ele>154.4</ele><time>2026-04-26T09:44:05.999Z</time></trkpt><trkpt lat="45.536848191525465" lon="11.292201076753605"><ele>154.2</ele><time>2026-04-26T09:44:07.998Z</time></trkpt><trkpt lat="45.5368232974826" lon="11.292312268257511"><ele>154.0</ele><time>2026-04-26T09:44:08.998Z</time></trkpt><trkpt lat="45.536748459564656" lon="11.292422201308364"><ele>154.0</ele><time>2026-04-26T09:44:09.998Z</time></trkpt><trkpt lat="45.53669395543294" lon="11.292549529071167"><ele>154.0</ele><time>2026-04-26T09:44:10.998Z</time></trkpt><trkpt lat="45.536633459643085" lon="11.292686919079859"><ele>154.0</ele><time>2026-04-26T09:44:11.998Z</time></trkpt><trkpt lat="45.53656989732887" lon="11.292835371865191"><ele>154.0</ele><time>2026-04-26T09:44:12.998Z</time></trkpt><trkpt lat="45.53650299325504" lon="11.29299612918375"><ele>154.0</ele><time>2026-04-26T09:44:13.998Z</time></trkpt><trkpt lat="45.536433737334406" lon="11.293166112063732"><ele>154.0</ele><time>2026-04-26T09:44:14.998Z</time></trkpt><trkpt lat="45.5363580614955" lon="11.293350657161527"><ele>154.0</ele><time>2026-04-26T09:44:15.998Z</time></trkpt><trkpt lat="45.5362808301025" lon="11.293534351082652"><ele>154.0</ele><time>2026-04-26T09:44:16.998Z</time></trkpt><trkpt lat="45.53619959024781" lon="11.29371734264631"><ele>154.0</ele><time>2026-04-26T09:44:17.998Z</time></trkpt><trkpt lat="45.536119054428106" lon="11.29390528905712"><ele>154.0</ele><time>2026-04-26T09:44:18.998Z</time></trkpt><trkpt lat="45.53603475325921" lon="11.294088565832737"><ele>154.0</ele><time>2026-04-26T09:44:19.998Z</time></trkpt><trkpt lat="45.53594045138685" lon="11.294268073055536"><ele>154.0</ele><time>2026-04-26T09:44:20.998Z</time></trkpt><trkpt lat="45.53584529408007" lon="11.294421954309183"><ele>154.0</ele><time>2026-04-26T09:44:21.998Z</time></trkpt><trkpt lat="45.535752609549284" lon="11.294510468312625"><ele>154.0</ele><time>2026-04-26T09:44:22.998Z</time></trkpt><trkpt lat="45.535658338267915" lon="11.294640053419043"><ele>154.0</ele><time>2026-04-26T09:44:23.998Z</time></trkpt><trkpt lat="45.535472993430695" lon="11.29484085694407"><ele>153.33333333333334</ele><time>2026-04-26T09:44:24.998Z</time></trkpt><trkpt lat="45.53533726285699" lon="11.294978375390158"><ele>152.66666666666666</ele><time>2026-04-26T09:44:25.998Z</time></trkpt><trkpt lat="45.53520190143362" lon="11.295110588517783"><ele>152.0</ele><time>2026-04-26T09:44:26.998Z</time></trkpt><trkpt lat="45.53506579214165" lon="11.295245274094372"><ele>152.0</ele><time>2026-04-26T09:44:27.998Z</time></trkpt><trkpt lat="45.534929307619954" lon="11.29538614335368"><ele>152.0</ele><time>2026-04-26T09:44:28.998Z</time></trkpt><trkpt lat="45.534796087740624" lon="11.295515883871904"><ele>152.0</ele><time>2026-04-26T09:44:29.998Z</time></trkpt><trkpt lat="45.534665813498926" lon="11.295642957346555"><ele>151.66666666666666</ele><time>2026-04-26T09:44:30.998Z</time></trkpt><trkpt lat="45.53453736292087" lon="11.295767172509542"><ele>151.33333333333334</ele><time>2026-04-26T09:44:31.998Z</time></trkpt><trkpt lat="45.53440798313159" lon="11.295895272937926"><ele>151.0</ele><time>2026-04-26T09:44:32.998Z</time></trkpt><trkpt lat="45.534278663687054" lon="11.296019908432227"><ele>151.0</ele><time>2026-04-26T09:44:33.998Z</time></trkpt><trkpt lat="45.5341503320622" lon="11.296142195112566"><ele>151.0</ele><time>2026-04-26T09:44:34.998Z</time></trkpt><trkpt lat="45.53401806528475" lon="11.296262038661295"><ele>151.0</ele><time>2026-04-26T09:44:35.998Z</time></trkpt><trkpt lat="45.53387703657345" lon="11.296389518174987"><ele>150.33333333333334</ele><time>2026-04-26T09:44:36.998Z</time></trkpt><trkpt lat="45.53373589450755" lon="11.296514373738217"><ele>149.66666666666666</ele><time>2026-04-26T09:44:37.998Z</time></trkpt><trkpt lat="45.53359840064793" lon="11.29663715663605"><ele>149.0</ele><time>2026-04-26T09:44:38.998Z</time></trkpt><trkpt lat="45.53345790349236" lon="11.296759251911265"><ele>149.0</ele><time>2026-04-26T09:44:39.998Z</time></trkpt><trkpt lat="45.53331823717317" lon="11.29687908417571"><ele>149.0</ele><time>2026-04-26T09:44:40.998Z</time></trkpt><trkpt lat="45.53317415172102" lon="11.296991846645403"><ele>149.0</ele><time>2026-04-26T09:44:41.998Z</time></trkpt><trkpt lat="45.53302898399792" lon="11.297113570245514"><ele>149.66666666666666</ele><time>2026-04-26T09:44:42.998Z</time></trkpt><trkpt lat="45.532884240443984" lon="11.29723675967248"><ele>150.33333333333334</ele><time>2026-04-26T09:44:43.998Z</time></trkpt><trkpt lat="45.532744119793776" lon="11.297357867740491"><ele>151.0</ele><time>2026-04-26T09:44:44.998Z</time></trkpt><trkpt lat="45.53260637189729" lon="11.29746131497617"><ele>151.0</ele><time>2026-04-26T09:44:45.998Z</time></trkpt><trkpt lat="45.532475476908466" lon="11.297551902354568"><ele>151.0</ele><time>2026-04-26T09:44:46.998Z</time></trkpt><trkpt lat="45.53235051987301" lon="11.297629449061466"><ele>151.0</ele><time>2026-04-26T09:44:47.998Z</time></trkpt><trkpt lat="45.532242140372475" lon="11.297683533914649"><ele>151.0</ele><time>2026-04-26T09:44:48.998Z</time></trkpt><trkpt lat="45.532169897722845" lon="11.297796498123446"><ele>151.0</ele><time>2026-04-26T09:44:49.998Z</time></trkpt><trkpt lat="45.532120831179185" lon="11.29792989276165"><ele>151.0</ele><time>2026-04-26T09:44:50.998Z</time></trkpt><trkpt lat="45.532098187565474" lon="11.2980833360782"><ele>151.0</ele><time>2026-04-26T09:44:51.998Z</time></trkpt><trkpt lat="45.53210919941996" lon="11.298252971466752"><ele>151.0</ele><time>2026-04-26T09:44:52.998Z</time></trkpt><trkpt lat="45.532113167834964" lon="11.298437599299886"><ele>150.5</ele><time>2026-04-26T09:44:53.998Z</time></trkpt><trkpt lat="45.532126914014384" lon="11.298617665512158"><ele>150.0</ele><time>2026-04-26T09:44:54.997Z</time></trkpt><trkpt lat="45.532161693118425" lon="11.298787562649636"><ele>149.5</ele><time>2026-04-26T09:44:55.997Z</time></trkpt><trkpt lat="45.53222819128272" lon="11.298945875040497"><ele>149.0</ele><time>2026-04-26T09:44:56.997Z</time></trkpt><trkpt lat="45.53231893211711" lon="11.299081246741029"><ele>149.0</ele><time>2026-04-26T09:44:57.997Z</time></trkpt><trkpt lat="45.53242303233699" lon="11.299217164471738"><ele>149.0</ele><time>2026-04-26T09:44:58.997Z</time></trkpt><trkpt lat="45.532525155103485" lon="11.29936337918329"><ele>149.0</ele><time>2026-04-26T09:44:59.997Z</time></trkpt><trkpt lat="45.5326337779809" lon="11.299496536871935"><ele>149.0</ele><time>2026-04-26T09:45:00.997Z</time></trkpt><trkpt lat="45.5327373009725" lon="11.299621551774582"><ele>149.0</ele><time>2026-04-26T09:45:01.997Z</time></trkpt><trkpt lat="45.53283131686108" lon="11.299731864685592"><ele>149.0</ele><time>2026-04-26T09:45:02.997Z</time></trkpt><trkpt lat="45.53291818042979" lon="11.299847393536488"><ele>149.0</ele><time>2026-04-26T09:45:03.997Z</time></trkpt><trkpt lat="45.53298327190629" lon="11.29996760669787"><ele>149.0</ele><time>2026-04-26T09:45:04.997Z</time></trkpt><trkpt lat="45.53302075274263" lon="11.300104823630567"><ele>148.6</ele><time>2026-04-26T09:45:05.997Z</time></trkpt><trkpt lat="45.53301967054918" lon="11.300244100168944"><ele>148.2</ele><time>2026-04-26T09:45:06.998Z</time></trkpt><trkpt lat="45.5329844356258" lon="11.300368972462973"><ele>147.79999999999998</ele><time>2026-04-26T09:45:07.998Z</time></trkpt><trkpt lat="45.53291597530767" lon="11.30047024106865"><ele>147.4</ele><time>2026-04-26T09:45:08.998Z</time></trkpt><trkpt lat="45.53282543130421" lon="11.30054308157985"><ele>147.0</ele><time>2026-04-26T09:45:09.998Z</time></trkpt><trkpt lat="45.53271714614055" lon="11.300587018019062"><ele>146.75</ele><time>2026-04-26T09:45:10.999Z</time></trkpt><trkpt lat="45.53260102767094" lon="11.300617892179558"><ele>146.5</ele><time>2026-04-26T09:45:11.999Z</time></trkpt><trkpt lat="45.53248134014536" lon="11.300682292293118"><ele>146.25</ele><time>2026-04-26T09:45:12.999Z</time></trkpt><trkpt lat="45.532364172307076" lon="11.30078728192328"><ele>146.0</ele><time>2026-04-26T09:45:13.999Z</time></trkpt><trkpt lat="45.53224766595303" lon="11.300921070408638"><ele>146.0</ele><time>2026-04-26T09:45:14.999Z</time></trkpt><trkpt lat="45.5321292655503" lon="11.301064314072914"><ele>146.0</ele><time>2026-04-26T09:45:15.999Z</time></trkpt><trkpt lat="45.53200465301633" lon="11.301217707203952"><ele>146.0</ele><time>2026-04-26T09:45:16.999Z</time></trkpt><trkpt lat="45.531880839919175" lon="11.301387671300713"><ele>144.66666666666666</ele><time>2026-04-26T09:45:17.999Z</time></trkpt><trkpt lat="45.531757776467764" lon="11.301570594867513"><ele>143.33333333333334</ele><time>2026-04-26T09:45:18.999Z</time></trkpt><trkpt lat="45.53163512001361" lon="11.301753569265909"><ele>142.0</ele><time>2026-04-26T09:45:19.999Z</time></trkpt><trkpt lat="45.53151463917776" lon="11.301937786189095"><ele>142.0</ele><time>2026-04-26T09:45:20.999Z</time></trkpt><trkpt lat="45.531392898270575" lon="11.302124425056858"><ele>142.0</ele><time>2026-04-26T09:45:21.999Z</time></trkpt><trkpt lat="45.531270354994405" lon="11.302313012959651"><ele>142.0</ele><time>2026-04-26T09:45:22.999Z</time></trkpt><trkpt lat="45.53114119679179" lon="11.302507037693276"><ele>141.66666666666669</ele><time>2026-04-26T09:45:23.999Z</time></trkpt><trkpt lat="45.53101970965435" lon="11.302694920724482"><ele>141.33333333333334</ele><time>2026-04-26T09:45:24.999Z</time></trkpt><trkpt lat="45.53089399594781" lon="11.30288823826012"><ele>141.0</ele><time>2026-04-26T09:45:25.999Z</time></trkpt><trkpt lat="45.53077047856336" lon="11.303085529627769"><ele>140.66666666666666</ele><time>2026-04-26T09:45:26.999Z</time></trkpt><trkpt lat="45.53065082501903" lon="11.303294645085428"><ele>140.33333333333331</ele><time>2026-04-26T09:45:27.999Z</time></trkpt><trkpt lat="45.53053770177358" lon="11.303512986128196"><ele>140.0</ele><time>2026-04-26T09:45:28.999Z</time></trkpt><trkpt lat="45.53043560853858" lon="11.303741550337765"><ele>139.33333333333331</ele><time>2026-04-26T09:45:29.999Z</time></trkpt><trkpt lat="45.5303426528938" lon="11.303980645290286"><ele>138.66666666666666</ele><time>2026-04-26T09:45:30.999Z</time></trkpt><trkpt lat="45.530272141023005" lon="11.304241295257853"><ele>138.0</ele><time>2026-04-26T09:45:31.999Z</time></trkpt><trkpt lat="45.530178610775174" lon="11.304484888819404"><ele>138.0</ele><time>2026-04-26T09:45:32.999Z</time></trkpt><trkpt lat="45.53010445321245" lon="11.304741563381125"><ele>138.0</ele><time>2026-04-26T09:45:33.999Z</time></trkpt><trkpt lat="45.5300361505359" lon="11.304994921453213"><ele>138.0</ele><time>2026-04-26T09:45:34.999Z</time></trkpt><trkpt lat="45.529971837547315" lon="11.305236362618698"><ele>138.0</ele><time>2026-04-26T09:45:35.999Z</time></trkpt><trkpt lat="45.52990510780008" lon="11.30546207306369"><ele>138.0</ele><time>2026-04-26T09:45:36.999Z</time></trkpt><trkpt lat="45.529840715895595" lon="11.30566927379887"><ele>138.0</ele><time>2026-04-26T09:45:37.999Z</time></trkpt><trkpt lat="45.529786644784934" lon="11.305860351268294"><ele>138.0</ele><time>2026-04-26T09:45:38.999Z</time></trkpt><trkpt lat="45.529738582916366" lon="11.306033864114623"><ele>138.0</ele><time>2026-04-26T09:45:39.999Z</time></trkpt><trkpt lat="45.52970611802233" lon="11.30618988730594"><ele>138.0</ele><time>2026-04-26T09:45:40.999Z</time></trkpt><trkpt lat="45.52972278113562" lon="11.306332923858857"><ele>138.0</ele><time>2026-04-26T09:45:41.999Z</time></trkpt><trkpt lat="45.52973871967272" lon="11.306457838566008"><ele>138.0</ele><time>2026-04-26T09:45:42.999Z</time></trkpt><trkpt lat="45.52976232937357" lon="11.306576461763257"><ele>138.0</ele><time>2026-04-26T09:45:43.999Z</time></trkpt><trkpt lat="45.52978987542215" lon="11.306711614837717"><ele>138.0</ele><time>2026-04-26T09:45:44.999Z</time></trkpt><trkpt lat="45.529866998646675" lon="11.306842680077912"><ele>138.0</ele><time>2026-04-26T09:45:45.999Z</time></trkpt><trkpt lat="45.52995324302183" lon="11.306971478704584"><ele>138.0</ele><time>2026-04-26T09:45:46.999Z</time></trkpt><trkpt lat="45.53005472422403" lon="11.307103052764946"><ele>138.0</ele><time>2026-04-26T09:45:47.999Z</time></trkpt><trkpt lat="45.53016105027633" lon="11.307244043638358"><ele>138.0</ele><time>2026-04-26T09:45:48.999Z</time></trkpt><trkpt lat="45.530264343766305" lon="11.307386203191587"><ele>138.0</ele><time>2026-04-26T09:45:49.999Z</time></trkpt><trkpt lat="45.53036997805471" lon="11.307527545644733"><ele>138.0</ele><time>2026-04-26T09:45:50.999Z</time></trkpt><trkpt lat="45.5304710271662" lon="11.307660679680913"><ele>138.0</ele><time>2026-04-26T09:45:51.999Z</time></trkpt><trkpt lat="45.530559655104234" lon="11.307779683614104"><ele>138.0</ele><time>2026-04-26T09:45:52.999Z</time></trkpt><trkpt lat="45.53064551882138" lon="11.307882524521506"><ele>138.0</ele><time>2026-04-26T09:45:53.999Z</time></trkpt><trkpt lat="45.53072002395748" lon="11.307956473806447"><ele>138.0</ele><time>2026-04-26T09:45:54.999Z</time></trkpt><trkpt lat="45.530784555112156" lon="11.3080050401616"><ele>138.0</ele><time>2026-04-26T09:45:55.999Z</time></trkpt><trkpt lat="45.530861336169394" lon="11.308000510082474"><ele>137.6</ele><time>2026-04-26T09:45:59.999Z</time></trkpt><trkpt lat="45.53086550658525" lon="11.30814307806189"><ele>137.20000000000002</ele><time>2026-04-26T09:46:00.999Z</time></trkpt><trkpt lat="45.530874545991765" lon="11.308248027428633"><ele>136.8</ele><time>2026-04-26T09:46:01.999Z</time></trkpt><trkpt lat="45.5308577006433" lon="11.30837965175086"><ele>136.4</ele><time>2026-04-26T09:46:02.999Z</time></trkpt><trkpt lat="45.53081843870084" lon="11.30850066497224"><ele>136.0</ele><time>2026-04-26T09:46:03.999Z</time></trkpt><trkpt lat="45.53075855611887" lon="11.30863376379735"><ele>136.0</ele><time>2026-04-26T09:46:04.999Z</time></trkpt><trkpt lat="45.53068825675412" lon="11.308789845415088"><ele>136.0</ele><time>2026-04-26T09:46:05.999Z</time></trkpt><trkpt lat="45.53060517334648" lon="11.308968652102264"><ele>136.0</ele><time>2026-04-26T09:46:06.999Z</time></trkpt><trkpt lat="45.530513241429624" lon="11.309180900077664"><ele>136.25</ele><time>2026-04-26T09:46:07.999Z</time></trkpt><trkpt lat="45.53047661592781" lon="11.309306881737388"><ele>136.5</ele><time>2026-04-26T09:46:08.999Z</time></trkpt><trkpt lat="45.530400841650845" lon="11.309510235799676"><ele>136.75</ele><time>2026-04-26T09:46:09.999Z</time></trkpt><trkpt lat="45.530321493064854" lon="11.309706542201093"><ele>137.0</ele><time>2026-04-26T09:46:10.999Z</time></trkpt><trkpt lat="45.53024096768367" lon="11.309907617191838"><ele>137.0</ele><time>2026-04-26T09:46:11.999Z</time></trkpt><trkpt lat="45.53016446661319" lon="11.310109194801306"><ele>137.0</ele><time>2026-04-26T09:46:12.999Z</time></trkpt><trkpt lat="45.53008549623674" lon="11.310317574677821"><ele>137.0</ele><time>2026-04-26T09:46:13.999Z</time></trkpt><trkpt lat="45.53000484295963" lon="11.310531365067831"><ele>137.33333333333331</ele><time>2026-04-26T09:46:14.999Z</time></trkpt><trkpt lat="45.52992497961578" lon="11.310745557831964"><ele>137.66666666666666</ele><time>2026-04-26T09:46:15.998Z</time></trkpt><trkpt lat="45.529843885470264" lon="11.310961574196156"><ele>138.0</ele><time>2026-04-26T09:46:16.998Z</time></trkpt><trkpt lat="45.529761563025595" lon="11.311177264479454"><ele>138.0</ele><time>2026-04-26T09:46:17.998Z</time></trkpt><trkpt lat="45.52968253925753" lon="11.311397384299609"><ele>138.0</ele><time>2026-04-26T09:46:18.998Z</time></trkpt><trkpt lat="45.52960114752927" lon="11.311622858222359"><ele>138.0</ele><time>2026-04-26T09:46:19.998Z</time></trkpt><trkpt lat="45.5295196198677" lon="11.311854616864444"><ele>137.33333333333334</ele><time>2026-04-26T09:46:20.998Z</time></trkpt><trkpt lat="45.529432829061115" lon="11.312090565996613"><ele>136.66666666666669</ele><time>2026-04-26T09:46:21.998Z</time></trkpt><trkpt lat="45.529342505680106" lon="11.3123233791238"><ele>136.0</ele><time>2026-04-26T09:46:22.998Z</time></trkpt><trkpt lat="45.52925456190706" lon="11.312556118001096"><ele>135.66666666666669</ele><time>2026-04-26T09:46:23.998Z</time></trkpt><trkpt lat="45.529170437181506" lon="11.312786808252007"><ele>135.33333333333334</ele><time>2026-04-26T09:46:24.998Z</time></trkpt><trkpt lat="45.529087365494384" lon="11.313016173181236"><ele>135.0</ele><time>2026-04-26T09:46:25.998Z</time></trkpt><trkpt lat="45.529002390502015" lon="11.313244625094002"><ele>136.66666666666666</ele><time>2026-04-26T09:46:26.998Z</time></trkpt><trkpt lat="45.52892108328911" lon="11.313467683835103"><ele>138.33333333333331</ele><time>2026-04-26T09:46:27.998Z</time></trkpt><trkpt lat="45.52883232153549" lon="11.313686972987307"><ele>140.0</ele><time>2026-04-26T09:46:28.998Z</time></trkpt><trkpt lat="45.528746545068095" lon="11.31390625756114"><ele>138.33333333333331</ele><time>2026-04-26T09:46:29.998Z</time></trkpt><trkpt lat="45.52865745204478" lon="11.314120972915472"><ele>136.66666666666666</ele><time>2026-04-26T09:46:30.998Z</time></trkpt><trkpt lat="45.528566249328605" lon="11.314337268590732"><ele>135.0</ele><time>2026-04-26T09:46:31.998Z</time></trkpt><trkpt lat="45.52847636670649" lon="11.314547841439293"><ele>135.33333333333334</ele><time>2026-04-26T09:46:32.998Z</time></trkpt><trkpt lat="45.5283894145975" lon="11.314761628599818"><ele>135.66666666666669</ele><time>2026-04-26T09:46:33.998Z</time></trkpt><trkpt lat="45.5283022038242" lon="11.314975519297942"><ele>136.0</ele><time>2026-04-26T09:46:34.998Z</time></trkpt><trkpt lat="45.52821390473733" lon="11.315186764885835"><ele>136.0</ele><time>2026-04-26T09:46:35.998Z</time></trkpt><trkpt lat="45.52812487298818" lon="11.315402304643591"><ele>136.0</ele><time>2026-04-26T09:46:36.998Z</time></trkpt><trkpt lat="45.528033597882164" lon="11.3156137877318"><ele>136.0</ele><time>2026-04-26T09:46:37.998Z</time></trkpt><trkpt lat="45.527942279666696" lon="11.315825923753305"><ele>133.33333333333334</ele><time>2026-04-26T09:46:38.998Z</time></trkpt><trkpt lat="45.52785303185939" lon="11.316040237419887"><ele>130.66666666666666</ele><time>2026-04-26T09:46:39.998Z</time></trkpt><trkpt lat="45.52776351321926" lon="11.316247258805952"><ele>128.0</ele><time>2026-04-26T09:46:40.998Z</time></trkpt><trkpt lat="45.527668078114694" lon="11.316454447888402"><ele>128.0</ele><time>2026-04-26T09:46:41.998Z</time></trkpt><trkpt lat="45.52757958752475" lon="11.316667905273702"><ele>128.0</ele><time>2026-04-26T09:46:42.998Z</time></trkpt><trkpt lat="45.52748996619856" lon="11.31688600265897"><ele>128.0</ele><time>2026-04-26T09:46:43.998Z</time></trkpt><trkpt lat="45.527400993473265" lon="11.317099607795406"><ele>128.33333333333331</ele><time>2026-04-26T09:46:44.998Z</time></trkpt><trkpt lat="45.52731022301991" lon="11.317307718377752"><ele>128.66666666666666</ele><time>2026-04-26T09:46:45.998Z</time></trkpt><trkpt lat="45.527217129723375" lon="11.317531581648334"><ele>129.0</ele><time>2026-04-26T09:46:46.998Z</time></trkpt><trkpt lat="45.527117233269834" lon="11.317750113909318"><ele>128.33333333333334</ele><time>2026-04-26T09:46:47.998Z</time></trkpt><trkpt lat="45.5270188115879" lon="11.317982597522308"><ele>127.66666666666667</ele><time>2026-04-26T09:46:48.998Z</time></trkpt><trkpt lat="45.52692447858172" lon="11.318218557015692"><ele>127.0</ele><time>2026-04-26T09:46:49.998Z</time></trkpt><trkpt lat="45.52683710972529" lon="11.318454326717434"><ele>127.0</ele><time>2026-04-26T09:46:50.998Z</time></trkpt><trkpt lat="45.526769134706385" lon="11.318703318592481"><ele>127.0</ele><time>2026-04-26T09:46:51.998Z</time></trkpt><trkpt lat="45.526693876422925" lon="11.318943903318843"><ele>127.0</ele><time>2026-04-26T09:46:52.998Z</time></trkpt><trkpt lat="45.526623284892686" lon="11.319183919898109"><ele>127.0</ele><time>2026-04-26T09:46:53.998Z</time></trkpt><trkpt lat="45.52655379340612" lon="11.319424289845491"><ele>127.0</ele><time>2026-04-26T09:46:54.998Z</time></trkpt><trkpt lat="45.526486840015465" lon="11.319647210994916"><ele>127.0</ele><time>2026-04-26T09:46:55.998Z</time></trkpt><trkpt lat="45.52642126969341" lon="11.319879264487982"><ele>127.0</ele><time>2026-04-26T09:46:56.998Z</time></trkpt><trkpt lat="45.526349818944325" lon="11.320105235465606"><ele>127.0</ele><time>2026-04-26T09:46:57.998Z</time></trkpt><trkpt lat="45.52627431179834" lon="11.320332753905877"><ele>127.0</ele><time>2026-04-26T09:46:58.998Z</time></trkpt><trkpt lat="45.52619651532471" lon="11.320551934983332"><ele>126.66666666666667</ele><time>2026-04-26T09:46:59.998Z</time></trkpt><trkpt lat="45.52611416062424" lon="11.320773232990351"><ele>126.33333333333334</ele><time>2026-04-26T09:47:00.998Z</time></trkpt><trkpt lat="45.52602987514047" lon="11.3209834532295"><ele>126.0</ele><time>2026-04-26T09:47:01.998Z</time></trkpt><trkpt lat="45.525939330643816" lon="11.32118961665167"><ele>126.0</ele><time>2026-04-26T09:47:02.998Z</time></trkpt><trkpt lat="45.525841769689805" lon="11.321390318842552"><ele>126.0</ele><time>2026-04-26T09:47:03.998Z</time></trkpt><trkpt lat="45.52574135935318" lon="11.321575214205485"><ele>126.0</ele><time>2026-04-26T09:47:04.998Z</time></trkpt><trkpt lat="45.52564620803675" lon="11.321748766123793"><ele>126.25</ele><time>2026-04-26T09:47:05.998Z</time></trkpt><trkpt lat="45.5255569013467" lon="11.321917732973601"><ele>126.5</ele><time>2026-04-26T09:47:06.998Z</time></trkpt><trkpt lat="45.52547085553701" lon="11.322072469447367"><ele>126.75</ele><time>2026-04-26T09:47:07.998Z</time></trkpt><trkpt lat="45.52538775156255" lon="11.322214244630445"><ele>127.0</ele><time>2026-04-26T09:47:08.998Z</time></trkpt><trkpt lat="45.52530773963684" lon="11.322341358889027"><ele>126.5</ele><time>2026-04-26T09:47:09.998Z</time></trkpt><trkpt lat="45.52522678770922" lon="11.32246537342096"><ele>126.0</ele><time>2026-04-26T09:47:10.998Z</time></trkpt><trkpt lat="45.52514198173231" lon="11.32258441713605"><ele>125.5</ele><time>2026-04-26T09:47:11.998Z</time></trkpt><trkpt lat="45.525056207206624" lon="11.322699125274728"><ele>125.0</ele><time>2026-04-26T09:47:12.999Z</time></trkpt><trkpt lat="45.5249674332965" lon="11.322802608535278"><ele>125.0</ele><time>2026-04-26T09:47:13.999Z</time></trkpt><trkpt lat="45.52487736203434" lon="11.322882122116372"><ele>125.0</ele><time>2026-04-26T09:47:14.999Z</time></trkpt><trkpt lat="45.52478583205068" lon="11.322946422135697"><ele>125.0</ele><time>2026-04-26T09:47:15.999Z</time></trkpt><trkpt lat="45.524696009290714" lon="11.322986018265103"><ele>125.0</ele><time>2026-04-26T09:47:16.999Z</time></trkpt><trkpt lat="45.524609611294615" lon="11.322995516572659"><ele>125.0</ele><time>2026-04-26T09:47:17.999Z</time></trkpt><trkpt lat="45.52452982274171" lon="11.322970633911815"><ele>124.66666666666666</ele><time>2026-04-26T09:47:18.999Z</time></trkpt><trkpt lat="45.52446195324008" lon="11.322916771377884"><ele>124.33333333333333</ele><time>2026-04-26T09:47:19.999Z</time></trkpt><trkpt lat="45.524401777836935" lon="11.322857679149664"><ele>124.0</ele><time>2026-04-26T09:47:20.999Z</time></trkpt><trkpt lat="45.52432657965123" lon="11.32283348179574"><ele>123.66666666666666</ele><time>2026-04-26T09:47:21.999Z</time></trkpt><trkpt lat="45.524241994240946" lon="11.32285836123098"><ele>123.33333333333333</ele><time>2026-04-26T09:47:22.999Z</time></trkpt><trkpt lat="45.524178159854294" lon="11.32294043581306"><ele>123.0</ele><time>2026-04-26T09:47:23.999Z</time></trkpt><trkpt lat="45.524104225245374" lon="11.32297174275298"><ele>123.0</ele><time>2026-04-26T09:47:24.999Z</time></trkpt><trkpt lat="45.52403634564348" lon="11.322991133864642"><ele>123.0</ele><time>2026-04-26T09:47:25.999Z</time></trkpt><trkpt lat="45.52396482981644" lon="11.322965258618282"><ele>123.0</ele><time>2026-04-26T09:47:26.999Z</time></trkpt><trkpt lat="45.52390164274569" lon="11.322877389311113"><ele>123.0</ele><time>2026-04-26T09:47:27.999Z</time></trkpt><trkpt lat="45.52382178431512" lon="11.322801667391404"><ele>123.0</ele><time>2026-04-26T09:47:28.999Z</time></trkpt><trkpt lat="45.52373543972023" lon="11.32271806956088"><ele>123.0</ele><time>2026-04-26T09:47:29.999Z</time></trkpt><trkpt lat="45.52364038325077" lon="11.322647025571685"><ele>123.0</ele><time>2026-04-26T09:47:30.999Z</time></trkpt><trkpt lat="45.52355605800091" lon="11.322560555497697"><ele>123.00000000000001</ele><time>2026-04-26T09:47:31.999Z</time></trkpt><trkpt lat="45.52347073040927" lon="11.322480416152256"><ele>123.00000000000001</ele><time>2026-04-26T09:47:32.999Z</time></trkpt><trkpt lat="45.5233866959324" lon="11.322396074475474"><ele>123.0</ele><time>2026-04-26T09:47:33.999Z</time></trkpt><trkpt lat="45.523306308413645" lon="11.322319724264005"><ele>123.0</ele><time>2026-04-26T09:47:34.999Z</time></trkpt><trkpt lat="45.5232373374661" lon="11.322256248627431"><ele>123.0</ele><time>2026-04-26T09:47:35.999Z</time></trkpt><trkpt lat="45.52317324676758" lon="11.32219608278025"><ele>123.0</ele><time>2026-04-26T09:47:36.999Z</time></trkpt><trkpt lat="45.52311414284657" lon="11.32214251182732"><ele>123.0</ele><time>2026-04-26T09:47:37.999Z</time></trkpt><trkpt lat="45.52305662048425" lon="11.322090360133224"><ele>123.0</ele><time>2026-04-26T09:47:38.999Z</time></trkpt><trkpt lat="45.52297894621792" lon="11.322030139399285"><ele>123.0</ele><time>2026-04-26T09:47:40.999Z</time></trkpt><trkpt lat="45.52290637724663" lon="11.321985161417421"><ele>123.0</ele><time>2026-04-26T09:47:43.999Z</time></trkpt><trkpt lat="45.5228103333422" lon="11.3219392735544"><ele>123.0</ele><time>2026-04-26T09:47:46.999Z</time></trkpt><trkpt lat="45.5227201445567" lon="11.321913049322239"><ele>123.00000000000001</ele><time>2026-04-26T09:47:48.999Z</time></trkpt><trkpt lat="45.522632093285424" lon="11.321876470665595"><ele>123.00000000000001</ele><time>2026-04-26T09:47:50.999Z</time></trkpt><trkpt lat="45.52252763592307" lon="11.321771479814496"><ele>123.0</ele><time>2026-04-26T09:47:52.999Z</time></trkpt><trkpt lat="45.5224720073422" lon="11.321710639303909"><ele>123.0</ele><time>2026-04-26T09:47:53.999Z</time></trkpt><trkpt lat="45.52240124798294" lon="11.321727555038986"><ele>123.0</ele><time>2026-04-26T09:47:54.999Z</time></trkpt><trkpt lat="45.5223346111788" lon="11.321746725147534"><ele>123.0</ele><time>2026-04-26T09:47:55.999Z</time></trkpt><trkpt lat="45.52227887052509" lon="11.321789866833823"><ele>123.0</ele><time>2026-04-26T09:47:56.999Z</time></trkpt><trkpt lat="45.52222452039399" lon="11.321877181334981"><ele>123.0</ele><time>2026-04-26T09:47:57.999Z</time></trkpt><trkpt lat="45.52220880268516" lon="11.322013496828253"><ele>123.0</ele><time>2026-04-26T09:47:58.999Z</time></trkpt><trkpt lat="45.52215877228608" lon="11.322116714932084"><ele>123.0</ele><time>2026-04-26T09:47:59.999Z</time></trkpt><trkpt lat="45.52208974015392" lon="11.322202730256942"><ele>122.75</ele><time>2026-04-26T09:48:00.999Z</time></trkpt><trkpt lat="45.522030851580226" lon="11.322314403955819"><ele>122.5</ele><time>2026-04-26T09:48:01.999Z</time></trkpt><trkpt lat="45.52195954264482" lon="11.322439168904102"><ele>122.25</ele><time>2026-04-26T09:48:02.999Z</time></trkpt><trkpt lat="45.521885110158586" lon="11.322570420738334"><ele>122.0</ele><time>2026-04-26T09:48:03.999Z</time></trkpt><trkpt lat="45.521802298183445" lon="11.32270786724393"><ele>122.0</ele><time>2026-04-26T09:48:04.999Z</time></trkpt><trkpt lat="45.52171658408317" lon="11.322859328628544"><ele>122.0</ele><time>2026-04-26T09:48:05.999Z</time></trkpt><trkpt lat="45.52163682062695" lon="11.323001059128542"><ele>122.0</ele><time>2026-04-26T09:48:06.999Z</time></trkpt><trkpt lat="45.5215515121307" lon="11.323148284435113"><ele>122.0</ele><time>2026-04-26T09:48:07.999Z</time></trkpt><trkpt lat="45.52146946577735" lon="11.323286213376145"><ele>122.0</ele><time>2026-04-26T09:48:08.999Z</time></trkpt><trkpt lat="45.52138621703632" lon="11.323427876843285"><ele>122.0</ele><time>2026-04-26T09:48:09.999Z</time></trkpt><trkpt lat="45.521301208069445" lon="11.323576840094882"><ele>122.0</ele><time>2026-04-26T09:48:10.999Z</time></trkpt><trkpt lat="45.52121447516759" lon="11.323724278652314"><ele>122.0</ele><time>2026-04-26T09:48:11.999Z</time></trkpt><trkpt lat="45.52112840652917" lon="11.323886580011662"><ele>121.5</ele><time>2026-04-26T09:48:12.999Z</time></trkpt><trkpt lat="45.52103834096555" lon="11.324047723428542"><ele>121.0</ele><time>2026-04-26T09:48:13.999Z</time></trkpt><trkpt lat="45.52095008798039" lon="11.324207167910185"><ele>120.5</ele><time>2026-04-26T09:48:14.999Z</time></trkpt><trkpt lat="45.52086465037857" lon="11.324365232844958"><ele>120.0</ele><time>2026-04-26T09:48:15.999Z</time></trkpt><trkpt lat="45.52077752400994" lon="11.324524192415119"><ele>120.0</ele><time>2026-04-26T09:48:16.999Z</time></trkpt><trkpt lat="45.52069410902161" lon="11.324681624131127"><ele>120.0</ele><time>2026-04-26T09:48:17.999Z</time></trkpt><trkpt lat="45.52060869160898" lon="11.324840518446788"><ele>120.0</ele><time>2026-04-26T09:48:18.999Z</time></trkpt><trkpt lat="45.52052369105502" lon="11.324995012169342"><ele>120.0</ele><time>2026-04-26T09:48:19.999Z</time></trkpt><trkpt lat="45.520442455898845" lon="11.325148755541754"><ele>120.0</ele><time>2026-04-26T09:48:20.999Z</time></trkpt><trkpt lat="45.52036365544896" lon="11.325298620654042"><ele>120.0</ele><time>2026-04-26T09:48:21.999Z</time></trkpt><trkpt lat="45.520286478349185" lon="11.325444391555095"><ele>120.0</ele><time>2026-04-26T09:48:22.999Z</time></trkpt><trkpt lat="45.52020455519142" lon="11.325593442506058"><ele>120.0</ele><time>2026-04-26T09:48:23.999Z</time></trkpt><trkpt lat="45.52011856689697" lon="11.325745158584349"><ele>120.0</ele><time>2026-04-26T09:48:24.999Z</time></trkpt><trkpt lat="45.520040827830535" lon="11.325900873805223"><ele>120.0</ele><time>2026-04-26T09:48:25.999Z</time></trkpt><trkpt lat="45.51995854123587" lon="11.326059549637359"><ele>120.0</ele><time>2026-04-26T09:48:26.999Z</time></trkpt><trkpt lat="45.519872203395096" lon="11.326216500459248"><ele>120.0</ele><time>2026-04-26T09:48:27.999Z</time></trkpt><trkpt lat="45.51978775243445" lon="11.326365392588242"><ele>119.75</ele><time>2026-04-26T09:48:28.999Z</time></trkpt><trkpt lat="45.51969873248356" lon="11.326520177664536"><ele>119.5</ele><time>2026-04-26T09:48:29.999Z</time></trkpt><trkpt lat="45.5196277654791" lon="11.326671046326373"><ele>119.25</ele><time>2026-04-26T09:48:30.999Z</time></trkpt><trkpt lat="45.51955529024648" lon="11.326822580016003"><ele>119.0</ele><time>2026-04-26T09:48:31.999Z</time></trkpt><trkpt lat="45.519490278938264" lon="11.32696402280957"><ele>118.80000000000001</ele><time>2026-04-26T09:48:32.999Z</time></trkpt><trkpt lat="45.51942458049331" lon="11.327097627330826"><ele>118.60000000000001</ele><time>2026-04-26T09:48:33.999Z</time></trkpt><trkpt lat="45.51937273539457" lon="11.327230533116772"><ele>118.4</ele><time>2026-04-26T09:48:34.999Z</time></trkpt><trkpt lat="45.51931881073876" lon="11.327366664550986"><ele>118.2</ele><time>2026-04-26T09:48:35.999Z</time></trkpt><trkpt lat="45.51926236242363" lon="11.327512939217428"><ele>118.0</ele><time>2026-04-26T09:48:36.999Z</time></trkpt><trkpt lat="45.519205539431255" lon="11.327652696243083"><ele>117.75</ele><time>2026-04-26T09:48:37.999Z</time></trkpt><trkpt lat="45.51915388308382" lon="11.32779989463815"><ele>117.5</ele><time>2026-04-26T09:48:38.999Z</time></trkpt><trkpt lat="45.519096996503535" lon="11.327938447208544"><ele>117.25</ele><time>2026-04-26T09:48:39.999Z</time></trkpt><trkpt lat="45.51903954300374" lon="11.32808126307374"><ele>117.0</ele><time>2026-04-26T09:48:40.999Z</time></trkpt><trkpt lat="45.518984554349416" lon="11.328225511667261"><ele>117.0</ele><time>2026-04-26T09:48:41.999Z</time></trkpt><trkpt lat="45.51892819658729" lon="11.328371792667449"><ele>117.0</ele><time>2026-04-26T09:48:42.999Z</time></trkpt><trkpt lat="45.51887065312879" lon="11.328527052245507"><ele>117.0</ele><time>2026-04-26T09:48:43.999Z</time></trkpt><trkpt lat="45.51881588507619" lon="11.328682174527849"><ele>117.0</ele><time>2026-04-26T09:48:44.999Z</time></trkpt><trkpt lat="45.518763173550965" lon="11.328835624980284"><ele>116.5</ele><time>2026-04-26T09:48:45.999Z</time></trkpt><trkpt lat="45.518702162727216" lon="11.328992825398759"><ele>116.0</ele><time>2026-04-26T09:48:46.999Z</time></trkpt><trkpt lat="45.51864604995941" lon="11.329154195261106"><ele>115.5</ele><time>2026-04-26T09:48:47.999Z</time></trkpt><trkpt lat="45.51858527461928" lon="11.329316846675082"><ele>115.0</ele><time>2026-04-26T09:48:48.999Z</time></trkpt><trkpt lat="45.51852247025498" lon="11.329477906565412"><ele>115.0</ele><time>2026-04-26T09:48:49.999Z</time></trkpt><trkpt lat="45.51845807450896" lon="11.32964773006671"><ele>115.0</ele><time>2026-04-26T09:48:50.998Z</time></trkpt><trkpt lat="45.51838717725139" lon="11.329830434233658"><ele>115.0</ele><time>2026-04-26T09:48:51.998Z</time></trkpt><trkpt lat="45.51831291718558" lon="11.330015793261152"><ele>115.0</ele><time>2026-04-26T09:48:52.998Z</time></trkpt><trkpt lat="45.51823830455148" lon="11.330208705743424"><ele>115.0</ele><time>2026-04-26T09:48:53.998Z</time></trkpt><trkpt lat="45.51816497390668" lon="11.33040109377875"><ele>115.0</ele><time>2026-04-26T09:48:54.998Z</time></trkpt><trkpt lat="45.51808951885749" lon="11.330597802140337"><ele>115.0</ele><time>2026-04-26T09:48:55.998Z</time></trkpt><trkpt lat="45.51802248608978" lon="11.330788961678094"><ele>115.66666666666667</ele><time>2026-04-26T09:48:56.998Z</time></trkpt><trkpt lat="45.51795174777887" lon="11.330986356106104"><ele>116.33333333333334</ele><time>2026-04-26T09:48:57.998Z</time></trkpt><trkpt lat="45.517883597555766" lon="11.331176430996067"><ele>117.0</ele><time>2026-04-26T09:48:58.998Z</time></trkpt><trkpt lat="45.51781809166408" lon="11.331362026468891"><ele>117.25</ele><time>2026-04-26T09:48:59.998Z</time></trkpt><trkpt lat="45.517758512317286" lon="11.331541467629894"><ele>117.5</ele><time>2026-04-26T09:49:00.998Z</time></trkpt><trkpt lat="45.51770141337805" lon="11.33171050811073"><ele>117.75</ele><time>2026-04-26T09:49:01.998Z</time></trkpt><trkpt lat="45.51764455707752" lon="11.331876651993483"><ele>118.0</ele><time>2026-04-26T09:49:02.998Z</time></trkpt><trkpt lat="45.51759202172382" lon="11.332044022167787"><ele>118.0</ele><time>2026-04-26T09:49:03.998Z</time></trkpt><trkpt lat="45.517538663968665" lon="11.332216287801586"><ele>118.0</ele><time>2026-04-26T09:49:04.998Z</time></trkpt><trkpt lat="45.517484785458706" lon="11.33238482978275"><ele>118.0</ele><time>2026-04-26T09:49:05.998Z</time></trkpt><trkpt lat="45.51743307476843" lon="11.332559368968614"><ele>118.0</ele><time>2026-04-26T09:49:06.998Z</time></trkpt><trkpt lat="45.51738385805368" lon="11.332721239292033"><ele>117.60000000000001</ele><time>2026-04-26T09:49:07.998Z</time></trkpt><trkpt lat="45.517336822189876" lon="11.3328706008132"><ele>117.20000000000002</ele><time>2026-04-26T09:49:08.998Z</time></trkpt><trkpt lat="45.517296169531676" lon="11.333003983303028"><ele>116.8</ele><time>2026-04-26T09:49:09.998Z</time></trkpt><trkpt lat="45.51725614206361" lon="11.333138238371184"><ele>116.4</ele><time>2026-04-26T09:49:10.998Z</time></trkpt><trkpt lat="45.5172185587007" lon="11.333261288775422"><ele>116.0</ele><time>2026-04-26T09:49:11.998Z</time></trkpt><trkpt lat="45.517182555657875" lon="11.333374511379818"><ele>115.83333333333333</ele><time>2026-04-26T09:49:12.998Z</time></trkpt><trkpt lat="45.51715310752994" lon="11.33348296961156"><ele>115.66666666666666</ele><time>2026-04-26T09:49:13.998Z</time></trkpt><trkpt lat="45.517125821791" lon="11.333576820093295"><ele>115.5</ele><time>2026-04-26T09:49:14.998Z</time></trkpt><trkpt lat="45.517100821784936" lon="11.333663222975451"><ele>115.33333333333334</ele><time>2026-04-26T09:49:15.998Z</time></trkpt><trkpt lat="45.517061413308696" lon="11.333798178978007"><ele>115.16666666666667</ele><time>2026-04-26T09:49:17.998Z</time></trkpt><trkpt lat="45.51703384960631" lon="11.33388929566694"><ele>115.0</ele><time>2026-04-26T09:49:20Z</time></trkpt><trkpt lat="45.516971379150526" lon="11.33402666279588"><ele>114.2</ele><time>2026-04-26T09:49:22Z</time></trkpt><trkpt lat="45.51694116967384" lon="11.334120630102404"><ele>113.4</ele><time>2026-04-26T09:49:23Z</time></trkpt><trkpt lat="45.51692435317607" lon="11.334249506238985"><ele>112.6</ele><time>2026-04-26T09:49:24Z</time></trkpt><trkpt lat="45.51689936782835" lon="11.33439549344253"><ele>111.8</ele><time>2026-04-26T09:49:25Z</time></trkpt><trkpt lat="45.51686585381508" lon="11.334552964719077"><ele>111.0</ele><time>2026-04-26T09:49:26Z</time></trkpt><trkpt lat="45.51683289252676" lon="11.334679617344309"><ele>111.33333333333334</ele><time>2026-04-26T09:49:27Z</time></trkpt><trkpt lat="45.51677893153724" lon="11.334866818260043"><ele>111.66666666666667</ele><time>2026-04-26T09:49:28Z</time></trkpt><trkpt lat="45.51672269468272" lon="11.33507404440023"><ele>112.0</ele><time>2026-04-26T09:49:29Z</time></trkpt><trkpt lat="45.51666543778949" lon="11.33528627977057"><ele>112.0</ele><time>2026-04-26T09:49:30Z</time></trkpt><trkpt lat="45.516606269110525" lon="11.335505960196004"><ele>112.0</ele><time>2026-04-26T09:49:31Z</time></trkpt><trkpt lat="45.516546127885114" lon="11.335729637507757"><ele>112.0</ele><time>2026-04-26T09:49:32Z</time></trkpt><trkpt lat="45.516487605134365" lon="11.335945549980574"><ele>111.66666666666667</ele><time>2026-04-26T09:49:33Z</time></trkpt><trkpt lat="45.516431451774196" lon="11.336162469081096"><ele>111.33333333333334</ele><time>2026-04-26T09:49:34Z</time></trkpt><trkpt lat="45.51637009750521" lon="11.336379127744802"><ele>111.0</ele><time>2026-04-26T09:49:35Z</time></trkpt><trkpt lat="45.516304794008434" lon="11.336590424556206"><ele>111.0</ele><time>2026-04-26T09:49:36Z</time></trkpt><trkpt lat="45.51623681387408" lon="11.336788149675893"><ele>111.0</ele><time>2026-04-26T09:49:37Z</time></trkpt><trkpt lat="45.51616222672297" lon="11.336979880068952"><ele>111.0</ele><time>2026-04-26T09:49:38Z</time></trkpt><trkpt lat="45.516089171560914" lon="11.337168441935754"><ele>111.0</ele><time>2026-04-26T09:49:39Z</time></trkpt><trkpt lat="45.51601193870236" lon="11.337360341137245"><ele>111.0</ele><time>2026-04-26T09:49:40Z</time></trkpt><trkpt lat="45.51593310731006" lon="11.33754477271367"><ele>111.0</ele><time>2026-04-26T09:49:41Z</time></trkpt><trkpt lat="45.51585460444836" lon="11.337728274973461"><ele>111.0</ele><time>2026-04-26T09:49:42Z</time></trkpt><trkpt lat="45.515776682632655" lon="11.337910890255928"><ele>111.0</ele><time>2026-04-26T09:49:43Z</time></trkpt><trkpt lat="45.515697630769964" lon="11.338093106912453"><ele>111.0</ele><time>2026-04-26T09:49:44Z</time></trkpt><trkpt lat="45.51562180074145" lon="11.338277254127808"><ele>110.5</ele><time>2026-04-26T09:49:45Z</time></trkpt><trkpt lat="45.51554700824371" lon="11.338456162285876"><ele>110.0</ele><time>2026-04-26T09:49:46Z</time></trkpt><trkpt lat="45.51547369944063" lon="11.338630137303483"><ele>109.5</ele><time>2026-04-26T09:49:47Z</time></trkpt><trkpt lat="45.51540078243695" lon="11.338802951004459"><ele>109.0</ele><time>2026-04-26T09:49:48Z</time></trkpt><trkpt lat="45.515325060099535" lon="11.338975878424678"><ele>108.75</ele><time>2026-04-26T09:49:49Z</time></trkpt><trkpt lat="45.515256550890925" lon="11.339134174013072"><ele>108.5</ele><time>2026-04-26T09:49:50Z</time></trkpt><trkpt lat="45.51518573672521" lon="11.339294799104428"><ele>108.25</ele><time>2026-04-26T09:49:51Z</time></trkpt><trkpt lat="45.51511536742285" lon="11.33945738496498"><ele>108.0</ele><time>2026-04-26T09:49:52Z</time></trkpt><trkpt lat="45.51504340405217" lon="11.33962197855996"><ele>108.5</ele><time>2026-04-26T09:49:53Z</time></trkpt><trkpt lat="45.514970686718534" lon="11.33978871663558"><ele>109.0</ele><time>2026-04-26T09:49:54Z</time></trkpt><trkpt lat="45.514895296397995" lon="11.339959025356892"><ele>109.5</ele><time>2026-04-26T09:49:55Z</time></trkpt><trkpt lat="45.514818483213325" lon="11.340136069010931"><ele>110.0</ele><time>2026-04-26T09:49:56Z</time></trkpt><trkpt lat="45.51474129437483" lon="11.340315430794945"><ele>110.0</ele><time>2026-04-26T09:49:57Z</time></trkpt><trkpt lat="45.51466379191108" lon="11.340490117565645"><ele>110.0</ele><time>2026-04-26T09:49:58Z</time></trkpt><trkpt lat="45.51458990050137" lon="11.340656718492335"><ele>110.0</ele><time>2026-04-26T09:49:59Z</time></trkpt><trkpt lat="45.514516690126605" lon="11.340818153676912"><ele>110.0</ele><time>2026-04-26T09:50:00Z</time></trkpt><trkpt lat="45.51444282989032" lon="11.340978459045973"><ele>109.75</ele><time>2026-04-26T09:50:01Z</time></trkpt><trkpt lat="45.514365148480614" lon="11.341153122191269"><ele>109.5</ele><time>2026-04-26T09:50:02Z</time></trkpt><trkpt lat="45.51429263886233" lon="11.341323052697357"><ele>109.25</ele><time>2026-04-26T09:50:03Z</time></trkpt><trkpt lat="45.51422006931283" lon="11.341488775328902"><ele>109.0</ele><time>2026-04-26T09:50:03.999Z</time></trkpt><trkpt lat="45.51414624038962" lon="11.341657440047483"><ele>108.25</ele><time>2026-04-26T09:50:04.999Z</time></trkpt><trkpt lat="45.51407129787965" lon="11.341825812464936"><ele>107.5</ele><time>2026-04-26T09:50:05.999Z</time></trkpt><trkpt lat="45.51399530945511" lon="11.341995382802345"><ele>106.75</ele><time>2026-04-26T09:50:06.999Z</time></trkpt><trkpt lat="45.513923291600385" lon="11.342156837453171"><ele>106.0</ele><time>2026-04-26T09:50:07.999Z</time></trkpt><trkpt lat="45.513852400093185" lon="11.342316465987805"><ele>106.0</ele><time>2026-04-26T09:50:08.999Z</time></trkpt><trkpt lat="45.51378121047478" lon="11.342474504924539"><ele>106.0</ele><time>2026-04-26T09:50:09.999Z</time></trkpt><trkpt lat="45.513706906711356" lon="11.342641060701688"><ele>106.0</ele><time>2026-04-26T09:50:10.999Z</time></trkpt><trkpt lat="45.513631759922696" lon="11.342812155799063"><ele>106.0</ele><time>2026-04-26T09:50:11.999Z</time></trkpt><trkpt lat="45.51355478996851" lon="11.342987888229962"><ele>105.75</ele><time>2026-04-26T09:50:12.999Z</time></trkpt><trkpt lat="45.513479730270284" lon="11.343156805936273"><ele>105.5</ele><time>2026-04-26T09:50:13.999Z</time></trkpt><trkpt lat="45.51340437922781" lon="11.343326350076723"><ele>105.25</ele><time>2026-04-26T09:50:14.999Z</time></trkpt><trkpt lat="45.51333035871077" lon="11.343493796578526"><ele>105.0</ele><time>2026-04-26T09:50:15.999Z</time></trkpt><trkpt lat="45.51325569166287" lon="11.34366231239535"><ele>105.0</ele><time>2026-04-26T09:50:16.999Z</time></trkpt><trkpt lat="45.51318624507146" lon="11.343825320891437"><ele>105.0</ele><time>2026-04-26T09:50:17.999Z</time></trkpt><trkpt lat="45.51311121131796" lon="11.343989840651188"><ele>105.0</ele><time>2026-04-26T09:50:18.999Z</time></trkpt><trkpt lat="45.513036157755074" lon="11.34415773044672"><ele>105.0</ele><time>2026-04-26T09:50:19.999Z</time></trkpt><trkpt lat="45.51296071394109" lon="11.344327144335665"><ele>104.25</ele><time>2026-04-26T09:50:20.999Z</time></trkpt><trkpt lat="45.5128831584905" lon="11.344499971832171"><ele>103.5</ele><time>2026-04-26T09:50:21.999Z</time></trkpt><trkpt lat="45.512804130107156" lon="11.34467514617303"><ele>102.75</ele><time>2026-04-26T09:50:22.999Z</time></trkpt><trkpt lat="45.512724774549106" lon="11.344854590401685"><ele>102.0</ele><time>2026-04-26T09:50:23.999Z</time></trkpt><trkpt lat="45.5126455585828" lon="11.345032054257558"><ele>102.0</ele><time>2026-04-26T09:50:24.999Z</time></trkpt><trkpt lat="45.51256277020611" lon="11.345205580544649"><ele>102.0</ele><time>2026-04-26T09:50:25.999Z</time></trkpt><trkpt lat="45.51248454107048" lon="11.345385839003596"><ele>102.0</ele><time>2026-04-26T09:50:26.999Z</time></trkpt><trkpt lat="45.51240636951242" lon="11.345556589279557"><ele>102.0</ele><time>2026-04-26T09:50:27.999Z</time></trkpt><trkpt lat="45.5123308380581" lon="11.34572785337193"><ele>101.75</ele><time>2026-04-26T09:50:28.999Z</time></trkpt><trkpt lat="45.51225903070262" lon="11.34589701549178"><ele>101.5</ele><time>2026-04-26T09:50:29.999Z</time></trkpt><trkpt lat="45.51219216382571" lon="11.346050509538896"><ele>101.25</ele><time>2026-04-26T09:50:30.999Z</time></trkpt><trkpt lat="45.512126482140815" lon="11.346186125868007"><ele>101.0</ele><time>2026-04-26T09:50:31.999Z</time></trkpt><trkpt lat="45.51206930861012" lon="11.346324870740029"><ele>101.0</ele><time>2026-04-26T09:50:32.999Z</time></trkpt><trkpt lat="45.512010097551936" lon="11.34645062083231"><ele>101.0</ele><time>2026-04-26T09:50:33.999Z</time></trkpt><trkpt lat="45.51195519292499" lon="11.34657257793745"><ele>101.0</ele><time>2026-04-26T09:50:34.999Z</time></trkpt><trkpt lat="45.511904705110496" lon="11.34668981062452"><ele>101.0</ele><time>2026-04-26T09:50:35.999Z</time></trkpt><trkpt lat="45.51185956151298" lon="11.346795919012633"><ele>101.0</ele><time>2026-04-26T09:50:36.999Z</time></trkpt><trkpt lat="45.511813084819714" lon="11.346902586588293"><ele>100.99999999999999</ele><time>2026-04-26T09:50:37.999Z</time></trkpt><trkpt lat="45.51176294870939" lon="11.346989864702964"><ele>101.0</ele><time>2026-04-26T09:50:38.999Z</time></trkpt><trkpt lat="45.511703681696744" lon="11.347059472993184"><ele>101.0</ele><time>2026-04-26T09:50:39.999Z</time></trkpt><trkpt lat="45.51164482148595" lon="11.347103622177219"><ele>101.0</ele><time>2026-04-26T09:50:40.999Z</time></trkpt><trkpt lat="45.51156905225939" lon="11.347098197103415"><ele>100.99999999999999</ele><time>2026-04-26T09:50:41.999Z</time></trkpt><trkpt lat="45.51149434003006" lon="11.347143185254685"><ele>101.0</ele><time>2026-04-26T09:50:42.999Z</time></trkpt><trkpt lat="45.51139697370292" lon="11.347144986547434"><ele>101.0</ele><time>2026-04-26T09:50:43.999Z</time></trkpt><trkpt lat="45.5112861905916" lon="11.347134584955425"><ele>101.0</ele><time>2026-04-26T09:50:44.999Z</time></trkpt><trkpt lat="45.51116542389695" lon="11.347129449475045"><ele>101.0</ele><time>2026-04-26T09:50:45.999Z</time></trkpt><trkpt lat="45.5110480503729" lon="11.347129565901993"><ele>101.0</ele><time>2026-04-26T09:50:46.999Z</time></trkpt><trkpt lat="45.51092771974782" lon="11.347133669928946"><ele>100.5</ele><time>2026-04-26T09:50:47.999Z</time></trkpt><trkpt lat="45.51080647139482" lon="11.347134086201011"><ele>100.0</ele><time>2026-04-26T09:50:48.999Z</time></trkpt><trkpt lat="45.510691571426264" lon="11.347130294684808"><ele>99.5</ele><time>2026-04-26T09:50:49.999Z</time></trkpt><trkpt lat="45.51057907072177" lon="11.347130575858783"><ele>99.0</ele><time>2026-04-26T09:50:50.999Z</time></trkpt><trkpt lat="45.510472707194076" lon="11.34720351482227"><ele>98.75</ele><time>2026-04-26T09:50:51.999Z</time></trkpt><trkpt lat="45.510405136705955" lon="11.347340705090673"><ele>98.5</ele><time>2026-04-26T09:50:52.999Z</time></trkpt><trkpt lat="45.51034839266852" lon="11.34747784139167"><ele>98.25</ele><time>2026-04-26T09:50:53.999Z</time></trkpt><trkpt lat="45.510330496249864" lon="11.347654462337823"><ele>98.0</ele><time>2026-04-26T09:50:54.999Z</time></trkpt><trkpt lat="45.51032090495921" lon="11.347840539774786"><ele>98.0</ele><time>2026-04-26T09:50:55.999Z</time></trkpt><trkpt lat="45.51029679289595" lon="11.348036197159882"><ele>98.0</ele><time>2026-04-26T09:50:56.999Z</time></trkpt><trkpt lat="45.51026654648589" lon="11.348229317692766"><ele>98.0</ele><time>2026-04-26T09:50:57.999Z</time></trkpt><trkpt lat="45.51023562599284" lon="11.348423080212374"><ele>98.0</ele><time>2026-04-26T09:50:58.999Z</time></trkpt><trkpt lat="45.51020838036281" lon="11.348605069435576"><ele>98.0</ele><time>2026-04-26T09:50:59.999Z</time></trkpt><trkpt lat="45.51018368272288" lon="11.348766124994139"><ele>98.0</ele><time>2026-04-26T09:51:00.999Z</time></trkpt><trkpt lat="45.51017742871142" lon="11.348911682238482"><ele>98.0</ele><time>2026-04-26T09:51:01.999Z</time></trkpt><trkpt lat="45.51022719326138" lon="11.349038843414432"><ele>98.0</ele><time>2026-04-26T09:51:02.999Z</time></trkpt><trkpt lat="45.51028230524648" lon="11.34916679711577"><ele>98.0</ele><time>2026-04-26T09:51:03.999Z</time></trkpt><trkpt lat="45.510391279520924" lon="11.349238833240065"><ele>98.5</ele><time>2026-04-26T09:51:04.999Z</time></trkpt><trkpt lat="45.51050999821999" lon="11.349270076930047"><ele>99.0</ele><time>2026-04-26T09:51:05.999Z</time></trkpt><trkpt lat="45.51064159007175" lon="11.349254531402496"><ele>99.5</ele><time>2026-04-26T09:51:06.999Z</time></trkpt><trkpt lat="45.51077873722314" lon="11.349243806465022"><ele>100.0</ele><time>2026-04-26T09:51:07.999Z</time></trkpt><trkpt lat="45.510922783764265" lon="11.34924564917691"><ele>100.0</ele><time>2026-04-26T09:51:08.999Z</time></trkpt><trkpt lat="45.511059204156055" lon="11.349243608084347"><ele>100.0</ele><time>2026-04-26T09:51:09.999Z</time></trkpt><trkpt lat="45.51118284573176" lon="11.349249170976417"><ele>100.0</ele><time>2026-04-26T09:51:10.999Z</time></trkpt><trkpt lat="45.511287546778526" lon="11.349214052296409"><ele>100.0</ele><time>2026-04-26T09:51:11.999Z</time></trkpt><trkpt lat="45.5113997074691" lon="11.34931710769272"><ele>99.75</ele><time>2026-04-26T09:51:12.999Z</time></trkpt><trkpt lat="45.51147794823442" lon="11.349433651823956"><ele>99.5</ele><time>2026-04-26T09:51:13.999Z</time></trkpt><trkpt lat="45.51156047471926" lon="11.349521515445234"><ele>99.25</ele><time>2026-04-26T09:51:14.999Z</time></trkpt><trkpt lat="45.51152872492301" lon="11.349808330308566"><ele>99.0</ele><time>2026-04-26T09:51:15.998Z</time></trkpt><trkpt lat="45.51154414611872" lon="11.35000418377422"><ele>99.0</ele><time>2026-04-26T09:51:16.998Z</time></trkpt><trkpt lat="45.511554388929596" lon="11.350231377000013"><ele>99.0</ele><time>2026-04-26T09:51:17.998Z</time></trkpt><trkpt lat="45.51157238851252" lon="11.350463721443079"><ele>99.0</ele><time>2026-04-26T09:51:18.998Z</time></trkpt><trkpt lat="45.511588276041465" lon="11.350704760641314"><ele>99.0</ele><time>2026-04-26T09:51:19.998Z</time></trkpt><trkpt lat="45.51160785551179" lon="11.350961864398467"><ele>99.0</ele><time>2026-04-26T09:51:20.998Z</time></trkpt><trkpt lat="45.51162738062359" lon="11.35121995716558"><ele>99.0</ele><time>2026-04-26T09:51:21.998Z</time></trkpt><trkpt lat="45.51164726401592" lon="11.35148634245569"><ele>99.0</ele><time>2026-04-26T09:51:22.998Z</time></trkpt><trkpt lat="45.51166617322478" lon="11.35175076347315"><ele>99.0</ele><time>2026-04-26T09:51:23.998Z</time></trkpt><trkpt lat="45.511684175067685" lon="11.352013107339454"><ele>99.0</ele><time>2026-04-26T09:51:25Z</time></trkpt><trkpt lat="45.51170503855234" lon="11.352277201636507"><ele>98.66666666666666</ele><time>2026-04-26T09:51:26Z</time></trkpt><trkpt lat="45.5117236096714" lon="11.352542932428316"><ele>98.33333333333333</ele><time>2026-04-26T09:51:27Z</time></trkpt><trkpt lat="45.511744361893" lon="11.352819023319578"><ele>98.0</ele><time>2026-04-26T09:51:28Z</time></trkpt><trkpt lat="45.511762666987075" lon="11.353099340506379"><ele>98.0</ele><time>2026-04-26T09:51:29Z</time></trkpt><trkpt lat="45.511782959233976" lon="11.353378099127804"><ele>98.0</ele><time>2026-04-26T09:51:30Z</time></trkpt><trkpt lat="45.51180362171519" lon="11.353673906056452"><ele>98.0</ele><time>2026-04-26T09:51:31Z</time></trkpt><trkpt lat="45.51182513101017" lon="11.353964729037024"><ele>98.0</ele><time>2026-04-26T09:51:32Z</time></trkpt><trkpt lat="45.511846173223375" lon="11.354250804485243"><ele>98.0</ele><time>2026-04-26T09:51:33Z</time></trkpt><trkpt lat="45.511866494591665" lon="11.354539869618643"><ele>98.0</ele><time>2026-04-26T09:51:34Z</time></trkpt><trkpt lat="45.51188595164264" lon="11.354823715529253"><ele>97.66666666666666</ele><time>2026-04-26T09:51:35Z</time></trkpt><trkpt lat="45.51190703337261" lon="11.355102401568422"><ele>97.33333333333334</ele><time>2026-04-26T09:51:36Z</time></trkpt><trkpt lat="45.51192997042666" lon="11.355388646246798"><ele>97.0</ele><time>2026-04-26T09:51:37Z</time></trkpt><trkpt lat="45.511957824568114" lon="11.355670468596303"><ele>97.0</ele><time>2026-04-26T09:51:38Z</time></trkpt><trkpt lat="45.51199396559639" lon="11.355953503456547"><ele>97.0</ele><time>2026-04-26T09:51:39Z</time></trkpt><trkpt lat="45.512047298563225" lon="11.356242422838301"><ele>97.0</ele><time>2026-04-26T09:51:40Z</time></trkpt><trkpt lat="45.512115323073196" lon="11.356516988870466"><ele>97.0</ele><time>2026-04-26T09:51:41Z</time></trkpt><trkpt lat="45.51218560836026" lon="11.356795002321311"><ele>97.0</ele><time>2026-04-26T09:51:42Z</time></trkpt><trkpt lat="45.512259191450745" lon="11.357063035791976"><ele>97.0</ele><time>2026-04-26T09:51:43Z</time></trkpt><trkpt lat="45.51233527843148" lon="11.357323365724914"><ele>97.0</ele><time>2026-04-26T09:51:44Z</time></trkpt><trkpt lat="45.51240990790477" lon="11.357575992471386"><ele>97.0</ele><time>2026-04-26T09:51:45Z</time></trkpt><trkpt lat="45.51248028270898" lon="11.357827845275173"><ele>97.0</ele><time>2026-04-26T09:51:46Z</time></trkpt><trkpt lat="45.512547403536374" lon="11.358064930152443"><ele>96.0</ele><time>2026-04-26T09:51:47Z</time></trkpt><trkpt lat="45.51261506140644" lon="11.358301800598362"><ele>95.0</ele><time>2026-04-26T09:51:48Z</time></trkpt><trkpt lat="45.512677159508286" lon="11.35851439085082"><ele>94.0</ele><time>2026-04-26T09:51:49Z</time></trkpt><trkpt lat="45.51274019336229" lon="11.35873396341844"><ele>94.0</ele><time>2026-04-26T09:51:50Z</time></trkpt><trkpt lat="45.512801054755926" lon="11.358952474852964"><ele>94.0</ele><time>2026-04-26T09:51:51Z</time></trkpt><trkpt lat="45.51286451485663" lon="11.359167318258917"><ele>94.0</ele><time>2026-04-26T09:51:52Z</time></trkpt><trkpt lat="45.51292905798409" lon="11.359381104237869"><ele>94.25</ele><time>2026-04-26T09:51:53Z</time></trkpt><trkpt lat="45.51298812423232" lon="11.359580673573998"><ele>94.5</ele><time>2026-04-26T09:51:54Z</time></trkpt><trkpt lat="45.513038784844944" lon="11.359760717204582"><ele>94.75</ele><time>2026-04-26T09:51:55Z</time></trkpt><trkpt lat="45.51308199795071" lon="11.359913728516675"><ele>95.0</ele><time>2026-04-26T09:51:56Z</time></trkpt><trkpt lat="45.513118646321345" lon="11.36003756089286"><ele>95.16666666666667</ele><time>2026-04-26T09:51:57Z</time></trkpt><trkpt lat="45.513152801853074" lon="11.360132216291156"><ele>95.33333333333334</ele><time>2026-04-26T09:51:58Z</time></trkpt><trkpt lat="45.513188506384544" lon="11.360248978912798"><ele>95.5</ele><time>2026-04-26T09:52:00Z</time></trkpt><trkpt lat="45.51324591446288" lon="11.360364264159724"><ele>95.66666666666667</ele><time>2026-04-26T09:52:02Z</time></trkpt><trkpt lat="45.51325263198286" lon="11.360480665929975"><ele>95.83333333333333</ele><time>2026-04-26T09:52:03Z</time></trkpt><trkpt lat="45.5132521272623" lon="11.360583201638299"><ele>96.0</ele><time>2026-04-26T09:52:04Z</time></trkpt><trkpt lat="45.51328719472786" lon="11.360682358034522"><ele>95.6</ele><time>2026-04-26T09:52:05Z</time></trkpt><trkpt lat="45.513331933689386" lon="11.36079407956862"><ele>95.19999999999999</ele><time>2026-04-26T09:52:06Z</time></trkpt><trkpt lat="45.51336990945989" lon="11.360917094961048"><ele>94.80000000000001</ele><time>2026-04-26T09:52:07Z</time></trkpt><trkpt lat="45.51339288874839" lon="11.361059142074208"><ele>94.4</ele><time>2026-04-26T09:52:08Z</time></trkpt><trkpt lat="45.513404164481415" lon="11.361217902845913"><ele>94.0</ele><time>2026-04-26T09:52:09Z</time></trkpt><trkpt lat="45.51340944948365" lon="11.361387234397592"><ele>94.0</ele><time>2026-04-26T09:52:10Z</time></trkpt><trkpt lat="45.51341311428737" lon="11.36156463613694"><ele>94.0</ele><time>2026-04-26T09:52:11Z</time></trkpt><trkpt lat="45.5134174190327" lon="11.361760816985777"><ele>94.0</ele><time>2026-04-26T09:52:12Z</time></trkpt><trkpt lat="45.513423270585285" lon="11.361968768608408"><ele>94.0</ele><time>2026-04-26T09:52:13Z</time></trkpt><trkpt lat="45.51343056506233" lon="11.362181619980042"><ele>93.5</ele><time>2026-04-26T09:52:14Z</time></trkpt><trkpt lat="45.5134338799692" lon="11.362388296332327"><ele>93.0</ele><time>2026-04-26T09:52:14.999Z</time></trkpt><trkpt lat="45.513437912096876" lon="11.362577300054431"><ele>92.5</ele><time>2026-04-26T09:52:15.999Z</time></trkpt><trkpt lat="45.51344474135798" lon="11.362754830842208"><ele>92.0</ele><time>2026-04-26T09:52:16.999Z</time></trkpt><trkpt lat="45.513449824163295" lon="11.362914282287466"><ele>92.0</ele><time>2026-04-26T09:52:17.999Z</time></trkpt><trkpt lat="45.513462066083626" lon="11.363056461966593"><ele>92.0</ele><time>2026-04-26T09:52:18.999Z</time></trkpt><trkpt lat="45.513482141973576" lon="11.3631693015179"><ele>92.0</ele><time>2026-04-26T09:52:19.999Z</time></trkpt><trkpt lat="45.5135033498867" lon="11.363261814102726"><ele>92.0</ele><time>2026-04-26T09:52:20.999Z</time></trkpt><trkpt lat="45.51350632064206" lon="11.363425855903005"><ele>92.0</ele><time>2026-04-26T09:52:22.999Z</time></trkpt><trkpt lat="45.5134735453393" lon="11.363536571316983"><ele>92.0</ele><time>2026-04-26T09:52:23.999Z</time></trkpt><trkpt lat="45.51344930525228" lon="11.363642987525255"><ele>92.0</ele><time>2026-04-26T09:52:24.999Z</time></trkpt><trkpt lat="45.51346662199271" lon="11.36382112325983"><ele>92.0</ele><time>2026-04-26T09:52:26.999Z</time></trkpt><trkpt lat="45.51352127894624" lon="11.363892462084598"><ele>92.0</ele><time>2026-04-26T09:52:27.999Z</time></trkpt><trkpt lat="45.51359128884068" lon="11.363951515193735"><ele>92.0</ele><time>2026-04-26T09:52:28.999Z</time></trkpt><trkpt lat="45.51368552437901" lon="11.363913325640706"><ele>92.0</ele><time>2026-04-26T09:52:29.999Z</time></trkpt><trkpt lat="45.513755053284775" lon="11.363799992915409"><ele>92.25</ele><time>2026-04-26T09:52:30.999Z</time></trkpt><trkpt lat="45.51382793028298" lon="11.36368043564815"><ele>92.5</ele><time>2026-04-26T09:52:31.999Z</time></trkpt><trkpt lat="45.513916711874316" lon="11.363562165730567"><ele>92.75</ele><time>2026-04-26T09:52:32.999Z</time></trkpt><trkpt lat="45.514041302133734" lon="11.363467248546788"><ele>93.0</ele><time>2026-04-26T09:52:33.999Z</time></trkpt><trkpt lat="45.514163524971565" lon="11.363401733569038"><ele>93.0</ele><time>2026-04-26T09:52:34.999Z</time></trkpt><trkpt lat="45.51430367407927" lon="11.363355757414984"><ele>93.0</ele><time>2026-04-26T09:52:35.999Z</time></trkpt><trkpt lat="45.514394206661436" lon="11.363366088814384"><ele>93.0</ele><time>2026-04-26T09:52:36.999Z</time></trkpt><trkpt lat="45.51455463349632" lon="11.363357052550372"><ele>93.0</ele><time>2026-04-26T09:52:37.999Z</time></trkpt><trkpt lat="45.514722263340644" lon="11.363347870348044"><ele>92.0</ele><time>2026-04-26T09:52:38.999Z</time></trkpt><trkpt lat="45.51490041004016" lon="11.363316602659205"><ele>91.0</ele><time>2026-04-26T09:52:39.999Z</time></trkpt><trkpt lat="45.51508439582497" lon="11.363311279023247"><ele>90.0</ele><time>2026-04-26T09:52:40.999Z</time></trkpt><trkpt lat="45.51527745820939" lon="11.363298055849125"><ele>91.0</ele><time>2026-04-26T09:52:41.999Z</time></trkpt><trkpt lat="45.51547375164687" lon="11.3632890294363"><ele>92.0</ele><time>2026-04-26T09:52:42.999Z</time></trkpt><trkpt lat="45.51567175735245" lon="11.363283715178287"><ele>93.0</ele><time>2026-04-26T09:52:43.999Z</time></trkpt><trkpt lat="45.515857688588255" lon="11.363270443751968"><ele>93.0</ele><time>2026-04-26T09:52:44.999Z</time></trkpt><trkpt lat="45.51603061133946" lon="11.363253151818567"><ele>93.0</ele><time>2026-04-26T09:52:45.999Z</time></trkpt><trkpt lat="45.51618968140232" lon="11.36326682776282"><ele>93.0</ele><time>2026-04-26T09:52:46.999Z</time></trkpt><trkpt lat="45.51633911956521" lon="11.363239771194866"><ele>93.25</ele><time>2026-04-26T09:52:47.999Z</time></trkpt><trkpt lat="45.51648352834248" lon="11.363231972352889"><ele>93.5</ele><time>2026-04-26T09:52:48.999Z</time></trkpt><trkpt lat="45.516623567272234" lon="11.363246609288105"><ele>93.75</ele><time>2026-04-26T09:52:49.999Z</time></trkpt><trkpt lat="45.516762180380006" lon="11.36324046351563"><ele>94.0</ele><time>2026-04-26T09:52:50.999Z</time></trkpt><trkpt lat="45.516879760543105" lon="11.363334830012267"><ele>94.0</ele><time>2026-04-26T09:52:51.999Z</time></trkpt><trkpt lat="45.51700285553276" lon="11.363432786900525"><ele>94.0</ele><time>2026-04-26T09:52:52.999Z</time></trkpt><trkpt lat="45.51712202815648" lon="11.363561264425691"><ele>94.0</ele><time>2026-04-26T09:52:53.999Z</time></trkpt><trkpt lat="45.51725452919984" lon="11.363693668800222"><ele>93.33333333333333</ele><time>2026-04-26T09:52:54.999Z</time></trkpt><trkpt lat="45.51739164110634" lon="11.363810905729395"><ele>92.66666666666667</ele><time>2026-04-26T09:52:55.999Z</time></trkpt><trkpt lat="45.51754554244211" lon="11.363888158241323"><ele>92.0</ele><time>2026-04-26T09:52:56.999Z</time></trkpt><trkpt lat="45.51771364134131" lon="11.36391040392653"><ele>92.0</ele><time>2026-04-26T09:52:57.999Z</time></trkpt><trkpt lat="45.51789511507573" lon="11.363832059287107"><ele>92.0</ele><time>2026-04-26T09:52:58.999Z</time></trkpt><trkpt lat="45.51807092698815" lon="11.36378343725773"><ele>92.0</ele><time>2026-04-26T09:52:59.999Z</time></trkpt><trkpt lat="45.518251662278686" lon="11.36374484333506"><ele>92.0</ele><time>2026-04-26T09:53:00.999Z</time></trkpt><trkpt lat="45.51843482687996" lon="11.363699335887778"><ele>92.0</ele><time>2026-04-26T09:53:01.999Z</time></trkpt><trkpt lat="45.518604095679876" lon="11.363660570125216"><ele>92.0</ele><time>2026-04-26T09:53:02.999Z</time></trkpt><trkpt lat="45.51874166919058" lon="11.363645472592086"><ele>91.0</ele><time>2026-04-26T09:53:03.999Z</time></trkpt><trkpt lat="45.51897499957612" lon="11.363594294327893"><ele>90.0</ele><time>2026-04-26T09:53:04.999Z</time></trkpt><trkpt lat="45.51919395412037" lon="11.363544269853294"><ele>90.0</ele><time>2026-04-26T09:53:05.999Z</time></trkpt><trkpt lat="45.51934849202071" lon="11.36351939904806"><ele>90.0</ele><time>2026-04-26T09:53:06.999Z</time></trkpt><trkpt lat="45.519474464442986" lon="11.36351426549327"><ele>90.0</ele><time>2026-04-26T09:53:07.999Z</time></trkpt><trkpt lat="45.51963526043248" lon="11.363519062308793"><ele>90.0</ele><time>2026-04-26T09:53:08.999Z</time></trkpt><trkpt lat="45.51980283749014" lon="11.363540652063191"><ele>90.0</ele><time>2026-04-26T09:53:09.999Z</time></trkpt><trkpt lat="45.51996675803917" lon="11.363577212423904"><ele>90.0</ele><time>2026-04-26T09:53:10.999Z</time></trkpt><trkpt lat="45.52012847110687" lon="11.363626776746571"><ele>90.0</ele><time>2026-04-26T09:53:11.999Z</time></trkpt><trkpt lat="45.520286653502936" lon="11.363697110431028"><ele>90.0</ele><time>2026-04-26T09:53:12.999Z</time></trkpt><trkpt lat="45.52044232349548" lon="11.36377629951706"><ele>90.0</ele><time>2026-04-26T09:53:13.999Z</time></trkpt><trkpt lat="45.520600583766665" lon="11.363867334658957"><ele>90.0</ele><time>2026-04-26T09:53:14.999Z</time></trkpt><trkpt lat="45.52076148576363" lon="11.363961760943248"><ele>90.0</ele><time>2026-04-26T09:53:15.999Z</time></trkpt><trkpt lat="45.52092655363829" lon="11.364065350699292"><ele>90.0</ele><time>2026-04-26T09:53:16.999Z</time></trkpt><trkpt lat="45.52109485998008" lon="11.3641727884177"><ele>90.0</ele><time>2026-04-26T09:53:17.999Z</time></trkpt><trkpt lat="45.52125862855826" lon="11.36425192090262"><ele>90.0</ele><time>2026-04-26T09:53:18.999Z</time></trkpt><trkpt lat="45.52142226385731" lon="11.364353914574552"><ele>90.0</ele><time>2026-04-26T09:53:19.999Z</time></trkpt><trkpt lat="45.521612144751785" lon="11.364448648688468"><ele>90.0</ele><time>2026-04-26T09:53:20.999Z</time></trkpt><trkpt lat="45.52179551511192" lon="11.364563680667924"><ele>90.0</ele><time>2026-04-26T09:53:21.999Z</time></trkpt><trkpt lat="45.521971331761485" lon="11.364653163001911"><ele>90.0</ele><time>2026-04-26T09:53:22.999Z</time></trkpt><trkpt lat="45.52214755508519" lon="11.364711160026701"><ele>90.0</ele><time>2026-04-26T09:53:23.999Z</time></trkpt><trkpt lat="45.52233072751279" lon="11.364756908960233"><ele>90.66666666666667</ele><time>2026-04-26T09:53:24.999Z</time></trkpt><trkpt lat="45.52250212795916" lon="11.36480017087206"><ele>91.33333333333334</ele><time>2026-04-26T09:53:25.998Z</time></trkpt><trkpt lat="45.52265623046603" lon="11.364844658591334"><ele>92.0</ele><time>2026-04-26T09:53:26.998Z</time></trkpt><trkpt lat="45.52284834085143" lon="11.364673838667288"><ele>91.66666666666667</ele><time>2026-04-26T09:53:27.998Z</time></trkpt><trkpt lat="45.52300260076419" lon="11.364575371117573"><ele>91.33333333333333</ele><time>2026-04-26T09:53:28.998Z</time></trkpt><trkpt lat="45.523178264223354" lon="11.364522047715857"><ele>91.0</ele><time>2026-04-26T09:53:29.998Z</time></trkpt><trkpt lat="45.52336118464022" lon="11.364450811684184"><ele>91.0</ele><time>2026-04-26T09:53:31Z</time></trkpt><trkpt lat="45.52353418173899" lon="11.36438124847975"><ele>91.0</ele><time>2026-04-26T09:53:32Z</time></trkpt><trkpt lat="45.52370596237994" lon="11.364337657415332"><ele>91.0</ele><time>2026-04-26T09:53:33Z</time></trkpt><trkpt lat="45.52387154804781" lon="11.36425272377585"><ele>91.66666666666666</ele><time>2026-04-26T09:53:34Z</time></trkpt><trkpt lat="45.524038843738836" lon="11.364189456079929"><ele>92.33333333333333</ele><time>2026-04-26T09:53:35Z</time></trkpt><trkpt lat="45.52420214277083" lon="11.364125816721295"><ele>93.0</ele><time>2026-04-26T09:53:36Z</time></trkpt><trkpt lat="45.524357731626125" lon="11.36406281911018"><ele>93.0</ele><time>2026-04-26T09:53:37Z</time></trkpt><trkpt lat="45.524506752119855" lon="11.364001308045902"><ele>93.0</ele><time>2026-04-26T09:53:38Z</time></trkpt><trkpt lat="45.52465310233162" lon="11.363935882302341"><ele>93.0</ele><time>2026-04-26T09:53:39Z</time></trkpt><trkpt lat="45.52480677897278" lon="11.363868326188584"><ele>92.66666666666667</ele><time>2026-04-26T09:53:40Z</time></trkpt><trkpt lat="45.52496336231216" lon="11.36379889544368"><ele>92.33333333333334</ele><time>2026-04-26T09:53:41Z</time></trkpt><trkpt lat="45.52511545375034" lon="11.363758746870367"><ele>92.0</ele><time>2026-04-26T09:53:42Z</time></trkpt><trkpt lat="45.525248165306" lon="11.363665253159155"><ele>92.0</ele><time>2026-04-26T09:53:43Z</time></trkpt><trkpt lat="45.52538634413081" lon="11.363608635457238"><ele>92.0</ele><time>2026-04-26T09:53:44Z</time></trkpt><trkpt lat="45.52551670799693" lon="11.36351267071946"><ele>92.0</ele><time>2026-04-26T09:53:45Z</time></trkpt><trkpt lat="45.52565178778443" lon="11.363400255610596"><ele>92.0</ele><time>2026-04-26T09:53:46Z</time></trkpt><trkpt lat="45.52578206493356" lon="11.363246433956196"><ele>92.0</ele><time>2026-04-26T09:53:47Z</time></trkpt><trkpt lat="45.525919012471874" lon="11.363123779753112"><ele>92.0</ele><time>2026-04-26T09:53:48Z</time></trkpt><trkpt lat="45.52603143774866" lon="11.362956678961105"><ele>92.0</ele><time>2026-04-26T09:53:49Z</time></trkpt><trkpt lat="45.52615770246253" lon="11.362788661926682"><ele>92.33333333333334</ele><time>2026-04-26T09:53:50Z</time></trkpt><trkpt lat="45.52627878678103" lon="11.362603254469615"><ele>92.66666666666667</ele><time>2026-04-26T09:53:51Z</time></trkpt><trkpt lat="45.52639763234473" lon="11.362409802991737"><ele>93.0</ele><time>2026-04-26T09:53:52Z</time></trkpt><trkpt lat="45.526516023358845" lon="11.362219546936407"><ele>93.66666666666667</ele><time>2026-04-26T09:53:53Z</time></trkpt><trkpt lat="45.52662402938821" lon="11.36203648655069"><ele>94.33333333333334</ele><time>2026-04-26T09:53:54Z</time></trkpt><trkpt lat="45.52676615121219" lon="11.361803039507658"><ele>95.0</ele><time>2026-04-26T09:53:55Z</time></trkpt><trkpt lat="45.52688784335458" lon="11.361603420772475"><ele>95.0</ele><time>2026-04-26T09:53:56Z</time></trkpt><trkpt lat="45.52700735243133" lon="11.361405223643013"><ele>95.0</ele><time>2026-04-26T09:53:57Z</time></trkpt><trkpt lat="45.527127329657795" lon="11.361203376062138"><ele>95.0</ele><time>2026-04-26T09:53:58Z</time></trkpt><trkpt lat="45.52723597049002" lon="11.361038732837745"><ele>95.33333333333334</ele><time>2026-04-26T09:53:59Z</time></trkpt><trkpt lat="45.52733043858723" lon="11.360925650898798"><ele>95.66666666666667</ele><time>2026-04-26T09:54:00Z</time></trkpt><trkpt lat="45.52745050982809" lon="11.360762096096384"><ele>96.0</ele><time>2026-04-26T09:54:01Z</time></trkpt><trkpt lat="45.52761598552393" lon="11.360509238858103"><ele>96.0</ele><time>2026-04-26T09:54:02Z</time></trkpt><trkpt lat="45.52777307655165" lon="11.36037484346206"><ele>96.0</ele><time>2026-04-26T09:54:03Z</time></trkpt><trkpt lat="45.52791459546763" lon="11.360225146417857"><ele>96.0</ele><time>2026-04-26T09:54:04Z</time></trkpt><trkpt lat="45.52804461667191" lon="11.36014765515905"><ele>96.0</ele><time>2026-04-26T09:54:05Z</time></trkpt><trkpt lat="45.52822180421604" lon="11.360026435316056"><ele>96.0</ele><time>2026-04-26T09:54:06Z</time></trkpt><trkpt lat="45.52842834103711" lon="11.359892672803923"><ele>96.0</ele><time>2026-04-26T09:54:07Z</time></trkpt><trkpt lat="45.5286141068546" lon="11.35977261877532"><ele>97.0</ele><time>2026-04-26T09:54:08Z</time></trkpt><trkpt lat="45.52876535429544" lon="11.359664225147363"><ele>98.0</ele><time>2026-04-26T09:54:09Z</time></trkpt><trkpt lat="45.528932685120964" lon="11.359562110226562"><ele>99.0</ele><time>2026-04-26T09:54:10Z</time></trkpt><trkpt lat="45.529112089299026" lon="11.359497742536822"><ele>99.0</ele><time>2026-04-26T09:54:11Z</time></trkpt><trkpt lat="45.5292743831885" lon="11.359440077441143"><ele>99.0</ele><time>2026-04-26T09:54:12Z</time></trkpt><trkpt lat="45.5294289366828" lon="11.359382243889254"><ele>99.0</ele><time>2026-04-26T09:54:13Z</time></trkpt><trkpt lat="45.52959820324246" lon="11.359356905682153"><ele>99.33333333333334</ele><time>2026-04-26T09:54:14Z</time></trkpt><trkpt lat="45.529765700055464" lon="11.359348458028297"><ele>99.66666666666667</ele><time>2026-04-26T09:54:15Z</time></trkpt><trkpt lat="45.52993218304591" lon="11.359353478184268"><ele>100.0</ele><time>2026-04-26T09:54:16Z</time></trkpt><trkpt lat="45.53010538299078" lon="11.359372863792089"><ele>100.0</ele><time>2026-04-26T09:54:17Z</time></trkpt><trkpt lat="45.530273365321115" lon="11.359411933824093"><ele>100.0</ele><time>2026-04-26T09:54:18Z</time></trkpt><trkpt lat="45.53044137843805" lon="11.359463469910771"><ele>100.0</ele><time>2026-04-26T09:54:19Z</time></trkpt><trkpt lat="45.53060251997165" lon="11.359524134406259"><ele>99.25</ele><time>2026-04-26T09:54:20Z</time></trkpt><trkpt lat="45.53075034429879" lon="11.359589788746268"><ele>98.5</ele><time>2026-04-26T09:54:21Z</time></trkpt><trkpt lat="45.530881390732645" lon="11.359660462866376"><ele>97.75</ele><time>2026-04-26T09:54:22Z</time></trkpt><trkpt lat="45.53101276019358" lon="11.35974758503207"><ele>97.0</ele><time>2026-04-26T09:54:23Z</time></trkpt><trkpt lat="45.5311447996111" lon="11.359850479344308"><ele>98.0</ele><time>2026-04-26T09:54:24Z</time></trkpt><trkpt lat="45.531278260098354" lon="11.35997445082017"><ele>99.0</ele><time>2026-04-26T09:54:25Z</time></trkpt><trkpt lat="45.531412468730736" lon="11.36010624371876"><ele>100.0</ele><time>2026-04-26T09:54:25.999Z</time></trkpt><trkpt lat="45.53154235212059" lon="11.360240522044178"><ele>100.0</ele><time>2026-04-26T09:54:26.999Z</time></trkpt><trkpt lat="45.53166251120735" lon="11.360370790409222"><ele>100.0</ele><time>2026-04-26T09:54:27.999Z</time></trkpt><trkpt lat="45.53177502426388" lon="11.360489953867477"><ele>100.0</ele><time>2026-04-26T09:54:28.999Z</time></trkpt><trkpt lat="45.53188484363186" lon="11.360609376006073"><ele>100.0</ele><time>2026-04-26T09:54:29.999Z</time></trkpt><trkpt lat="45.531986152307866" lon="11.360721128185258"><ele>99.75</ele><time>2026-04-26T09:54:30.999Z</time></trkpt><trkpt lat="45.53208660690052" lon="11.3608281179669"><ele>99.5</ele><time>2026-04-26T09:54:31.999Z</time></trkpt><trkpt lat="45.532188195915836" lon="11.360938393062822"><ele>99.25</ele><time>2026-04-26T09:54:32.999Z</time></trkpt><trkpt lat="45.53228500982832" lon="11.36104459374963"><ele>99.0</ele><time>2026-04-26T09:54:33.999Z</time></trkpt><trkpt lat="45.53237072069911" lon="11.361143687377517"><ele>99.0</ele><time>2026-04-26T09:54:34.999Z</time></trkpt><trkpt lat="45.53244601648624" lon="11.36123280572274"><ele>99.0</ele><time>2026-04-26T09:54:35.999Z</time></trkpt><trkpt lat="45.532514491094716" lon="11.361312642074664"><ele>99.0</ele><time>2026-04-26T09:54:36.999Z</time></trkpt><trkpt lat="45.5325817293808" lon="11.361387069664458"><ele>99.0</ele><time>2026-04-26T09:54:37.999Z</time></trkpt><trkpt lat="45.532641200015476" lon="11.361462610818213"><ele>99.0</ele><time>2026-04-26T09:54:38.999Z</time></trkpt><trkpt lat="45.53268600084404" lon="11.361559201181025"><ele>99.0</ele><time>2026-04-26T09:54:39.999Z</time></trkpt><trkpt lat="45.53273296745168" lon="11.361678794245183"><ele>98.5</ele><time>2026-04-26T09:54:40.999Z</time></trkpt><trkpt lat="45.53280090887538" lon="11.361785865431512"><ele>98.0</ele><time>2026-04-26T09:54:41.999Z</time></trkpt><trkpt lat="45.5329013203424" lon="11.36183107513485"><ele>97.5</ele><time>2026-04-26T09:54:42.999Z</time></trkpt><trkpt lat="45.53303686417834" lon="11.361868434017012"><ele>97.0</ele><time>2026-04-26T09:54:43.999Z</time></trkpt><trkpt lat="45.533149141230126" lon="11.361969655085455"><ele>96.66666666666667</ele><time>2026-04-26T09:54:44.999Z</time></trkpt><trkpt lat="45.533261278554896" lon="11.362119557812386"><ele>96.33333333333334</ele><time>2026-04-26T09:54:45.999Z</time></trkpt><trkpt lat="45.533390329736825" lon="11.362272889386162"><ele>96.0</ele><time>2026-04-26T09:54:46.999Z</time></trkpt><trkpt lat="45.53352772244141" lon="11.362423500813247"><ele>95.33333333333333</ele><time>2026-04-26T09:54:47.999Z</time></trkpt><trkpt lat="45.53366864589369" lon="11.362580365440166"><ele>94.66666666666666</ele><time>2026-04-26T09:54:48.999Z</time></trkpt><trkpt lat="45.53382185762121" lon="11.36274921799906"><ele>94.0</ele><time>2026-04-26T09:54:49.999Z</time></trkpt><trkpt lat="45.53397695584109" lon="11.362926334532457"><ele>94.33333333333333</ele><time>2026-04-26T09:54:50.999Z</time></trkpt><trkpt lat="45.53413414065703" lon="11.36310480250156"><ele>94.66666666666667</ele><time>2026-04-26T09:54:51.999Z</time></trkpt><trkpt lat="45.534300684398985" lon="11.36329531337901"><ele>95.0</ele><time>2026-04-26T09:54:52.999Z</time></trkpt><trkpt lat="45.53448030114806" lon="11.36349779139586"><ele>94.5</ele><time>2026-04-26T09:54:53.999Z</time></trkpt><trkpt lat="45.53470125261528" lon="11.363733806575853"><ele>94.0</ele><time>2026-04-26T09:54:54.999Z</time></trkpt><trkpt lat="45.534904986924616" lon="11.363971185519027"><ele>93.66666666666666</ele><time>2026-04-26T09:54:55.999Z</time></trkpt><trkpt lat="45.53504474188769" lon="11.364134225897219"><ele>93.33333333333333</ele><time>2026-04-26T09:54:56.999Z</time></trkpt><trkpt lat="45.535242745064416" lon="11.364365287842775"><ele>93.0</ele><time>2026-04-26T09:54:57.999Z</time></trkpt><trkpt lat="45.535284061095" lon="11.364442909639639"><ele>93.66666666666667</ele><time>2026-04-26T09:54:58.999Z</time></trkpt><trkpt lat="45.535443031420904" lon="11.364625773293227"><ele>94.33333333333334</ele><time>2026-04-26T09:54:59.999Z</time></trkpt><trkpt lat="45.535600188348745" lon="11.364807922462287"><ele>95.0</ele><time>2026-04-26T09:55:00.999Z</time></trkpt><trkpt lat="45.53576012922985" lon="11.36499141675992"><ele>95.0</ele><time>2026-04-26T09:55:01.999Z</time></trkpt><trkpt lat="45.53591604427089" lon="11.365174151562575"><ele>95.0</ele><time>2026-04-26T09:55:02.999Z</time></trkpt><trkpt lat="45.53607170359167" lon="11.365359294216244"><ele>95.0</ele><time>2026-04-26T09:55:03.999Z</time></trkpt><trkpt lat="45.53622780826761" lon="11.365546263441596"><ele>95.66666666666667</ele><time>2026-04-26T09:55:04.999Z</time></trkpt><trkpt lat="45.53638278138867" lon="11.365733926871544"><ele>96.33333333333334</ele><time>2026-04-26T09:55:05.999Z</time></trkpt><trkpt lat="45.53653827515744" lon="11.36592107402701"><ele>97.0</ele><time>2026-04-26T09:55:06.999Z</time></trkpt><trkpt lat="45.53669133179935" lon="11.366116500110673"><ele>97.0</ele><time>2026-04-26T09:55:07.999Z</time></trkpt><trkpt lat="45.53683931120629" lon="11.366321248402484"><ele>97.0</ele><time>2026-04-26T09:55:08.999Z</time></trkpt><trkpt lat="45.53697228002534" lon="11.366529756876163"><ele>97.0</ele><time>2026-04-26T09:55:09.999Z</time></trkpt><trkpt lat="45.53710270084363" lon="11.366744435449439"><ele>97.0</ele><time>2026-04-26T09:55:10.999Z</time></trkpt><trkpt lat="45.53722926889549" lon="11.366965986101302"><ele>97.0</ele><time>2026-04-26T09:55:11.999Z</time></trkpt><trkpt lat="45.53734896304775" lon="11.367196843419649"><ele>97.0</ele><time>2026-04-26T09:55:12.999Z</time></trkpt><trkpt lat="45.53746346329846" lon="11.36743456395797"><ele>96.33333333333334</ele><time>2026-04-26T09:55:13.999Z</time></trkpt><trkpt lat="45.537568970676865" lon="11.367681457764542"><ele>95.66666666666667</ele><time>2026-04-26T09:55:14.999Z</time></trkpt><trkpt lat="45.537668869374926" lon="11.367938379805366"><ele>95.0</ele><time>2026-04-26T09:55:15.999Z</time></trkpt><trkpt lat="45.53776345103281" lon="11.368198943103137"><ele>95.0</ele><time>2026-04-26T09:55:16.999Z</time></trkpt><trkpt lat="45.53785232048104" lon="11.368466995899645"><ele>95.0</ele><time>2026-04-26T09:55:17.999Z</time></trkpt><trkpt lat="45.53793293534108" lon="11.368735801021378"><ele>95.0</ele><time>2026-04-26T09:55:18.999Z</time></trkpt><trkpt lat="45.53801219288112" lon="11.369007765124673"><ele>96.33333333333334</ele><time>2026-04-26T09:55:19.999Z</time></trkpt><trkpt lat="45.5380926836859" lon="11.36929429181732"><ele>97.66666666666667</ele><time>2026-04-26T09:55:20.999Z</time></trkpt><trkpt lat="45.53817623781225" lon="11.369563033624035"><ele>99.0</ele><time>2026-04-26T09:55:21.999Z</time></trkpt><trkpt lat="45.538262422223454" lon="11.369828297259335"><ele>99.33333333333334</ele><time>2026-04-26T09:55:22.999Z</time></trkpt><trkpt lat="45.53834991005663" lon="11.370095396987997"><ele>99.66666666666667</ele><time>2026-04-26T09:55:23.999Z</time></trkpt><trkpt lat="45.53843846401019" lon="11.37036200309909"><ele>100.0</ele><time>2026-04-26T09:55:24.999Z</time></trkpt><trkpt lat="45.538524266527716" lon="11.370630933387657"><ele>99.66666666666667</ele><time>2026-04-26T09:55:25.999Z</time></trkpt><trkpt lat="45.538613014836635" lon="11.370894479912192"><ele>99.33333333333334</ele><time>2026-04-26T09:55:26.999Z</time></trkpt><trkpt lat="45.538709399724716" lon="11.371144998373955"><ele>99.0</ele><time>2026-04-26T09:55:27.999Z</time></trkpt><trkpt lat="45.538806647432835" lon="11.371401653277783"><ele>99.0</ele><time>2026-04-26T09:55:28.999Z</time></trkpt><trkpt lat="45.53890780806895" lon="11.371656942101502"><ele>99.0</ele><time>2026-04-26T09:55:29.999Z</time></trkpt><trkpt lat="45.53901406576516" lon="11.371906454529299"><ele>99.0</ele><time>2026-04-26T09:55:30.999Z</time></trkpt><trkpt lat="45.53912698746435" lon="11.37215242086524"><ele>99.0</ele><time>2026-04-26T09:55:31.999Z</time></trkpt><trkpt lat="45.53924338065709" lon="11.372380141255755"><ele>99.0</ele><time>2026-04-26T09:55:32.999Z</time></trkpt><trkpt lat="45.539364544772845" lon="11.372608182775622"><ele>99.0</ele><time>2026-04-26T09:55:33.998Z</time></trkpt><trkpt lat="45.53948120124907" lon="11.37285271984954"><ele>99.66666666666666</ele><time>2026-04-26T09:55:34.998Z</time></trkpt><trkpt lat="45.539613297450245" lon="11.373085441152812"><ele>100.33333333333333</ele><time>2026-04-26T09:55:35.998Z</time></trkpt><trkpt lat="45.53974515925102" lon="11.373317881753767"><ele>101.0</ele><time>2026-04-26T09:55:37Z</time></trkpt><trkpt lat="45.5398858455626" lon="11.37354243404581"><ele>101.0</ele><time>2026-04-26T09:55:38Z</time></trkpt><trkpt lat="45.5400327681359" lon="11.373758989595697"><ele>101.0</ele><time>2026-04-26T09:55:39Z</time></trkpt><trkpt lat="45.54016735050196" lon="11.373970537833562"><ele>101.0</ele><time>2026-04-26T09:55:40Z</time></trkpt><trkpt lat="45.540302174826216" lon="11.374178154674407"><ele>101.33333333333333</ele><time>2026-04-26T09:55:41Z</time></trkpt><trkpt lat="45.540445929434576" lon="11.374375247235458"><ele>101.66666666666666</ele><time>2026-04-26T09:55:42Z</time></trkpt><trkpt lat="45.5405853051733" lon="11.374560030561135"><ele>102.0</ele><time>2026-04-26T09:55:43Z</time></trkpt><trkpt lat="45.54073224712955" lon="11.374729664532135"><ele>102.0</ele><time>2026-04-26T09:55:44Z</time></trkpt><trkpt lat="45.54087699489059" lon="11.374893006818606"><ele>102.0</ele><time>2026-04-26T09:55:45Z</time></trkpt><trkpt lat="45.541026165234086" lon="11.375050720208744"><ele>102.0</ele><time>2026-04-26T09:55:46Z</time></trkpt><trkpt lat="45.54118228055726" lon="11.375207652101281"><ele>102.0</ele><time>2026-04-26T09:55:47Z</time></trkpt><trkpt lat="45.54133691251741" lon="11.375367731570426"><ele>102.0</ele><time>2026-04-26T09:55:48Z</time></trkpt><trkpt lat="45.54148742570402" lon="11.375534464294024"><ele>102.0</ele><time>2026-04-26T09:55:49Z</time></trkpt><trkpt lat="45.5416386242947" lon="11.375696673272762"><ele>102.0</ele><time>2026-04-26T09:55:50Z</time></trkpt><trkpt lat="45.54178918532514" lon="11.37585622455744"><ele>102.0</ele><time>2026-04-26T09:55:51Z</time></trkpt><trkpt lat="45.54193081142556" lon="11.376008984015028"><ele>102.0</ele><time>2026-04-26T09:55:52Z</time></trkpt><trkpt lat="45.54207042857391" lon="11.37614690781644"><ele>102.33333333333334</ele><time>2026-04-26T09:55:53Z</time></trkpt><trkpt lat="45.54219868917027" lon="11.3762813255415"><ele>102.66666666666667</ele><time>2026-04-26T09:55:54Z</time></trkpt><trkpt lat="45.54232449229254" lon="11.376412901470728"><ele>103.0</ele><time>2026-04-26T09:55:55Z</time></trkpt><trkpt lat="45.54244880012424" lon="11.376544330619197"><ele>103.33333333333334</ele><time>2026-04-26T09:55:56Z</time></trkpt><trkpt lat="45.54257004253064" lon="11.376681820953864"><ele>103.66666666666666</ele><time>2026-04-26T09:55:57Z</time></trkpt><trkpt lat="45.54269661123798" lon="11.376822497942081"><ele>104.0</ele><time>2026-04-26T09:55:58Z</time></trkpt><trkpt lat="45.54281937698861" lon="11.376976436031264"><ele>104.33333333333333</ele><time>2026-04-26T09:55:59Z</time></trkpt><trkpt lat="45.54292602879844" lon="11.37715207509393"><ele>104.66666666666666</ele><time>2026-04-26T09:56:00Z</time></trkpt><trkpt lat="45.543033887481464" lon="11.37733701046187"><ele>105.0</ele><time>2026-04-26T09:56:01Z</time></trkpt><trkpt lat="45.543131212701006" lon="11.377512735491115"><ele>105.0</ele><time>2026-04-26T09:56:02Z</time></trkpt><trkpt lat="45.54322286415404" lon="11.377676562525895"><ele>105.0</ele><time>2026-04-26T09:56:03Z</time></trkpt><trkpt lat="45.543304235662724" lon="11.37782278670825"><ele>105.0</ele><time>2026-04-26T09:56:04Z</time></trkpt><trkpt lat="45.54338426215001" lon="11.377965461832837"><ele>105.0</ele><time>2026-04-26T09:56:05Z</time></trkpt><trkpt lat="45.543459841893544" lon="11.378099565465252"><ele>104.2</ele><time>2026-04-26T09:56:06Z</time></trkpt><trkpt lat="45.54352380789075" lon="11.378221446253486"><ele>103.4</ele><time>2026-04-26T09:56:07Z</time></trkpt><trkpt lat="45.54357205481634" lon="11.37835064561418"><ele>102.6</ele><time>2026-04-26T09:56:08Z</time></trkpt><trkpt lat="45.54360588039261" lon="11.378492081980323"><ele>101.8</ele><time>2026-04-26T09:56:09Z</time></trkpt><trkpt lat="45.54361536483302" lon="11.378636300648049"><ele>101.0</ele><time>2026-04-26T09:56:10Z</time></trkpt><trkpt lat="45.54362920254412" lon="11.378770797461705"><ele>101.19999999999999</ele><time>2026-04-26T09:56:11Z</time></trkpt><trkpt lat="45.543682690592576" lon="11.378884248391005"><ele>101.39999999999999</ele><time>2026-04-26T09:56:12Z</time></trkpt><trkpt lat="45.54376673552812" lon="11.378963328649004"><ele>101.6</ele><time>2026-04-26T09:56:13Z</time></trkpt><trkpt lat="45.54387908086415" lon="11.37899925491064"><ele>101.8</ele><time>2026-04-26T09:56:14Z</time></trkpt><trkpt lat="45.543987355681395" lon="11.378946363104461"><ele>102.0</ele><time>2026-04-26T09:56:15Z</time></trkpt><trkpt lat="45.54409619442589" lon="11.37912890821064"><ele>103.0</ele><time>2026-04-26T09:56:16Z</time></trkpt><trkpt lat="45.54419965329781" lon="11.379253430677197"><ele>104.0</ele><time>2026-04-26T09:56:17Z</time></trkpt><trkpt lat="45.54430080740133" lon="11.379388408055373"><ele>105.0</ele><time>2026-04-26T09:56:18Z</time></trkpt><trkpt lat="45.54441796308588" lon="11.379522704215706"><ele>106.0</ele><time>2026-04-26T09:56:19Z</time></trkpt><trkpt lat="45.544545962046" lon="11.379655010769753"><ele>107.0</ele><time>2026-04-26T09:56:20Z</time></trkpt><trkpt lat="45.54469199550655" lon="11.379792762867122"><ele>108.0</ele><time>2026-04-26T09:56:21Z</time></trkpt><trkpt lat="45.54483843847193" lon="11.37990531415066"><ele>109.0</ele><time>2026-04-26T09:56:22Z</time></trkpt><trkpt lat="45.54500309864099" lon="11.380011167993155"><ele>109.0</ele><time>2026-04-26T09:56:23Z</time></trkpt><trkpt lat="45.54519326869629" lon="11.380110039988727"><ele>109.0</ele><time>2026-04-26T09:56:24Z</time></trkpt><trkpt lat="45.54537314783681" lon="11.380193669380844"><ele>109.0</ele><time>2026-04-26T09:56:25Z</time></trkpt><trkpt lat="45.54555775406664" lon="11.38029177918466"><ele>109.33333333333334</ele><time>2026-04-26T09:56:26Z</time></trkpt><trkpt lat="45.54574911330849" lon="11.380392394836562"><ele>109.66666666666666</ele><time>2026-04-26T09:56:27Z</time></trkpt><trkpt lat="45.54593635372371" lon="11.380491787661176"><ele>110.0</ele><time>2026-04-26T09:56:28Z</time></trkpt><trkpt lat="45.54611713659153" lon="11.380594049531096"><ele>110.33333333333333</ele><time>2026-04-26T09:56:29Z</time></trkpt><trkpt lat="45.54630199526628" lon="11.380695927234436"><ele>110.66666666666666</ele><time>2026-04-26T09:56:30Z</time></trkpt><trkpt lat="45.546478812999595" lon="11.380801984406428"><ele>111.0</ele><time>2026-04-26T09:56:31Z</time></trkpt><trkpt lat="45.546655746788815" lon="11.38091728379578"><ele>111.0</ele><time>2026-04-26T09:56:32Z</time></trkpt><trkpt lat="45.54681781759695" lon="11.38105038545956"><ele>111.0</ele><time>2026-04-26T09:56:32.999Z</time></trkpt><trkpt lat="45.54697586482438" lon="11.381193064318099"><ele>111.0</ele><time>2026-04-26T09:56:33.999Z</time></trkpt><trkpt lat="45.54713272202304" lon="11.381343686762259"><ele>111.33333333333334</ele><time>2026-04-26T09:56:34.999Z</time></trkpt><trkpt lat="45.547296849614305" lon="11.381491962737726"><ele>111.66666666666667</ele><time>2026-04-26T09:56:35.999Z</time></trkpt><trkpt lat="45.54745051561798" lon="11.381630624628828"><ele>112.0</ele><time>2026-04-26T09:56:36.999Z</time></trkpt><trkpt lat="45.54760675036688" lon="11.381771278820082"><ele>112.0</ele><time>2026-04-26T09:56:37.999Z</time></trkpt><trkpt lat="45.547762012983" lon="11.381908194357347"><ele>112.0</ele><time>2026-04-26T09:56:38.999Z</time></trkpt><trkpt lat="45.547910451409756" lon="11.382041065262827"><ele>112.0</ele><time>2026-04-26T09:56:39.999Z</time></trkpt><trkpt lat="45.54805625693979" lon="11.38217375040804"><ele>111.66666666666667</ele><time>2026-04-26T09:56:40.999Z</time></trkpt><trkpt lat="45.5482009178325" lon="11.382309676664018"><ele>111.33333333333334</ele><time>2026-04-26T09:56:41.999Z</time></trkpt><trkpt lat="45.548343227881055" lon="11.38243991100272"><ele>111.0</ele><time>2026-04-26T09:56:42.999Z</time></trkpt><trkpt lat="45.548486866919156" lon="11.382566665059775"><ele>111.0</ele><time>2026-04-26T09:56:43.999Z</time></trkpt><trkpt lat="45.54862333493624" lon="11.382687597162445"><ele>111.0</ele><time>2026-04-26T09:56:44.999Z</time></trkpt><trkpt lat="45.54875315875159" lon="11.382801822903598"><ele>111.0</ele><time>2026-04-26T09:56:45.999Z</time></trkpt><trkpt lat="45.5488735873162" lon="11.382904943711619"><ele>111.0</ele><time>2026-04-26T09:56:46.999Z</time></trkpt><trkpt lat="45.54897913315374" lon="11.382995024854038"><ele>111.0</ele><time>2026-04-26T09:56:47.999Z</time></trkpt><trkpt lat="45.54907568778932" lon="11.383072119692299"><ele>111.0</ele><time>2026-04-26T09:56:48.999Z</time></trkpt><trkpt lat="45.54915303589978" lon="11.383131060293616"><ele>111.0</ele><time>2026-04-26T09:56:49.999Z</time></trkpt><trkpt lat="45.549209344329796" lon="11.383183398916021"><ele>111.0</ele><time>2026-04-26T09:56:50.999Z</time></trkpt><trkpt lat="45.54929866410786" lon="11.383215588893998"><ele>111.0</ele><time>2026-04-26T09:56:52.999Z</time></trkpt><trkpt lat="45.54929926922011" lon="11.383401804445516"><ele>111.0</ele><time>2026-04-26T09:56:53.999Z</time></trkpt><trkpt lat="45.54931309422302" lon="11.383509563381152"><ele>111.0</ele><time>2026-04-26T09:56:54.999Z</time></trkpt><trkpt lat="45.54933576708327" lon="11.38363073194851"><ele>111.0</ele><time>2026-04-26T09:56:55.999Z</time></trkpt><trkpt lat="45.54938251985807" lon="11.383755270594417"><ele>111.0</ele><time>2026-04-26T09:56:56.999Z</time></trkpt><trkpt lat="45.54945090314195" lon="11.383868277156092"><ele>111.25</ele><time>2026-04-26T09:56:57.999Z</time></trkpt><trkpt lat="45.549545859161185" lon="11.383952659859135"><ele>111.5</ele><time>2026-04-26T09:56:58.999Z</time></trkpt><trkpt lat="45.549652924947495" lon="11.384006390779762"><ele>111.75</ele><time>2026-04-26T09:56:59.999Z</time></trkpt><trkpt lat="45.54976740384859" lon="11.38402415404879"><ele>112.0</ele><time>2026-04-26T09:57:00.999Z</time></trkpt><trkpt lat="45.54989793890336" lon="11.384007910533137"><ele>112.0</ele><time>2026-04-26T09:57:01.999Z</time></trkpt><trkpt lat="45.55003421540839" lon="11.383992513349398"><ele>112.0</ele><time>2026-04-26T09:57:02.999Z</time></trkpt><trkpt lat="45.55017686105544" lon="11.383997919540956"><ele>112.0</ele><time>2026-04-26T09:57:03.999Z</time></trkpt><trkpt lat="45.55032457708066" lon="11.384024066503363"><ele>112.0</ele><time>2026-04-26T09:57:04.999Z</time></trkpt><trkpt lat="45.550479030806166" lon="11.384051282966277"><ele>112.66666666666667</ele><time>2026-04-26T09:57:05.999Z</time></trkpt><trkpt lat="45.55063236731407" lon="11.384078093347506"><ele>113.33333333333334</ele><time>2026-04-26T09:57:06.999Z</time></trkpt><trkpt lat="45.55078665078447" lon="11.384102833699945"><ele>114.0</ele><time>2026-04-26T09:57:07.999Z</time></trkpt><trkpt lat="45.550947580203804" lon="11.384125934721432"><ele>114.0</ele><time>2026-04-26T09:57:08.999Z</time></trkpt><trkpt lat="45.551110637205646" lon="11.384153765096693"><ele>114.0</ele><time>2026-04-26T09:57:09.999Z</time></trkpt><trkpt lat="45.551282237494995" lon="11.384178751216407"><ele>114.0</ele><time>2026-04-26T09:57:10.999Z</time></trkpt><trkpt lat="45.55145845104315" lon="11.384206966212725"><ele>114.66666666666666</ele><time>2026-04-26T09:57:11.999Z</time></trkpt><trkpt lat="45.5516320114617" lon="11.384232577741768"><ele>115.33333333333333</ele><time>2026-04-26T09:57:12.999Z</time></trkpt><trkpt lat="45.55180009262484" lon="11.384262646817136"><ele>116.0</ele><time>2026-04-26T09:57:13.999Z</time></trkpt><trkpt lat="45.551969998187246" lon="11.38429365313781"><ele>116.66666666666666</ele><time>2026-04-26T09:57:14.999Z</time></trkpt><trkpt lat="45.552136453156365" lon="11.384323767637126"><ele>117.33333333333334</ele><time>2026-04-26T09:57:15.999Z</time></trkpt><trkpt lat="45.55229729236851" lon="11.384348485662876"><ele>118.0</ele><time>2026-04-26T09:57:16.999Z</time></trkpt><trkpt lat="45.5524565793546" lon="11.384370461290796"><ele>118.0</ele><time>2026-04-26T09:57:17.999Z</time></trkpt><trkpt lat="45.55261451231057" lon="11.38440045197938"><ele>118.0</ele><time>2026-04-26T09:57:18.999Z</time></trkpt><trkpt lat="45.55276676090221" lon="11.384426783376561"><ele>118.0</ele><time>2026-04-26T09:57:19.999Z</time></trkpt><trkpt lat="45.55291251056244" lon="11.384450949346869"><ele>117.33333333333334</ele><time>2026-04-26T09:57:20.999Z</time></trkpt><trkpt lat="45.553056091177886" lon="11.384474893581634"><ele>116.66666666666666</ele><time>2026-04-26T09:57:21.999Z</time></trkpt><trkpt lat="45.55320995733295" lon="11.384500661036844"><ele>116.0</ele><time>2026-04-26T09:57:22.999Z</time></trkpt><trkpt lat="45.553367820225" lon="11.384526725562337"><ele>116.0</ele><time>2026-04-26T09:57:23.999Z</time></trkpt><trkpt lat="45.55351320956017" lon="11.384549383442398"><ele>116.0</ele><time>2026-04-26T09:57:24.999Z</time></trkpt><trkpt lat="45.55367241734456" lon="11.384579752952883"><ele>116.0</ele><time>2026-04-26T09:57:25.999Z</time></trkpt><trkpt lat="45.55382429897141" lon="11.384607681995412"><ele>116.0</ele><time>2026-04-26T09:57:26.999Z</time></trkpt><trkpt lat="45.5539729641516" lon="11.384634895745933"><ele>116.0</ele><time>2026-04-26T09:57:27.999Z</time></trkpt><trkpt lat="45.55411454758652" lon="11.384663021431782"><ele>116.0</ele><time>2026-04-26T09:57:28.999Z</time></trkpt><trkpt lat="45.554260379201175" lon="11.384686903609365"><ele>116.0</ele><time>2026-04-26T09:57:29.999Z</time></trkpt><trkpt lat="45.55440941616058" lon="11.384707394216093"><ele>116.33333333333333</ele><time>2026-04-26T09:57:30.999Z</time></trkpt><trkpt lat="45.55457049265521" lon="11.384734809140987"><ele>116.66666666666666</ele><time>2026-04-26T09:57:31.999Z</time></trkpt><trkpt lat="45.55471997610318" lon="11.384767937112624"><ele>117.0</ele><time>2026-04-26T09:57:32.999Z</time></trkpt><trkpt lat="45.55485856118905" lon="11.384790510896933"><ele>117.0</ele><time>2026-04-26T09:57:33.999Z</time></trkpt><trkpt lat="45.55498851687859" lon="11.384808964034356"><ele>117.0</ele><time>2026-04-26T09:57:34.999Z</time></trkpt><trkpt lat="45.55511208587631" lon="11.384834558393239"><ele>117.0</ele><time>2026-04-26T09:57:35.999Z</time></trkpt><trkpt lat="45.55523118514466" lon="11.384849653655884"><ele>117.0</ele><time>2026-04-26T09:57:36.998Z</time></trkpt><trkpt lat="45.555349445093896" lon="11.38486818266289"><ele>118.0</ele><time>2026-04-26T09:57:37.998Z</time></trkpt><trkpt lat="45.5554567300754" lon="11.384890037484325"><ele>118.99999999999999</ele><time>2026-04-26T09:57:38.998Z</time></trkpt><trkpt lat="45.555554014563064" lon="11.384921207095713"><ele>119.99999999999999</ele><time>2026-04-26T09:57:39.998Z</time></trkpt><trkpt lat="45.55564179586277" lon="11.384960069488022"><ele>121.0</ele><time>2026-04-26T09:57:40.998Z</time></trkpt><trkpt lat="45.555721119929075" lon="11.384998986543664"><ele>122.0</ele><time>2026-04-26T09:57:41.998Z</time></trkpt><trkpt lat="45.555795365115046" lon="11.385047487896239"><ele>122.0</ele><time>2026-04-26T09:57:43Z</time></trkpt><trkpt lat="45.55586398626368" lon="11.38510866712245"><ele>121.99999999999999</ele><time>2026-04-26T09:57:44Z</time></trkpt><trkpt lat="45.555935935427904" lon="11.385162681151607"><ele>121.99999999999999</ele><time>2026-04-26T09:57:45Z</time></trkpt><trkpt lat="45.55602073428176" lon="11.385186452601221"><ele>122.0</ele><time>2026-04-26T09:57:46Z</time></trkpt><trkpt lat="45.556116873792696" lon="11.385178255393965"><ele>122.0</ele><time>2026-04-26T09:57:47Z</time></trkpt><trkpt lat="45.556219236521585" lon="11.385134619160564"><ele>122.25</ele><time>2026-04-26T09:57:48Z</time></trkpt><trkpt lat="45.55632778430168" lon="11.385096339753439"><ele>122.5</ele><time>2026-04-26T09:57:49Z</time></trkpt><trkpt lat="45.556445246086334" lon="11.385077928183405"><ele>122.75</ele><time>2026-04-26T09:57:50Z</time></trkpt><trkpt lat="45.55657571794151" lon="11.385079009827997"><ele>123.0</ele><time>2026-04-26T09:57:51Z</time></trkpt><trkpt lat="45.556711375345046" lon="11.385091288336897"><ele>123.0</ele><time>2026-04-26T09:57:52Z</time></trkpt><trkpt lat="45.55685052984315" lon="11.38511725856737"><ele>123.0</ele><time>2026-04-26T09:57:53Z</time></trkpt><trkpt lat="45.55698183170077" lon="11.385144505914969"><ele>123.0</ele><time>2026-04-26T09:57:54Z</time></trkpt><trkpt lat="45.557110196983565" lon="11.385166218191992"><ele>123.0</ele><time>2026-04-26T09:57:55Z</time></trkpt><trkpt lat="45.55724688757496" lon="11.385184927880832"><ele>123.0</ele><time>2026-04-26T09:57:56Z</time></trkpt><trkpt lat="45.55738054008511" lon="11.38520165905657"><ele>123.0</ele><time>2026-04-26T09:57:57Z</time></trkpt><trkpt lat="45.55751417019669" lon="11.385219515577772"><ele>123.0</ele><time>2026-04-26T09:57:58Z</time></trkpt><trkpt lat="45.55764961508108" lon="11.38523768603249"><ele>123.0</ele><time>2026-04-26T09:57:59Z</time></trkpt><trkpt lat="45.55778809843552" lon="11.38527033676147"><ele>123.0</ele><time>2026-04-26T09:58:00Z</time></trkpt><trkpt lat="45.55793452493797" lon="11.385250475318234"><ele>123.0</ele><time>2026-04-26T09:58:01Z</time></trkpt><trkpt lat="45.55808567498429" lon="11.385243697587741"><ele>123.0</ele><time>2026-04-26T09:58:02Z</time></trkpt><trkpt lat="45.55824185205826" lon="11.385225553968588"><ele>123.0</ele><time>2026-04-26T09:58:03Z</time></trkpt><trkpt lat="45.55840742315184" lon="11.385206289848114"><ele>123.0</ele><time>2026-04-26T09:58:04Z</time></trkpt><trkpt lat="45.55857267990116" lon="11.385188243877673"><ele>123.0</ele><time>2026-04-26T09:58:05Z</time></trkpt><trkpt lat="45.55873970547833" lon="11.385168705997534"><ele>122.66666666666666</ele><time>2026-04-26T09:58:06Z</time></trkpt><trkpt lat="45.55890588777934" lon="11.385150431544805"><ele>122.33333333333333</ele><time>2026-04-26T09:58:07Z</time></trkpt><trkpt lat="45.55907007063151" lon="11.385133730691539"><ele>122.0</ele><time>2026-04-26T09:58:08Z</time></trkpt><trkpt lat="45.55922627793858" lon="11.38511473273234"><ele>122.0</ele><time>2026-04-26T09:58:09Z</time></trkpt><trkpt lat="45.559372222443095" lon="11.385095296293184"><ele>122.0</ele><time>2026-04-26T09:58:10Z</time></trkpt><trkpt lat="45.559515355520745" lon="11.38510360507038"><ele>122.0</ele><time>2026-04-26T09:58:11Z</time></trkpt><trkpt lat="45.559654651361946" lon="11.385066553012011"><ele>122.0</ele><time>2026-04-26T09:58:12Z</time></trkpt><trkpt lat="45.55979485100289" lon="11.385051824212942"><ele>122.0</ele><time>2026-04-26T09:58:13Z</time></trkpt><trkpt lat="45.559936505718305" lon="11.385036782496487"><ele>122.0</ele><time>2026-04-26T09:58:14Z</time></trkpt><trkpt lat="45.560079444468805" lon="11.385044881098981"><ele>122.0</ele><time>2026-04-26T09:58:15Z</time></trkpt><trkpt lat="45.56022120650074" lon="11.38503011873832"><ele>122.0</ele><time>2026-04-26T09:58:16Z</time></trkpt><trkpt lat="45.5603650198034" lon="11.385014831266899"><ele>122.0</ele><time>2026-04-26T09:58:17Z</time></trkpt><trkpt lat="45.56050686366644" lon="11.384983159141816"><ele>122.0</ele><time>2026-04-26T09:58:18Z</time></trkpt><trkpt lat="45.560652596123894" lon="11.384972805095506"><ele>122.0</ele><time>2026-04-26T09:58:19Z</time></trkpt><trkpt lat="45.56079805191109" lon="11.38495966432109"><ele>122.0</ele><time>2026-04-26T09:58:20Z</time></trkpt><trkpt lat="45.56093912068986" lon="11.384943252630022"><ele>122.0</ele><time>2026-04-26T09:58:21Z</time></trkpt><trkpt lat="45.56108021698432" lon="11.384928689674366"><ele>122.0</ele><time>2026-04-26T09:58:22Z</time></trkpt><trkpt lat="45.561222313609" lon="11.384915652621885"><ele>122.0</ele><time>2026-04-26T09:58:23Z</time></trkpt><trkpt lat="45.56136998879296" lon="11.38489794678174"><ele>122.0</ele><time>2026-04-26T09:58:24Z</time></trkpt><trkpt lat="45.561525267937" lon="11.384876408929594"><ele>122.66666666666666</ele><time>2026-04-26T09:58:25Z</time></trkpt><trkpt lat="45.56168636479306" lon="11.384854348709002"><ele>123.33333333333334</ele><time>2026-04-26T09:58:26Z</time></trkpt><trkpt lat="45.561851597627374" lon="11.38483113552429"><ele>124.0</ele><time>2026-04-26T09:58:27Z</time></trkpt><trkpt lat="45.56202192338757" lon="11.384812030676509"><ele>123.66666666666667</ele><time>2026-04-26T09:58:28Z</time></trkpt><trkpt lat="45.56219352193323" lon="11.38479488605599"><ele>123.33333333333334</ele><time>2026-04-26T09:58:29Z</time></trkpt><trkpt lat="45.56237107812484" lon="11.38477817752203"><ele>123.0</ele><time>2026-04-26T09:58:30Z</time></trkpt><trkpt lat="45.56255846369426" lon="11.384758556009983"><ele>123.0</ele><time>2026-04-26T09:58:31Z</time></trkpt><trkpt lat="45.56275966137326" lon="11.384734012402719"><ele>123.0</ele><time>2026-04-26T09:58:32Z</time></trkpt><trkpt lat="45.5629713993105" lon="11.38473182219938"><ele>123.0</ele><time>2026-04-26T09:58:33Z</time></trkpt><trkpt lat="45.56319456157048" lon="11.384706846777464"><ele>123.5</ele><time>2026-04-26T09:58:34Z</time></trkpt><trkpt lat="45.56342359679432" lon="11.384680164074732"><ele>124.0</ele><time>2026-04-26T09:58:35Z</time></trkpt><trkpt lat="45.5636605927219" lon="11.384652503970413"><ele>125.0</ele><time>2026-04-26T09:58:35.999Z</time></trkpt><trkpt lat="45.56389205001465" lon="11.38462612765993"><ele>126.0</ele><time>2026-04-26T09:58:36.999Z</time></trkpt><trkpt lat="45.56410832015669" lon="11.384602414171674"><ele>127.0</ele><time>2026-04-26T09:58:37.999Z</time></trkpt><trkpt lat="45.56431134113038" lon="11.384580153426207"><ele>127.0</ele><time>2026-04-26T09:58:38.999Z</time></trkpt><trkpt lat="45.564540085664326" lon="11.384410953636456"><ele>127.0</ele><time>2026-04-26T09:58:39.999Z</time></trkpt><trkpt lat="45.56410709484257" lon="11.384589675528641"><ele>127.0</ele><time>2026-04-26T09:58:40.999Z</time></trkpt><trkpt lat="45.56420565820956" lon="11.384583612256833"><ele>126.99999999999999</ele><time>2026-04-26T09:58:41.999Z</time></trkpt><trkpt lat="45.564284491792364" lon="11.384581016083873"><ele>126.99999999999999</ele><time>2026-04-26T09:58:42.999Z</time></trkpt><trkpt lat="45.56435399409053" lon="11.384587663023687"><ele>127.0</ele><time>2026-04-26T09:58:43.999Z</time></trkpt><trkpt lat="45.56446585904245" lon="11.384590695430841"><ele>127.0</ele><time>2026-04-26T09:58:45.999Z</time></trkpt><trkpt lat="45.56456109721006" lon="11.384646460155373"><ele>127.16666666666667</ele><time>2026-04-26T09:58:47.999Z</time></trkpt><trkpt lat="45.56461273227838" lon="11.384703362364046"><ele>127.33333333333334</ele><time>2026-04-26T09:58:48.999Z</time></trkpt><trkpt lat="45.56468189297718" lon="11.384736687136533"><ele>127.5</ele><time>2026-04-26T09:58:49.999Z</time></trkpt><trkpt lat="45.56476773100355" lon="11.384723966522717"><ele>127.66666666666666</ele><time>2026-04-26T09:58:50.999Z</time></trkpt><trkpt lat="45.56485546407732" lon="11.384661573328724"><ele>127.83333333333333</ele><time>2026-04-26T09:58:51.999Z</time></trkpt><trkpt lat="45.5649282428536" lon="11.384543438944755"><ele>128.0</ele><time>2026-04-26T09:58:52.999Z</time></trkpt><trkpt lat="45.5650483953983" lon="11.384500402146262"><ele>128.0</ele><time>2026-04-26T09:58:53.999Z</time></trkpt><trkpt lat="45.565158060693335" lon="11.384467923858377"><ele>128.0</ele><time>2026-04-26T09:58:54.999Z</time></trkpt><trkpt lat="45.56525954431712" lon="11.384445635272558"><ele>128.0</ele><time>2026-04-26T09:58:55.999Z</time></trkpt><trkpt lat="45.56537699936255" lon="11.384429328600804"><ele>128.0</ele><time>2026-04-26T09:58:56.999Z</time></trkpt><trkpt lat="45.56551316026987" lon="11.384413400541849"><ele>128.33333333333331</ele><time>2026-04-26T09:58:57.999Z</time></trkpt><trkpt lat="45.565677584365915" lon="11.384391811566886"><ele>128.66666666666666</ele><time>2026-04-26T09:58:58.999Z</time></trkpt><trkpt lat="45.56586491724121" lon="11.38440585945322"><ele>129.0</ele><time>2026-04-26T09:58:59.999Z</time></trkpt><trkpt lat="45.566074498743255" lon="11.38438358579079"><ele>129.0</ele><time>2026-04-26T09:59:00.999Z</time></trkpt><trkpt lat="45.56629183007922" lon="11.384359980668432"><ele>129.0</ele><time>2026-04-26T09:59:01.999Z</time></trkpt><trkpt lat="45.56651306965385" lon="11.38431328410998"><ele>129.0</ele><time>2026-04-26T09:59:02.999Z</time></trkpt><trkpt lat="45.56668964264604" lon="11.384293207063125"><ele>129.0</ele><time>2026-04-26T09:59:03.999Z</time></trkpt><trkpt lat="45.56685144195167" lon="11.38427826915426"><ele>129.0</ele><time>2026-04-26T09:59:04.999Z</time></trkpt><trkpt lat="45.56700963721226" lon="11.384261761297578"><ele>129.0</ele><time>2026-04-26T09:59:05.999Z</time></trkpt><trkpt lat="45.56715635134219" lon="11.384251640843338"><ele>128.75</ele><time>2026-04-26T09:59:06.999Z</time></trkpt><trkpt lat="45.5672933421181" lon="11.38424472251993"><ele>128.5</ele><time>2026-04-26T09:59:07.999Z</time></trkpt><trkpt lat="45.56741798605196" lon="11.384235483180609"><ele>128.25</ele><time>2026-04-26T09:59:08.999Z</time></trkpt><trkpt lat="45.567531321247706" lon="11.384228419297528"><ele>128.0</ele><time>2026-04-26T09:59:09.999Z</time></trkpt><trkpt lat="45.56762988478008" lon="11.38422633608925"><ele>128.0</ele><time>2026-04-26T09:59:10.999Z</time></trkpt><trkpt lat="45.56771461576629" lon="11.384222281147604"><ele>128.0</ele><time>2026-04-26T09:59:11.999Z</time></trkpt><trkpt lat="45.56778139807035" lon="11.384222055524294"><ele>128.0</ele><time>2026-04-26T09:59:12.999Z</time></trkpt><trkpt lat="45.56790776940881" lon="11.384290318795136"><ele>128.0</ele><time>2026-04-26T09:59:14.999Z</time></trkpt><trkpt lat="45.56796969918786" lon="11.384367878526236"><ele>128.0</ele><time>2026-04-26T09:59:15.999Z</time></trkpt><trkpt lat="45.568037812807376" lon="11.38444467905514"><ele>128.66666666666666</ele><time>2026-04-26T09:59:16.999Z</time></trkpt><trkpt lat="45.568122173562976" lon="11.384494172346049"><ele>129.33333333333331</ele><time>2026-04-26T09:59:17.999Z</time></trkpt><trkpt lat="45.56821067305408" lon="11.384506531603638"><ele>130.0</ele><time>2026-04-26T09:59:18.999Z</time></trkpt><trkpt lat="45.568300028523566" lon="11.384485687855946"><ele>130.66666666666666</ele><time>2026-04-26T09:59:19.999Z</time></trkpt><trkpt lat="45.56837932362174" lon="11.384436605638639"><ele>131.33333333333334</ele><time>2026-04-26T09:59:20.999Z</time></trkpt><trkpt lat="45.568449775170194" lon="11.384358720308976"><ele>132.0</ele><time>2026-04-26T09:59:21.999Z</time></trkpt><trkpt lat="45.568513230792014" lon="11.384260228997265"><ele>132.0</ele><time>2026-04-26T09:59:22.999Z</time></trkpt><trkpt lat="45.56857329891263" lon="11.384154910298161"><ele>132.0</ele><time>2026-04-26T09:59:23.999Z</time></trkpt><trkpt lat="45.56865201864334" lon="11.384075444975068"><ele>132.0</ele><time>2026-04-26T09:59:24.999Z</time></trkpt><trkpt lat="45.56875565076233" lon="11.384045492947772"><ele>132.0</ele><time>2026-04-26T09:59:25.999Z</time></trkpt><trkpt lat="45.56887683463448" lon="11.384048155259846"><ele>132.0</ele><time>2026-04-26T09:59:26.999Z</time></trkpt><trkpt lat="45.56900280949136" lon="11.384051157562519"><ele>132.0</ele><time>2026-04-26T09:59:27.999Z</time></trkpt><trkpt lat="45.56913903198349" lon="11.384039890482443"><ele>132.0</ele><time>2026-04-26T09:59:28.999Z</time></trkpt><trkpt lat="45.56928211453137" lon="11.384024142613722"><ele>132.0</ele><time>2026-04-26T09:59:29.999Z</time></trkpt><trkpt lat="45.56943505301259" lon="11.384004530750264"><ele>132.0</ele><time>2026-04-26T09:59:30.999Z</time></trkpt><trkpt lat="45.56960251179779" lon="11.383979515058359"><ele>132.0</ele><time>2026-04-26T09:59:31.999Z</time></trkpt><trkpt lat="45.569765914491406" lon="11.383961520114541"><ele>132.0</ele><time>2026-04-26T09:59:32.999Z</time></trkpt><trkpt lat="45.56992812644988" lon="11.383943694497825"><ele>132.0</ele><time>2026-04-26T09:59:33.999Z</time></trkpt><trkpt lat="45.570095905784086" lon="11.383925417226065"><ele>132.0</ele><time>2026-04-26T09:59:34.999Z</time></trkpt><trkpt lat="45.57028198052096" lon="11.38390560261844"><ele>132.0</ele><time>2026-04-26T09:59:35.999Z</time></trkpt><trkpt lat="45.570479154439" lon="11.383884568288673"><ele>132.0</ele><time>2026-04-26T09:59:36.998Z</time></trkpt><trkpt lat="45.57068325041662" lon="11.383860243993755"><ele>133.0</ele><time>2026-04-26T09:59:37.998Z</time></trkpt><trkpt lat="45.57090064028502" lon="11.383823465148723"><ele>134.0</ele><time>2026-04-26T09:59:38.998Z</time></trkpt><trkpt lat="45.5711366656672" lon="11.383779759574947"><ele>134.0</ele><time>2026-04-26T09:59:39.998Z</time></trkpt><trkpt lat="45.57138405105307" lon="11.383747310588024"><ele>134.0</ele><time>2026-04-26T09:59:40.998Z</time></trkpt><trkpt lat="45.57164256148681" lon="11.383734376634086"><ele>134.0</ele><time>2026-04-26T09:59:41.998Z</time></trkpt><trkpt lat="45.57190890403043" lon="11.383722236661633"><ele>134.0</ele><time>2026-04-26T09:59:42.998Z</time></trkpt><trkpt lat="45.57217607573677" lon="11.383700528195549"><ele>134.0</ele><time>2026-04-26T09:59:43.998Z</time></trkpt><trkpt lat="45.57244351907114" lon="11.38367432639509"><ele>134.0</ele><time>2026-04-26T09:59:44.998Z</time></trkpt><trkpt lat="45.5727094270058" lon="11.383641574824733"><ele>135.0</ele><time>2026-04-26T09:59:45.998Z</time></trkpt><trkpt lat="45.57296915887453" lon="11.383611051934786"><ele>136.0</ele><time>2026-04-26T09:59:46.998Z</time></trkpt><trkpt lat="45.573225122313154" lon="11.383582817375476"><ele>136.0</ele><time>2026-04-26T09:59:47.998Z</time></trkpt><trkpt lat="45.57347291106217" lon="11.383555519414983"><ele>136.0</ele><time>2026-04-26T09:59:49Z</time></trkpt><trkpt lat="45.57370966604662" lon="11.383531095568397"><ele>136.0</ele><time>2026-04-26T09:59:50Z</time></trkpt><trkpt lat="45.57394609888785" lon="11.3835049341259"><ele>136.0</ele><time>2026-04-26T09:59:51Z</time></trkpt><trkpt lat="45.57418064877876" lon="11.383480180217537"><ele>136.0</ele><time>2026-04-26T09:59:52Z</time></trkpt><trkpt lat="45.57440436810011" lon="11.383458194492064"><ele>136.0</ele><time>2026-04-26T09:59:53Z</time></trkpt><trkpt lat="45.574631121049414" lon="11.383434455897184"><ele>136.0</ele><time>2026-04-26T09:59:54Z</time></trkpt><trkpt lat="45.57485050536569" lon="11.383408086733732"><ele>136.0</ele><time>2026-04-26T09:59:55Z</time></trkpt><trkpt lat="45.57507027495751" lon="11.383385979632868"><ele>136.0</ele><time>2026-04-26T09:59:56Z</time></trkpt><trkpt lat="45.5752885506568" lon="11.38336125392667"><ele>136.33333333333334</ele><time>2026-04-26T09:59:57Z</time></trkpt><trkpt lat="45.5755065017651" lon="11.383334406286794"><ele>136.66666666666666</ele><time>2026-04-26T09:59:58Z</time></trkpt><trkpt lat="45.575718125297826" lon="11.383311831608042"><ele>137.0</ele><time>2026-04-26T09:59:59Z</time></trkpt><trkpt lat="45.5759311736691" lon="11.38328914999"><ele>137.0</ele><time>2026-04-26T10:00:00Z</time></trkpt><trkpt lat="45.57614724874011" lon="11.383266895946871"><ele>137.0</ele><time>2026-04-26T10:00:01Z</time></trkpt><trkpt lat="45.57634974140631" lon="11.383243191655811"><ele>137.0</ele><time>2026-04-26T10:00:02Z</time></trkpt><trkpt lat="45.576552779877815" lon="11.383216933230258"><ele>137.0</ele><time>2026-04-26T10:00:03Z</time></trkpt><trkpt lat="45.57675127057182" lon="11.383194537944481"><ele>137.0</ele><time>2026-04-26T10:00:04Z</time></trkpt><trkpt lat="45.576945031595336" lon="11.383177612849682"><ele>137.0</ele><time>2026-04-26T10:00:05Z</time></trkpt><trkpt lat="45.57713155855581" lon="11.383158454076712"><ele>137.66666666666666</ele><time>2026-04-26T10:00:06Z</time></trkpt><trkpt lat="45.57731421535124" lon="11.383142334728069"><ele>138.33333333333334</ele><time>2026-04-26T10:00:07Z</time></trkpt><trkpt lat="45.57750042081479" lon="11.383116366337827"><ele>139.0</ele><time>2026-04-26T10:00:08Z</time></trkpt><trkpt lat="45.57768150710062" lon="11.383087198976135"><ele>139.33333333333334</ele><time>2026-04-26T10:00:09Z</time></trkpt><trkpt lat="45.57785405070085" lon="11.383046867480369"><ele>139.66666666666666</ele><time>2026-04-26T10:00:10Z</time></trkpt><trkpt lat="45.578012267609026" lon="11.38300014265349"><ele>140.0</ele><time>2026-04-26T10:00:11Z</time></trkpt><trkpt lat="45.57816657645607" lon="11.382950425953856"><ele>140.33333333333331</ele><time>2026-04-26T10:00:12Z</time></trkpt><trkpt lat="45.578320201232245" lon="11.382900435531257"><ele>140.66666666666666</ele><time>2026-04-26T10:00:13Z</time></trkpt><trkpt lat="45.57847203842726" lon="11.382849019798316"><ele>141.0</ele><time>2026-04-26T10:00:14Z</time></trkpt><trkpt lat="45.57862150119047" lon="11.382790734134462"><ele>141.66666666666666</ele><time>2026-04-26T10:00:15Z</time></trkpt><trkpt lat="45.578766285723546" lon="11.382737603288918"><ele>142.33333333333331</ele><time>2026-04-26T10:00:16Z</time></trkpt><trkpt lat="45.57891020463543" lon="11.382678021894824"><ele>143.0</ele><time>2026-04-26T10:00:17Z</time></trkpt><trkpt lat="45.57905767435293" lon="11.382616940866935"><ele>143.0</ele><time>2026-04-26T10:00:18Z</time></trkpt><trkpt lat="45.57921164630087" lon="11.382555063219048"><ele>143.0</ele><time>2026-04-26T10:00:19Z</time></trkpt><trkpt lat="45.579364518545496" lon="11.382493225487455"><ele>143.0</ele><time>2026-04-26T10:00:20Z</time></trkpt><trkpt lat="45.57951128073539" lon="11.38243659637431"><ele>143.25</ele><time>2026-04-26T10:00:21Z</time></trkpt><trkpt lat="45.5796454691964" lon="11.382381827568876"><ele>143.5</ele><time>2026-04-26T10:00:22Z</time></trkpt><trkpt lat="45.579772168079494" lon="11.382332672387866"><ele>143.75</ele><time>2026-04-26T10:00:23Z</time></trkpt><trkpt lat="45.57989798059944" lon="11.382283131866712"><ele>144.0</ele><time>2026-04-26T10:00:24Z</time></trkpt><trkpt lat="45.5800221496826" lon="11.382233313367347"><ele>144.0</ele><time>2026-04-26T10:00:25Z</time></trkpt><trkpt lat="45.58014810734008" lon="11.382186828266141"><ele>144.0</ele><time>2026-04-26T10:00:26Z</time></trkpt><trkpt lat="45.58028081268614" lon="11.382147284684404"><ele>144.0</ele><time>2026-04-26T10:00:27Z</time></trkpt><trkpt lat="45.58041939783719" lon="11.382108670072691"><ele>144.0</ele><time>2026-04-26T10:00:28Z</time></trkpt><trkpt lat="45.5805637799086" lon="11.38207070463273"><ele>144.33333333333334</ele><time>2026-04-26T10:00:29Z</time></trkpt><trkpt lat="45.58071092407038" lon="11.382027397230292"><ele>144.66666666666669</ele><time>2026-04-26T10:00:30Z</time></trkpt><trkpt lat="45.580862004812474" lon="11.38197521405096"><ele>145.0</ele><time>2026-04-26T10:00:31Z</time></trkpt><trkpt lat="45.58100852408563" lon="11.381918079553301"><ele>145.0</ele><time>2026-04-26T10:00:32Z</time></trkpt><trkpt lat="45.58114989526626" lon="11.381868824820119"><ele>145.0</ele><time>2026-04-26T10:00:33Z</time></trkpt><trkpt lat="45.581303472360126" lon="11.381812121511791"><ele>145.0</ele><time>2026-04-26T10:00:34Z</time></trkpt><trkpt lat="45.58144623183004" lon="11.381763270592659"><ele>144.66666666666669</ele><time>2026-04-26T10:00:35Z</time></trkpt><trkpt lat="45.581569717379466" lon="11.381720067053472"><ele>144.33333333333334</ele><time>2026-04-26T10:00:36Z</time></trkpt><trkpt lat="45.58174920206625" lon="11.381654983172755"><ele>144.0</ele><time>2026-04-26T10:00:36.999Z</time></trkpt><trkpt lat="45.58192512797038" lon="11.38158854640392"><ele>143.33333333333334</ele><time>2026-04-26T10:00:37.999Z</time></trkpt><trkpt lat="45.58209465154474" lon="11.381523225020151"><ele>142.66666666666669</ele><time>2026-04-26T10:00:38.999Z</time></trkpt><trkpt lat="45.58226518001261" lon="11.381486727364418"><ele>142.0</ele><time>2026-04-26T10:00:39.999Z</time></trkpt><trkpt lat="45.58242865790692" lon="11.381403635947148"><ele>143.66666666666669</ele><time>2026-04-26T10:00:40.999Z</time></trkpt><trkpt lat="45.58259911113236" lon="11.381342348080862"><ele>145.33333333333334</ele><time>2026-04-26T10:00:41.999Z</time></trkpt><trkpt lat="45.5827701843439" lon="11.381278550773402"><ele>147.0</ele><time>2026-04-26T10:00:42.999Z</time></trkpt><trkpt lat="45.58294258537286" lon="11.381239741969466"><ele>147.0</ele><time>2026-04-26T10:00:43.999Z</time></trkpt><trkpt lat="45.583114628707285" lon="11.381177153085142"><ele>147.0</ele><time>2026-04-26T10:00:44.999Z</time></trkpt><trkpt lat="45.58328930758212" lon="11.381113133902966"><ele>147.0</ele><time>2026-04-26T10:00:45.999Z</time></trkpt><trkpt lat="45.583465051178834" lon="11.381050340466603"><ele>147.0</ele><time>2026-04-26T10:00:46.999Z</time></trkpt><trkpt lat="45.58363454469058" lon="11.380989403510268"><ele>147.0</ele><time>2026-04-26T10:00:47.999Z</time></trkpt><trkpt lat="45.58381049078548" lon="11.380926396417157"><ele>147.0</ele><time>2026-04-26T10:00:48.999Z</time></trkpt><trkpt lat="45.58398896390407" lon="11.380839715997865"><ele>147.0</ele><time>2026-04-26T10:00:49.999Z</time></trkpt><trkpt lat="45.584162407625534" lon="11.380776340033666"><ele>147.0</ele><time>2026-04-26T10:00:50.999Z</time></trkpt><trkpt lat="45.584350891478465" lon="11.380709085362348"><ele>147.0</ele><time>2026-04-26T10:00:51.999Z</time></trkpt><trkpt lat="45.584575508479496" lon="11.38065241195974"><ele>147.0</ele><time>2026-04-26T10:00:52.999Z</time></trkpt><trkpt lat="45.58469065653212" lon="11.38061117266564"><ele>147.0</ele><time>2026-04-26T10:00:53.999Z</time></trkpt><trkpt lat="45.58485721656656" lon="11.380528746688114"><ele>147.0</ele><time>2026-04-26T10:00:54.999Z</time></trkpt><trkpt lat="45.58503026615044" lon="11.380470358242748"><ele>147.0</ele><time>2026-04-26T10:00:55.999Z</time></trkpt><trkpt lat="45.58520461132662" lon="11.380408097383258"><ele>147.0</ele><time>2026-04-26T10:00:56.999Z</time></trkpt><trkpt lat="45.58537405436591" lon="11.38034461043792"><ele>147.0</ele><time>2026-04-26T10:00:57.999Z</time></trkpt><trkpt lat="45.5855449486233" lon="11.380282052995302"><ele>146.66666666666666</ele><time>2026-04-26T10:00:58.999Z</time></trkpt><trkpt lat="45.58571376090501" lon="11.38021704470572"><ele>146.33333333333331</ele><time>2026-04-26T10:00:59.999Z</time></trkpt><trkpt lat="45.58588397007057" lon="11.380150792548152"><ele>146.0</ele><time>2026-04-26T10:01:00.999Z</time></trkpt><trkpt lat="45.586045692165314" lon="11.380072138426424"><ele>146.33333333333331</ele><time>2026-04-26T10:01:01.999Z</time></trkpt><trkpt lat="45.58621146577146" lon="11.37999436489732"><ele>146.66666666666666</ele><time>2026-04-26T10:01:02.999Z</time></trkpt><trkpt lat="45.586374765990804" lon="11.379936388737903"><ele>147.0</ele><time>2026-04-26T10:01:03.999Z</time></trkpt><trkpt lat="45.58653509882312" lon="11.379837094178844"><ele>147.0</ele><time>2026-04-26T10:01:04.999Z</time></trkpt><trkpt lat="45.5867005143999" lon="11.379774683609611"><ele>147.0</ele><time>2026-04-26T10:01:05.999Z</time></trkpt><trkpt lat="45.58686213033613" lon="11.379691690472061"><ele>147.0</ele><time>2026-04-26T10:01:06.999Z</time></trkpt><trkpt lat="45.587016931467" lon="11.379611936460856"><ele>147.66666666666666</ele><time>2026-04-26T10:01:07.999Z</time></trkpt><trkpt lat="45.58716415423399" lon="11.379508277059987"><ele>148.33333333333331</ele><time>2026-04-26T10:01:08.999Z</time></trkpt><trkpt lat="45.587320001193646" lon="11.379431357880053"><ele>149.0</ele><time>2026-04-26T10:01:09.999Z</time></trkpt><trkpt lat="45.58746883696268" lon="11.379348965344798"><ele>149.0</ele><time>2026-04-26T10:01:10.999Z</time></trkpt><trkpt lat="45.587627359128106" lon="11.379262739208226"><ele>149.0</ele><time>2026-04-26T10:01:11.999Z</time></trkpt><trkpt lat="45.58778815768775" lon="11.37916630476354"><ele>149.0</ele><time>2026-04-26T10:01:12.999Z</time></trkpt><trkpt lat="45.58795551117869" lon="11.379073032951702"><ele>149.0</ele><time>2026-04-26T10:01:13.999Z</time></trkpt><trkpt lat="45.58812382983523" lon="11.378978041854921"><ele>149.0</ele><time>2026-04-26T10:01:14.999Z</time></trkpt><trkpt lat="45.588283059997146" lon="11.378873310407247"><ele>149.0</ele><time>2026-04-26T10:01:15.999Z</time></trkpt><trkpt lat="45.588418130121426" lon="11.378819835729988"><ele>149.33333333333331</ele><time>2026-04-26T10:01:16.999Z</time></trkpt><trkpt lat="45.58862237093579" lon="11.378684763631727"><ele>149.66666666666666</ele><time>2026-04-26T10:01:17.999Z</time></trkpt><trkpt lat="45.58878967952195" lon="11.378594151242801"><ele>150.0</ele><time>2026-04-26T10:01:18.999Z</time></trkpt><trkpt lat="45.58894226978943" lon="11.378508395851043"><ele>150.0</ele><time>2026-04-26T10:01:19.999Z</time></trkpt><trkpt lat="45.58909335698436" lon="11.378424190877327"><ele>150.0</ele><time>2026-04-26T10:01:20.999Z</time></trkpt><trkpt lat="45.58923164400652" lon="11.378341421253678"><ele>150.0</ele><time>2026-04-26T10:01:21.999Z</time></trkpt><trkpt lat="45.589365216482285" lon="11.378260725078919"><ele>150.0</ele><time>2026-04-26T10:01:22.999Z</time></trkpt><trkpt lat="45.58949667300382" lon="11.378172046423776"><ele>150.0</ele><time>2026-04-26T10:01:23.999Z</time></trkpt><trkpt lat="45.5896243732477" lon="11.378063836560534"><ele>150.0</ele><time>2026-04-26T10:01:24.999Z</time></trkpt><trkpt lat="45.58973783841988" lon="11.3779474642123"><ele>150.0</ele><time>2026-04-26T10:01:25.999Z</time></trkpt><trkpt lat="45.58986096067032" lon="11.377834930640859"><ele>150.25</ele><time>2026-04-26T10:01:26.999Z</time></trkpt><trkpt lat="45.58999050252874" lon="11.377723717020825"><ele>150.5</ele><time>2026-04-26T10:01:27.999Z</time></trkpt><trkpt lat="45.59011686900002" lon="11.377610161038282"><ele>150.75</ele><time>2026-04-26T10:01:28.999Z</time></trkpt><trkpt lat="45.59023940055974" lon="11.377506196811416"><ele>151.0</ele><time>2026-04-26T10:01:29.999Z</time></trkpt><trkpt lat="45.59035429235794" lon="11.377415519411317"><ele>151.0</ele><time>2026-04-26T10:01:30.999Z</time></trkpt><trkpt lat="45.590479659264986" lon="11.377367963322692"><ele>151.0</ele><time>2026-04-26T10:01:31.999Z</time></trkpt><trkpt lat="45.590610374580876" lon="11.377333648395245"><ele>151.0</ele><time>2026-04-26T10:01:32.999Z</time></trkpt><trkpt lat="45.59074758644483" lon="11.377328168127448"><ele>151.0</ele><time>2026-04-26T10:01:33.999Z</time></trkpt><trkpt lat="45.59088264913345" lon="11.377316205977728"><ele>151.0</ele><time>2026-04-26T10:01:34.999Z</time></trkpt><trkpt lat="45.59101893741095" lon="11.377314037285913"><ele>151.0</ele><time>2026-04-26T10:01:35.998Z</time></trkpt><trkpt lat="45.591149017683534" lon="11.377301041331675"><ele>151.0</ele><time>2026-04-26T10:01:36.998Z</time></trkpt><trkpt lat="45.5912697698254" lon="11.377250271186897"><ele>151.0</ele><time>2026-04-26T10:01:37.998Z</time></trkpt><trkpt lat="45.59137521547514" lon="11.37715692248531"><ele>152.0</ele><time>2026-04-26T10:01:38.998Z</time></trkpt><trkpt lat="45.59145158573438" lon="11.377007189432902"><ele>153.0</ele><time>2026-04-26T10:01:39.998Z</time></trkpt><trkpt lat="45.59153432392214" lon="11.376887405049285"><ele>154.0</ele><time>2026-04-26T10:01:40.998Z</time></trkpt><trkpt lat="45.5915968376251" lon="11.376751262319205"><ele>155.0</ele><time>2026-04-26T10:01:41.998Z</time></trkpt><trkpt lat="45.59167134075446" lon="11.37663835130231"><ele>155.0</ele><time>2026-04-26T10:01:42.998Z</time></trkpt><trkpt lat="45.59176389806851" lon="11.376544142801523"><ele>155.0</ele><time>2026-04-26T10:01:43.998Z</time></trkpt><trkpt lat="45.591870085395286" lon="11.376476546024426"><ele>155.0</ele><time>2026-04-26T10:01:44.998Z</time></trkpt><trkpt lat="45.59196505089475" lon="11.376376635624109"><ele>155.0</ele><time>2026-04-26T10:01:45.998Z</time></trkpt><trkpt lat="45.59202932868992" lon="11.37624232437899"><ele>155.0</ele><time>2026-04-26T10:01:46.998Z</time></trkpt><trkpt lat="45.59205755137398" lon="11.376092639544847"><ele>155.0</ele><time>2026-04-26T10:01:47.998Z</time></trkpt><trkpt lat="45.59212523694574" lon="11.375979978142173"><ele>155.0</ele><time>2026-04-26T10:01:48.998Z</time></trkpt><trkpt lat="45.59219683179294" lon="11.375859873753123"><ele>155.0</ele><time>2026-04-26T10:01:49.998Z</time></trkpt><trkpt lat="45.59232042096314" lon="11.375809875994587"><ele>155.0</ele><time>2026-04-26T10:01:50.998Z</time></trkpt><trkpt lat="45.59243483093801" lon="11.375685916255048"><ele>155.0</ele><time>2026-04-26T10:01:51.998Z</time></trkpt><trkpt lat="45.592549719023744" lon="11.375572561334119"><ele>155.0</ele><time>2026-04-26T10:01:52.998Z</time></trkpt><trkpt lat="45.59267050597487" lon="11.375445942210844"><ele>155.0</ele><time>2026-04-26T10:01:53.998Z</time></trkpt><trkpt lat="45.59278771375505" lon="11.375322546016584"><ele>155.75</ele><time>2026-04-26T10:01:55Z</time></trkpt><trkpt lat="45.59290292430486" lon="11.375203541736392"><ele>156.5</ele><time>2026-04-26T10:01:56Z</time></trkpt><trkpt lat="45.59300997133859" lon="11.375085080700355"><ele>157.25</ele><time>2026-04-26T10:01:57Z</time></trkpt><trkpt lat="45.593105723797805" lon="11.374981902190479"><ele>158.0</ele><time>2026-04-26T10:01:58Z</time></trkpt><trkpt lat="45.59319809383645" lon="11.374902351003877"><ele>158.0</ele><time>2026-04-26T10:01:59Z</time></trkpt><trkpt lat="45.593298146422406" lon="11.374854383612696"><ele>158.0</ele><time>2026-04-26T10:02:00Z</time></trkpt><trkpt lat="45.593405049118935" lon="11.37484430027919"><ele>158.0</ele><time>2026-04-26T10:02:01Z</time></trkpt><trkpt lat="45.593516203866244" lon="11.374852261333503"><ele>158.0</ele><time>2026-04-26T10:02:02Z</time></trkpt><trkpt lat="45.593632909953286" lon="11.374892954890274"><ele>158.0</ele><time>2026-04-26T10:02:03Z</time></trkpt><trkpt lat="45.593753198526706" lon="11.374907736083777"><ele>158.0</ele><time>2026-04-26T10:02:04Z</time></trkpt><trkpt lat="45.59388282178948" lon="11.374985369916235"><ele>158.0</ele><time>2026-04-26T10:02:05Z</time></trkpt><trkpt lat="45.594016744156" lon="11.375027220722117"><ele>158.0</ele><time>2026-04-26T10:02:06Z</time></trkpt><trkpt lat="45.59415837746463" lon="11.375070526827228"><ele>158.0</ele><time>2026-04-26T10:02:07Z</time></trkpt><trkpt lat="45.59430302799518" lon="11.375115399223013"><ele>158.0</ele><time>2026-04-26T10:02:08Z</time></trkpt><trkpt lat="45.59444550328747" lon="11.375159886186788"><ele>158.0</ele><time>2026-04-26T10:02:09Z</time></trkpt><trkpt lat="45.59459033286889" lon="11.375207330170587"><ele>158.0</ele><time>2026-04-26T10:02:10Z</time></trkpt><trkpt lat="45.5947399348411" lon="11.375257248140002"><ele>158.0</ele><time>2026-04-26T10:02:11Z</time></trkpt><trkpt lat="45.59489849903759" lon="11.375308453190232"><ele>158.0</ele><time>2026-04-26T10:02:12Z</time></trkpt><trkpt lat="45.59505802036189" lon="11.375368203977917"><ele>158.0</ele><time>2026-04-26T10:02:13Z</time></trkpt><trkpt lat="45.595215161913856" lon="11.375440085514802"><ele>158.0</ele><time>2026-04-26T10:02:14Z</time></trkpt><trkpt lat="45.59538068138203" lon="11.375530586082476"><ele>158.0</ele><time>2026-04-26T10:02:15Z</time></trkpt><trkpt lat="45.595549938585165" lon="11.375630904867174"><ele>158.0</ele><time>2026-04-26T10:02:16Z</time></trkpt><trkpt lat="45.59571075272259" lon="11.375743298190521"><ele>158.0</ele><time>2026-04-26T10:02:17Z</time></trkpt><trkpt lat="45.59587883634075" lon="11.375866763039147"><ele>158.0</ele><time>2026-04-26T10:02:18Z</time></trkpt><trkpt lat="45.596032934818986" lon="11.375987356223334"><ele>158.0</ele><time>2026-04-26T10:02:19Z</time></trkpt><trkpt lat="45.59616528192573" lon="11.37610467269497"><ele>158.0</ele><time>2026-04-26T10:02:20Z</time></trkpt><trkpt lat="45.59628940594805" lon="11.376225658149476"><ele>158.25</ele><time>2026-04-26T10:02:21Z</time></trkpt><trkpt lat="45.596399607377826" lon="11.376342825583004"><ele>158.5</ele><time>2026-04-26T10:02:22Z</time></trkpt><trkpt lat="45.596495709031245" lon="11.376449109478367"><ele>158.75</ele><time>2026-04-26T10:02:23Z</time></trkpt><trkpt lat="45.59658245499012" lon="11.376545162858699"><ele>159.0</ele><time>2026-04-26T10:02:24Z</time></trkpt><trkpt lat="45.59665132269323" lon="11.376633718816453"><ele>158.4</ele><time>2026-04-26T10:02:25Z</time></trkpt><trkpt lat="45.59671299705753" lon="11.376719210432784"><ele>157.8</ele><time>2026-04-26T10:02:26Z</time></trkpt><trkpt lat="45.596754899063654" lon="11.376808253436732"><ele>157.2</ele><time>2026-04-26T10:02:27Z</time></trkpt><trkpt lat="45.59682387097937" lon="11.376932582885217"><ele>156.6</ele><time>2026-04-26T10:02:29Z</time></trkpt><trkpt lat="45.59678544326662" lon="11.377102641292597"><ele>156.0</ele><time>2026-04-26T10:02:30Z</time></trkpt><trkpt lat="45.596812936950506" lon="11.37721311993447"><ele>156.0</ele><time>2026-04-26T10:02:31Z</time></trkpt><trkpt lat="45.596862602096785" lon="11.377319682272036"><ele>156.0</ele><time>2026-04-26T10:02:32Z</time></trkpt><trkpt lat="45.5969456612676" lon="11.377404513676394"><ele>156.0</ele><time>2026-04-26T10:02:33Z</time></trkpt><trkpt lat="45.59704866835306" lon="11.37743275328503"><ele>156.0</ele><time>2026-04-26T10:02:34Z</time></trkpt><trkpt lat="45.5971433087349" lon="11.377395439245703"><ele>156.0</ele><time>2026-04-26T10:02:35Z</time></trkpt><trkpt lat="45.597234345864315" lon="11.377383738556311"><ele>156.0</ele><time>2026-04-26T10:02:36Z</time></trkpt><trkpt lat="45.59732842097738" lon="11.377625331732773"><ele>156.0</ele><time>2026-04-26T10:02:37Z</time></trkpt><trkpt lat="45.59740003256637" lon="11.377782716674266"><ele>156.0</ele><time>2026-04-26T10:02:38Z</time></trkpt><trkpt lat="45.597464322384226" lon="11.377961688530583"><ele>155.33333333333334</ele><time>2026-04-26T10:02:39Z</time></trkpt><trkpt lat="45.5975422715308" lon="11.37814987611969"><ele>154.66666666666669</ele><time>2026-04-26T10:02:40Z</time></trkpt><trkpt lat="45.59763071827672" lon="11.378346746502558"><ele>154.0</ele><time>2026-04-26T10:02:41Z</time></trkpt><trkpt lat="45.59772673599769" lon="11.378556886502205"><ele>154.0</ele><time>2026-04-26T10:02:42Z</time></trkpt><trkpt lat="45.59782262946634" lon="11.378778561212043"><ele>154.0</ele><time>2026-04-26T10:02:42.999Z</time></trkpt><trkpt lat="45.59791643668284" lon="11.379004911800921"><ele>154.0</ele><time>2026-04-26T10:02:43.999Z</time></trkpt><trkpt lat="45.598015526944664" lon="11.379246366929044"><ele>155.0</ele><time>2026-04-26T10:02:44.999Z</time></trkpt><trkpt lat="45.59811885889239" lon="11.37948725309175"><ele>156.0</ele><time>2026-04-26T10:02:45.999Z</time></trkpt><trkpt lat="45.59823215686126" lon="11.379735479726659"><ele>157.0</ele><time>2026-04-26T10:02:46.999Z</time></trkpt><trkpt lat="45.598347305730826" lon="11.37997930491422"><ele>157.0</ele><time>2026-04-26T10:02:47.999Z</time></trkpt><trkpt lat="45.5984700398921" lon="11.380209009780083"><ele>157.0</ele><time>2026-04-26T10:02:48.999Z</time></trkpt><trkpt lat="45.598607324993225" lon="11.38043512550961"><ele>157.0</ele><time>2026-04-26T10:02:49.999Z</time></trkpt><trkpt lat="45.598757036652906" lon="11.38064848635153"><ele>157.0</ele><time>2026-04-26T10:02:50.999Z</time></trkpt><trkpt lat="45.59893276534811" lon="11.380857611790871"><ele>157.0</ele><time>2026-04-26T10:02:51.999Z</time></trkpt><trkpt lat="45.59915227001053" lon="11.38109356084454"><ele>157.0</ele><time>2026-04-26T10:02:52.999Z</time></trkpt><trkpt lat="45.59932455987856" lon="11.381265342141953"><ele>157.0</ele><time>2026-04-26T10:02:53.999Z</time></trkpt><trkpt lat="45.59947966855644" lon="11.381391510007244"><ele>157.0</ele><time>2026-04-26T10:02:54.999Z</time></trkpt><trkpt lat="45.59967354362147" lon="11.381540994523833"><ele>155.5</ele><time>2026-04-26T10:02:55.999Z</time></trkpt><trkpt lat="45.59988855519995" lon="11.381682919678903"><ele>154.0</ele><time>2026-04-26T10:02:56.999Z</time></trkpt><trkpt lat="45.60011041429471" lon="11.381805548881001"><ele>153.5</ele><time>2026-04-26T10:02:57.999Z</time></trkpt><trkpt lat="45.600350654396124" lon="11.38191385047121"><ele>153.0</ele><time>2026-04-26T10:02:58.999Z</time></trkpt><trkpt lat="45.60062754447727" lon="11.381988816499593"><ele>153.0</ele><time>2026-04-26T10:02:59.999Z</time></trkpt><trkpt lat="45.60084111197413" lon="11.382044470097076"><ele>153.0</ele><time>2026-04-26T10:03:00.999Z</time></trkpt><trkpt lat="45.60108884910118" lon="11.382075318513843"><ele>152.0</ele><time>2026-04-26T10:03:01.999Z</time></trkpt><trkpt lat="45.601342642813044" lon="11.382081273934935"><ele>151.0</ele><time>2026-04-26T10:03:02.999Z</time></trkpt><trkpt lat="45.601612768944726" lon="11.382074719280226"><ele>151.0</ele><time>2026-04-26T10:03:03.999Z</time></trkpt><trkpt lat="45.60189103319856" lon="11.382064908459272"><ele>151.0</ele><time>2026-04-26T10:03:04.999Z</time></trkpt><trkpt lat="45.60216962712082" lon="11.382069372227884"><ele>151.0</ele><time>2026-04-26T10:03:05.999Z</time></trkpt><trkpt lat="45.602449812840455" lon="11.382071803256661"><ele>151.0</ele><time>2026-04-26T10:03:06.999Z</time></trkpt><trkpt lat="45.60273138200221" lon="11.38207624236704"><ele>150.0</ele><time>2026-04-26T10:03:07.999Z</time></trkpt><trkpt lat="45.60301139532666" lon="11.382079720952634"><ele>149.0</ele><time>2026-04-26T10:03:08.999Z</time></trkpt><trkpt lat="45.60329588299079" lon="11.382074867900611"><ele>149.0</ele><time>2026-04-26T10:03:09.999Z</time></trkpt><trkpt lat="45.603578394855276" lon="11.382047501779308"><ele>149.0</ele><time>2026-04-26T10:03:10.999Z</time></trkpt><trkpt lat="45.603858413092546" lon="11.381985995594084"><ele>149.5</ele><time>2026-04-26T10:03:11.999Z</time></trkpt><trkpt lat="45.60413057234256" lon="11.381907291073983"><ele>150.0</ele><time>2026-04-26T10:03:12.999Z</time></trkpt><trkpt lat="45.60440394685917" lon="11.381801918450995"><ele>152.0</ele><time>2026-04-26T10:03:13.999Z</time></trkpt><trkpt lat="45.60466121281796" lon="11.381680537532253"><ele>154.0</ele><time>2026-04-26T10:03:14.999Z</time></trkpt><trkpt lat="45.60491966161272" lon="11.381578094702165"><ele>154.0</ele><time>2026-04-26T10:03:15.999Z</time></trkpt><trkpt lat="45.605154479854924" lon="11.38135484339047"><ele>154.0</ele><time>2026-04-26T10:03:16.999Z</time></trkpt><trkpt lat="45.60538710655455" lon="11.381163651833603"><ele>154.5</ele><time>2026-04-26T10:03:17.999Z</time></trkpt><trkpt lat="45.605617913676355" lon="11.380966663687905"><ele>155.0</ele><time>2026-04-26T10:03:18.999Z</time></trkpt><trkpt lat="45.605849298482404" lon="11.38077646317777"><ele>155.0</ele><time>2026-04-26T10:03:19.999Z</time></trkpt><trkpt lat="45.60607455182263" lon="11.380593370927723"><ele>155.0</ele><time>2026-04-26T10:03:20.999Z</time></trkpt><trkpt lat="45.60630074037837" lon="11.380417494110766"><ele>157.5</ele><time>2026-04-26T10:03:21.999Z</time></trkpt><trkpt lat="45.606520056815" lon="11.380241499450468"><ele>160.0</ele><time>2026-04-26T10:03:22.999Z</time></trkpt><trkpt lat="45.606728081401585" lon="11.380076841424856"><ele>160.0</ele><time>2026-04-26T10:03:23.999Z</time></trkpt><trkpt lat="45.60692733754461" lon="11.37991933870962"><ele>160.0</ele><time>2026-04-26T10:03:24.999Z</time></trkpt><trkpt lat="45.607130805004445" lon="11.379759710928589"><ele>161.0</ele><time>2026-04-26T10:03:25.999Z</time></trkpt><trkpt lat="45.6073338895613" lon="11.379621867638203"><ele>162.0</ele><time>2026-04-26T10:03:26.999Z</time></trkpt><trkpt lat="45.60753946997344" lon="11.379498275407549"><ele>163.0</ele><time>2026-04-26T10:03:27.999Z</time></trkpt><trkpt lat="45.60774762338772" lon="11.379406541285995"><ele>162.33333333333334</ele><time>2026-04-26T10:03:28.999Z</time></trkpt><trkpt lat="45.60795166870678" lon="11.379336741968038"><ele>161.66666666666666</ele><time>2026-04-26T10:03:29.999Z</time></trkpt><trkpt lat="45.608156801262844" lon="11.37929423240476"><ele>161.0</ele><time>2026-04-26T10:03:30.999Z</time></trkpt><trkpt lat="45.60835618151666" lon="11.379267289847288"><ele>161.0</ele><time>2026-04-26T10:03:31.999Z</time></trkpt><trkpt lat="45.60854969282566" lon="11.379255236078127"><ele>161.0</ele><time>2026-04-26T10:03:32.999Z</time></trkpt><trkpt lat="45.608733482253506" lon="11.379261218275827"><ele>161.0</ele><time>2026-04-26T10:03:33.999Z</time></trkpt><trkpt lat="45.608922035315786" lon="11.379275703834208"><ele>161.66666666666666</ele><time>2026-04-26T10:03:34.999Z</time></trkpt><trkpt lat="45.60912730932063" lon="11.379290725772233"><ele>162.33333333333334</ele><time>2026-04-26T10:03:35.999Z</time></trkpt><trkpt lat="45.60936111335716" lon="11.379300727814796"><ele>163.0</ele><time>2026-04-26T10:03:36.999Z</time></trkpt><trkpt lat="45.60960899477802" lon="11.379312282864559"><ele>164.5</ele><time>2026-04-26T10:03:37.999Z</time></trkpt><trkpt lat="45.60985630632957" lon="11.379335698110072"><ele>166.0</ele><time>2026-04-26T10:03:38.999Z</time></trkpt><trkpt lat="45.61012209610458" lon="11.379387760854476"><ele>168.5</ele><time>2026-04-26T10:03:39.999Z</time></trkpt><trkpt lat="45.610393828891866" lon="11.37949013969125"><ele>171.0</ele><time>2026-04-26T10:03:40.998Z</time></trkpt><trkpt lat="45.610662161976116" lon="11.379619156908284"><ele>170.5</ele><time>2026-04-26T10:03:41.998Z</time></trkpt><trkpt lat="45.61091764111018" lon="11.379734412830187"><ele>170.0</ele><time>2026-04-26T10:03:42.998Z</time></trkpt><trkpt lat="45.61116769757286" lon="11.379828570813697"><ele>170.0</ele><time>2026-04-26T10:03:43.998Z</time></trkpt><trkpt lat="45.61140637500257" lon="11.37991170626251"><ele>170.0</ele><time>2026-04-26T10:03:44.998Z</time></trkpt><trkpt lat="45.61163672826617" lon="11.37998549779821"><ele>170.0</ele><time>2026-04-26T10:03:45.998Z</time></trkpt><trkpt lat="45.61185469559244" lon="11.38004604695666"><ele>170.0</ele><time>2026-04-26T10:03:46.998Z</time></trkpt><trkpt lat="45.6120845650992" lon="11.380116350512457"><ele>172.5</ele><time>2026-04-26T10:03:47.998Z</time></trkpt><trkpt lat="45.61231139187832" lon="11.380169007209282"><ele>175.0</ele><time>2026-04-26T10:03:48.998Z</time></trkpt><trkpt lat="45.612537835567814" lon="11.380218320614727"><ele>175.0</ele><time>2026-04-26T10:03:49.998Z</time></trkpt><trkpt lat="45.61275585739516" lon="11.380261736023105"><ele>175.0</ele><time>2026-04-26T10:03:50.998Z</time></trkpt><trkpt lat="45.612978540432756" lon="11.38030381924995"><ele>175.0</ele><time>2026-04-26T10:03:51.998Z</time></trkpt><trkpt lat="45.61319836110282" lon="11.380345392904028"><ele>175.0</ele><time>2026-04-26T10:03:52.998Z</time></trkpt><trkpt lat="45.613419742442105" lon="11.380390565712169"><ele>175.0</ele><time>2026-04-26T10:03:53.998Z</time></trkpt><trkpt lat="45.61364034042773" lon="11.380437788357556"><ele>175.0</ele><time>2026-04-26T10:03:54.998Z</time></trkpt><trkpt lat="45.61386114596603" lon="11.380479866926871"><ele>173.5</ele><time>2026-04-26T10:03:55.998Z</time></trkpt><trkpt lat="45.61408653008719" lon="11.380525689028586"><ele>172.0</ele><time>2026-04-26T10:03:56.998Z</time></trkpt><trkpt lat="45.614309018175554" lon="11.380572153751952"><ele>174.5</ele><time>2026-04-26T10:03:57.998Z</time></trkpt><trkpt lat="45.61453459663256" lon="11.380640224240233"><ele>177.0</ele><time>2026-04-26T10:03:58.998Z</time></trkpt><trkpt lat="45.61475472078531" lon="11.380740563504286"><ele>177.0</ele><time>2026-04-26T10:03:59.998Z</time></trkpt><trkpt lat="45.61497296970343" lon="11.380864491915808"><ele>177.0</ele><time>2026-04-26T10:04:01Z</time></trkpt><trkpt lat="45.61518731694992" lon="11.381018898209472"><ele>177.5</ele><time>2026-04-26T10:04:02Z</time></trkpt><trkpt lat="45.61539126895749" lon="11.381204364296147"><ele>178.0</ele><time>2026-04-26T10:04:03Z</time></trkpt><trkpt lat="45.61558650407388" lon="11.381396363726472"><ele>178.0</ele><time>2026-04-26T10:04:04Z</time></trkpt><trkpt lat="45.61578123153809" lon="11.381573613200837"><ele>178.0</ele><time>2026-04-26T10:04:05Z</time></trkpt><trkpt lat="45.61599674368619" lon="11.381729035172063"><ele>182.0</ele><time>2026-04-26T10:04:06Z</time></trkpt><trkpt lat="45.61621351678917" lon="11.381845659219973"><ele>186.0</ele><time>2026-04-26T10:04:07Z</time></trkpt><trkpt lat="45.616439167009666" lon="11.381939430567261"><ele>186.0</ele><time>2026-04-26T10:04:08Z</time></trkpt><trkpt lat="45.61667428068624" lon="11.382015504389384"><ele>186.0</ele><time>2026-04-26T10:04:09Z</time></trkpt><trkpt lat="45.6169103443594" lon="11.382052511410112"><ele>187.5</ele><time>2026-04-26T10:04:10Z</time></trkpt><trkpt lat="45.61714360910106" lon="11.382125998428714"><ele>189.0</ele><time>2026-04-26T10:04:11Z</time></trkpt><trkpt lat="45.617391150431516" lon="11.382122540334276"><ele>189.0</ele><time>2026-04-26T10:04:12Z</time></trkpt><trkpt lat="45.61764314571022" lon="11.382085885608946"><ele>189.0</ele><time>2026-04-26T10:04:13Z</time></trkpt><trkpt lat="45.617893571471676" lon="11.382029311633225"><ele>193.0</ele><time>2026-04-26T10:04:14Z</time></trkpt><trkpt lat="45.618149432197576" lon="11.381961720877083"><ele>197.0</ele><time>2026-04-26T10:04:15Z</time></trkpt><trkpt lat="45.618411979383" lon="11.381912971076046"><ele>199.0</ele><time>2026-04-26T10:04:16Z</time></trkpt><trkpt lat="45.618678189758846" lon="11.381884014712288"><ele>201.0</ele><time>2026-04-26T10:04:17Z</time></trkpt><trkpt lat="45.618944323938926" lon="11.381883541451531"><ele>201.0</ele><time>2026-04-26T10:04:18Z</time></trkpt><trkpt lat="45.61920829767788" lon="11.381901821080227"><ele>201.0</ele><time>2026-04-26T10:04:19Z</time></trkpt><trkpt lat="45.61946579002145" lon="11.381918815076721"><ele>205.0</ele><time>2026-04-26T10:04:20Z</time></trkpt><trkpt lat="45.61971472439729" lon="11.38193374607613"><ele>209.0</ele><time>2026-04-26T10:04:21Z</time></trkpt><trkpt lat="45.61995703856277" lon="11.381938064227938"><ele>209.0</ele><time>2026-04-26T10:04:22Z</time></trkpt><trkpt lat="45.620192965862024" lon="11.38193103319251"><ele>209.0</ele><time>2026-04-26T10:04:23Z</time></trkpt><trkpt lat="45.620421271172795" lon="11.381880625453281"><ele>207.5</ele><time>2026-04-26T10:04:24Z</time></trkpt><trkpt lat="45.62064068377536" lon="11.381787997756833"><ele>206.0</ele><time>2026-04-26T10:04:25Z</time></trkpt><trkpt lat="45.620848386178785" lon="11.381662463062957"><ele>206.0</ele><time>2026-04-26T10:04:26Z</time></trkpt><trkpt lat="45.621048830777575" lon="11.381495012601494"><ele>206.0</ele><time>2026-04-26T10:04:27Z</time></trkpt><trkpt lat="45.62124022764717" lon="11.381302213783645"><ele>210.0</ele><time>2026-04-26T10:04:28Z</time></trkpt><trkpt lat="45.62142031619251" lon="11.381094360007305"><ele>214.0</ele><time>2026-04-26T10:04:29Z</time></trkpt><trkpt lat="45.62158855375661" lon="11.380853359980335"><ele>214.0</ele><time>2026-04-26T10:04:30Z</time></trkpt><trkpt lat="45.6217411178254" lon="11.380589840900553"><ele>214.0</ele><time>2026-04-26T10:04:31Z</time></trkpt><trkpt lat="45.62188989456493" lon="11.380326210250352"><ele>214.0</ele><time>2026-04-26T10:04:32Z</time></trkpt><trkpt lat="45.62203443548651" lon="11.380076645298821"><ele>214.0</ele><time>2026-04-26T10:04:33Z</time></trkpt><trkpt lat="45.62214842793574" lon="11.37981629380317"><ele>214.0</ele><time>2026-04-26T10:04:34Z</time></trkpt><trkpt lat="45.622338110366265" lon="11.379582936600935"><ele>222.5</ele><time>2026-04-26T10:04:35Z</time></trkpt><trkpt lat="45.62253783870058" lon="11.379347268377034"><ele>231.0</ele><time>2026-04-26T10:04:36Z</time></trkpt><trkpt lat="45.6226716409976" lon="11.379145525427251"><ele>231.0</ele><time>2026-04-26T10:04:37Z</time></trkpt><trkpt lat="45.62275272444145" lon="11.379005608233792"><ele>231.0</ele><time>2026-04-26T10:04:38Z</time></trkpt><trkpt lat="45.62284293886946" lon="11.378924832039006"><ele>231.0</ele><time>2026-04-26T10:04:39Z</time></trkpt><trkpt lat="45.622935262610994" lon="11.378852573237303"><ele>231.0</ele><time>2026-04-26T10:04:40Z</time></trkpt><trkpt lat="45.623339922756166" lon="11.378638178235706"><ele>231.0</ele><time>2026-04-26T10:04:41Z</time></trkpt><trkpt lat="45.6235414914195" lon="11.378540920800644"><ele>231.0</ele><time>2026-04-26T10:04:42Z</time></trkpt><trkpt lat="45.62372677889893" lon="11.37841150988014"><ele>231.0</ele><time>2026-04-26T10:04:43Z</time></trkpt><trkpt lat="45.6239094571562" lon="11.37826858004429"><ele>231.0</ele><time>2026-04-26T10:04:44Z</time></trkpt><trkpt lat="45.624078271092614" lon="11.378091433416065"><ele>231.0</ele><time>2026-04-26T10:04:45Z</time></trkpt><trkpt lat="45.62423089461342" lon="11.377883823012713"><ele>231.0</ele><time>2026-04-26T10:04:45.999Z</time></trkpt><trkpt lat="45.62438035047455" lon="11.377671183419713"><ele>230.33333333333331</ele><time>2026-04-26T10:04:46.999Z</time></trkpt><trkpt lat="45.624548364691584" lon="11.377492984368082"><ele>229.66666666666666</ele><time>2026-04-26T10:04:47.999Z</time></trkpt><trkpt lat="45.62471968999427" lon="11.3773356396077"><ele>229.0</ele><time>2026-04-26T10:04:48.999Z</time></trkpt><trkpt lat="45.624907054749166" lon="11.377219304579294"><ele>232.33333333333331</ele><time>2026-04-26T10:04:49.999Z</time></trkpt><trkpt lat="45.62510542876375" lon="11.377130927551997"><ele>235.66666666666669</ele><time>2026-04-26T10:04:50.999Z</time></trkpt><trkpt lat="45.625312398958506" lon="11.377054438189695"><ele>239.0</ele><time>2026-04-26T10:04:51.999Z</time></trkpt><trkpt lat="45.62552679623797" lon="11.376994024336566"><ele>239.0</ele><time>2026-04-26T10:04:52.999Z</time></trkpt><trkpt lat="45.62574943061547" lon="11.376926604213073"><ele>239.0</ele><time>2026-04-26T10:04:53.999Z</time></trkpt><trkpt lat="45.62597489647799" lon="11.376854737523962"><ele>238.5</ele><time>2026-04-26T10:04:54.999Z</time></trkpt><trkpt lat="45.62620509189079" lon="11.376781311995313"><ele>238.0</ele><time>2026-04-26T10:04:55.999Z</time></trkpt><trkpt lat="45.62643406012783" lon="11.37668405556009"><ele>238.0</ele><time>2026-04-26T10:04:56.999Z</time></trkpt><trkpt lat="45.62666761347562" lon="11.37661862260947"><ele>238.0</ele><time>2026-04-26T10:04:57.999Z</time></trkpt><trkpt lat="45.62689851126141" lon="11.376540693953343"><ele>237.0</ele><time>2026-04-26T10:04:58.999Z</time></trkpt><trkpt lat="45.627132037285186" lon="11.376462062166777"><ele>236.0</ele><time>2026-04-26T10:04:59.999Z</time></trkpt><trkpt lat="45.62736007768601" lon="11.376368582660378"><ele>241.5</ele><time>2026-04-26T10:05:00.999Z</time></trkpt><trkpt lat="45.62758586896724" lon="11.37625736791617"><ele>247.0</ele><time>2026-04-26T10:05:01.999Z</time></trkpt><trkpt lat="45.62780818177802" lon="11.376142647298884"><ele>245.5</ele><time>2026-04-26T10:05:02.999Z</time></trkpt><trkpt lat="45.628024147814685" lon="11.376022798108973"><ele>244.0</ele><time>2026-04-26T10:05:03.999Z</time></trkpt><trkpt lat="45.62823108889022" lon="11.375889669811839"><ele>244.0</ele><time>2026-04-26T10:05:04.999Z</time></trkpt><trkpt lat="45.62843515474997" lon="11.375755720378457"><ele>244.0</ele><time>2026-04-26T10:05:05.999Z</time></trkpt><trkpt lat="45.62863706012309" lon="11.375613223316455"><ele>244.33333333333331</ele><time>2026-04-26T10:05:06.999Z</time></trkpt><trkpt lat="45.62883197150324" lon="11.375467605111083"><ele>244.66666666666669</ele><time>2026-04-26T10:05:07.999Z</time></trkpt><trkpt lat="45.62902182074088" lon="11.37532951889634"><ele>245.0</ele><time>2026-04-26T10:05:08.999Z</time></trkpt><trkpt lat="45.62920551889776" lon="11.375198380707415"><ele>245.0</ele><time>2026-04-26T10:05:09.999Z</time></trkpt><trkpt lat="45.62938288945173" lon="11.375076350070078"><ele>245.0</ele><time>2026-04-26T10:05:10.999Z</time></trkpt><trkpt lat="45.62955607773873" lon="11.374954765875577"><ele>245.0</ele><time>2026-04-26T10:05:11.999Z</time></trkpt><trkpt lat="45.629718413615365" lon="11.374831343356094"><ele>246.0</ele><time>2026-04-26T10:05:12.999Z</time></trkpt><trkpt lat="45.62988846715061" lon="11.374710602981379"><ele>247.0</ele><time>2026-04-26T10:05:13.999Z</time></trkpt><trkpt lat="45.630055534654474" lon="11.37458178228673"><ele>248.0</ele><time>2026-04-26T10:05:14.999Z</time></trkpt><trkpt lat="45.63021335270251" lon="11.374440871996876"><ele>247.33333333333334</ele><time>2026-04-26T10:05:15.999Z</time></trkpt><trkpt lat="45.63035642611618" lon="11.374277952783245"><ele>246.66666666666669</ele><time>2026-04-26T10:05:16.999Z</time></trkpt><trkpt lat="45.63048463494684" lon="11.374118094444713"><ele>246.0</ele><time>2026-04-26T10:05:17.999Z</time></trkpt><trkpt lat="45.630606316894664" lon="11.373971413670931"><ele>247.75</ele><time>2026-04-26T10:05:18.999Z</time></trkpt><trkpt lat="45.63072759380296" lon="11.373831351485721"><ele>249.5</ele><time>2026-04-26T10:05:19.999Z</time></trkpt><trkpt lat="45.63084401770858" lon="11.373698130775436"><ele>251.25</ele><time>2026-04-26T10:05:20.999Z</time></trkpt><trkpt lat="45.63095365882748" lon="11.37356851929124"><ele>253.0</ele><time>2026-04-26T10:05:21.999Z</time></trkpt><trkpt lat="45.631066645547236" lon="11.373439540364712"><ele>252.25</ele><time>2026-04-26T10:05:22.999Z</time></trkpt><trkpt lat="45.631181986342526" lon="11.373315439504104"><ele>251.5</ele><time>2026-04-26T10:05:23.999Z</time></trkpt><trkpt lat="45.63129660317937" lon="11.373179728781787"><ele>250.75</ele><time>2026-04-26T10:05:24.999Z</time></trkpt><trkpt lat="45.63141503353884" lon="11.37303840824212"><ele>250.0</ele><time>2026-04-26T10:05:25.999Z</time></trkpt><trkpt lat="45.63153706625751" lon="11.372894411017159"><ele>250.0</ele><time>2026-04-26T10:05:26.999Z</time></trkpt><trkpt lat="45.63165827996317" lon="11.372753640505739"><ele>250.0</ele><time>2026-04-26T10:05:27.999Z</time></trkpt><trkpt lat="45.6317768616845" lon="11.37261878957119"><ele>250.0</ele><time>2026-04-26T10:05:28.999Z</time></trkpt><trkpt lat="45.63190482569415" lon="11.372514527824071"><ele>250.25</ele><time>2026-04-26T10:05:29.999Z</time></trkpt><trkpt lat="45.63204406253524" lon="11.37244984402963"><ele>250.5</ele><time>2026-04-26T10:05:30.999Z</time></trkpt><trkpt lat="45.63219326576006" lon="11.3724344830321"><ele>250.75</ele><time>2026-04-26T10:05:31.999Z</time></trkpt><trkpt lat="45.632343495629826" lon="11.372459710243266"><ele>251.0</ele><time>2026-04-26T10:05:32.999Z</time></trkpt><trkpt lat="45.632488011215834" lon="11.372528547626397"><ele>251.0</ele><time>2026-04-26T10:05:33.999Z</time></trkpt><trkpt lat="45.632629963550094" lon="11.372620823896545"><ele>251.0</ele><time>2026-04-26T10:05:34.999Z</time></trkpt><trkpt lat="45.632764227480344" lon="11.372724567874458"><ele>251.0</ele><time>2026-04-26T10:05:35.999Z</time></trkpt><trkpt lat="45.632900848280954" lon="11.372819596108016"><ele>251.75</ele><time>2026-04-26T10:05:36.999Z</time></trkpt><trkpt lat="45.633035026451644" lon="11.372903974732811"><ele>252.5</ele><time>2026-04-26T10:05:37.999Z</time></trkpt><trkpt lat="45.63316516765202" lon="11.37298459481908"><ele>253.25</ele><time>2026-04-26T10:05:38.999Z</time></trkpt><trkpt lat="45.633294971458504" lon="11.373058578313993"><ele>254.0</ele><time>2026-04-26T10:05:39.999Z</time></trkpt><trkpt lat="45.63342577300125" lon="11.37312718822068"><ele>254.0</ele><time>2026-04-26T10:05:40.999Z</time></trkpt><trkpt lat="45.63356002352829" lon="11.373198798065827"><ele>254.0</ele><time>2026-04-26T10:05:41.998Z</time></trkpt><trkpt lat="45.63370032653548" lon="11.373273124450177"><ele>254.0</ele><time>2026-04-26T10:05:42.998Z</time></trkpt><trkpt lat="45.633840761344295" lon="11.373350326138311"><ele>254.0</ele><time>2026-04-26T10:05:43.998Z</time></trkpt><trkpt lat="45.63398302812227" lon="11.373427799868425"><ele>255.25</ele><time>2026-04-26T10:05:44.998Z</time></trkpt><trkpt lat="45.634122737182274" lon="11.373500885435194"><ele>256.5</ele><time>2026-04-26T10:05:45.998Z</time></trkpt><trkpt lat="45.63425372934827" lon="11.373572073840808"><ele>257.75</ele><time>2026-04-26T10:05:46.998Z</time></trkpt><trkpt lat="45.63438527259258" lon="11.373643490742383"><ele>259.0</ele><time>2026-04-26T10:05:47.998Z</time></trkpt><trkpt lat="45.634509725110966" lon="11.373700531210789"><ele>255.5</ele><time>2026-04-26T10:05:48.998Z</time></trkpt><trkpt lat="45.63465287193902" lon="11.373702563977698"><ele>252.0</ele><time>2026-04-26T10:05:49.998Z</time></trkpt><trkpt lat="45.634791644109136" lon="11.373681493757886"><ele>248.5</ele><time>2026-04-26T10:05:50.998Z</time></trkpt><trkpt lat="45.63491828015414" lon="11.373639301518477"><ele>245.0</ele><time>2026-04-26T10:05:51.998Z</time></trkpt><trkpt lat="45.63503964482286" lon="11.37359870182325"><ele>245.0</ele><time>2026-04-26T10:05:52.998Z</time></trkpt><trkpt lat="45.63515715993118" lon="11.373566662086384"><ele>245.0</ele><time>2026-04-26T10:05:53.998Z</time></trkpt><trkpt lat="45.63526709500121" lon="11.373555529423056"><ele>245.0</ele><time>2026-04-26T10:05:54.998Z</time></trkpt><trkpt lat="45.63537545470091" lon="11.373587139447746"><ele>245.0</ele><time>2026-04-26T10:05:55.998Z</time></trkpt><trkpt lat="45.63548339092534" lon="11.373653703634405"><ele>247.25</ele><time>2026-04-26T10:05:56.998Z</time></trkpt><trkpt lat="45.635594810553314" lon="11.373745108329826"><ele>249.5</ele><time>2026-04-26T10:05:57.998Z</time></trkpt><trkpt lat="45.63570846096288" lon="11.37384215110832"><ele>251.75</ele><time>2026-04-26T10:05:58.998Z</time></trkpt><trkpt lat="45.635816827402536" lon="11.373930209854073"><ele>254.0</ele><time>2026-04-26T10:05:59.998Z</time></trkpt><trkpt lat="45.635924422660075" lon="11.374009601454674"><ele>254.0</ele><time>2026-04-26T10:06:00.998Z</time></trkpt><trkpt lat="45.63602731210407" lon="11.374077667041306"><ele>253.99999999999997</ele><time>2026-04-26T10:06:01.998Z</time></trkpt><trkpt lat="45.63612684451067" lon="11.374139193160639"><ele>253.99999999999997</ele><time>2026-04-26T10:06:02.998Z</time></trkpt><trkpt lat="45.63621861075871" lon="11.37419851451616"><ele>254.0</ele><time>2026-04-26T10:06:03.998Z</time></trkpt><trkpt lat="45.63629666547032" lon="11.374243652404413"><ele>254.0</ele><time>2026-04-26T10:06:04.998Z</time></trkpt><trkpt lat="45.63636189988469" lon="11.374271361392374"><ele>254.00000000000003</ele><time>2026-04-26T10:06:05.998Z</time></trkpt><trkpt lat="45.63644046947047" lon="11.37417079908157"><ele>254.0</ele><time>2026-04-26T10:06:08Z</time></trkpt><trkpt lat="45.63642543527687" lon="11.37407850692614"><ele>254.0</ele><time>2026-04-26T10:06:09Z</time></trkpt><trkpt lat="45.63637065932319" lon="11.374005664990644"><ele>254.0</ele><time>2026-04-26T10:06:10Z</time></trkpt><trkpt lat="45.636293468720275" lon="11.373959952608278"><ele>254.00000000000003</ele><time>2026-04-26T10:06:11Z</time></trkpt><trkpt lat="45.6362029394704" lon="11.373921999573632"><ele>254.0</ele><time>2026-04-26T10:06:12Z</time></trkpt><trkpt lat="45.636098528842396" lon="11.373885683603449"><ele>246.0</ele><time>2026-04-26T10:06:13Z</time></trkpt><trkpt lat="45.63598234804762" lon="11.373822657708113"><ele>238.0</ele><time>2026-04-26T10:06:14Z</time></trkpt><trkpt lat="45.63586973930371" lon="11.37373293589438"><ele>230.0</ele><time>2026-04-26T10:06:15Z</time></trkpt><trkpt lat="45.63576995455045" lon="11.373625224533317"><ele>222.0</ele><time>2026-04-26T10:06:16Z</time></trkpt><trkpt lat="45.63569173612225" lon="11.373499704606278"><ele>222.0</ele><time>2026-04-26T10:06:17Z</time></trkpt><trkpt lat="45.63561672346748" lon="11.373372214977412"><ele>222.0</ele><time>2026-04-26T10:06:18Z</time></trkpt><trkpt lat="45.63553596434119" lon="11.37326592910714"><ele>222.0</ele><time>2026-04-26T10:06:19Z</time></trkpt><trkpt lat="45.635433177959136" lon="11.373200335618005"><ele>222.0</ele><time>2026-04-26T10:06:20Z</time></trkpt><trkpt lat="45.635317466167585" lon="11.373174374899602"><ele>226.6</ele><time>2026-04-26T10:06:21Z</time></trkpt><trkpt lat="45.6352230069699" lon="11.373132146791908"><ele>231.2</ele><time>2026-04-26T10:06:22Z</time></trkpt><trkpt lat="45.635134388459996" lon="11.373083974759128"><ele>235.8</ele><time>2026-04-26T10:06:23Z</time></trkpt><trkpt lat="45.6350575402234" lon="11.373019991735102"><ele>240.4</ele><time>2026-04-26T10:06:24Z</time></trkpt><trkpt lat="45.635030854719254" lon="11.372887452878743"><ele>245.0</ele><time>2026-04-26T10:06:25Z</time></trkpt><trkpt lat="45.63504161368503" lon="11.37275228766301"><ele>245.5</ele><time>2026-04-26T10:06:26Z</time></trkpt><trkpt lat="45.63510415276804" lon="11.372625739065422"><ele>246.0</ele><time>2026-04-26T10:06:27Z</time></trkpt><trkpt lat="45.635215453030945" lon="11.37255237667333"><ele>246.5</ele><time>2026-04-26T10:06:28Z</time></trkpt><trkpt lat="45.63533055675204" lon="11.372454293513524"><ele>247.0</ele><time>2026-04-26T10:06:29Z</time></trkpt><trkpt lat="45.635460539199336" lon="11.37238263785319"><ele>244.75</ele><time>2026-04-26T10:06:30Z</time></trkpt><trkpt lat="45.63558174606007" lon="11.372298141592369"><ele>242.5</ele><time>2026-04-26T10:06:31Z</time></trkpt><trkpt lat="45.63569280960686" lon="11.372213769372106"><ele>240.25</ele><time>2026-04-26T10:06:32Z</time></trkpt><trkpt lat="45.63582050299569" lon="11.372147206050506"><ele>238.0</ele><time>2026-04-26T10:06:33Z</time></trkpt><trkpt lat="45.63596038205928" lon="11.372127600265713"><ele>238.0</ele><time>2026-04-26T10:06:34Z</time></trkpt><trkpt lat="45.63610226463887" lon="11.372150112962043"><ele>238.0</ele><time>2026-04-26T10:06:35Z</time></trkpt><trkpt lat="45.63624222685478" lon="11.372195821814886"><ele>238.0</ele><time>2026-04-26T10:06:36Z</time></trkpt><trkpt lat="45.63638133350234" lon="11.372251238723091"><ele>238.0</ele><time>2026-04-26T10:06:37Z</time></trkpt><trkpt lat="45.63651746131239" lon="11.372319052603508"><ele>233.25</ele><time>2026-04-26T10:06:38Z</time></trkpt><trkpt lat="45.636658617060384" lon="11.37238889774981"><ele>228.5</ele><time>2026-04-26T10:06:39Z</time></trkpt><trkpt lat="45.63679564147691" lon="11.372443120578923"><ele>223.75</ele><time>2026-04-26T10:06:40Z</time></trkpt><trkpt lat="45.636928226059105" lon="11.372497460059723"><ele>219.0</ele><time>2026-04-26T10:06:41Z</time></trkpt><trkpt lat="45.63704845212621" lon="11.372584920159165"><ele>219.0</ele><time>2026-04-26T10:06:42Z</time></trkpt><trkpt lat="45.63715497740455" lon="11.372716134774523"><ele>219.0</ele><time>2026-04-26T10:06:43Z</time></trkpt><trkpt lat="45.63724959279141" lon="11.372871637580053"><ele>219.0</ele><time>2026-04-26T10:06:44Z</time></trkpt><trkpt lat="45.63732751334313" lon="11.37304689097547"><ele>219.0</ele><time>2026-04-26T10:06:45Z</time></trkpt><trkpt lat="45.63739719012545" lon="11.373225809392341"><ele>216.5</ele><time>2026-04-26T10:06:46Z</time></trkpt><trkpt lat="45.63746332084976" lon="11.37339236318277"><ele>214.0</ele><time>2026-04-26T10:06:47Z</time></trkpt><trkpt lat="45.63751948245178" lon="11.37354847432587"><ele>211.5</ele><time>2026-04-26T10:06:48Z</time></trkpt><trkpt lat="45.63757383027398" lon="11.373700438212744"><ele>209.0</ele><time>2026-04-26T10:06:49Z</time></trkpt><trkpt lat="45.63762517221717" lon="11.37384350968813"><ele>208.6</ele><time>2026-04-26T10:06:50Z</time></trkpt><trkpt lat="45.637679510030445" lon="11.373971713691356"><ele>208.2</ele><time>2026-04-26T10:06:51Z</time></trkpt><trkpt lat="45.63774516406978" lon="11.374072952992478"><ele>207.79999999999998</ele><time>2026-04-26T10:06:51.999Z</time></trkpt><trkpt lat="45.63782330849531" lon="11.374163925782941"><ele>207.39999999999998</ele><time>2026-04-26T10:06:52.999Z</time></trkpt><trkpt lat="45.63791310926801" lon="11.374243845425996"><ele>207.0</ele><time>2026-04-26T10:06:53.999Z</time></trkpt><trkpt lat="45.638013324636276" lon="11.374303031563135"><ele>206.75</ele><time>2026-04-26T10:06:54.999Z</time></trkpt><trkpt lat="45.63811724784702" lon="11.374355553670792"><ele>206.5</ele><time>2026-04-26T10:06:55.999Z</time></trkpt><trkpt lat="45.63822619318961" lon="11.374416333220628"><ele>206.25</ele><time>2026-04-26T10:06:56.999Z</time></trkpt><trkpt lat="45.63833426039259" lon="11.374482621033422"><ele>206.0</ele><time>2026-04-26T10:06:57.999Z</time></trkpt><trkpt lat="45.63844452894204" lon="11.37455370669894"><ele>206.0</ele><time>2026-04-26T10:06:58.999Z</time></trkpt><trkpt lat="45.63854599967018" lon="11.37463463004225"><ele>206.0</ele><time>2026-04-26T10:06:59.999Z</time></trkpt><trkpt lat="45.638632233897184" lon="11.374727332496892"><ele>206.0</ele><time>2026-04-26T10:07:00.999Z</time></trkpt><trkpt lat="45.63870727844888" lon="11.374843258192538"><ele>206.0</ele><time>2026-04-26T10:07:01.999Z</time></trkpt><trkpt lat="45.6387841608466" lon="11.374975274727975"><ele>205.0</ele><time>2026-04-26T10:07:02.999Z</time></trkpt><trkpt lat="45.638855462379844" lon="11.375117535984474"><ele>204.0</ele><time>2026-04-26T10:07:03.999Z</time></trkpt><trkpt lat="45.63891806041204" lon="11.375272782140186"><ele>203.0</ele><time>2026-04-26T10:07:04.999Z</time></trkpt><trkpt lat="45.63897431700569" lon="11.375413833465558"><ele>202.0</ele><time>2026-04-26T10:07:05.999Z</time></trkpt><trkpt lat="45.63903039098355" lon="11.375550418811663"><ele>200.0</ele><time>2026-04-26T10:07:06.999Z</time></trkpt><trkpt lat="45.63908489217095" lon="11.37568012524428"><ele>198.0</ele><time>2026-04-26T10:07:07.999Z</time></trkpt><trkpt lat="45.63915244999696" lon="11.375784816471455"><ele>196.0</ele><time>2026-04-26T10:07:08.999Z</time></trkpt><trkpt lat="45.63924681829852" lon="11.375835238827115"><ele>194.0</ele><time>2026-04-26T10:07:09.999Z</time></trkpt><trkpt lat="45.63934814850315" lon="11.375819035850641"><ele>192.0</ele><time>2026-04-26T10:07:10.999Z</time></trkpt><trkpt lat="45.639449565321364" lon="11.375757456928381"><ele>191.8</ele><time>2026-04-26T10:07:11.999Z</time></trkpt><trkpt lat="45.63954696756625" lon="11.375664838729053"><ele>191.6</ele><time>2026-04-26T10:07:12.999Z</time></trkpt><trkpt lat="45.639642817045825" lon="11.375581469011752"><ele>191.4</ele><time>2026-04-26T10:07:13.999Z</time></trkpt><trkpt lat="45.639738195436195" lon="11.375513844378318"><ele>191.20000000000002</ele><time>2026-04-26T10:07:14.999Z</time></trkpt><trkpt lat="45.639822856897545" lon="11.375447718110417"><ele>191.0</ele><time>2026-04-26T10:07:15.999Z</time></trkpt><trkpt lat="45.639907592881634" lon="11.375410175314412"><ele>191.0</ele><time>2026-04-26T10:07:16.999Z</time></trkpt><trkpt lat="45.63999477302586" lon="11.375412066180361"><ele>191.0</ele><time>2026-04-26T10:07:17.999Z</time></trkpt><trkpt lat="45.640074640969445" lon="11.375468506881363"><ele>191.0</ele><time>2026-04-26T10:07:18.999Z</time></trkpt><trkpt lat="45.6401296831058" lon="11.375555966536613"><ele>191.0</ele><time>2026-04-26T10:07:19.999Z</time></trkpt><trkpt lat="45.6401608359697" lon="11.375679562048003"><ele>191.0</ele><time>2026-04-26T10:07:20.999Z</time></trkpt><trkpt lat="45.64014636034829" lon="11.375811003301001"><ele>191.0</ele><time>2026-04-26T10:07:21.999Z</time></trkpt><trkpt lat="45.64007549747528" lon="11.375913021647696"><ele>191.0</ele><time>2026-04-26T10:07:22.999Z</time></trkpt><trkpt lat="45.6400008417546" lon="11.375996118380229"><ele>191.0</ele><time>2026-04-26T10:07:23.999Z</time></trkpt><trkpt lat="45.63993059441878" lon="11.376085698798235"><ele>191.0</ele><time>2026-04-26T10:07:24.999Z</time></trkpt><trkpt lat="45.639857654301586" lon="11.376192239790209"><ele>191.0</ele><time>2026-04-26T10:07:25.999Z</time></trkpt><trkpt lat="45.63977328749842" lon="11.376303684219058"><ele>191.0</ele><time>2026-04-26T10:07:26.999Z</time></trkpt><trkpt lat="45.63968632751464" lon="11.376425353889536"><ele>189.5</ele><time>2026-04-26T10:07:27.999Z</time></trkpt><trkpt lat="45.63960607369856" lon="11.376557887937787"><ele>188.0</ele><time>2026-04-26T10:07:28.999Z</time></trkpt><trkpt lat="45.63953572167657" lon="11.376692416741044"><ele>186.5</ele><time>2026-04-26T10:07:29.999Z</time></trkpt><trkpt lat="45.63947400618604" lon="11.3768294511058"><ele>185.0</ele><time>2026-04-26T10:07:30.999Z</time></trkpt><trkpt lat="45.63941783782199" lon="11.376970121377537"><ele>184.6</ele><time>2026-04-26T10:07:31.999Z</time></trkpt><trkpt lat="45.63936326682568" lon="11.377108324933543"><ele>184.2</ele><time>2026-04-26T10:07:32.999Z</time></trkpt><trkpt lat="45.63931307457495" lon="11.377238795111866"><ele>183.8</ele><time>2026-04-26T10:07:33.999Z</time></trkpt><trkpt lat="45.639274766431036" lon="11.377368238246342"><ele>183.4</ele><time>2026-04-26T10:07:34.999Z</time></trkpt><trkpt lat="45.63925345395339" lon="11.377502530954699"><ele>183.0</ele><time>2026-04-26T10:07:35.999Z</time></trkpt><trkpt lat="45.639256497957554" lon="11.377642118807925"><ele>182.60000000000002</ele><time>2026-04-26T10:07:36.999Z</time></trkpt><trkpt lat="45.63927371686404" lon="11.377784058612995"><ele>182.20000000000002</ele><time>2026-04-26T10:07:37.999Z</time></trkpt><trkpt lat="45.639312911766275" lon="11.377918123907847"><ele>181.8</ele><time>2026-04-26T10:07:38.999Z</time></trkpt><trkpt lat="45.63935839178936" lon="11.378031244849657"><ele>181.4</ele><time>2026-04-26T10:07:39.999Z</time></trkpt><trkpt lat="45.63942385988115" lon="11.378116933832285"><ele>181.0</ele><time>2026-04-26T10:07:40.999Z</time></trkpt><trkpt lat="45.639495673826076" lon="11.378185636571539"><ele>180.0</ele><time>2026-04-26T10:07:41.999Z</time></trkpt><trkpt lat="45.63957857730077" lon="11.378231591302066"><ele>179.0</ele><time>2026-04-26T10:07:42.999Z</time></trkpt><trkpt lat="45.63966969964261" lon="11.378239173991426"><ele>178.0</ele><time>2026-04-26T10:07:43.999Z</time></trkpt><trkpt lat="45.63975774598037" lon="11.37821240865197"><ele>177.0</ele><time>2026-04-26T10:07:44.999Z</time></trkpt><trkpt lat="45.63982956068931" lon="11.378153211201187"><ele>176.0</ele><time>2026-04-26T10:07:45.999Z</time></trkpt><trkpt lat="45.63988329309013" lon="11.378061206751063"><ele>175.0</ele><time>2026-04-26T10:07:46.999Z</time></trkpt><trkpt lat="45.63993400592429" lon="11.377960283901704"><ele>175.0</ele><time>2026-04-26T10:07:47.998Z</time></trkpt><trkpt lat="45.639993601760565" lon="11.377863655767573"><ele>175.0</ele><time>2026-04-26T10:07:48.998Z</time></trkpt><trkpt lat="45.64005269820377" lon="11.37776197151194"><ele>175.0</ele><time>2026-04-26T10:07:49.998Z</time></trkpt><trkpt lat="45.640109026680385" lon="11.37765773946699"><ele>175.0</ele><time>2026-04-26T10:07:50.998Z</time></trkpt><trkpt lat="45.64016403801206" lon="11.377570510936179"><ele>175.0</ele><time>2026-04-26T10:07:51.998Z</time></trkpt><trkpt lat="45.640209924014314" lon="11.377497010918177"><ele>175.0</ele><time>2026-04-26T10:07:52.998Z</time></trkpt><trkpt lat="45.64029200787063" lon="11.377397282860192"><ele>174.6</ele><time>2026-04-26T10:07:54.998Z</time></trkpt><trkpt lat="45.6404000701984" lon="11.377404564727751"><ele>174.2</ele><time>2026-04-26T10:07:56.998Z</time></trkpt><trkpt lat="45.64045427953165" lon="11.377543137679464"><ele>173.8</ele><time>2026-04-26T10:07:58.998Z</time></trkpt><trkpt lat="45.64046549042478" lon="11.37764569198283"><ele>173.4</ele><time>2026-04-26T10:07:59.998Z</time></trkpt><trkpt lat="45.64048970025657" lon="11.37775273154992"><ele>173.0</ele><time>2026-04-26T10:08:00.998Z</time></trkpt><trkpt lat="45.64053720399038" lon="11.377856964255182"><ele>173.0</ele><time>2026-04-26T10:08:01.998Z</time></trkpt><trkpt lat="45.640605590120195" lon="11.37795209824078"><ele>173.0</ele><time>2026-04-26T10:08:02.998Z</time></trkpt><trkpt lat="45.64068762146484" lon="11.378041203310563"><ele>173.0</ele><time>2026-04-26T10:08:03.998Z</time></trkpt><trkpt lat="45.64076843493948" lon="11.378128223538974"><ele>173.0</ele><time>2026-04-26T10:08:04.998Z</time></trkpt><trkpt lat="45.64084214329861" lon="11.378209718246351"><ele>173.0</ele><time>2026-04-26T10:08:05.998Z</time></trkpt><trkpt lat="45.64090734352279" lon="11.378295948371433"><ele>171.33333333333331</ele><time>2026-04-26T10:08:06.998Z</time></trkpt><trkpt lat="45.640958055005356" lon="11.378398663671701"><ele>169.66666666666666</ele><time>2026-04-26T10:08:07.998Z</time></trkpt><trkpt lat="45.64098438688998" lon="11.37850845522979"><ele>168.0</ele><time>2026-04-26T10:08:08.998Z</time></trkpt><trkpt lat="45.64097696577458" lon="11.378625353847248"><ele>166.33333333333334</ele><time>2026-04-26T10:08:09.998Z</time></trkpt><trkpt lat="45.6409393324221" lon="11.378728725456511"><ele>164.66666666666669</ele><time>2026-04-26T10:08:10.998Z</time></trkpt><trkpt lat="45.64088248205538" lon="11.378825595406878"><ele>163.0</ele><time>2026-04-26T10:08:11.998Z</time></trkpt><trkpt lat="45.64081186695687" lon="11.378905053189841"><ele>161.8</ele><time>2026-04-26T10:08:13Z</time></trkpt><trkpt lat="45.64073133616131" lon="11.378975130773581"><ele>160.60000000000002</ele><time>2026-04-26T10:08:14Z</time></trkpt><trkpt lat="45.64066284953855" lon="11.37906959162503"><ele>159.39999999999998</ele><time>2026-04-26T10:08:15Z</time></trkpt><trkpt lat="45.640617954917886" lon="11.379196178306524"><ele>158.2</ele><time>2026-04-26T10:08:16Z</time></trkpt><trkpt lat="45.64059655655033" lon="11.379334607921056"><ele>157.0</ele><time>2026-04-26T10:08:17Z</time></trkpt><trkpt lat="45.64057565436256" lon="11.379471515309731"><ele>157.0</ele><time>2026-04-26T10:08:18Z</time></trkpt><trkpt lat="45.64056548570205" lon="11.379623010682874"><ele>157.0</ele><time>2026-04-26T10:08:19Z</time></trkpt><trkpt lat="45.64057366743567" lon="11.37978100752847"><ele>157.0</ele><time>2026-04-26T10:08:20Z</time></trkpt><trkpt lat="45.640611268424195" lon="11.379940879434093"><ele>157.0</ele><time>2026-04-26T10:08:21Z</time></trkpt><trkpt lat="45.640677579389006" lon="11.380098455643392"><ele>155.75</ele><time>2026-04-26T10:08:22Z</time></trkpt><trkpt lat="45.64076127760899" lon="11.380245062280657"><ele>154.5</ele><time>2026-04-26T10:08:23Z</time></trkpt><trkpt lat="45.64084628636932" lon="11.380394383089333"><ele>153.25</ele><time>2026-04-26T10:08:24Z</time></trkpt><trkpt lat="45.640929623947144" lon="11.380559105005599"><ele>152.0</ele><time>2026-04-26T10:08:25Z</time></trkpt><trkpt lat="45.64100016294572" lon="11.380731909995424"><ele>151.25</ele><time>2026-04-26T10:08:26Z</time></trkpt><trkpt lat="45.64104700137832" lon="11.380911381589872"><ele>150.5</ele><time>2026-04-26T10:08:27Z</time></trkpt><trkpt lat="45.64106842397571" lon="11.381093950958565"><ele>149.75</ele><time>2026-04-26T10:08:28Z</time></trkpt><trkpt lat="45.64107331965973" lon="11.381275879213236"><ele>149.0</ele><time>2026-04-26T10:08:29Z</time></trkpt><trkpt lat="45.64107206621825" lon="11.381456349519809"><ele>148.75</ele><time>2026-04-26T10:08:30Z</time></trkpt><trkpt lat="45.6410791251741" lon="11.381634893875194"><ele>148.5</ele><time>2026-04-26T10:08:31Z</time></trkpt><trkpt lat="45.641095649770605" lon="11.38181403085752"><ele>148.25</ele><time>2026-04-26T10:08:32Z</time></trkpt><trkpt lat="45.641121376997056" lon="11.38199125575009"><ele>148.0</ele><time>2026-04-26T10:08:33Z</time></trkpt><trkpt lat="45.64115952738587" lon="11.382164277143627"><ele>150.75</ele><time>2026-04-26T10:08:34Z</time></trkpt><trkpt lat="45.64120022541359" lon="11.38233212069958"><ele>153.5</ele><time>2026-04-26T10:08:35Z</time></trkpt><trkpt lat="45.641247830937616" lon="11.382495778150473"><ele>156.25</ele><time>2026-04-26T10:08:36Z</time></trkpt><trkpt lat="45.64130082537428" lon="11.38265649965933"><ele>159.0</ele><time>2026-04-26T10:08:37Z</time></trkpt><trkpt lat="45.64136823481967" lon="11.382814758156512"><ele>159.0</ele><time>2026-04-26T10:08:38Z</time></trkpt><trkpt lat="45.64145353069489" lon="11.382974577928241"><ele>159.0</ele><time>2026-04-26T10:08:39Z</time></trkpt><trkpt lat="45.64154976215027" lon="11.383135231281711"><ele>159.0</ele><time>2026-04-26T10:08:40Z</time></trkpt><trkpt lat="45.64165957927821" lon="11.383292197459772"><ele>159.0</ele><time>2026-04-26T10:08:41Z</time></trkpt><trkpt lat="45.641779372084365" lon="11.383439283180996"><ele>156.66666666666666</ele><time>2026-04-26T10:08:42Z</time></trkpt><trkpt lat="45.64194958509913" lon="11.38361284849444"><ele>154.33333333333331</ele><time>2026-04-26T10:08:43Z</time></trkpt><trkpt lat="45.642160046950615" lon="11.383763213481984"><ele>152.0</ele><time>2026-04-26T10:08:44Z</time></trkpt><trkpt lat="45.64233152748342" lon="11.383807621488792"><ele>147.0</ele><time>2026-04-26T10:08:46Z</time></trkpt><trkpt lat="45.64249092396517" lon="11.383851675773066"><ele>142.0</ele><time>2026-04-26T10:08:47Z</time></trkpt><trkpt lat="45.64264805819192" lon="11.38389825452579"><ele>137.0</ele><time>2026-04-26T10:08:48Z</time></trkpt><trkpt lat="45.64280614241284" lon="11.383950974239369"><ele>136.5</ele><time>2026-04-26T10:08:49Z</time></trkpt><trkpt lat="45.64295632663272" lon="11.383995131608744"><ele>136.0</ele><time>2026-04-26T10:08:50Z</time></trkpt><trkpt lat="45.64309866452762" lon="11.384040716828997"><ele>135.5</ele><time>2026-04-26T10:08:51Z</time></trkpt><trkpt lat="45.64323682375196" lon="11.384086086057158"><ele>135.0</ele><time>2026-04-26T10:08:52Z</time></trkpt><trkpt lat="45.64337194908528" lon="11.38413413539112"><ele>135.0</ele><time>2026-04-26T10:08:53Z</time></trkpt><trkpt lat="45.643506985054024" lon="11.38417515417415"><ele>135.0</ele><time>2026-04-26T10:08:54Z</time></trkpt><trkpt lat="45.64364426799823" lon="11.384215356356805"><ele>135.0</ele><time>2026-04-26T10:08:55Z</time></trkpt><trkpt lat="45.64378478637709" lon="11.384261081276874"><ele>135.0</ele><time>2026-04-26T10:08:55.999Z</time></trkpt><trkpt lat="45.64393108671202" lon="11.384309871234382"><ele>135.33333333333334</ele><time>2026-04-26T10:08:56.999Z</time></trkpt><trkpt lat="45.6440879268059" lon="11.384364157706802"><ele>135.66666666666669</ele><time>2026-04-26T10:08:57.999Z</time></trkpt><trkpt lat="45.644250261879066" lon="11.384420764726837"><ele>136.0</ele><time>2026-04-26T10:08:58.999Z</time></trkpt><trkpt lat="45.64441905805871" lon="11.384476828955762"><ele>136.0</ele><time>2026-04-26T10:08:59.999Z</time></trkpt><trkpt lat="45.64458863335574" lon="11.384536954788437"><ele>136.0</ele><time>2026-04-26T10:09:00.999Z</time></trkpt><trkpt lat="45.64475762590766" lon="11.384589609643749"><ele>136.0</ele><time>2026-04-26T10:09:01.999Z</time></trkpt><trkpt lat="45.64492690785659" lon="11.38465009725218"><ele>135.0</ele><time>2026-04-26T10:09:02.999Z</time></trkpt><trkpt lat="45.64509767173493" lon="11.38470904645491"><ele>134.0</ele><time>2026-04-26T10:09:03.999Z</time></trkpt><trkpt lat="45.64527193963432" lon="11.384765617086714"><ele>133.0</ele><time>2026-04-26T10:09:04.999Z</time></trkpt><trkpt lat="45.645448359200245" lon="11.384827654672057"><ele>133.0</ele><time>2026-04-26T10:09:05.999Z</time></trkpt><trkpt lat="45.645625237304706" lon="11.384882480556351"><ele>133.0</ele><time>2026-04-26T10:09:06.999Z</time></trkpt><trkpt lat="45.64579803005557" lon="11.384936093218519"><ele>133.0</ele><time>2026-04-26T10:09:07.999Z</time></trkpt><trkpt lat="45.64596444149618" lon="11.385000398474515"><ele>133.0</ele><time>2026-04-26T10:09:08.999Z</time></trkpt><trkpt lat="45.646132481363665" lon="11.385054159930315"><ele>133.0</ele><time>2026-04-26T10:09:09.999Z</time></trkpt><trkpt lat="45.646298156074295" lon="11.385113065236263"><ele>133.0</ele><time>2026-04-26T10:09:10.999Z</time></trkpt><trkpt lat="45.64646401158523" lon="11.385169055976414"><ele>133.0</ele><time>2026-04-26T10:09:11.999Z</time></trkpt><trkpt lat="45.64662961528899" lon="11.385221597357145"><ele>133.0</ele><time>2026-04-26T10:09:12.999Z</time></trkpt><trkpt lat="45.6467933981482" lon="11.385276384466483"><ele>133.0</ele><time>2026-04-26T10:09:13.999Z</time></trkpt><trkpt lat="45.64695678415147" lon="11.385327940234532"><ele>132.33333333333334</ele><time>2026-04-26T10:09:14.999Z</time></trkpt><trkpt lat="45.647119182072466" lon="11.385384412297967"><ele>131.66666666666666</ele><time>2026-04-26T10:09:15.999Z</time></trkpt><trkpt lat="45.647280709978006" lon="11.385444484781006"><ele>131.0</ele><time>2026-04-26T10:09:16.999Z</time></trkpt><trkpt lat="45.64744234907908" lon="11.385503113355737"><ele>130.0</ele><time>2026-04-26T10:09:17.999Z</time></trkpt><trkpt lat="45.64760151542032" lon="11.385552748560643"><ele>129.0</ele><time>2026-04-26T10:09:18.999Z</time></trkpt><trkpt lat="45.6477630762301" lon="11.385605340891088"><ele>128.0</ele><time>2026-04-26T10:09:19.999Z</time></trkpt><trkpt lat="45.64791383197504" lon="11.38565891376194"><ele>127.66666666666666</ele><time>2026-04-26T10:09:20.999Z</time></trkpt><trkpt lat="45.648067814193396" lon="11.385706587140358"><ele>127.33333333333334</ele><time>2026-04-26T10:09:21.999Z</time></trkpt><trkpt lat="45.64822162949551" lon="11.38575722552402"><ele>127.0</ele><time>2026-04-26T10:09:22.999Z</time></trkpt><trkpt lat="45.648376135033665" lon="11.385813412329538"><ele>127.0</ele><time>2026-04-26T10:09:23.999Z</time></trkpt><trkpt lat="45.64852890926315" lon="11.385862921057292"><ele>127.0</ele><time>2026-04-26T10:09:24.999Z</time></trkpt><trkpt lat="45.64868086584165" lon="11.385910433582103"><ele>127.0</ele><time>2026-04-26T10:09:25.999Z</time></trkpt><trkpt lat="45.64883127612084" lon="11.385954621607064"><ele>127.0</ele><time>2026-04-26T10:09:26.999Z</time></trkpt><trkpt lat="45.64898172291972" lon="11.38601306244644"><ele>127.0</ele><time>2026-04-26T10:09:27.999Z</time></trkpt><trkpt lat="45.64913057838595" lon="11.386063526486994"><ele>127.0</ele><time>2026-04-26T10:09:28.999Z</time></trkpt><trkpt lat="45.64928041492025" lon="11.386117858972156"><ele>127.0</ele><time>2026-04-26T10:09:29.999Z</time></trkpt><trkpt lat="45.64942938232692" lon="11.386167348661754"><ele>127.0</ele><time>2026-04-26T10:09:30.999Z</time></trkpt><trkpt lat="45.64957636906352" lon="11.38621139364823"><ele>127.0</ele><time>2026-04-26T10:09:31.999Z</time></trkpt><trkpt lat="45.649722906530094" lon="11.386264442632033"><ele>126.66666666666667</ele><time>2026-04-26T10:09:32.999Z</time></trkpt><trkpt lat="45.64987097726712" lon="11.386312829440039"><ele>126.33333333333334</ele><time>2026-04-26T10:09:33.999Z</time></trkpt><trkpt lat="45.65002187096642" lon="11.386366084517928"><ele>126.0</ele><time>2026-04-26T10:09:34.999Z</time></trkpt><trkpt lat="45.65017582384167" lon="11.386420114968217"><ele>125.33333333333334</ele><time>2026-04-26T10:09:35.999Z</time></trkpt><trkpt lat="45.650332992013794" lon="11.386477627901485"><ele>124.66666666666667</ele><time>2026-04-26T10:09:36.999Z</time></trkpt><trkpt lat="45.65049065496648" lon="11.386535661338888"><ele>124.0</ele><time>2026-04-26T10:09:37.999Z</time></trkpt><trkpt lat="45.650643391991345" lon="11.386604721104248"><ele>124.0</ele><time>2026-04-26T10:09:38.999Z</time></trkpt><trkpt lat="45.65078748941594" lon="11.386703270491996"><ele>124.0</ele><time>2026-04-26T10:09:39.999Z</time></trkpt><trkpt lat="45.65091772620888" lon="11.38682729311173"><ele>124.0</ele><time>2026-04-26T10:09:40.999Z</time></trkpt><trkpt lat="45.651041841591656" lon="11.38696530136528"><ele>123.33333333333334</ele><time>2026-04-26T10:09:41.999Z</time></trkpt><trkpt lat="45.6511526240821" lon="11.387122363992036"><ele>122.66666666666666</ele><time>2026-04-26T10:09:42.999Z</time></trkpt><trkpt lat="45.65125285060826" lon="11.387294328228261"><ele>122.0</ele><time>2026-04-26T10:09:43.999Z</time></trkpt><trkpt lat="45.651344401521925" lon="11.387478117650971"><ele>122.0</ele><time>2026-04-26T10:09:44.999Z</time></trkpt><trkpt lat="45.65142527379468" lon="11.387671543630322"><ele>122.0</ele><time>2026-04-26T10:09:45.999Z</time></trkpt><trkpt lat="45.65150261784787" lon="11.387875977462494"><ele>122.0</ele><time>2026-04-26T10:09:46.999Z</time></trkpt><trkpt lat="45.65157590835654" lon="11.38808048904941"><ele>122.33333333333333</ele><time>2026-04-26T10:09:47.999Z</time></trkpt><trkpt lat="45.651652776497535" lon="11.388295956904676"><ele>122.66666666666666</ele><time>2026-04-26T10:09:48.999Z</time></trkpt><trkpt lat="45.65173392019024" lon="11.388504295384557"><ele>123.0</ele><time>2026-04-26T10:09:49.999Z</time></trkpt><trkpt lat="45.6518148557843" lon="11.388693035787647"><ele>123.0</ele><time>2026-04-26T10:09:50.999Z</time></trkpt><trkpt lat="45.6518950085398" lon="11.388907461284262"><ele>123.0</ele><time>2026-04-26T10:09:51.998Z</time></trkpt><trkpt lat="45.65197563602697" lon="11.389113906298592"><ele>123.0</ele><time>2026-04-26T10:09:52.998Z</time></trkpt><trkpt lat="45.65205636782833" lon="11.389322122171253"><ele>123.0</ele><time>2026-04-26T10:09:53.998Z</time></trkpt><trkpt lat="45.65213755148814" lon="11.389527166265966"><ele>123.0</ele><time>2026-04-26T10:09:54.998Z</time></trkpt><trkpt lat="45.65222036948095" lon="11.389724819829768"><ele>123.0</ele><time>2026-04-26T10:09:55.998Z</time></trkpt><trkpt lat="45.65229999715924" lon="11.389929400409606"><ele>122.33333333333334</ele><time>2026-04-26T10:09:56.998Z</time></trkpt><trkpt lat="45.652381712429055" lon="11.390136284691692"><ele>121.66666666666667</ele><time>2026-04-26T10:09:57.998Z</time></trkpt><trkpt lat="45.65246282869446" lon="11.390336287954534"><ele>121.0</ele><time>2026-04-26T10:09:58.998Z</time></trkpt><trkpt lat="45.65253946518329" lon="11.390534704730886"><ele>120.66666666666667</ele><time>2026-04-26T10:09:59.998Z</time></trkpt><trkpt lat="45.652615405034105" lon="11.390733645959347"><ele>120.33333333333334</ele><time>2026-04-26T10:10:00.998Z</time></trkpt><trkpt lat="45.652692073137075" lon="11.390930642995004"><ele>120.0</ele><time>2026-04-26T10:10:01.998Z</time></trkpt><trkpt lat="45.652768916779905" lon="11.39112046431437"><ele>120.0</ele><time>2026-04-26T10:10:02.998Z</time></trkpt><trkpt lat="45.65284493096507" lon="11.391308941674984"><ele>120.0</ele><time>2026-04-26T10:10:03.998Z</time></trkpt><trkpt lat="45.652920210886705" lon="11.391493447235517"><ele>120.0</ele><time>2026-04-26T10:10:04.998Z</time></trkpt><trkpt lat="45.65299345357853" lon="11.391679688467718"><ele>120.25</ele><time>2026-04-26T10:10:05.998Z</time></trkpt><trkpt lat="45.65306048417965" lon="11.391856406195663"><ele>120.5</ele><time>2026-04-26T10:10:06.998Z</time></trkpt><trkpt lat="45.653126261294375" lon="11.39202551964313"><ele>120.75</ele><time>2026-04-26T10:10:07.998Z</time></trkpt><trkpt lat="45.65319083257907" lon="11.392192343765892"><ele>121.0</ele><time>2026-04-26T10:10:08.998Z</time></trkpt><trkpt lat="45.653254255977664" lon="11.392350633434642"><ele>120.5</ele><time>2026-04-26T10:10:09.998Z</time></trkpt><trkpt lat="45.65331394972353" lon="11.392498190185787"><ele>120.0</ele><time>2026-04-26T10:10:10.998Z</time></trkpt><trkpt lat="45.65337163304598" lon="11.392643216582755"><ele>119.5</ele><time>2026-04-26T10:10:11.998Z</time></trkpt><trkpt lat="45.653427062513906" lon="11.392787535817892"><ele>119.0</ele><time>2026-04-26T10:10:12.998Z</time></trkpt><trkpt lat="45.653483413622766" lon="11.392923337342387"><ele>118.80000000000001</ele><time>2026-04-26T10:10:13.998Z</time></trkpt><trkpt lat="45.65353082362491" lon="11.39305084316874"><ele>118.60000000000001</ele><time>2026-04-26T10:10:14.998Z</time></trkpt><trkpt lat="45.65357475302938" lon="11.393171905743756"><ele>118.4</ele><time>2026-04-26T10:10:15.998Z</time></trkpt><trkpt lat="45.65361869480691" lon="11.393297056689992"><ele>118.2</ele><time>2026-04-26T10:10:16.998Z</time></trkpt><trkpt lat="45.65364239358505" lon="11.393420253951062"><ele>118.0</ele><time>2026-04-26T10:10:17.998Z</time></trkpt><trkpt lat="45.65364790898667" lon="11.393552637092172"><ele>118.00000000000001</ele><time>2026-04-26T10:10:19Z</time></trkpt><trkpt lat="45.65364060582478" lon="11.393685308451305"><ele>118.0</ele><time>2026-04-26T10:10:20Z</time></trkpt><trkpt lat="45.65366078144262" lon="11.393804570216332"><ele>118.0</ele><time>2026-04-26T10:10:21Z</time></trkpt><trkpt lat="45.653719688506534" lon="11.393890699582235"><ele>118.0</ele><time>2026-04-26T10:10:22Z</time></trkpt><trkpt lat="45.65380037661982" lon="11.39393048170749"><ele>118.00000000000001</ele><time>2026-04-26T10:10:23Z</time></trkpt><trkpt lat="45.65386916702926" lon="11.393984135800698"><ele>118.0</ele><time>2026-04-26T10:10:24Z</time></trkpt><trkpt lat="45.65393449968228" lon="11.3940628506414"><ele>118.0</ele><time>2026-04-26T10:10:25Z</time></trkpt><trkpt lat="45.65398571802393" lon="11.394180009439921"><ele>118.00000000000001</ele><time>2026-04-26T10:10:26Z</time></trkpt><trkpt lat="45.6540333365206" lon="11.394307064858168"><ele>118.00000000000001</ele><time>2026-04-26T10:10:27Z</time></trkpt><trkpt lat="45.65407597924882" lon="11.394441366636443"><ele>118.0</ele><time>2026-04-26T10:10:28Z</time></trkpt><trkpt lat="45.654128214966875" lon="11.394568647280387"><ele>118.0</ele><time>2026-04-26T10:10:29Z</time></trkpt><trkpt lat="45.65417841173853" lon="11.39469333998541"><ele>117.80000000000001</ele><time>2026-04-26T10:10:30Z</time></trkpt><trkpt lat="45.654225878842134" lon="11.394821960111125"><ele>117.60000000000001</ele><time>2026-04-26T10:10:31Z</time></trkpt><trkpt lat="45.654274071609734" lon="11.394949980736655"><ele>117.39999999999999</ele><time>2026-04-26T10:10:32Z</time></trkpt><trkpt lat="45.654324125563065" lon="11.395078452572863"><ele>117.19999999999999</ele><time>2026-04-26T10:10:33Z</time></trkpt><trkpt lat="45.6543839914747" lon="11.39521427961483"><ele>117.0</ele><time>2026-04-26T10:10:34Z</time></trkpt><trkpt lat="45.65444241506278" lon="11.395361892334519"><ele>116.5</ele><time>2026-04-26T10:10:35Z</time></trkpt><trkpt lat="45.654503623009845" lon="11.395521471163375"><ele>116.0</ele><time>2026-04-26T10:10:36Z</time></trkpt><trkpt lat="45.654570024934415" lon="11.395691514572649"><ele>115.5</ele><time>2026-04-26T10:10:37Z</time></trkpt><trkpt lat="45.65464017214188" lon="11.39586724437653"><ele>115.0</ele><time>2026-04-26T10:10:38Z</time></trkpt><trkpt lat="45.65471235405913" lon="11.396045333109887"><ele>115.0</ele><time>2026-04-26T10:10:39Z</time></trkpt><trkpt lat="45.65478131085477" lon="11.396219885813284"><ele>115.0</ele><time>2026-04-26T10:10:40Z</time></trkpt><trkpt lat="45.65484765082345" lon="11.3963941583587"><ele>115.0</ele><time>2026-04-26T10:10:41Z</time></trkpt><trkpt lat="45.65491023579473" lon="11.396558499732421"><ele>115.0</ele><time>2026-04-26T10:10:42Z</time></trkpt><trkpt lat="45.65497175290438" lon="11.39672149704749"><ele>114.75</ele><time>2026-04-26T10:10:43Z</time></trkpt><trkpt lat="45.65503844140121" lon="11.396886691137599"><ele>114.5</ele><time>2026-04-26T10:10:44Z</time></trkpt><trkpt lat="45.65510224231471" lon="11.39704552632497"><ele>114.25</ele><time>2026-04-26T10:10:45Z</time></trkpt><trkpt lat="45.65515733854607" lon="11.397188626950932"><ele>114.0</ele><time>2026-04-26T10:10:46Z</time></trkpt><trkpt lat="45.655202357482416" lon="11.39730832512914"><ele>113.83333333333333</ele><time>2026-04-26T10:10:47Z</time></trkpt><trkpt lat="45.6552301457031" lon="11.397389515423459"><ele>113.66666666666666</ele><time>2026-04-26T10:10:48Z</time></trkpt><trkpt lat="45.6552740071662" lon="11.397492141859473"><ele>113.5</ele><time>2026-04-26T10:10:52Z</time></trkpt><trkpt lat="45.655326147184915" lon="11.397606070088717"><ele>113.33333333333333</ele><time>2026-04-26T10:10:54Z</time></trkpt><trkpt lat="45.655366252916366" lon="11.397687267530735"><ele>113.16666666666666</ele><time>2026-04-26T10:10:55Z</time></trkpt><trkpt lat="45.65541603558576" lon="11.397784051517567"><ele>113.0</ele><time>2026-04-26T10:10:56Z</time></trkpt><trkpt lat="45.65547468537178" lon="11.39788542779341"><ele>113.25</ele><time>2026-04-26T10:10:57Z</time></trkpt><trkpt lat="45.655548426413404" lon="11.397986987442643"><ele>113.5</ele><time>2026-04-26T10:10:58Z</time></trkpt><trkpt lat="45.65564277215609" lon="11.398089429344381"><ele>113.75</ele><time>2026-04-26T10:10:59Z</time></trkpt><trkpt lat="45.65575080681928" lon="11.398185325538686"><ele>114.0</ele><time>2026-04-26T10:10:59.999Z</time></trkpt><trkpt lat="45.65586653711667" lon="11.398272503658335"><ele>114.0</ele><time>2026-04-26T10:11:00.999Z</time></trkpt><trkpt lat="45.65599289711917" lon="11.3983454604625"><ele>114.0</ele><time>2026-04-26T10:11:01.999Z</time></trkpt><trkpt lat="45.65613444832387" lon="11.398398656571958"><ele>114.0</ele><time>2026-04-26T10:11:02.999Z</time></trkpt><trkpt lat="45.65628186117962" lon="11.398437395479686"><ele>114.0</ele><time>2026-04-26T10:11:03.999Z</time></trkpt><trkpt lat="45.65642651668385" lon="11.398467848093413"><ele>114.25</ele><time>2026-04-26T10:11:04.999Z</time></trkpt><trkpt lat="45.65657014029134" lon="11.398492132382168"><ele>114.5</ele><time>2026-04-26T10:11:05.999Z</time></trkpt><trkpt lat="45.656708552236125" lon="11.398516657309168"><ele>114.75</ele><time>2026-04-26T10:11:06.999Z</time></trkpt><trkpt lat="45.65683953447351" lon="11.398538578890571"><ele>115.0</ele><time>2026-04-26T10:11:07.999Z</time></trkpt><trkpt lat="45.656973605671766" lon="11.39856514907414"><ele>115.25</ele><time>2026-04-26T10:11:08.999Z</time></trkpt><trkpt lat="45.65710602706472" lon="11.398593306457354"><ele>115.5</ele><time>2026-04-26T10:11:09.999Z</time></trkpt><trkpt lat="45.65723411717327" lon="11.39862062623697"><ele>115.75</ele><time>2026-04-26T10:11:10.999Z</time></trkpt><trkpt lat="45.65736165094541" lon="11.398643761883621"><ele>116.0</ele><time>2026-04-26T10:11:11.999Z</time></trkpt><trkpt lat="45.65747885895498" lon="11.39866547078836"><ele>115.99999999999999</ele><time>2026-04-26T10:11:12.999Z</time></trkpt><trkpt lat="45.657583917263324" lon="11.39868877589621"><ele>116.0</ele><time>2026-04-26T10:11:13.999Z</time></trkpt><trkpt lat="45.65767372761071" lon="11.398713728334382"><ele>116.0</ele><time>2026-04-26T10:11:14.999Z</time></trkpt><trkpt lat="45.65775189528276" lon="11.398744536288"><ele>116.0</ele><time>2026-04-26T10:11:15.999Z</time></trkpt><trkpt lat="45.65781369370372" lon="11.398790744390888"><ele>115.99999999999999</ele><time>2026-04-26T10:11:16.999Z</time></trkpt><trkpt lat="45.65786554639534" lon="11.398855142168934"><ele>116.0</ele><time>2026-04-26T10:11:17.999Z</time></trkpt><trkpt lat="45.65791981159309" lon="11.398937421254859"><ele>116.49999999999999</ele><time>2026-04-26T10:11:18.999Z</time></trkpt><trkpt lat="45.65794804049133" lon="11.39904155517488"><ele>117.0</ele><time>2026-04-26T10:11:19.999Z</time></trkpt><trkpt lat="45.65800880972071" lon="11.399116872152861"><ele>117.5</ele><time>2026-04-26T10:11:20.999Z</time></trkpt><trkpt lat="45.65807528544769" lon="11.399192407269185"><ele>118.0</ele><time>2026-04-26T10:11:21.999Z</time></trkpt><trkpt lat="45.65817093269263" lon="11.39919523114346"><ele>118.49999999999999</ele><time>2026-04-26T10:11:22.999Z</time></trkpt><trkpt lat="45.6582540533977" lon="11.399214468522889"><ele>119.0</ele><time>2026-04-26T10:11:23.999Z</time></trkpt><trkpt lat="45.65833580687375" lon="11.39919277369411"><ele>119.0</ele><time>2026-04-26T10:11:24.999Z</time></trkpt><trkpt lat="45.658419993110336" lon="11.399315331253492"><ele>119.0</ele><time>2026-04-26T10:11:25.999Z</time></trkpt><trkpt lat="45.6584967608062" lon="11.399404330924048"><ele>119.0</ele><time>2026-04-26T10:11:26.999Z</time></trkpt><trkpt lat="45.658574713677694" lon="11.399500141034322"><ele>119.0</ele><time>2026-04-26T10:11:27.999Z</time></trkpt><trkpt lat="45.658657182136125" lon="11.399602984144707"><ele>119.0</ele><time>2026-04-26T10:11:28.999Z</time></trkpt><trkpt lat="45.65874363556006" lon="11.399711754698576"><ele>119.25</ele><time>2026-04-26T10:11:29.999Z</time></trkpt><trkpt lat="45.65883550515633" lon="11.399823900271906"><ele>119.5</ele><time>2026-04-26T10:11:30.999Z</time></trkpt><trkpt lat="45.658935611972076" lon="11.39994015055999"><ele>119.75</ele><time>2026-04-26T10:11:31.999Z</time></trkpt><trkpt lat="45.65904075137123" lon="11.400061723449088"><ele>120.0</ele><time>2026-04-26T10:11:32.999Z</time></trkpt><trkpt lat="45.6591985711235" lon="11.400198062291555"><ele>120.0</ele><time>2026-04-26T10:11:33.999Z</time></trkpt><trkpt lat="45.65934318633634" lon="11.400400522139549"><ele>120.0</ele><time>2026-04-26T10:11:34.999Z</time></trkpt><trkpt lat="45.65938031555906" lon="11.4004773868943"><ele>120.0</ele><time>2026-04-26T10:11:36.999Z</time></trkpt><trkpt lat="45.659464010510575" lon="11.400576946122"><ele>120.0</ele><time>2026-04-26T10:11:37.999Z</time></trkpt><trkpt lat="45.65954580253951" lon="11.400673448001294"><ele>120.4</ele><time>2026-04-26T10:11:38.999Z</time></trkpt><trkpt lat="45.65962746216978" lon="11.40076982432179"><ele>120.8</ele><time>2026-04-26T10:11:39.999Z</time></trkpt><trkpt lat="45.65971058537242" lon="11.400867014542932"><ele>121.19999999999999</ele><time>2026-04-26T10:11:40.999Z</time></trkpt><trkpt lat="45.659787874221784" lon="11.4009610209255"><ele>121.6</ele><time>2026-04-26T10:11:41.999Z</time></trkpt><trkpt lat="45.65986773318996" lon="11.401053934504224"><ele>122.0</ele><time>2026-04-26T10:11:42.999Z</time></trkpt><trkpt lat="45.65994252636973" lon="11.401143295293965"><ele>121.99999999999999</ele><time>2026-04-26T10:11:43.999Z</time></trkpt><trkpt lat="45.660010456222615" lon="11.401228359184877"><ele>122.0</ele><time>2026-04-26T10:11:44.999Z</time></trkpt><trkpt lat="45.660075154736035" lon="11.401304927479655"><ele>122.0</ele><time>2026-04-26T10:11:45.999Z</time></trkpt><trkpt lat="45.66013058006718" lon="11.401373873044287"><ele>122.0</ele><time>2026-04-26T10:11:46.999Z</time></trkpt><trkpt lat="45.66018385437904" lon="11.40143278388566"><ele>121.99999999999999</ele><time>2026-04-26T10:11:47.999Z</time></trkpt><trkpt lat="45.66026692954635" lon="11.401540836934949"><ele>122.0</ele><time>2026-04-26T10:11:49.999Z</time></trkpt><trkpt lat="45.6603090329742" lon="11.401656825281249"><ele>122.0</ele><time>2026-04-26T10:11:51.999Z</time></trkpt><trkpt lat="45.6602553278152" lon="11.401746713737182"><ele>121.99999999999999</ele><time>2026-04-26T10:11:53.999Z</time></trkpt><trkpt lat="45.66032332369534" lon="11.401675396080096"><ele>121.99999999999999</ele><time>2026-04-26T10:11:54.999Z</time></trkpt><trkpt lat="45.660198424325756" lon="11.40175130734645"><ele>122.0</ele><time>2026-04-26T10:11:55.998Z</time></trkpt><trkpt lat="45.660254749771696" lon="11.401860298543207"><ele>122.0</ele><time>2026-04-26T10:11:56.998Z</time></trkpt><trkpt lat="45.66025010336621" lon="11.401758607846554"><ele>122.0</ele><time>2026-04-26T10:14:10.998Z</time></trkpt><trkpt lat="45.660318331139024" lon="11.401638726850381"><ele>121.99999999999999</ele><time>2026-04-26T10:14:13.998Z</time></trkpt><trkpt lat="45.66032079451147" lon="11.401546106291873"><ele>121.99999999999999</ele><time>2026-04-26T10:14:19.998Z</time></trkpt><trkpt lat="45.660252145206954" lon="11.401410169830347"><ele>122.0</ele><time>2026-04-26T10:14:21.998Z</time></trkpt><trkpt lat="45.66018105033653" lon="11.401337171918223"><ele>122.0</ele><time>2026-04-26T10:14:22.998Z</time></trkpt><trkpt lat="45.660105452626844" lon="11.4012507698392"><ele>122.0</ele><time>2026-04-26T10:14:23.998Z</time></trkpt><trkpt lat="45.66001822319158" lon="11.40114415970402"><ele>122.0</ele><time>2026-04-26T10:14:24.998Z</time></trkpt><trkpt lat="45.6599208186482" lon="11.401025253805482"><ele>122.0</ele><time>2026-04-26T10:14:25.998Z</time></trkpt><trkpt lat="45.659820692083045" lon="11.400898160529358"><ele>122.0</ele><time>2026-04-26T10:14:26.998Z</time></trkpt><trkpt lat="45.65970893459312" lon="11.400764903968417"><ele>122.0</ele><time>2026-04-26T10:14:27.998Z</time></trkpt><trkpt lat="45.659595581698056" lon="11.400633138109018"><ele>122.0</ele><time>2026-04-26T10:14:28.998Z</time></trkpt><trkpt lat="45.65947834316298" lon="11.40049808430348"><ele>122.0</ele><time>2026-04-26T10:14:29.998Z</time></trkpt><trkpt lat="45.65936461898505" lon="11.400364061017214"><ele>122.0</ele><time>2026-04-26T10:14:31Z</time></trkpt><trkpt lat="45.659251583745345" lon="11.400229692158149"><ele>121.5</ele><time>2026-04-26T10:14:32Z</time></trkpt><trkpt lat="45.65913833992246" lon="11.400093907167351"><ele>121.0</ele><time>2026-04-26T10:14:33Z</time></trkpt><trkpt lat="45.65902675305854" lon="11.399961342998115"><ele>120.5</ele><time>2026-04-26T10:14:34Z</time></trkpt><trkpt lat="45.65892177228922" lon="11.399839187353782"><ele>120.0</ele><time>2026-04-26T10:14:35Z</time></trkpt><trkpt lat="45.658823144549565" lon="11.399722530523297"><ele>120.0</ele><time>2026-04-26T10:14:36Z</time></trkpt><trkpt lat="45.658724510008064" lon="11.399609909255338"><ele>120.0</ele><time>2026-04-26T10:14:37Z</time></trkpt><trkpt lat="45.65862857155155" lon="11.399499960204215"><ele>120.0</ele><time>2026-04-26T10:14:38Z</time></trkpt><trkpt lat="45.658543967715616" lon="11.399399798999045"><ele>120.0</ele><time>2026-04-26T10:14:39Z</time></trkpt><trkpt lat="45.65846740210615" lon="11.39930188739167"><ele>119.8</ele><time>2026-04-26T10:14:40Z</time></trkpt><trkpt lat="45.65840058415879" lon="11.39918951981547"><ele>119.6</ele><time>2026-04-26T10:14:41Z</time></trkpt><trkpt lat="45.658356602399174" lon="11.399055481489988"><ele>119.4</ele><time>2026-04-26T10:14:42Z</time></trkpt><trkpt lat="45.65833190679705" lon="11.39891232847566"><ele>119.2</ele><time>2026-04-26T10:14:43Z</time></trkpt><trkpt lat="45.65832233644973" lon="11.398783622677858"><ele>119.0</ele><time>2026-04-26T10:14:44Z</time></trkpt><trkpt lat="45.658274767539645" lon="11.39869027767104"><ele>119.4</ele><time>2026-04-26T10:14:45Z</time></trkpt><trkpt lat="45.65820205476553" lon="11.398627338132146"><ele>119.80000000000001</ele><time>2026-04-26T10:14:46Z</time></trkpt><trkpt lat="45.65808509965646" lon="11.398628531063997"><ele>120.19999999999999</ele><time>2026-04-26T10:14:47Z</time></trkpt><trkpt lat="45.657989710430236" lon="11.398700081448725"><ele>120.6</ele><time>2026-04-26T10:14:48Z</time></trkpt><trkpt lat="45.65791534239511" lon="11.398763468276877"><ele>121.0</ele><time>2026-04-26T10:14:49Z</time></trkpt><trkpt lat="45.65777099183091" lon="11.398691779493928"><ele>119.75</ele><time>2026-04-26T10:14:50Z</time></trkpt><trkpt lat="45.65765340176136" lon="11.398664044645642"><ele>118.5</ele><time>2026-04-26T10:14:51Z</time></trkpt><trkpt lat="45.657526810051365" lon="11.398623684188358"><ele>117.25</ele><time>2026-04-26T10:14:52Z</time></trkpt><trkpt lat="45.657389101317435" lon="11.398587855983491"><ele>116.0</ele><time>2026-04-26T10:14:53Z</time></trkpt><trkpt lat="45.65724477613382" lon="11.39855730968675"><ele>116.0</ele><time>2026-04-26T10:14:54Z</time></trkpt><trkpt lat="45.65709636205476" lon="11.398534815783677"><ele>116.0</ele><time>2026-04-26T10:14:55Z</time></trkpt><trkpt lat="45.65693743755489" lon="11.398505767124465"><ele>116.0</ele><time>2026-04-26T10:14:56Z</time></trkpt><trkpt lat="45.656771315989076" lon="11.398473811587067"><ele>115.66666666666666</ele><time>2026-04-26T10:14:57Z</time></trkpt><trkpt lat="45.6565992594823" lon="11.398441342994955"><ele>115.33333333333334</ele><time>2026-04-26T10:14:58Z</time></trkpt><trkpt lat="45.6564235804164" lon="11.398406847646825"><ele>115.0</ele><time>2026-04-26T10:14:59Z</time></trkpt><trkpt lat="45.656249429142825" lon="11.398372097811173"><ele>114.66666666666667</ele><time>2026-04-26T10:15:00Z</time></trkpt><trkpt lat="45.656085782575616" lon="11.398331650690285"><ele>114.33333333333334</ele><time>2026-04-26T10:15:01Z</time></trkpt><trkpt lat="45.6559345165572" lon="11.398267461957284"><ele>114.0</ele><time>2026-04-26T10:15:02Z</time></trkpt><trkpt lat="45.65579423055575" lon="11.398176405226787"><ele>114.0</ele><time>2026-04-26T10:15:03Z</time></trkpt><trkpt lat="45.65566275366262" lon="11.398057569493616"><ele>114.0</ele><time>2026-04-26T10:15:04Z</time></trkpt><trkpt lat="45.6555456086219" lon="11.397912505619471"><ele>114.0</ele><time>2026-04-26T10:15:05Z</time></trkpt><trkpt lat="45.65543758775392" lon="11.397747398602577"><ele>114.0</ele><time>2026-04-26T10:15:06Z</time></trkpt><trkpt lat="45.655359327050306" lon="11.397555720924126"><ele>114.0</ele><time>2026-04-26T10:15:07Z</time></trkpt><trkpt lat="45.65528277186784" lon="11.397361116908314"><ele>114.0</ele><time>2026-04-26T10:15:08Z</time></trkpt><trkpt lat="45.65520525941409" lon="11.397165588422594"><ele>114.0</ele><time>2026-04-26T10:15:09Z</time></trkpt><trkpt lat="45.655111737031014" lon="11.396978540636367"><ele>114.0</ele><time>2026-04-26T10:15:10Z</time></trkpt><trkpt lat="45.65504154591005" lon="11.39675469392647"><ele>114.0</ele><time>2026-04-26T10:15:10.999Z</time></trkpt><trkpt lat="45.65495666130593" lon="11.396539413636054"><ele>114.33333333333334</ele><time>2026-04-26T10:15:11.999Z</time></trkpt><trkpt lat="45.65487226681297" lon="11.39632495071682"><ele>114.66666666666667</ele><time>2026-04-26T10:15:12.999Z</time></trkpt><trkpt lat="45.65478731715993" lon="11.396109090474724"><ele>115.0</ele><time>2026-04-26T10:15:13.999Z</time></trkpt><trkpt lat="45.65469083041282" lon="11.395906447765116"><ele>115.0</ele><time>2026-04-26T10:15:14.999Z</time></trkpt><trkpt lat="45.65461025168383" lon="11.395695509215596"><ele>115.0</ele><time>2026-04-26T10:15:15.999Z</time></trkpt><trkpt lat="45.65453006192454" lon="11.395491244542475"><ele>115.0</ele><time>2026-04-26T10:15:16.999Z</time></trkpt><trkpt lat="45.654449987796966" lon="11.395286632688636"><ele>115.66666666666667</ele><time>2026-04-26T10:15:17.999Z</time></trkpt><trkpt lat="45.65437052088719" lon="11.39508500799652"><ele>116.33333333333334</ele><time>2026-04-26T10:15:18.999Z</time></trkpt><trkpt lat="45.654290683597004" lon="11.394882513613236"><ele>117.0</ele><time>2026-04-26T10:15:19.999Z</time></trkpt><trkpt lat="45.65420994757651" lon="11.394685237093883"><ele>117.25</ele><time>2026-04-26T10:15:20.999Z</time></trkpt><trkpt lat="45.65413272330375" lon="11.394494332019459"><ele>117.5</ele><time>2026-04-26T10:15:21.999Z</time></trkpt><trkpt lat="45.65406428699761" lon="11.394319737533264"><ele>117.75</ele><time>2026-04-26T10:15:22.999Z</time></trkpt><trkpt lat="45.65400477372635" lon="11.39416543319549"><ele>118.0</ele><time>2026-04-26T10:15:23.999Z</time></trkpt><trkpt lat="45.65394912022642" lon="11.394029530969394"><ele>118.0</ele><time>2026-04-26T10:15:24.999Z</time></trkpt><trkpt lat="45.65390878122487" lon="11.393914844573471"><ele>118.00000000000001</ele><time>2026-04-26T10:15:25.999Z</time></trkpt><trkpt lat="45.65387830823766" lon="11.393792061839791"><ele>118.00000000000001</ele><time>2026-04-26T10:15:26.999Z</time></trkpt><trkpt lat="45.65385475195237" lon="11.393659801613117"><ele>118.0</ele><time>2026-04-26T10:15:27.999Z</time></trkpt><trkpt lat="45.653801978749115" lon="11.3935283345897"><ele>118.0</ele><time>2026-04-26T10:15:28.999Z</time></trkpt><trkpt lat="45.6537305488879" lon="11.39341247283826"><ele>118.0</ele><time>2026-04-26T10:15:29.999Z</time></trkpt><trkpt lat="45.65366486322114" lon="11.393300186760442"><ele>118.0</ele><time>2026-04-26T10:15:30.999Z</time></trkpt><trkpt lat="45.65360845544648" lon="11.393161998502675"><ele>118.0</ele><time>2026-04-26T10:15:31.999Z</time></trkpt><trkpt lat="45.65354901188686" lon="11.393000960032305"><ele>118.0</ele><time>2026-04-26T10:15:32.999Z</time></trkpt><trkpt lat="45.65348080853589" lon="11.392831266890276"><ele>118.33333333333334</ele><time>2026-04-26T10:15:33.999Z</time></trkpt><trkpt lat="45.65340254113826" lon="11.39263608368937"><ele>118.66666666666666</ele><time>2026-04-26T10:15:34.999Z</time></trkpt><trkpt lat="45.65332700861367" lon="11.392445595993273"><ele>119.0</ele><time>2026-04-26T10:15:35.999Z</time></trkpt><trkpt lat="45.653248527669646" lon="11.392245256415023"><ele>119.66666666666666</ele><time>2026-04-26T10:15:36.999Z</time></trkpt><trkpt lat="45.653166492762075" lon="11.392042673300784"><ele>120.33333333333334</ele><time>2026-04-26T10:15:37.999Z</time></trkpt><trkpt lat="45.653086186055255" lon="11.391824186619722"><ele>121.0</ele><time>2026-04-26T10:15:38.999Z</time></trkpt><trkpt lat="45.65300423041879" lon="11.391581865742472"><ele>120.66666666666667</ele><time>2026-04-26T10:15:39.999Z</time></trkpt><trkpt lat="45.6529262802195" lon="11.391314380573794"><ele>120.33333333333334</ele><time>2026-04-26T10:15:40.999Z</time></trkpt><trkpt lat="45.652856728464236" lon="11.391064809581335"><ele>120.0</ele><time>2026-04-26T10:15:41.999Z</time></trkpt><trkpt lat="45.652584756469686" lon="11.390537922360396"><ele>120.5</ele><time>2026-04-26T10:15:42.999Z</time></trkpt><trkpt lat="45.65246306617304" lon="11.39022703926105"><ele>121.0</ele><time>2026-04-26T10:15:43.999Z</time></trkpt><trkpt lat="45.65234503897025" lon="11.389927693778096"><ele>122.0</ele><time>2026-04-26T10:15:44.999Z</time></trkpt><trkpt lat="45.65222677775598" lon="11.389630622110703"><ele>123.0</ele><time>2026-04-26T10:15:45.999Z</time></trkpt><trkpt lat="45.65211167425867" lon="11.389339140385642"><ele>123.0</ele><time>2026-04-26T10:15:46.999Z</time></trkpt><trkpt lat="45.65199727078146" lon="11.389056172146907"><ele>123.0</ele><time>2026-04-26T10:15:47.999Z</time></trkpt><trkpt lat="45.65188428113131" lon="11.388776062978474"><ele>123.0</ele><time>2026-04-26T10:15:48.999Z</time></trkpt><trkpt lat="45.65177545238211" lon="11.388499739962613"><ele>123.0</ele><time>2026-04-26T10:15:49.999Z</time></trkpt><trkpt lat="45.651666177712876" lon="11.388230149206683"><ele>123.0</ele><time>2026-04-26T10:15:50.999Z</time></trkpt><trkpt lat="45.651560423574786" lon="11.387966931015223"><ele>122.66666666666666</ele><time>2026-04-26T10:15:51.999Z</time></trkpt><trkpt lat="45.65146185752941" lon="11.387708749465968"><ele>122.33333333333333</ele><time>2026-04-26T10:15:52.999Z</time></trkpt><trkpt lat="45.6513679506383" lon="11.38746042401909"><ele>122.0</ele><time>2026-04-26T10:15:53.999Z</time></trkpt><trkpt lat="45.65126546417769" lon="11.387233913055246"><ele>122.0</ele><time>2026-04-26T10:15:54.999Z</time></trkpt><trkpt lat="45.651150671292605" lon="11.387027019302359"><ele>122.0</ele><time>2026-04-26T10:15:55.999Z</time></trkpt><trkpt lat="45.65102471742477" lon="11.386851155773464"><ele>122.0</ele><time>2026-04-26T10:15:56.999Z</time></trkpt><trkpt lat="45.650891495797865" lon="11.38670389662191"><ele>122.66666666666666</ele><time>2026-04-26T10:15:57.999Z</time></trkpt><trkpt lat="45.65075535338276" lon="11.38659161972957"><ele>123.33333333333334</ele><time>2026-04-26T10:15:58.999Z</time></trkpt><trkpt lat="45.650618532708556" lon="11.386500640103892"><ele>124.0</ele><time>2026-04-26T10:15:59.999Z</time></trkpt><trkpt lat="45.650480686851004" lon="11.386434857876026"><ele>124.0</ele><time>2026-04-26T10:16:00.999Z</time></trkpt><trkpt lat="45.65034399644303" lon="11.386383960939742"><ele>124.0</ele><time>2026-04-26T10:16:01.999Z</time></trkpt><trkpt lat="45.65020477511608" lon="11.386343666559203"><ele>124.0</ele><time>2026-04-26T10:16:02.999Z</time></trkpt><trkpt lat="45.650064433020134" lon="11.386301715076307"><ele>124.0</ele><time>2026-04-26T10:16:03.999Z</time></trkpt><trkpt lat="45.6499254067669" lon="11.3862783757567"><ele>124.5</ele><time>2026-04-26T10:16:04.999Z</time></trkpt><trkpt lat="45.649788292018165" lon="11.386233706991282"><ele>125.0</ele><time>2026-04-26T10:16:05.999Z</time></trkpt><trkpt lat="45.649648945042365" lon="11.386187570553968"><ele>125.5</ele><time>2026-04-26T10:16:06.999Z</time></trkpt><trkpt lat="45.64950640161937" lon="11.38614199093734"><ele>126.0</ele><time>2026-04-26T10:16:07.999Z</time></trkpt><trkpt lat="45.649361311441126" lon="11.38610361727188"><ele>126.33333333333334</ele><time>2026-04-26T10:16:08.998Z</time></trkpt><trkpt lat="45.649203697956196" lon="11.386046392195055"><ele>126.66666666666667</ele><time>2026-04-26T10:16:09.998Z</time></trkpt><trkpt lat="45.649033427346275" lon="11.385984199803787"><ele>127.0</ele><time>2026-04-26T10:16:10.998Z</time></trkpt><trkpt lat="45.64885724162592" lon="11.385927231604647"><ele>127.0</ele><time>2026-04-26T10:16:11.998Z</time></trkpt><trkpt lat="45.64867718470177" lon="11.385869288210754"><ele>127.0</ele><time>2026-04-26T10:16:12.998Z</time></trkpt><trkpt lat="45.64849790803009" lon="11.385811304005845"><ele>127.0</ele><time>2026-04-26T10:16:13.998Z</time></trkpt><trkpt lat="45.648306056416196" lon="11.385745947711824"><ele>127.0</ele><time>2026-04-26T10:16:14.998Z</time></trkpt><trkpt lat="45.64811401573344" lon="11.385675316094881"><ele>127.0</ele><time>2026-04-26T10:16:15.998Z</time></trkpt><trkpt lat="45.6479228518655" lon="11.385614059595378"><ele>127.0</ele><time>2026-04-26T10:16:16.998Z</time></trkpt><trkpt lat="45.647727192912576" lon="11.385544715218277"><ele>128.33333333333334</ele><time>2026-04-26T10:16:17.998Z</time></trkpt><trkpt lat="45.64753627048875" lon="11.385479598626562"><ele>129.66666666666666</ele><time>2026-04-26T10:16:18.998Z</time></trkpt><trkpt lat="45.647339497174194" lon="11.385415588069367"><ele>131.0</ele><time>2026-04-26T10:16:19.998Z</time></trkpt><trkpt lat="45.64714530954731" lon="11.38535099508333"><ele>131.66666666666666</ele><time>2026-04-26T10:16:20.998Z</time></trkpt><trkpt lat="45.646949533235414" lon="11.385282435824745"><ele>132.33333333333334</ele><time>2026-04-26T10:16:21.998Z</time></trkpt><trkpt lat="45.64675665054288" lon="11.385218680107492"><ele>133.0</ele><time>2026-04-26T10:16:22.998Z</time></trkpt><trkpt lat="45.64655518210716" lon="11.385149760608213"><ele>133.0</ele><time>2026-04-26T10:16:23.998Z</time></trkpt><trkpt lat="45.646360988526105" lon="11.385085788144174"><ele>133.0</ele><time>2026-04-26T10:16:24.998Z</time></trkpt><trkpt lat="45.64616475972708" lon="11.385014743842847"><ele>133.0</ele><time>2026-04-26T10:16:25.998Z</time></trkpt><trkpt lat="45.64596459454059" lon="11.384941762941477"><ele>133.0</ele><time>2026-04-26T10:16:26.998Z</time></trkpt><trkpt lat="45.64576721699083" lon="11.384875227540139"><ele>133.0</ele><time>2026-04-26T10:16:27.998Z</time></trkpt><trkpt lat="45.64557874604204" lon="11.384815609968888"><ele>133.0</ele><time>2026-04-26T10:16:28.998Z</time></trkpt><trkpt lat="45.64537527482423" lon="11.384753048509857"><ele>132.33333333333334</ele><time>2026-04-26T10:16:29.998Z</time></trkpt><trkpt lat="45.64517657824072" lon="11.384684179862141"><ele>131.66666666666666</ele><time>2026-04-26T10:16:30.998Z</time></trkpt><trkpt lat="45.644976732717815" lon="11.384611518793195"><ele>131.0</ele><time>2026-04-26T10:16:31.998Z</time></trkpt><trkpt lat="45.644782380865806" lon="11.384546532519094"><ele>132.66666666666666</ele><time>2026-04-26T10:16:32.998Z</time></trkpt><trkpt lat="45.64457898861053" lon="11.384476438247606"><ele>134.33333333333334</ele><time>2026-04-26T10:16:33.998Z</time></trkpt><trkpt lat="45.64438675967564" lon="11.384407258548428"><ele>136.0</ele><time>2026-04-26T10:16:34.998Z</time></trkpt><trkpt lat="45.64420024007181" lon="11.38434818469879"><ele>136.0</ele><time>2026-04-26T10:16:35.998Z</time></trkpt><trkpt lat="45.64402321813654" lon="11.384292940340059"><ele>136.0</ele><time>2026-04-26T10:16:37Z</time></trkpt><trkpt lat="45.643863856472436" lon="11.384237810775868"><ele>136.0</ele><time>2026-04-26T10:16:38Z</time></trkpt><trkpt lat="45.643714327568546" lon="11.384188075977276"><ele>135.66666666666669</ele><time>2026-04-26T10:16:39Z</time></trkpt><trkpt lat="45.643574579517406" lon="11.384141666795818"><ele>135.33333333333334</ele><time>2026-04-26T10:16:40Z</time></trkpt><trkpt lat="45.643430836286655" lon="11.384099996923764"><ele>135.0</ele><time>2026-04-26T10:16:41Z</time></trkpt><trkpt lat="45.643255552040955" lon="11.384034459505502"><ele>135.0</ele><time>2026-04-26T10:16:42Z</time></trkpt><trkpt lat="45.64307715579803" lon="11.38397745407539"><ele>135.0</ele><time>2026-04-26T10:16:43Z</time></trkpt><trkpt lat="45.642898152206136" lon="11.383919848909716"><ele>135.0</ele><time>2026-04-26T10:16:44Z</time></trkpt><trkpt lat="45.64271975038965" lon="11.383868140397704"><ele>140.66666666666666</ele><time>2026-04-26T10:16:45Z</time></trkpt><trkpt lat="45.64253356939587" lon="11.383798386761816"><ele>146.33333333333331</ele><time>2026-04-26T10:16:46Z</time></trkpt><trkpt lat="45.6423603449583" lon="11.383744657609258"><ele>152.0</ele><time>2026-04-26T10:16:47Z</time></trkpt><trkpt lat="45.64219103410712" lon="11.383686339245253"><ele>152.0</ele><time>2026-04-26T10:16:48Z</time></trkpt><trkpt lat="45.64203175823724" lon="11.383581453339406"><ele>152.0</ele><time>2026-04-26T10:16:49Z</time></trkpt><trkpt lat="45.64188406934989" lon="11.383462737631891"><ele>152.0</ele><time>2026-04-26T10:16:50Z</time></trkpt><trkpt lat="45.64174424956341" lon="11.383312452222588"><ele>150.0</ele><time>2026-04-26T10:16:51Z</time></trkpt><trkpt lat="45.64161830329426" lon="11.38315010535193"><ele>148.0</ele><time>2026-04-26T10:16:52Z</time></trkpt><trkpt lat="45.64151829538686" lon="11.382990116403771"><ele>146.0</ele><time>2026-04-26T10:16:53Z</time></trkpt><trkpt lat="45.64143399789897" lon="11.382786512643738"><ele>150.33333333333331</ele><time>2026-04-26T10:16:54Z</time></trkpt><trkpt lat="45.641372718088235" lon="11.382586047082857"><ele>154.66666666666666</ele><time>2026-04-26T10:16:55Z</time></trkpt><trkpt lat="45.64124719679486" lon="11.382402764846654"><ele>159.0</ele><time>2026-04-26T10:16:56Z</time></trkpt><trkpt lat="45.64120681217771" lon="11.38218363796701"><ele>161.66666666666666</ele><time>2026-04-26T10:16:57Z</time></trkpt><trkpt lat="45.64116209588048" lon="11.38195657882829"><ele>164.33333333333331</ele><time>2026-04-26T10:16:58Z</time></trkpt><trkpt lat="45.64113088508947" lon="11.381706715765878"><ele>167.0</ele><time>2026-04-26T10:16:59Z</time></trkpt><trkpt lat="45.64111866610926" lon="11.38143569097818"><ele>161.0</ele><time>2026-04-26T10:17:00Z</time></trkpt><trkpt lat="45.64111449918165" lon="11.38117507702603"><ele>155.0</ele><time>2026-04-26T10:17:01Z</time></trkpt><trkpt lat="45.641095489705975" lon="11.380932616515"><ele>149.0</ele><time>2026-04-26T10:17:02Z</time></trkpt><trkpt lat="45.64105748288106" lon="11.380735323266853"><ele>150.0</ele><time>2026-04-26T10:17:03Z</time></trkpt><trkpt lat="45.64095318989058" lon="11.380455917924483"><ele>151.0</ele><time>2026-04-26T10:17:04Z</time></trkpt><trkpt lat="45.64083133519318" lon="11.380249904265707"><ele>152.0</ele><time>2026-04-26T10:17:05Z</time></trkpt><trkpt lat="45.64072063893579" lon="11.38004256425767"><ele>152.0</ele><time>2026-04-26T10:17:06Z</time></trkpt><trkpt lat="45.640641988248085" lon="11.379850764046036"><ele>152.0</ele><time>2026-04-26T10:17:07Z</time></trkpt><trkpt lat="45.64061568243903" lon="11.379652215235632"><ele>152.0</ele><time>2026-04-26T10:17:08Z</time></trkpt><trkpt lat="45.64062084688167" lon="11.379453185929947"><ele>152.0</ele><time>2026-04-26T10:17:09Z</time></trkpt><trkpt lat="45.640653497418285" lon="11.37925047347997"><ele>153.25</ele><time>2026-04-26T10:17:10Z</time></trkpt><trkpt lat="45.64070908420074" lon="11.379073411212817"><ele>154.5</ele><time>2026-04-26T10:17:11Z</time></trkpt><trkpt lat="45.64079912765995" lon="11.37896590360611"><ele>155.75</ele><time>2026-04-26T10:17:12Z</time></trkpt><trkpt lat="45.640901004488065" lon="11.378886760612414"><ele>157.0</ele><time>2026-04-26T10:17:13Z</time></trkpt><trkpt lat="45.6409970569083" lon="11.378785274778997"><ele>158.5</ele><time>2026-04-26T10:17:14Z</time></trkpt><trkpt lat="45.641048241202355" lon="11.378656885985961"><ele>160.0</ele><time>2026-04-26T10:17:15Z</time></trkpt><trkpt lat="45.641062565353316" lon="11.37850189556567"><ele>161.5</ele><time>2026-04-26T10:17:15.999Z</time></trkpt><trkpt lat="45.641018279087916" lon="11.3783334983168"><ele>163.0</ele><time>2026-04-26T10:17:16.999Z</time></trkpt><trkpt lat="45.64094266148251" lon="11.378188009985521"><ele>163.0</ele><time>2026-04-26T10:17:17.999Z</time></trkpt><trkpt lat="45.64083217512737" lon="11.378082869889198"><ele>163.0</ele><time>2026-04-26T10:17:18.999Z</time></trkpt><trkpt lat="45.64071497627704" lon="11.377988522543276"><ele>163.0</ele><time>2026-04-26T10:17:19.999Z</time></trkpt><trkpt lat="45.64060749475647" lon="11.37788006257692"><ele>163.0</ele><time>2026-04-26T10:17:20.999Z</time></trkpt><trkpt lat="45.64053353790047" lon="11.377747818970164"><ele>165.0</ele><time>2026-04-26T10:17:21.999Z</time></trkpt><trkpt lat="45.64050512378307" lon="11.377609419436856"><ele>167.0</ele><time>2026-04-26T10:17:22.999Z</time></trkpt><trkpt lat="45.64048860493338" lon="11.377469097150348"><ele>169.0</ele><time>2026-04-26T10:17:23.999Z</time></trkpt><trkpt lat="45.64044669003964" lon="11.377364705022535"><ele>171.0</ele><time>2026-04-26T10:17:24.999Z</time></trkpt><trkpt lat="45.64040550241277" lon="11.377278096137712"><ele>173.0</ele><time>2026-04-26T10:17:25.999Z</time></trkpt><trkpt lat="45.640292162890866" lon="11.37730568495206"><ele>173.4</ele><time>2026-04-26T10:17:26.999Z</time></trkpt><trkpt lat="45.6402083148995" lon="11.37737854542529"><ele>173.8</ele><time>2026-04-26T10:17:27.999Z</time></trkpt><trkpt lat="45.64014297123936" lon="11.377497983372653"><ele>174.2</ele><time>2026-04-26T10:17:28.999Z</time></trkpt><trkpt lat="45.6400806406899" lon="11.377622932129723"><ele>174.6</ele><time>2026-04-26T10:17:29.999Z</time></trkpt><trkpt lat="45.64000421031379" lon="11.377749986314887"><ele>175.0</ele><time>2026-04-26T10:17:30.999Z</time></trkpt><trkpt lat="45.6399312066118" lon="11.377881088510268"><ele>175.0</ele><time>2026-04-26T10:17:31.999Z</time></trkpt><trkpt lat="45.63986955521633" lon="11.378005135345942"><ele>175.0</ele><time>2026-04-26T10:17:32.999Z</time></trkpt><trkpt lat="45.63979723105662" lon="11.378119759887149"><ele>175.0</ele><time>2026-04-26T10:17:33.999Z</time></trkpt><trkpt lat="45.639700750621266" lon="11.378184618542925"><ele>175.0</ele><time>2026-04-26T10:17:34.999Z</time></trkpt><trkpt lat="45.63958722815808" lon="11.378198362508966"><ele>175.0</ele><time>2026-04-26T10:17:35.999Z</time></trkpt><trkpt lat="45.63947959472423" lon="11.378125863725996"><ele>175.5</ele><time>2026-04-26T10:17:36.999Z</time></trkpt><trkpt lat="45.63941189137558" lon="11.377986557813477"><ele>176.0</ele><time>2026-04-26T10:17:37.999Z</time></trkpt><trkpt lat="45.639327462675446" lon="11.377867211586395"><ele>176.5</ele><time>2026-04-26T10:17:38.999Z</time></trkpt><trkpt lat="45.639311888998584" lon="11.377687776921704"><ele>177.0</ele><time>2026-04-26T10:17:39.999Z</time></trkpt><trkpt lat="45.63929897269482" lon="11.377503084099407"><ele>177.0</ele><time>2026-04-26T10:17:40.999Z</time></trkpt><trkpt lat="45.639336834308935" lon="11.37733460847432"><ele>177.0</ele><time>2026-04-26T10:17:41.999Z</time></trkpt><trkpt lat="45.63939581728362" lon="11.37715694713031"><ele>177.0</ele><time>2026-04-26T10:17:42.999Z</time></trkpt><trkpt lat="45.63946600954856" lon="11.376972222191132"><ele>177.0</ele><time>2026-04-26T10:17:43.999Z</time></trkpt><trkpt lat="45.63954395528413" lon="11.37678288214583"><ele>179.66666666666666</ele><time>2026-04-26T10:17:44.999Z</time></trkpt><trkpt lat="45.63963847994513" lon="11.376594540797647"><ele>182.33333333333331</ele><time>2026-04-26T10:17:45.999Z</time></trkpt><trkpt lat="45.639743060254396" lon="11.376428283675047"><ele>185.0</ele><time>2026-04-26T10:17:46.999Z</time></trkpt><trkpt lat="45.639858569834864" lon="11.37626153907542"><ele>186.5</ele><time>2026-04-26T10:17:47.999Z</time></trkpt><trkpt lat="45.639965465487606" lon="11.376090748597466"><ele>188.0</ele><time>2026-04-26T10:17:48.999Z</time></trkpt><trkpt lat="45.640068203486535" lon="11.37595605226063"><ele>189.5</ele><time>2026-04-26T10:17:49.999Z</time></trkpt><trkpt lat="45.640149187060175" lon="11.375835378332972"><ele>191.0</ele><time>2026-04-26T10:17:50.999Z</time></trkpt><trkpt lat="45.64021252661065" lon="11.375722987858774"><ele>191.0</ele><time>2026-04-26T10:17:51.999Z</time></trkpt><trkpt lat="45.64018835719775" lon="11.375570841543755"><ele>191.0</ele><time>2026-04-26T10:17:52.999Z</time></trkpt><trkpt lat="45.64012373291438" lon="11.375442560712212"><ele>191.0</ele><time>2026-04-26T10:17:53.999Z</time></trkpt><trkpt lat="45.640029744493205" lon="11.375352956562374"><ele>191.0</ele><time>2026-04-26T10:17:54.999Z</time></trkpt><trkpt lat="45.63991410328607" lon="11.375325696179125"><ele>191.0</ele><time>2026-04-26T10:17:55.999Z</time></trkpt><trkpt lat="45.63979033084936" lon="11.375365381582808"><ele>191.0</ele><time>2026-04-26T10:17:56.999Z</time></trkpt><trkpt lat="45.639675937507945" lon="11.375465812146745"><ele>191.0</ele><time>2026-04-26T10:17:57.999Z</time></trkpt><trkpt lat="45.63956849445262" lon="11.375571758639099"><ele>191.0</ele><time>2026-04-26T10:17:58.999Z</time></trkpt><trkpt lat="45.639461978928516" lon="11.37565663091746"><ele>191.20000000000002</ele><time>2026-04-26T10:17:59.999Z</time></trkpt><trkpt lat="45.63936856605218" lon="11.37572360151181"><ele>191.4</ele><time>2026-04-26T10:18:00.999Z</time></trkpt><trkpt lat="45.63927292383871" lon="11.375761852061004"><ele>191.6</ele><time>2026-04-26T10:18:01.999Z</time></trkpt><trkpt lat="45.6391756940529" lon="11.375736062496781"><ele>191.8</ele><time>2026-04-26T10:18:02.999Z</time></trkpt><trkpt lat="45.639112158504474" lon="11.37561550089292"><ele>192.0</ele><time>2026-04-26T10:18:03.999Z</time></trkpt><trkpt lat="45.63907185902928" lon="11.37548290592177"><ele>194.5</ele><time>2026-04-26T10:18:04.999Z</time></trkpt><trkpt lat="45.6390086601111" lon="11.375342423403714"><ele>197.0</ele><time>2026-04-26T10:18:05.999Z</time></trkpt><trkpt lat="45.63893008137765" lon="11.375204402980655"><ele>199.5</ele><time>2026-04-26T10:18:06.999Z</time></trkpt><trkpt lat="45.638852260647525" lon="11.375045326697478"><ele>202.0</ele><time>2026-04-26T10:18:07.999Z</time></trkpt><trkpt lat="45.63876946606477" lon="11.374874365084725"><ele>202.0</ele><time>2026-04-26T10:18:08.999Z</time></trkpt><trkpt lat="45.63867256881795" lon="11.374704257600738"><ele>202.0</ele><time>2026-04-26T10:18:09.999Z</time></trkpt><trkpt lat="45.63854738278347" lon="11.374560190217624"><ele>202.0</ele><time>2026-04-26T10:18:10.999Z</time></trkpt><trkpt lat="45.63840130822803" lon="11.37444525654471"><ele>203.33333333333331</ele><time>2026-04-26T10:18:11.999Z</time></trkpt><trkpt lat="45.63824791934538" lon="11.374364641241009"><ele>204.66666666666669</ele><time>2026-04-26T10:18:12.999Z</time></trkpt><trkpt lat="45.638093254980404" lon="11.374293332443154"><ele>206.0</ele><time>2026-04-26T10:18:13.999Z</time></trkpt><trkpt lat="45.63794212760954" lon="11.37420874665151"><ele>206.0</ele><time>2026-04-26T10:18:14.999Z</time></trkpt><trkpt lat="45.63782689989468" lon="11.374091918388174"><ele>206.0</ele><time>2026-04-26T10:18:15.998Z</time></trkpt><trkpt lat="45.63772814429128" lon="11.373960946459437"><ele>206.0</ele><time>2026-04-26T10:18:16.998Z</time></trkpt><trkpt lat="45.637647901081145" lon="11.373801158524271"><ele>206.0</ele><time>2026-04-26T10:18:17.998Z</time></trkpt><trkpt lat="45.6375917428691" lon="11.373612384327442"><ele>207.0</ele><time>2026-04-26T10:18:18.998Z</time></trkpt><trkpt lat="45.637517988109664" lon="11.373410519017527"><ele>208.0</ele><time>2026-04-26T10:18:19.998Z</time></trkpt><trkpt lat="45.63743490291507" lon="11.373201008172265"><ele>209.0</ele><time>2026-04-26T10:18:20.998Z</time></trkpt><trkpt lat="45.63734297220741" lon="11.372979973940874"><ele>210.66666666666669</ele><time>2026-04-26T10:18:21.998Z</time></trkpt><trkpt lat="45.637234330022416" lon="11.372764423463169"><ele>212.33333333333331</ele><time>2026-04-26T10:18:22.998Z</time></trkpt><trkpt lat="45.63709576739625" lon="11.372593131530056"><ele>214.0</ele><time>2026-04-26T10:18:23.998Z</time></trkpt><trkpt lat="45.63695348986401" lon="11.372441850821373"><ele>214.0</ele><time>2026-04-26T10:18:24.998Z</time></trkpt><trkpt lat="45.63678839302889" lon="11.37234239539133"><ele>214.0</ele><time>2026-04-26T10:18:25.998Z</time></trkpt><trkpt lat="45.63661041395814" lon="11.37228313401348"><ele>214.0</ele><time>2026-04-26T10:18:26.998Z</time></trkpt><trkpt lat="45.636436274115816" lon="11.372225549668896"><ele>218.0</ele><time>2026-04-26T10:18:27.998Z</time></trkpt><trkpt lat="45.636275055251204" lon="11.372150675147887"><ele>222.0</ele><time>2026-04-26T10:18:28.998Z</time></trkpt><trkpt lat="45.63611702632655" lon="11.372085885984092"><ele>226.0</ele><time>2026-04-26T10:18:29.998Z</time></trkpt><trkpt lat="45.635961841857146" lon="11.372060921332158"><ele>223.33333333333331</ele><time>2026-04-26T10:18:30.998Z</time></trkpt><trkpt lat="45.63580649201171" lon="11.372072513029828"><ele>220.66666666666669</ele><time>2026-04-26T10:18:31.998Z</time></trkpt><trkpt lat="45.63565554718014" lon="11.372110868653444"><ele>218.0</ele><time>2026-04-26T10:18:32.998Z</time></trkpt><trkpt lat="45.6355128105515" lon="11.372209953184273"><ele>218.0</ele><time>2026-04-26T10:18:33.998Z</time></trkpt><trkpt lat="45.63537519451656" lon="11.372318322438428"><ele>218.0</ele><time>2026-04-26T10:18:34.998Z</time></trkpt><trkpt lat="45.635245694959515" lon="11.37241981659063"><ele>218.0</ele><time>2026-04-26T10:18:35.998Z</time></trkpt><trkpt lat="45.6351281801776" lon="11.372524748489926"><ele>218.0</ele><time>2026-04-26T10:18:36.998Z</time></trkpt><trkpt lat="45.635038223192545" lon="11.372648051759077"><ele>223.4</ele><time>2026-04-26T10:18:37.998Z</time></trkpt><trkpt lat="45.63498506574552" lon="11.372770836863674"><ele>228.8</ele><time>2026-04-26T10:18:38.998Z</time></trkpt><trkpt lat="45.63497474046048" lon="11.372906815388017"><ele>234.2</ele><time>2026-04-26T10:18:39.998Z</time></trkpt><trkpt lat="45.63499732912764" lon="11.373038705022397"><ele>239.6</ele><time>2026-04-26T10:18:40.998Z</time></trkpt><trkpt lat="45.63506371489599" lon="11.373146362992841"><ele>245.0</ele><time>2026-04-26T10:18:41.998Z</time></trkpt><trkpt lat="45.63516552977821" lon="11.373208750553067"><ele>245.0</ele><time>2026-04-26T10:18:43Z</time></trkpt><trkpt lat="45.635279024558116" lon="11.373239147734253"><ele>245.0</ele><time>2026-04-26T10:18:44Z</time></trkpt><trkpt lat="45.635393489960286" lon="11.373270309098816"><ele>245.0</ele><time>2026-04-26T10:18:45Z</time></trkpt><trkpt lat="45.63549894945931" lon="11.373311720267388"><ele>245.0</ele><time>2026-04-26T10:18:46Z</time></trkpt><trkpt lat="45.63559375633817" lon="11.373386350132796"><ele>246.8</ele><time>2026-04-26T10:18:47Z</time></trkpt><trkpt lat="45.63566369791307" lon="11.37349424399903"><ele>248.6</ele><time>2026-04-26T10:18:48Z</time></trkpt><trkpt lat="45.635724961294784" lon="11.373607669516218"><ele>250.39999999999998</ele><time>2026-04-26T10:18:49Z</time></trkpt><trkpt lat="45.63579385862309" lon="11.373713161422938"><ele>252.2</ele><time>2026-04-26T10:18:50Z</time></trkpt><trkpt lat="45.63587530268834" lon="11.373796249864158"><ele>254.0</ele><time>2026-04-26T10:18:51Z</time></trkpt><trkpt lat="45.635959805926134" lon="11.37386419910476"><ele>254.00000000000003</ele><time>2026-04-26T10:18:52Z</time></trkpt><trkpt lat="45.63604061617096" lon="11.37391908883003"><ele>254.0</ele><time>2026-04-26T10:18:53Z</time></trkpt><trkpt lat="45.636123384402815" lon="11.373962953613416"><ele>254.0</ele><time>2026-04-26T10:18:54Z</time></trkpt><trkpt lat="45.63620362130015" lon="11.374003110919189"><ele>254.0</ele><time>2026-04-26T10:18:55Z</time></trkpt><trkpt lat="45.636271470076224" lon="11.37402511001138"><ele>254.00000000000003</ele><time>2026-04-26T10:18:56Z</time></trkpt><trkpt lat="45.636364909283195" lon="11.374089970782563"><ele>254.0</ele><time>2026-04-26T10:18:58Z</time></trkpt><trkpt lat="45.636339204335684" lon="11.374210329581532"><ele>254.0</ele><time>2026-04-26T10:19:00Z</time></trkpt><trkpt lat="45.636228045820545" lon="11.374154562820529"><ele>253.99999999999997</ele><time>2026-04-26T10:19:02Z</time></trkpt><trkpt lat="45.63610242253339" lon="11.374086480425301"><ele>253.99999999999997</ele><time>2026-04-26T10:19:04Z</time></trkpt><trkpt lat="45.63603188546704" lon="11.37404110921536"><ele>254.0</ele><time>2026-04-26T10:19:05Z</time></trkpt><trkpt lat="45.635950060728725" lon="11.373991749623835"><ele>254.0</ele><time>2026-04-26T10:19:06Z</time></trkpt><trkpt lat="45.635865355360615" lon="11.373938632991807"><ele>254.0</ele><time>2026-04-26T10:19:07Z</time></trkpt><trkpt lat="45.63577387558094" lon="11.373872951303877"><ele>253.99999999999997</ele><time>2026-04-26T10:19:08Z</time></trkpt><trkpt lat="45.635685273290484" lon="11.373800932976478"><ele>253.99999999999997</ele><time>2026-04-26T10:19:09Z</time></trkpt><trkpt lat="45.63560351668058" lon="11.373718563333068"><ele>254.0</ele><time>2026-04-26T10:19:10Z</time></trkpt><trkpt lat="45.63552240770069" lon="11.373647581265676"><ele>254.0</ele><time>2026-04-26T10:19:11Z</time></trkpt><trkpt lat="45.635438038276796" lon="11.373584886183714"><ele>252.2</ele><time>2026-04-26T10:19:12Z</time></trkpt><trkpt lat="45.635345364059184" lon="11.373541955809397"><ele>250.39999999999998</ele><time>2026-04-26T10:19:13Z</time></trkpt><trkpt lat="45.635249686483924" lon="11.37352243940305"><ele>248.6</ele><time>2026-04-26T10:19:14Z</time></trkpt><trkpt lat="45.635143605028766" lon="11.373528134438288"><ele>246.8</ele><time>2026-04-26T10:19:15Z</time></trkpt><trkpt lat="45.635042365588276" lon="11.37355291185625"><ele>245.0</ele><time>2026-04-26T10:19:16Z</time></trkpt><trkpt lat="45.63495395553458" lon="11.37358395613566"><ele>245.0</ele><time>2026-04-26T10:19:17Z</time></trkpt><trkpt lat="45.63488037236901" lon="11.373599278569307"><ele>245.0</ele><time>2026-04-26T10:19:18Z</time></trkpt><trkpt lat="45.6348157594996" lon="11.373572172736623"><ele>245.0</ele><time>2026-04-26T10:19:19Z</time></trkpt><trkpt lat="45.634762596291075" lon="11.373257520004922"><ele>245.0</ele><time>2026-04-26T10:19:22Z</time></trkpt><trkpt lat="45.634721683974085" lon="11.373149193796019"><ele>245.4</ele><time>2026-04-26T10:19:22.999Z</time></trkpt><trkpt lat="45.634682549648964" lon="11.373015693146588"><ele>245.8</ele><time>2026-04-26T10:19:23.999Z</time></trkpt><trkpt lat="45.6346648299309" lon="11.372869667446375"><ele>246.2</ele><time>2026-04-26T10:19:24.999Z</time></trkpt><trkpt lat="45.63464525390042" lon="11.372718473741838"><ele>246.6</ele><time>2026-04-26T10:19:25.999Z</time></trkpt><trkpt lat="45.63466924354961" lon="11.372570178148308"><ele>247.0</ele><time>2026-04-26T10:19:26.999Z</time></trkpt><trkpt lat="45.634704899274034" lon="11.372402346942721"><ele>247.0</ele><time>2026-04-26T10:19:27.999Z</time></trkpt><trkpt lat="45.63476412524026" lon="11.372262304454004"><ele>247.0</ele><time>2026-04-26T10:19:28.999Z</time></trkpt><trkpt lat="45.63484860229524" lon="11.372156803514008"><ele>247.0</ele><time>2026-04-26T10:19:29.999Z</time></trkpt><trkpt lat="45.634940164960476" lon="11.372051509358224"><ele>247.0</ele><time>2026-04-26T10:19:30.999Z</time></trkpt><trkpt lat="45.635031334716324" lon="11.371938505325705"><ele>253.75</ele><time>2026-04-26T10:19:31.999Z</time></trkpt><trkpt lat="45.63512665731143" lon="11.371822154500489"><ele>260.5</ele><time>2026-04-26T10:19:32.999Z</time></trkpt><trkpt lat="45.63521550418505" lon="11.371681433586009"><ele>267.25</ele><time>2026-04-26T10:19:33.999Z</time></trkpt><trkpt lat="45.63525697211502" lon="11.37149487567987"><ele>274.0</ele><time>2026-04-26T10:19:34.999Z</time></trkpt><trkpt lat="45.635282703581375" lon="11.37131518456257"><ele>271.25</ele><time>2026-04-26T10:19:35.999Z</time></trkpt><trkpt lat="45.63531640172221" lon="11.371145788305375"><ele>268.5</ele><time>2026-04-26T10:19:36.999Z</time></trkpt><trkpt lat="45.63536537858281" lon="11.370967905783854"><ele>265.75</ele><time>2026-04-26T10:19:37.999Z</time></trkpt><trkpt lat="45.63542907169648" lon="11.370796233218321"><ele>263.0</ele><time>2026-04-26T10:19:38.999Z</time></trkpt><trkpt lat="45.63551340552477" lon="11.370642760069922"><ele>268.75</ele><time>2026-04-26T10:19:39.999Z</time></trkpt><trkpt lat="45.63559845207223" lon="11.370481662121847"><ele>274.5</ele><time>2026-04-26T10:19:40.999Z</time></trkpt><trkpt lat="45.63569205742903" lon="11.37034377972381"><ele>280.25</ele><time>2026-04-26T10:19:41.999Z</time></trkpt><trkpt lat="45.63580593793075" lon="11.370232228362108"><ele>286.0</ele><time>2026-04-26T10:19:42.999Z</time></trkpt><trkpt lat="45.63595482074894" lon="11.370212852757128"><ele>286.0</ele><time>2026-04-26T10:19:43.999Z</time></trkpt><trkpt lat="45.63610250770994" lon="11.370167370451679"><ele>286.0</ele><time>2026-04-26T10:19:44.999Z</time></trkpt><trkpt lat="45.636255619878355" lon="11.370144723710219"><ele>286.0</ele><time>2026-04-26T10:19:45.999Z</time></trkpt><trkpt lat="45.636399904566844" lon="11.37009457705853"><ele>286.5</ele><time>2026-04-26T10:19:46.999Z</time></trkpt><trkpt lat="45.636533948593005" lon="11.370051930878526"><ele>287.0</ele><time>2026-04-26T10:19:47.999Z</time></trkpt><trkpt lat="45.63667638884841" lon="11.370049100611777"><ele>287.5</ele><time>2026-04-26T10:19:48.999Z</time></trkpt><trkpt lat="45.63681783789934" lon="11.37009093924244"><ele>288.0</ele><time>2026-04-26T10:19:49.999Z</time></trkpt><trkpt lat="45.636960283846456" lon="11.37016021137771"><ele>287.3333333333333</ele><time>2026-04-26T10:19:50.999Z</time></trkpt><trkpt lat="45.63710717569328" lon="11.370216970005727"><ele>286.66666666666663</ele><time>2026-04-26T10:19:51.999Z</time></trkpt><trkpt lat="45.63726905056615" lon="11.370251856913864"><ele>286.0</ele><time>2026-04-26T10:19:52.999Z</time></trkpt><trkpt lat="45.63743787292762" lon="11.370253082879065"><ele>286.0</ele><time>2026-04-26T10:19:53.999Z</time></trkpt><trkpt lat="45.63758872034576" lon="11.370258628453005"><ele>286.0</ele><time>2026-04-26T10:19:54.999Z</time></trkpt><trkpt lat="45.63774055602833" lon="11.370266804307436"><ele>286.0</ele><time>2026-04-26T10:19:55.999Z</time></trkpt><trkpt lat="45.637865461224074" lon="11.370283882473405"><ele>286.0</ele><time>2026-04-26T10:19:56.999Z</time></trkpt><trkpt lat="45.63796682577492" lon="11.370281610017116"><ele>284.75</ele><time>2026-04-26T10:19:57.999Z</time></trkpt><trkpt lat="45.638059399624176" lon="11.37022453895815"><ele>283.5</ele><time>2026-04-26T10:19:58.999Z</time></trkpt><trkpt lat="45.638150310171326" lon="11.370108552722112"><ele>282.25</ele><time>2026-04-26T10:19:59.999Z</time></trkpt><trkpt lat="45.638243469478205" lon="11.36998092777377"><ele>281.0</ele><time>2026-04-26T10:20:00.999Z</time></trkpt><trkpt lat="45.63834894902206" lon="11.36985568636188"><ele>281.0</ele><time>2026-04-26T10:20:01.999Z</time></trkpt><trkpt lat="45.63846519910839" lon="11.36972667387456"><ele>281.0</ele><time>2026-04-26T10:20:02.999Z</time></trkpt><trkpt lat="45.638581316985274" lon="11.369596190373565"><ele>281.0</ele><time>2026-04-26T10:20:03.999Z</time></trkpt><trkpt lat="45.63868651628408" lon="11.369457919353254"><ele>281.0</ele><time>2026-04-26T10:20:04.999Z</time></trkpt><trkpt lat="45.6387811209676" lon="11.369317048222024"><ele>280.33333333333337</ele><time>2026-04-26T10:20:05.999Z</time></trkpt><trkpt lat="45.63883341030369" lon="11.369107681062555"><ele>279.6666666666667</ele><time>2026-04-26T10:20:06.999Z</time></trkpt><trkpt lat="45.638889991001946" lon="11.368898422206975"><ele>279.0</ele><time>2026-04-26T10:20:07.999Z</time></trkpt><trkpt lat="45.63895651712193" lon="11.36867411240643"><ele>279.0</ele><time>2026-04-26T10:20:08.999Z</time></trkpt><trkpt lat="45.639017120028996" lon="11.368439594913461"><ele>279.0</ele><time>2026-04-26T10:20:09.999Z</time></trkpt><trkpt lat="45.63907888143167" lon="11.368202706646395"><ele>279.0</ele><time>2026-04-26T10:20:10.999Z</time></trkpt><trkpt lat="45.639127786872635" lon="11.367947214071668"><ele>282.6666666666667</ele><time>2026-04-26T10:20:11.999Z</time></trkpt><trkpt lat="45.63921054351567" lon="11.367704326418915"><ele>286.33333333333337</ele><time>2026-04-26T10:20:12.999Z</time></trkpt><trkpt lat="45.639273935288074" lon="11.367492700410581"><ele>290.0</ele><time>2026-04-26T10:20:13.999Z</time></trkpt><trkpt lat="45.639339831241685" lon="11.36731830635996"><ele>289.33333333333337</ele><time>2026-04-26T10:20:14.999Z</time></trkpt><trkpt lat="45.639450834703716" lon="11.367082607986603"><ele>288.6666666666667</ele><time>2026-04-26T10:20:15.999Z</time></trkpt><trkpt lat="45.639555917021326" lon="11.366923067995359"><ele>288.0</ele><time>2026-04-26T10:20:16.999Z</time></trkpt><trkpt lat="45.63966900601404" lon="11.366773071017235"><ele>288.0</ele><time>2026-04-26T10:20:17.999Z</time></trkpt><trkpt lat="45.63977960778723" lon="11.36661334275921"><ele>288.0</ele><time>2026-04-26T10:20:18.999Z</time></trkpt><trkpt lat="45.639897069308745" lon="11.366478305243087"><ele>288.0</ele><time>2026-04-26T10:20:19.999Z</time></trkpt><trkpt lat="45.639998709567564" lon="11.36635293208188"><ele>288.0</ele><time>2026-04-26T10:20:20.999Z</time></trkpt><trkpt lat="45.64008999514895" lon="11.36623856746914"><ele>291.5</ele><time>2026-04-26T10:20:21.999Z</time></trkpt><trkpt lat="45.64018176137024" lon="11.366122587118687"><ele>295.0</ele><time>2026-04-26T10:20:22.999Z</time></trkpt><trkpt lat="45.6402734007545" lon="11.366009697843566"><ele>298.5</ele><time>2026-04-26T10:20:23.998Z</time></trkpt><trkpt lat="45.64036695732517" lon="11.365895852308014"><ele>302.0</ele><time>2026-04-26T10:20:24.998Z</time></trkpt><trkpt lat="45.64046317908118" lon="11.365791330052158"><ele>302.0</ele><time>2026-04-26T10:20:25.998Z</time></trkpt><trkpt lat="45.64057373658859" lon="11.36570427009711"><ele>302.0</ele><time>2026-04-26T10:20:26.998Z</time></trkpt><trkpt lat="45.640699671896975" lon="11.365650486813093"><ele>302.0</ele><time>2026-04-26T10:20:27.998Z</time></trkpt><trkpt lat="45.64083820490031" lon="11.365631573337131"><ele>302.0</ele><time>2026-04-26T10:20:28.998Z</time></trkpt><trkpt lat="45.640978767172534" lon="11.36562274962567"><ele>302.0</ele><time>2026-04-26T10:20:29.998Z</time></trkpt><trkpt lat="45.64111914828046" lon="11.365605209856833"><ele>302.0</ele><time>2026-04-26T10:20:30.998Z</time></trkpt><trkpt lat="45.641256983558705" lon="11.365583998660052"><ele>302.0</ele><time>2026-04-26T10:20:31.998Z</time></trkpt><trkpt lat="45.64138980790797" lon="11.365561056062841"><ele>302.0</ele><time>2026-04-26T10:20:32.998Z</time></trkpt><trkpt lat="45.64151329811241" lon="11.365517178118875"><ele>307.0</ele><time>2026-04-26T10:20:33.998Z</time></trkpt><trkpt lat="45.641625392931616" lon="11.365432246204167"><ele>312.0</ele><time>2026-04-26T10:20:34.998Z</time></trkpt><trkpt lat="45.6417203837464" lon="11.36528534498149"><ele>317.0</ele><time>2026-04-26T10:20:35.998Z</time></trkpt><trkpt lat="45.64181856459117" lon="11.365157227491501"><ele>322.0</ele><time>2026-04-26T10:20:36.998Z</time></trkpt><trkpt lat="45.64191678137769" lon="11.36504895536379"><ele>319.5</ele><time>2026-04-26T10:20:37.998Z</time></trkpt><trkpt lat="45.6420164739747" lon="11.364964266323863"><ele>317.0</ele><time>2026-04-26T10:20:38.998Z</time></trkpt><trkpt lat="45.6421288006777" lon="11.364898686937963"><ele>314.5</ele><time>2026-04-26T10:20:39.998Z</time></trkpt><trkpt lat="45.642257153795896" lon="11.36490387864674"><ele>312.0</ele><time>2026-04-26T10:20:40.998Z</time></trkpt><trkpt lat="45.64238360765615" lon="11.364988005314222"><ele>312.0</ele><time>2026-04-26T10:20:41.998Z</time></trkpt><trkpt lat="45.642517806099704" lon="11.365056562678298"><ele>312.0</ele><time>2026-04-26T10:20:42.998Z</time></trkpt><trkpt lat="45.642644956651274" lon="11.36514542493592"><ele>312.0</ele><time>2026-04-26T10:20:43.998Z</time></trkpt><trkpt lat="45.64278002165814" lon="11.365202498197839"><ele>312.0</ele><time>2026-04-26T10:20:44.998Z</time></trkpt><trkpt lat="45.642909155788544" lon="11.36523129205983"><ele>312.8</ele><time>2026-04-26T10:20:45.998Z</time></trkpt><trkpt lat="45.64302822038047" lon="11.365260377333119"><ele>313.6</ele><time>2026-04-26T10:20:46.998Z</time></trkpt><trkpt lat="45.6431299290177" lon="11.365304373148915"><ele>314.40000000000003</ele><time>2026-04-26T10:20:47.998Z</time></trkpt><trkpt lat="45.64322293071612" lon="11.365379110003833"><ele>315.2</ele><time>2026-04-26T10:20:49Z</time></trkpt><trkpt lat="45.64331699881128" lon="11.36544512940113"><ele>316.0</ele><time>2026-04-26T10:20:50Z</time></trkpt><trkpt lat="45.64340504642129" lon="11.365500053609852"><ele>315.5</ele><time>2026-04-26T10:20:51Z</time></trkpt><trkpt lat="45.64350422459991" lon="11.365550677817351"><ele>315.0</ele><time>2026-04-26T10:20:52Z</time></trkpt><trkpt lat="45.643616663589476" lon="11.365567130625468"><ele>314.5</ele><time>2026-04-26T10:20:53Z</time></trkpt><trkpt lat="45.64374095479145" lon="11.365561475161588"><ele>314.0</ele><time>2026-04-26T10:20:54Z</time></trkpt><trkpt lat="45.64386131657183" lon="11.36552444194058"><ele>314.0</ele><time>2026-04-26T10:20:55Z</time></trkpt><trkpt lat="45.64396923619145" lon="11.365469748354803"><ele>314.0</ele><time>2026-04-26T10:20:56Z</time></trkpt><trkpt lat="45.644074986154905" lon="11.365396945461647"><ele>314.0</ele><time>2026-04-26T10:20:57Z</time></trkpt><trkpt lat="45.64418431645637" lon="11.365288931506486"><ele>314.0</ele><time>2026-04-26T10:20:58Z</time></trkpt><trkpt lat="45.644266300505855" lon="11.365139416493427"><ele>314.0</ele><time>2026-04-26T10:20:59Z</time></trkpt><trkpt lat="45.644341106094956" lon="11.364935190976762"><ele>314.0</ele><time>2026-04-26T10:21:00Z</time></trkpt><trkpt lat="45.64444037433937" lon="11.36472181880063"><ele>314.0</ele><time>2026-04-26T10:21:01Z</time></trkpt><trkpt lat="45.644587025858215" lon="11.364540819330243"><ele>316.33333333333337</ele><time>2026-04-26T10:21:02Z</time></trkpt><trkpt lat="45.64468935517174" lon="11.364337006419483"><ele>318.6666666666667</ele><time>2026-04-26T10:21:03Z</time></trkpt><trkpt lat="45.64477781755367" lon="11.364160812756795"><ele>321.0</ele><time>2026-04-26T10:21:04Z</time></trkpt><trkpt lat="45.64485722388773" lon="11.363998926152117"><ele>321.0</ele><time>2026-04-26T10:21:05Z</time></trkpt><trkpt lat="45.644948781358586" lon="11.363862873409088"><ele>321.0</ele><time>2026-04-26T10:21:06Z</time></trkpt><trkpt lat="45.64505295891616" lon="11.363780273990136"><ele>321.0</ele><time>2026-04-26T10:21:07Z</time></trkpt><trkpt lat="45.64519396818479" lon="11.363828674192172"><ele>321.0</ele><time>2026-04-26T10:21:09Z</time></trkpt><trkpt lat="45.6452827779433" lon="11.363881871677187"><ele>322.4</ele><time>2026-04-26T10:21:10Z</time></trkpt><trkpt lat="45.64538804726894" lon="11.363934050065364"><ele>323.8</ele><time>2026-04-26T10:21:11Z</time></trkpt><trkpt lat="45.64549258305888" lon="11.363964598971046"><ele>325.2</ele><time>2026-04-26T10:21:12Z</time></trkpt><trkpt lat="45.645592971355335" lon="11.36401396587089"><ele>326.59999999999997</ele><time>2026-04-26T10:21:13Z</time></trkpt><trkpt lat="45.64569166722325" lon="11.36409787622157"><ele>328.0</ele><time>2026-04-26T10:21:14Z</time></trkpt><trkpt lat="45.645793792369375" lon="11.364176324480999"><ele>328.0</ele><time>2026-04-26T10:21:15Z</time></trkpt><trkpt lat="45.645890499078725" lon="11.364236743057218"><ele>328.0</ele><time>2026-04-26T10:21:16Z</time></trkpt><trkpt lat="45.64596530366375" lon="11.364309166453804"><ele>328.0</ele><time>2026-04-26T10:21:17Z</time></trkpt><trkpt lat="45.64604424782438" lon="11.364373236213126"><ele>328.0</ele><time>2026-04-26T10:21:18Z</time></trkpt><trkpt lat="45.64613385098427" lon="11.364412645259076"><ele>328.0</ele><time>2026-04-26T10:21:19Z</time></trkpt><trkpt lat="45.646231925318034" lon="11.364408877573446"><ele>327.5</ele><time>2026-04-26T10:21:20Z</time></trkpt><trkpt lat="45.64633010395325" lon="11.36435529172195"><ele>327.0</ele><time>2026-04-26T10:21:21Z</time></trkpt><trkpt lat="45.64643004745268" lon="11.364265399297164"><ele>326.5</ele><time>2026-04-26T10:21:22Z</time></trkpt><trkpt lat="45.64654050999726" lon="11.364166158910301"><ele>326.0</ele><time>2026-04-26T10:21:23Z</time></trkpt><trkpt lat="45.646655803506924" lon="11.364075590224848"><ele>326.0</ele><time>2026-04-26T10:21:24Z</time></trkpt><trkpt lat="45.64677249001795" lon="11.363992387470413"><ele>326.0</ele><time>2026-04-26T10:21:25Z</time></trkpt><trkpt lat="45.646883039080144" lon="11.363897454020105"><ele>326.0</ele><time>2026-04-26T10:21:26Z</time></trkpt><trkpt lat="45.64699223668073" lon="11.36379748849894"><ele>326.0</ele><time>2026-04-26T10:21:27Z</time></trkpt><trkpt lat="45.64710622113568" lon="11.363716470797053"><ele>330.0</ele><time>2026-04-26T10:21:28Z</time></trkpt><trkpt lat="45.6472124542902" lon="11.363626917293631"><ele>334.0</ele><time>2026-04-26T10:21:29Z</time></trkpt><trkpt lat="45.647323398647316" lon="11.363536872971595"><ele>338.0</ele><time>2026-04-26T10:21:30Z</time></trkpt><trkpt lat="45.64747013248675" lon="11.363479456710829"><ele>342.0</ele><time>2026-04-26T10:21:30.999Z</time></trkpt><trkpt lat="45.647607600762846" lon="11.363442563436218"><ele>342.0</ele><time>2026-04-26T10:21:31.999Z</time></trkpt><trkpt lat="45.64775432172924" lon="11.363415689493888"><ele>342.0</ele><time>2026-04-26T10:21:32.999Z</time></trkpt><trkpt lat="45.64790612410508" lon="11.363379540506012"><ele>342.0</ele><time>2026-04-26T10:21:33.999Z</time></trkpt><trkpt lat="45.6480574230398" lon="11.363343874867923"><ele>340.0</ele><time>2026-04-26T10:21:34.999Z</time></trkpt><trkpt lat="45.648199099883534" lon="11.363306193497797"><ele>338.0</ele><time>2026-04-26T10:21:35.999Z</time></trkpt><trkpt lat="45.64833877481151" lon="11.363258461501541"><ele>336.0</ele><time>2026-04-26T10:21:36.999Z</time></trkpt><trkpt lat="45.64847205840772" lon="11.363182451889116"><ele>334.0</ele><time>2026-04-26T10:21:37.999Z</time></trkpt><trkpt lat="45.64860139805309" lon="11.363087973044163"><ele>338.75</ele><time>2026-04-26T10:21:38.999Z</time></trkpt><trkpt lat="45.64872709807267" lon="11.36298801318745"><ele>343.5</ele><time>2026-04-26T10:21:39.999Z</time></trkpt><trkpt lat="45.64885848640361" lon="11.362895123262332"><ele>348.25</ele><time>2026-04-26T10:21:40.999Z</time></trkpt><trkpt lat="45.64898015236871" lon="11.362819070798142"><ele>353.0</ele><time>2026-04-26T10:21:41.999Z</time></trkpt><trkpt lat="45.64910334590186" lon="11.362769109519109"><ele>353.0</ele><time>2026-04-26T10:21:42.999Z</time></trkpt><trkpt lat="45.649224163891766" lon="11.362739854685636"><ele>353.0</ele><time>2026-04-26T10:21:43.999Z</time></trkpt><trkpt lat="45.649344771788805" lon="11.362705925353456"><ele>353.0</ele><time>2026-04-26T10:21:44.999Z</time></trkpt><trkpt lat="45.64946129991421" lon="11.362672188728117"><ele>353.0</ele><time>2026-04-26T10:21:45.999Z</time></trkpt><trkpt lat="45.649574216884396" lon="11.362637604722941"><ele>351.59999999999997</ele><time>2026-04-26T10:21:46.999Z</time></trkpt><trkpt lat="45.64968195451023" lon="11.362600873991626"><ele>350.2</ele><time>2026-04-26T10:21:47.999Z</time></trkpt><trkpt lat="45.64977757448663" lon="11.362590036252248"><ele>348.8</ele><time>2026-04-26T10:21:48.999Z</time></trkpt><trkpt lat="45.64987069903487" lon="11.362626858125784"><ele>347.4</ele><time>2026-04-26T10:21:49.999Z</time></trkpt><trkpt lat="45.6499506677877" lon="11.362715713932422"><ele>346.0</ele><time>2026-04-26T10:21:50.999Z</time></trkpt><trkpt lat="45.65000485593951" lon="11.362855475140973"><ele>346.0</ele><time>2026-04-26T10:21:51.999Z</time></trkpt><trkpt lat="45.650044073327166" lon="11.362991018108652"><ele>346.0</ele><time>2026-04-26T10:21:52.999Z</time></trkpt><trkpt lat="45.65007431048723" lon="11.363115431746158"><ele>346.0</ele><time>2026-04-26T10:21:53.999Z</time></trkpt><trkpt lat="45.65007472771767" lon="11.363240817039426"><ele>346.0</ele><time>2026-04-26T10:21:54.999Z</time></trkpt><trkpt lat="45.650034337073514" lon="11.363363715521695"><ele>346.0</ele><time>2026-04-26T10:21:55.999Z</time></trkpt><trkpt lat="45.64999417299354" lon="11.363484632318757"><ele>343.16666666666663</ele><time>2026-04-26T10:21:56.999Z</time></trkpt><trkpt lat="45.64996360926307" lon="11.363609080601847"><ele>340.3333333333333</ele><time>2026-04-26T10:21:57.999Z</time></trkpt><trkpt lat="45.649965527874" lon="11.363736391993836"><ele>337.5</ele><time>2026-04-26T10:21:58.999Z</time></trkpt><trkpt lat="45.649996173037664" lon="11.363847587939485"><ele>334.6666666666667</ele><time>2026-04-26T10:21:59.999Z</time></trkpt><trkpt lat="45.650057684243606" lon="11.363930961877708"><ele>331.83333333333337</ele><time>2026-04-26T10:22:00.999Z</time></trkpt><trkpt lat="45.65013945937645" lon="11.363996850902666"><ele>329.0</ele><time>2026-04-26T10:22:01.999Z</time></trkpt><trkpt lat="45.65022596644572" lon="11.364055280190247"><ele>330.6666666666667</ele><time>2026-04-26T10:22:02.999Z</time></trkpt><trkpt lat="45.65030816135231" lon="11.364121733433288"><ele>332.33333333333337</ele><time>2026-04-26T10:22:03.999Z</time></trkpt><trkpt lat="45.650392521573444" lon="11.364190843881003"><ele>334.0</ele><time>2026-04-26T10:22:04.999Z</time></trkpt><trkpt lat="45.65047223458002" lon="11.364260334665486"><ele>335.6666666666667</ele><time>2026-04-26T10:22:05.999Z</time></trkpt><trkpt lat="45.65054877950471" lon="11.36431819761663"><ele>337.3333333333333</ele><time>2026-04-26T10:22:06.999Z</time></trkpt><trkpt lat="45.65060832287401" lon="11.364361833771955"><ele>339.0</ele><time>2026-04-26T10:22:07.999Z</time></trkpt><trkpt lat="45.65067909211913" lon="11.364398574394707"><ele>339.0</ele><time>2026-04-26T10:22:08.999Z</time></trkpt><trkpt lat="45.65076056524169" lon="11.364411128316876"><ele>339.0</ele><time>2026-04-26T10:22:09.999Z</time></trkpt><trkpt lat="45.65083523113798" lon="11.364394978213285"><ele>339.0</ele><time>2026-04-26T10:22:10.999Z</time></trkpt><trkpt lat="45.65091142715824" lon="11.364360686692486"><ele>339.0</ele><time>2026-04-26T10:22:11.999Z</time></trkpt><trkpt lat="45.6509937568788" lon="11.3643263567793"><ele>339.0</ele><time>2026-04-26T10:22:12.999Z</time></trkpt><trkpt lat="45.65108217211139" lon="11.364305394306331"><ele>339.0</ele><time>2026-04-26T10:22:13.999Z</time></trkpt><trkpt lat="45.651179319746596" lon="11.364301453566881"><ele>340.0</ele><time>2026-04-26T10:22:14.999Z</time></trkpt><trkpt lat="45.651275217906935" lon="11.364326299182022"><ele>341.0</ele><time>2026-04-26T10:22:15.999Z</time></trkpt><trkpt lat="45.651362723976966" lon="11.364391295392345"><ele>342.0</ele><time>2026-04-26T10:22:16.999Z</time></trkpt><trkpt lat="45.651439756360034" lon="11.364500604049919"><ele>343.0</ele><time>2026-04-26T10:22:17.999Z</time></trkpt><trkpt lat="45.65150084329454" lon="11.364631924211556"><ele>344.0</ele><time>2026-04-26T10:22:18.999Z</time></trkpt><trkpt lat="45.65153833499899" lon="11.364784301874746"><ele>344.0</ele><time>2026-04-26T10:22:19.999Z</time></trkpt><trkpt lat="45.65154898745657" lon="11.364950576552715"><ele>344.0</ele><time>2026-04-26T10:22:20.999Z</time></trkpt><trkpt lat="45.65154545871011" lon="11.365124901119614"><ele>344.0</ele><time>2026-04-26T10:22:21.999Z</time></trkpt><trkpt lat="45.651551506003656" lon="11.365294034486261"><ele>344.0</ele><time>2026-04-26T10:22:22.999Z</time></trkpt><trkpt lat="45.65158023958294" lon="11.365456494430484"><ele>342.79999999999995</ele><time>2026-04-26T10:22:23.999Z</time></trkpt><trkpt lat="45.6516147181261" lon="11.365608822164651"><ele>341.59999999999997</ele><time>2026-04-26T10:22:24.999Z</time></trkpt><trkpt lat="45.651648689371605" lon="11.365756296365156"><ele>340.4</ele><time>2026-04-26T10:22:25.999Z</time></trkpt><trkpt lat="45.6516692593871" lon="11.365904818207994"><ele>339.2</ele><time>2026-04-26T10:22:26.999Z</time></trkpt><trkpt lat="45.65167776802621" lon="11.366059709874667"><ele>338.0</ele><time>2026-04-26T10:22:27.999Z</time></trkpt><trkpt lat="45.65166456179603" lon="11.366210909168316"><ele>338.0</ele><time>2026-04-26T10:22:28.999Z</time></trkpt><trkpt lat="45.651634797734246" lon="11.366342411485826"><ele>338.0</ele><time>2026-04-26T10:22:29.999Z</time></trkpt><trkpt lat="45.65160373764739" lon="11.366464274966573"><ele>338.0</ele><time>2026-04-26T10:22:30.999Z</time></trkpt><trkpt lat="45.651601801789546" lon="11.366574503924763"><ele>338.0</ele><time>2026-04-26T10:22:31.998Z</time></trkpt><trkpt lat="45.65163443813526" lon="11.366675058500743"><ele>338.0</ele><time>2026-04-26T10:22:32.998Z</time></trkpt><trkpt lat="45.65169132640537" lon="11.36674623573286"><ele>338.0</ele><time>2026-04-26T10:22:33.998Z</time></trkpt><trkpt lat="45.65176625326265" lon="11.366770446551186"><ele>337.83333333333337</ele><time>2026-04-26T10:22:34.998Z</time></trkpt><trkpt lat="45.65183771763102" lon="11.366760000179857"><ele>337.6666666666667</ele><time>2026-04-26T10:22:35.998Z</time></trkpt><trkpt lat="45.65191083747836" lon="11.366686459748236"><ele>337.5</ele><time>2026-04-26T10:22:36.998Z</time></trkpt><trkpt lat="45.65197090111916" lon="11.366600318095454"><ele>337.3333333333333</ele><time>2026-04-26T10:22:37.998Z</time></trkpt><trkpt lat="45.65204270655119" lon="11.366513313218734"><ele>337.16666666666663</ele><time>2026-04-26T10:22:38.998Z</time></trkpt><trkpt lat="45.652118010212575" lon="11.366422998272734"><ele>337.0</ele><time>2026-04-26T10:22:39.998Z</time></trkpt><trkpt lat="45.65219947086577" lon="11.366332352455736"><ele>339.25</ele><time>2026-04-26T10:22:40.998Z</time></trkpt><trkpt lat="45.6522730828226" lon="11.36623118542683"><ele>341.5</ele><time>2026-04-26T10:22:41.998Z</time></trkpt><trkpt lat="45.65236241098503" lon="11.366139851145222"><ele>343.75</ele><time>2026-04-26T10:22:42.998Z</time></trkpt><trkpt lat="45.652452159430304" lon="11.366021784230615"><ele>346.0</ele><time>2026-04-26T10:22:43.998Z</time></trkpt><trkpt lat="45.652553096386114" lon="11.365884008841281"><ele>346.0</ele><time>2026-04-26T10:22:44.998Z</time></trkpt><trkpt lat="45.652659560051134" lon="11.365738689320937"><ele>346.0</ele><time>2026-04-26T10:22:45.998Z</time></trkpt><trkpt lat="45.65278315292212" lon="11.365566849041295"><ele>346.0</ele><time>2026-04-26T10:22:46.998Z</time></trkpt><trkpt lat="45.652908959762826" lon="11.365391804369592"><ele>346.0</ele><time>2026-04-26T10:22:47.998Z</time></trkpt><trkpt lat="45.65302964889582" lon="11.3651955379764"><ele>346.0</ele><time>2026-04-26T10:22:48.998Z</time></trkpt><trkpt lat="45.65317148615769" lon="11.365007878499881"><ele>346.0</ele><time>2026-04-26T10:22:49.998Z</time></trkpt><trkpt lat="45.6533021825163" lon="11.364826039463145"><ele>346.3333333333333</ele><time>2026-04-26T10:22:50.998Z</time></trkpt><trkpt lat="45.65343693039186" lon="11.364649652252035"><ele>346.6666666666667</ele><time>2026-04-26T10:22:51.998Z</time></trkpt><trkpt lat="45.6535676299772" lon="11.364497003173947"><ele>347.0</ele><time>2026-04-26T10:22:52.998Z</time></trkpt><trkpt lat="45.653702408832764" lon="11.364364119985533"><ele>347.0</ele><time>2026-04-26T10:22:53.998Z</time></trkpt><trkpt lat="45.65384486784486" lon="11.364246932001949"><ele>347.0</ele><time>2026-04-26T10:22:55Z</time></trkpt><trkpt lat="45.65398851966414" lon="11.364155047691261"><ele>347.0</ele><time>2026-04-26T10:22:56Z</time></trkpt><trkpt lat="45.6541303377423" lon="11.364067218162798"><ele>347.0</ele><time>2026-04-26T10:22:57Z</time></trkpt><trkpt lat="45.654271979808385" lon="11.363992112004064"><ele>347.0</ele><time>2026-04-26T10:22:58Z</time></trkpt><trkpt lat="45.65440516212097" lon="11.363931101754257"><ele>347.0</ele><time>2026-04-26T10:22:59Z</time></trkpt><trkpt lat="45.65452539013284" lon="11.36388234986717"><ele>347.0</ele><time>2026-04-26T10:23:00Z</time></trkpt><trkpt lat="45.65463926241134" lon="11.363836445469447"><ele>347.75</ele><time>2026-04-26T10:23:01Z</time></trkpt><trkpt lat="45.65475115990925" lon="11.363772873616258"><ele>348.5</ele><time>2026-04-26T10:23:02Z</time></trkpt><trkpt lat="45.654849838879265" lon="11.363689291837742"><ele>349.25</ele><time>2026-04-26T10:23:03Z</time></trkpt><trkpt lat="45.654924022492786" lon="11.363567467754573"><ele>350.0</ele><time>2026-04-26T10:23:04Z</time></trkpt><trkpt lat="45.654966095175034" lon="11.36341983745604"><ele>350.0</ele><time>2026-04-26T10:23:05Z</time></trkpt><trkpt lat="45.654988843283185" lon="11.363274898830854"><ele>350.0</ele><time>2026-04-26T10:23:06Z</time></trkpt><trkpt lat="45.6550237256818" lon="11.363137962206471"><ele>350.0</ele><time>2026-04-26T10:23:07Z</time></trkpt><trkpt lat="45.655023847314574" lon="11.362994956603034"><ele>350.0</ele><time>2026-04-26T10:23:08Z</time></trkpt><trkpt lat="45.65500979949832" lon="11.362862983966103"><ele>350.0</ele><time>2026-04-26T10:23:09Z</time></trkpt><trkpt lat="45.65503819958678" lon="11.362746084162014"><ele>350.0</ele><time>2026-04-26T10:23:10Z</time></trkpt><trkpt lat="45.655062038237276" lon="11.362637218044107"><ele>350.0</ele><time>2026-04-26T10:23:11Z</time></trkpt><trkpt lat="45.65510757105116" lon="11.362533426782585"><ele>350.0</ele><time>2026-04-26T10:23:12Z</time></trkpt><trkpt lat="45.65518564580241" lon="11.362451449705276"><ele>350.0</ele><time>2026-04-26T10:23:13Z</time></trkpt><trkpt lat="45.65528041006942" lon="11.362340233446808"><ele>350.0</ele><time>2026-04-26T10:23:14Z</time></trkpt><trkpt lat="45.65537162897103" lon="11.362187579549209"><ele>350.0</ele><time>2026-04-26T10:23:15Z</time></trkpt><trkpt lat="45.65547426393838" lon="11.362010514047055"><ele>350.0</ele><time>2026-04-26T10:23:16Z</time></trkpt><trkpt lat="45.65558962731219" lon="11.361809555134693"><ele>350.0</ele><time>2026-04-26T10:23:17Z</time></trkpt><trkpt lat="45.655691380556306" lon="11.361629238249282"><ele>350.0</ele><time>2026-04-26T10:23:18Z</time></trkpt><trkpt lat="45.65576989112743" lon="11.361453553529058"><ele>350.0</ele><time>2026-04-26T10:23:19Z</time></trkpt><trkpt lat="45.6558580195213" lon="11.361303220570797"><ele>350.0</ele><time>2026-04-26T10:23:20Z</time></trkpt><trkpt lat="45.655963710963675" lon="11.36116613643139"><ele>350.0</ele><time>2026-04-26T10:23:21Z</time></trkpt><trkpt lat="45.6561102022408" lon="11.361115216643924"><ele>350.25</ele><time>2026-04-26T10:23:22Z</time></trkpt><trkpt lat="45.65624287123913" lon="11.3610822784735"><ele>350.5</ele><time>2026-04-26T10:23:23Z</time></trkpt><trkpt lat="45.656363875220194" lon="11.361067965363354"><ele>350.75</ele><time>2026-04-26T10:23:24Z</time></trkpt><trkpt lat="45.65647193111216" lon="11.361169253289658"><ele>351.0</ele><time>2026-04-26T10:23:25Z</time></trkpt><trkpt lat="45.656577719373836" lon="11.361284783717462"><ele>352.0</ele><time>2026-04-26T10:23:26Z</time></trkpt><trkpt lat="45.65669923130703" lon="11.361393188473759"><ele>353.0</ele><time>2026-04-26T10:23:27Z</time></trkpt><trkpt lat="45.656815560460736" lon="11.361518127059496"><ele>354.0</ele><time>2026-04-26T10:23:28Z</time></trkpt><trkpt lat="45.65693189852104" lon="11.361643596224019"><ele>355.0</ele><time>2026-04-26T10:23:29Z</time></trkpt><trkpt lat="45.65704745993922" lon="11.36175185861253"><ele>355.0</ele><time>2026-04-26T10:23:30Z</time></trkpt><trkpt lat="45.65717831995939" lon="11.361819416873512"><ele>355.0</ele><time>2026-04-26T10:23:31Z</time></trkpt><trkpt lat="45.65731909706888" lon="11.361837501408715"><ele>355.0</ele><time>2026-04-26T10:23:32Z</time></trkpt><trkpt lat="45.65746305892969" lon="11.361813069712433"><ele>355.0</ele><time>2026-04-26T10:23:33Z</time></trkpt><trkpt lat="45.65761061347756" lon="11.361768034628366"><ele>355.0</ele><time>2026-04-26T10:23:34Z</time></trkpt><trkpt lat="45.657767175732616" lon="11.361738115152965"><ele>355.0</ele><time>2026-04-26T10:23:35Z</time></trkpt><trkpt lat="45.65793277254193" lon="11.361732587345541"><ele>355.0</ele><time>2026-04-26T10:23:36Z</time></trkpt><trkpt lat="45.65809853888663" lon="11.361755797574585"><ele>356.3333333333333</ele><time>2026-04-26T10:23:37Z</time></trkpt><trkpt lat="45.658269493661834" lon="11.361799442684156"><ele>357.6666666666667</ele><time>2026-04-26T10:23:38Z</time></trkpt><trkpt lat="45.65843720666502" lon="11.361851931161638"><ele>359.0</ele><time>2026-04-26T10:23:38.999Z</time></trkpt><trkpt lat="45.65859602270449" lon="11.361899850356622"><ele>361.33333333333337</ele><time>2026-04-26T10:23:39.999Z</time></trkpt><trkpt lat="45.658744575467736" lon="11.361944020829174"><ele>363.6666666666667</ele><time>2026-04-26T10:23:40.999Z</time></trkpt><trkpt lat="45.65890162633904" lon="11.361995655144517"><ele>366.0</ele><time>2026-04-26T10:23:41.999Z</time></trkpt><trkpt lat="45.659060241434545" lon="11.36204393467582"><ele>366.0</ele><time>2026-04-26T10:23:42.999Z</time></trkpt><trkpt lat="45.65921500354483" lon="11.362085638116257"><ele>366.0</ele><time>2026-04-26T10:23:43.999Z</time></trkpt><trkpt lat="45.65937075070248" lon="11.362121811306725"><ele>366.0</ele><time>2026-04-26T10:23:44.999Z</time></trkpt><trkpt lat="45.65951826139708" lon="11.362118092651441"><ele>368.75</ele><time>2026-04-26T10:23:45.999Z</time></trkpt><trkpt lat="45.659672147998094" lon="11.362104165714632"><ele>371.5</ele><time>2026-04-26T10:23:46.999Z</time></trkpt><trkpt lat="45.659790600468945" lon="11.362080177583575"><ele>374.25</ele><time>2026-04-26T10:23:47.999Z</time></trkpt><trkpt lat="45.659897191350744" lon="11.362097097155047"><ele>377.0</ele><time>2026-04-26T10:23:48.999Z</time></trkpt><trkpt lat="45.66000577575387" lon="11.362162889954327"><ele>376.33333333333337</ele><time>2026-04-26T10:23:49.999Z</time></trkpt><trkpt lat="45.660100617786306" lon="11.362254177759409"><ele>375.6666666666667</ele><time>2026-04-26T10:23:50.999Z</time></trkpt><trkpt lat="45.66017662048346" lon="11.362340117179409"><ele>375.0</ele><time>2026-04-26T10:23:51.999Z</time></trkpt><trkpt lat="45.66024662269296" lon="11.362423113034744"><ele>374.3333333333333</ele><time>2026-04-26T10:23:52.999Z</time></trkpt><trkpt lat="45.66029955957555" lon="11.362510874210269"><ele>373.66666666666663</ele><time>2026-04-26T10:23:53.999Z</time></trkpt><trkpt lat="45.66033982583797" lon="11.36258602477141"><ele>373.0</ele><time>2026-04-26T10:23:54.999Z</time></trkpt><trkpt lat="45.66037979141217" lon="11.362674440503765"><ele>373.0</ele><time>2026-04-26T10:23:56.999Z</time></trkpt><trkpt lat="45.66046049306825" lon="11.362493183263002"><ele>373.0</ele><time>2026-04-26T10:23:59.999Z</time></trkpt><trkpt lat="45.66044400426139" lon="11.36233717179298"><ele>373.0</ele><time>2026-04-26T10:24:01.999Z</time></trkpt><trkpt lat="45.660447202375984" lon="11.362134535094846"><ele>373.0</ele><time>2026-04-26T10:24:03.999Z</time></trkpt><trkpt lat="45.66045348569467" lon="11.362011467975746"><ele>373.8333333333333</ele><time>2026-04-26T10:24:04.999Z</time></trkpt><trkpt lat="45.66045828073049" lon="11.361881437926751"><ele>374.66666666666663</ele><time>2026-04-26T10:24:05.999Z</time></trkpt><trkpt lat="45.66045120061599" lon="11.361755700644794"><ele>375.5</ele><time>2026-04-26T10:24:06.999Z</time></trkpt><trkpt lat="45.6604613229854" lon="11.361632995816796"><ele>376.3333333333333</ele><time>2026-04-26T10:24:07.999Z</time></trkpt><trkpt lat="45.66047671964559" lon="11.36151051300812"><ele>377.1666666666667</ele><time>2026-04-26T10:24:08.999Z</time></trkpt><trkpt lat="45.66049812462106" lon="11.361386930587841"><ele>378.0</ele><time>2026-04-26T10:24:09.999Z</time></trkpt><trkpt lat="45.66052680215312" lon="11.361261492776633"><ele>378.59999999999997</ele><time>2026-04-26T10:24:10.999Z</time></trkpt><trkpt lat="45.660567871201636" lon="11.361138292763927"><ele>379.2</ele><time>2026-04-26T10:24:11.999Z</time></trkpt><trkpt lat="45.66061738893951" lon="11.361009098545939"><ele>379.8</ele><time>2026-04-26T10:24:12.999Z</time></trkpt><trkpt lat="45.66066734492082" lon="11.360866278341874"><ele>380.4</ele><time>2026-04-26T10:24:13.999Z</time></trkpt><trkpt lat="45.66072515125075" lon="11.360724656831586"><ele>381.0</ele><time>2026-04-26T10:24:14.999Z</time></trkpt><trkpt lat="45.66077743622126" lon="11.360605449552608"><ele>381.5</ele><time>2026-04-26T10:24:15.999Z</time></trkpt><trkpt lat="45.66081501374748" lon="11.360526787170288"><ele>382.0</ele><time>2026-04-26T10:24:16.999Z</time></trkpt><trkpt lat="45.6608672735673" lon="11.360447439481586"><ele>382.5</ele><time>2026-04-26T10:24:18.999Z</time></trkpt><trkpt lat="45.66094976062221" lon="11.360306757555868"><ele>383.0</ele><time>2026-04-26T10:24:20.999Z</time></trkpt><trkpt lat="45.66099860173109" lon="11.36021047039975"><ele>383.5</ele><time>2026-04-26T10:24:21.999Z</time></trkpt><trkpt lat="45.66106194974269" lon="11.360131079984884"><ele>384.0</ele><time>2026-04-26T10:24:22.999Z</time></trkpt><trkpt lat="45.66111744723506" lon="11.360028488081692"><ele>384.4</ele><time>2026-04-26T10:24:23.999Z</time></trkpt><trkpt lat="45.6611683664483" lon="11.359910329940439"><ele>384.79999999999995</ele><time>2026-04-26T10:24:24.999Z</time></trkpt><trkpt lat="45.661205691567176" lon="11.359770926135043"><ele>385.20000000000005</ele><time>2026-04-26T10:24:25.999Z</time></trkpt><trkpt lat="45.66121615845156" lon="11.359616195069123"><ele>385.6</ele><time>2026-04-26T10:24:26.999Z</time></trkpt><trkpt lat="45.66123299741157" lon="11.359451269248215"><ele>386.0</ele><time>2026-04-26T10:24:27.999Z</time></trkpt><trkpt lat="45.66124814260585" lon="11.35927996357692"><ele>388.0</ele><time>2026-04-26T10:24:28.999Z</time></trkpt><trkpt lat="45.661270015330196" lon="11.359120067531776"><ele>390.0</ele><time>2026-04-26T10:24:29.999Z</time></trkpt><trkpt lat="45.661281888856344" lon="11.35896145833639"><ele>392.0</ele><time>2026-04-26T10:24:30.999Z</time></trkpt><trkpt lat="45.661268845244635" lon="11.358803818647713"><ele>394.0</ele><time>2026-04-26T10:24:31.999Z</time></trkpt><trkpt lat="45.66124316591417" lon="11.358645427611552"><ele>394.75</ele><time>2026-04-26T10:24:32.999Z</time></trkpt><trkpt lat="45.66121242556544" lon="11.358479507912048"><ele>395.5</ele><time>2026-04-26T10:24:33.999Z</time></trkpt><trkpt lat="45.66120765334878" lon="11.358301930092948"><ele>396.25</ele><time>2026-04-26T10:24:34.999Z</time></trkpt><trkpt lat="45.66119936882756" lon="11.358144198158753"><ele>397.0</ele><time>2026-04-26T10:24:35.999Z</time></trkpt><trkpt lat="45.66119125010541" lon="11.358006273735201"><ele>398.00000000000006</ele><time>2026-04-26T10:24:36.999Z</time></trkpt><trkpt lat="45.6611806681924" lon="11.357900072687258"><ele>399.0</ele><time>2026-04-26T10:24:37.999Z</time></trkpt><trkpt lat="45.661292992839066" lon="11.357851041812722"><ele>400.0</ele><time>2026-04-26T10:24:39.998Z</time></trkpt><trkpt lat="45.66136236819327" lon="11.357830990677384"><ele>401.0</ele><time>2026-04-26T10:24:40.998Z</time></trkpt><trkpt lat="45.661425736793746" lon="11.357789819412899"><ele>402.00000000000006</ele><time>2026-04-26T10:24:41.998Z</time></trkpt><trkpt lat="45.66152502201691" lon="11.357733057341324"><ele>403.0</ele><time>2026-04-26T10:24:43.998Z</time></trkpt><trkpt lat="45.66151081755548" lon="11.357545651716404"><ele>403.00000000000006</ele><time>2026-04-26T10:24:45.998Z</time></trkpt><trkpt lat="45.661506948574015" lon="11.357451136683789"><ele>403.0</ele><time>2026-04-26T10:24:46.998Z</time></trkpt><trkpt lat="45.661519995653826" lon="11.357343533801515"><ele>403.0</ele><time>2026-04-26T10:24:47.998Z</time></trkpt><trkpt lat="45.6615444867729" lon="11.357225673422372"><ele>403.0</ele><time>2026-04-26T10:24:48.998Z</time></trkpt><trkpt lat="45.66157950288363" lon="11.357106634977919"><ele>403.00000000000006</ele><time>2026-04-26T10:24:49.998Z</time></trkpt><trkpt lat="45.6616210631974" lon="11.356966777793346"><ele>403.0</ele><time>2026-04-26T10:24:50.998Z</time></trkpt><trkpt lat="45.66164843920176" lon="11.356819592304538"><ele>403.59999999999997</ele><time>2026-04-26T10:24:51.998Z</time></trkpt><trkpt lat="45.66166947391264" lon="11.356682595465323"><ele>404.2</ele><time>2026-04-26T10:24:52.998Z</time></trkpt><trkpt lat="45.66168966537938" lon="11.356547210275556"><ele>404.8</ele><time>2026-04-26T10:24:53.998Z</time></trkpt><trkpt lat="45.661715883119065" lon="11.35641750178284"><ele>405.4</ele><time>2026-04-26T10:24:54.998Z</time></trkpt><trkpt lat="45.661746364248614" lon="11.356295046583599"><ele>406.0</ele><time>2026-04-26T10:24:55.998Z</time></trkpt><trkpt lat="45.661772235160406" lon="11.356161584105722"><ele>406.20000000000005</ele><time>2026-04-26T10:24:56.998Z</time></trkpt><trkpt lat="45.66179440968536" lon="11.356026157128975"><ele>406.40000000000003</ele><time>2026-04-26T10:24:57.998Z</time></trkpt><trkpt lat="45.66175929017121" lon="11.355872261266482"><ele>406.6</ele><time>2026-04-26T10:24:58.998Z</time></trkpt><trkpt lat="45.661736630605986" lon="11.355726245680842"><ele>406.8</ele><time>2026-04-26T10:24:59.998Z</time></trkpt><trkpt lat="45.66171904987201" lon="11.355566933639071"><ele>407.0</ele><time>2026-04-26T10:25:01Z</time></trkpt><trkpt lat="45.66168554606103" lon="11.355403844358271"><ele>407.25</ele><time>2026-04-26T10:25:02Z</time></trkpt><trkpt lat="45.66166365619437" lon="11.3552317894473"><ele>407.5</ele><time>2026-04-26T10:25:03Z</time></trkpt><trkpt lat="45.66164368626578" lon="11.355048021128725"><ele>407.75</ele><time>2026-04-26T10:25:04Z</time></trkpt><trkpt lat="45.66162703829102" lon="11.354858630326195"><ele>408.0</ele><time>2026-04-26T10:25:05Z</time></trkpt><trkpt lat="45.66160777142713" lon="11.354654068878142"><ele>408.5</ele><time>2026-04-26T10:25:06Z</time></trkpt><trkpt lat="45.661581342129274" lon="11.354446135669612"><ele>409.0</ele><time>2026-04-26T10:25:07Z</time></trkpt><trkpt lat="45.661541768022914" lon="11.354243608327243"><ele>409.5</ele><time>2026-04-26T10:25:08Z</time></trkpt><trkpt lat="45.661504899806" lon="11.354042822867141"><ele>410.0</ele><time>2026-04-26T10:25:09Z</time></trkpt><trkpt lat="45.66147158326721" lon="11.353846328852482"><ele>410.5</ele><time>2026-04-26T10:25:10Z</time></trkpt><trkpt lat="45.66144998823616" lon="11.353670492839193"><ele>411.0</ele><time>2026-04-26T10:25:11Z</time></trkpt><trkpt lat="45.66144414387724" lon="11.35351230070697"><ele>411.5</ele><time>2026-04-26T10:25:12Z</time></trkpt><trkpt lat="45.661446943873756" lon="11.353350647258948"><ele>412.0</ele><time>2026-04-26T10:25:13Z</time></trkpt><trkpt lat="45.66144207079898" lon="11.353197202366383"><ele>412.0</ele><time>2026-04-26T10:25:14Z</time></trkpt><trkpt lat="45.661459557285106" lon="11.353064742855455"><ele>412.0</ele><time>2026-04-26T10:25:15Z</time></trkpt><trkpt lat="45.66157176057758" lon="11.352974425430455"><ele>412.0</ele><time>2026-04-26T10:25:16Z</time></trkpt><trkpt lat="45.661654617714596" lon="11.352880585317953"><ele>412.0</ele><time>2026-04-26T10:25:17Z</time></trkpt><trkpt lat="45.661753955146004" lon="11.352791189774203"><ele>412.0</ele><time>2026-04-26T10:25:18Z</time></trkpt><trkpt lat="45.66186293818015" lon="11.352691321628683"><ele>412.5</ele><time>2026-04-26T10:25:19Z</time></trkpt><trkpt lat="45.661975113358125" lon="11.35258766277056"><ele>413.0</ele><time>2026-04-26T10:25:20Z</time></trkpt><trkpt lat="45.66209470774226" lon="11.352477147919455"><ele>413.5</ele><time>2026-04-26T10:25:21Z</time></trkpt><trkpt lat="45.66221714770465" lon="11.35236401699716"><ele>414.0</ele><time>2026-04-26T10:25:22Z</time></trkpt><trkpt lat="45.662341400531936" lon="11.352249146273111"><ele>414.75</ele><time>2026-04-26T10:25:23Z</time></trkpt><trkpt lat="45.66246006636395" lon="11.352139197600811"><ele>415.5</ele><time>2026-04-26T10:25:24Z</time></trkpt><trkpt lat="45.66257006574347" lon="11.352038517319155"><ele>416.25</ele><time>2026-04-26T10:25:25Z</time></trkpt><trkpt lat="45.66267528812096" lon="11.351951046869614"><ele>417.0</ele><time>2026-04-26T10:25:26Z</time></trkpt><trkpt lat="45.66277621228358" lon="11.35189603978866"><ele>416.5</ele><time>2026-04-26T10:25:27Z</time></trkpt><trkpt lat="45.66289056940817" lon="11.351890811638004"><ele>416.0</ele><time>2026-04-26T10:25:28Z</time></trkpt><trkpt lat="45.663024756235735" lon="11.35190562674879"><ele>415.5</ele><time>2026-04-26T10:25:29Z</time></trkpt><trkpt lat="45.66315761653171" lon="11.35193191248446"><ele>415.0</ele><time>2026-04-26T10:25:30Z</time></trkpt><trkpt lat="45.66330722456649" lon="11.351929256151056"><ele>415.0</ele><time>2026-04-26T10:25:31Z</time></trkpt><trkpt lat="45.663465615538676" lon="11.351895523226784"><ele>415.0</ele><time>2026-04-26T10:25:32Z</time></trkpt><trkpt lat="45.663642557969744" lon="11.35184921787752"><ele>415.0</ele><time>2026-04-26T10:25:33Z</time></trkpt><trkpt lat="45.66383749563884" lon="11.35180362961915"><ele>414.5</ele><time>2026-04-26T10:25:34Z</time></trkpt><trkpt lat="45.66400309866033" lon="11.351771653438"><ele>414.0</ele><time>2026-04-26T10:25:35Z</time></trkpt><trkpt lat="45.66410885712367" lon="11.351767185309189"><ele>413.5</ele><time>2026-04-26T10:25:36Z</time></trkpt><trkpt lat="45.6642493593111" lon="11.351718129468663"><ele>413.0</ele><time>2026-04-26T10:25:37Z</time></trkpt><trkpt lat="45.66439054077186" lon="11.351695913088049"><ele>413.5</ele><time>2026-04-26T10:25:38Z</time></trkpt><trkpt lat="45.66452148384724" lon="11.351669648352095"><ele>414.0</ele><time>2026-04-26T10:25:39Z</time></trkpt><trkpt lat="45.664642707419944" lon="11.35165884732101"><ele>414.5</ele><time>2026-04-26T10:25:40Z</time></trkpt><trkpt lat="45.664773435125305" lon="11.351693844694173"><ele>415.0</ele><time>2026-04-26T10:25:41Z</time></trkpt><trkpt lat="45.664909296280825" lon="11.351772922649332"><ele>415.0</ele><time>2026-04-26T10:25:42Z</time></trkpt><trkpt lat="45.6650511289234" lon="11.35186136067673"><ele>415.0</ele><time>2026-04-26T10:25:43Z</time></trkpt><trkpt lat="45.66518452118469" lon="11.351933434999392"><ele>415.0</ele><time>2026-04-26T10:25:44Z</time></trkpt><trkpt lat="45.6652782564861" lon="11.351979488322085"><ele>415.0</ele><time>2026-04-26T10:25:45Z</time></trkpt><trkpt lat="45.665372400392535" lon="11.352043293234955"><ele>421.0</ele><time>2026-04-26T10:25:47Z</time></trkpt><trkpt lat="45.66577123422812" lon="11.352195048813059"><ele>427.0</ele><time>2026-04-26T10:25:48Z</time></trkpt><trkpt lat="45.66593783430021" lon="11.35219677179022"><ele>427.33333333333337</ele><time>2026-04-26T10:25:49Z</time></trkpt><trkpt lat="45.666116966713524" lon="11.352188990966496"><ele>427.66666666666663</ele><time>2026-04-26T10:25:50Z</time></trkpt><trkpt lat="45.66630608198089" lon="11.35219696538603"><ele>428.0</ele><time>2026-04-26T10:25:51Z</time></trkpt><trkpt lat="45.666498668041555" lon="11.352265203456179"><ele>425.0</ele><time>2026-04-26T10:25:52Z</time></trkpt><trkpt lat="45.666695453386986" lon="11.352319116789216"><ele>422.0</ele><time>2026-04-26T10:25:53Z</time></trkpt><trkpt lat="45.66688178565752" lon="11.352370166292308"><ele>419.0</ele><time>2026-04-26T10:25:54Z</time></trkpt><trkpt lat="45.66706307291762" lon="11.352395783974002"><ele>419.0</ele><time>2026-04-26T10:25:54.999Z</time></trkpt><trkpt lat="45.667213390053696" lon="11.352487391723736"><ele>419.0</ele><time>2026-04-26T10:25:55.999Z</time></trkpt><trkpt lat="45.667335088630026" lon="11.35260259497055"><ele>419.0</ele><time>2026-04-26T10:25:56.999Z</time></trkpt><trkpt lat="45.66744285872936" lon="11.352729646621631"><ele>419.0</ele><time>2026-04-26T10:25:57.999Z</time></trkpt><trkpt lat="45.66754457645067" lon="11.352886521117915"><ele>422.3333333333333</ele><time>2026-04-26T10:25:58.999Z</time></trkpt><trkpt lat="45.66765277154757" lon="11.35306313154122"><ele>425.66666666666663</ele><time>2026-04-26T10:25:59.999Z</time></trkpt><trkpt lat="45.667764986340714" lon="11.353251485606178"><ele>429.0</ele><time>2026-04-26T10:26:00.999Z</time></trkpt><trkpt lat="45.66787999344797" lon="11.353446629177437"><ele>429.0</ele><time>2026-04-26T10:26:01.999Z</time></trkpt><trkpt lat="45.66798971941465" lon="11.353632808574627"><ele>429.0</ele><time>2026-04-26T10:26:02.999Z</time></trkpt><trkpt lat="45.668090094981146" lon="11.353791621199617"><ele>429.0</ele><time>2026-04-26T10:26:03.999Z</time></trkpt><trkpt lat="45.6681706187793" lon="11.353938699345772"><ele>425.79999999999995</ele><time>2026-04-26T10:26:04.999Z</time></trkpt><trkpt lat="45.668234959699504" lon="11.354062632100199"><ele>422.59999999999997</ele><time>2026-04-26T10:26:05.999Z</time></trkpt><trkpt lat="45.66829043408739" lon="11.354168361410185"><ele>419.4</ele><time>2026-04-26T10:26:06.999Z</time></trkpt><trkpt lat="45.668342273307815" lon="11.354263597528831"><ele>416.2</ele><time>2026-04-26T10:26:07.999Z</time></trkpt><trkpt lat="45.668409590898634" lon="11.354344230406811"><ele>413.0</ele><time>2026-04-26T10:26:08.999Z</time></trkpt><trkpt lat="45.66851195307693" lon="11.354389258206973"><ele>415.25</ele><time>2026-04-26T10:26:09.999Z</time></trkpt><trkpt lat="45.66864092950915" lon="11.354416521474038"><ele>417.5</ele><time>2026-04-26T10:26:10.999Z</time></trkpt><trkpt lat="45.66878663816863" lon="11.354420752415194"><ele>419.75</ele><time>2026-04-26T10:26:11.999Z</time></trkpt><trkpt lat="45.6688915226572" lon="11.354352741990274"><ele>422.0</ele><time>2026-04-26T10:26:12.999Z</time></trkpt><trkpt lat="45.66901911983179" lon="11.354250796047136"><ele>422.0</ele><time>2026-04-26T10:26:13.999Z</time></trkpt><trkpt lat="45.669149415661906" lon="11.354160438330908"><ele>422.0</ele><time>2026-04-26T10:26:14.999Z</time></trkpt><trkpt lat="45.66925820664331" lon="11.354101307599539"><ele>422.0</ele><time>2026-04-26T10:26:15.999Z</time></trkpt><trkpt lat="45.66935539178013" lon="11.354050669920685"><ele>422.0</ele><time>2026-04-26T10:26:16.999Z</time></trkpt><trkpt lat="45.669444097651855" lon="11.353967087136766"><ele>422.25</ele><time>2026-04-26T10:26:17.999Z</time></trkpt><trkpt lat="45.66949609172453" lon="11.353830516423884"><ele>422.5</ele><time>2026-04-26T10:26:18.999Z</time></trkpt><trkpt lat="45.669514125888526" lon="11.353652422806961"><ele>422.75</ele><time>2026-04-26T10:26:19.999Z</time></trkpt><trkpt lat="45.66954250517762" lon="11.353484779301816"><ele>423.0</ele><time>2026-04-26T10:26:20.999Z</time></trkpt><trkpt lat="45.66961763918777" lon="11.353341954684131"><ele>423.0</ele><time>2026-04-26T10:26:21.999Z</time></trkpt><trkpt lat="45.66973270219749" lon="11.353276963406307"><ele>423.0</ele><time>2026-04-26T10:26:22.999Z</time></trkpt><trkpt lat="45.66985499186008" lon="11.353179410634493"><ele>423.0</ele><time>2026-04-26T10:26:23.999Z</time></trkpt><trkpt lat="45.66993025005204" lon="11.35302577062717"><ele>423.0</ele><time>2026-04-26T10:26:24.999Z</time></trkpt><trkpt lat="45.66997663063415" lon="11.35284156689034"><ele>423.2</ele><time>2026-04-26T10:26:25.999Z</time></trkpt><trkpt lat="45.670005634035356" lon="11.352667460410022"><ele>423.4</ele><time>2026-04-26T10:26:26.999Z</time></trkpt><trkpt lat="45.67005153339351" lon="11.3525390129674"><ele>423.59999999999997</ele><time>2026-04-26T10:26:27.999Z</time></trkpt><trkpt lat="45.67006348769905" lon="11.352388781250868"><ele>423.79999999999995</ele><time>2026-04-26T10:26:28.999Z</time></trkpt><trkpt lat="45.67007803257256" lon="11.352248606056794"><ele>424.0</ele><time>2026-04-26T10:26:29.999Z</time></trkpt><trkpt lat="45.67006256545209" lon="11.352114769174907"><ele>424.0</ele><time>2026-04-26T10:26:30.999Z</time></trkpt><trkpt lat="45.67001180445181" lon="11.351990736317429"><ele>424.0</ele><time>2026-04-26T10:26:31.999Z</time></trkpt><trkpt lat="45.66993524101827" lon="11.351896869036747"><ele>424.0</ele><time>2026-04-26T10:26:32.999Z</time></trkpt><trkpt lat="45.669831611185806" lon="11.351827957388146"><ele>424.0</ele><time>2026-04-26T10:26:33.999Z</time></trkpt><trkpt lat="45.66973259210215" lon="11.351738537778472"><ele>424.0</ele><time>2026-04-26T10:26:34.999Z</time></trkpt><trkpt lat="45.66963525178308" lon="11.351636538368565"><ele>424.0</ele><time>2026-04-26T10:26:35.999Z</time></trkpt><trkpt lat="45.669546798721896" lon="11.351539677323135"><ele>424.0</ele><time>2026-04-26T10:26:36.999Z</time></trkpt><trkpt lat="45.66947263448006" lon="11.351454057485153"><ele>424.0</ele><time>2026-04-26T10:26:37.999Z</time></trkpt><trkpt lat="45.66941511797086" lon="11.351357137581639"><ele>424.0</ele><time>2026-04-26T10:26:38.999Z</time></trkpt><trkpt lat="45.66938333628632" lon="11.351232248830618"><ele>424.0</ele><time>2026-04-26T10:26:39.999Z</time></trkpt><trkpt lat="45.669358895756915" lon="11.351101543001272"><ele>428.79999999999995</ele><time>2026-04-26T10:26:40.999Z</time></trkpt><trkpt lat="45.66935619497073" lon="11.350968713346228"><ele>433.59999999999997</ele><time>2026-04-26T10:26:41.999Z</time></trkpt><trkpt lat="45.66935773265424" lon="11.350841907384504"><ele>438.4</ele><time>2026-04-26T10:26:42.999Z</time></trkpt><trkpt lat="45.66935927129559" lon="11.350715520871848"><ele>443.2</ele><time>2026-04-26T10:26:43.999Z</time></trkpt><trkpt lat="45.669383685968654" lon="11.350582298410876"><ele>448.0</ele><time>2026-04-26T10:26:44.999Z</time></trkpt><trkpt lat="45.66942980157391" lon="11.350472785101394"><ele>448.00000000000006</ele><time>2026-04-26T10:26:45.999Z</time></trkpt><trkpt lat="45.669447467072914" lon="11.350380475801627"><ele>448.0</ele><time>2026-04-26T10:26:46.999Z</time></trkpt><trkpt lat="45.66942534457937" lon="11.350488236010237"><ele>448.0</ele><time>2026-04-26T10:27:02.998Z</time></trkpt><trkpt lat="45.66938842995949" lon="11.350613402589603"><ele>448.0</ele><time>2026-04-26T10:27:03.998Z</time></trkpt><trkpt lat="45.66935412586062" lon="11.350740998645575"><ele>448.00000000000006</ele><time>2026-04-26T10:27:04.998Z</time></trkpt><trkpt lat="45.66933870884159" lon="11.350876224891064"><ele>448.0</ele><time>2026-04-26T10:27:05.998Z</time></trkpt><trkpt lat="45.669342732089866" lon="11.351019694443485"><ele>448.0</ele><time>2026-04-26T10:27:07Z</time></trkpt><trkpt lat="45.669354171493275" lon="11.35116254645864"><ele>447.99999999999994</ele><time>2026-04-26T10:27:08Z</time></trkpt><trkpt lat="45.66938040718447" lon="11.351301532858674"><ele>447.99999999999994</ele><time>2026-04-26T10:27:09Z</time></trkpt><trkpt lat="45.669430345600574" lon="11.351427242420028"><ele>448.0</ele><time>2026-04-26T10:27:10Z</time></trkpt><trkpt lat="45.66951591341247" lon="11.351525563168378"><ele>448.0</ele><time>2026-04-26T10:27:11Z</time></trkpt><trkpt lat="45.66959773544686" lon="11.351637239679354"><ele>443.2</ele><time>2026-04-26T10:27:12Z</time></trkpt><trkpt lat="45.669678588022656" lon="11.351719437662958"><ele>438.4</ele><time>2026-04-26T10:27:13Z</time></trkpt><trkpt lat="45.66976615685446" lon="11.351804917664529"><ele>433.59999999999997</ele><time>2026-04-26T10:27:14Z</time></trkpt><trkpt lat="45.66984607772674" lon="11.351884461359957"><ele>428.79999999999995</ele><time>2026-04-26T10:27:15Z</time></trkpt><trkpt lat="45.669912691980024" lon="11.351960996596898"><ele>424.0</ele><time>2026-04-26T10:27:16Z</time></trkpt><trkpt lat="45.66997303620817" lon="11.352039263652037"><ele>424.0</ele><time>2026-04-26T10:27:17Z</time></trkpt><trkpt lat="45.67001998173226" lon="11.352115067299488"><ele>424.0</ele><time>2026-04-26T10:27:18Z</time></trkpt><trkpt lat="45.67005424857076" lon="11.352199089788447"><ele>424.0</ele><time>2026-04-26T10:27:19Z</time></trkpt><trkpt lat="45.670048607983226" lon="11.352366798692525"><ele>424.0</ele><time>2026-04-26T10:27:21Z</time></trkpt><trkpt lat="45.67002963848723" lon="11.352494310174983"><ele>424.0</ele><time>2026-04-26T10:27:23Z</time></trkpt><trkpt lat="45.67016860496586" lon="11.352504319977909"><ele>424.0</ele><time>2026-04-26T10:27:27Z</time></trkpt><trkpt lat="45.67016613541186" lon="11.352358038393096"><ele>424.0</ele><time>2026-04-26T10:27:28Z</time></trkpt><trkpt lat="45.670195617006314" lon="11.352200973299828"><ele>424.0</ele><time>2026-04-26T10:27:30Z</time></trkpt><trkpt lat="45.670160484613696" lon="11.352063267498997"><ele>424.0</ele><time>2026-04-26T10:27:32Z</time></trkpt><trkpt lat="45.67014261065237" lon="11.351944742845104"><ele>424.0</ele><time>2026-04-26T10:27:34Z</time></trkpt><trkpt lat="45.67015095648642" lon="11.351853194395298"><ele>424.0</ele><time>2026-04-26T10:27:36Z</time></trkpt><trkpt lat="45.67024440741171" lon="11.351907399456934"><ele>424.0</ele><time>2026-04-26T10:27:39Z</time></trkpt><trkpt lat="45.670282414223976" lon="11.352001155389127"><ele>424.0</ele><time>2026-04-26T10:27:40Z</time></trkpt><trkpt lat="45.67029227223831" lon="11.35214123860326"><ele>424.0</ele><time>2026-04-26T10:27:41Z</time></trkpt><trkpt lat="45.67030379674836" lon="11.352284913827694"><ele>424.0</ele><time>2026-04-26T10:27:42Z</time></trkpt><trkpt lat="45.67030609161006" lon="11.352412453416537"><ele>421.0</ele><time>2026-04-26T10:27:43Z</time></trkpt><trkpt lat="45.670310817152064" lon="11.352509727573404"><ele>418.0</ele><time>2026-04-26T10:27:44Z</time></trkpt><trkpt lat="45.67036734264551" lon="11.352626396319003"><ele>415.0</ele><time>2026-04-26T10:27:46Z</time></trkpt><trkpt lat="45.67045228498397" lon="11.352634662180598"><ele>412.0</ele><time>2026-04-26T10:27:47Z</time></trkpt><trkpt lat="45.670537452079735" lon="11.352542449258682"><ele>409.0</ele><time>2026-04-26T10:27:48Z</time></trkpt><trkpt lat="45.67059645059594" lon="11.35243358086397"><ele>409.0</ele><time>2026-04-26T10:27:49Z</time></trkpt><trkpt lat="45.670682122230964" lon="11.352356650485602"><ele>409.0</ele><time>2026-04-26T10:27:50Z</time></trkpt><trkpt lat="45.67074968879529" lon="11.352250191978216"><ele>409.0</ele><time>2026-04-26T10:27:51Z</time></trkpt><trkpt lat="45.670803446947495" lon="11.352124129936795"><ele>409.0</ele><time>2026-04-26T10:27:52Z</time></trkpt><trkpt lat="45.67079424988655" lon="11.35194868775664"><ele>409.0</ele><time>2026-04-26T10:27:53Z</time></trkpt><trkpt lat="45.6707775192223" lon="11.351775811158474"><ele>408.0</ele><time>2026-04-26T10:27:54Z</time></trkpt><trkpt lat="45.67078211239223" lon="11.351586754042794"><ele>407.0</ele><time>2026-04-26T10:27:55Z</time></trkpt><trkpt lat="45.67077658000116" lon="11.351395261746488"><ele>406.0</ele><time>2026-04-26T10:27:55.999Z</time></trkpt><trkpt lat="45.67076978546896" lon="11.351210207040296"><ele>405.0</ele><time>2026-04-26T10:27:56.999Z</time></trkpt><trkpt lat="45.67076006032026" lon="11.351037081599138"><ele>404.8</ele><time>2026-04-26T10:27:57.999Z</time></trkpt><trkpt lat="45.67074966585904" lon="11.350872759149814"><ele>404.6</ele><time>2026-04-26T10:27:58.999Z</time></trkpt><trkpt lat="45.670749190694586" lon="11.350713758815989"><ele>404.4</ele><time>2026-04-26T10:27:59.999Z</time></trkpt><trkpt lat="45.67077138156824" lon="11.350564312450802"><ele>404.2</ele><time>2026-04-26T10:28:00.999Z</time></trkpt><trkpt lat="45.67082417599954" lon="11.350432073394822"><ele>404.0</ele><time>2026-04-26T10:28:01.999Z</time></trkpt><trkpt lat="45.67086882141812" lon="11.350283648099007"><ele>404.0</ele><time>2026-04-26T10:28:02.999Z</time></trkpt><trkpt lat="45.67089093541102" lon="11.350135138534936"><ele>404.0</ele><time>2026-04-26T10:28:03.999Z</time></trkpt><trkpt lat="45.670939413452686" lon="11.350009710071294"><ele>404.0</ele><time>2026-04-26T10:28:04.999Z</time></trkpt><trkpt lat="45.670973499986026" lon="11.349874403940593"><ele>404.0</ele><time>2026-04-26T10:28:05.999Z</time></trkpt><trkpt lat="45.67100900908417" lon="11.349742148104045"><ele>404.0</ele><time>2026-04-26T10:28:06.999Z</time></trkpt><trkpt lat="45.671057543002604" lon="11.349636513633218"><ele>402.4</ele><time>2026-04-26T10:28:07.999Z</time></trkpt><trkpt lat="45.671121283000076" lon="11.349555027347588"><ele>400.79999999999995</ele><time>2026-04-26T10:28:08.999Z</time></trkpt><trkpt lat="45.6712003193227" lon="11.349516364689634"><ele>399.20000000000005</ele><time>2026-04-26T10:28:09.999Z</time></trkpt><trkpt lat="45.67129287769372" lon="11.349467890300051"><ele>397.6</ele><time>2026-04-26T10:28:10.999Z</time></trkpt><trkpt lat="45.67139040559996" lon="11.349419869346209"><ele>396.0</ele><time>2026-04-26T10:28:11.999Z</time></trkpt><trkpt lat="45.671472632893554" lon="11.349377365820661"><ele>396.0</ele><time>2026-04-26T10:28:12.999Z</time></trkpt><trkpt lat="45.67153906708782" lon="11.349342769874692"><ele>396.0</ele><time>2026-04-26T10:28:13.999Z</time></trkpt><trkpt lat="45.671619270636164" lon="11.34930777299215"><ele>396.0</ele><time>2026-04-26T10:28:15.999Z</time></trkpt><trkpt lat="45.67165370719005" lon="11.349393730294791"><ele>396.0</ele><time>2026-04-26T10:28:18.999Z</time></trkpt><trkpt lat="45.67161481651905" lon="11.349583099306653"><ele>396.0</ele><time>2026-04-26T10:28:20.999Z</time></trkpt><trkpt lat="45.67160157873402" lon="11.349709025664767"><ele>395.20000000000005</ele><time>2026-04-26T10:28:21.999Z</time></trkpt><trkpt lat="45.671608563426574" lon="11.349828273566049"><ele>394.40000000000003</ele><time>2026-04-26T10:28:22.999Z</time></trkpt><trkpt lat="45.67162662749484" lon="11.349953082277512"><ele>393.6</ele><time>2026-04-26T10:28:23.999Z</time></trkpt><trkpt lat="45.67166524739244" lon="11.350075006337503"><ele>392.8</ele><time>2026-04-26T10:28:24.999Z</time></trkpt><trkpt lat="45.671723612101445" lon="11.350178057080537"><ele>392.0</ele><time>2026-04-26T10:28:25.999Z</time></trkpt><trkpt lat="45.67181530570242" lon="11.350246699740083"><ele>392.0</ele><time>2026-04-26T10:28:26.999Z</time></trkpt><trkpt lat="45.67192546661633" lon="11.350300239245394"><ele>392.0</ele><time>2026-04-26T10:28:27.999Z</time></trkpt><trkpt lat="45.672039086526205" lon="11.350383229012907"><ele>392.0</ele><time>2026-04-26T10:28:28.999Z</time></trkpt><trkpt lat="45.67214418642912" lon="11.350467167273653"><ele>392.0</ele><time>2026-04-26T10:28:29.999Z</time></trkpt><trkpt lat="45.67224873013711" lon="11.350538612373189"><ele>387.6</ele><time>2026-04-26T10:28:30.999Z</time></trkpt><trkpt lat="45.672342308444335" lon="11.35060888936441"><ele>383.20000000000005</ele><time>2026-04-26T10:28:31.999Z</time></trkpt><trkpt lat="45.67243473033049" lon="11.350669727672889"><ele>378.8</ele><time>2026-04-26T10:28:32.999Z</time></trkpt><trkpt lat="45.67253140790455" lon="11.350709950253856"><ele>374.4</ele><time>2026-04-26T10:28:33.999Z</time></trkpt><trkpt lat="45.6726361189614" lon="11.350733685708722"><ele>370.0</ele><time>2026-04-26T10:28:34.999Z</time></trkpt><trkpt lat="45.67273551172605" lon="11.350759092954464"><ele>368.0</ele><time>2026-04-26T10:28:35.999Z</time></trkpt><trkpt lat="45.67283472385768" lon="11.350782268281081"><ele>366.0</ele><time>2026-04-26T10:28:36.999Z</time></trkpt><trkpt lat="45.67293667225537" lon="11.350813056285329"><ele>364.0</ele><time>2026-04-26T10:28:37.999Z</time></trkpt><trkpt lat="45.67303294589311" lon="11.350864317650744"><ele>362.0</ele><time>2026-04-26T10:28:38.999Z</time></trkpt><trkpt lat="45.67312244711071" lon="11.350910029621236"><ele>360.0</ele><time>2026-04-26T10:28:39.999Z</time></trkpt><trkpt lat="45.673212879958285" lon="11.350950087253837"><ele>360.0</ele><time>2026-04-26T10:28:40.999Z</time></trkpt><trkpt lat="45.67327101924912" lon="11.351039208063915"><ele>360.0</ele><time>2026-04-26T10:28:41.999Z</time></trkpt><trkpt lat="45.67330747058866" lon="11.351131413152437"><ele>360.0</ele><time>2026-04-26T10:28:42.999Z</time></trkpt><trkpt lat="45.67331338076589" lon="11.35122770218993"><ele>360.0</ele><time>2026-04-26T10:28:43.999Z</time></trkpt><trkpt lat="45.67329332195438" lon="11.351327404123346"><ele>360.0</ele><time>2026-04-26T10:28:44.999Z</time></trkpt><trkpt lat="45.673261447009104" lon="11.35143956490945"><ele>360.0</ele><time>2026-04-26T10:28:45.999Z</time></trkpt><trkpt lat="45.6732211222533" lon="11.351558795286865"><ele>358.6666666666667</ele><time>2026-04-26T10:28:46.999Z</time></trkpt><trkpt lat="45.673185478423804" lon="11.351659273439948"><ele>357.3333333333333</ele><time>2026-04-26T10:28:47.999Z</time></trkpt><trkpt lat="45.67316881764642" lon="11.351751526172256"><ele>356.0</ele><time>2026-04-26T10:28:48.999Z</time></trkpt><trkpt lat="45.673195832379996" lon="11.351870237510113"><ele>354.66666666666663</ele><time>2026-04-26T10:28:50.999Z</time></trkpt><trkpt lat="45.67329613756181" lon="11.351875054258352"><ele>353.3333333333333</ele><time>2026-04-26T10:28:51.999Z</time></trkpt><trkpt lat="45.673367487079865" lon="11.351820496937558"><ele>352.0</ele><time>2026-04-26T10:28:52.999Z</time></trkpt><trkpt lat="45.67341521222059" lon="11.35171730043981"><ele>352.0</ele><time>2026-04-26T10:28:53.999Z</time></trkpt><trkpt lat="45.67349458120733" lon="11.351650149101259"><ele>352.0</ele><time>2026-04-26T10:28:54.999Z</time></trkpt><trkpt lat="45.673572600259526" lon="11.351559243496546"><ele>352.0</ele><time>2026-04-26T10:28:55.998Z</time></trkpt><trkpt lat="45.67365121285372" lon="11.351462261468754"><ele>352.0</ele><time>2026-04-26T10:28:56.998Z</time></trkpt><trkpt lat="45.67372818258906" lon="11.351375018758516"><ele>352.0</ele><time>2026-04-26T10:28:57.998Z</time></trkpt><trkpt lat="45.67378703608786" lon="11.351287177355418"><ele>350.0</ele><time>2026-04-26T10:28:58.998Z</time></trkpt><trkpt lat="45.67384298974353" lon="11.351202107052586"><ele>348.0</ele><time>2026-04-26T10:28:59.998Z</time></trkpt><trkpt lat="45.673868106596295" lon="11.351079438201207"><ele>346.0</ele><time>2026-04-26T10:29:00.998Z</time></trkpt><trkpt lat="45.67386416761391" lon="11.35092893755938"><ele>344.0</ele><time>2026-04-26T10:29:01.998Z</time></trkpt><trkpt lat="45.6738925276962" lon="11.350781083186568"><ele>342.0</ele><time>2026-04-26T10:29:02.998Z</time></trkpt><trkpt lat="45.67392958345956" lon="11.350664707889274"><ele>342.0</ele><time>2026-04-26T10:29:03.998Z</time></trkpt><trkpt lat="45.67397260669405" lon="11.350548156639269"><ele>342.0</ele><time>2026-04-26T10:29:04.998Z</time></trkpt><trkpt lat="45.67402279314118" lon="11.350454173604263"><ele>342.0</ele><time>2026-04-26T10:29:05.998Z</time></trkpt><trkpt lat="45.674078780392314" lon="11.350380441979476"><ele>342.0</ele><time>2026-04-26T10:29:06.998Z</time></trkpt><trkpt lat="45.674130731297595" lon="11.350329500330561"><ele>342.0</ele><time>2026-04-26T10:29:07.998Z</time></trkpt><trkpt lat="45.67425109470407" lon="11.350330441564232"><ele>342.0</ele><time>2026-04-26T10:29:09.998Z</time></trkpt><trkpt lat="45.67432570361719" lon="11.350405034528128"><ele>343.0</ele><time>2026-04-26T10:29:10.998Z</time></trkpt><trkpt lat="45.674406626516536" lon="11.350477362778728"><ele>344.0</ele><time>2026-04-26T10:29:11.998Z</time></trkpt><trkpt lat="45.67448422822503" lon="11.350535273611358"><ele>345.0</ele><time>2026-04-26T10:29:13Z</time></trkpt><trkpt lat="45.6745576886262" lon="11.350604427509738"><ele>346.0</ele><time>2026-04-26T10:29:14Z</time></trkpt><trkpt lat="45.674620543153985" lon="11.350672488511394"><ele>347.0</ele><time>2026-04-26T10:29:15Z</time></trkpt><trkpt lat="45.67467831918661" lon="11.35075214348453"><ele>348.0</ele><time>2026-04-26T10:29:16Z</time></trkpt><trkpt lat="45.67471928302449" lon="11.350842697328417"><ele>344.4</ele><time>2026-04-26T10:29:17Z</time></trkpt><trkpt lat="45.67476186783502" lon="11.350965523964422"><ele>340.79999999999995</ele><time>2026-04-26T10:29:19Z</time></trkpt><trkpt lat="45.67468673306459" lon="11.351091901483887"><ele>337.2</ele><time>2026-04-26T10:29:22Z</time></trkpt><trkpt lat="45.674604068852005" lon="11.351101898713857"><ele>333.6</ele><time>2026-04-26T10:29:23Z</time></trkpt><trkpt lat="45.674527564496685" lon="11.351119096375664"><ele>330.0</ele><time>2026-04-26T10:29:24Z</time></trkpt><trkpt lat="45.6744474068663" lon="11.351149026201211"><ele>331.1666666666667</ele><time>2026-04-26T10:29:25Z</time></trkpt><trkpt lat="45.67437387570836" lon="11.35121800597166"><ele>332.3333333333333</ele><time>2026-04-26T10:29:26Z</time></trkpt><trkpt lat="45.67431480766059" lon="11.351306504214765"><ele>333.5</ele><time>2026-04-26T10:29:27Z</time></trkpt><trkpt lat="45.674271407749785" lon="11.351406254642267"><ele>334.66666666666663</ele><time>2026-04-26T10:29:28Z</time></trkpt><trkpt lat="45.674250306521905" lon="11.351522427069566"><ele>335.8333333333333</ele><time>2026-04-26T10:29:29Z</time></trkpt><trkpt lat="45.67425801897851" lon="11.351642191041366"><ele>337.0</ele><time>2026-04-26T10:29:30Z</time></trkpt><trkpt lat="45.674290309071054" lon="11.351761721398313"><ele>337.0</ele><time>2026-04-26T10:29:31Z</time></trkpt><trkpt lat="45.674355983599625" lon="11.351863361226231"><ele>337.0</ele><time>2026-04-26T10:29:32Z</time></trkpt><trkpt lat="45.67443815032138" lon="11.351955411787952"><ele>337.0</ele><time>2026-04-26T10:29:33Z</time></trkpt><trkpt lat="45.674517711343974" lon="11.352034227790123"><ele>337.0</ele><time>2026-04-26T10:29:34Z</time></trkpt><trkpt lat="45.67458719214445" lon="11.352149442757513"><ele>337.0</ele><time>2026-04-26T10:29:35Z</time></trkpt><trkpt lat="45.67465359887841" lon="11.352296549682512"><ele>331.25</ele><time>2026-04-26T10:29:36Z</time></trkpt><trkpt lat="45.67472723288879" lon="11.352450468578986"><ele>325.5</ele><time>2026-04-26T10:29:37Z</time></trkpt><trkpt lat="45.67480765615241" lon="11.352591644460128"><ele>319.75</ele><time>2026-04-26T10:29:38Z</time></trkpt><trkpt lat="45.674891750468525" lon="11.352738496588433"><ele>314.0</ele><time>2026-04-26T10:29:39Z</time></trkpt><trkpt lat="45.674963984426704" lon="11.352874238066983"><ele>314.0</ele><time>2026-04-26T10:29:40Z</time></trkpt><trkpt lat="45.67503055937482" lon="11.352999683145853"><ele>314.0</ele><time>2026-04-26T10:29:41Z</time></trkpt><trkpt lat="45.67508813687876" lon="11.353117137953966"><ele>314.0</ele><time>2026-04-26T10:29:42Z</time></trkpt><trkpt lat="45.67513365811144" lon="11.353248314143649"><ele>314.0</ele><time>2026-04-26T10:29:43Z</time></trkpt><trkpt lat="45.6751540660371" lon="11.353385990999456"><ele>314.0</ele><time>2026-04-26T10:29:44Z</time></trkpt><trkpt lat="45.67514162005396" lon="11.353540033885178"><ele>312.25</ele><time>2026-04-26T10:29:45Z</time></trkpt><trkpt lat="45.67510187076137" lon="11.353705731863338"><ele>310.5</ele><time>2026-04-26T10:29:46Z</time></trkpt><trkpt lat="45.675059632279336" lon="11.35388173589731"><ele>308.75</ele><time>2026-04-26T10:29:47Z</time></trkpt><trkpt lat="45.67503032881097" lon="11.354043876448833"><ele>307.0</ele><time>2026-04-26T10:29:48Z</time></trkpt><trkpt lat="45.67501761902804" lon="11.35420094530567"><ele>305.75</ele><time>2026-04-26T10:29:49Z</time></trkpt><trkpt lat="45.67504703233972" lon="11.354340785323727"><ele>304.5</ele><time>2026-04-26T10:29:50Z</time></trkpt><trkpt lat="45.67511285400551" lon="11.35445393242473"><ele>303.25</ele><time>2026-04-26T10:29:51Z</time></trkpt><trkpt lat="45.67520776002013" lon="11.354572095584992"><ele>302.0</ele><time>2026-04-26T10:29:52Z</time></trkpt><trkpt lat="45.67532066419037" lon="11.354713231044888"><ele>297.75</ele><time>2026-04-26T10:29:53Z</time></trkpt><trkpt lat="45.675428653833514" lon="11.354894264107404"><ele>293.5</ele><time>2026-04-26T10:29:54Z</time></trkpt><trkpt lat="45.67549773143663" lon="11.35503359051449"><ele>289.25</ele><time>2026-04-26T10:29:55Z</time></trkpt><trkpt lat="45.67560393330914" lon="11.355203982219088"><ele>285.0</ele><time>2026-04-26T10:29:56Z</time></trkpt><trkpt lat="45.67570444576066" lon="11.355379377210141"><ele>285.0</ele><time>2026-04-26T10:29:57Z</time></trkpt><trkpt lat="45.675808972348186" lon="11.355526212052961"><ele>285.0</ele><time>2026-04-26T10:29:58Z</time></trkpt><trkpt lat="45.6759209643431" lon="11.3556379589208"><ele>285.0</ele><time>2026-04-26T10:29:59Z</time></trkpt><trkpt lat="45.676035488659984" lon="11.355708889326333"><ele>285.0</ele><time>2026-04-26T10:30:00Z</time></trkpt><trkpt lat="45.676135359633605" lon="11.35576879824526"><ele>282.3333333333333</ele><time>2026-04-26T10:30:01Z</time></trkpt><trkpt lat="45.676208746426205" lon="11.355827819374174"><ele>279.6666666666667</ele><time>2026-04-26T10:30:02Z</time></trkpt><trkpt lat="45.67624529823073" lon="11.35590925769325"><ele>277.0</ele><time>2026-04-26T10:30:03Z</time></trkpt><trkpt lat="45.676243470776576" lon="11.356015069766753"><ele>274.33333333333337</ele><time>2026-04-26T10:30:04Z</time></trkpt><trkpt lat="45.676168319251694" lon="11.3561148304109"><ele>271.6666666666667</ele><time>2026-04-26T10:30:05Z</time></trkpt><trkpt lat="45.67616276939477" lon="11.356233497058065"><ele>269.0</ele><time>2026-04-26T10:30:05.999Z</time></trkpt><trkpt lat="45.67619180682853" lon="11.356345908963766"><ele>267.5</ele><time>2026-04-26T10:30:06.999Z</time></trkpt><trkpt lat="45.67626091144587" lon="11.356423936604772"><ele>266.0</ele><time>2026-04-26T10:30:07.999Z</time></trkpt><trkpt lat="45.6763569581882" lon="11.356499344106243"><ele>264.5</ele><time>2026-04-26T10:30:08.999Z</time></trkpt><trkpt lat="45.67645937810344" lon="11.35661086212335"><ele>263.0</ele><time>2026-04-26T10:30:09.999Z</time></trkpt><trkpt lat="45.676556677568875" lon="11.356763910548926"><ele>263.0</ele><time>2026-04-26T10:30:10.999Z</time></trkpt><trkpt lat="45.676649666462204" lon="11.35692930105817"><ele>263.0</ele><time>2026-04-26T10:30:11.999Z</time></trkpt><trkpt lat="45.67673833931467" lon="11.357089592312306"><ele>263.0</ele><time>2026-04-26T10:30:12.999Z</time></trkpt><trkpt lat="45.67682797168408" lon="11.35724003969704"><ele>263.0</ele><time>2026-04-26T10:30:13.999Z</time></trkpt><trkpt lat="45.676915372031324" lon="11.3573876578824"><ele>260.6</ele><time>2026-04-26T10:30:14.999Z</time></trkpt><trkpt lat="45.676995258687406" lon="11.357515156494507"><ele>258.20000000000005</ele><time>2026-04-26T10:30:15.999Z</time></trkpt><trkpt lat="45.677064398491105" lon="11.357637099513955"><ele>255.8</ele><time>2026-04-26T10:30:16.999Z</time></trkpt><trkpt lat="45.677126175540494" lon="11.357742065177945"><ele>253.4</ele><time>2026-04-26T10:30:17.999Z</time></trkpt><trkpt lat="45.67720616582006" lon="11.357808564804257"><ele>251.0</ele><time>2026-04-26T10:30:18.999Z</time></trkpt><trkpt lat="45.67730017386686" lon="11.357858848973402"><ele>251.0</ele><time>2026-04-26T10:30:19.999Z</time></trkpt><trkpt lat="45.67740221456763" lon="11.357910093523138"><ele>251.0</ele><time>2026-04-26T10:30:20.999Z</time></trkpt><trkpt lat="45.67752286379848" lon="11.357965362026494"><ele>251.0</ele><time>2026-04-26T10:30:21.999Z</time></trkpt><trkpt lat="45.677644398250926" lon="11.35801176394228"><ele>251.0</ele><time>2026-04-26T10:30:22.999Z</time></trkpt><trkpt lat="45.67775484228032" lon="11.358054940631309"><ele>249.33333333333334</ele><time>2026-04-26T10:30:23.999Z</time></trkpt><trkpt lat="45.67784779574179" lon="11.358089272926541"><ele>247.66666666666669</ele><time>2026-04-26T10:30:24.999Z</time></trkpt><trkpt lat="45.677923177980354" lon="11.358117915683447"><ele>246.0</ele><time>2026-04-26T10:30:25.999Z</time></trkpt><trkpt lat="45.67800564335348" lon="11.358196381005046"><ele>244.33333333333331</ele><time>2026-04-26T10:30:27.999Z</time></trkpt><trkpt lat="45.67808357260254" lon="11.358274314706186"><ele>242.66666666666666</ele><time>2026-04-26T10:30:29.999Z</time></trkpt><trkpt lat="45.67814052812415" lon="11.358329294195382"><ele>241.0</ele><time>2026-04-26T10:30:30.999Z</time></trkpt><trkpt lat="45.67818652173375" lon="11.3584102938813"><ele>241.0</ele><time>2026-04-26T10:30:31.999Z</time></trkpt><trkpt lat="45.67824481787873" lon="11.35850885688082"><ele>241.00000000000003</ele><time>2026-04-26T10:30:32.999Z</time></trkpt><trkpt lat="45.678306623739296" lon="11.358600942075576"><ele>241.00000000000003</ele><time>2026-04-26T10:30:33.999Z</time></trkpt><trkpt lat="45.678366721447276" lon="11.358699974833076"><ele>241.0</ele><time>2026-04-26T10:30:34.999Z</time></trkpt><trkpt lat="45.67841562862647" lon="11.3588121309087"><ele>241.0</ele><time>2026-04-26T10:30:35.999Z</time></trkpt><trkpt lat="45.67846353269391" lon="11.358926160124286"><ele>240.20000000000002</ele><time>2026-04-26T10:30:36.999Z</time></trkpt><trkpt lat="45.67853314597436" lon="11.359006968872595"><ele>239.40000000000003</ele><time>2026-04-26T10:30:37.999Z</time></trkpt><trkpt lat="45.678630779860384" lon="11.359025850834502"><ele>238.6</ele><time>2026-04-26T10:30:38.999Z</time></trkpt><trkpt lat="45.67872823752979" lon="11.35903995722763"><ele>237.8</ele><time>2026-04-26T10:30:39.999Z</time></trkpt><trkpt lat="45.67882335011603" lon="11.359086816437946"><ele>237.0</ele><time>2026-04-26T10:30:40.999Z</time></trkpt><trkpt lat="45.67889599609422" lon="11.359178514070118"><ele>235.0</ele><time>2026-04-26T10:30:41.999Z</time></trkpt><trkpt lat="45.67894706120769" lon="11.359286412471118"><ele>233.0</ele><time>2026-04-26T10:30:42.999Z</time></trkpt><trkpt lat="45.67899206004786" lon="11.359395229090678"><ele>231.0</ele><time>2026-04-26T10:30:43.999Z</time></trkpt><trkpt lat="45.67903329716588" lon="11.359499577894207"><ele>229.0</ele><time>2026-04-26T10:30:44.999Z</time></trkpt><trkpt lat="45.679075420253234" lon="11.359582857637843"><ele>227.0</ele><time>2026-04-26T10:30:45.999Z</time></trkpt><trkpt lat="45.67914113622678" lon="11.359622583282917"><ele>225.0</ele><time>2026-04-26T10:30:46.999Z</time></trkpt><trkpt lat="45.67921310081376" lon="11.359594092014488"><ele>225.0</ele><time>2026-04-26T10:30:47.999Z</time></trkpt><trkpt lat="45.679276509781346" lon="11.359531899625344"><ele>225.0</ele><time>2026-04-26T10:30:48.999Z</time></trkpt><trkpt lat="45.67927787373121" lon="11.359379718512011"><ele>225.0</ele><time>2026-04-26T10:30:49.999Z</time></trkpt><trkpt lat="45.679255110877726" lon="11.359246084393037"><ele>225.0</ele><time>2026-04-26T10:30:50.999Z</time></trkpt><trkpt lat="45.679251652286254" lon="11.359098216105012"><ele>225.0</ele><time>2026-04-26T10:30:51.999Z</time></trkpt><trkpt lat="45.67924403318484" lon="11.358954834216735"><ele>225.6</ele><time>2026-04-26T10:30:52.999Z</time></trkpt><trkpt lat="45.67925157675209" lon="11.35882484761542"><ele>226.2</ele><time>2026-04-26T10:30:53.999Z</time></trkpt><trkpt lat="45.67928598636846" lon="11.358710444024327"><ele>226.8</ele><time>2026-04-26T10:30:54.999Z</time></trkpt><trkpt lat="45.67934693873495" lon="11.358622045340198"><ele>227.4</ele><time>2026-04-26T10:30:55.999Z</time></trkpt><trkpt lat="45.67943557952584" lon="11.358553180268817"><ele>228.0</ele><time>2026-04-26T10:30:56.999Z</time></trkpt><trkpt lat="45.67953294410713" lon="11.358475420348059"><ele>224.4</ele><time>2026-04-26T10:30:57.999Z</time></trkpt><trkpt lat="45.679631462741845" lon="11.358397981374171"><ele>220.8</ele><time>2026-04-26T10:30:58.999Z</time></trkpt><trkpt lat="45.679726688897325" lon="11.35834308047369"><ele>217.2</ele><time>2026-04-26T10:30:59.999Z</time></trkpt><trkpt lat="45.67983934211052" lon="11.358345994485433"><ele>213.6</ele><time>2026-04-26T10:31:00.999Z</time></trkpt><trkpt lat="45.6799516755801" lon="11.358366002357561"><ele>210.0</ele><time>2026-04-26T10:31:01.999Z</time></trkpt><trkpt lat="45.68006691256674" lon="11.358379072200352"><ele>210.0</ele><time>2026-04-26T10:31:02.999Z</time></trkpt><trkpt lat="45.680193029845626" lon="11.358404403716477"><ele>210.0</ele><time>2026-04-26T10:31:03.998Z</time></trkpt><trkpt lat="45.680325899487066" lon="11.35842824547432"><ele>210.0</ele><time>2026-04-26T10:31:04.998Z</time></trkpt><trkpt lat="45.68046062975325" lon="11.358458985405678"><ele>210.0</ele><time>2026-04-26T10:31:05.998Z</time></trkpt><trkpt lat="45.680596130615065" lon="11.35845610845581"><ele>209.0</ele><time>2026-04-26T10:31:06.998Z</time></trkpt><trkpt lat="45.68072914111715" lon="11.358413127008621"><ele>208.0</ele><time>2026-04-26T10:31:07.998Z</time></trkpt><trkpt lat="45.68085916723363" lon="11.358344620915164"><ele>207.0</ele><time>2026-04-26T10:31:08.998Z</time></trkpt><trkpt lat="45.6809815530716" lon="11.358293660328078"><ele>206.0</ele><time>2026-04-26T10:31:09.998Z</time></trkpt><trkpt lat="45.681087675424514" lon="11.358244614904095"><ele>206.00000000000003</ele><time>2026-04-26T10:31:10.998Z</time></trkpt><trkpt lat="45.681179423298516" lon="11.358209033291692"><ele>206.0</ele><time>2026-04-26T10:31:11.998Z</time></trkpt><trkpt lat="45.68124888117564" lon="11.358184295154755"><ele>206.0</ele><time>2026-04-26T10:31:12.998Z</time></trkpt><trkpt lat="45.681314895909466" lon="11.358208637236999"><ele>206.0</ele><time>2026-04-26T10:31:13.998Z</time></trkpt><trkpt lat="45.68136485474005" lon="11.358276747474326"><ele>206.00000000000003</ele><time>2026-04-26T10:31:14.998Z</time></trkpt><trkpt lat="45.68139881277163" lon="11.358369177063889"><ele>206.0</ele><time>2026-04-26T10:31:15.998Z</time></trkpt><trkpt lat="45.68143686108861" lon="11.35848933524611"><ele>206.0</ele><time>2026-04-26T10:31:16.998Z</time></trkpt><trkpt lat="45.681487377197534" lon="11.35861055728294"><ele>206.0</ele><time>2026-04-26T10:31:17.998Z</time></trkpt><trkpt lat="45.681535932256466" lon="11.358752455083874"><ele>206.0</ele><time>2026-04-26T10:31:19Z</time></trkpt><trkpt lat="45.68157232967949" lon="11.358913633450301"><ele>206.0</ele><time>2026-04-26T10:31:20Z</time></trkpt><trkpt lat="45.68160757922721" lon="11.359088795005919"><ele>204.75</ele><time>2026-04-26T10:31:21Z</time></trkpt><trkpt lat="45.68166023392726" lon="11.359267603789915"><ele>203.5</ele><time>2026-04-26T10:31:22Z</time></trkpt><trkpt lat="45.6817250554427" lon="11.359446883968115"><ele>202.25</ele><time>2026-04-26T10:31:23Z</time></trkpt><trkpt lat="45.6818001287049" lon="11.359634100457543"><ele>201.0</ele><time>2026-04-26T10:31:24Z</time></trkpt><trkpt lat="45.68187217380321" lon="11.359828401058932"><ele>201.0</ele><time>2026-04-26T10:31:25Z</time></trkpt><trkpt lat="45.681929074989135" lon="11.360025857300688"><ele>201.0</ele><time>2026-04-26T10:31:26Z</time></trkpt><trkpt lat="45.68197622999389" lon="11.360218305479865"><ele>201.0</ele><time>2026-04-26T10:31:27Z</time></trkpt><trkpt lat="45.68200910551279" lon="11.360402709328536"><ele>201.0</ele><time>2026-04-26T10:31:28Z</time></trkpt><trkpt lat="45.682047233313604" lon="11.36057344548585"><ele>200.0</ele><time>2026-04-26T10:31:29Z</time></trkpt><trkpt lat="45.68209618836365" lon="11.36073259943463"><ele>199.0</ele><time>2026-04-26T10:31:30Z</time></trkpt><trkpt lat="45.68216255306776" lon="11.360871847389506"><ele>198.0</ele><time>2026-04-26T10:31:31Z</time></trkpt><trkpt lat="45.68225492162481" lon="11.360982816810914"><ele>197.0</ele><time>2026-04-26T10:31:32Z</time></trkpt><trkpt lat="45.68237609905124" lon="11.36105849649873"><ele>197.0</ele><time>2026-04-26T10:31:33Z</time></trkpt><trkpt lat="45.68250241955077" lon="11.361108526246726"><ele>197.0</ele><time>2026-04-26T10:31:34Z</time></trkpt><trkpt lat="45.68262009056101" lon="11.361172621631452"><ele>197.0</ele><time>2026-04-26T10:31:35Z</time></trkpt><trkpt lat="45.6827173504648" lon="11.361285733609748"><ele>197.0</ele><time>2026-04-26T10:31:36Z</time></trkpt><trkpt lat="45.68278946605915" lon="11.36144692720272"><ele>196.5</ele><time>2026-04-26T10:31:37Z</time></trkpt><trkpt lat="45.68284648833558" lon="11.36162189391964"><ele>196.0</ele><time>2026-04-26T10:31:38Z</time></trkpt><trkpt lat="45.68288865156441" lon="11.3618085715117"><ele>195.5</ele><time>2026-04-26T10:31:39Z</time></trkpt><trkpt lat="45.68294434740177" lon="11.361986370944775"><ele>195.0</ele><time>2026-04-26T10:31:40Z</time></trkpt><trkpt lat="45.68301898576397" lon="11.36213953197535"><ele>193.5</ele><time>2026-04-26T10:31:41Z</time></trkpt><trkpt lat="45.68311335313366" lon="11.362261740276121"><ele>192.0</ele><time>2026-04-26T10:31:42Z</time></trkpt><trkpt lat="45.6832318015383" lon="11.36234781257929"><ele>190.5</ele><time>2026-04-26T10:31:43Z</time></trkpt><trkpt lat="45.68336038235989" lon="11.362399953195872"><ele>189.0</ele><time>2026-04-26T10:31:44Z</time></trkpt><trkpt lat="45.683476889273344" lon="11.362438006925522"><ele>189.0</ele><time>2026-04-26T10:31:45Z</time></trkpt><trkpt lat="45.6835728891444" lon="11.36248844580483"><ele>189.0</ele><time>2026-04-26T10:31:46Z</time></trkpt><trkpt lat="45.68364854734395" lon="11.36252614920818"><ele>189.0</ele><time>2026-04-26T10:31:47Z</time></trkpt><trkpt lat="45.68371292563033" lon="11.362528969390894"><ele>189.0</ele><time>2026-04-26T10:31:48Z</time></trkpt><trkpt lat="45.68376516985411" lon="11.362465907912451"><ele>189.0</ele><time>2026-04-26T10:31:49Z</time></trkpt><trkpt lat="45.68385578399477" lon="11.362430595516306"><ele>189.0</ele><time>2026-04-26T10:31:51Z</time></trkpt><trkpt lat="45.68390483469839" lon="11.36251181869199"><ele>189.2</ele><time>2026-04-26T10:31:52Z</time></trkpt><trkpt lat="45.68394866110934" lon="11.362621457674898"><ele>189.39999999999998</ele><time>2026-04-26T10:31:53Z</time></trkpt><trkpt lat="45.68400604203622" lon="11.36272918980189"><ele>189.6</ele><time>2026-04-26T10:31:54Z</time></trkpt><trkpt lat="45.6840835806075" lon="11.362848579275505"><ele>189.8</ele><time>2026-04-26T10:31:55Z</time></trkpt><trkpt lat="45.68416663019848" lon="11.3629811764699"><ele>190.0</ele><time>2026-04-26T10:31:56Z</time></trkpt><trkpt lat="45.68427656767227" lon="11.363098649060904"><ele>188.75</ele><time>2026-04-26T10:31:57Z</time></trkpt><trkpt lat="45.6843974850398" lon="11.363206667061462"><ele>187.5</ele><time>2026-04-26T10:31:58Z</time></trkpt><trkpt lat="45.684530954523815" lon="11.36330199337471"><ele>186.25</ele><time>2026-04-26T10:31:59Z</time></trkpt><trkpt lat="45.68466807067646" lon="11.363378516408329"><ele>185.0</ele><time>2026-04-26T10:32:00Z</time></trkpt><trkpt lat="45.684790033557704" lon="11.363448326448593"><ele>184.25</ele><time>2026-04-26T10:32:01Z</time></trkpt><trkpt lat="45.684899699589906" lon="11.363512636199715"><ele>183.5</ele><time>2026-04-26T10:32:02Z</time></trkpt><trkpt lat="45.685006829283076" lon="11.363584008225097"><ele>182.75</ele><time>2026-04-26T10:32:03Z</time></trkpt><trkpt lat="45.68512283629937" lon="11.363666521752778"><ele>182.0</ele><time>2026-04-26T10:32:04Z</time></trkpt><trkpt lat="45.68524050750909" lon="11.363762534145462"><ele>181.66666666666666</ele><time>2026-04-26T10:32:05Z</time></trkpt><trkpt lat="45.68535817281454" lon="11.363886052778662"><ele>181.33333333333334</ele><time>2026-04-26T10:32:05.999Z</time></trkpt><trkpt lat="45.68547878013596" lon="11.364022698993534"><ele>181.0</ele><time>2026-04-26T10:32:06.999Z</time></trkpt><trkpt lat="45.68559916419067" lon="11.364158178099263"><ele>181.0</ele><time>2026-04-26T10:32:07.999Z</time></trkpt><trkpt lat="45.68572011382802" lon="11.364292225522599"><ele>181.0</ele><time>2026-04-26T10:32:08.999Z</time></trkpt><trkpt lat="45.68583307539126" lon="11.364420673945691"><ele>181.0</ele><time>2026-04-26T10:32:09.999Z</time></trkpt><trkpt lat="45.68591821971303" lon="11.364536638912357"><ele>181.0</ele><time>2026-04-26T10:32:10.999Z</time></trkpt><trkpt lat="45.68609885816943" lon="11.364678404963405"><ele>180.66666666666669</ele><time>2026-04-26T10:32:11.999Z</time></trkpt><trkpt lat="45.68624094664084" lon="11.364777123177033"><ele>180.33333333333334</ele><time>2026-04-26T10:32:12.999Z</time></trkpt><trkpt lat="45.686384689297505" lon="11.36485879669766"><ele>180.0</ele><time>2026-04-26T10:32:13.999Z</time></trkpt><trkpt lat="45.686531809671685" lon="11.364938262130094"><ele>180.0</ele><time>2026-04-26T10:32:14.999Z</time></trkpt><trkpt lat="45.68668241633844" lon="11.365019657442906"><ele>180.0</ele><time>2026-04-26T10:32:15.999Z</time></trkpt><trkpt lat="45.68684322380836" lon="11.36508844342375"><ele>180.0</ele><time>2026-04-26T10:32:16.999Z</time></trkpt><trkpt lat="45.68701611693836" lon="11.365149746629879"><ele>179.33333333333334</ele><time>2026-04-26T10:32:17.999Z</time></trkpt><trkpt lat="45.68719381571397" lon="11.365204084573627"><ele>178.66666666666669</ele><time>2026-04-26T10:32:18.999Z</time></trkpt><trkpt lat="45.68738719366448" lon="11.365245931845347"><ele>178.0</ele><time>2026-04-26T10:32:19.999Z</time></trkpt><trkpt lat="45.68757833954485" lon="11.365293969602927"><ele>177.33333333333334</ele><time>2026-04-26T10:32:20.999Z</time></trkpt><trkpt lat="45.68776493629774" lon="11.365343327511013"><ele>176.66666666666666</ele><time>2026-04-26T10:32:21.999Z</time></trkpt><trkpt lat="45.687950272821375" lon="11.365395383715258"><ele>176.0</ele><time>2026-04-26T10:32:22.999Z</time></trkpt><trkpt lat="45.68813017415751" lon="11.365445623708268"><ele>176.0</ele><time>2026-04-26T10:32:23.999Z</time></trkpt><trkpt lat="45.68829949635973" lon="11.365488562964911"><ele>176.0</ele><time>2026-04-26T10:32:24.999Z</time></trkpt><trkpt lat="45.688466144898385" lon="11.365525552756877"><ele>176.0</ele><time>2026-04-26T10:32:25.999Z</time></trkpt><trkpt lat="45.68863305113305" lon="11.365552920275464"><ele>175.5</ele><time>2026-04-26T10:32:26.999Z</time></trkpt><trkpt lat="45.68879110420098" lon="11.365570259648822"><ele>175.0</ele><time>2026-04-26T10:32:27.999Z</time></trkpt><trkpt lat="45.688941809087524" lon="11.365583539340832"><ele>174.5</ele><time>2026-04-26T10:32:28.999Z</time></trkpt><trkpt lat="45.689079301917175" lon="11.365599719999953"><ele>174.0</ele><time>2026-04-26T10:32:29.999Z</time></trkpt><trkpt lat="45.68919554342266" lon="11.365622556259542"><ele>174.0</ele><time>2026-04-26T10:32:30.999Z</time></trkpt><trkpt lat="45.68929568143053" lon="11.365641244222802"><ele>174.0</ele><time>2026-04-26T10:32:31.999Z</time></trkpt><trkpt lat="45.68936720037443" lon="11.36565054689601"><ele>174.0</ele><time>2026-04-26T10:32:32.999Z</time></trkpt><trkpt lat="45.68943773612858" lon="11.365669550813761"><ele>174.0</ele><time>2026-04-26T10:32:34.999Z</time></trkpt><trkpt lat="45.689352526350554" lon="11.36559019202713"><ele>174.0</ele><time>2026-04-26T10:32:41.999Z</time></trkpt><trkpt lat="45.689279478888274" lon="11.365633820008904"><ele>174.0</ele><time>2026-04-26T10:32:42.999Z</time></trkpt><trkpt lat="45.68920538772245" lon="11.36557631345853"><ele>174.0</ele><time>2026-04-26T10:32:43.999Z</time></trkpt><trkpt lat="45.689125663300445" lon="11.365576365985735"><ele>174.0</ele><time>2026-04-26T10:32:44.999Z</time></trkpt><trkpt lat="45.689046830154865" lon="11.36556856208064"><ele>174.0</ele><time>2026-04-26T10:32:45.999Z</time></trkpt><trkpt lat="45.688969655143524" lon="11.365561061997662"><ele>174.0</ele><time>2026-04-26T10:32:46.999Z</time></trkpt><trkpt lat="45.68889729698928" lon="11.365560732887294"><ele>174.0</ele><time>2026-04-26T10:32:47.999Z</time></trkpt><trkpt lat="45.68877443574342" lon="11.365564727586712"><ele>174.0</ele><time>2026-04-26T10:32:49.999Z</time></trkpt><trkpt lat="45.68871982847109" lon="11.365350864487544"><ele>174.39999999999998</ele><time>2026-04-26T10:32:50.999Z</time></trkpt><trkpt lat="45.688825477530976" lon="11.365389622706985"><ele>174.8</ele><time>2026-04-26T10:32:55.999Z</time></trkpt><trkpt lat="45.68891500908247" lon="11.365401722671589"><ele>175.2</ele><time>2026-04-26T10:32:56.999Z</time></trkpt><trkpt lat="45.68901822268502" lon="11.365401700392017"><ele>175.60000000000002</ele><time>2026-04-26T10:32:57.999Z</time></trkpt><trkpt lat="45.68914291006283" lon="11.365400815077425"><ele>176.0</ele><time>2026-04-26T10:32:58.999Z</time></trkpt><trkpt lat="45.68929093951009" lon="11.365399332453325"><ele>176.0</ele><time>2026-04-26T10:32:59.999Z</time></trkpt><trkpt lat="45.689453515821214" lon="11.36539715413582"><ele>176.0</ele><time>2026-04-26T10:33:00.999Z</time></trkpt><trkpt lat="45.68964283801908" lon="11.365387031244936"><ele>176.0</ele><time>2026-04-26T10:33:01.998Z</time></trkpt><trkpt lat="45.68986106895313" lon="11.365371689229896"><ele>176.0</ele><time>2026-04-26T10:33:02.998Z</time></trkpt><trkpt lat="45.69008014258479" lon="11.365388864229246"><ele>176.0</ele><time>2026-04-26T10:33:03.998Z</time></trkpt><trkpt lat="45.69030326257946" lon="11.365386551217599"><ele>176.0</ele><time>2026-04-26T10:33:04.998Z</time></trkpt><trkpt lat="45.690524781620184" lon="11.365383946283302"><ele>179.66666666666666</ele><time>2026-04-26T10:33:05.998Z</time></trkpt><trkpt lat="45.69076369111957" lon="11.365379746767992"><ele>183.33333333333334</ele><time>2026-04-26T10:33:06.998Z</time></trkpt><trkpt lat="45.690853851388155" lon="11.365380752510317"><ele>187.0</ele><time>2026-04-26T10:33:07.998Z</time></trkpt><trkpt lat="45.69107580467763" lon="11.365398490147621"><ele>195.0</ele><time>2026-04-26T10:33:08.998Z</time></trkpt><trkpt lat="45.69129097504114" lon="11.365407896575778"><ele>203.0</ele><time>2026-04-26T10:33:09.998Z</time></trkpt><trkpt lat="45.691510782412756" lon="11.365417498979882"><ele>211.0</ele><time>2026-04-26T10:33:11.019Z</time></trkpt><trkpt lat="45.69172451926438" lon="11.365390890586392"><ele>207.0</ele><time>2026-04-26T10:33:12.017Z</time></trkpt><trkpt lat="45.69193838027218" lon="11.36538247436923"><ele>203.0</ele><time>2026-04-26T10:33:13.017Z</time></trkpt><trkpt lat="45.692148561543334" lon="11.3653568624321"><ele>199.0</ele><time>2026-04-26T10:33:14.019Z</time></trkpt><trkpt lat="45.692812807690146" lon="11.365125969345291"><ele>190.5</ele><time>2026-04-26T10:33:16.998Z</time></trkpt><trkpt lat="45.69301277039212" lon="11.365006827789454"><ele>182.0</ele><time>2026-04-26T10:33:17.998Z</time></trkpt><trkpt lat="45.69325319178215" lon="11.364872576729438"><ele>182.0</ele><time>2026-04-26T10:33:18.998Z</time></trkpt><trkpt lat="45.69343603493438" lon="11.364704966297715"><ele>182.0</ele><time>2026-04-26T10:33:19.998Z</time></trkpt><trkpt lat="45.69362811252391" lon="11.364540456526711"><ele>182.0</ele><time>2026-04-26T10:33:20.998Z</time></trkpt><trkpt lat="45.693812986914885" lon="11.364355595291684"><ele>182.5</ele><time>2026-04-26T10:33:21.998Z</time></trkpt><trkpt lat="45.69400132282278" lon="11.364172067252694"><ele>183.0</ele><time>2026-04-26T10:33:22.998Z</time></trkpt><trkpt lat="45.694186548673" lon="11.363968736508681"><ele>186.0</ele><time>2026-04-26T10:33:23.998Z</time></trkpt><trkpt lat="45.69437626699961" lon="11.363762264986672"><ele>189.0</ele><time>2026-04-26T10:33:25Z</time></trkpt><trkpt lat="45.694568957880094" lon="11.363553005191044"><ele>189.0</ele><time>2026-04-26T10:33:26Z</time></trkpt><trkpt lat="45.69476476550061" lon="11.363338692096365"><ele>189.0</ele><time>2026-04-26T10:33:27Z</time></trkpt><trkpt lat="45.69496087563456" lon="11.363118251093482"><ele>188.0</ele><time>2026-04-26T10:33:28Z</time></trkpt><trkpt lat="45.69515074621445" lon="11.362906720527908"><ele>187.0</ele><time>2026-04-26T10:33:29Z</time></trkpt><trkpt lat="45.69533234964799" lon="11.362709331134091"><ele>187.0</ele><time>2026-04-26T10:33:30Z</time></trkpt><trkpt lat="45.69551712757219" lon="11.362537554734287"><ele>187.0</ele><time>2026-04-26T10:33:31Z</time></trkpt><trkpt lat="45.69569424258177" lon="11.362350303011677"><ele>187.0</ele><time>2026-04-26T10:33:32Z</time></trkpt><trkpt lat="45.69586622377613" lon="11.36214174540949"><ele>186.0</ele><time>2026-04-26T10:33:33Z</time></trkpt><trkpt lat="45.69604618674501" lon="11.361974633260216"><ele>185.0</ele><time>2026-04-26T10:33:34Z</time></trkpt><trkpt lat="45.69622000262639" lon="11.3618352770318"><ele>184.0</ele><time>2026-04-26T10:33:35Z</time></trkpt><trkpt lat="45.69640598571254" lon="11.361755521713247"><ele>184.0</ele><time>2026-04-26T10:33:36Z</time></trkpt><trkpt lat="45.69658978061784" lon="11.36166721162341"><ele>184.0</ele><time>2026-04-26T10:33:37Z</time></trkpt><trkpt lat="45.69678816363765" lon="11.361622753428463"><ele>184.0</ele><time>2026-04-26T10:33:38Z</time></trkpt><trkpt lat="45.69698783190487" lon="11.361592441360703"><ele>185.0</ele><time>2026-04-26T10:33:39Z</time></trkpt><trkpt lat="45.69718172647126" lon="11.361596758369824"><ele>186.0</ele><time>2026-04-26T10:33:40Z</time></trkpt><trkpt lat="45.69738670447047" lon="11.361650519916752"><ele>187.0</ele><time>2026-04-26T10:33:41Z</time></trkpt><trkpt lat="45.697579756947924" lon="11.361715637197362"><ele>188.0</ele><time>2026-04-26T10:33:42Z</time></trkpt><trkpt lat="45.69777074766102" lon="11.361813301324482"><ele>189.0</ele><time>2026-04-26T10:33:43Z</time></trkpt><trkpt lat="45.69794707113992" lon="11.361936861496613"><ele>190.0</ele><time>2026-04-26T10:33:44Z</time></trkpt><trkpt lat="45.698114086894165" lon="11.36208998115279"><ele>190.0</ele><time>2026-04-26T10:33:45Z</time></trkpt><trkpt lat="45.6982740721583" lon="11.362268777839292"><ele>190.0</ele><time>2026-04-26T10:33:46Z</time></trkpt><trkpt lat="45.69842683414804" lon="11.362467474955489"><ele>190.0</ele><time>2026-04-26T10:33:47Z</time></trkpt><trkpt lat="45.698572963513904" lon="11.362661713809834"><ele>190.33333333333334</ele><time>2026-04-26T10:33:48Z</time></trkpt><trkpt lat="45.69872186964983" lon="11.362859406315822"><ele>190.66666666666666</ele><time>2026-04-26T10:33:49Z</time></trkpt><trkpt lat="45.698869811001586" lon="11.363067164755547"><ele>191.0</ele><time>2026-04-26T10:33:50Z</time></trkpt><trkpt lat="45.69902346743191" lon="11.363264143684768"><ele>191.0</ele><time>2026-04-26T10:33:51Z</time></trkpt><trkpt lat="45.69916687029288" lon="11.363453700888302"><ele>191.0</ele><time>2026-04-26T10:33:52Z</time></trkpt><trkpt lat="45.69931057468171" lon="11.363633728214108"><ele>191.0</ele><time>2026-04-26T10:33:53Z</time></trkpt><trkpt lat="45.69945152918049" lon="11.36379417610415"><ele>190.66666666666666</ele><time>2026-04-26T10:33:54Z</time></trkpt><trkpt lat="45.69958335753391" lon="11.363947545962581"><ele>190.33333333333334</ele><time>2026-04-26T10:33:55Z</time></trkpt><trkpt lat="45.69971137382533" lon="11.364092460129196"><ele>190.0</ele><time>2026-04-26T10:33:56Z</time></trkpt><trkpt lat="45.6998347805434" lon="11.364227085508478"><ele>190.0</ele><time>2026-04-26T10:33:57Z</time></trkpt><trkpt lat="45.69994858908306" lon="11.364372832566575"><ele>190.0</ele><time>2026-04-26T10:33:58Z</time></trkpt><trkpt lat="45.70006349274949" lon="11.364508033218124"><ele>190.0</ele><time>2026-04-26T10:33:59Z</time></trkpt><trkpt lat="45.70018016135322" lon="11.364633317006309"><ele>190.0</ele><time>2026-04-26T10:34:00Z</time></trkpt><trkpt lat="45.7002428681841" lon="11.364857742181107"><ele>190.25</ele><time>2026-04-26T10:34:01Z</time></trkpt><trkpt lat="45.700333110443985" lon="11.365015495930624"><ele>190.5</ele><time>2026-04-26T10:34:02Z</time></trkpt><trkpt lat="45.70041764004052" lon="11.365179065426549"><ele>190.75</ele><time>2026-04-26T10:34:03Z</time></trkpt><trkpt lat="45.700488293375834" lon="11.365329383864074"><ele>191.0</ele><time>2026-04-26T10:34:04Z</time></trkpt><trkpt lat="45.70055113759318" lon="11.365479777406279"><ele>190.83333333333331</ele><time>2026-04-26T10:34:05Z</time></trkpt><trkpt lat="45.70060935901524" lon="11.365618450898568"><ele>190.66666666666666</ele><time>2026-04-26T10:34:06Z</time></trkpt><trkpt lat="45.70064876653628" lon="11.365750823112108"><ele>190.5</ele><time>2026-04-26T10:34:06.999Z</time></trkpt><trkpt lat="45.70065496265044" lon="11.365853312795673"><ele>190.33333333333334</ele><time>2026-04-26T10:34:07.999Z</time></trkpt><trkpt lat="45.700645043025396" lon="11.365949057106869"><ele>190.16666666666669</ele><time>2026-04-26T10:34:09.999Z</time></trkpt><trkpt lat="45.70068143370614" lon="11.366049178245891"><ele>190.0</ele><time>2026-04-26T10:34:12.999Z</time></trkpt><trkpt lat="45.70070657425665" lon="11.36614344419539"><ele>190.0</ele><time>2026-04-26T10:34:13.999Z</time></trkpt><trkpt lat="45.70083101338971" lon="11.365979437248479"><ele>190.0</ele><time>2026-04-26T10:34:14.999Z</time></trkpt><trkpt lat="45.70091090669229" lon="11.365906869258772"><ele>190.0</ele><time>2026-04-26T10:34:15.999Z</time></trkpt><trkpt lat="45.700990936106805" lon="11.365852883406731"><ele>190.0</ele><time>2026-04-26T10:34:16.999Z</time></trkpt><trkpt lat="45.701064721404144" lon="11.365807497875451"><ele>190.0</ele><time>2026-04-26T10:34:17.999Z</time></trkpt><trkpt lat="45.701134954885326" lon="11.365770049836422"><ele>189.83333333333334</ele><time>2026-04-26T10:34:18.999Z</time></trkpt><trkpt lat="45.70121505707831" lon="11.365746958702667"><ele>189.66666666666669</ele><time>2026-04-26T10:34:19.999Z</time></trkpt><trkpt lat="45.70128920648931" lon="11.365740615651683"><ele>189.5</ele><time>2026-04-26T10:34:20.999Z</time></trkpt><trkpt lat="45.70138346266099" lon="11.365769856956463"><ele>189.33333333333334</ele><time>2026-04-26T10:34:22.999Z</time></trkpt><trkpt lat="45.70147997172202" lon="11.365843412690952"><ele>189.16666666666666</ele><time>2026-04-26T10:34:25.999Z</time></trkpt><trkpt lat="45.70154027561718" lon="11.36588925228653"><ele>189.0</ele><time>2026-04-26T10:34:26.999Z</time></trkpt><trkpt lat="45.70161738404646" lon="11.36594545798418"><ele>189.0</ele><time>2026-04-26T10:34:27.999Z</time></trkpt><trkpt lat="45.70170164861594" lon="11.366007486184563"><ele>189.0</ele><time>2026-04-26T10:34:28.999Z</time></trkpt><trkpt lat="45.70179299382479" lon="11.366076208434471"><ele>189.0</ele><time>2026-04-26T10:34:29.999Z</time></trkpt><trkpt lat="45.70188861224688" lon="11.366149049787992"><ele>189.0</ele><time>2026-04-26T10:34:30.999Z</time></trkpt><trkpt lat="45.70199912685291" lon="11.366231712262609"><ele>189.0</ele><time>2026-04-26T10:34:31.999Z</time></trkpt><trkpt lat="45.70211920283948" lon="11.36635607985198"><ele>187.33333333333334</ele><time>2026-04-26T10:34:32.999Z</time></trkpt><trkpt lat="45.70226004255489" lon="11.366466009265828"><ele>185.66666666666669</ele><time>2026-04-26T10:34:33.999Z</time></trkpt><trkpt lat="45.702402547282865" lon="11.366603812611208"><ele>184.0</ele><time>2026-04-26T10:34:34.999Z</time></trkpt><trkpt lat="45.70255225226143" lon="11.366752476836416"><ele>184.0</ele><time>2026-04-26T10:34:35.999Z</time></trkpt><trkpt lat="45.702695925727085" lon="11.366890675667298"><ele>184.0</ele><time>2026-04-26T10:34:36.999Z</time></trkpt><trkpt lat="45.702835559289184" lon="11.367025490742519"><ele>184.0</ele><time>2026-04-26T10:34:37.999Z</time></trkpt><trkpt lat="45.70297037712319" lon="11.367133675541233"><ele>184.66666666666669</ele><time>2026-04-26T10:34:38.999Z</time></trkpt><trkpt lat="45.70309070273887" lon="11.367290960392486"><ele>185.33333333333334</ele><time>2026-04-26T10:34:39.999Z</time></trkpt><trkpt lat="45.703223407859916" lon="11.36740166997487"><ele>186.0</ele><time>2026-04-26T10:34:40.999Z</time></trkpt><trkpt lat="45.70334454598577" lon="11.367524392634145"><ele>186.0</ele><time>2026-04-26T10:34:41.999Z</time></trkpt><trkpt lat="45.70345388143269" lon="11.36763515872625"><ele>186.0</ele><time>2026-04-26T10:34:42.999Z</time></trkpt><trkpt lat="45.703555693232225" lon="11.3677369899237"><ele>186.0</ele><time>2026-04-26T10:34:43.999Z</time></trkpt><trkpt lat="45.70364589678069" lon="11.36782356042568"><ele>186.0</ele><time>2026-04-26T10:34:44.999Z</time></trkpt><trkpt lat="45.703720348285884" lon="11.367915544935517"><ele>186.0</ele><time>2026-04-26T10:34:45.999Z</time></trkpt><trkpt lat="45.703773710949406" lon="11.36800133035184"><ele>186.0</ele><time>2026-04-26T10:34:46.999Z</time></trkpt><trkpt lat="45.70379907031167" lon="11.368123448318695"><ele>186.0</ele><time>2026-04-26T10:34:47.999Z</time></trkpt><trkpt lat="45.70377585882557" lon="11.368239614215929"><ele>186.0</ele><time>2026-04-26T10:34:48.999Z</time></trkpt><trkpt lat="45.70375962718664" lon="11.368357547940077"><ele>186.0</ele><time>2026-04-26T10:34:49.999Z</time></trkpt><trkpt lat="45.703745315049716" lon="11.368485556427018"><ele>186.0</ele><time>2026-04-26T10:34:50.999Z</time></trkpt><trkpt lat="45.70373409403228" lon="11.36863083531972"><ele>185.66666666666666</ele><time>2026-04-26T10:34:51.999Z</time></trkpt><trkpt lat="45.70352439841581" lon="11.368739661385936"><ele>185.33333333333331</ele><time>2026-04-26T10:34:52.999Z</time></trkpt><trkpt lat="45.70350411564275" lon="11.368927737495655"><ele>185.0</ele><time>2026-04-26T10:34:53.999Z</time></trkpt><trkpt lat="45.703611282424106" lon="11.369138989661545"><ele>184.66666666666666</ele><time>2026-04-26T10:34:54.999Z</time></trkpt><trkpt lat="45.70354214675767" lon="11.369331720071848"><ele>184.33333333333334</ele><time>2026-04-26T10:34:55.999Z</time></trkpt><trkpt lat="45.70348767218679" lon="11.36955999888693"><ele>184.0</ele><time>2026-04-26T10:34:56.999Z</time></trkpt><trkpt lat="45.7034385477938" lon="11.369798673612939"><ele>184.0</ele><time>2026-04-26T10:34:57.999Z</time></trkpt><trkpt lat="45.70338162687612" lon="11.370050039386363"><ele>184.0</ele><time>2026-04-26T10:34:58.999Z</time></trkpt><trkpt lat="45.703309185639355" lon="11.370304868659463"><ele>184.0</ele><time>2026-04-26T10:34:59.999Z</time></trkpt><trkpt lat="45.70323397028414" lon="11.370572258199742"><ele>183.33333333333334</ele><time>2026-04-26T10:35:00.999Z</time></trkpt><trkpt lat="45.70315899065946" lon="11.370852878881527"><ele>182.66666666666666</ele><time>2026-04-26T10:35:01.998Z</time></trkpt><trkpt lat="45.70308231331544" lon="11.371143838311523"><ele>182.0</ele><time>2026-04-26T10:35:02.998Z</time></trkpt><trkpt lat="45.703010384906854" lon="11.371401458830217"><ele>181.33333333333331</ele><time>2026-04-26T10:35:03.998Z</time></trkpt><trkpt lat="45.702967171400964" lon="11.371576179420302"><ele>180.66666666666666</ele><time>2026-04-26T10:35:04.998Z</time></trkpt><trkpt lat="45.702909765661765" lon="11.371775327455806"><ele>180.0</ele><time>2026-04-26T10:35:05.998Z</time></trkpt><trkpt lat="45.70278780257474" lon="11.372262863651905"><ele>179.0</ele><time>2026-04-26T10:35:06.998Z</time></trkpt><trkpt lat="45.7027117382326" lon="11.37252969247382"><ele>178.0</ele><time>2026-04-26T10:35:07.998Z</time></trkpt><trkpt lat="45.702616920908135" lon="11.372774931727866"><ele>177.0</ele><time>2026-04-26T10:35:08.998Z</time></trkpt><trkpt lat="45.7025440327326" lon="11.37301600463076"><ele>176.66666666666666</ele><time>2026-04-26T10:35:09.998Z</time></trkpt><trkpt lat="45.70248617728412" lon="11.373234687680092"><ele>176.33333333333331</ele><time>2026-04-26T10:35:10.998Z</time></trkpt><trkpt lat="45.70244255649264" lon="11.37345185053615"><ele>176.0</ele><time>2026-04-26T10:35:11.998Z</time></trkpt><trkpt lat="45.70243023736291" lon="11.37366633392927"><ele>175.75</ele><time>2026-04-26T10:35:12.998Z</time></trkpt><trkpt lat="45.70246372305734" lon="11.37386542671153"><ele>175.5</ele><time>2026-04-26T10:35:13.998Z</time></trkpt><trkpt lat="45.702502127783845" lon="11.374044882813612"><ele>175.25</ele><time>2026-04-26T10:35:14.998Z</time></trkpt><trkpt lat="45.70254801430769" lon="11.37420472421043"><ele>175.0</ele><time>2026-04-26T10:35:15.998Z</time></trkpt><trkpt lat="45.70260025269292" lon="11.374337400069086"><ele>175.0</ele><time>2026-04-26T10:35:16.998Z</time></trkpt><trkpt lat="45.70266780826716" lon="11.374434343906403"><ele>175.0</ele><time>2026-04-26T10:35:17.998Z</time></trkpt><trkpt lat="45.7027318304407" lon="11.374493727435205"><ele>175.0</ele><time>2026-04-26T10:35:18.998Z</time></trkpt><trkpt lat="45.70279748841372" lon="11.374534458182664"><ele>175.0</ele><time>2026-04-26T10:35:20.998Z</time></trkpt><trkpt lat="45.702825213298595" lon="11.374689960122872"><ele>175.0</ele><time>2026-04-26T10:35:23.998Z</time></trkpt><trkpt lat="45.702854680421105" lon="11.374785810151282"><ele>175.0</ele><time>2026-04-26T10:35:24.998Z</time></trkpt><trkpt lat="45.70291860686867" lon="11.37488063349039"><ele>175.25</ele><time>2026-04-26T10:35:25.998Z</time></trkpt><trkpt lat="45.703015036287454" lon="11.374943754786822"><ele>175.5</ele><time>2026-04-26T10:35:26.998Z</time></trkpt><trkpt lat="45.7031286253711" lon="11.374934819649406"><ele>175.75</ele><time>2026-04-26T10:35:27.998Z</time></trkpt><trkpt lat="45.70322486627484" lon="11.37484282064038"><ele>176.0</ele><time>2026-04-26T10:35:28.998Z</time></trkpt><trkpt lat="45.703318058760075" lon="11.374710646170437"><ele>176.0</ele><time>2026-04-26T10:35:29.998Z</time></trkpt><trkpt lat="45.703484483434686" lon="11.374812982559991"><ele>176.0</ele><time>2026-04-26T10:35:31Z</time></trkpt><trkpt lat="45.703600092656" lon="11.374875670929944"><ele>176.0</ele><time>2026-04-26T10:35:32Z</time></trkpt><trkpt lat="45.70370086393149" lon="11.374947042220928"><ele>176.0</ele><time>2026-04-26T10:35:33Z</time></trkpt><trkpt lat="45.70379063482678" lon="11.375004977450883"><ele>176.16666666666666</ele><time>2026-04-26T10:35:34Z</time></trkpt><trkpt lat="45.70387071724407" lon="11.375054267744087"><ele>176.33333333333331</ele><time>2026-04-26T10:35:35Z</time></trkpt><trkpt lat="45.703941970540036" lon="11.375116474866024"><ele>176.5</ele><time>2026-04-26T10:35:36Z</time></trkpt><trkpt lat="45.70400522587612" lon="11.375203060965756"><ele>176.66666666666666</ele><time>2026-04-26T10:35:37Z</time></trkpt><trkpt lat="45.70406105760581" lon="11.375307932693815"><ele>176.83333333333334</ele><time>2026-04-26T10:35:38Z</time></trkpt><trkpt lat="45.704121325831295" lon="11.375413191260499"><ele>177.0</ele><time>2026-04-26T10:35:39Z</time></trkpt><trkpt lat="45.70420750314907" lon="11.375480235663987"><ele>177.0</ele><time>2026-04-26T10:35:40Z</time></trkpt><trkpt lat="45.70432210014015" lon="11.375493734368991"><ele>177.0</ele><time>2026-04-26T10:35:41Z</time></trkpt><trkpt lat="45.7044394868123" lon="11.375477646690868"><ele>177.0</ele><time>2026-04-26T10:35:42Z</time></trkpt><trkpt lat="45.704567981243635" lon="11.3754655329044"><ele>177.0</ele><time>2026-04-26T10:35:43Z</time></trkpt><trkpt lat="45.70470270036691" lon="11.375453473308042"><ele>176.66666666666666</ele><time>2026-04-26T10:35:44Z</time></trkpt><trkpt lat="45.704848700837864" lon="11.375553302236144"><ele>176.33333333333331</ele><time>2026-04-26T10:35:45Z</time></trkpt><trkpt lat="45.704998098671055" lon="11.375637137937442"><ele>176.0</ele><time>2026-04-26T10:35:46Z</time></trkpt><trkpt lat="45.70516050901489" lon="11.375730053026022"><ele>174.66666666666666</ele><time>2026-04-26T10:35:47Z</time></trkpt><trkpt lat="45.705335786281495" lon="11.375831818299469"><ele>173.33333333333334</ele><time>2026-04-26T10:35:48Z</time></trkpt><trkpt lat="45.705522272687666" lon="11.375941169679228"><ele>172.0</ele><time>2026-04-26T10:35:49Z</time></trkpt><trkpt lat="45.70570508586444" lon="11.376047019599806"><ele>172.0</ele><time>2026-04-26T10:35:50Z</time></trkpt><trkpt lat="45.705884624367236" lon="11.37615127710439"><ele>172.0</ele><time>2026-04-26T10:35:51Z</time></trkpt><trkpt lat="45.70607272066801" lon="11.376259478703663"><ele>172.0</ele><time>2026-04-26T10:35:52Z</time></trkpt><trkpt lat="45.70627049192541" lon="11.376376029922788"><ele>172.5</ele><time>2026-04-26T10:35:53Z</time></trkpt><trkpt lat="45.70648841539901" lon="11.376500649071918"><ele>173.0</ele><time>2026-04-26T10:35:54Z</time></trkpt><trkpt lat="45.7067017233473" lon="11.376630160650162"><ele>173.0</ele><time>2026-04-26T10:35:55Z</time></trkpt><trkpt lat="45.70688648838663" lon="11.376733897683064"><ele>173.0</ele><time>2026-04-26T10:35:56Z</time></trkpt><trkpt lat="45.70708898327759" lon="11.37684851165373"><ele>173.0</ele><time>2026-04-26T10:35:57Z</time></trkpt><trkpt lat="45.70729134149526" lon="11.376965550230832"><ele>173.0</ele><time>2026-04-26T10:35:58Z</time></trkpt><trkpt lat="45.707491088871066" lon="11.377077980370938"><ele>173.0</ele><time>2026-04-26T10:35:59Z</time></trkpt><trkpt lat="45.70768468715443" lon="11.37718434594932"><ele>173.0</ele><time>2026-04-26T10:36:00Z</time></trkpt><trkpt lat="45.70785470643362" lon="11.377278880820446"><ele>173.33333333333331</ele><time>2026-04-26T10:36:01Z</time></trkpt><trkpt lat="45.7080139126661" lon="11.377378166624268"><ele>173.66666666666666</ele><time>2026-04-26T10:36:02Z</time></trkpt><trkpt lat="45.708161230006546" lon="11.37748252313415"><ele>174.0</ele><time>2026-04-26T10:36:03Z</time></trkpt><trkpt lat="45.70828308951992" lon="11.377636121698396"><ele>174.0</ele><time>2026-04-26T10:36:04Z</time></trkpt><trkpt lat="45.70840676285893" lon="11.377807060204724"><ele>174.0</ele><time>2026-04-26T10:36:05Z</time></trkpt><trkpt lat="45.70850132165135" lon="11.378019062121647"><ele>174.0</ele><time>2026-04-26T10:36:06Z</time></trkpt><trkpt lat="45.70858102760241" lon="11.378249135330487"><ele>173.66666666666666</ele><time>2026-04-26T10:36:07Z</time></trkpt><trkpt lat="45.70866610469772" lon="11.378483035956995"><ele>173.33333333333331</ele><time>2026-04-26T10:36:08Z</time></trkpt><trkpt lat="45.708762260358014" lon="11.378731183291324"><ele>173.0</ele><time>2026-04-26T10:36:09Z</time></trkpt><trkpt lat="45.70886283127607" lon="11.37898975072458"><ele>173.0</ele><time>2026-04-26T10:36:10Z</time></trkpt><trkpt lat="45.70896813949866" lon="11.379248269098571"><ele>173.0</ele><time>2026-04-26T10:36:10.999Z</time></trkpt><trkpt lat="45.709067754812494" lon="11.379509940699979"><ele>173.0</ele><time>2026-04-26T10:36:11.999Z</time></trkpt><trkpt lat="45.70917821706103" lon="11.379778698337244"><ele>172.0</ele><time>2026-04-26T10:36:12.999Z</time></trkpt><trkpt lat="45.709297661135" lon="11.380058851067215"><ele>171.0</ele><time>2026-04-26T10:36:13.999Z</time></trkpt><trkpt lat="45.70941569318289" lon="11.38034325899201"><ele>172.0</ele><time>2026-04-26T10:36:14.999Z</time></trkpt><trkpt lat="45.70952654023485" lon="11.380629115041726"><ele>173.0</ele><time>2026-04-26T10:36:15.999Z</time></trkpt><trkpt lat="45.70964020759562" lon="11.380911992887025"><ele>173.0</ele><time>2026-04-26T10:36:16.999Z</time></trkpt><trkpt lat="45.709753230143235" lon="11.3811928543239"><ele>173.0</ele><time>2026-04-26T10:36:17.999Z</time></trkpt><trkpt lat="45.709864084140364" lon="11.381466070360451"><ele>173.0</ele><time>2026-04-26T10:36:18.999Z</time></trkpt><trkpt lat="45.70997508354598" lon="11.381734722053269"><ele>173.33333333333331</ele><time>2026-04-26T10:36:19.999Z</time></trkpt><trkpt lat="45.71008005420284" lon="11.382000077549336"><ele>173.66666666666666</ele><time>2026-04-26T10:36:20.999Z</time></trkpt><trkpt lat="45.71018059711893" lon="11.382280254635704"><ele>174.0</ele><time>2026-04-26T10:36:21.999Z</time></trkpt><trkpt lat="45.710296653448815" lon="11.382541845211314"><ele>174.0</ele><time>2026-04-26T10:36:22.999Z</time></trkpt><trkpt lat="45.710408839472656" lon="11.382766628825268"><ele>174.0</ele><time>2026-04-26T10:36:23.999Z</time></trkpt><trkpt lat="45.71053130882948" lon="11.38305028843007"><ele>174.0</ele><time>2026-04-26T10:36:24.999Z</time></trkpt><trkpt lat="45.71064892494903" lon="11.383264439501941"><ele>173.66666666666666</ele><time>2026-04-26T10:36:25.999Z</time></trkpt><trkpt lat="45.71080139885223" lon="11.383435987729037"><ele>173.33333333333331</ele><time>2026-04-26T10:36:26.999Z</time></trkpt><trkpt lat="45.71096687799286" lon="11.383581698033979"><ele>173.0</ele><time>2026-04-26T10:36:27.999Z</time></trkpt><trkpt lat="45.71115084499387" lon="11.383734627877523"><ele>173.0</ele><time>2026-04-26T10:36:28.999Z</time></trkpt><trkpt lat="45.71132953224288" lon="11.383903912008508"><ele>173.0</ele><time>2026-04-26T10:36:29.999Z</time></trkpt><trkpt lat="45.711510183056866" lon="11.384062921148445"><ele>173.0</ele><time>2026-04-26T10:36:30.999Z</time></trkpt><trkpt lat="45.71169544684113" lon="11.384201897460786"><ele>173.0</ele><time>2026-04-26T10:36:31.999Z</time></trkpt><trkpt lat="45.7119380344331" lon="11.384398891231232"><ele>173.0</ele><time>2026-04-26T10:36:32.999Z</time></trkpt><trkpt lat="45.71210109753684" lon="11.38454665611878"><ele>173.0</ele><time>2026-04-26T10:36:33.999Z</time></trkpt><trkpt lat="45.71225246105252" lon="11.38467089292417"><ele>173.0</ele><time>2026-04-26T10:36:34.999Z</time></trkpt><trkpt lat="45.71240482757241" lon="11.384823384765387"><ele>173.0</ele><time>2026-04-26T10:36:35.999Z</time></trkpt><trkpt lat="45.71255981104471" lon="11.384958597822209"><ele>173.66666666666666</ele><time>2026-04-26T10:36:36.999Z</time></trkpt><trkpt lat="45.71271216130798" lon="11.385088246070652"><ele>174.33333333333334</ele><time>2026-04-26T10:36:37.999Z</time></trkpt><trkpt lat="45.71285187669638" lon="11.385212896947227"><ele>175.0</ele><time>2026-04-26T10:36:38.999Z</time></trkpt><trkpt lat="45.71299821710651" lon="11.385341240745973"><ele>175.0</ele><time>2026-04-26T10:36:40.019Z</time></trkpt><trkpt lat="45.71314267989883" lon="11.385466872186068"><ele>175.0</ele><time>2026-04-26T10:36:41.018Z</time></trkpt><trkpt lat="45.71328904354987" lon="11.385594849322468"><ele>175.0</ele><time>2026-04-26T10:36:42.016Z</time></trkpt><trkpt lat="45.713435810370406" lon="11.385730024718411"><ele>176.5</ele><time>2026-04-26T10:36:43.019Z</time></trkpt><trkpt lat="45.71357397495067" lon="11.385859196867644"><ele>178.0</ele><time>2026-04-26T10:36:44.018Z</time></trkpt><trkpt lat="45.713722228748445" lon="11.385983414101004"><ele>179.5</ele><time>2026-04-26T10:36:45.022Z</time></trkpt><trkpt lat="45.713815094521635" lon="11.38597551465625"><ele>181.0</ele><time>2026-04-26T10:36:45.999Z</time></trkpt><trkpt lat="45.71377134942629" lon="11.386136118632763"><ele>181.0</ele><time>2026-04-26T10:36:46.999Z</time></trkpt><trkpt lat="45.71386548931658" lon="11.38627204925519"><ele>181.0</ele><time>2026-04-26T10:36:47.999Z</time></trkpt><trkpt lat="45.71392742581941" lon="11.386416999519822"><ele>181.0</ele><time>2026-04-26T10:36:48.999Z</time></trkpt><trkpt lat="45.71396704591233" lon="11.386581726949776"><ele>181.0</ele><time>2026-04-26T10:36:49.999Z</time></trkpt><trkpt lat="45.71401157604511" lon="11.386755245312813"><ele>180.0</ele><time>2026-04-26T10:36:50.999Z</time></trkpt><trkpt lat="45.71401973901301" lon="11.386924411323465"><ele>179.0</ele><time>2026-04-26T10:36:51.999Z</time></trkpt><trkpt lat="45.71399813519594" lon="11.387080095474099"><ele>178.0</ele><time>2026-04-26T10:36:52.999Z</time></trkpt><trkpt lat="45.71395972235505" lon="11.387236239520844"><ele>177.0</ele><time>2026-04-26T10:36:53.999Z</time></trkpt><trkpt lat="45.71390933670497" lon="11.38737128631403"><ele>176.8</ele><time>2026-04-26T10:36:54.999Z</time></trkpt><trkpt lat="45.71384493885123" lon="11.387477345322322"><ele>176.6</ele><time>2026-04-26T10:36:55.999Z</time></trkpt><trkpt lat="45.71376394297955" lon="11.387553590061504"><ele>176.4</ele><time>2026-04-26T10:36:56.999Z</time></trkpt><trkpt lat="45.71366367151614" lon="11.387572095588528"><ele>176.20000000000002</ele><time>2026-04-26T10:36:57.999Z</time></trkpt><trkpt lat="45.713562322774415" lon="11.387546287896166"><ele>176.0</ele><time>2026-04-26T10:36:58.999Z</time></trkpt><trkpt lat="45.71347053244507" lon="11.387470764745961"><ele>176.0</ele><time>2026-04-26T10:36:59.999Z</time></trkpt><trkpt lat="45.71340183928628" lon="11.387355964344797"><ele>176.0</ele><time>2026-04-26T10:37:00.999Z</time></trkpt><trkpt lat="45.71336164312142" lon="11.38721528612408"><ele>176.0</ele><time>2026-04-26T10:37:01.999Z</time></trkpt><trkpt lat="45.71336616816043" lon="11.3870532351452"><ele>176.0</ele><time>2026-04-26T10:37:02.999Z</time></trkpt><trkpt lat="45.71340523127082" lon="11.38690244033483"><ele>176.0</ele><time>2026-04-26T10:37:03.999Z</time></trkpt><trkpt lat="45.71348146920649" lon="11.386767545766231"><ele>176.25</ele><time>2026-04-26T10:37:04.999Z</time></trkpt><trkpt lat="45.71358148998829" lon="11.386650491666453"><ele>176.5</ele><time>2026-04-26T10:37:05.999Z</time></trkpt><trkpt lat="45.71369624066273" lon="11.386529266612495"><ele>176.75</ele><time>2026-04-26T10:37:06.998Z</time></trkpt><trkpt lat="45.713807684128355" lon="11.386410742414643"><ele>177.0</ele><time>2026-04-26T10:37:07.998Z</time></trkpt><trkpt lat="45.71393389135895" lon="11.386294917052695"><ele>178.33333333333334</ele><time>2026-04-26T10:37:08.998Z</time></trkpt><trkpt lat="45.71406058788563" lon="11.38617969826884"><ele>179.66666666666669</ele><time>2026-04-26T10:37:09.998Z</time></trkpt><trkpt lat="45.714199647726105" lon="11.386076066925174"><ele>181.0</ele><time>2026-04-26T10:37:10.998Z</time></trkpt><trkpt lat="45.714343181221196" lon="11.385989887207575"><ele>179.33333333333334</ele><time>2026-04-26T10:37:11.998Z</time></trkpt><trkpt lat="45.71450549761134" lon="11.385904226975365"><ele>177.66666666666666</ele><time>2026-04-26T10:37:12.998Z</time></trkpt><trkpt lat="45.71466541301767" lon="11.38584053048944"><ele>176.0</ele><time>2026-04-26T10:37:13.998Z</time></trkpt><trkpt lat="45.71483357741087" lon="11.385785930050597"><ele>176.0</ele><time>2026-04-26T10:37:14.998Z</time></trkpt><trkpt lat="45.715005778737385" lon="11.385733828323987"><ele>176.0</ele><time>2026-04-26T10:37:15.998Z</time></trkpt><trkpt lat="45.715177082322946" lon="11.385686800462597"><ele>176.0</ele><time>2026-04-26T10:37:16.998Z</time></trkpt><trkpt lat="45.71533913723245" lon="11.385638594900996"><ele>176.0</ele><time>2026-04-26T10:37:17.998Z</time></trkpt><trkpt lat="45.715484224918185" lon="11.385591444177338"><ele>176.0</ele><time>2026-04-26T10:37:18.998Z</time></trkpt><trkpt lat="45.715614305438095" lon="11.385551728857077"><ele>176.0</ele><time>2026-04-26T10:37:19.998Z</time></trkpt><trkpt lat="45.71572993334794" lon="11.385528942273183"><ele>176.0</ele><time>2026-04-26T10:37:20.998Z</time></trkpt><trkpt lat="45.7158299411109" lon="11.3855266525056"><ele>176.0</ele><time>2026-04-26T10:37:21.998Z</time></trkpt><trkpt lat="45.71591161525392" lon="11.385548146647235"><ele>176.0</ele><time>2026-04-26T10:37:22.998Z</time></trkpt><trkpt lat="45.71600910933937" lon="11.385594407539148"><ele>176.0</ele><time>2026-04-26T10:37:24.998Z</time></trkpt><trkpt lat="45.71613627013676" lon="11.385685214437451"><ele>176.0</ele><time>2026-04-26T10:37:26.998Z</time></trkpt><trkpt lat="45.716207974206114" lon="11.385776180625323"><ele>176.0</ele><time>2026-04-26T10:37:27.998Z</time></trkpt><trkpt lat="45.716276919742" lon="11.38590217666555"><ele>176.25</ele><time>2026-04-26T10:37:28.998Z</time></trkpt><trkpt lat="45.71633340322569" lon="11.386046764982789"><ele>176.5</ele><time>2026-04-26T10:37:29.998Z</time></trkpt><trkpt lat="45.716379396993844" lon="11.386218021868455"><ele>176.75</ele><time>2026-04-26T10:37:30.998Z</time></trkpt><trkpt lat="45.71641452588503" lon="11.386407405738616"><ele>177.0</ele><time>2026-04-26T10:37:31.998Z</time></trkpt><trkpt lat="45.716453842561286" lon="11.386600627258165"><ele>177.0</ele><time>2026-04-26T10:37:32.998Z</time></trkpt><trkpt lat="45.71649383744263" lon="11.386784876527638"><ele>177.0</ele><time>2026-04-26T10:37:33.998Z</time></trkpt><trkpt lat="45.71652984967873" lon="11.386960787287846"><ele>177.0</ele><time>2026-04-26T10:37:34.998Z</time></trkpt><trkpt lat="45.716560660560035" lon="11.387124066117932"><ele>177.0</ele><time>2026-04-26T10:37:35.998Z</time></trkpt><trkpt lat="45.716583735690804" lon="11.387284495155049"><ele>177.0</ele><time>2026-04-26T10:37:37Z</time></trkpt><trkpt lat="45.716582375347464" lon="11.387448504954161"><ele>177.0</ele><time>2026-04-26T10:37:38Z</time></trkpt><trkpt lat="45.71655111476761" lon="11.387612593375856"><ele>177.0</ele><time>2026-04-26T10:37:39Z</time></trkpt><trkpt lat="45.71652329732481" lon="11.387760934490565"><ele>177.0</ele><time>2026-04-26T10:37:40Z</time></trkpt><trkpt lat="45.71654896813945" lon="11.387894555307312"><ele>177.0</ele><time>2026-04-26T10:37:41Z</time></trkpt><trkpt lat="45.71660148563484" lon="11.388005812953995"><ele>177.0</ele><time>2026-04-26T10:37:42Z</time></trkpt><trkpt lat="45.71667862682109" lon="11.388077990170165"><ele>177.0</ele><time>2026-04-26T10:37:43Z</time></trkpt><trkpt lat="45.71676076078233" lon="11.388147320411159"><ele>177.0</ele><time>2026-04-26T10:37:44Z</time></trkpt><trkpt lat="45.71687463706002" lon="11.388110231917041"><ele>177.0</ele><time>2026-04-26T10:37:45Z</time></trkpt><trkpt lat="45.716957730880644" lon="11.388016649551272"><ele>177.0</ele><time>2026-04-26T10:37:46Z</time></trkpt><trkpt lat="45.717032899967826" lon="11.387919703549741"><ele>177.0</ele><time>2026-04-26T10:37:47Z</time></trkpt><trkpt lat="45.71710399433634" lon="11.387805177423596"><ele>177.0</ele><time>2026-04-26T10:37:48Z</time></trkpt><trkpt lat="45.717180466624384" lon="11.3876880516605"><ele>177.0</ele><time>2026-04-26T10:37:49Z</time></trkpt><trkpt lat="45.7172759057338" lon="11.387598906994684"><ele>177.0</ele><time>2026-04-26T10:37:50Z</time></trkpt><trkpt lat="45.71738587454666" lon="11.387573054661292"><ele>177.0</ele><time>2026-04-26T10:37:51Z</time></trkpt><trkpt lat="45.717506186686386" lon="11.387568505464799"><ele>177.0</ele><time>2026-04-26T10:37:52Z</time></trkpt><trkpt lat="45.71765045077105" lon="11.387583455146087"><ele>177.0</ele><time>2026-04-26T10:37:53Z</time></trkpt><trkpt lat="45.717813282286" lon="11.387597128527856"><ele>177.0</ele><time>2026-04-26T10:37:54Z</time></trkpt><trkpt lat="45.717995793385235" lon="11.387606080423295"><ele>177.33333333333334</ele><time>2026-04-26T10:37:55Z</time></trkpt><trkpt lat="45.71818421500453" lon="11.38761568198744"><ele>177.66666666666669</ele><time>2026-04-26T10:37:56Z</time></trkpt><trkpt lat="45.71838646262647" lon="11.387634382570422"><ele>178.0</ele><time>2026-04-26T10:37:57Z</time></trkpt><trkpt lat="45.71860274077828" lon="11.387650932510248"><ele>178.33333333333334</ele><time>2026-04-26T10:37:58Z</time></trkpt><trkpt lat="45.718824530946286" lon="11.38766825843027"><ele>178.66666666666666</ele><time>2026-04-26T10:37:59Z</time></trkpt><trkpt lat="45.719050389585824" lon="11.38768658477025"><ele>179.0</ele><time>2026-04-26T10:38:00Z</time></trkpt><trkpt lat="45.71928615516372" lon="11.387703858944429"><ele>180.5</ele><time>2026-04-26T10:38:01Z</time></trkpt><trkpt lat="45.71952405074484" lon="11.387717693360829"><ele>182.0</ele><time>2026-04-26T10:38:02Z</time></trkpt><trkpt lat="45.71976148890467" lon="11.38773238601308"><ele>182.0</ele><time>2026-04-26T10:38:03Z</time></trkpt><trkpt lat="45.7200006469697" lon="11.38774324352963"><ele>182.0</ele><time>2026-04-26T10:38:04Z</time></trkpt><trkpt lat="45.72023818361001" lon="11.387759456982455"><ele>181.0</ele><time>2026-04-26T10:38:05Z</time></trkpt><trkpt lat="45.72047524995959" lon="11.387773932584937"><ele>180.0</ele><time>2026-04-26T10:38:06Z</time></trkpt><trkpt lat="45.72070252144917" lon="11.387791204269075"><ele>180.0</ele><time>2026-04-26T10:38:07Z</time></trkpt><trkpt lat="45.72092581300198" lon="11.387807294973193"><ele>180.0</ele><time>2026-04-26T10:38:08Z</time></trkpt><trkpt lat="45.721147537317435" lon="11.38782403113255"><ele>180.0</ele><time>2026-04-26T10:38:09Z</time></trkpt><trkpt lat="45.72136285781387" lon="11.38783763450291"><ele>180.33333333333334</ele><time>2026-04-26T10:38:10Z</time></trkpt><trkpt lat="45.72157749514602" lon="11.387851247726655"><ele>180.66666666666669</ele><time>2026-04-26T10:38:11Z</time></trkpt><trkpt lat="45.72178569997021" lon="11.387863998382583"><ele>181.0</ele><time>2026-04-26T10:38:12Z</time></trkpt><trkpt lat="45.72198101124777" lon="11.387878105763097"><ele>182.66666666666669</ele><time>2026-04-26T10:38:13Z</time></trkpt><trkpt lat="45.72216989569902" lon="11.387888268188537"><ele>184.33333333333334</ele><time>2026-04-26T10:38:14Z</time></trkpt><trkpt lat="45.72234761061744" lon="11.38790033278537"><ele>186.0</ele><time>2026-04-26T10:38:15Z</time></trkpt><trkpt lat="45.722531921307215" lon="11.38791018837591"><ele>186.0</ele><time>2026-04-26T10:38:15.999Z</time></trkpt><trkpt lat="45.72272469572974" lon="11.38792267616038"><ele>186.0</ele><time>2026-04-26T10:38:16.999Z</time></trkpt><trkpt lat="45.722922180860735" lon="11.387989676403633"><ele>186.0</ele><time>2026-04-26T10:38:17.999Z</time></trkpt><trkpt lat="45.72312242655635" lon="11.388040884157586"><ele>185.33333333333334</ele><time>2026-04-26T10:38:18.999Z</time></trkpt><trkpt lat="45.72334640493498" lon="11.388028941959954"><ele>184.66666666666669</ele><time>2026-04-26T10:38:19.999Z</time></trkpt><trkpt lat="45.723571676642784" lon="11.38802059809341"><ele>184.0</ele><time>2026-04-26T10:38:20.999Z</time></trkpt><trkpt lat="45.72379466544204" lon="11.388011709374455"><ele>184.0</ele><time>2026-04-26T10:38:21.999Z</time></trkpt><trkpt lat="45.72401555536116" lon="11.387998679039477"><ele>184.0</ele><time>2026-04-26T10:38:22.999Z</time></trkpt><trkpt lat="45.7242343809781" lon="11.387987681215861"><ele>184.0</ele><time>2026-04-26T10:38:23.999Z</time></trkpt><trkpt lat="45.7244569110828" lon="11.387879862954499"><ele>186.0</ele><time>2026-04-26T10:38:24.999Z</time></trkpt><trkpt lat="45.72468363217246" lon="11.387871755949"><ele>188.0</ele><time>2026-04-26T10:38:25.999Z</time></trkpt><trkpt lat="45.724911135244234" lon="11.387863348157044"><ele>188.0</ele><time>2026-04-26T10:38:26.999Z</time></trkpt><trkpt lat="45.72513196648065" lon="11.387849977603787"><ele>188.0</ele><time>2026-04-26T10:38:27.999Z</time></trkpt><trkpt lat="45.725361349356035" lon="11.387936969385592"><ele>188.0</ele><time>2026-04-26T10:38:28.999Z</time></trkpt><trkpt lat="45.725590186697445" lon="11.387928288531606"><ele>188.0</ele><time>2026-04-26T10:38:29.999Z</time></trkpt><trkpt lat="45.725818940893525" lon="11.387918105954673"><ele>188.0</ele><time>2026-04-26T10:38:30.999Z</time></trkpt><trkpt lat="45.726049905619554" lon="11.38790783273842"><ele>188.0</ele><time>2026-04-26T10:38:31.999Z</time></trkpt><trkpt lat="45.72628575555254" lon="11.387894497568647"><ele>190.5</ele><time>2026-04-26T10:38:32.999Z</time></trkpt><trkpt lat="45.726498299298" lon="11.387885677072955"><ele>193.0</ele><time>2026-04-26T10:38:33.999Z</time></trkpt><trkpt lat="45.72672414774415" lon="11.387777152556287"><ele>193.0</ele><time>2026-04-26T10:38:34.999Z</time></trkpt><trkpt lat="45.72694710753945" lon="11.387771921793794"><ele>193.0</ele><time>2026-04-26T10:38:35.999Z</time></trkpt><trkpt lat="45.72717267789864" lon="11.387765190572017"><ele>193.0</ele><time>2026-04-26T10:38:36.999Z</time></trkpt><trkpt lat="45.727394528658145" lon="11.38775881013981"><ele>193.0</ele><time>2026-04-26T10:38:37.999Z</time></trkpt><trkpt lat="45.72761121141439" lon="11.38774527363765"><ele>193.0</ele><time>2026-04-26T10:38:38.999Z</time></trkpt><trkpt lat="45.72783795638152" lon="11.387730063834594"><ele>193.0</ele><time>2026-04-26T10:38:39.999Z</time></trkpt><trkpt lat="45.72807035071364" lon="11.387718020148295"><ele>193.66666666666666</ele><time>2026-04-26T10:38:40.999Z</time></trkpt><trkpt lat="45.72829645834399" lon="11.387711791488517"><ele>194.33333333333331</ele><time>2026-04-26T10:38:41.999Z</time></trkpt><trkpt lat="45.72851837192399" lon="11.387696334582303"><ele>195.0</ele><time>2026-04-26T10:38:42.999Z</time></trkpt><trkpt lat="45.728737195584294" lon="11.387681302989014"><ele>195.5</ele><time>2026-04-26T10:38:43.999Z</time></trkpt><trkpt lat="45.72896152216376" lon="11.387669383067047"><ele>196.0</ele><time>2026-04-26T10:38:44.999Z</time></trkpt><trkpt lat="45.72919235122539" lon="11.387658527044321"><ele>197.0</ele><time>2026-04-26T10:38:45.999Z</time></trkpt><trkpt lat="45.72942220948407" lon="11.387645572534453"><ele>198.0</ele><time>2026-04-26T10:38:46.999Z</time></trkpt><trkpt lat="45.72964965487469" lon="11.387633003864108"><ele>198.0</ele><time>2026-04-26T10:38:47.999Z</time></trkpt><trkpt lat="45.72986895776928" lon="11.387617780602783"><ele>198.0</ele><time>2026-04-26T10:38:48.999Z</time></trkpt><trkpt lat="45.730085930408684" lon="11.387596753850207"><ele>198.0</ele><time>2026-04-26T10:38:49.999Z</time></trkpt><trkpt lat="45.73029677280419" lon="11.387554563982668"><ele>198.33333333333331</ele><time>2026-04-26T10:38:50.999Z</time></trkpt><trkpt lat="45.73050263860926" lon="11.38749015360627"><ele>198.66666666666666</ele><time>2026-04-26T10:38:51.999Z</time></trkpt><trkpt lat="45.73069512732928" lon="11.387404887445081"><ele>199.0</ele><time>2026-04-26T10:38:52.999Z</time></trkpt><trkpt lat="45.730875030712234" lon="11.387321386589756"><ele>199.0</ele><time>2026-04-26T10:38:53.999Z</time></trkpt><trkpt lat="45.731038507312675" lon="11.387239753500715"><ele>199.0</ele><time>2026-04-26T10:38:54.999Z</time></trkpt><trkpt lat="45.731182399557255" lon="11.387148952824965"><ele>199.0</ele><time>2026-04-26T10:38:55.999Z</time></trkpt><trkpt lat="45.73131355221697" lon="11.38707695979299"><ele>199.25</ele><time>2026-04-26T10:38:56.999Z</time></trkpt><trkpt lat="45.73151357689038" lon="11.387217812469935"><ele>199.5</ele><time>2026-04-26T10:38:57.999Z</time></trkpt><trkpt lat="45.73161263084072" lon="11.387174580567354"><ele>199.75</ele><time>2026-04-26T10:38:58.999Z</time></trkpt><trkpt lat="45.731695676220845" lon="11.387136560742414"><ele>200.0</ele><time>2026-04-26T10:38:59.999Z</time></trkpt><trkpt lat="45.73176695572001" lon="11.38709788334775"><ele>200.33333333333334</ele><time>2026-04-26T10:39:00.999Z</time></trkpt><trkpt lat="45.731827514073515" lon="11.387063396681185"><ele>200.66666666666669</ele><time>2026-04-26T10:39:01.999Z</time></trkpt><trkpt lat="45.73193128516887" lon="11.387003932442182"><ele>201.0</ele><time>2026-04-26T10:39:03.999Z</time></trkpt><trkpt lat="45.73201152653572" lon="11.386958744291343"><ele>201.33333333333331</ele><time>2026-04-26T10:39:05.999Z</time></trkpt><trkpt lat="45.73210115406618" lon="11.386895592296659"><ele>201.66666666666666</ele><time>2026-04-26T10:40:04Z</time></trkpt><trkpt lat="45.73217583075247" lon="11.386906604280252"><ele>202.0</ele><time>2026-04-26T10:40:05Z</time></trkpt><trkpt lat="45.73226185839695" lon="11.386928705923056"><ele>202.2</ele><time>2026-04-26T10:40:06Z</time></trkpt><trkpt lat="45.73233542681151" lon="11.386967209439373"><ele>202.39999999999998</ele><time>2026-04-26T10:40:07Z</time></trkpt><trkpt lat="45.73238675464461" lon="11.387052068299907"><ele>202.60000000000002</ele><time>2026-04-26T10:40:08Z</time></trkpt><trkpt lat="45.73241996911164" lon="11.387169037189603"><ele>202.8</ele><time>2026-04-26T10:40:09Z</time></trkpt><trkpt lat="45.73243908745191" lon="11.387317614017844"><ele>203.0</ele><time>2026-04-26T10:40:10Z</time></trkpt><trkpt lat="45.732474574826476" lon="11.387479091419488"><ele>203.0</ele><time>2026-04-26T10:40:11Z</time></trkpt><trkpt lat="45.732522211535276" lon="11.387656081169327"><ele>203.0</ele><time>2026-04-26T10:40:12Z</time></trkpt><trkpt lat="45.73257315173764" lon="11.387852116989706"><ele>203.0</ele><time>2026-04-26T10:40:13Z</time></trkpt><trkpt lat="45.7326266002648" lon="11.388064555236847"><ele>203.0</ele><time>2026-04-26T10:40:14Z</time></trkpt><trkpt lat="45.73268550489488" lon="11.388292892636743"><ele>203.33333333333334</ele><time>2026-04-26T10:40:15Z</time></trkpt><trkpt lat="45.73275105199578" lon="11.388546669016288"><ele>203.66666666666669</ele><time>2026-04-26T10:40:16Z</time></trkpt><trkpt lat="45.732821221554154" lon="11.388816115595578"><ele>204.0</ele><time>2026-04-26T10:40:17Z</time></trkpt><trkpt lat="45.73289418843513" lon="11.38909799933197"><ele>204.0</ele><time>2026-04-26T10:40:18Z</time></trkpt><trkpt lat="45.732966042204474" lon="11.389384702445783"><ele>204.0</ele><time>2026-04-26T10:40:19Z</time></trkpt><trkpt lat="45.73303962537571" lon="11.389672968711062"><ele>204.0</ele><time>2026-04-26T10:40:20Z</time></trkpt><trkpt lat="45.7331172289566" lon="11.38997273769688"><ele>205.0</ele><time>2026-04-26T10:40:21Z</time></trkpt><trkpt lat="45.73319654624468" lon="11.390280224184016"><ele>206.0</ele><time>2026-04-26T10:40:22Z</time></trkpt><trkpt lat="45.73327977085644" lon="11.390595764072645"><ele>204.0</ele><time>2026-04-26T10:40:23Z</time></trkpt><trkpt lat="45.73335893175938" lon="11.390911315604303"><ele>202.0</ele><time>2026-04-26T10:40:24Z</time></trkpt><trkpt lat="45.73343577320488" lon="11.391226088151058"><ele>200.66666666666666</ele><time>2026-04-26T10:40:25Z</time></trkpt><trkpt lat="45.73351147339652" lon="11.391524325009197"><ele>199.33333333333331</ele><time>2026-04-26T10:40:26Z</time></trkpt><trkpt lat="45.733587804130664" lon="11.391821992246273"><ele>198.0</ele><time>2026-04-26T10:40:26.999Z</time></trkpt><trkpt lat="45.73366443969958" lon="11.392120275505174"><ele>199.0</ele><time>2026-04-26T10:40:27.999Z</time></trkpt><trkpt lat="45.73373898842611" lon="11.392418134023114"><ele>200.0</ele><time>2026-04-26T10:40:28.999Z</time></trkpt><trkpt lat="45.733815674573556" lon="11.392714405691816"><ele>201.0</ele><time>2026-04-26T10:40:29.999Z</time></trkpt><trkpt lat="45.733894285789454" lon="11.393012952973365"><ele>201.0</ele><time>2026-04-26T10:40:30.999Z</time></trkpt><trkpt lat="45.73397420901488" lon="11.393315391937666"><ele>201.0</ele><time>2026-04-26T10:40:31.999Z</time></trkpt><trkpt lat="45.73404855049048" lon="11.393615185166475"><ele>201.0</ele><time>2026-04-26T10:40:32.999Z</time></trkpt><trkpt lat="45.734125618143366" lon="11.393911243219712"><ele>200.0</ele><time>2026-04-26T10:40:33.999Z</time></trkpt><trkpt lat="45.734204309871096" lon="11.394206133238544"><ele>199.0</ele><time>2026-04-26T10:40:34.999Z</time></trkpt><trkpt lat="45.73428174928226" lon="11.394501265090916"><ele>198.0</ele><time>2026-04-26T10:40:35.999Z</time></trkpt><trkpt lat="45.734356387186324" lon="11.39479573815708"><ele>196.66666666666669</ele><time>2026-04-26T10:40:36.999Z</time></trkpt><trkpt lat="45.73443151327412" lon="11.395085725131628"><ele>195.33333333333334</ele><time>2026-04-26T10:40:37.999Z</time></trkpt><trkpt lat="45.7345068804842" lon="11.395375534587048"><ele>194.0</ele><time>2026-04-26T10:40:38.999Z</time></trkpt><trkpt lat="45.73458134676884" lon="11.395669145008656"><ele>194.0</ele><time>2026-04-26T10:40:39.999Z</time></trkpt><trkpt lat="45.73465704215171" lon="11.395966818583231"><ele>194.0</ele><time>2026-04-26T10:40:40.999Z</time></trkpt><trkpt lat="45.734731957992224" lon="11.396258529205591"><ele>194.0</ele><time>2026-04-26T10:40:41.999Z</time></trkpt><trkpt lat="45.7348067835551" lon="11.396551175071716"><ele>193.66666666666669</ele><time>2026-04-26T10:40:42.999Z</time></trkpt><trkpt lat="45.73488300455458" lon="11.396843835921274"><ele>193.33333333333331</ele><time>2026-04-26T10:40:43.999Z</time></trkpt><trkpt lat="45.734958106653536" lon="11.39713286492606"><ele>193.0</ele><time>2026-04-26T10:40:44.999Z</time></trkpt><trkpt lat="45.735032228917156" lon="11.397418190908828"><ele>192.66666666666666</ele><time>2026-04-26T10:40:45.999Z</time></trkpt><trkpt lat="45.73510402019667" lon="11.39770688534171"><ele>192.33333333333331</ele><time>2026-04-26T10:40:46.999Z</time></trkpt><trkpt lat="45.73517621427628" lon="11.397991728045744"><ele>192.0</ele><time>2026-04-26T10:40:47.999Z</time></trkpt><trkpt lat="45.73524676147056" lon="11.39824527845854"><ele>193.33333333333331</ele><time>2026-04-26T10:40:48.999Z</time></trkpt><trkpt lat="45.73528858688844" lon="11.398415714564631"><ele>194.66666666666666</ele><time>2026-04-26T10:40:49.999Z</time></trkpt><trkpt lat="45.73533224617927" lon="11.398586521502732"><ele>196.0</ele><time>2026-04-26T10:40:50.999Z</time></trkpt><trkpt lat="45.73540552346694" lon="11.3988732019492"><ele>196.0</ele><time>2026-04-26T10:40:51.999Z</time></trkpt><trkpt lat="45.73553032498445" lon="11.399380271992891"><ele>196.0</ele><time>2026-04-26T10:40:52.999Z</time></trkpt><trkpt lat="45.7356049384876" lon="11.399671277272722"><ele>195.33333333333331</ele><time>2026-04-26T10:40:53.999Z</time></trkpt><trkpt lat="45.735679969175415" lon="11.399962509938366"><ele>194.66666666666669</ele><time>2026-04-26T10:40:54.999Z</time></trkpt><trkpt lat="45.73575450255711" lon="11.400253333879405"><ele>194.0</ele><time>2026-04-26T10:40:55.999Z</time></trkpt><trkpt lat="45.73582574026154" lon="11.400536572996778"><ele>192.66666666666669</ele><time>2026-04-26T10:40:56.999Z</time></trkpt><trkpt lat="45.73589596755178" lon="11.400812629805191"><ele>191.33333333333334</ele><time>2026-04-26T10:40:57.999Z</time></trkpt><trkpt lat="45.73596782069828" lon="11.401079233790297"><ele>190.0</ele><time>2026-04-26T10:40:58.999Z</time></trkpt><trkpt lat="45.73603977200848" lon="11.401343528990264"><ele>191.0</ele><time>2026-04-26T10:40:59.999Z</time></trkpt><trkpt lat="45.73610908042563" lon="11.40158646806755"><ele>192.0</ele><time>2026-04-26T10:41:00.999Z</time></trkpt><trkpt lat="45.73616940435024" lon="11.401817909137916"><ele>193.0</ele><time>2026-04-26T10:41:01.999Z</time></trkpt><trkpt lat="45.73622941685749" lon="11.402032379960586"><ele>192.5</ele><time>2026-04-26T10:41:02.999Z</time></trkpt><trkpt lat="45.736284316292654" lon="11.402230695165002"><ele>192.0</ele><time>2026-04-26T10:41:03.999Z</time></trkpt><trkpt lat="45.7363366681489" lon="11.402411215149678"><ele>191.5</ele><time>2026-04-26T10:41:04.999Z</time></trkpt><trkpt lat="45.736382262520074" lon="11.402579167845769"><ele>191.0</ele><time>2026-04-26T10:41:05.999Z</time></trkpt><trkpt lat="45.73642297885616" lon="11.402735378223031"><ele>191.0</ele><time>2026-04-26T10:41:06.999Z</time></trkpt><trkpt lat="45.736462278963174" lon="11.402882989609688"><ele>191.0</ele><time>2026-04-26T10:41:07.999Z</time></trkpt><trkpt lat="45.73648528573614" lon="11.403019591936225"><ele>191.0</ele><time>2026-04-26T10:41:08.999Z</time></trkpt><trkpt lat="45.73648028140447" lon="11.403170878482817"><ele>191.0</ele><time>2026-04-26T10:41:09.999Z</time></trkpt><trkpt lat="45.73644312781898" lon="11.403327710813047"><ele>191.0</ele><time>2026-04-26T10:41:10.999Z</time></trkpt><trkpt lat="45.73637939865252" lon="11.403483026906276"><ele>191.0</ele><time>2026-04-26T10:41:11.999Z</time></trkpt><trkpt lat="45.73632347183283" lon="11.40362849449845"><ele>191.0</ele><time>2026-04-26T10:41:12.999Z</time></trkpt><trkpt lat="45.7362852126716" lon="11.403778883010222"><ele>191.0</ele><time>2026-04-26T10:41:13.999Z</time></trkpt><trkpt lat="45.736259634292104" lon="11.403924575565005"><ele>191.0</ele><time>2026-04-26T10:41:14.999Z</time></trkpt><trkpt lat="45.73626870624778" lon="11.404052066218787"><ele>191.0</ele><time>2026-04-26T10:41:15.999Z</time></trkpt><trkpt lat="45.73628612194803" lon="11.404163626966133"><ele>191.16666666666666</ele><time>2026-04-26T10:41:16.999Z</time></trkpt><trkpt lat="45.7362968087254" lon="11.40427428968087"><ele>191.33333333333331</ele><time>2026-04-26T10:41:17.999Z</time></trkpt><trkpt lat="45.73630630887298" lon="11.404394594627288"><ele>191.5</ele><time>2026-04-26T10:41:18.999Z</time></trkpt><trkpt lat="45.736328299965834" lon="11.404514059000592"><ele>191.66666666666666</ele><time>2026-04-26T10:41:19.999Z</time></trkpt><trkpt lat="45.73637907326266" lon="11.404620757195346"><ele>191.83333333333334</ele><time>2026-04-26T10:41:20.999Z</time></trkpt><trkpt lat="45.73645628925171" lon="11.40469645679306"><ele>192.0</ele><time>2026-04-26T10:41:21.999Z</time></trkpt><trkpt lat="45.73655268569655" lon="11.404729546516348"><ele>192.2</ele><time>2026-04-26T10:41:22.999Z</time></trkpt><trkpt lat="45.73665465324994" lon="11.404725551818517"><ele>192.39999999999998</ele><time>2026-04-26T10:41:23.998Z</time></trkpt><trkpt lat="45.73676196365788" lon="11.404715106409693"><ele>192.60000000000002</ele><time>2026-04-26T10:41:24.998Z</time></trkpt><trkpt lat="45.73685459006422" lon="11.404742648816159"><ele>192.8</ele><time>2026-04-26T10:41:25.998Z</time></trkpt><trkpt lat="45.736938289932986" lon="11.404812917113054"><ele>193.0</ele><time>2026-04-26T10:41:26.998Z</time></trkpt><trkpt lat="45.73700642658739" lon="11.404915593892747"><ele>194.75</ele><time>2026-04-26T10:41:27.998Z</time></trkpt><trkpt lat="45.73705914308055" lon="11.405047065995646"><ele>196.5</ele><time>2026-04-26T10:41:28.998Z</time></trkpt><trkpt lat="45.73710170115976" lon="11.40520126678991"><ele>198.25</ele><time>2026-04-26T10:41:29.998Z</time></trkpt><trkpt lat="45.73714458355626" lon="11.405366781879778"><ele>200.0</ele><time>2026-04-26T10:41:30.998Z</time></trkpt><trkpt lat="45.73719019953575" lon="11.405543890124639"><ele>200.0</ele><time>2026-04-26T10:41:31.998Z</time></trkpt><trkpt lat="45.7372413262144" lon="11.40573669260728"><ele>200.0</ele><time>2026-04-26T10:41:32.998Z</time></trkpt><trkpt lat="45.737297386320655" lon="11.405948771150557"><ele>200.0</ele><time>2026-04-26T10:41:33.998Z</time></trkpt><trkpt lat="45.73736021883473" lon="11.406182899261378"><ele>200.0</ele><time>2026-04-26T10:41:34.998Z</time></trkpt><trkpt lat="45.737426873052236" lon="11.406427951572457"><ele>200.0</ele><time>2026-04-26T10:41:35.998Z</time></trkpt><trkpt lat="45.7374922102553" lon="11.406662488372287"><ele>200.0</ele><time>2026-04-26T10:41:36.998Z</time></trkpt><trkpt lat="45.73755005431588" lon="11.406878810110188"><ele>200.0</ele><time>2026-04-26T10:41:37.998Z</time></trkpt><trkpt lat="45.73760573043373" lon="11.40709790075017"><ele>200.0</ele><time>2026-04-26T10:41:38.998Z</time></trkpt><trkpt lat="45.737664362057046" lon="11.407327959717051"><ele>200.0</ele><time>2026-04-26T10:41:39.998Z</time></trkpt><trkpt lat="45.73772522538997" lon="11.40755841215955"><ele>201.0</ele><time>2026-04-26T10:41:40.998Z</time></trkpt><trkpt lat="45.73778880160456" lon="11.40778746525568"><ele>202.0</ele><time>2026-04-26T10:41:41.998Z</time></trkpt><trkpt lat="45.73785103342523" lon="11.408025497145033"><ele>203.0</ele><time>2026-04-26T10:41:42.998Z</time></trkpt><trkpt lat="45.73791259734606" lon="11.408261730229906"><ele>203.0</ele><time>2026-04-26T10:41:43.998Z</time></trkpt><trkpt lat="45.737981119271225" lon="11.408502409222491"><ele>203.0</ele><time>2026-04-26T10:41:44.998Z</time></trkpt><trkpt lat="45.73805916851849" lon="11.408747158652892"><ele>203.0</ele><time>2026-04-26T10:41:45.998Z</time></trkpt><trkpt lat="45.73816183839436" lon="11.409008470816085"><ele>202.0</ele><time>2026-04-26T10:41:46.998Z</time></trkpt><trkpt lat="45.73828816897483" lon="11.409267610923338"><ele>201.0</ele><time>2026-04-26T10:41:47.998Z</time></trkpt><trkpt lat="45.738436225890815" lon="11.409537878618233"><ele>201.5</ele><time>2026-04-26T10:41:49Z</time></trkpt><trkpt lat="45.73858238611549" lon="11.409809312770049"><ele>202.0</ele><time>2026-04-26T10:41:50Z</time></trkpt><trkpt lat="45.738732334555586" lon="11.410096198429375"><ele>202.0</ele><time>2026-04-26T10:41:51Z</time></trkpt><trkpt lat="45.738878687444" lon="11.41038929003825"><ele>202.0</ele><time>2026-04-26T10:41:52Z</time></trkpt><trkpt lat="45.73902057851123" lon="11.410680789433913"><ele>202.0</ele><time>2026-04-26T10:41:53Z</time></trkpt><trkpt lat="45.7391642361112" lon="11.410962833353784"><ele>202.0</ele><time>2026-04-26T10:41:54Z</time></trkpt><trkpt lat="45.739308159289" lon="11.411232874346817"><ele>202.66666666666666</ele><time>2026-04-26T10:41:55Z</time></trkpt><trkpt lat="45.739444740293195" lon="11.411492335798407"><ele>203.33333333333331</ele><time>2026-04-26T10:41:56Z</time></trkpt><trkpt lat="45.739574652178035" lon="11.41174490474723"><ele>204.0</ele><time>2026-04-26T10:41:57Z</time></trkpt><trkpt lat="45.73970361335322" lon="11.41199660117459"><ele>203.33333333333331</ele><time>2026-04-26T10:41:58Z</time></trkpt><trkpt lat="45.73982970768814" lon="11.412239227953203"><ele>202.66666666666666</ele><time>2026-04-26T10:41:59Z</time></trkpt><trkpt lat="45.73995767004784" lon="11.41248408977455"><ele>202.0</ele><time>2026-04-26T10:42:00Z</time></trkpt><trkpt lat="45.740085483174276" lon="11.412727430398283"><ele>202.0</ele><time>2026-04-26T10:42:01Z</time></trkpt><trkpt lat="45.74021134106046" lon="11.412958904564395"><ele>202.0</ele><time>2026-04-26T10:42:02Z</time></trkpt><trkpt lat="45.74034178209404" lon="11.413223028515203"><ele>202.0</ele><time>2026-04-26T10:42:03Z</time></trkpt><trkpt lat="45.74046657519288" lon="11.413452212525936"><ele>202.66666666666666</ele><time>2026-04-26T10:42:04Z</time></trkpt><trkpt lat="45.74059174385377" lon="11.413690882938665"><ele>203.33333333333331</ele><time>2026-04-26T10:42:05Z</time></trkpt><trkpt lat="45.74070512335991" lon="11.413891643306062"><ele>204.0</ele><time>2026-04-26T10:42:06Z</time></trkpt><trkpt lat="45.74082986064034" lon="11.414041150862676"><ele>205.0</ele><time>2026-04-26T10:42:07Z</time></trkpt><trkpt lat="45.74095273085404" lon="11.414383641046777"><ele>206.0</ele><time>2026-04-26T10:42:08Z</time></trkpt><trkpt lat="45.741073208255955" lon="11.414615469249519"><ele>206.0</ele><time>2026-04-26T10:42:09Z</time></trkpt><trkpt lat="45.74119293302603" lon="11.414848560426437"><ele>206.0</ele><time>2026-04-26T10:42:10Z</time></trkpt><trkpt lat="45.74131520370817" lon="11.415088295335185"><ele>206.0</ele><time>2026-04-26T10:42:11Z</time></trkpt><trkpt lat="45.74143766365001" lon="11.415325932781181"><ele>206.66666666666669</ele><time>2026-04-26T10:42:12Z</time></trkpt><trkpt lat="45.74156011378667" lon="11.415562459617542"><ele>207.33333333333331</ele><time>2026-04-26T10:42:13Z</time></trkpt><trkpt lat="45.741682377613884" lon="11.415790160063521"><ele>208.0</ele><time>2026-04-26T10:42:14Z</time></trkpt><trkpt lat="45.74179670101511" lon="11.416011706646508"><ele>208.33333333333331</ele><time>2026-04-26T10:42:15Z</time></trkpt><trkpt lat="45.74190712313441" lon="11.41622967690032"><ele>208.66666666666669</ele><time>2026-04-26T10:42:16Z</time></trkpt><trkpt lat="45.74202237935747" lon="11.41644908241955"><ele>209.0</ele><time>2026-04-26T10:42:17Z</time></trkpt><trkpt lat="45.7421370937933" lon="11.416665797889832"><ele>209.0</ele><time>2026-04-26T10:42:18Z</time></trkpt><trkpt lat="45.74224548804355" lon="11.416867616824993"><ele>209.0</ele><time>2026-04-26T10:42:19Z</time></trkpt><trkpt lat="45.74234472843546" lon="11.417059671572357"><ele>209.0</ele><time>2026-04-26T10:42:20Z</time></trkpt><trkpt lat="45.74244235048709" lon="11.417247816557712"><ele>209.0</ele><time>2026-04-26T10:42:21Z</time></trkpt><trkpt lat="45.742544770087314" lon="11.417443025398466"><ele>209.0</ele><time>2026-04-26T10:42:22Z</time></trkpt><trkpt lat="45.74264748208181" lon="11.417636196377824"><ele>209.0</ele><time>2026-04-26T10:42:23Z</time></trkpt><trkpt lat="45.742753330057816" lon="11.417831147274493"><ele>211.0</ele><time>2026-04-26T10:42:24Z</time></trkpt><trkpt lat="45.74286066946582" lon="11.418030130609479"><ele>213.0</ele><time>2026-04-26T10:42:25Z</time></trkpt><trkpt lat="45.74296500737195" lon="11.418221516467677"><ele>215.0</ele><time>2026-04-26T10:42:26Z</time></trkpt><trkpt lat="45.743066741665636" lon="11.418413488386028"><ele>215.0</ele><time>2026-04-26T10:42:27Z</time></trkpt><trkpt lat="45.74316728369302" lon="11.418605741623068"><ele>215.0</ele><time>2026-04-26T10:42:28Z</time></trkpt><trkpt lat="45.74326839716588" lon="11.418804885604004"><ele>215.0</ele><time>2026-04-26T10:42:29Z</time></trkpt><trkpt lat="45.74336743891724" lon="11.419011693458344"><ele>215.33333333333334</ele><time>2026-04-26T10:42:30Z</time></trkpt><trkpt lat="45.74347158300294" lon="11.41921907030077"><ele>215.66666666666669</ele><time>2026-04-26T10:42:31Z</time></trkpt><trkpt lat="45.74356804631816" lon="11.419407575689155"><ele>216.0</ele><time>2026-04-26T10:42:32Z</time></trkpt><trkpt lat="45.7436667343063" lon="11.419593872309573"><ele>216.66666666666669</ele><time>2026-04-26T10:42:32.999Z</time></trkpt><trkpt lat="45.743766796919886" lon="11.419782656869947"><ele>217.33333333333334</ele><time>2026-04-26T10:42:33.999Z</time></trkpt><trkpt lat="45.74386750489842" lon="11.419966246985853"><ele>218.0</ele><time>2026-04-26T10:42:34.999Z</time></trkpt><trkpt lat="45.74396095808719" lon="11.420147188047407"><ele>218.0</ele><time>2026-04-26T10:42:35.999Z</time></trkpt><trkpt lat="45.74405238946011" lon="11.420324604040268"><ele>218.0</ele><time>2026-04-26T10:42:36.999Z</time></trkpt><trkpt lat="45.744137070608836" lon="11.420501278949194"><ele>218.0</ele><time>2026-04-26T10:42:37.999Z</time></trkpt><trkpt lat="45.744230808283" lon="11.420680656004564"><ele>218.0</ele><time>2026-04-26T10:42:38.999Z</time></trkpt><trkpt lat="45.74432256693773" lon="11.420861310439609"><ele>218.0</ele><time>2026-04-26T10:42:39.999Z</time></trkpt><trkpt lat="45.74442043149262" lon="11.421048555468046"><ele>218.0</ele><time>2026-04-26T10:42:40.999Z</time></trkpt><trkpt lat="45.74452393617962" lon="11.421240894835945"><ele>218.33333333333334</ele><time>2026-04-26T10:42:41.999Z</time></trkpt><trkpt lat="45.74463538340639" lon="11.421439849731657"><ele>218.66666666666669</ele><time>2026-04-26T10:42:42.999Z</time></trkpt><trkpt lat="45.74476097968813" lon="11.421656477589252"><ele>219.0</ele><time>2026-04-26T10:42:43.999Z</time></trkpt><trkpt lat="45.7448896562174" lon="11.42184527836929"><ele>219.0</ele><time>2026-04-26T10:42:44.999Z</time></trkpt><trkpt lat="45.74502733354989" lon="11.422016389523797"><ele>219.0</ele><time>2026-04-26T10:42:45.999Z</time></trkpt><trkpt lat="45.74518451141923" lon="11.422174853345956"><ele>219.0</ele><time>2026-04-26T10:42:46.999Z</time></trkpt><trkpt lat="45.74535076348217" lon="11.422341504780432"><ele>220.33333333333331</ele><time>2026-04-26T10:42:47.999Z</time></trkpt><trkpt lat="45.74550703656682" lon="11.422510491767966"><ele>221.66666666666666</ele><time>2026-04-26T10:42:48.999Z</time></trkpt><trkpt lat="45.74566151174582" lon="11.422681565887963"><ele>223.0</ele><time>2026-04-26T10:42:49.999Z</time></trkpt><trkpt lat="45.74580536550207" lon="11.422842281190674"><ele>224.0</ele><time>2026-04-26T10:42:50.999Z</time></trkpt><trkpt lat="45.745933881555096" lon="11.422990007041982"><ele>225.0</ele><time>2026-04-26T10:42:51.999Z</time></trkpt><trkpt lat="45.746055321657735" lon="11.423135343169086"><ele>226.0</ele><time>2026-04-26T10:42:52.999Z</time></trkpt><trkpt lat="45.74618445206758" lon="11.423283872674823"><ele>226.33333333333331</ele><time>2026-04-26T10:42:53.999Z</time></trkpt><trkpt lat="45.74632016010502" lon="11.423436213263527"><ele>226.66666666666669</ele><time>2026-04-26T10:42:54.999Z</time></trkpt><trkpt lat="45.74646727170224" lon="11.42359160214533"><ele>227.0</ele><time>2026-04-26T10:42:55.999Z</time></trkpt><trkpt lat="45.74661239448488" lon="11.423751492522307"><ele>227.0</ele><time>2026-04-26T10:42:56.999Z</time></trkpt><trkpt lat="45.746750276719744" lon="11.423902915030032"><ele>227.0</ele><time>2026-04-26T10:42:57.999Z</time></trkpt><trkpt lat="45.74688061912232" lon="11.424050952845102"><ele>227.0</ele><time>2026-04-26T10:42:58.999Z</time></trkpt><trkpt lat="45.747009693692476" lon="11.424197815436663"><ele>227.0</ele><time>2026-04-26T10:42:59.999Z</time></trkpt><trkpt lat="45.747142305934126" lon="11.42434313843092"><ele>227.0</ele><time>2026-04-26T10:43:00.999Z</time></trkpt><trkpt lat="45.74727965337428" lon="11.42449122569911"><ele>227.0</ele><time>2026-04-26T10:43:01.999Z</time></trkpt><trkpt lat="45.74740956090079" lon="11.42464028010691"><ele>227.0</ele><time>2026-04-26T10:43:02.999Z</time></trkpt><trkpt lat="45.74753677487914" lon="11.424788867769362"><ele>227.0</ele><time>2026-04-26T10:43:03.999Z</time></trkpt><trkpt lat="45.74765876594515" lon="11.424932971079834"><ele>227.0</ele><time>2026-04-26T10:43:04.999Z</time></trkpt><trkpt lat="45.74778059009072" lon="11.425079400057006"><ele>227.0</ele><time>2026-04-26T10:43:05.999Z</time></trkpt><trkpt lat="45.747903600554295" lon="11.425220027374094"><ele>227.0</ele><time>2026-04-26T10:43:06.999Z</time></trkpt><trkpt lat="45.7480322231352" lon="11.42535083497504"><ele>227.0</ele><time>2026-04-26T10:43:07.999Z</time></trkpt><trkpt lat="45.7481609805843" lon="11.425476893589439"><ele>227.66666666666669</ele><time>2026-04-26T10:43:08.999Z</time></trkpt><trkpt lat="45.748283144655694" lon="11.425612036529206"><ele>228.33333333333331</ele><time>2026-04-26T10:43:09.999Z</time></trkpt><trkpt lat="45.74840546005509" lon="11.425750416378062"><ele>229.0</ele><time>2026-04-26T10:43:10.999Z</time></trkpt><trkpt lat="45.748526801057345" lon="11.42588360144838"><ele>229.75</ele><time>2026-04-26T10:43:11.999Z</time></trkpt><trkpt lat="45.74864160418393" lon="11.426009813564695"><ele>230.5</ele><time>2026-04-26T10:43:12.999Z</time></trkpt><trkpt lat="45.7487521850465" lon="11.426130594402109"><ele>231.25</ele><time>2026-04-26T10:43:13.999Z</time></trkpt><trkpt lat="45.748855954069214" lon="11.426248792755766"><ele>232.0</ele><time>2026-04-26T10:43:14.999Z</time></trkpt><trkpt lat="45.7489641655926" lon="11.426370877540574"><ele>232.5</ele><time>2026-04-26T10:43:15.999Z</time></trkpt><trkpt lat="45.74907333581117" lon="11.426491476896704"><ele>233.0</ele><time>2026-04-26T10:43:16.999Z</time></trkpt><trkpt lat="45.74918063766608" lon="11.426608502590458"><ele>233.5</ele><time>2026-04-26T10:43:17.999Z</time></trkpt><trkpt lat="45.749287891487846" lon="11.426728283323172"><ele>234.0</ele><time>2026-04-26T10:43:18.999Z</time></trkpt><trkpt lat="45.74939262747273" lon="11.426847803721216"><ele>234.25</ele><time>2026-04-26T10:43:19.999Z</time></trkpt><trkpt lat="45.74949872676516" lon="11.426971809584094"><ele>234.5</ele><time>2026-04-26T10:43:20.999Z</time></trkpt><trkpt lat="45.74961102053584" lon="11.427096840851933"><ele>234.75</ele><time>2026-04-26T10:43:21.999Z</time></trkpt><trkpt lat="45.74973249872661" lon="11.427225711739588"><ele>235.0</ele><time>2026-04-26T10:43:22.999Z</time></trkpt><trkpt lat="45.74985550301301" lon="11.427357528035756"><ele>235.33333333333331</ele><time>2026-04-26T10:43:23.999Z</time></trkpt><trkpt lat="45.74997482678208" lon="11.427492165529104"><ele>235.66666666666669</ele><time>2026-04-26T10:43:24.999Z</time></trkpt><trkpt lat="45.75008974581628" lon="11.427621977765183"><ele>236.0</ele><time>2026-04-26T10:43:25.999Z</time></trkpt><trkpt lat="45.75021355284576" lon="11.427757831568181"><ele>236.75</ele><time>2026-04-26T10:43:26.999Z</time></trkpt><trkpt lat="45.75032423603343" lon="11.427880677086163"><ele>237.5</ele><time>2026-04-26T10:43:27.999Z</time></trkpt><trkpt lat="45.75043421963828" lon="11.42800582192567"><ele>238.25</ele><time>2026-04-26T10:43:28.998Z</time></trkpt><trkpt lat="45.75054343593916" lon="11.428128521462646"><ele>239.0</ele><time>2026-04-26T10:43:29.998Z</time></trkpt><trkpt lat="45.750649846866885" lon="11.42824510586192"><ele>239.25</ele><time>2026-04-26T10:43:30.998Z</time></trkpt><trkpt lat="45.75075451116766" lon="11.42836038393941"><ele>239.5</ele><time>2026-04-26T10:43:31.998Z</time></trkpt><trkpt lat="45.750858411463696" lon="11.428473670320423"><ele>239.75</ele><time>2026-04-26T10:43:32.998Z</time></trkpt><trkpt lat="45.750958595854044" lon="11.428575625226177"><ele>240.0</ele><time>2026-04-26T10:43:33.998Z</time></trkpt><trkpt lat="45.751056587571924" lon="11.42866066044335"><ele>240.8</ele><time>2026-04-26T10:43:34.998Z</time></trkpt><trkpt lat="45.751155516676036" lon="11.428729589733418"><ele>241.6</ele><time>2026-04-26T10:43:35.998Z</time></trkpt><trkpt lat="45.75123988597117" lon="11.42878546573043"><ele>242.39999999999998</ele><time>2026-04-26T10:43:36.998Z</time></trkpt><trkpt lat="45.75130726031772" lon="11.428847646926291"><ele>243.2</ele><time>2026-04-26T10:43:37.998Z</time></trkpt><trkpt lat="45.75135674827513" lon="11.428943551159277"><ele>244.0</ele><time>2026-04-26T10:43:38.998Z</time></trkpt><trkpt lat="45.751390768418915" lon="11.429064730492216"><ele>244.0</ele><time>2026-04-26T10:43:39.998Z</time></trkpt><trkpt lat="45.751407749512296" lon="11.429206507507674"><ele>243.99999999999997</ele><time>2026-04-26T10:43:40.998Z</time></trkpt><trkpt lat="45.751429935540145" lon="11.4293529991356"><ele>243.99999999999997</ele><time>2026-04-26T10:43:41.998Z</time></trkpt><trkpt lat="45.75149607590237" lon="11.429475216199679"><ele>244.0</ele><time>2026-04-26T10:43:42.998Z</time></trkpt><trkpt lat="45.75160147733333" lon="11.429565811555161"><ele>244.0</ele><time>2026-04-26T10:43:43.998Z</time></trkpt><trkpt lat="45.75172475118548" lon="11.429634348713012"><ele>244.0</ele><time>2026-04-26T10:43:44.998Z</time></trkpt><trkpt lat="45.75185714390341" lon="11.42970618269286"><ele>244.0</ele><time>2026-04-26T10:43:45.998Z</time></trkpt><trkpt lat="45.75199863775623" lon="11.429788913106524"><ele>244.0</ele><time>2026-04-26T10:43:46.998Z</time></trkpt><trkpt lat="45.75214343991208" lon="11.429862642567436"><ele>244.0</ele><time>2026-04-26T10:43:47.998Z</time></trkpt><trkpt lat="45.75228707630877" lon="11.429940195876767"><ele>245.0</ele><time>2026-04-26T10:43:48.998Z</time></trkpt><trkpt lat="45.752438880443414" lon="11.430021159013421"><ele>246.0</ele><time>2026-04-26T10:43:49.998Z</time></trkpt><trkpt lat="45.75258097880191" lon="11.430102466585451"><ele>247.0</ele><time>2026-04-26T10:43:50.998Z</time></trkpt><trkpt lat="45.752717898576684" lon="11.430177068215238"><ele>247.0</ele><time>2026-04-26T10:43:51.998Z</time></trkpt><trkpt lat="45.75284713901533" lon="11.430259365008713"><ele>247.0</ele><time>2026-04-26T10:43:52.998Z</time></trkpt><trkpt lat="45.752969191841764" lon="11.430361789444506"><ele>247.0</ele><time>2026-04-26T10:43:53.998Z</time></trkpt><trkpt lat="45.75308164425201" lon="11.430478203444862"><ele>247.0</ele><time>2026-04-26T10:43:55Z</time></trkpt><trkpt lat="45.75318939263288" lon="11.430611941502773"><ele>247.0</ele><time>2026-04-26T10:43:56Z</time></trkpt><trkpt lat="45.753290160112854" lon="11.430771948149385"><ele>247.0</ele><time>2026-04-26T10:43:57Z</time></trkpt><trkpt lat="45.75338071428883" lon="11.430951558294007"><ele>247.0</ele><time>2026-04-26T10:43:58Z</time></trkpt><trkpt lat="45.753467442571896" lon="11.431141302958672"><ele>248.0</ele><time>2026-04-26T10:43:59Z</time></trkpt><trkpt lat="45.75354827092985" lon="11.431306279531853"><ele>249.0</ele><time>2026-04-26T10:44:00Z</time></trkpt><trkpt lat="45.75361422524504" lon="11.431429882031575"><ele>250.0</ele><time>2026-04-26T10:44:01Z</time></trkpt><trkpt lat="45.753684001198764" lon="11.43160652593426"><ele>251.0</ele><time>2026-04-26T10:44:02Z</time></trkpt><trkpt lat="45.75381565124187" lon="11.43188614064814"><ele>251.0</ele><time>2026-04-26T10:44:03Z</time></trkpt><trkpt lat="45.75390872461217" lon="11.432085953640845"><ele>251.0</ele><time>2026-04-26T10:44:04Z</time></trkpt><trkpt lat="45.75400106498626" lon="11.432277765439048"><ele>251.0</ele><time>2026-04-26T10:44:05Z</time></trkpt><trkpt lat="45.7540898859818" lon="11.432453426702038"><ele>251.0</ele><time>2026-04-26T10:44:06Z</time></trkpt><trkpt lat="45.75417231741718" lon="11.43259946406453"><ele>251.0</ele><time>2026-04-26T10:44:07Z</time></trkpt><trkpt lat="45.754251619263" lon="11.43272615671582"><ele>251.0</ele><time>2026-04-26T10:44:08Z</time></trkpt><trkpt lat="45.75432548759136" lon="11.432841512458426"><ele>251.0</ele><time>2026-04-26T10:44:09Z</time></trkpt><trkpt lat="45.75439713656838" lon="11.432954736303182"><ele>251.20000000000002</ele><time>2026-04-26T10:44:10Z</time></trkpt><trkpt lat="45.7544673791741" lon="11.433065237566916"><ele>251.40000000000003</ele><time>2026-04-26T10:44:11Z</time></trkpt><trkpt lat="45.75454262434829" lon="11.433183189489105"><ele>251.6</ele><time>2026-04-26T10:44:12Z</time></trkpt><trkpt lat="45.75462474253307" lon="11.4333066657816"><ele>251.8</ele><time>2026-04-26T10:44:13Z</time></trkpt><trkpt lat="45.754701322231874" lon="11.433425093810033"><ele>252.0</ele><time>2026-04-26T10:44:14Z</time></trkpt><trkpt lat="45.75477080203455" lon="11.433529477866179"><ele>252.0</ele><time>2026-04-26T10:44:15Z</time></trkpt><trkpt lat="45.75483544082881" lon="11.43362596355076"><ele>252.0</ele><time>2026-04-26T10:44:16Z</time></trkpt><trkpt lat="45.75489950279077" lon="11.433719122142326"><ele>252.0</ele><time>2026-04-26T10:44:17Z</time></trkpt><trkpt lat="45.754958264124376" lon="11.433807176949884"><ele>252.0</ele><time>2026-04-26T10:44:18Z</time></trkpt><trkpt lat="45.755015516931955" lon="11.433894379321021"><ele>252.0</ele><time>2026-04-26T10:44:19Z</time></trkpt><trkpt lat="45.75507267290001" lon="11.433987007764173"><ele>252.0</ele><time>2026-04-26T10:44:20Z</time></trkpt><trkpt lat="45.755125973574714" lon="11.434070592292347"><ele>252.16666666666666</ele><time>2026-04-26T10:44:21Z</time></trkpt><trkpt lat="45.7551671828449" lon="11.434139336295834"><ele>252.33333333333331</ele><time>2026-04-26T10:44:22Z</time></trkpt><trkpt lat="45.755216154659365" lon="11.43423283953576"><ele>252.5</ele><time>2026-04-26T10:44:24Z</time></trkpt><trkpt lat="45.7552788200337" lon="11.434326377237696"><ele>252.66666666666666</ele><time>2026-04-26T10:44:27Z</time></trkpt><trkpt lat="45.755319501438855" lon="11.434419077323469"><ele>252.83333333333331</ele><time>2026-04-26T10:44:31Z</time></trkpt><trkpt lat="45.75536828897866" lon="11.434494408016999"><ele>253.0</ele><time>2026-04-26T10:44:38.999Z</time></trkpt><trkpt lat="45.75545180962771" lon="11.434623907558617"><ele>252.60000000000002</ele><time>2026-04-26T10:44:41.999Z</time></trkpt><trkpt lat="45.755489098305134" lon="11.43472903783274"><ele>252.20000000000002</ele><time>2026-04-26T10:44:42.999Z</time></trkpt><trkpt lat="45.75555194606461" lon="11.434825473555643"><ele>251.8</ele><time>2026-04-26T10:44:43.999Z</time></trkpt><trkpt lat="45.7556072127125" lon="11.434936671983904"><ele>251.4</ele><time>2026-04-26T10:44:44.999Z</time></trkpt><trkpt lat="45.755660257931524" lon="11.435038843026913"><ele>251.0</ele><time>2026-04-26T10:44:45.999Z</time></trkpt><trkpt lat="45.75572139042495" lon="11.43515310257497"><ele>251.0</ele><time>2026-04-26T10:44:46.999Z</time></trkpt><trkpt lat="45.75578723462322" lon="11.435274700329819"><ele>251.0</ele><time>2026-04-26T10:44:47.999Z</time></trkpt><trkpt lat="45.755857473735865" lon="11.435404307700646"><ele>251.0</ele><time>2026-04-26T10:44:48.999Z</time></trkpt><trkpt lat="45.75592847086683" lon="11.435531209577642"><ele>251.0</ele><time>2026-04-26T10:44:49.999Z</time></trkpt><trkpt lat="45.75599881099081" lon="11.435661035090922"><ele>251.75</ele><time>2026-04-26T10:44:50.999Z</time></trkpt><trkpt lat="45.75607100123967" lon="11.435797848165501"><ele>252.5</ele><time>2026-04-26T10:44:51.999Z</time></trkpt><trkpt lat="45.756144399408065" lon="11.435931330741713"><ele>253.25</ele><time>2026-04-26T10:44:52.999Z</time></trkpt><trkpt lat="45.756215109059994" lon="11.436065635596412"><ele>254.0</ele><time>2026-04-26T10:44:53.999Z</time></trkpt><trkpt lat="45.75628828864467" lon="11.436202828205325"><ele>253.75</ele><time>2026-04-26T10:44:54.999Z</time></trkpt><trkpt lat="45.75636414506137" lon="11.436344137369375"><ele>253.5</ele><time>2026-04-26T10:44:55.999Z</time></trkpt><trkpt lat="45.756436057650866" lon="11.436479042381773"><ele>253.25</ele><time>2026-04-26T10:44:56.999Z</time></trkpt><trkpt lat="45.75652249059281" lon="11.436641062845872"><ele>253.0</ele><time>2026-04-26T10:44:57.999Z</time></trkpt><trkpt lat="45.75660927721806" lon="11.43680042514423"><ele>253.0</ele><time>2026-04-26T10:44:58.999Z</time></trkpt><trkpt lat="45.75669478739999" lon="11.436959702434077"><ele>253.0</ele><time>2026-04-26T10:44:59.999Z</time></trkpt><trkpt lat="45.75677787986669" lon="11.437117819503797"><ele>253.0</ele><time>2026-04-26T10:45:00.999Z</time></trkpt><trkpt lat="45.75685604130546" lon="11.437266210352078"><ele>253.0</ele><time>2026-04-26T10:45:01.999Z</time></trkpt><trkpt lat="45.75693056235862" lon="11.43740706457562"><ele>253.2</ele><time>2026-04-26T10:45:02.999Z</time></trkpt><trkpt lat="45.75700524638542" lon="11.437540940888864"><ele>253.4</ele><time>2026-04-26T10:45:03.999Z</time></trkpt><trkpt lat="45.757073790099284" lon="11.437663336988921"><ele>253.59999999999997</ele><time>2026-04-26T10:45:04.999Z</time></trkpt><trkpt lat="45.757135680867194" lon="11.437778137548904"><ele>253.79999999999998</ele><time>2026-04-26T10:45:05.999Z</time></trkpt><trkpt lat="45.757192485180916" lon="11.437880013679077"><ele>254.0</ele><time>2026-04-26T10:45:06.999Z</time></trkpt><trkpt lat="45.757244655358306" lon="11.437980954395698"><ele>254.00000000000003</ele><time>2026-04-26T10:45:07.999Z</time></trkpt><trkpt lat="45.7572931002663" lon="11.438081189187267"><ele>254.0</ele><time>2026-04-26T10:45:08.999Z</time></trkpt><trkpt lat="45.75733290424892" lon="11.438171474877342"><ele>254.0</ele><time>2026-04-26T10:45:09.999Z</time></trkpt><trkpt lat="45.75737138840798" lon="11.438284310343441"><ele>254.0</ele><time>2026-04-26T10:45:11.999Z</time></trkpt><trkpt lat="45.75742851872261" lon="11.438407550996706"><ele>254.00000000000003</ele><time>2026-04-26T10:45:13.999Z</time></trkpt><trkpt lat="45.757478503937676" lon="11.438505041250588"><ele>254.0</ele><time>2026-04-26T10:45:14.999Z</time></trkpt><trkpt lat="45.75753593907772" lon="11.438622069784607"><ele>254.0</ele><time>2026-04-26T10:45:15.999Z</time></trkpt><trkpt lat="45.75759803023254" lon="11.438760954451492"><ele>254.0</ele><time>2026-04-26T10:45:16.999Z</time></trkpt><trkpt lat="45.75766429473525" lon="11.438911383008751"><ele>254.0</ele><time>2026-04-26T10:45:17.999Z</time></trkpt><trkpt lat="45.757745348058194" lon="11.43908197046552"><ele>254.0</ele><time>2026-04-26T10:45:18.999Z</time></trkpt><trkpt lat="45.757845396922875" lon="11.439270132087808"><ele>254.33333333333334</ele><time>2026-04-26T10:45:19.999Z</time></trkpt><trkpt lat="45.75794542502643" lon="11.439498582892698"><ele>254.66666666666669</ele><time>2026-04-26T10:45:20.999Z</time></trkpt><trkpt lat="45.75808261125862" lon="11.439740964534726"><ele>255.0</ele><time>2026-04-26T10:45:21.999Z</time></trkpt><trkpt lat="45.75824684296491" lon="11.439981216748922"><ele>255.0</ele><time>2026-04-26T10:45:22.999Z</time></trkpt><trkpt lat="45.758395839053776" lon="11.440244581338902"><ele>255.0</ele><time>2026-04-26T10:45:23.999Z</time></trkpt><trkpt lat="45.75853359692978" lon="11.440480961968882"><ele>256.0</ele><time>2026-04-26T10:45:24.999Z</time></trkpt><trkpt lat="45.75866518878582" lon="11.440700564992465"><ele>257.0</ele><time>2026-04-26T10:45:25.999Z</time></trkpt><trkpt lat="45.758786597888886" lon="11.440904404370285"><ele>258.0</ele><time>2026-04-26T10:45:26.999Z</time></trkpt><trkpt lat="45.75890054753866" lon="11.441095214784015"><ele>258.0</ele><time>2026-04-26T10:45:27.999Z</time></trkpt><trkpt lat="45.75901037621608" lon="11.441280329418197"><ele>258.0</ele><time>2026-04-26T10:45:28.999Z</time></trkpt><trkpt lat="45.75912010265288" lon="11.441461357806295"><ele>258.0</ele><time>2026-04-26T10:45:29.999Z</time></trkpt><trkpt lat="45.75922639011733" lon="11.441636392223373"><ele>258.3333333333333</ele><time>2026-04-26T10:45:30.999Z</time></trkpt><trkpt lat="45.75932538452196" lon="11.44180797760123"><ele>258.66666666666663</ele><time>2026-04-26T10:45:31.998Z</time></trkpt><trkpt lat="45.75942186460912" lon="11.441970030822759"><ele>259.0</ele><time>2026-04-26T10:45:32.998Z</time></trkpt><trkpt lat="45.75951772621834" lon="11.442132546384693"><ele>258.5</ele><time>2026-04-26T10:45:33.998Z</time></trkpt><trkpt lat="45.759612943531884" lon="11.442290611308545"><ele>258.0</ele><time>2026-04-26T10:45:34.998Z</time></trkpt><trkpt lat="45.759705004146234" lon="11.442447701987337"><ele>257.5</ele><time>2026-04-26T10:45:35.998Z</time></trkpt><trkpt lat="45.75980151270742" lon="11.442610021295582"><ele>257.0</ele><time>2026-04-26T10:45:36.998Z</time></trkpt><trkpt lat="45.75989446634599" lon="11.442771290891521"><ele>257.0</ele><time>2026-04-26T10:45:37.998Z</time></trkpt><trkpt lat="45.75998977466699" lon="11.442929757218549"><ele>257.0</ele><time>2026-04-26T10:45:38.998Z</time></trkpt><trkpt lat="45.76008086915367" lon="11.443091641549044"><ele>257.0</ele><time>2026-04-26T10:45:39.998Z</time></trkpt><trkpt lat="45.760176157900226" lon="11.443263910551126"><ele>257.0</ele><time>2026-04-26T10:45:40.998Z</time></trkpt><trkpt lat="45.760270322001446" lon="11.443431582053632"><ele>256.33333333333337</ele><time>2026-04-26T10:45:41.998Z</time></trkpt><trkpt lat="45.76036926964271" lon="11.443604253414625"><ele>255.66666666666669</ele><time>2026-04-26T10:45:42.998Z</time></trkpt><trkpt lat="45.76046444254836" lon="11.443777345193459"><ele>255.0</ele><time>2026-04-26T10:45:43.998Z</time></trkpt><trkpt lat="45.76056294898573" lon="11.443957591666436"><ele>255.0</ele><time>2026-04-26T10:45:44.998Z</time></trkpt><trkpt lat="45.76066088821328" lon="11.444139475808576"><ele>255.0</ele><time>2026-04-26T10:45:45.998Z</time></trkpt><trkpt lat="45.76076324581038" lon="11.44432423252811"><ele>255.0</ele><time>2026-04-26T10:45:46.998Z</time></trkpt><trkpt lat="45.76086198603158" lon="11.44450718288095"><ele>254.33333333333331</ele><time>2026-04-26T10:45:47.998Z</time></trkpt><trkpt lat="45.7609653781418" lon="11.444695522182924"><ele>253.66666666666666</ele><time>2026-04-26T10:45:48.998Z</time></trkpt><trkpt lat="45.76106636575513" lon="11.444879314438863"><ele>253.0</ele><time>2026-04-26T10:45:49.998Z</time></trkpt><trkpt lat="45.761164870786914" lon="11.445060598636642"><ele>253.0</ele><time>2026-04-26T10:45:50.998Z</time></trkpt><trkpt lat="45.76127246845991" lon="11.445255724624857"><ele>253.0</ele><time>2026-04-26T10:45:51.998Z</time></trkpt><trkpt lat="45.761377969687906" lon="11.445448132560907"><ele>253.0</ele><time>2026-04-26T10:45:52.998Z</time></trkpt><trkpt lat="45.76148891027899" lon="11.445650645687712"><ele>252.0</ele><time>2026-04-26T10:45:53.998Z</time></trkpt><trkpt lat="45.76160121227473" lon="11.445853653408939"><ele>251.0</ele><time>2026-04-26T10:45:54.998Z</time></trkpt><trkpt lat="45.761709185479994" lon="11.446056834860169"><ele>250.0</ele><time>2026-04-26T10:45:55.998Z</time></trkpt><trkpt lat="45.76183441741903" lon="11.446280666752502"><ele>250.66666666666666</ele><time>2026-04-26T10:45:56.998Z</time></trkpt><trkpt lat="45.761951302442014" lon="11.44648891267879"><ele>251.33333333333331</ele><time>2026-04-26T10:45:57.998Z</time></trkpt><trkpt lat="45.762068186215586" lon="11.44670300252965"><ele>252.0</ele><time>2026-04-26T10:45:58.998Z</time></trkpt><trkpt lat="45.76218714344948" lon="11.446921248838525"><ele>252.33333333333331</ele><time>2026-04-26T10:45:59.998Z</time></trkpt><trkpt lat="45.762310028399895" lon="11.447140250334533"><ele>252.66666666666666</ele><time>2026-04-26T10:46:01Z</time></trkpt><trkpt lat="45.76243115028134" lon="11.4473630502058"><ele>253.0</ele><time>2026-04-26T10:46:02Z</time></trkpt><trkpt lat="45.76255255719601" lon="11.447589384666045"><ele>253.0</ele><time>2026-04-26T10:46:03Z</time></trkpt><trkpt lat="45.76267807835142" lon="11.447819370492944"><ele>253.0</ele><time>2026-04-26T10:46:04Z</time></trkpt><trkpt lat="45.76280258990358" lon="11.44804779547506"><ele>253.0</ele><time>2026-04-26T10:46:05Z</time></trkpt><trkpt lat="45.762926405263265" lon="11.448272675164066"><ele>252.66666666666666</ele><time>2026-04-26T10:46:06Z</time></trkpt><trkpt lat="45.76305212124437" lon="11.448503917428207"><ele>252.33333333333331</ele><time>2026-04-26T10:46:07Z</time></trkpt><trkpt lat="45.763176543544894" lon="11.4487283168712"><ele>252.0</ele><time>2026-04-26T10:46:08Z</time></trkpt><trkpt lat="45.76329868712201" lon="11.448947654288059"><ele>252.0</ele><time>2026-04-26T10:46:09Z</time></trkpt><trkpt lat="45.76342527578575" lon="11.449172980820196"><ele>252.0</ele><time>2026-04-26T10:46:10Z</time></trkpt><trkpt lat="45.76354993171274" lon="11.4493985726883"><ele>252.0</ele><time>2026-04-26T10:46:11Z</time></trkpt><trkpt lat="45.763674649294174" lon="11.449627248204283"><ele>252.33333333333331</ele><time>2026-04-26T10:46:12Z</time></trkpt><trkpt lat="45.7638022272828" lon="11.449857503181772"><ele>252.66666666666666</ele><time>2026-04-26T10:46:13Z</time></trkpt><trkpt lat="45.76393167956734" lon="11.450091565223808"><ele>253.0</ele><time>2026-04-26T10:46:14Z</time></trkpt><trkpt lat="45.76406514752052" lon="11.450333779880706"><ele>252.33333333333331</ele><time>2026-04-26T10:46:15Z</time></trkpt><trkpt lat="45.76420310535292" lon="11.450588147785643"><ele>251.66666666666669</ele><time>2026-04-26T10:46:16Z</time></trkpt><trkpt lat="45.764331180182104" lon="11.450828142379285"><ele>251.0</ele><time>2026-04-26T10:46:17Z</time></trkpt><trkpt lat="45.76447193964741" lon="11.45108216077606"><ele>251.5</ele><time>2026-04-26T10:46:18Z</time></trkpt><trkpt lat="45.76461402717236" lon="11.451336537606533"><ele>252.0</ele><time>2026-04-26T10:46:19Z</time></trkpt><trkpt lat="45.764762776335154" lon="11.45160105492383"><ele>252.0</ele><time>2026-04-26T10:46:20Z</time></trkpt><trkpt lat="45.76490588987564" lon="11.451862566208018"><ele>252.0</ele><time>2026-04-26T10:46:21Z</time></trkpt><trkpt lat="45.765048699738806" lon="11.452122031426976"><ele>253.0</ele><time>2026-04-26T10:46:22Z</time></trkpt><trkpt lat="45.765191502598974" lon="11.45238228782399"><ele>254.0</ele><time>2026-04-26T10:46:23Z</time></trkpt><trkpt lat="45.765332447031426" lon="11.452641812182598"><ele>251.66666666666669</ele><time>2026-04-26T10:46:24Z</time></trkpt><trkpt lat="45.76547276856826" lon="11.452894855474579"><ele>249.33333333333331</ele><time>2026-04-26T10:46:25Z</time></trkpt><trkpt lat="45.76560838737787" lon="11.453134625424799"><ele>247.0</ele><time>2026-04-26T10:46:26Z</time></trkpt><trkpt lat="45.765737179212266" lon="11.453367317822885"><ele>247.0</ele><time>2026-04-26T10:46:27Z</time></trkpt><trkpt lat="45.76586393689749" lon="11.453600356252984"><ele>247.0</ele><time>2026-04-26T10:46:28Z</time></trkpt><trkpt lat="45.76598771083519" lon="11.453829832992211"><ele>247.0</ele><time>2026-04-26T10:46:29Z</time></trkpt><trkpt lat="45.76609881419104" lon="11.454046455789305"><ele>245.33333333333331</ele><time>2026-04-26T10:46:30Z</time></trkpt><trkpt lat="45.76622537532129" lon="11.454295673175293"><ele>243.66666666666669</ele><time>2026-04-26T10:46:31Z</time></trkpt><trkpt lat="45.76635890916666" lon="11.454527188352992"><ele>242.0</ele><time>2026-04-26T10:46:32Z</time></trkpt><trkpt lat="45.766483878535524" lon="11.454755048814851"><ele>242.0</ele><time>2026-04-26T10:46:33Z</time></trkpt><trkpt lat="45.766605667495355" lon="11.454979679775276"><ele>242.0</ele><time>2026-04-26T10:46:34Z</time></trkpt><trkpt lat="45.76672135106578" lon="11.455194823326433"><ele>242.0</ele><time>2026-04-26T10:46:35Z</time></trkpt><trkpt lat="45.766828774325994" lon="11.45539188574556"><ele>239.0</ele><time>2026-04-26T10:46:35.999Z</time></trkpt><trkpt lat="45.76692672052562" lon="11.45557276172339"><ele>236.0</ele><time>2026-04-26T10:46:36.999Z</time></trkpt><trkpt lat="45.76701897171858" lon="11.455744451618619"><ele>233.0</ele><time>2026-04-26T10:46:37.999Z</time></trkpt><trkpt lat="45.7671113377856" lon="11.455911366697503"><ele>233.0</ele><time>2026-04-26T10:46:38.999Z</time></trkpt><trkpt lat="45.76716983178478" lon="11.456113404898897"><ele>233.0</ele><time>2026-04-26T10:46:39.999Z</time></trkpt><trkpt lat="45.76726888096815" lon="11.456281713792885"><ele>233.0</ele><time>2026-04-26T10:46:40.999Z</time></trkpt><trkpt lat="45.767395411438365" lon="11.456416626178626"><ele>231.66666666666669</ele><time>2026-04-26T10:46:41.999Z</time></trkpt><trkpt lat="45.76749033803808" lon="11.456586223036549"><ele>230.33333333333331</ele><time>2026-04-26T10:46:42.999Z</time></trkpt><trkpt lat="45.76760077485659" lon="11.456755694450914"><ele>229.0</ele><time>2026-04-26T10:46:43.999Z</time></trkpt><trkpt lat="45.76772932425409" lon="11.456913973138988"><ele>229.0</ele><time>2026-04-26T10:46:44.999Z</time></trkpt><trkpt lat="45.76786950572774" lon="11.457042344086643"><ele>229.0</ele><time>2026-04-26T10:46:45.999Z</time></trkpt><trkpt lat="45.768023168514524" lon="11.457158888272614"><ele>229.0</ele><time>2026-04-26T10:46:46.999Z</time></trkpt><trkpt lat="45.768190907966684" lon="11.457254021062063"><ele>228.33333333333331</ele><time>2026-04-26T10:46:47.999Z</time></trkpt><trkpt lat="45.768356432816866" lon="11.457341548773101"><ele>227.66666666666669</ele><time>2026-04-26T10:46:48.999Z</time></trkpt><trkpt lat="45.76852434821983" lon="11.45743753981368"><ele>227.0</ele><time>2026-04-26T10:46:49.999Z</time></trkpt><trkpt lat="45.76868202953874" lon="11.457530852732441"><ele>227.0</ele><time>2026-04-26T10:46:50.999Z</time></trkpt><trkpt lat="45.76883644479864" lon="11.457616977011552"><ele>227.0</ele><time>2026-04-26T10:46:51.999Z</time></trkpt><trkpt lat="45.76898704761886" lon="11.457691943154986"><ele>227.0</ele><time>2026-04-26T10:46:52.999Z</time></trkpt><trkpt lat="45.76913492010058" lon="11.457729165644595"><ele>227.0</ele><time>2026-04-26T10:46:53.999Z</time></trkpt><trkpt lat="45.76928933475224" lon="11.457712970644923"><ele>227.0</ele><time>2026-04-26T10:46:54.999Z</time></trkpt><trkpt lat="45.76944292114691" lon="11.457653580598386"><ele>227.0</ele><time>2026-04-26T10:46:55.999Z</time></trkpt><trkpt lat="45.76958544762302" lon="11.457541582112045"><ele>222.66666666666669</ele><time>2026-04-26T10:46:56.999Z</time></trkpt><trkpt lat="45.76971551419151" lon="11.457383891166936"><ele>218.33333333333331</ele><time>2026-04-26T10:46:57.999Z</time></trkpt><trkpt lat="45.769833419781726" lon="11.4571995012179"><ele>214.0</ele><time>2026-04-26T10:46:58.999Z</time></trkpt><trkpt lat="45.7699465565807" lon="11.456993916505716"><ele>214.0</ele><time>2026-04-26T10:46:59.999Z</time></trkpt><trkpt lat="45.770067706171425" lon="11.456773363736337"><ele>214.0</ele><time>2026-04-26T10:47:00.999Z</time></trkpt><trkpt lat="45.770178005949255" lon="11.456600742662825"><ele>214.0</ele><time>2026-04-26T10:47:01.999Z</time></trkpt><trkpt lat="45.7702994595689" lon="11.456374852344151"><ele>219.0</ele><time>2026-04-26T10:47:02.999Z</time></trkpt><trkpt lat="45.7704202353602" lon="11.456155434877047"><ele>224.0</ele><time>2026-04-26T10:47:03.999Z</time></trkpt><trkpt lat="45.770535877832614" lon="11.455944850777845"><ele>229.0</ele><time>2026-04-26T10:47:04.999Z</time></trkpt><trkpt lat="45.77064885198602" lon="11.455753941108602"><ele>229.0</ele><time>2026-04-26T10:47:05.999Z</time></trkpt><trkpt lat="45.7707497260515" lon="11.455560805539898"><ele>229.0</ele><time>2026-04-26T10:47:06.999Z</time></trkpt><trkpt lat="45.770812636482056" lon="11.455350160997305"><ele>229.0</ele><time>2026-04-26T10:47:07.999Z</time></trkpt><trkpt lat="45.770834254771565" lon="11.455121788624421"><ele>230.66666666666666</ele><time>2026-04-26T10:47:08.999Z</time></trkpt><trkpt lat="45.77082627261347" lon="11.454876534255984"><ele>232.33333333333331</ele><time>2026-04-26T10:47:09.999Z</time></trkpt><trkpt lat="45.77078738873864" lon="11.454639716159491"><ele>234.0</ele><time>2026-04-26T10:47:10.999Z</time></trkpt><trkpt lat="45.7707347214042" lon="11.454402760530815"><ele>234.0</ele><time>2026-04-26T10:47:11.999Z</time></trkpt><trkpt lat="45.77069725539137" lon="11.454166050603927"><ele>234.0</ele><time>2026-04-26T10:47:12.999Z</time></trkpt><trkpt lat="45.770682799591114" lon="11.45392388692861"><ele>234.0</ele><time>2026-04-26T10:47:13.999Z</time></trkpt><trkpt lat="45.770695327891104" lon="11.453677371592004"><ele>234.0</ele><time>2026-04-26T10:47:14.999Z</time></trkpt><trkpt lat="45.77073827278031" lon="11.453449317554636"><ele>234.0</ele><time>2026-04-26T10:47:15.999Z</time></trkpt><trkpt lat="45.77081131809479" lon="11.453250380331722"><ele>234.0</ele><time>2026-04-26T10:47:16.999Z</time></trkpt><trkpt lat="45.77091217632929" lon="11.453073546047014"><ele>236.0</ele><time>2026-04-26T10:47:17.999Z</time></trkpt><trkpt lat="45.77104283510773" lon="11.452924450457397"><ele>238.0</ele><time>2026-04-26T10:47:18.999Z</time></trkpt><trkpt lat="45.771190628118326" lon="11.452791261776357"><ele>240.0</ele><time>2026-04-26T10:47:19.999Z</time></trkpt><trkpt lat="45.77136164048057" lon="11.452697234930177"><ele>240.0</ele><time>2026-04-26T10:47:20.999Z</time></trkpt><trkpt lat="45.771551671581555" lon="11.45263387361914"><ele>240.0</ele><time>2026-04-26T10:47:21.999Z</time></trkpt><trkpt lat="45.7717502880631" lon="11.452573829399556"><ele>240.0</ele><time>2026-04-26T10:47:22.999Z</time></trkpt><trkpt lat="45.7719531495709" lon="11.452509128617267"><ele>243.33333333333331</ele><time>2026-04-26T10:47:23.999Z</time></trkpt><trkpt lat="45.772162153536655" lon="11.452441719358202"><ele>246.66666666666666</ele><time>2026-04-26T10:47:24.999Z</time></trkpt><trkpt lat="45.77236413374106" lon="11.452363605815759"><ele>250.0</ele><time>2026-04-26T10:47:25.999Z</time></trkpt><trkpt lat="45.77253501891807" lon="11.45225762294853"><ele>253.0</ele><time>2026-04-26T10:47:26.999Z</time></trkpt><trkpt lat="45.772690965425994" lon="11.45212810732957"><ele>256.0</ele><time>2026-04-26T10:47:27.999Z</time></trkpt><trkpt lat="45.77284535775197" lon="11.451972081951654"><ele>259.0</ele><time>2026-04-26T10:47:28.999Z</time></trkpt><trkpt lat="45.77299369550553" lon="11.45179702526573"><ele>259.0</ele><time>2026-04-26T10:47:29.999Z</time></trkpt><trkpt lat="45.773135321394996" lon="11.451597572944545"><ele>259.0</ele><time>2026-04-26T10:47:30.999Z</time></trkpt><trkpt lat="45.77327589585041" lon="11.451423584480342"><ele>259.0</ele><time>2026-04-26T10:47:31.999Z</time></trkpt><trkpt lat="45.773389409311584" lon="11.451276503288335"><ele>259.25</ele><time>2026-04-26T10:47:32.999Z</time></trkpt><trkpt lat="45.77350215362419" lon="11.451129703479166"><ele>259.5</ele><time>2026-04-26T10:47:33.999Z</time></trkpt><trkpt lat="45.77361693437616" lon="11.450989849644483"><ele>259.75</ele><time>2026-04-26T10:47:34.999Z</time></trkpt><trkpt lat="45.77372655228283" lon="11.450857174883375"><ele>260.0</ele><time>2026-04-26T10:47:35.999Z</time></trkpt><trkpt lat="45.77383751455487" lon="11.450722458015878"><ele>260.25</ele><time>2026-04-26T10:47:36.999Z</time></trkpt><trkpt lat="45.77394593209968" lon="11.450586781832751"><ele>260.5</ele><time>2026-04-26T10:47:37.999Z</time></trkpt><trkpt lat="45.7740554749039" lon="11.450453094155103"><ele>260.75</ele><time>2026-04-26T10:47:38.998Z</time></trkpt><trkpt lat="45.77416278456816" lon="11.450316942569918"><ele>261.0</ele><time>2026-04-26T10:47:39.998Z</time></trkpt><trkpt lat="45.77427263437457" lon="11.450180167971052"><ele>262.0</ele><time>2026-04-26T10:47:40.998Z</time></trkpt><trkpt lat="45.77437582744269" lon="11.45005378515819"><ele>263.0</ele><time>2026-04-26T10:47:41.998Z</time></trkpt><trkpt lat="45.77446463570729" lon="11.449932560047426"><ele>264.0</ele><time>2026-04-26T10:47:42.998Z</time></trkpt><trkpt lat="45.774559763495695" lon="11.449818172490625"><ele>265.0</ele><time>2026-04-26T10:47:43.998Z</time></trkpt><trkpt lat="45.77465271554881" lon="11.449715999490525"><ele>265.0</ele><time>2026-04-26T10:47:44.998Z</time></trkpt><trkpt lat="45.77475360736148" lon="11.44963535284936"><ele>265.0</ele><time>2026-04-26T10:47:45.998Z</time></trkpt><trkpt lat="45.774868930689074" lon="11.44962256205523"><ele>265.0</ele><time>2026-04-26T10:47:46.998Z</time></trkpt><trkpt lat="45.774965699804504" lon="11.449593172705638"><ele>265.0</ele><time>2026-04-26T10:47:47.998Z</time></trkpt><trkpt lat="45.775057294361005" lon="11.449598515273632"><ele>265.0</ele><time>2026-04-26T10:47:48.998Z</time></trkpt><trkpt lat="45.77513499299611" lon="11.449624271030967"><ele>266.6</ele><time>2026-04-26T10:47:49.998Z</time></trkpt><trkpt lat="45.77521204099102" lon="11.449677040180227"><ele>268.2</ele><time>2026-04-26T10:47:50.998Z</time></trkpt><trkpt lat="45.77529487662163" lon="11.44975309110947"><ele>269.8</ele><time>2026-04-26T10:47:51.998Z</time></trkpt><trkpt lat="45.77540191620389" lon="11.44980391634606"><ele>271.4</ele><time>2026-04-26T10:47:52.998Z</time></trkpt><trkpt lat="45.77552608009809" lon="11.449798557504383"><ele>273.0</ele><time>2026-04-26T10:47:53.998Z</time></trkpt><trkpt lat="45.77564854811969" lon="11.449737066378255"><ele>273.0</ele><time>2026-04-26T10:47:54.998Z</time></trkpt><trkpt lat="45.7757941311312" lon="11.449819250235754"><ele>273.0</ele><time>2026-04-26T10:47:55.998Z</time></trkpt><trkpt lat="45.77593563252388" lon="11.449878742944305"><ele>273.0</ele><time>2026-04-26T10:47:56.998Z</time></trkpt><trkpt lat="45.776088281361666" lon="11.449935536337271"><ele>273.6666666666667</ele><time>2026-04-26T10:47:57.998Z</time></trkpt><trkpt lat="45.77625398608196" lon="11.450006940019344"><ele>274.33333333333337</ele><time>2026-04-26T10:47:58.998Z</time></trkpt><trkpt lat="45.776414151373935" lon="11.45007391763011"><ele>275.0</ele><time>2026-04-26T10:47:59.998Z</time></trkpt><trkpt lat="45.776576777153245" lon="11.450146527386659"><ele>275.0</ele><time>2026-04-26T10:48:00.998Z</time></trkpt><trkpt lat="45.77674207697677" lon="11.450220852730965"><ele>275.0</ele><time>2026-04-26T10:48:01.998Z</time></trkpt><trkpt lat="45.77690982480779" lon="11.450287100224136"><ele>275.0</ele><time>2026-04-26T10:48:02.998Z</time></trkpt><trkpt lat="45.77707688810496" lon="11.450337692814562"><ele>276.6666666666667</ele><time>2026-04-26T10:48:03.998Z</time></trkpt><trkpt lat="45.777260276872624" lon="11.450353518337252"><ele>278.3333333333333</ele><time>2026-04-26T10:48:04.998Z</time></trkpt><trkpt lat="45.777433071629666" lon="11.450337721562338"><ele>280.0</ele><time>2026-04-26T10:48:05.998Z</time></trkpt><trkpt lat="45.777607577148515" lon="11.450288598802882"><ele>287.3333333333333</ele><time>2026-04-26T10:48:07Z</time></trkpt><trkpt lat="45.77778082656555" lon="11.450212394850036"><ele>294.6666666666667</ele><time>2026-04-26T10:48:08Z</time></trkpt><trkpt lat="45.77794287633586" lon="11.450106902409647"><ele>302.0</ele><time>2026-04-26T10:48:09Z</time></trkpt><trkpt lat="45.77809869469743" lon="11.44996585760685"><ele>302.0</ele><time>2026-04-26T10:48:10Z</time></trkpt><trkpt lat="45.77824616380167" lon="11.449796718400068"><ele>302.0</ele><time>2026-04-26T10:48:11Z</time></trkpt><trkpt lat="45.778386554563056" lon="11.449612670026017"><ele>302.0</ele><time>2026-04-26T10:48:12Z</time></trkpt><trkpt lat="45.77852648084289" lon="11.449406347318808"><ele>304.33333333333337</ele><time>2026-04-26T10:48:13Z</time></trkpt><trkpt lat="45.778680142612224" lon="11.449213102109661"><ele>306.6666666666667</ele><time>2026-04-26T10:48:14Z</time></trkpt><trkpt lat="45.77883765314169" lon="11.449015643152833"><ele>309.0</ele><time>2026-04-26T10:48:15Z</time></trkpt><trkpt lat="45.77899816064178" lon="11.448815511159115"><ele>304.6666666666667</ele><time>2026-04-26T10:48:16Z</time></trkpt><trkpt lat="45.77915649689961" lon="11.44861460105339"><ele>300.33333333333337</ele><time>2026-04-26T10:48:17Z</time></trkpt><trkpt lat="45.77931198032943" lon="11.448416898921243"><ele>296.0</ele><time>2026-04-26T10:48:18Z</time></trkpt><trkpt lat="45.77947133230517" lon="11.448221698569967"><ele>301.33333333333337</ele><time>2026-04-26T10:48:19Z</time></trkpt><trkpt lat="45.779627616188876" lon="11.448020649833408"><ele>306.6666666666667</ele><time>2026-04-26T10:48:20Z</time></trkpt><trkpt lat="45.77977855177112" lon="11.447824458447382"><ele>312.0</ele><time>2026-04-26T10:48:21Z</time></trkpt><trkpt lat="45.77992710542784" lon="11.447627415781001"><ele>312.0</ele><time>2026-04-26T10:48:22Z</time></trkpt><trkpt lat="45.780063586909854" lon="11.44742190483109"><ele>312.0</ele><time>2026-04-26T10:48:23Z</time></trkpt><trkpt lat="45.78017132214997" lon="11.447202094949974"><ele>312.0</ele><time>2026-04-26T10:48:24Z</time></trkpt><trkpt lat="45.7802431466956" lon="11.446955083217082"><ele>320.0</ele><time>2026-04-26T10:48:25Z</time></trkpt><trkpt lat="45.78028919561684" lon="11.44667219810602"><ele>328.0</ele><time>2026-04-26T10:48:26Z</time></trkpt><trkpt lat="45.780342568185496" lon="11.446387145073148"><ele>336.0</ele><time>2026-04-26T10:48:27Z</time></trkpt><trkpt lat="45.78039421497642" lon="11.446107791452956"><ele>336.0</ele><time>2026-04-26T10:48:28Z</time></trkpt><trkpt lat="45.78046534561541" lon="11.445836956957796"><ele>336.0</ele><time>2026-04-26T10:48:29Z</time></trkpt><trkpt lat="45.78051782437234" lon="11.445575623909189"><ele>336.0</ele><time>2026-04-26T10:48:30Z</time></trkpt><trkpt lat="45.78057170946621" lon="11.44530708567768"><ele>336.0</ele><time>2026-04-26T10:48:31Z</time></trkpt><trkpt lat="45.780621159628716" lon="11.445060121856322"><ele>336.0</ele><time>2026-04-26T10:48:32Z</time></trkpt><trkpt lat="45.78066885964518" lon="11.444821898629122"><ele>336.0</ele><time>2026-04-26T10:48:33Z</time></trkpt><trkpt lat="45.78071508198205" lon="11.4445856106528"><ele>332.6666666666667</ele><time>2026-04-26T10:48:34Z</time></trkpt><trkpt lat="45.78076095927942" lon="11.444363842042186"><ele>329.33333333333337</ele><time>2026-04-26T10:48:35Z</time></trkpt><trkpt lat="45.780814070625766" lon="11.444160652787701"><ele>326.0</ele><time>2026-04-26T10:48:36Z</time></trkpt><trkpt lat="45.78088090010812" lon="11.443953184706885"><ele>324.6666666666667</ele><time>2026-04-26T10:48:37Z</time></trkpt><trkpt lat="45.78096696752534" lon="11.443750635664498"><ele>323.3333333333333</ele><time>2026-04-26T10:48:38Z</time></trkpt><trkpt lat="45.78105200129299" lon="11.443529718008273"><ele>322.0</ele><time>2026-04-26T10:48:39Z</time></trkpt><trkpt lat="45.78114532594192" lon="11.443318255559532"><ele>327.0</ele><time>2026-04-26T10:48:40Z</time></trkpt><trkpt lat="45.78123551644849" lon="11.443127529003155"><ele>332.0</ele><time>2026-04-26T10:48:41Z</time></trkpt><trkpt lat="45.78131925608415" lon="11.442932030523085"><ele>337.0</ele><time>2026-04-26T10:48:42Z</time></trkpt><trkpt lat="45.781402263093746" lon="11.442745608089647"><ele>337.0</ele><time>2026-04-26T10:48:43Z</time></trkpt><trkpt lat="45.78150674145633" lon="11.442582682218267"><ele>337.0</ele><time>2026-04-26T10:48:44Z</time></trkpt><trkpt lat="45.78159882902089" lon="11.442415304882271"><ele>337.0</ele><time>2026-04-26T10:48:44.999Z</time></trkpt><trkpt lat="45.78169915839697" lon="11.442259085367974"><ele>338.66666666666663</ele><time>2026-04-26T10:48:45.999Z</time></trkpt><trkpt lat="45.781821626038436" lon="11.44211420845307"><ele>340.3333333333333</ele><time>2026-04-26T10:48:46.999Z</time></trkpt><trkpt lat="45.78195470770553" lon="11.441992478582781"><ele>342.0</ele><time>2026-04-26T10:48:47.999Z</time></trkpt><trkpt lat="45.782107171872966" lon="11.441885562557678"><ele>342.0</ele><time>2026-04-26T10:48:48.999Z</time></trkpt><trkpt lat="45.782270418809276" lon="11.441790950188922"><ele>342.0</ele><time>2026-04-26T10:48:49.999Z</time></trkpt><trkpt lat="45.78242955024627" lon="11.441689400243472"><ele>342.0</ele><time>2026-04-26T10:48:50.999Z</time></trkpt><trkpt lat="45.78258644668706" lon="11.441576862536143"><ele>346.0</ele><time>2026-04-26T10:48:51.999Z</time></trkpt><trkpt lat="45.78273130432593" lon="11.441421138636072"><ele>350.0</ele><time>2026-04-26T10:48:52.999Z</time></trkpt><trkpt lat="45.78287095648034" lon="11.441249187869234"><ele>354.0</ele><time>2026-04-26T10:48:53.999Z</time></trkpt><trkpt lat="45.78300021522758" lon="11.441043971146648"><ele>354.0</ele><time>2026-04-26T10:48:54.999Z</time></trkpt><trkpt lat="45.783118256645864" lon="11.440814810970217"><ele>354.0</ele><time>2026-04-26T10:48:55.999Z</time></trkpt><trkpt lat="45.783237809364515" lon="11.440577202729408"><ele>354.0</ele><time>2026-04-26T10:48:56.999Z</time></trkpt><trkpt lat="45.78337136206996" lon="11.44035049666055"><ele>349.3333333333333</ele><time>2026-04-26T10:48:57.999Z</time></trkpt><trkpt lat="45.783499579249806" lon="11.440121586069923"><ele>344.66666666666663</ele><time>2026-04-26T10:48:58.999Z</time></trkpt><trkpt lat="45.783640608680095" lon="11.439904510059142"><ele>340.0</ele><time>2026-04-26T10:48:59.999Z</time></trkpt><trkpt lat="45.78378591605035" lon="11.439714839295945"><ele>344.66666666666663</ele><time>2026-04-26T10:49:00.999Z</time></trkpt><trkpt lat="45.78393260746457" lon="11.439543276251637"><ele>349.3333333333333</ele><time>2026-04-26T10:49:01.999Z</time></trkpt><trkpt lat="45.784068840380925" lon="11.43935146239934"><ele>354.0</ele><time>2026-04-26T10:49:02.999Z</time></trkpt><trkpt lat="45.7841785444404" lon="11.439152226699482"><ele>354.0</ele><time>2026-04-26T10:49:03.999Z</time></trkpt><trkpt lat="45.7842425627228" lon="11.438917968781581"><ele>354.0</ele><time>2026-04-26T10:49:04.999Z</time></trkpt><trkpt lat="45.78425618524184" lon="11.438687312150691"><ele>354.0</ele><time>2026-04-26T10:49:05.999Z</time></trkpt><trkpt lat="45.784251524412134" lon="11.438476425851606"><ele>354.0</ele><time>2026-04-26T10:49:06.999Z</time></trkpt><trkpt lat="45.78425134594918" lon="11.438285008334717"><ele>354.0</ele><time>2026-04-26T10:49:07.999Z</time></trkpt><trkpt lat="45.784258632183025" lon="11.438123588961808"><ele>354.0</ele><time>2026-04-26T10:49:08.999Z</time></trkpt><trkpt lat="45.78427035101764" lon="11.437985805022379"><ele>354.0</ele><time>2026-04-26T10:49:09.999Z</time></trkpt><trkpt lat="45.78429153833782" lon="11.437873735107665"><ele>354.0</ele><time>2026-04-26T10:49:10.999Z</time></trkpt><trkpt lat="45.78433756125507" lon="11.437791304939173"><ele>357.6666666666667</ele><time>2026-04-26T10:49:11.999Z</time></trkpt><trkpt lat="45.78441008427489" lon="11.437743954463377"><ele>361.3333333333333</ele><time>2026-04-26T10:49:12.999Z</time></trkpt><trkpt lat="45.784491211107195" lon="11.437754729819625"><ele>365.0</ele><time>2026-04-26T10:49:13.999Z</time></trkpt><trkpt lat="45.78456134163656" lon="11.437834177561806"><ele>368.66666666666663</ele><time>2026-04-26T10:49:14.999Z</time></trkpt><trkpt lat="45.784605537701374" lon="11.43794753738851"><ele>372.3333333333333</ele><time>2026-04-26T10:49:15.999Z</time></trkpt><trkpt lat="45.78460690508156" lon="11.438096468481167"><ele>376.0</ele><time>2026-04-26T10:49:16.999Z</time></trkpt><trkpt lat="45.78457898566446" lon="11.438249237287565"><ele>376.25</ele><time>2026-04-26T10:49:17.999Z</time></trkpt><trkpt lat="45.784549254703926" lon="11.438412963292706"><ele>376.5</ele><time>2026-04-26T10:49:18.999Z</time></trkpt><trkpt lat="45.78452571768437" lon="11.43859651445931"><ele>376.75</ele><time>2026-04-26T10:49:19.999Z</time></trkpt><trkpt lat="45.784513641022805" lon="11.438794178616867"><ele>377.0</ele><time>2026-04-26T10:49:20.999Z</time></trkpt><trkpt lat="45.78450184439041" lon="11.439003967241776"><ele>380.0</ele><time>2026-04-26T10:49:21.999Z</time></trkpt><trkpt lat="45.78447577307551" lon="11.439226485272911"><ele>383.0</ele><time>2026-04-26T10:49:22.999Z</time></trkpt><trkpt lat="45.78442281729616" lon="11.439457133061499"><ele>386.0</ele><time>2026-04-26T10:49:23.999Z</time></trkpt><trkpt lat="45.78434646558252" lon="11.439688966032513"><ele>381.3333333333333</ele><time>2026-04-26T10:49:24.999Z</time></trkpt><trkpt lat="45.78422873015295" lon="11.439904371546637"><ele>376.66666666666663</ele><time>2026-04-26T10:49:25.999Z</time></trkpt><trkpt lat="45.78410662416603" lon="11.440162937982237"><ele>372.0</ele><time>2026-04-26T10:49:26.999Z</time></trkpt><trkpt lat="45.78398180973199" lon="11.440459597287854"><ele>381.5</ele><time>2026-04-26T10:49:27.999Z</time></trkpt><trkpt lat="45.7838767642875" lon="11.44079452571139"><ele>391.0</ele><time>2026-04-26T10:49:28.999Z</time></trkpt><trkpt lat="45.7837411867557" lon="11.441122567345937"><ele>400.0</ele><time>2026-04-26T10:49:29.999Z</time></trkpt><trkpt lat="45.78362670840657" lon="11.441440572524959"><ele>409.0</ele><time>2026-04-26T10:49:30.999Z</time></trkpt><trkpt lat="45.7835251247801" lon="11.441722568563586"><ele>402.33333333333337</ele><time>2026-04-26T10:49:31.999Z</time></trkpt><trkpt lat="45.78343510780857" lon="11.441972734986141"><ele>395.66666666666663</ele><time>2026-04-26T10:49:32.999Z</time></trkpt><trkpt lat="45.78337183760183" lon="11.442200359245982"><ele>389.0</ele><time>2026-04-26T10:49:33.999Z</time></trkpt><trkpt lat="45.78330463179978" lon="11.442387038719046"><ele>389.0</ele><time>2026-04-26T10:49:34.999Z</time></trkpt><trkpt lat="45.78323270651243" lon="11.442566089705947"><ele>389.0</ele><time>2026-04-26T10:49:35.999Z</time></trkpt><trkpt lat="45.7831681094326" lon="11.44274594860444"><ele>389.0</ele><time>2026-04-26T10:49:36.999Z</time></trkpt><trkpt lat="45.78308798893628" lon="11.442911037056168"><ele>389.0</ele><time>2026-04-26T10:49:37.999Z</time></trkpt><trkpt lat="45.78301306007118" lon="11.443077777218718"><ele>397.0</ele><time>2026-04-26T10:49:38.999Z</time></trkpt><trkpt lat="45.78293198856763" lon="11.44325903810767"><ele>405.0</ele><time>2026-04-26T10:49:39.999Z</time></trkpt><trkpt lat="45.78282479391121" lon="11.443409603586264"><ele>413.0</ele><time>2026-04-26T10:49:40.999Z</time></trkpt><trkpt lat="45.782718335788466" lon="11.443561941283814"><ele>408.0</ele><time>2026-04-26T10:49:41.999Z</time></trkpt><trkpt lat="45.78262498855682" lon="11.443717745727461"><ele>403.0</ele><time>2026-04-26T10:49:42.999Z</time></trkpt><trkpt lat="45.782539081409844" lon="11.443898907432553"><ele>398.0</ele><time>2026-04-26T10:49:43.999Z</time></trkpt><trkpt lat="45.7824776042551" lon="11.444089126490324"><ele>393.0</ele><time>2026-04-26T10:49:44.999Z</time></trkpt><trkpt lat="45.78242336139625" lon="11.444286874907444"><ele>393.0</ele><time>2026-04-26T10:49:45.999Z</time></trkpt><trkpt lat="45.78238342702644" lon="11.44447024078047"><ele>393.0</ele><time>2026-04-26T10:49:46.999Z</time></trkpt><trkpt lat="45.782343686160466" lon="11.444627447136185"><ele>393.0</ele><time>2026-04-26T10:49:47.999Z</time></trkpt><trkpt lat="45.78230905699508" lon="11.444763782697642"><ele>393.0</ele><time>2026-04-26T10:49:48.998Z</time></trkpt><trkpt lat="45.78228038192369" lon="11.44489099278518"><ele>393.0</ele><time>2026-04-26T10:49:49.998Z</time></trkpt><trkpt lat="45.78225333082642" lon="11.445002499470696"><ele>394.0</ele><time>2026-04-26T10:49:50.998Z</time></trkpt><trkpt lat="45.78224240756857" lon="11.44511759100551"><ele>395.0</ele><time>2026-04-26T10:49:51.998Z</time></trkpt><trkpt lat="45.78227491034196" lon="11.445234394451829"><ele>396.0</ele><time>2026-04-26T10:49:52.998Z</time></trkpt><trkpt lat="45.78235279178339" lon="11.445310860894812"><ele>397.0</ele><time>2026-04-26T10:49:53.998Z</time></trkpt><trkpt lat="45.782447458786265" lon="11.445301960795128"><ele>398.0</ele><time>2026-04-26T10:49:54.998Z</time></trkpt><trkpt lat="45.78251362732174" lon="11.445208300704602"><ele>398.0</ele><time>2026-04-26T10:49:55.998Z</time></trkpt><trkpt lat="45.782549197587684" lon="11.445077880547288"><ele>398.0</ele><time>2026-04-26T10:49:56.998Z</time></trkpt><trkpt lat="45.78257004653361" lon="11.444921896309523"><ele>398.0</ele><time>2026-04-26T10:49:57.998Z</time></trkpt><trkpt lat="45.782605741841806" lon="11.444763955859571"><ele>398.0</ele><time>2026-04-26T10:49:58.998Z</time></trkpt><trkpt lat="45.782654574717924" lon="11.444601024137274"><ele>398.0</ele><time>2026-04-26T10:49:59.998Z</time></trkpt><trkpt lat="45.78271259327733" lon="11.444443225659914"><ele>401.75</ele><time>2026-04-26T10:50:00.998Z</time></trkpt><trkpt lat="45.78278525947028" lon="11.444288547269629"><ele>405.5</ele><time>2026-04-26T10:50:01.998Z</time></trkpt><trkpt lat="45.782866890414645" lon="11.444128399942896"><ele>409.25</ele><time>2026-04-26T10:50:02.998Z</time></trkpt><trkpt lat="45.782960407830906" lon="11.443964314238025"><ele>413.0</ele><time>2026-04-26T10:50:03.998Z</time></trkpt><trkpt lat="45.78306632752161" lon="11.443779489502669"><ele>413.0</ele><time>2026-04-26T10:50:04.998Z</time></trkpt><trkpt lat="45.783186580720844" lon="11.443548293497173"><ele>413.0</ele><time>2026-04-26T10:50:05.998Z</time></trkpt><trkpt lat="45.78334163013198" lon="11.443293053281252"><ele>413.0</ele><time>2026-04-26T10:50:06.998Z</time></trkpt><trkpt lat="45.7834944414466" lon="11.4429851574398"><ele>423.0</ele><time>2026-04-26T10:50:07.998Z</time></trkpt><trkpt lat="45.78364851010108" lon="11.442676454931268"><ele>433.0</ele><time>2026-04-26T10:50:08.998Z</time></trkpt><trkpt lat="45.7838075481649" lon="11.442347761583163"><ele>421.0</ele><time>2026-04-26T10:50:10.998Z</time></trkpt><trkpt lat="45.783975107197925" lon="11.44212453395502"><ele>409.0</ele><time>2026-04-26T10:50:11.998Z</time></trkpt><trkpt lat="45.78413449581427" lon="11.441891826851162"><ele>409.0</ele><time>2026-04-26T10:50:13Z</time></trkpt><trkpt lat="45.784301455588164" lon="11.441643777222778"><ele>409.0</ele><time>2026-04-26T10:50:14Z</time></trkpt><trkpt lat="45.78446985893479" lon="11.441370370072098"><ele>422.5</ele><time>2026-04-26T10:50:15Z</time></trkpt><trkpt lat="45.78462186002125" lon="11.441079583009083"><ele>436.0</ele><time>2026-04-26T10:50:16Z</time></trkpt><trkpt lat="45.784747264946326" lon="11.440793125565019"><ele>436.0</ele><time>2026-04-26T10:50:17Z</time></trkpt><trkpt lat="45.78488553594515" lon="11.440563855612252"><ele>436.0</ele><time>2026-04-26T10:50:18Z</time></trkpt><trkpt lat="45.78501966817672" lon="11.440361213831437"><ele>436.0</ele><time>2026-04-26T10:50:19Z</time></trkpt><trkpt lat="45.785175699749146" lon="11.440175473092154"><ele>440.6666666666667</ele><time>2026-04-26T10:50:20Z</time></trkpt><trkpt lat="45.78534515687184" lon="11.439993764898482"><ele>445.33333333333337</ele><time>2026-04-26T10:50:21Z</time></trkpt><trkpt lat="45.78551705806566" lon="11.439820701013605"><ele>450.0</ele><time>2026-04-26T10:50:22Z</time></trkpt><trkpt lat="45.785695927245165" lon="11.439675978961434"><ele>449.66666666666663</ele><time>2026-04-26T10:50:23Z</time></trkpt><trkpt lat="45.78588851189479" lon="11.439541390659095"><ele>449.3333333333333</ele><time>2026-04-26T10:50:24Z</time></trkpt><trkpt lat="45.78608742123994" lon="11.439415290190311"><ele>449.0</ele><time>2026-04-26T10:50:25Z</time></trkpt><trkpt lat="45.786282015283945" lon="11.439292555734276"><ele>449.0</ele><time>2026-04-26T10:50:26Z</time></trkpt><trkpt lat="45.78647370346952" lon="11.43916174669492"><ele>449.0</ele><time>2026-04-26T10:50:27Z</time></trkpt><trkpt lat="45.786645204921705" lon="11.439012800712442"><ele>449.0</ele><time>2026-04-26T10:50:28Z</time></trkpt><trkpt lat="45.786797171313594" lon="11.438869351049854"><ele>452.0</ele><time>2026-04-26T10:50:29Z</time></trkpt><trkpt lat="45.78693964098485" lon="11.438726026702945"><ele>455.0</ele><time>2026-04-26T10:50:30Z</time></trkpt><trkpt lat="45.78707510309927" lon="11.438547391945608"><ele>458.0</ele><time>2026-04-26T10:50:31Z</time></trkpt><trkpt lat="45.78720803949007" lon="11.43835381820558"><ele>458.0</ele><time>2026-04-26T10:50:32Z</time></trkpt><trkpt lat="45.78732425622692" lon="11.438143245498908"><ele>458.0</ele><time>2026-04-26T10:50:33Z</time></trkpt><trkpt lat="45.78743926534926" lon="11.437939463779465"><ele>458.0</ele><time>2026-04-26T10:50:34Z</time></trkpt><trkpt lat="45.787554083918906" lon="11.437741983360144"><ele>453.3333333333333</ele><time>2026-04-26T10:50:35Z</time></trkpt><trkpt lat="45.78767002572659" lon="11.437554113987439"><ele>448.66666666666663</ele><time>2026-04-26T10:50:36Z</time></trkpt><trkpt lat="45.78777820007692" lon="11.43737731285601"><ele>444.0</ele><time>2026-04-26T10:50:37Z</time></trkpt><trkpt lat="45.787885536488254" lon="11.43719968004574"><ele>450.66666666666663</ele><time>2026-04-26T10:50:38Z</time></trkpt><trkpt lat="45.78798087291877" lon="11.437031193439138"><ele>457.3333333333333</ele><time>2026-04-26T10:50:39Z</time></trkpt><trkpt lat="45.78807996417003" lon="11.436854400409805"><ele>464.0</ele><time>2026-04-26T10:50:40Z</time></trkpt><trkpt lat="45.78818172708942" lon="11.436691361744579"><ele>464.0</ele><time>2026-04-26T10:50:41Z</time></trkpt><trkpt lat="45.788276488591514" lon="11.436539543989788"><ele>464.0</ele><time>2026-04-26T10:50:42Z</time></trkpt><trkpt lat="45.788360052077124" lon="11.436404642392619"><ele>464.0</ele><time>2026-04-26T10:50:43Z</time></trkpt><trkpt lat="45.78842015034203" lon="11.436273677919631"><ele>464.0</ele><time>2026-04-26T10:50:44Z</time></trkpt><trkpt lat="45.788453347991585" lon="11.436139728422523"><ele>464.2</ele><time>2026-04-26T10:50:45Z</time></trkpt><trkpt lat="45.78844960329874" lon="11.435997769691486"><ele>464.4</ele><time>2026-04-26T10:50:46Z</time></trkpt><trkpt lat="45.788422785269894" lon="11.43586134608016"><ele>464.6</ele><time>2026-04-26T10:50:47Z</time></trkpt><trkpt lat="45.78836430807831" lon="11.435715269025575"><ele>464.8</ele><time>2026-04-26T10:50:48Z</time></trkpt><trkpt lat="45.78828393914498" lon="11.435592749407151"><ele>465.0</ele><time>2026-04-26T10:50:49Z</time></trkpt><trkpt lat="45.788176768284906" lon="11.43550554852539"><ele>465.0</ele><time>2026-04-26T10:50:50Z</time></trkpt><trkpt lat="45.78805498901974" lon="11.4354751916698"><ele>465.0</ele><time>2026-04-26T10:50:51Z</time></trkpt><trkpt lat="45.78792955738839" lon="11.435493782127137"><ele>465.0</ele><time>2026-04-26T10:50:52Z</time></trkpt><trkpt lat="45.787803540886586" lon="11.435527309062158"><ele>465.0</ele><time>2026-04-26T10:50:52.999Z</time></trkpt><trkpt lat="45.78768350881927" lon="11.435532538365887"><ele>465.5</ele><time>2026-04-26T10:50:53.999Z</time></trkpt><trkpt lat="45.78757416577135" lon="11.435529153050195"><ele>466.0</ele><time>2026-04-26T10:50:54.999Z</time></trkpt><trkpt lat="45.78746622449579" lon="11.435479270527122"><ele>466.5</ele><time>2026-04-26T10:50:55.999Z</time></trkpt><trkpt lat="45.78736622054463" lon="11.435393446814698"><ele>467.0</ele><time>2026-04-26T10:50:56.999Z</time></trkpt><trkpt lat="45.78730849049452" lon="11.435256607527336"><ele>467.0</ele><time>2026-04-26T10:50:57.999Z</time></trkpt><trkpt lat="45.787234104376275" lon="11.435103130965256"><ele>467.0</ele><time>2026-04-26T10:50:58.999Z</time></trkpt><trkpt lat="45.787204391425725" lon="11.43492513980932"><ele>467.0</ele><time>2026-04-26T10:50:59.999Z</time></trkpt><trkpt lat="45.78722771696711" lon="11.434719257043566"><ele>467.0</ele><time>2026-04-26T10:51:00.999Z</time></trkpt><trkpt lat="45.78725386221525" lon="11.434537837158791"><ele>467.5</ele><time>2026-04-26T10:51:01.999Z</time></trkpt><trkpt lat="45.787275369883254" lon="11.434368915570346"><ele>468.0</ele><time>2026-04-26T10:51:02.999Z</time></trkpt><trkpt lat="45.787327874964284" lon="11.43419630791706"><ele>468.5</ele><time>2026-04-26T10:51:03.999Z</time></trkpt><trkpt lat="45.787385489586015" lon="11.434014364289876"><ele>469.0</ele><time>2026-04-26T10:51:04.999Z</time></trkpt><trkpt lat="45.78746257595399" lon="11.433829215970349"><ele>465.0</ele><time>2026-04-26T10:51:05.999Z</time></trkpt><trkpt lat="45.78755872054455" lon="11.433644602970373"><ele>461.0</ele><time>2026-04-26T10:51:06.999Z</time></trkpt><trkpt lat="45.78765625049781" lon="11.433448659421753"><ele>457.0</ele><time>2026-04-26T10:51:07.999Z</time></trkpt><trkpt lat="45.78775112557745" lon="11.433264940788822"><ele>460.5</ele><time>2026-04-26T10:51:08.999Z</time></trkpt><trkpt lat="45.78785003091116" lon="11.433109512987928"><ele>464.0</ele><time>2026-04-26T10:51:09.999Z</time></trkpt><trkpt lat="45.78793260912223" lon="11.432954414766996"><ele>467.5</ele><time>2026-04-26T10:51:10.999Z</time></trkpt><trkpt lat="45.788021855762885" lon="11.432799281219296"><ele>471.0</ele><time>2026-04-26T10:51:11.999Z</time></trkpt><trkpt lat="45.78811795004853" lon="11.432656582241966"><ele>471.0</ele><time>2026-04-26T10:51:12.999Z</time></trkpt><trkpt lat="45.78822882970141" lon="11.432529103588118"><ele>471.0</ele><time>2026-04-26T10:51:13.999Z</time></trkpt><trkpt lat="45.78834710713359" lon="11.432426228804777"><ele>471.0</ele><time>2026-04-26T10:51:14.999Z</time></trkpt><trkpt lat="45.78847326996493" lon="11.432359593411558"><ele>471.0</ele><time>2026-04-26T10:51:15.999Z</time></trkpt><trkpt lat="45.78860224138759" lon="11.432325962689069"><ele>475.0</ele><time>2026-04-26T10:51:16.999Z</time></trkpt><trkpt lat="45.788731054536946" lon="11.432333994298343"><ele>479.0</ele><time>2026-04-26T10:51:17.999Z</time></trkpt><trkpt lat="45.788858282667036" lon="11.432359363352656"><ele>483.0</ele><time>2026-04-26T10:51:18.999Z</time></trkpt><trkpt lat="45.788983286423736" lon="11.432356142547759"><ele>487.0</ele><time>2026-04-26T10:51:19.999Z</time></trkpt><trkpt lat="45.78911349817986" lon="11.432360275075618"><ele>487.0</ele><time>2026-04-26T10:51:20.999Z</time></trkpt><trkpt lat="45.789250483145956" lon="11.432334760845906"><ele>487.0</ele><time>2026-04-26T10:51:21.999Z</time></trkpt><trkpt lat="45.78937831008688" lon="11.432277037217814"><ele>487.0</ele><time>2026-04-26T10:51:22.999Z</time></trkpt><trkpt lat="45.789497548785484" lon="11.432186208446199"><ele>487.0</ele><time>2026-04-26T10:51:23.999Z</time></trkpt><trkpt lat="45.78962338389693" lon="11.432086649246088"><ele>487.6666666666667</ele><time>2026-04-26T10:51:24.999Z</time></trkpt><trkpt lat="45.789759649582614" lon="11.431965120880802"><ele>488.33333333333337</ele><time>2026-04-26T10:51:25.999Z</time></trkpt><trkpt lat="45.789916356291094" lon="11.43181901125238"><ele>489.0</ele><time>2026-04-26T10:51:26.999Z</time></trkpt><trkpt lat="45.79008027601635" lon="11.431659251800795"><ele>493.0</ele><time>2026-04-26T10:51:27.999Z</time></trkpt><trkpt lat="45.79027145225388" lon="11.43147583627294"><ele>497.0</ele><time>2026-04-26T10:51:28.999Z</time></trkpt><trkpt lat="45.7904687448177" lon="11.431286552720502"><ele>497.0</ele><time>2026-04-26T10:51:29.999Z</time></trkpt><trkpt lat="45.79066761551852" lon="11.431081954477618"><ele>497.0</ele><time>2026-04-26T10:51:30.999Z</time></trkpt><trkpt lat="45.79086259204536" lon="11.430904763818443"><ele>497.0</ele><time>2026-04-26T10:51:31.999Z</time></trkpt><trkpt lat="45.7910309129878" lon="11.430741501067075"><ele>497.0</ele><time>2026-04-26T10:51:32.999Z</time></trkpt><trkpt lat="45.791183285826335" lon="11.430592517362754"><ele>497.0</ele><time>2026-04-26T10:51:33.999Z</time></trkpt><trkpt lat="45.7913278823198" lon="11.43045159001405"><ele>497.0</ele><time>2026-04-26T10:51:34.999Z</time></trkpt><trkpt lat="45.79145531964635" lon="11.430348786223757"><ele>497.0</ele><time>2026-04-26T10:51:35.999Z</time></trkpt><trkpt lat="45.79154812153615" lon="11.430235082462511"><ele>497.0</ele><time>2026-04-26T10:51:36.999Z</time></trkpt><trkpt lat="45.791659271174545" lon="11.430191760236092"><ele>497.0</ele><time>2026-04-26T10:51:37.999Z</time></trkpt><trkpt lat="45.79177863913159" lon="11.43022322392757"><ele>500.5</ele><time>2026-04-26T10:51:38.999Z</time></trkpt><trkpt lat="45.79190126569051" lon="11.430305880050081"><ele>504.0</ele><time>2026-04-26T10:51:39.999Z</time></trkpt><trkpt lat="45.79203623788287" lon="11.430366616403624"><ele>507.5</ele><time>2026-04-26T10:51:40.999Z</time></trkpt><trkpt lat="45.79215751316937" lon="11.430440683158961"><ele>511.0</ele><time>2026-04-26T10:51:41.999Z</time></trkpt><trkpt lat="45.79230602486789" lon="11.430466607275694"><ele>511.0</ele><time>2026-04-26T10:51:42.999Z</time></trkpt><trkpt lat="45.792452165299814" lon="11.430407601067227"><ele>511.0</ele><time>2026-04-26T10:51:43.999Z</time></trkpt><trkpt lat="45.79258710856697" lon="11.430292136875426"><ele>511.0</ele><time>2026-04-26T10:51:44.999Z</time></trkpt><trkpt lat="45.792709125950765" lon="11.430119507841422"><ele>520.0</ele><time>2026-04-26T10:51:45.999Z</time></trkpt><trkpt lat="45.792786391732726" lon="11.429901299633842"><ele>529.0</ele><time>2026-04-26T10:51:46.999Z</time></trkpt><trkpt lat="45.79282842021401" lon="11.429646996140256"><ele>538.0</ele><time>2026-04-26T10:51:47.999Z</time></trkpt><trkpt lat="45.792852691262034" lon="11.42935501901389"><ele>538.0</ele><time>2026-04-26T10:51:48.999Z</time></trkpt><trkpt lat="45.79288439391352" lon="11.429068822569239"><ele>538.0</ele><time>2026-04-26T10:51:49.999Z</time></trkpt><trkpt lat="45.792929949953" lon="11.428807733966746"><ele>538.0</ele><time>2026-04-26T10:51:50.999Z</time></trkpt><trkpt lat="45.793012848872195" lon="11.428572452117157"><ele>533.6666666666667</ele><time>2026-04-26T10:51:51.999Z</time></trkpt><trkpt lat="45.793114814755896" lon="11.428352671442525"><ele>529.3333333333334</ele><time>2026-04-26T10:51:52.999Z</time></trkpt><trkpt lat="45.79324071070196" lon="11.428148942462496"><ele>525.0</ele><time>2026-04-26T10:51:53.999Z</time></trkpt><trkpt lat="45.79337433401794" lon="11.427936210510367"><ele>522.3333333333334</ele><time>2026-04-26T10:51:54.999Z</time></trkpt><trkpt lat="45.79349697861605" lon="11.427690963989352"><ele>519.6666666666667</ele><time>2026-04-26T10:51:55.999Z</time></trkpt><trkpt lat="45.7936138275102" lon="11.427444061901733"><ele>517.0</ele><time>2026-04-26T10:51:56.999Z</time></trkpt><trkpt lat="45.79373295913314" lon="11.42722344336784"><ele>523.3333333333334</ele><time>2026-04-26T10:51:57.999Z</time></trkpt><trkpt lat="45.793843500138806" lon="11.426998756152035"><ele>529.6666666666666</ele><time>2026-04-26T10:51:58.999Z</time></trkpt><trkpt lat="45.793966685114846" lon="11.426775218522483"><ele>536.0</ele><time>2026-04-26T10:51:59.998Z</time></trkpt><trkpt lat="45.794120458208624" lon="11.426574041199498"><ele>536.0</ele><time>2026-04-26T10:52:00.998Z</time></trkpt><trkpt lat="45.794287100401725" lon="11.426380538422249"><ele>536.0</ele><time>2026-04-26T10:52:01.998Z</time></trkpt><trkpt lat="45.79445541422621" lon="11.426183228018697"><ele>536.0</ele><time>2026-04-26T10:52:02.998Z</time></trkpt><trkpt lat="45.79463370121777" lon="11.426000201514407"><ele>536.3333333333333</ele><time>2026-04-26T10:52:03.998Z</time></trkpt><trkpt lat="45.79478276464029" lon="11.425790536533885"><ele>536.6666666666666</ele><time>2026-04-26T10:52:04.998Z</time></trkpt><trkpt lat="45.79487238278325" lon="11.425552110163338"><ele>537.0</ele><time>2026-04-26T10:52:05.998Z</time></trkpt><trkpt lat="45.79495455101583" lon="11.425368851938863"><ele>537.0</ele><time>2026-04-26T10:52:06.998Z</time></trkpt><trkpt lat="45.79500267962914" lon="11.42518500872779"><ele>537.0</ele><time>2026-04-26T10:52:07.998Z</time></trkpt><trkpt lat="45.7950410470794" lon="11.42504421834433"><ele>537.0</ele><time>2026-04-26T10:52:08.998Z</time></trkpt><trkpt lat="45.79508202260429" lon="11.424939570299701"><ele>537.0</ele><time>2026-04-26T10:52:09.998Z</time></trkpt><trkpt lat="45.7951253505626" lon="11.424865684803184"><ele>537.0</ele><time>2026-04-26T10:52:10.998Z</time></trkpt><trkpt lat="45.79520834083263" lon="11.424882383564254"><ele>537.0</ele><time>2026-04-26T10:52:11.998Z</time></trkpt><trkpt lat="45.79527139011439" lon="11.4249875327085"><ele>537.0</ele><time>2026-04-26T10:52:12.998Z</time></trkpt><trkpt lat="45.795272122003865" lon="11.425124798850645"><ele>537.0</ele><time>2026-04-26T10:52:13.998Z</time></trkpt><trkpt lat="45.795210796121765" lon="11.425252784493038"><ele>537.0</ele><time>2026-04-26T10:52:14.998Z</time></trkpt><trkpt lat="45.79513647564889" lon="11.425376990027765"><ele>537.0</ele><time>2026-04-26T10:52:15.998Z</time></trkpt><trkpt lat="45.795070846649985" lon="11.425534876996817"><ele>542.0</ele><time>2026-04-26T10:52:16.998Z</time></trkpt><trkpt lat="45.79501439864372" lon="11.42572772194431"><ele>547.0</ele><time>2026-04-26T10:52:17.998Z</time></trkpt><trkpt lat="45.79496138046304" lon="11.425947470819466"><ele>552.0</ele><time>2026-04-26T10:52:19Z</time></trkpt><trkpt lat="45.79489873149935" lon="11.426184195366153"><ele>557.0</ele><time>2026-04-26T10:52:20Z</time></trkpt><trkpt lat="45.79482267286107" lon="11.426416823045766"><ele>562.0</ele><time>2026-04-26T10:52:21Z</time></trkpt><trkpt lat="45.79471037784115" lon="11.426637206093334"><ele>567.0</ele><time>2026-04-26T10:52:22Z</time></trkpt><trkpt lat="45.79457415812622" lon="11.426828629189803"><ele>567.0</ele><time>2026-04-26T10:52:23Z</time></trkpt><trkpt lat="45.79443391945547" lon="11.427010618970387"><ele>567.0</ele><time>2026-04-26T10:52:24Z</time></trkpt><trkpt lat="45.79432530361513" lon="11.427228345462353"><ele>567.0</ele><time>2026-04-26T10:52:25Z</time></trkpt><trkpt lat="45.79425962230695" lon="11.427477522477993"><ele>565.3333333333334</ele><time>2026-04-26T10:52:26Z</time></trkpt><trkpt lat="45.79423087133851" lon="11.427767794758841"><ele>563.6666666666667</ele><time>2026-04-26T10:52:27Z</time></trkpt><trkpt lat="45.794201211838825" lon="11.428068799410465"><ele>562.0</ele><time>2026-04-26T10:52:28Z</time></trkpt><trkpt lat="45.79416545818919" lon="11.42837479968551"><ele>562.0</ele><time>2026-04-26T10:52:29Z</time></trkpt><trkpt lat="45.794116239851704" lon="11.428679765832165"><ele>562.0</ele><time>2026-04-26T10:52:30Z</time></trkpt><trkpt lat="45.7940572635126" lon="11.428981288098777"><ele>562.0</ele><time>2026-04-26T10:52:31Z</time></trkpt><trkpt lat="45.79399068226649" lon="11.429260618125381"><ele>565.6666666666667</ele><time>2026-04-26T10:52:32Z</time></trkpt><trkpt lat="45.79392703614846" lon="11.429526984071604"><ele>569.3333333333334</ele><time>2026-04-26T10:52:33Z</time></trkpt><trkpt lat="45.79387471274237" lon="11.42976583528378"><ele>573.0</ele><time>2026-04-26T10:52:34Z</time></trkpt><trkpt lat="45.793824668292054" lon="11.429981214860385"><ele>574.1999999999999</ele><time>2026-04-26T10:52:35Z</time></trkpt><trkpt lat="45.79378021017046" lon="11.430174225152884"><ele>575.4</ele><time>2026-04-26T10:52:36Z</time></trkpt><trkpt lat="45.7937459429227" lon="11.430337486252478"><ele>576.5999999999999</ele><time>2026-04-26T10:52:37Z</time></trkpt><trkpt lat="45.793733334612774" lon="11.430472103761963"><ele>577.8</ele><time>2026-04-26T10:52:38Z</time></trkpt><trkpt lat="45.79376515168568" lon="11.4305889795591"><ele>579.0</ele><time>2026-04-26T10:52:39Z</time></trkpt><trkpt lat="45.79383818607359" lon="11.430657681990589"><ele>579.0</ele><time>2026-04-26T10:52:40Z</time></trkpt><trkpt lat="45.79393808326832" lon="11.430666711988323"><ele>579.0</ele><time>2026-04-26T10:52:41Z</time></trkpt><trkpt lat="45.794018415234866" lon="11.430589315049108"><ele>579.0</ele><time>2026-04-26T10:52:42Z</time></trkpt><trkpt lat="45.79406305332093" lon="11.430446646738975"><ele>579.0</ele><time>2026-04-26T10:52:43Z</time></trkpt><trkpt lat="45.794060250943865" lon="11.430271921626234"><ele>579.0</ele><time>2026-04-26T10:52:44Z</time></trkpt><trkpt lat="45.794047990628926" lon="11.430092267182921"><ele>579.0</ele><time>2026-04-26T10:52:45Z</time></trkpt><trkpt lat="45.79409867456098" lon="11.429904222779651"><ele>579.0</ele><time>2026-04-26T10:52:46Z</time></trkpt><trkpt lat="45.79416610239584" lon="11.429709761680824"><ele>579.0</ele><time>2026-04-26T10:52:47Z</time></trkpt><trkpt lat="45.79426226788297" lon="11.429504566421969"><ele>585.6666666666666</ele><time>2026-04-26T10:52:48Z</time></trkpt><trkpt lat="45.79435836574933" lon="11.429273618911497"><ele>592.3333333333333</ele><time>2026-04-26T10:52:49Z</time></trkpt><trkpt lat="45.794468431271746" lon="11.429049657135055"><ele>599.0</ele><time>2026-04-26T10:52:50Z</time></trkpt><trkpt lat="45.794563557781466" lon="11.428802706256675"><ele>599.0</ele><time>2026-04-26T10:52:51Z</time></trkpt><trkpt lat="45.794644621281684" lon="11.428543554810618"><ele>599.0</ele><time>2026-04-26T10:52:52Z</time></trkpt><trkpt lat="45.79474043900967" lon="11.428303262292554"><ele>599.0</ele><time>2026-04-26T10:52:53Z</time></trkpt><trkpt lat="45.794821359013" lon="11.428078045862433"><ele>594.6666666666666</ele><time>2026-04-26T10:52:54Z</time></trkpt><trkpt lat="45.794888401824046" lon="11.427879564012962"><ele>590.3333333333334</ele><time>2026-04-26T10:52:55Z</time></trkpt><trkpt lat="45.795007749005926" lon="11.427729314435108"><ele>586.0</ele><time>2026-04-26T10:52:56Z</time></trkpt><trkpt lat="45.79514242293632" lon="11.427581073308328"><ele>591.0</ele><time>2026-04-26T10:52:57Z</time></trkpt><trkpt lat="45.795299297393804" lon="11.42742202463476"><ele>596.0</ele><time>2026-04-26T10:52:58Z</time></trkpt><trkpt lat="45.795442392416604" lon="11.42722765141543"><ele>601.0</ele><time>2026-04-26T10:52:59Z</time></trkpt><trkpt lat="45.79557037428718" lon="11.427015097583421"><ele>601.0</ele><time>2026-04-26T10:53:00Z</time></trkpt><trkpt lat="45.79567737313976" lon="11.426787705517677"><ele>601.0</ele><time>2026-04-26T10:53:01Z</time></trkpt><trkpt lat="45.79577139753067" lon="11.426588538430233"><ele>601.0</ele><time>2026-04-26T10:53:02Z</time></trkpt><trkpt lat="45.79585690836069" lon="11.426417389662255"><ele>598.2</ele><time>2026-04-26T10:53:02.999Z</time></trkpt><trkpt lat="45.79592484457822" lon="11.426260318495856"><ele>595.4000000000001</ele><time>2026-04-26T10:53:03.999Z</time></trkpt><trkpt lat="45.79596260057908" lon="11.426110640987673"><ele>592.6</ele><time>2026-04-26T10:53:04.999Z</time></trkpt><trkpt lat="45.79600998862325" lon="11.425997571037126"><ele>589.8000000000001</ele><time>2026-04-26T10:53:05.999Z</time></trkpt><trkpt lat="45.79605127530137" lon="11.425897786490815"><ele>587.0</ele><time>2026-04-26T10:53:06.999Z</time></trkpt><trkpt lat="45.796102240152365" lon="11.425839882562242"><ele>593.6</ele><time>2026-04-26T10:53:07.999Z</time></trkpt><trkpt lat="45.79617937864815" lon="11.425911234172831"><ele>600.2</ele><time>2026-04-26T10:53:08.999Z</time></trkpt><trkpt lat="45.796216837655265" lon="11.426028193054098"><ele>606.8</ele><time>2026-04-26T10:53:09.999Z</time></trkpt><trkpt lat="45.79618550660865" lon="11.426151955347295"><ele>613.4</ele><time>2026-04-26T10:53:10.999Z</time></trkpt><trkpt lat="45.796106442992304" lon="11.4262516408818"><ele>620.0</ele><time>2026-04-26T10:53:11.999Z</time></trkpt><trkpt lat="45.79601844802241" lon="11.426369574876954"><ele>613.6666666666666</ele><time>2026-04-26T10:53:12.999Z</time></trkpt><trkpt lat="45.79593301706866" lon="11.426539642714427"><ele>607.3333333333334</ele><time>2026-04-26T10:53:13.999Z</time></trkpt><trkpt lat="45.79585570547931" lon="11.426730436572353"><ele>601.0</ele><time>2026-04-26T10:53:14.999Z</time></trkpt><trkpt lat="45.795792735141184" lon="11.426946162941741"><ele>607.3333333333334</ele><time>2026-04-26T10:53:15.999Z</time></trkpt><trkpt lat="45.79572631507123" lon="11.427190934164658"><ele>613.6666666666666</ele><time>2026-04-26T10:53:16.999Z</time></trkpt><trkpt lat="45.795642642563045" lon="11.427468449627293"><ele>620.0</ele><time>2026-04-26T10:53:17.999Z</time></trkpt><trkpt lat="45.79554980528734" lon="11.427736944892752"><ele>624.3333333333333</ele><time>2026-04-26T10:53:18.999Z</time></trkpt><trkpt lat="45.795442181373986" lon="11.427981950556733"><ele>628.6666666666666</ele><time>2026-04-26T10:53:19.999Z</time></trkpt><trkpt lat="45.7953471111221" lon="11.428249722002272"><ele>633.0</ele><time>2026-04-26T10:53:20.999Z</time></trkpt><trkpt lat="45.795280326777906" lon="11.428530415204104"><ele>633.0</ele><time>2026-04-26T10:53:21.999Z</time></trkpt><trkpt lat="45.79524669638445" lon="11.428804919845534"><ele>633.0</ele><time>2026-04-26T10:53:22.999Z</time></trkpt><trkpt lat="45.795201618701824" lon="11.429096662257257"><ele>633.0</ele><time>2026-04-26T10:53:23.999Z</time></trkpt><trkpt lat="45.79515762402772" lon="11.429418094245305"><ele>625.0</ele><time>2026-04-26T10:53:24.999Z</time></trkpt><trkpt lat="45.79510576288155" lon="11.429753482847545"><ele>617.0</ele><time>2026-04-26T10:53:25.999Z</time></trkpt><trkpt lat="45.79505758748216" lon="11.430098547344876"><ele>617.0</ele><time>2026-04-26T10:53:26.999Z</time></trkpt><trkpt lat="45.79500949202822" lon="11.430453461629272"><ele>617.0</ele><time>2026-04-26T10:53:27.999Z</time></trkpt><trkpt lat="45.79495856281988" lon="11.430810201640028"><ele>621.0</ele><time>2026-04-26T10:53:28.999Z</time></trkpt><trkpt lat="45.79490981216423" lon="11.43116850509463"><ele>625.0</ele><time>2026-04-26T10:53:29.999Z</time></trkpt><trkpt lat="45.79485535822781" lon="11.43152035301801"><ele>631.5</ele><time>2026-04-26T10:53:30.999Z</time></trkpt><trkpt lat="45.794805909605124" lon="11.431858903604642"><ele>638.0</ele><time>2026-04-26T10:53:31.999Z</time></trkpt><trkpt lat="45.794756555103035" lon="11.432191578893178"><ele>643.5</ele><time>2026-04-26T10:53:32.999Z</time></trkpt><trkpt lat="45.79468638275687" lon="11.432507915254652"><ele>649.0</ele><time>2026-04-26T10:53:33.999Z</time></trkpt><trkpt lat="45.79460182330265" lon="11.432812384079385"><ele>655.5</ele><time>2026-04-26T10:53:34.999Z</time></trkpt><trkpt lat="45.79450312176913" lon="11.43311431219292"><ele>662.0</ele><time>2026-04-26T10:53:35.999Z</time></trkpt><trkpt lat="45.79440479414359" lon="11.433411956543084"><ele>656.6666666666666</ele><time>2026-04-26T10:53:36.999Z</time></trkpt><trkpt lat="45.794318907488154" lon="11.4336919646427"><ele>651.3333333333334</ele><time>2026-04-26T10:53:37.999Z</time></trkpt><trkpt lat="45.79423061483026" lon="11.433925527760007"><ele>646.0</ele><time>2026-04-26T10:53:38.999Z</time></trkpt><trkpt lat="45.794134455492305" lon="11.434137675561571"><ele>646.0</ele><time>2026-04-26T10:53:39.999Z</time></trkpt><trkpt lat="45.794034528644616" lon="11.43431767005221"><ele>646.0</ele><time>2026-04-26T10:53:40.999Z</time></trkpt><trkpt lat="45.7939275362147" lon="11.434468881522115"><ele>646.0</ele><time>2026-04-26T10:53:41.999Z</time></trkpt><trkpt lat="45.79382361982787" lon="11.434590354614079"><ele>646.0</ele><time>2026-04-26T10:53:42.999Z</time></trkpt><trkpt lat="45.793734065466666" lon="11.434697372405536"><ele>647.1999999999999</ele><time>2026-04-26T10:53:43.999Z</time></trkpt><trkpt lat="45.793661794797075" lon="11.434796438622156"><ele>648.4</ele><time>2026-04-26T10:53:44.999Z</time></trkpt><trkpt lat="45.79362637464719" lon="11.434911275607067"><ele>649.6</ele><time>2026-04-26T10:53:45.999Z</time></trkpt><trkpt lat="45.79363667743323" lon="11.435039401294954"><ele>650.8</ele><time>2026-04-26T10:53:46.999Z</time></trkpt><trkpt lat="45.79370167962285" lon="11.435137845032246"><ele>652.0</ele><time>2026-04-26T10:53:47.999Z</time></trkpt><trkpt lat="45.79379918605753" lon="11.435149587962576"><ele>652.0</ele><time>2026-04-26T10:53:48.999Z</time></trkpt><trkpt lat="45.79388448382222" lon="11.435080939076629"><ele>652.0</ele><time>2026-04-26T10:53:49.999Z</time></trkpt><trkpt lat="45.79394887612231" lon="11.434940391327524"><ele>652.0</ele><time>2026-04-26T10:53:50.999Z</time></trkpt><trkpt lat="45.793997752189384" lon="11.434752568606436"><ele>652.0</ele><time>2026-04-26T10:53:51.999Z</time></trkpt><trkpt lat="45.79406759929912" lon="11.434636161555991"><ele>650.0</ele><time>2026-04-26T10:53:52.999Z</time></trkpt><trkpt lat="45.794189443683216" lon="11.434439937311643"><ele>648.0</ele><time>2026-04-26T10:53:53.999Z</time></trkpt><trkpt lat="45.794340482765406" lon="11.43422610315937"><ele>646.0</ele><time>2026-04-26T10:53:54.999Z</time></trkpt><trkpt lat="45.794495856745" lon="11.43398265635554"><ele>654.0</ele><time>2026-04-26T10:53:55.999Z</time></trkpt><trkpt lat="45.79466280580225" lon="11.433719309040795"><ele>662.0</ele><time>2026-04-26T10:53:56.999Z</time></trkpt><trkpt lat="45.79483097401404" lon="11.433442791166913"><ele>662.0</ele><time>2026-04-26T10:53:57.999Z</time></trkpt><trkpt lat="45.79500753504757" lon="11.433175301348568"><ele>662.0</ele><time>2026-04-26T10:53:58.999Z</time></trkpt><trkpt lat="45.795173518621425" lon="11.432912135901397"><ele>673.5</ele><time>2026-04-26T10:53:59.999Z</time></trkpt><trkpt lat="45.79532988628064" lon="11.432657864740847"><ele>685.0</ele><time>2026-04-26T10:54:00.999Z</time></trkpt><trkpt lat="45.795461725521534" lon="11.432395352360016"><ele>682.3333333333334</ele><time>2026-04-26T10:54:01.999Z</time></trkpt><trkpt lat="45.79555989680588" lon="11.432107505312368"><ele>679.6666666666666</ele><time>2026-04-26T10:54:02.999Z</time></trkpt><trkpt lat="45.79562651235254" lon="11.431802249936439"><ele>677.0</ele><time>2026-04-26T10:54:03.999Z</time></trkpt><trkpt lat="45.795664675940415" lon="11.431495547715686"><ele>675.0</ele><time>2026-04-26T10:54:04.999Z</time></trkpt><trkpt lat="45.79571681024403" lon="11.4312021348497"><ele>673.0</ele><time>2026-04-26T10:54:05.999Z</time></trkpt><trkpt lat="45.79582017491456" lon="11.430930032972224"><ele>671.0</ele><time>2026-04-26T10:54:06.999Z</time></trkpt><trkpt lat="45.79594151205115" lon="11.430662193508551"><ele>685.0</ele><time>2026-04-26T10:54:07.999Z</time></trkpt><trkpt lat="45.7960789694358" lon="11.430399063986533"><ele>699.0</ele><time>2026-04-26T10:54:08.999Z</time></trkpt><trkpt lat="45.79621478718928" lon="11.430131161841613"><ele>699.0</ele><time>2026-04-26T10:54:09.998Z</time></trkpt><trkpt lat="45.7963131792465" lon="11.429840155652778"><ele>699.0</ele><time>2026-04-26T10:54:10.998Z</time></trkpt><trkpt lat="45.79639790552466" lon="11.42954118668102"><ele>696.3333333333334</ele><time>2026-04-26T10:54:11.998Z</time></trkpt><trkpt lat="45.796459529726235" lon="11.429236295169128"><ele>693.6666666666667</ele><time>2026-04-26T10:54:12.998Z</time></trkpt><trkpt lat="45.7965585473565" lon="11.42894908469768"><ele>691.0</ele><time>2026-04-26T10:54:13.998Z</time></trkpt><trkpt lat="45.79665928431915" lon="11.428685561470232"><ele>687.5</ele><time>2026-04-26T10:54:14.998Z</time></trkpt><trkpt lat="45.796770233110266" lon="11.428541101770492"><ele>684.0</ele><time>2026-04-26T10:54:15.998Z</time></trkpt><trkpt lat="45.79683175239355" lon="11.428304250441423"><ele>680.5</ele><time>2026-04-26T10:54:16.998Z</time></trkpt><trkpt lat="45.796873217894685" lon="11.428142931653504"><ele>677.0</ele><time>2026-04-26T10:54:17.998Z</time></trkpt><trkpt lat="45.7969220093965" lon="11.428015826168098"><ele>680.0</ele><time>2026-04-26T10:54:18.998Z</time></trkpt><trkpt lat="45.796982897866336" lon="11.427915873819908"><ele>683.0</ele><time>2026-04-26T10:54:19.998Z</time></trkpt><trkpt lat="45.79703209319671" lon="11.427836507362247"><ele>686.0</ele><time>2026-04-26T10:54:20.998Z</time></trkpt><trkpt lat="45.7971089899127" lon="11.42785856751023"><ele>689.0</ele><time>2026-04-26T10:54:21.998Z</time></trkpt><trkpt lat="45.79716823421103" lon="11.427956856579"><ele>692.0</ele><time>2026-04-26T10:54:22.998Z</time></trkpt><trkpt lat="45.797162721537084" lon="11.428101680387595"><ele>695.0</ele><time>2026-04-26T10:54:23.998Z</time></trkpt><trkpt lat="45.797093029126" lon="11.42823074156398"><ele>694.0</ele><time>2026-04-26T10:54:25Z</time></trkpt><trkpt lat="45.79699018316374" lon="11.428328205422568"><ele>693.0</ele><time>2026-04-26T10:54:26Z</time></trkpt><trkpt lat="45.79688339386982" lon="11.428447224544755"><ele>692.0</ele><time>2026-04-26T10:54:27Z</time></trkpt><trkpt lat="45.796800528857624" lon="11.428625816098682"><ele>691.0</ele><time>2026-04-26T10:54:28Z</time></trkpt><trkpt lat="45.796738047787045" lon="11.42885458137509"><ele>691.0</ele><time>2026-04-26T10:54:29Z</time></trkpt><trkpt lat="45.79668712182814" lon="11.429101003763364"><ele>691.0</ele><time>2026-04-26T10:54:30Z</time></trkpt><trkpt lat="45.796637181842804" lon="11.429348726308202"><ele>691.0</ele><time>2026-04-26T10:54:31Z</time></trkpt><trkpt lat="45.796614506946604" lon="11.429584113271233"><ele>693.6666666666667</ele><time>2026-04-26T10:54:32Z</time></trkpt><trkpt lat="45.79662386638044" lon="11.429817087796403"><ele>696.3333333333334</ele><time>2026-04-26T10:54:33Z</time></trkpt><trkpt lat="45.79663866087545" lon="11.430056537018547"><ele>699.0</ele><time>2026-04-26T10:54:34Z</time></trkpt><trkpt lat="45.79660656188602" lon="11.43030027914565"><ele>702.0</ele><time>2026-04-26T10:54:35Z</time></trkpt><trkpt lat="45.79650989969877" lon="11.430524449130093"><ele>705.0</ele><time>2026-04-26T10:54:36Z</time></trkpt><trkpt lat="45.79643800777672" lon="11.430786474067746"><ele>708.0</ele><time>2026-04-26T10:54:37Z</time></trkpt><trkpt lat="45.79634878509425" lon="11.431046810693113"><ele>712.0</ele><time>2026-04-26T10:54:38Z</time></trkpt><trkpt lat="45.79627797832931" lon="11.431319786607371"><ele>716.0</ele><time>2026-04-26T10:54:39Z</time></trkpt><trkpt lat="45.79623487851728" lon="11.431597958519855"><ele>720.0</ele><time>2026-04-26T10:54:40Z</time></trkpt><trkpt lat="45.79622794192901" lon="11.431897561386235"><ele>722.0</ele><time>2026-04-26T10:54:41Z</time></trkpt><trkpt lat="45.79625180254707" lon="11.432192005508647"><ele>724.0</ele><time>2026-04-26T10:54:42Z</time></trkpt><trkpt lat="45.79629177211846" lon="11.43248017661202"><ele>726.0</ele><time>2026-04-26T10:54:43Z</time></trkpt><trkpt lat="45.7963017507178" lon="11.432780049603798"><ele>729.6666666666666</ele><time>2026-04-26T10:54:44Z</time></trkpt><trkpt lat="45.79622901077294" lon="11.433064247521243"><ele>733.3333333333333</ele><time>2026-04-26T10:54:45Z</time></trkpt><trkpt lat="45.79616211252084" lon="11.433367363029358"><ele>737.0</ele><time>2026-04-26T10:54:46Z</time></trkpt><trkpt lat="45.79609475703603" lon="11.433672347734333"><ele>740.6666666666666</ele><time>2026-04-26T10:54:47Z</time></trkpt><trkpt lat="45.79602306811889" lon="11.433974303396203"><ele>744.3333333333334</ele><time>2026-04-26T10:54:48Z</time></trkpt><trkpt lat="45.79596125078148" lon="11.434281393475358"><ele>748.0</ele><time>2026-04-26T10:54:49Z</time></trkpt><trkpt lat="45.79590150442834" lon="11.43458426200428"><ele>738.3333333333334</ele><time>2026-04-26T10:54:50Z</time></trkpt><trkpt lat="45.79584432487384" lon="11.434873386862252"><ele>728.6666666666666</ele><time>2026-04-26T10:54:51Z</time></trkpt><trkpt lat="45.79579068385593" lon="11.435129988081458"><ele>719.0</ele><time>2026-04-26T10:54:52Z</time></trkpt><trkpt lat="45.79574271222512" lon="11.435343335954297"><ele>721.5</ele><time>2026-04-26T10:54:53Z</time></trkpt><trkpt lat="45.79567969154533" lon="11.43553072587142"><ele>724.0</ele><time>2026-04-26T10:54:54Z</time></trkpt><trkpt lat="45.795586062257016" lon="11.435656922597143"><ele>726.5</ele><time>2026-04-26T10:54:55Z</time></trkpt><trkpt lat="45.795481963476924" lon="11.435773148411824"><ele>729.0</ele><time>2026-04-26T10:54:56Z</time></trkpt><trkpt lat="45.79539575913885" lon="11.43589188194527"><ele>729.0</ele><time>2026-04-26T10:54:57Z</time></trkpt><trkpt lat="45.79531837013944" lon="11.435972312703065"><ele>729.0</ele><time>2026-04-26T10:54:58Z</time></trkpt><trkpt lat="45.79529252187714" lon="11.436090824013867"><ele>729.0</ele><time>2026-04-26T10:54:59Z</time></trkpt><trkpt lat="45.795318183535166" lon="11.43620493650222"><ele>729.0</ele><time>2026-04-26T10:55:00Z</time></trkpt><trkpt lat="45.79539293642555" lon="11.43628806187333"><ele>729.0</ele><time>2026-04-26T10:55:01Z</time></trkpt><trkpt lat="45.795498144640646" lon="11.436306139609128"><ele>729.0</ele><time>2026-04-26T10:55:02Z</time></trkpt><trkpt lat="45.79560195466643" lon="11.436246491209758"><ele>729.0</ele><time>2026-04-26T10:55:03Z</time></trkpt><trkpt lat="45.79568159653904" lon="11.436110479546205"><ele>729.0</ele><time>2026-04-26T10:55:04Z</time></trkpt><trkpt lat="45.795754404991236" lon="11.4359498685891"><ele>729.0</ele><time>2026-04-26T10:55:05Z</time></trkpt><trkpt lat="45.795845787999575" lon="11.435785496131105"><ele>729.0</ele><time>2026-04-26T10:55:06Z</time></trkpt><trkpt lat="45.79594072658184" lon="11.435599562760117"><ele>729.0</ele><time>2026-04-26T10:55:07Z</time></trkpt><trkpt lat="45.79603869001876" lon="11.435389853812062"><ele>729.0</ele><time>2026-04-26T10:55:08Z</time></trkpt><trkpt lat="45.79612328198621" lon="11.435145769161869"><ele>735.3333333333334</ele><time>2026-04-26T10:55:09Z</time></trkpt><trkpt lat="45.796204010318725" lon="11.434885777259334"><ele>741.6666666666667</ele><time>2026-04-26T10:55:10Z</time></trkpt><trkpt lat="45.796292813636754" lon="11.434608735859102"><ele>748.0</ele><time>2026-04-26T10:55:11Z</time></trkpt><trkpt lat="45.79639159809257" lon="11.434316136664078"><ele>748.0</ele><time>2026-04-26T10:55:12Z</time></trkpt><trkpt lat="45.79648686121669" lon="11.434026132602611"><ele>748.0</ele><time>2026-04-26T10:55:13Z</time></trkpt><trkpt lat="45.796587103643105" lon="11.433731875988059"><ele>744.3333333333334</ele><time>2026-04-26T10:55:14Z</time></trkpt><trkpt lat="45.79669052378358" lon="11.43344865601297"><ele>740.6666666666666</ele><time>2026-04-26T10:55:14.999Z</time></trkpt><trkpt lat="45.79678405846349" lon="11.433165062227053"><ele>737.0</ele><time>2026-04-26T10:55:15.999Z</time></trkpt><trkpt lat="45.79685997968278" lon="11.432886465686737"><ele>746.6666666666666</ele><time>2026-04-26T10:55:16.999Z</time></trkpt><trkpt lat="45.7969114294257" lon="11.432596407790978"><ele>756.3333333333334</ele><time>2026-04-26T10:55:17.999Z</time></trkpt><trkpt lat="45.79693558021659" lon="11.43231476619118"><ele>766.0</ele><time>2026-04-26T10:55:18.999Z</time></trkpt><trkpt lat="45.796990420674824" lon="11.432072460581749"><ele>766.0</ele><time>2026-04-26T10:55:19.999Z</time></trkpt><trkpt lat="45.79704447160141" lon="11.431822111692306"><ele>766.0</ele><time>2026-04-26T10:55:20.999Z</time></trkpt><trkpt lat="45.797116167635565" lon="11.431604741681262"><ele>766.0</ele><time>2026-04-26T10:55:21.999Z</time></trkpt><trkpt lat="45.79720738572474" lon="11.431423945131383"><ele>761.3333333333334</ele><time>2026-04-26T10:55:22.999Z</time></trkpt><trkpt lat="45.79731425396187" lon="11.43125516234342"><ele>756.6666666666666</ele><time>2026-04-26T10:55:23.999Z</time></trkpt><trkpt lat="45.797406838512785" lon="11.431060265889087"><ele>752.0</ele><time>2026-04-26T10:55:24.999Z</time></trkpt><trkpt lat="45.797500864420996" lon="11.430856569190274"><ele>752.0</ele><time>2026-04-26T10:55:25.999Z</time></trkpt><trkpt lat="45.79756155095732" lon="11.430635129595682"><ele>752.0</ele><time>2026-04-26T10:55:26.999Z</time></trkpt><trkpt lat="45.7976088647495" lon="11.430407368328881"><ele>752.0</ele><time>2026-04-26T10:55:27.999Z</time></trkpt><trkpt lat="45.797652691755914" lon="11.430180411287235"><ele>757.25</ele><time>2026-04-26T10:55:28.999Z</time></trkpt><trkpt lat="45.7976914493656" lon="11.429970857046504"><ele>762.5</ele><time>2026-04-26T10:55:29.999Z</time></trkpt><trkpt lat="45.79774126845506" lon="11.429779047282995"><ele>767.75</ele><time>2026-04-26T10:55:30.999Z</time></trkpt><trkpt lat="45.7977749053086" lon="11.429609852216215"><ele>773.0</ele><time>2026-04-26T10:55:31.999Z</time></trkpt><trkpt lat="45.79778911407362" lon="11.429458831951816"><ele>773.0000000000001</ele><time>2026-04-26T10:55:32.999Z</time></trkpt><trkpt lat="45.79782980937668" lon="11.429333682370979"><ele>773.0</ele><time>2026-04-26T10:55:33.999Z</time></trkpt><trkpt lat="45.79785571013925" lon="11.429213885150457"><ele>773.0</ele><time>2026-04-26T10:55:34.999Z</time></trkpt><trkpt lat="45.79789682208492" lon="11.429129351868005"><ele>773.0</ele><time>2026-04-26T10:55:35.999Z</time></trkpt><trkpt lat="45.7979398119284" lon="11.429058747690037"><ele>773.0000000000001</ele><time>2026-04-26T10:55:36.999Z</time></trkpt><trkpt lat="45.798009313895655" lon="11.429050773699982"><ele>773.0</ele><time>2026-04-26T10:55:37.999Z</time></trkpt><trkpt lat="45.79807425384167" lon="11.429112197785473"><ele>773.0</ele><time>2026-04-26T10:55:38.999Z</time></trkpt><trkpt lat="45.798104516146275" lon="11.429222946304538"><ele>773.0</ele><time>2026-04-26T10:55:39.999Z</time></trkpt><trkpt lat="45.79809136739218" lon="11.429336765365564"><ele>773.0</ele><time>2026-04-26T10:55:40.999Z</time></trkpt><trkpt lat="45.79804663170122" lon="11.429444482469275"><ele>773.0</ele><time>2026-04-26T10:55:41.999Z</time></trkpt><trkpt lat="45.79800360449652" lon="11.42956133221147"><ele>773.0</ele><time>2026-04-26T10:55:42.999Z</time></trkpt><trkpt lat="45.797958177473085" lon="11.429710837481572"><ele>776.0</ele><time>2026-04-26T10:55:43.999Z</time></trkpt><trkpt lat="45.79791203856352" lon="11.429873932111072"><ele>779.0</ele><time>2026-04-26T10:55:44.999Z</time></trkpt><trkpt lat="45.79785964332382" lon="11.430054014567567"><ele>782.0</ele><time>2026-04-26T10:55:45.999Z</time></trkpt><trkpt lat="45.79782196083761" lon="11.430258083270065"><ele>785.0</ele><time>2026-04-26T10:55:46.999Z</time></trkpt><trkpt lat="45.79780885705182" lon="11.43046728916003"><ele>787.25</ele><time>2026-04-26T10:55:47.999Z</time></trkpt><trkpt lat="45.797806172137996" lon="11.430682956434644"><ele>789.5</ele><time>2026-04-26T10:55:48.999Z</time></trkpt><trkpt lat="45.797797461375644" lon="11.430897485026913"><ele>791.75</ele><time>2026-04-26T10:55:49.999Z</time></trkpt><trkpt lat="45.79777268396036" lon="11.431100394006926"><ele>794.0</ele><time>2026-04-26T10:55:50.999Z</time></trkpt><trkpt lat="45.797705639711566" lon="11.43128082326188"><ele>787.0</ele><time>2026-04-26T10:55:51.999Z</time></trkpt><trkpt lat="45.79763902671966" lon="11.431462288419299"><ele>780.0</ele><time>2026-04-26T10:55:52.999Z</time></trkpt><trkpt lat="45.79755584133301" lon="11.431628975708373"><ele>773.0</ele><time>2026-04-26T10:55:53.999Z</time></trkpt><trkpt lat="45.797478492329695" lon="11.431806527898756"><ele>766.0</ele><time>2026-04-26T10:55:54.999Z</time></trkpt><trkpt lat="45.797425175702685" lon="11.432002397355523"><ele>769.3333333333334</ele><time>2026-04-26T10:55:55.999Z</time></trkpt><trkpt lat="45.797396428745785" lon="11.4322166889795"><ele>772.6666666666667</ele><time>2026-04-26T10:55:56.999Z</time></trkpt><trkpt lat="45.79738535495161" lon="11.432440676514528"><ele>776.0</ele><time>2026-04-26T10:55:57.999Z</time></trkpt><trkpt lat="45.79737954859135" lon="11.432687751165387"><ele>776.0</ele><time>2026-04-26T10:55:58.999Z</time></trkpt><trkpt lat="45.7973672080933" lon="11.432926212853834"><ele>776.0</ele><time>2026-04-26T10:55:59.999Z</time></trkpt><trkpt lat="45.797356216130865" lon="11.433171808818745"><ele>776.0</ele><time>2026-04-26T10:56:00.999Z</time></trkpt><trkpt lat="45.79733781889925" lon="11.43340310671015"><ele>779.6666666666667</ele><time>2026-04-26T10:56:01.999Z</time></trkpt><trkpt lat="45.79731229116685" lon="11.433640322672302"><ele>783.3333333333333</ele><time>2026-04-26T10:56:02.999Z</time></trkpt><trkpt lat="45.79726238427708" lon="11.4338856012922"><ele>787.0</ele><time>2026-04-26T10:56:03.999Z</time></trkpt><trkpt lat="45.797219205334116" lon="11.434167057033878"><ele>789.3333333333333</ele><time>2026-04-26T10:56:04.999Z</time></trkpt><trkpt lat="45.79717956244404" lon="11.434465081183918"><ele>791.6666666666667</ele><time>2026-04-26T10:56:05.999Z</time></trkpt><trkpt lat="45.79713934484634" lon="11.43477449862371"><ele>794.0</ele><time>2026-04-26T10:56:06.999Z</time></trkpt><trkpt lat="45.797111757367205" lon="11.43508081401957"><ele>795.3333333333334</ele><time>2026-04-26T10:56:07.999Z</time></trkpt><trkpt lat="45.797068777468986" lon="11.435360105669274"><ele>796.6666666666667</ele><time>2026-04-26T10:56:08.999Z</time></trkpt><trkpt lat="45.79702348974712" lon="11.435606891378571"><ele>798.0</ele><time>2026-04-26T10:56:09.999Z</time></trkpt><trkpt lat="45.79696964360256" lon="11.435839351522135"><ele>800.0</ele><time>2026-04-26T10:56:10.999Z</time></trkpt><trkpt lat="45.796912019804374" lon="11.436049916207175"><ele>802.0</ele><time>2026-04-26T10:56:11.999Z</time></trkpt><trkpt lat="45.79685505795192" lon="11.436245192352574"><ele>804.0</ele><time>2026-04-26T10:56:12.999Z</time></trkpt><trkpt lat="45.796801341731" lon="11.436413953753268"><ele>806.0</ele><time>2026-04-26T10:56:13.999Z</time></trkpt><trkpt lat="45.79674424188609" lon="11.436562631056487"><ele>801.4</ele><time>2026-04-26T10:56:14.999Z</time></trkpt><trkpt lat="45.79668606162771" lon="11.436684742094407"><ele>796.8</ele><time>2026-04-26T10:56:15.999Z</time></trkpt><trkpt lat="45.796646011089294" lon="11.436778009573565"><ele>792.1999999999999</ele><time>2026-04-26T10:56:16.999Z</time></trkpt><trkpt lat="45.79662412594515" lon="11.43686595886653"><ele>787.5999999999999</ele><time>2026-04-26T10:56:17.999Z</time></trkpt><trkpt lat="45.79666506972622" lon="11.43701620436874"><ele>783.0</ele><time>2026-04-26T10:56:19.998Z</time></trkpt><trkpt lat="45.79677443163601" lon="11.437095283191175"><ele>790.0</ele><time>2026-04-26T10:56:21.998Z</time></trkpt><trkpt lat="45.796849797030255" lon="11.43707761939432"><ele>797.0</ele><time>2026-04-26T10:56:22.998Z</time></trkpt><trkpt lat="45.79691390233497" lon="11.436992778298519"><ele>804.0</ele><time>2026-04-26T10:56:23.998Z</time></trkpt><trkpt lat="45.7969485534818" lon="11.436859965697979"><ele>811.0</ele><time>2026-04-26T10:56:24.998Z</time></trkpt><trkpt lat="45.796961894080795" lon="11.436665583502094"><ele>818.0</ele><time>2026-04-26T10:56:25.998Z</time></trkpt><trkpt lat="45.797031418432056" lon="11.436466140534385"><ele>814.0</ele><time>2026-04-26T10:56:26.998Z</time></trkpt><trkpt lat="45.79710486237505" lon="11.436237174848102"><ele>810.0</ele><time>2026-04-26T10:56:27.998Z</time></trkpt><trkpt lat="45.79715963479879" lon="11.436060944613157"><ele>806.0</ele><time>2026-04-26T10:56:28.998Z</time></trkpt><trkpt lat="45.79723696067054" lon="11.435776429859649"><ele>806.0</ele><time>2026-04-26T10:56:29.998Z</time></trkpt><trkpt lat="45.79734090757219" lon="11.435480256749168"><ele>806.0</ele><time>2026-04-26T10:56:31Z</time></trkpt><trkpt lat="45.797449788850784" lon="11.435153092398442"><ele>802.0</ele><time>2026-04-26T10:56:32Z</time></trkpt><trkpt lat="45.79755501635691" lon="11.434805460099286"><ele>798.0</ele><time>2026-04-26T10:56:33Z</time></trkpt><trkpt lat="45.797660378206984" lon="11.434435605654471"><ele>814.0</ele><time>2026-04-26T10:56:34Z</time></trkpt><trkpt lat="45.797770072249335" lon="11.434060200872928"><ele>830.0</ele><time>2026-04-26T10:56:35Z</time></trkpt><trkpt lat="45.79786131074312" lon="11.433688404515559"><ele>830.0</ele><time>2026-04-26T10:56:36Z</time></trkpt><trkpt lat="45.79792356934798" lon="11.433346951626866"><ele>830.0</ele><time>2026-04-26T10:56:37Z</time></trkpt><trkpt lat="45.79797609049177" lon="11.433026986770141"><ele>827.0</ele><time>2026-04-26T10:56:38Z</time></trkpt><trkpt lat="45.79805795022939" lon="11.432743654891764"><ele>824.0</ele><time>2026-04-26T10:56:39Z</time></trkpt><trkpt lat="45.798169025083865" lon="11.432468670373929"><ele>821.0</ele><time>2026-04-26T10:56:40Z</time></trkpt><trkpt lat="45.79829283515125" lon="11.432195330706902"><ele>816.6666666666667</ele><time>2026-04-26T10:56:41Z</time></trkpt><trkpt lat="45.79841039613952" lon="11.43193498050424"><ele>812.3333333333333</ele><time>2026-04-26T10:56:42Z</time></trkpt><trkpt lat="45.79850899863537" lon="11.431669926203089"><ele>808.0</ele><time>2026-04-26T10:56:43Z</time></trkpt><trkpt lat="45.798600977264215" lon="11.431428477260239"><ele>819.6666666666666</ele><time>2026-04-26T10:56:44Z</time></trkpt><trkpt lat="45.79865094451207" lon="11.431185720020208"><ele>831.3333333333333</ele><time>2026-04-26T10:56:45Z</time></trkpt><trkpt lat="45.798659322511725" lon="11.430943823851528"><ele>843.0</ele><time>2026-04-26T10:56:46Z</time></trkpt><trkpt lat="45.79868001569521" lon="11.43072750822273"><ele>843.0</ele><time>2026-04-26T10:56:47Z</time></trkpt><trkpt lat="45.798756192955445" lon="11.430536217711293"><ele>843.0</ele><time>2026-04-26T10:56:48Z</time></trkpt><trkpt lat="45.79884918158943" lon="11.430320990198538"><ele>843.0</ele><time>2026-04-26T10:56:49Z</time></trkpt><trkpt lat="45.798949580466065" lon="11.430088609695716"><ele>838.6666666666667</ele><time>2026-04-26T10:56:50Z</time></trkpt><trkpt lat="45.7990590154198" lon="11.429833978755925"><ele>834.3333333333334</ele><time>2026-04-26T10:56:51Z</time></trkpt><trkpt lat="45.79915932780748" lon="11.429560978137802"><ele>830.0</ele><time>2026-04-26T10:56:52Z</time></trkpt><trkpt lat="45.79925391177149" lon="11.429290054559376"><ele>827.6666666666667</ele><time>2026-04-26T10:56:53Z</time></trkpt><trkpt lat="45.799331806915205" lon="11.429018243446622"><ele>825.3333333333333</ele><time>2026-04-26T10:56:54Z</time></trkpt><trkpt lat="45.79940428406103" lon="11.428767415662234"><ele>823.0</ele><time>2026-04-26T10:56:55Z</time></trkpt><trkpt lat="45.79945656799353" lon="11.42853174624322"><ele>832.0</ele><time>2026-04-26T10:56:56Z</time></trkpt><trkpt lat="45.799494351877115" lon="11.428304034722466"><ele>841.0</ele><time>2026-04-26T10:56:57Z</time></trkpt><trkpt lat="45.79951455817635" lon="11.428084090422287"><ele>850.0</ele><time>2026-04-26T10:56:58Z</time></trkpt><trkpt lat="45.799508340714176" lon="11.427879774414686"><ele>850.0</ele><time>2026-04-26T10:56:59Z</time></trkpt><trkpt lat="45.79950963844131" lon="11.427697986957543"><ele>850.0</ele><time>2026-04-26T10:57:00Z</time></trkpt><trkpt lat="45.79953922626572" lon="11.427544204860745"><ele>850.0</ele><time>2026-04-26T10:57:01Z</time></trkpt><trkpt lat="45.79961631081824" lon="11.427422354491663"><ele>850.0</ele><time>2026-04-26T10:57:02Z</time></trkpt><trkpt lat="45.79971854176407" lon="11.427290572956592"><ele>850.0</ele><time>2026-04-26T10:57:03Z</time></trkpt><trkpt lat="45.79983773173546" lon="11.42715500867355"><ele>850.0</ele><time>2026-04-26T10:57:04Z</time></trkpt><trkpt lat="45.79994833655689" lon="11.426989782781403"><ele>850.0</ele><time>2026-04-26T10:57:05Z</time></trkpt><trkpt lat="45.80004340182402" lon="11.426794536745964"><ele>851.6666666666666</ele><time>2026-04-26T10:57:06Z</time></trkpt><trkpt lat="45.800078743082395" lon="11.426574651602868"><ele>853.3333333333333</ele><time>2026-04-26T10:57:07Z</time></trkpt><trkpt lat="45.80010491086676" lon="11.426363471726287"><ele>855.0</ele><time>2026-04-26T10:57:08Z</time></trkpt><trkpt lat="45.80019773011284" lon="11.426189357939254"><ele>855.0</ele><time>2026-04-26T10:57:09Z</time></trkpt><trkpt lat="45.80030633596131" lon="11.426060863638405"><ele>855.0</ele><time>2026-04-26T10:57:10Z</time></trkpt><trkpt lat="45.80043386539623" lon="11.42600774677726"><ele>855.0</ele><time>2026-04-26T10:57:11Z</time></trkpt><trkpt lat="45.80056956459702" lon="11.425949581426924"><ele>855.0</ele><time>2026-04-26T10:57:12Z</time></trkpt><trkpt lat="45.80068972028329" lon="11.425853939486043"><ele>855.0</ele><time>2026-04-26T10:57:13Z</time></trkpt><trkpt lat="45.80079191741734" lon="11.425708418968801"><ele>855.0</ele><time>2026-04-26T10:57:14Z</time></trkpt><trkpt lat="45.80085646619468" lon="11.425500740485845"><ele>855.0</ele><time>2026-04-26T10:57:15Z</time></trkpt><trkpt lat="45.80087651544983" lon="11.425266991510156"><ele>860.3333333333333</ele><time>2026-04-26T10:57:16Z</time></trkpt><trkpt lat="45.80091061051583" lon="11.42502223936865"><ele>865.6666666666666</ele><time>2026-04-26T10:57:17Z</time></trkpt><trkpt lat="45.80100586335887" lon="11.424763394430215"><ele>871.0</ele><time>2026-04-26T10:57:18Z</time></trkpt><trkpt lat="45.80114736403575" lon="11.424642453314585"><ele>871.0</ele><time>2026-04-26T10:57:19Z</time></trkpt><trkpt lat="45.80129665620583" lon="11.424482018998479"><ele>871.0</ele><time>2026-04-26T10:57:21Z</time></trkpt><trkpt lat="45.80139566267655" lon="11.424296280862418"><ele>871.0</ele><time>2026-04-26T10:57:22Z</time></trkpt><trkpt lat="45.801467601893144" lon="11.424087147187679"><ele>871.0</ele><time>2026-04-26T10:57:23Z</time></trkpt><trkpt lat="45.80148623383161" lon="11.423859781335343"><ele>871.0</ele><time>2026-04-26T10:57:24Z</time></trkpt><trkpt lat="45.801456776834094" lon="11.423626992849497"><ele>871.0</ele><time>2026-04-26T10:57:24.999Z</time></trkpt><trkpt lat="45.80138742027189" lon="11.423399859509624"><ele>870.25</ele><time>2026-04-26T10:57:25.999Z</time></trkpt><trkpt lat="45.801332403848654" lon="11.423172049286167"><ele>869.5</ele><time>2026-04-26T10:57:26.999Z</time></trkpt><trkpt lat="45.801338082847145" lon="11.42295712332482"><ele>868.75</ele><time>2026-04-26T10:57:27.999Z</time></trkpt><trkpt lat="45.801386098285185" lon="11.422783302546433"><ele>868.0</ele><time>2026-04-26T10:57:28.999Z</time></trkpt><trkpt lat="45.801461546125175" lon="11.422657900501125"><ele>867.5</ele><time>2026-04-26T10:57:29.999Z</time></trkpt><trkpt lat="45.80156243145236" lon="11.422560204972001"><ele>867.0</ele><time>2026-04-26T10:57:30.999Z</time></trkpt><trkpt lat="45.80168431489743" lon="11.422489534410966"><ele>866.5</ele><time>2026-04-26T10:57:31.999Z</time></trkpt><trkpt lat="45.80183567309674" lon="11.422430501625119"><ele>866.0</ele><time>2026-04-26T10:57:32.999Z</time></trkpt><trkpt lat="45.801998288129326" lon="11.422376296504646"><ele>866.0</ele><time>2026-04-26T10:57:33.999Z</time></trkpt><trkpt lat="45.802170376169386" lon="11.422350773992147"><ele>866.0</ele><time>2026-04-26T10:57:34.999Z</time></trkpt><trkpt lat="45.80233992697843" lon="11.422376439945383"><ele>866.0</ele><time>2026-04-26T10:57:35.999Z</time></trkpt><trkpt lat="45.80252627422835" lon="11.42243163177043"><ele>864.3333333333334</ele><time>2026-04-26T10:57:36.999Z</time></trkpt><trkpt lat="45.802727868402364" lon="11.42249616953509"><ele>862.6666666666667</ele><time>2026-04-26T10:57:37.999Z</time></trkpt><trkpt lat="45.80293460709523" lon="11.42256282180267"><ele>861.0</ele><time>2026-04-26T10:57:38.999Z</time></trkpt><trkpt lat="45.80314302710447" lon="11.42263340928199"><ele>861.0</ele><time>2026-04-26T10:57:39.999Z</time></trkpt><trkpt lat="45.80335874160704" lon="11.422686649989583"><ele>861.0</ele><time>2026-04-26T10:57:40.999Z</time></trkpt><trkpt lat="45.8035699012363" lon="11.422762100770688"><ele>861.0</ele><time>2026-04-26T10:57:41.999Z</time></trkpt><trkpt lat="45.803781276280226" lon="11.422829582108179"><ele>861.3333333333333</ele><time>2026-04-26T10:57:42.999Z</time></trkpt><trkpt lat="45.803968899305225" lon="11.422874488874132"><ele>861.6666666666666</ele><time>2026-04-26T10:57:43.999Z</time></trkpt><trkpt lat="45.80414468377724" lon="11.42290274641931"><ele>862.0</ele><time>2026-04-26T10:57:44.999Z</time></trkpt><trkpt lat="45.80433734057859" lon="11.422901359867721"><ele>862.0</ele><time>2026-04-26T10:57:45.999Z</time></trkpt><trkpt lat="45.80455262836674" lon="11.422943513360826"><ele>862.0</ele><time>2026-04-26T10:57:46.999Z</time></trkpt><trkpt lat="45.80478606419572" lon="11.422966358898822"><ele>870.0</ele><time>2026-04-26T10:57:47.999Z</time></trkpt><trkpt lat="45.80500759914341" lon="11.422986609409156"><ele>878.0</ele><time>2026-04-26T10:57:48.999Z</time></trkpt><trkpt lat="45.80520275351049" lon="11.42300476116475"><ele>886.0</ele><time>2026-04-26T10:57:49.999Z</time></trkpt><trkpt lat="45.8053771949845" lon="11.423022714192356"><ele>886.0</ele><time>2026-04-26T10:57:50.999Z</time></trkpt><trkpt lat="45.805545738828286" lon="11.423027996210676"><ele>886.0</ele><time>2026-04-26T10:57:51.999Z</time></trkpt><trkpt lat="45.805712552530466" lon="11.42310069382082"><ele>886.0</ele><time>2026-04-26T10:57:52.999Z</time></trkpt><trkpt lat="45.80584887183773" lon="11.423236646039944"><ele>886.0</ele><time>2026-04-26T10:57:53.999Z</time></trkpt><trkpt lat="45.80599050762117" lon="11.423385877043128"><ele>886.0</ele><time>2026-04-26T10:57:54.999Z</time></trkpt><trkpt lat="45.8061820024842" lon="11.423584571121662"><ele>886.0</ele><time>2026-04-26T10:57:55.999Z</time></trkpt><trkpt lat="45.80634844664745" lon="11.423762750773648"><ele>888.6666666666666</ele><time>2026-04-26T10:57:56.999Z</time></trkpt><trkpt lat="45.80651116828731" lon="11.423919031881894"><ele>891.3333333333333</ele><time>2026-04-26T10:57:57.999Z</time></trkpt><trkpt lat="45.806697725109494" lon="11.42401559292792"><ele>894.0</ele><time>2026-04-26T10:57:58.999Z</time></trkpt><trkpt lat="45.806896986438446" lon="11.424057687599356"><ele>894.0</ele><time>2026-04-26T10:57:59.999Z</time></trkpt><trkpt lat="45.80709054663969" lon="11.424074373682426"><ele>894.0</ele><time>2026-04-26T10:58:00.999Z</time></trkpt><trkpt lat="45.807272786884276" lon="11.424094552162078"><ele>894.0</ele><time>2026-04-26T10:58:01.999Z</time></trkpt><trkpt lat="45.80746040660561" lon="11.424156275539831"><ele>892.6666666666667</ele><time>2026-04-26T10:58:02.999Z</time></trkpt><trkpt lat="45.807665440679486" lon="11.42429463993656"><ele>891.3333333333334</ele><time>2026-04-26T10:58:03.999Z</time></trkpt><trkpt lat="45.80778902288253" lon="11.424441519501714"><ele>890.0</ele><time>2026-04-26T10:58:04.999Z</time></trkpt><trkpt lat="45.80790789678342" lon="11.424561431123422"><ele>896.3333333333334</ele><time>2026-04-26T10:58:05.999Z</time></trkpt><trkpt lat="45.808044397460165" lon="11.424694890205748"><ele>902.6666666666667</ele><time>2026-04-26T10:58:06.999Z</time></trkpt><trkpt lat="45.80817782924243" lon="11.424808293882231"><ele>909.0</ele><time>2026-04-26T10:58:07.999Z</time></trkpt><trkpt lat="45.808312115677246" lon="11.42491658815542"><ele>909.0</ele><time>2026-04-26T10:58:08.999Z</time></trkpt><trkpt lat="45.80847077410663" lon="11.424985870372575"><ele>909.0</ele><time>2026-04-26T10:58:09.999Z</time></trkpt><trkpt lat="45.80862189704799" lon="11.424995982736252"><ele>909.0</ele><time>2026-04-26T10:58:10.999Z</time></trkpt><trkpt lat="45.80877142940241" lon="11.42499844243659"><ele>908.0</ele><time>2026-04-26T10:58:11.999Z</time></trkpt><trkpt lat="45.80890999231938" lon="11.424991228213909"><ele>907.0</ele><time>2026-04-26T10:58:12.999Z</time></trkpt><trkpt lat="45.80904617717673" lon="11.42506091115085"><ele>906.0</ele><time>2026-04-26T10:58:13.999Z</time></trkpt><trkpt lat="45.80918866544606" lon="11.425144302405325"><ele>905.0</ele><time>2026-04-26T10:58:14.999Z</time></trkpt><trkpt lat="45.8093190167534" lon="11.425269791062453"><ele>906.0</ele><time>2026-04-26T10:58:15.999Z</time></trkpt><trkpt lat="45.80944002381186" lon="11.425444227826077"><ele>907.0</ele><time>2026-04-26T10:58:16.999Z</time></trkpt><trkpt lat="45.8095557863359" lon="11.4256207408855"><ele>908.0</ele><time>2026-04-26T10:58:17.999Z</time></trkpt><trkpt lat="45.80966966926322" lon="11.42578115025754"><ele>908.0</ele><time>2026-04-26T10:58:18.999Z</time></trkpt><trkpt lat="45.80978111087515" lon="11.425946384668029"><ele>908.0</ele><time>2026-04-26T10:58:19.999Z</time></trkpt><trkpt lat="45.80992964973106" lon="11.42604176344499"><ele>908.0</ele><time>2026-04-26T10:58:20.999Z</time></trkpt><trkpt lat="45.81008130512286" lon="11.426122328432077"><ele>909.3333333333334</ele><time>2026-04-26T10:58:21.999Z</time></trkpt><trkpt lat="45.81024142329345" lon="11.4261648966933"><ele>910.6666666666667</ele><time>2026-04-26T10:58:22.999Z</time></trkpt><trkpt lat="45.81040410601131" lon="11.426220706819349"><ele>912.0</ele><time>2026-04-26T10:58:23.999Z</time></trkpt><trkpt lat="45.81057157003837" lon="11.426261377079754"><ele>912.0</ele><time>2026-04-26T10:58:24.999Z</time></trkpt><trkpt lat="45.81072194707348" lon="11.42629789760408"><ele>912.0</ele><time>2026-04-26T10:58:25.998Z</time></trkpt><trkpt lat="45.81086357721954" lon="11.426333461228008"><ele>912.0</ele><time>2026-04-26T10:58:26.998Z</time></trkpt><trkpt lat="45.811001200696225" lon="11.426374443824491"><ele>912.0</ele><time>2026-04-26T10:58:27.998Z</time></trkpt><trkpt lat="45.81114376859596" lon="11.42644345257212"><ele>917.0</ele><time>2026-04-26T10:58:28.998Z</time></trkpt><trkpt lat="45.811299579596465" lon="11.42654856601453"><ele>922.0</ele><time>2026-04-26T10:58:29.998Z</time></trkpt><trkpt lat="45.81146752169898" lon="11.426675540197353"><ele>927.0</ele><time>2026-04-26T10:58:30.998Z</time></trkpt><trkpt lat="45.81164960551975" lon="11.426817247725115"><ele>931.0</ele><time>2026-04-26T10:58:31.998Z</time></trkpt><trkpt lat="45.81185295699787" lon="11.426974372464386"><ele>935.0</ele><time>2026-04-26T10:58:32.998Z</time></trkpt><trkpt lat="45.81206880747539" lon="11.427142219757084"><ele>935.5</ele><time>2026-04-26T10:58:33.998Z</time></trkpt><trkpt lat="45.81229834420231" lon="11.427317793752666"><ele>936.0</ele><time>2026-04-26T10:58:34.998Z</time></trkpt><trkpt lat="45.81253225589316" lon="11.427497548880487"><ele>940.0</ele><time>2026-04-26T10:58:35.998Z</time></trkpt><trkpt lat="45.81278342623057" lon="11.427664070230458"><ele>944.0</ele><time>2026-04-26T10:58:37Z</time></trkpt><trkpt lat="45.813028724337734" lon="11.427856218005294"><ele>943.0</ele><time>2026-04-26T10:58:38Z</time></trkpt><trkpt lat="45.81327119611149" lon="11.428039694293167"><ele>942.0</ele><time>2026-04-26T10:58:39Z</time></trkpt><trkpt lat="45.813506390706785" lon="11.42822089964116"><ele>944.5</ele><time>2026-04-26T10:58:40Z</time></trkpt><trkpt lat="45.813718458073" lon="11.42838756437899"><ele>947.0</ele><time>2026-04-26T10:58:41Z</time></trkpt><trkpt lat="45.81394143712492" lon="11.428564778211749"><ele>947.0</ele><time>2026-04-26T10:58:42Z</time></trkpt><trkpt lat="45.814141710926215" lon="11.428715622167152"><ele>947.0</ele><time>2026-04-26T10:58:43Z</time></trkpt><trkpt lat="45.81432641592555" lon="11.428854573090808"><ele>947.0</ele><time>2026-04-26T10:58:44Z</time></trkpt><trkpt lat="45.8145003478021" lon="11.428993855762746"><ele>949.3333333333334</ele><time>2026-04-26T10:58:45Z</time></trkpt><trkpt lat="45.81466840847622" lon="11.429125402516961"><ele>951.6666666666667</ele><time>2026-04-26T10:58:46Z</time></trkpt><trkpt lat="45.814824934390344" lon="11.429256924654593"><ele>954.0</ele><time>2026-04-26T10:58:47Z</time></trkpt><trkpt lat="45.814988389801435" lon="11.429425598833138"><ele>954.0</ele><time>2026-04-26T10:58:48Z</time></trkpt><trkpt lat="45.815104448805165" lon="11.429622764680689"><ele>954.0</ele><time>2026-04-26T10:58:49Z</time></trkpt><trkpt lat="45.815209486468525" lon="11.42985721928825"><ele>954.0</ele><time>2026-04-26T10:58:50Z</time></trkpt><trkpt lat="45.81529941517622" lon="11.430117032997972"><ele>960.3333333333333</ele><time>2026-04-26T10:58:51Z</time></trkpt><trkpt lat="45.81537438730677" lon="11.430395599656352"><ele>966.6666666666666</ele><time>2026-04-26T10:58:52Z</time></trkpt><trkpt lat="45.81544350448295" lon="11.430671445824572"><ele>973.0</ele><time>2026-04-26T10:58:53Z</time></trkpt><trkpt lat="45.81551996692419" lon="11.430951425954762"><ele>973.0</ele><time>2026-04-26T10:58:54Z</time></trkpt><trkpt lat="45.81560296242059" lon="11.431238789592022"><ele>973.0</ele><time>2026-04-26T10:58:55Z</time></trkpt><trkpt lat="45.81568826465532" lon="11.431541004908642"><ele>973.0</ele><time>2026-04-26T10:58:56Z</time></trkpt><trkpt lat="45.81577515769542" lon="11.431847527766063"><ele>972.3333333333333</ele><time>2026-04-26T10:58:57Z</time></trkpt><trkpt lat="45.81586133462424" lon="11.432146549630462"><ele>971.6666666666667</ele><time>2026-04-26T10:58:58Z</time></trkpt><trkpt lat="45.8159482226697" lon="11.432434154208675"><ele>971.0</ele><time>2026-04-26T10:58:59Z</time></trkpt><trkpt lat="45.81604663072631" lon="11.43270491597648"><ele>976.0</ele><time>2026-04-26T10:59:00Z</time></trkpt><trkpt lat="45.81616089647467" lon="11.432971395655795"><ele>981.0</ele><time>2026-04-26T10:59:01Z</time></trkpt><trkpt lat="45.81628417455127" lon="11.433224328796143"><ele>986.0</ele><time>2026-04-26T10:59:02Z</time></trkpt><trkpt lat="45.81641671774006" lon="11.433461029691694"><ele>986.0</ele><time>2026-04-26T10:59:03Z</time></trkpt><trkpt lat="45.816543437548454" lon="11.433682611471713"><ele>986.0</ele><time>2026-04-26T10:59:04Z</time></trkpt><trkpt lat="45.816672528125856" lon="11.433908091815423"><ele>986.0</ele><time>2026-04-26T10:59:05Z</time></trkpt><trkpt lat="45.816792556331286" lon="11.434132438544236"><ele>985.0</ele><time>2026-04-26T10:59:06Z</time></trkpt><trkpt lat="45.816915725040246" lon="11.43435353463438"><ele>984.0</ele><time>2026-04-26T10:59:07Z</time></trkpt><trkpt lat="45.81703541447335" lon="11.43457733493214"><ele>983.0</ele><time>2026-04-26T10:59:08Z</time></trkpt><trkpt lat="45.817155424238074" lon="11.434793233332703"><ele>983.0</ele><time>2026-04-26T10:59:09Z</time></trkpt><trkpt lat="45.81728585291778" lon="11.43499623027769"><ele>983.0</ele><time>2026-04-26T10:59:10Z</time></trkpt><trkpt lat="45.817423407917374" lon="11.435157833256113"><ele>983.0</ele><time>2026-04-26T10:59:11Z</time></trkpt><trkpt lat="45.81756670649778" lon="11.435297845587094"><ele>982.5</ele><time>2026-04-26T10:59:12Z</time></trkpt><trkpt lat="45.817690178539124" lon="11.435419146261946"><ele>982.0</ele><time>2026-04-26T10:59:13Z</time></trkpt><trkpt lat="45.8177578271439" lon="11.435555645948845"><ele>981.5</ele><time>2026-04-26T10:59:14Z</time></trkpt><trkpt lat="45.81786309740389" lon="11.435679402557971"><ele>981.0</ele><time>2026-04-26T10:59:15Z</time></trkpt><trkpt lat="45.8182334895857" lon="11.435783925359049"><ele>981.0</ele><time>2026-04-26T10:59:16Z</time></trkpt><trkpt lat="45.818418856621285" lon="11.435889892759507"><ele>981.0</ele><time>2026-04-26T10:59:17Z</time></trkpt><trkpt lat="45.81860665856225" lon="11.435998577041556"><ele>981.0</ele><time>2026-04-26T10:59:18Z</time></trkpt><trkpt lat="45.81879586714093" lon="11.436109520782951"><ele>981.0</ele><time>2026-04-26T10:59:19Z</time></trkpt><trkpt lat="45.818984469932275" lon="11.436225928359384"><ele>981.0</ele><time>2026-04-26T10:59:20Z</time></trkpt><trkpt lat="45.81917105499517" lon="11.436353507530306"><ele>981.0</ele><time>2026-04-26T10:59:21Z</time></trkpt><trkpt lat="45.81935658528068" lon="11.43650011158181"><ele>987.0</ele><time>2026-04-26T10:59:22Z</time></trkpt><trkpt lat="45.81953609580397" lon="11.436676793254021"><ele>993.0</ele><time>2026-04-26T10:59:23Z</time></trkpt><trkpt lat="45.819706346810754" lon="11.436859323019574"><ele>999.0</ele><time>2026-04-26T10:59:24Z</time></trkpt><trkpt lat="45.81987503349125" lon="11.437034264129998"><ele>1000.0</ele><time>2026-04-26T10:59:25Z</time></trkpt><trkpt lat="45.82004328053148" lon="11.437206934419214"><ele>1001.0</ele><time>2026-04-26T10:59:26Z</time></trkpt><trkpt lat="45.82021017860539" lon="11.437381910683552"><ele>1002.0</ele><time>2026-04-26T10:59:27Z</time></trkpt><trkpt lat="45.82037997585581" lon="11.437550595998166"><ele>1002.0</ele><time>2026-04-26T10:59:28Z</time></trkpt><trkpt lat="45.82054909148965" lon="11.437715364606477"><ele>1002.0</ele><time>2026-04-26T10:59:28.999Z</time></trkpt><trkpt lat="45.82071271809938" lon="11.437871154130383"><ele>1002.0</ele><time>2026-04-26T10:59:29.999Z</time></trkpt><trkpt lat="45.8208713507432" lon="11.438015996264827"><ele>1001.0</ele><time>2026-04-26T10:59:30.999Z</time></trkpt><trkpt lat="45.82101697388729" lon="11.438152210079812"><ele>1000.0</ele><time>2026-04-26T10:59:31.999Z</time></trkpt><trkpt lat="45.821131264884954" lon="11.438243896097571"><ele>999.0</ele><time>2026-04-26T10:59:32.999Z</time></trkpt><trkpt lat="45.821204776624036" lon="11.438294040854675"><ele>998.0</ele><time>2026-04-26T10:59:33.999Z</time></trkpt><trkpt lat="45.82130176263929" lon="11.438360738607166"><ele>998.0</ele><time>2026-04-26T10:59:35.999Z</time></trkpt><trkpt lat="45.82141602804515" lon="11.438433359196173"><ele>998.0</ele><time>2026-04-26T10:59:37.999Z</time></trkpt><trkpt lat="45.82148527322553" lon="11.438477047937944"><ele>998.0</ele><time>2026-04-26T10:59:38.999Z</time></trkpt><trkpt lat="45.82155812132617" lon="11.438519273973931"><ele>998.0</ele><time>2026-04-26T10:59:39.999Z</time></trkpt><trkpt lat="45.82164465582824" lon="11.438566003212866"><ele>998.0</ele><time>2026-04-26T10:59:40.999Z</time></trkpt><trkpt lat="45.82174108148909" lon="11.438606756022832"><ele>999.5</ele><time>2026-04-26T10:59:41.999Z</time></trkpt><trkpt lat="45.821843194261135" lon="11.43864362808585"><ele>1001.0</ele><time>2026-04-26T10:59:42.999Z</time></trkpt><trkpt lat="45.821961985180174" lon="11.438675365813358"><ele>1002.5</ele><time>2026-04-26T10:59:43.999Z</time></trkpt><trkpt lat="45.82208904695256" lon="11.438703534600714"><ele>1004.0</ele><time>2026-04-26T10:59:44.999Z</time></trkpt><trkpt lat="45.82222291228269" lon="11.4387225298329"><ele>1004.0</ele><time>2026-04-26T10:59:45.999Z</time></trkpt><trkpt lat="45.82236828906077" lon="11.438725912791366"><ele>1004.0</ele><time>2026-04-26T10:59:46.999Z</time></trkpt><trkpt lat="45.8225221282459" lon="11.438707395817747"><ele>1004.0</ele><time>2026-04-26T10:59:47.999Z</time></trkpt><trkpt lat="45.82268567075108" lon="11.438646121797994"><ele>1004.3333333333334</ele><time>2026-04-26T10:59:48.999Z</time></trkpt><trkpt lat="45.8228552891821" lon="11.438556194214945"><ele>1004.6666666666667</ele><time>2026-04-26T10:59:49.999Z</time></trkpt><trkpt lat="45.823037303908194" lon="11.438452023371134"><ele>1005.0</ele><time>2026-04-26T10:59:50.999Z</time></trkpt><trkpt lat="45.82322635215093" lon="11.438352311811716"><ele>1005.0</ele><time>2026-04-26T10:59:51.999Z</time></trkpt><trkpt lat="45.82342816280518" lon="11.438249042048527"><ele>1005.0</ele><time>2026-04-26T10:59:52.999Z</time></trkpt><trkpt lat="45.82363558758862" lon="11.438145292375022"><ele>1005.0</ele><time>2026-04-26T10:59:53.999Z</time></trkpt><trkpt lat="45.8238456669701" lon="11.438037742304672"><ele>1007.6666666666667</ele><time>2026-04-26T10:59:54.999Z</time></trkpt><trkpt lat="45.82405221127447" lon="11.437921354406265"><ele>1010.3333333333334</ele><time>2026-04-26T10:59:55.999Z</time></trkpt><trkpt lat="45.824250880037255" lon="11.437805026091302"><ele>1013.0</ele><time>2026-04-26T10:59:56.999Z</time></trkpt><trkpt lat="45.82444572160771" lon="11.437664132668303"><ele>1013.0</ele><time>2026-04-26T10:59:57.999Z</time></trkpt><trkpt lat="45.82463444216022" lon="11.437502035450253"><ele>1013.0</ele><time>2026-04-26T10:59:58.999Z</time></trkpt><trkpt lat="45.82482491205407" lon="11.437339321332118"><ele>1013.0</ele><time>2026-04-26T10:59:59.999Z</time></trkpt><trkpt lat="45.82500989503892" lon="11.437164692024176"><ele>1014.6666666666667</ele><time>2026-04-26T11:00:00.999Z</time></trkpt><trkpt lat="45.825191121375546" lon="11.4370199534691"><ele>1016.3333333333333</ele><time>2026-04-26T11:00:01.999Z</time></trkpt><trkpt lat="45.825378914651075" lon="11.436901017697506"><ele>1018.0</ele><time>2026-04-26T11:00:02.999Z</time></trkpt><trkpt lat="45.825541085527874" lon="11.436837616151891"><ele>1018.0</ele><time>2026-04-26T11:00:03.999Z</time></trkpt><trkpt lat="45.82578891829039" lon="11.436797462677704"><ele>1018.0</ele><time>2026-04-26T11:00:04.999Z</time></trkpt><trkpt lat="45.82599788048718" lon="11.436790286295366"><ele>1017.6666666666666</ele><time>2026-04-26T11:00:05.999Z</time></trkpt><trkpt lat="45.82618742016499" lon="11.4367700325698"><ele>1017.3333333333333</ele><time>2026-04-26T11:00:06.999Z</time></trkpt><trkpt lat="45.82635308148602" lon="11.436755318563144"><ele>1017.0</ele><time>2026-04-26T11:00:07.999Z</time></trkpt><trkpt lat="45.82652563247306" lon="11.436745179789918"><ele>1018.0</ele><time>2026-04-26T11:00:08.999Z</time></trkpt><trkpt lat="45.82685239431567" lon="11.436674103635571"><ele>1019.0</ele><time>2026-04-26T11:00:09.999Z</time></trkpt><trkpt lat="45.82706478328849" lon="11.43665152863804"><ele>1019.0</ele><time>2026-04-26T11:00:10.999Z</time></trkpt><trkpt lat="45.82727175945721" lon="11.436617759887707"><ele>1019.0</ele><time>2026-04-26T11:00:11.999Z</time></trkpt><trkpt lat="45.827486049794565" lon="11.436602834049879"><ele>1019.0</ele><time>2026-04-26T11:00:12.999Z</time></trkpt><trkpt lat="45.827692118460824" lon="11.436551818724572"><ele>1018.3333333333334</ele><time>2026-04-26T11:00:13.999Z</time></trkpt><trkpt lat="45.82789307818503" lon="11.436487993040314"><ele>1017.6666666666667</ele><time>2026-04-26T11:00:14.999Z</time></trkpt><trkpt lat="45.8280825310907" lon="11.436422219858464"><ele>1017.0</ele><time>2026-04-26T11:00:15.999Z</time></trkpt><trkpt lat="45.828248494705264" lon="11.436359000171102"><ele>1017.0</ele><time>2026-04-26T11:00:16.999Z</time></trkpt><trkpt lat="45.82838508148808" lon="11.436308391134137"><ele>1017.0</ele><time>2026-04-26T11:00:17.999Z</time></trkpt><trkpt lat="45.82849729319543" lon="11.436273493537739"><ele>1017.0</ele><time>2026-04-26T11:00:18.999Z</time></trkpt><trkpt lat="45.828585960493825" lon="11.436242203859281"><ele>1017.0</ele><time>2026-04-26T11:00:19.999Z</time></trkpt><trkpt lat="45.8286542687751" lon="11.43621545465164"><ele>1017.0</ele><time>2026-04-26T11:00:20.999Z</time></trkpt><trkpt lat="45.82871844636083" lon="11.436188045596682"><ele>1018.8</ele><time>2026-04-26T11:00:21.999Z</time></trkpt><trkpt lat="45.82877900797537" lon="11.436152506567884"><ele>1020.6</ele><time>2026-04-26T11:00:22.999Z</time></trkpt><trkpt lat="45.828858384817906" lon="11.43612439351917"><ele>1022.3999999999999</ele><time>2026-04-26T11:00:23.999Z</time></trkpt><trkpt lat="45.82895845765544" lon="11.436097480057024"><ele>1024.2</ele><time>2026-04-26T11:00:24.999Z</time></trkpt><trkpt lat="45.82908190897415" lon="11.436049842317004"><ele>1026.0</ele><time>2026-04-26T11:00:25.999Z</time></trkpt><trkpt lat="45.8292392035754" lon="11.435997087578428"><ele>1026.3333333333333</ele><time>2026-04-26T11:00:26.998Z</time></trkpt><trkpt lat="45.82942648688414" lon="11.435941531771176"><ele>1026.6666666666665</ele><time>2026-04-26T11:00:27.998Z</time></trkpt><trkpt lat="45.829637843553364" lon="11.435886801902928"><ele>1027.0</ele><time>2026-04-26T11:00:28.998Z</time></trkpt><trkpt lat="45.82987325393182" lon="11.435830284356891"><ele>1027.0</ele><time>2026-04-26T11:00:29.998Z</time></trkpt><trkpt lat="45.83012463455985" lon="11.435783209464798"><ele>1027.0</ele><time>2026-04-26T11:00:30.998Z</time></trkpt><trkpt lat="45.830388828384585" lon="11.435754480816076"><ele>1029.0</ele><time>2026-04-26T11:00:31.998Z</time></trkpt><trkpt lat="45.830658173506905" lon="11.435713477021324"><ele>1031.0</ele><time>2026-04-26T11:00:32.998Z</time></trkpt><trkpt lat="45.83092460469651" lon="11.435652725136082"><ele>1035.0</ele><time>2026-04-26T11:00:33.998Z</time></trkpt><trkpt lat="45.831190264673026" lon="11.435574240858935"><ele>1039.0</ele><time>2026-04-26T11:00:34.998Z</time></trkpt><trkpt lat="45.8314505004402" lon="11.435475271424888"><ele>1038.0</ele><time>2026-04-26T11:00:35.998Z</time></trkpt><trkpt lat="45.8317031768577" lon="11.435378787296333"><ele>1037.0</ele><time>2026-04-26T11:00:36.998Z</time></trkpt><trkpt lat="45.83193791646677" lon="11.43528231326198"><ele>1037.0</ele><time>2026-04-26T11:00:37.998Z</time></trkpt><trkpt lat="45.83217476784933" lon="11.435193716393332"><ele>1037.0</ele><time>2026-04-26T11:00:38.998Z</time></trkpt><trkpt lat="45.83239479057521" lon="11.435071283093267"><ele>1037.0</ele><time>2026-04-26T11:00:39.998Z</time></trkpt><trkpt lat="45.832608654891835" lon="11.434930124597756"><ele>1037.0</ele><time>2026-04-26T11:00:40.998Z</time></trkpt><trkpt lat="45.832808492378135" lon="11.434772356304638"><ele>1035.5</ele><time>2026-04-26T11:00:41.998Z</time></trkpt><trkpt lat="45.83299782906181" lon="11.434589972425192"><ele>1034.0</ele><time>2026-04-26T11:00:43Z</time></trkpt><trkpt lat="45.83318037313223" lon="11.434393755638595"><ele>1034.0</ele><time>2026-04-26T11:00:44Z</time></trkpt><trkpt lat="45.833343984610835" lon="11.4341928169004"><ele>1034.0</ele><time>2026-04-26T11:00:45Z</time></trkpt><trkpt lat="45.83350397525441" lon="11.433990195682068"><ele>1034.0</ele><time>2026-04-26T11:00:46Z</time></trkpt><trkpt lat="45.833655958099804" lon="11.433798643039415"><ele>1035.3333333333335</ele><time>2026-04-26T11:00:47Z</time></trkpt><trkpt lat="45.83379657797805" lon="11.4336414155897"><ele>1036.6666666666667</ele><time>2026-04-26T11:00:48Z</time></trkpt><trkpt lat="45.833934441122324" lon="11.433483433573981"><ele>1038.0</ele><time>2026-04-26T11:00:49Z</time></trkpt><trkpt lat="45.83406669516655" lon="11.433341828131377"><ele>1038.0</ele><time>2026-04-26T11:00:50Z</time></trkpt><trkpt lat="45.83421959011579" lon="11.433208772524381"><ele>1038.0</ele><time>2026-04-26T11:00:51Z</time></trkpt><trkpt lat="45.83440239128437" lon="11.43309690925099"><ele>1038.0</ele><time>2026-04-26T11:00:52Z</time></trkpt><trkpt lat="45.83463934749658" lon="11.43302514587857"><ele>1039.6666666666667</ele><time>2026-04-26T11:00:53Z</time></trkpt><trkpt lat="45.834809189629304" lon="11.432986439549557"><ele>1041.3333333333335</ele><time>2026-04-26T11:00:54Z</time></trkpt><trkpt lat="45.83495856086243" lon="11.432971851570489"><ele>1043.0</ele><time>2026-04-26T11:00:55Z</time></trkpt><trkpt lat="45.83514836701733" lon="11.432950457919022"><ele>1043.6666666666667</ele><time>2026-04-26T11:00:56Z</time></trkpt><trkpt lat="45.835351873179484" lon="11.432956945475837"><ele>1044.3333333333333</ele><time>2026-04-26T11:00:57Z</time></trkpt><trkpt lat="45.83555081529437" lon="11.432961343713426"><ele>1045.0</ele><time>2026-04-26T11:00:58Z</time></trkpt><trkpt lat="45.835750226021325" lon="11.432950081229604"><ele>1045.0</ele><time>2026-04-26T11:00:59Z</time></trkpt><trkpt lat="45.83594510456238" lon="11.432909573626315"><ele>1045.0</ele><time>2026-04-26T11:01:00Z</time></trkpt><trkpt lat="45.836130321383" lon="11.432845749989673"><ele>1045.0</ele><time>2026-04-26T11:01:01Z</time></trkpt><trkpt lat="45.836319295439736" lon="11.432764236010549"><ele>1045.0</ele><time>2026-04-26T11:01:02Z</time></trkpt><trkpt lat="45.836499765770796" lon="11.43266934623573"><ele>1045.0</ele><time>2026-04-26T11:01:03Z</time></trkpt><trkpt lat="45.83668054275489" lon="11.432580978446676"><ele>1045.0</ele><time>2026-04-26T11:01:04Z</time></trkpt><trkpt lat="45.83686239404651" lon="11.432490459839874"><ele>1047.0</ele><time>2026-04-26T11:01:05Z</time></trkpt><trkpt lat="45.8370378656638" lon="11.43240108434412"><ele>1049.0</ele><time>2026-04-26T11:01:06Z</time></trkpt><trkpt lat="45.83720854350016" lon="11.432318937996131"><ele>1051.0</ele><time>2026-04-26T11:01:07Z</time></trkpt><trkpt lat="45.83737525176365" lon="11.432236265915831"><ele>1051.0</ele><time>2026-04-26T11:01:08Z</time></trkpt><trkpt lat="45.837530025878074" lon="11.432169918758483"><ele>1051.0</ele><time>2026-04-26T11:01:09Z</time></trkpt><trkpt lat="45.83769888395313" lon="11.432157968443306"><ele>1051.0</ele><time>2026-04-26T11:01:10Z</time></trkpt><trkpt lat="45.83786118236009" lon="11.432117685585125"><ele>1050.3333333333333</ele><time>2026-04-26T11:01:11Z</time></trkpt><trkpt lat="45.83803316462966" lon="11.432135764120812"><ele>1049.6666666666667</ele><time>2026-04-26T11:01:12Z</time></trkpt><trkpt lat="45.838211158648186" lon="11.432157160105003"><ele>1049.0</ele><time>2026-04-26T11:01:13Z</time></trkpt><trkpt lat="45.838378557714016" lon="11.432192524838934"><ele>1049.6666666666667</ele><time>2026-04-26T11:01:14Z</time></trkpt><trkpt lat="45.83854922800351" lon="11.432233880925555"><ele>1050.3333333333333</ele><time>2026-04-26T11:01:15Z</time></trkpt><trkpt lat="45.83871842280641" lon="11.4322767373306"><ele>1051.0</ele><time>2026-04-26T11:01:16Z</time></trkpt><trkpt lat="45.838879816512524" lon="11.432309587988495"><ele>1051.0</ele><time>2026-04-26T11:01:17Z</time></trkpt><trkpt lat="45.83903336908563" lon="11.432342360658975"><ele>1051.0</ele><time>2026-04-26T11:01:18Z</time></trkpt><trkpt lat="45.839172180977975" lon="11.432413941833598"><ele>1051.0</ele><time>2026-04-26T11:01:19Z</time></trkpt><trkpt lat="45.83930967806747" lon="11.432482139199653"><ele>1051.0</ele><time>2026-04-26T11:01:20Z</time></trkpt><trkpt lat="45.83945290139925" lon="11.432576661038675"><ele>1050.6666666666665</ele><time>2026-04-26T11:01:21Z</time></trkpt><trkpt lat="45.83960865724394" lon="11.432675506403099"><ele>1050.3333333333333</ele><time>2026-04-26T11:01:22Z</time></trkpt><trkpt lat="45.839741692175224" lon="11.432798457303464"><ele>1050.0</ele><time>2026-04-26T11:01:23Z</time></trkpt><trkpt lat="45.8398804762028" lon="11.432920929252546"><ele>1049.6666666666667</ele><time>2026-04-26T11:01:24Z</time></trkpt><trkpt lat="45.84001993593121" lon="11.433034750133979"><ele>1049.3333333333335</ele><time>2026-04-26T11:01:25Z</time></trkpt><trkpt lat="45.84015407839431" lon="11.433143821913333"><ele>1049.0</ele><time>2026-04-26T11:01:26Z</time></trkpt><trkpt lat="45.84027397916823" lon="11.433241505775555"><ele>1048.75</ele><time>2026-04-26T11:01:27Z</time></trkpt><trkpt lat="45.84038255953092" lon="11.433339009298503"><ele>1048.5</ele><time>2026-04-26T11:01:28Z</time></trkpt><trkpt lat="45.84048488815221" lon="11.433448892929398"><ele>1048.25</ele><time>2026-04-26T11:01:28.999Z</time></trkpt><trkpt lat="45.84058054729954" lon="11.433589108361307"><ele>1048.0</ele><time>2026-04-26T11:01:29.999Z</time></trkpt><trkpt lat="45.840666853280084" lon="11.433743709306537"><ele>1047.5</ele><time>2026-04-26T11:01:30.999Z</time></trkpt><trkpt lat="45.84077497043973" lon="11.43387687686074"><ele>1047.0</ele><time>2026-04-26T11:01:31.999Z</time></trkpt><trkpt lat="45.84090818631292" lon="11.43394773396791"><ele>1046.5</ele><time>2026-04-26T11:01:32.999Z</time></trkpt><trkpt lat="45.84105948898122" lon="11.433944077595944"><ele>1046.0</ele><time>2026-04-26T11:01:33.999Z</time></trkpt><trkpt lat="45.84120640769052" lon="11.433942121612587"><ele>1047.6666666666667</ele><time>2026-04-26T11:01:34.999Z</time></trkpt><trkpt lat="45.841344599660786" lon="11.433955770366698"><ele>1049.3333333333333</ele><time>2026-04-26T11:01:35.999Z</time></trkpt><trkpt lat="45.841460708869526" lon="11.434131388032482"><ele>1051.0</ele><time>2026-04-26T11:01:36.999Z</time></trkpt><trkpt lat="45.84159245439459" lon="11.434239539021894"><ele>1051.0</ele><time>2026-04-26T11:01:37.999Z</time></trkpt><trkpt lat="45.84171538566101" lon="11.434382985172247"><ele>1051.0</ele><time>2026-04-26T11:01:38.999Z</time></trkpt><trkpt lat="45.84184743638688" lon="11.434522280576582"><ele>1051.0</ele><time>2026-04-26T11:01:39.999Z</time></trkpt><trkpt lat="45.84198957361358" lon="11.434668767873466"><ele>1051.0</ele><time>2026-04-26T11:01:40.999Z</time></trkpt><trkpt lat="45.84213867623005" lon="11.43481021587151"><ele>1051.0</ele><time>2026-04-26T11:01:41.999Z</time></trkpt><trkpt lat="45.842289967316226" lon="11.434966474871851"><ele>1051.0</ele><time>2026-04-26T11:01:42.999Z</time></trkpt><trkpt lat="45.84243570165919" lon="11.435119628695857"><ele>1051.0</ele><time>2026-04-26T11:01:43.999Z</time></trkpt><trkpt lat="45.842577856776664" lon="11.435266794478329"><ele>1051.0</ele><time>2026-04-26T11:01:44.999Z</time></trkpt><trkpt lat="45.842718149353566" lon="11.435409228383286"><ele>1051.0</ele><time>2026-04-26T11:01:45.999Z</time></trkpt><trkpt lat="45.842851997907495" lon="11.43554186210615"><ele>1050.75</ele><time>2026-04-26T11:01:46.999Z</time></trkpt><trkpt lat="45.8429712988587" lon="11.435664320097194"><ele>1050.5</ele><time>2026-04-26T11:01:47.999Z</time></trkpt><trkpt lat="45.84308361520242" lon="11.435784355791263"><ele>1050.25</ele><time>2026-04-26T11:01:48.999Z</time></trkpt><trkpt lat="45.8431917553794" lon="11.435899595714595"><ele>1050.0</ele><time>2026-04-26T11:01:49.999Z</time></trkpt><trkpt lat="45.84328527903404" lon="11.436000319529125"><ele>1050.0</ele><time>2026-04-26T11:01:50.999Z</time></trkpt><trkpt lat="45.8433576427722" lon="11.436106326935548"><ele>1050.0</ele><time>2026-04-26T11:01:51.999Z</time></trkpt><trkpt lat="45.8434087331747" lon="11.43623482075744"><ele>1050.0</ele><time>2026-04-26T11:01:52.999Z</time></trkpt><trkpt lat="45.8434427832733" lon="11.436383942429167"><ele>1050.0</ele><time>2026-04-26T11:01:53.999Z</time></trkpt><trkpt lat="45.84342035506821" lon="11.436540946363724"><ele>1050.0</ele><time>2026-04-26T11:01:54.999Z</time></trkpt><trkpt lat="45.84340309132764" lon="11.436712723132048"><ele>1050.5</ele><time>2026-04-26T11:01:55.999Z</time></trkpt><trkpt lat="45.843357013167555" lon="11.436886307375254"><ele>1051.0</ele><time>2026-04-26T11:01:56.999Z</time></trkpt><trkpt lat="45.843309540524864" lon="11.437068079642145"><ele>1051.5</ele><time>2026-04-26T11:01:57.999Z</time></trkpt><trkpt lat="45.843269958622" lon="11.437267890134473"><ele>1052.0</ele><time>2026-04-26T11:01:58.999Z</time></trkpt><trkpt lat="45.8432267073453" lon="11.437491134207603"><ele>1050.6666666666667</ele><time>2026-04-26T11:01:59.999Z</time></trkpt><trkpt lat="45.84317907407911" lon="11.437735584717343"><ele>1049.3333333333333</ele><time>2026-04-26T11:02:00.999Z</time></trkpt><trkpt lat="45.843131811217916" lon="11.437987679815558"><ele>1048.0</ele><time>2026-04-26T11:02:01.999Z</time></trkpt><trkpt lat="45.843078285693025" lon="11.438264157471124"><ele>1045.6666666666665</ele><time>2026-04-26T11:02:02.999Z</time></trkpt><trkpt lat="45.84301079887564" lon="11.43860534098847"><ele>1043.3333333333333</ele><time>2026-04-26T11:02:03.999Z</time></trkpt><trkpt lat="45.84297780094789" lon="11.4387934011407"><ele>1041.0</ele><time>2026-04-26T11:02:04.999Z</time></trkpt><trkpt lat="45.84293496245548" lon="11.439013393477811"><ele>1039.6666666666667</ele><time>2026-04-26T11:02:05.999Z</time></trkpt><trkpt lat="45.84289933512211" lon="11.43921707148425"><ele>1038.3333333333335</ele><time>2026-04-26T11:02:06.999Z</time></trkpt><trkpt lat="45.8428445871615" lon="11.439461911760885"><ele>1037.0</ele><time>2026-04-26T11:02:07.999Z</time></trkpt><trkpt lat="45.842800704298185" lon="11.439690902944612"><ele>1035.6666666666667</ele><time>2026-04-26T11:02:08.999Z</time></trkpt><trkpt lat="45.84276085376064" lon="11.439909177068905"><ele>1034.3333333333333</ele><time>2026-04-26T11:02:09.999Z</time></trkpt><trkpt lat="45.842722242730105" lon="11.440119548116844"><ele>1033.0</ele><time>2026-04-26T11:02:10.999Z</time></trkpt><trkpt lat="45.8426766441912" lon="11.440324227121035"><ele>1032.5</ele><time>2026-04-26T11:02:11.999Z</time></trkpt><trkpt lat="45.84263037557778" lon="11.4405269710671"><ele>1032.0</ele><time>2026-04-26T11:02:12.999Z</time></trkpt><trkpt lat="45.84258373752768" lon="11.440721739570188"><ele>1031.5</ele><time>2026-04-26T11:02:13.999Z</time></trkpt><trkpt lat="45.84253941192334" lon="11.440884738000722"><ele>1031.0</ele><time>2026-04-26T11:02:14.999Z</time></trkpt><trkpt lat="45.842516575228345" lon="11.441027237385063"><ele>1031.0</ele><time>2026-04-26T11:02:15.999Z</time></trkpt><trkpt lat="45.84253433579629" lon="11.441158397305944"><ele>1031.0</ele><time>2026-04-26T11:02:16.999Z</time></trkpt><trkpt lat="45.842598720497755" lon="11.441284284319211"><ele>1031.0</ele><time>2026-04-26T11:02:17.999Z</time></trkpt><trkpt lat="45.842704956184996" lon="11.441352253800254"><ele>1031.0</ele><time>2026-04-26T11:02:18.999Z</time></trkpt><trkpt lat="45.84282661168897" lon="11.441329090935954"><ele>1031.0</ele><time>2026-04-26T11:02:19.999Z</time></trkpt><trkpt lat="45.84294893702911" lon="11.44124831058588"><ele>1029.5</ele><time>2026-04-26T11:02:20.999Z</time></trkpt><trkpt lat="45.843082796796686" lon="11.441200953606739"><ele>1028.0</ele><time>2026-04-26T11:02:21.999Z</time></trkpt><trkpt lat="45.84321530848341" lon="11.441137468800505"><ele>1026.5</ele><time>2026-04-26T11:02:22.999Z</time></trkpt><trkpt lat="45.843332332929506" lon="11.441068023367222"><ele>1025.0</ele><time>2026-04-26T11:02:23.999Z</time></trkpt><trkpt lat="45.84343907955314" lon="11.441004105271865"><ele>1023.4</ele><time>2026-04-26T11:02:24.999Z</time></trkpt><trkpt lat="45.8435332943381" lon="11.440931820447945"><ele>1021.8</ele><time>2026-04-26T11:02:25.998Z</time></trkpt><trkpt lat="45.84362590418537" lon="11.44092621986139"><ele>1020.2</ele><time>2026-04-26T11:02:26.998Z</time></trkpt><trkpt lat="45.84370652732277" lon="11.440976856586543"><ele>1018.6</ele><time>2026-04-26T11:02:27.998Z</time></trkpt><trkpt lat="45.84376743658388" lon="11.441088636285254"><ele>1017.0</ele><time>2026-04-26T11:02:28.998Z</time></trkpt><trkpt lat="45.843792678989054" lon="11.441242610058827"><ele>1016.0</ele><time>2026-04-26T11:02:29.998Z</time></trkpt><trkpt lat="45.84379362185976" lon="11.44142196267011"><ele>1015.0</ele><time>2026-04-26T11:02:30.998Z</time></trkpt><trkpt lat="45.84380419648992" lon="11.441619303955514"><ele>1014.0</ele><time>2026-04-26T11:02:31.998Z</time></trkpt><trkpt lat="45.843825864181056" lon="11.44184282343701"><ele>1013.0</ele><time>2026-04-26T11:02:32.998Z</time></trkpt><trkpt lat="45.84384326357766" lon="11.44207509327647"><ele>1012.0</ele><time>2026-04-26T11:02:33.998Z</time></trkpt><trkpt lat="45.843862002966006" lon="11.442325499412151"><ele>1011.0</ele><time>2026-04-26T11:02:34.998Z</time></trkpt><trkpt lat="45.84388272948166" lon="11.442558681654571"><ele>1010.0</ele><time>2026-04-26T11:02:35.998Z</time></trkpt><trkpt lat="45.84389650059102" lon="11.442767585040576"><ele>1008.0</ele><time>2026-04-26T11:02:36.998Z</time></trkpt><trkpt lat="45.84390709627058" lon="11.442966198233654"><ele>1006.0</ele><time>2026-04-26T11:02:37.998Z</time></trkpt><trkpt lat="45.84392702310324" lon="11.44315105626271"><ele>1004.0</ele><time>2026-04-26T11:02:38.998Z</time></trkpt><trkpt lat="45.84395723975301" lon="11.443315843921107"><ele>1002.0</ele><time>2026-04-26T11:02:39.998Z</time></trkpt><trkpt lat="45.84401788155167" lon="11.44344844274218"><ele>1002.0</ele><time>2026-04-26T11:02:40.998Z</time></trkpt><trkpt lat="45.84411172674813" lon="11.443539644138278"><ele>1002.0</ele><time>2026-04-26T11:02:41.998Z</time></trkpt><trkpt lat="45.84422033779516" lon="11.443588917683703"><ele>1002.0</ele><time>2026-04-26T11:02:42.998Z</time></trkpt><trkpt lat="45.84434863295506" lon="11.443588815023059"><ele>1002.0</ele><time>2026-04-26T11:02:43.998Z</time></trkpt><trkpt lat="45.84447476156918" lon="11.443537325289789"><ele>1001.25</ele><time>2026-04-26T11:02:44.998Z</time></trkpt><trkpt lat="45.84459349711145" lon="11.443434919575393"><ele>1000.5</ele><time>2026-04-26T11:02:45.998Z</time></trkpt><trkpt lat="45.844703153766126" lon="11.443305973320983"><ele>999.75</ele><time>2026-04-26T11:02:46.998Z</time></trkpt><trkpt lat="45.844812731254905" lon="11.443185263119767"><ele>999.0</ele><time>2026-04-26T11:02:47.998Z</time></trkpt><trkpt lat="45.8449188112971" lon="11.443092412082793"><ele>999.0</ele><time>2026-04-26T11:02:49Z</time></trkpt><trkpt lat="45.845028341805524" lon="11.443031540296339"><ele>999.0</ele><time>2026-04-26T11:02:50Z</time></trkpt><trkpt lat="45.845144670249844" lon="11.4430149316117"><ele>999.0</ele><time>2026-04-26T11:02:51Z</time></trkpt><trkpt lat="45.84525413334541" lon="11.443050252269138"><ele>999.0</ele><time>2026-04-26T11:02:52Z</time></trkpt><trkpt lat="45.84534708319596" lon="11.443138239621181"><ele>998.0</ele><time>2026-04-26T11:02:53Z</time></trkpt><trkpt lat="45.84542326127563" lon="11.443276494542484"><ele>997.0</ele><time>2026-04-26T11:02:54Z</time></trkpt><trkpt lat="45.845473621544095" lon="11.443448939389986"><ele>996.0</ele><time>2026-04-26T11:02:55Z</time></trkpt><trkpt lat="45.845494141187565" lon="11.443644862306774"><ele>995.0</ele><time>2026-04-26T11:02:56Z</time></trkpt><trkpt lat="45.845513639297046" lon="11.44383645242553"><ele>994.5</ele><time>2026-04-26T11:02:57Z</time></trkpt><trkpt lat="45.845573589135896" lon="11.443999701511247"><ele>994.0</ele><time>2026-04-26T11:02:58Z</time></trkpt><trkpt lat="45.84566695257868" lon="11.44412788410449"><ele>993.5</ele><time>2026-04-26T11:02:59Z</time></trkpt><trkpt lat="45.84578617008605" lon="11.444209437895394"><ele>993.0</ele><time>2026-04-26T11:03:00Z</time></trkpt><trkpt lat="45.84591060289589" lon="11.44425488726771"><ele>992.75</ele><time>2026-04-26T11:03:01Z</time></trkpt><trkpt lat="45.84603601691444" lon="11.444326670253643"><ele>992.5</ele><time>2026-04-26T11:03:02Z</time></trkpt><trkpt lat="45.84614557316283" lon="11.44444047595802"><ele>992.25</ele><time>2026-04-26T11:03:03Z</time></trkpt><trkpt lat="45.84623293942997" lon="11.444598639529021"><ele>992.0</ele><time>2026-04-26T11:03:04Z</time></trkpt><trkpt lat="45.846292481292295" lon="11.444788247984148"><ele>990.75</ele><time>2026-04-26T11:03:05Z</time></trkpt><trkpt lat="45.84632705295134" lon="11.444972602231246"><ele>989.5</ele><time>2026-04-26T11:03:06Z</time></trkpt><trkpt lat="45.84635693155496" lon="11.44514289317421"><ele>988.25</ele><time>2026-04-26T11:03:07Z</time></trkpt><trkpt lat="45.8464165491262" lon="11.44527832634715"><ele>987.0</ele><time>2026-04-26T11:03:08Z</time></trkpt><trkpt lat="45.84651827135079" lon="11.445366247390997"><ele>987.0</ele><time>2026-04-26T11:03:09Z</time></trkpt><trkpt lat="45.846648971875545" lon="11.445409295374196"><ele>987.0</ele><time>2026-04-26T11:03:10Z</time></trkpt><trkpt lat="45.84679628039989" lon="11.445440641605474"><ele>987.0</ele><time>2026-04-26T11:03:11Z</time></trkpt><trkpt lat="45.84694907670025" lon="11.445492846347976"><ele>987.0</ele><time>2026-04-26T11:03:12Z</time></trkpt><trkpt lat="45.847101249392026" lon="11.445552563413989"><ele>984.6666666666667</ele><time>2026-04-26T11:03:13Z</time></trkpt><trkpt lat="45.8472508639137" lon="11.445614188066914"><ele>982.3333333333334</ele><time>2026-04-26T11:03:14Z</time></trkpt><trkpt lat="45.84739133321278" lon="11.445701435980556"><ele>980.0</ele><time>2026-04-26T11:03:15Z</time></trkpt><trkpt lat="45.84751470656199" lon="11.445832788718809"><ele>980.0</ele><time>2026-04-26T11:03:16Z</time></trkpt><trkpt lat="45.84761449155079" lon="11.44601250283706"><ele>980.0</ele><time>2026-04-26T11:03:17Z</time></trkpt><trkpt lat="45.84769208739615" lon="11.446215110671563"><ele>980.0</ele><time>2026-04-26T11:03:18Z</time></trkpt><trkpt lat="45.847768777554144" lon="11.44643327470583"><ele>979.25</ele><time>2026-04-26T11:03:19Z</time></trkpt><trkpt lat="45.84781217750652" lon="11.44657403294967"><ele>978.5</ele><time>2026-04-26T11:03:20Z</time></trkpt><trkpt lat="45.847895766098674" lon="11.446744001583207"><ele>977.75</ele><time>2026-04-26T11:03:21Z</time></trkpt><trkpt lat="45.84799806072205" lon="11.446873098076656"><ele>977.0</ele><time>2026-04-26T11:03:22Z</time></trkpt><trkpt lat="45.848126214246335" lon="11.446967672579214"><ele>977.0</ele><time>2026-04-26T11:03:23Z</time></trkpt><trkpt lat="45.84826494231836" lon="11.447024958495957"><ele>977.0</ele><time>2026-04-26T11:03:24Z</time></trkpt><trkpt lat="45.84839456191731" lon="11.447059703131135"><ele>977.0</ele><time>2026-04-26T11:03:25Z</time></trkpt><trkpt lat="45.84850368888439" lon="11.447094564225646"><ele>977.0</ele><time>2026-04-26T11:03:26Z</time></trkpt><trkpt lat="45.84859233410192" lon="11.447126495018914"><ele>975.8333333333334</ele><time>2026-04-26T11:03:27Z</time></trkpt><trkpt lat="45.84865985426814" lon="11.447169144585867"><ele>974.6666666666667</ele><time>2026-04-26T11:03:28Z</time></trkpt><trkpt lat="45.848694370916974" lon="11.447258637609819"><ele>973.5</ele><time>2026-04-26T11:03:29Z</time></trkpt><trkpt lat="45.84868120458637" lon="11.447370412352349"><ele>972.3333333333333</ele><time>2026-04-26T11:03:30Z</time></trkpt><trkpt lat="45.848586687972144" lon="11.447426813321005"><ele>971.1666666666666</ele><time>2026-04-26T11:03:31Z</time></trkpt><trkpt lat="45.848496672560394" lon="11.44733148743878"><ele>970.0</ele><time>2026-04-26T11:03:32Z</time></trkpt><trkpt lat="45.8484132821986" lon="11.447259621298594"><ele>968.25</ele><time>2026-04-26T11:03:33Z</time></trkpt><trkpt lat="45.848275842152695" lon="11.447242056290033"><ele>966.5</ele><time>2026-04-26T11:03:33.999Z</time></trkpt><trkpt lat="45.848127965541885" lon="11.447221773868929"><ele>964.75</ele><time>2026-04-26T11:03:34.999Z</time></trkpt><trkpt lat="45.84797292911743" lon="11.447182685811208"><ele>963.0</ele><time>2026-04-26T11:03:35.999Z</time></trkpt><trkpt lat="45.84783845711077" lon="11.44707944538661"><ele>963.75</ele><time>2026-04-26T11:03:36.999Z</time></trkpt><trkpt lat="45.84770734985493" lon="11.44695904617916"><ele>964.5</ele><time>2026-04-26T11:03:37.999Z</time></trkpt><trkpt lat="45.84758022082924" lon="11.446862092307839"><ele>965.25</ele><time>2026-04-26T11:03:38.999Z</time></trkpt><trkpt lat="45.847475354232195" lon="11.446761735135539"><ele>966.0</ele><time>2026-04-26T11:03:39.999Z</time></trkpt><trkpt lat="45.847382716376295" lon="11.446704039282958"><ele>966.0</ele><time>2026-04-26T11:03:40.999Z</time></trkpt><trkpt lat="45.847289037622105" lon="11.446711484905988"><ele>966.0</ele><time>2026-04-26T11:03:41.999Z</time></trkpt><trkpt lat="45.84720327894254" lon="11.44682621456589"><ele>966.0</ele><time>2026-04-26T11:03:42.999Z</time></trkpt><trkpt lat="45.84711735874604" lon="11.446957562625746"><ele>966.0</ele><time>2026-04-26T11:03:43.999Z</time></trkpt><trkpt lat="45.84704217546877" lon="11.447124563470796"><ele>964.3333333333333</ele><time>2026-04-26T11:03:44.999Z</time></trkpt><trkpt lat="45.84696295162765" lon="11.447309164582745"><ele>962.6666666666666</ele><time>2026-04-26T11:03:45.999Z</time></trkpt><trkpt lat="45.846870758604396" lon="11.447498109514893"><ele>961.0</ele><time>2026-04-26T11:03:46.999Z</time></trkpt><trkpt lat="45.84676905942643" lon="11.447692798872952"><ele>961.0</ele><time>2026-04-26T11:03:47.999Z</time></trkpt><trkpt lat="45.84666777290801" lon="11.447891484462357"><ele>961.0</ele><time>2026-04-26T11:03:48.999Z</time></trkpt><trkpt lat="45.84657588078155" lon="11.448077870960308"><ele>961.0</ele><time>2026-04-26T11:03:49.999Z</time></trkpt><trkpt lat="45.84648833672498" lon="11.448246174146556"><ele>958.5</ele><time>2026-04-26T11:03:50.999Z</time></trkpt><trkpt lat="45.84639031777543" lon="11.448385213137136"><ele>956.0</ele><time>2026-04-26T11:03:51.999Z</time></trkpt><trkpt lat="45.84627521425319" lon="11.448495186778354"><ele>953.5</ele><time>2026-04-26T11:03:52.999Z</time></trkpt><trkpt lat="45.846154420695385" lon="11.448585176500258"><ele>951.0</ele><time>2026-04-26T11:03:53.999Z</time></trkpt><trkpt lat="45.84604704677702" lon="11.448680468389579"><ele>951.0</ele><time>2026-04-26T11:03:54.999Z</time></trkpt><trkpt lat="45.84595736960738" lon="11.4487855573682"><ele>950.9999999999999</ele><time>2026-04-26T11:03:55.999Z</time></trkpt><trkpt lat="45.84590410335847" lon="11.44890384256719"><ele>950.9999999999999</ele><time>2026-04-26T11:03:56.999Z</time></trkpt><trkpt lat="45.84589373656815" lon="11.449046706284376"><ele>951.0</ele><time>2026-04-26T11:03:57.999Z</time></trkpt><trkpt lat="45.84592488220232" lon="11.449201600407015"><ele>951.0</ele><time>2026-04-26T11:03:58.999Z</time></trkpt><trkpt lat="45.84600408558597" lon="11.449353706397332"><ele>949.0</ele><time>2026-04-26T11:03:59.999Z</time></trkpt><trkpt lat="45.846100528649735" lon="11.449494750880087"><ele>947.0</ele><time>2026-04-26T11:04:00.999Z</time></trkpt><trkpt lat="45.84620897137909" lon="11.449633942367743"><ele>945.0</ele><time>2026-04-26T11:04:01.999Z</time></trkpt><trkpt lat="45.846333749943994" lon="11.449751866584256"><ele>943.0</ele><time>2026-04-26T11:04:02.999Z</time></trkpt><trkpt lat="45.84647496635096" lon="11.449850904029425"><ele>943.0</ele><time>2026-04-26T11:04:03.999Z</time></trkpt><trkpt lat="45.84661993455165" lon="11.449927340969998"><ele>943.0</ele><time>2026-04-26T11:04:04.999Z</time></trkpt><trkpt lat="45.84676226946095" lon="11.449989333566895"><ele>943.0</ele><time>2026-04-26T11:04:05.999Z</time></trkpt><trkpt lat="45.84689562267554" lon="11.450068210371532"><ele>943.0</ele><time>2026-04-26T11:04:06.999Z</time></trkpt><trkpt lat="45.84704132511608" lon="11.450145344314643"><ele>939.6666666666666</ele><time>2026-04-26T11:04:07.999Z</time></trkpt><trkpt lat="45.84719185725576" lon="11.450222768133873"><ele>936.3333333333333</ele><time>2026-04-26T11:04:08.999Z</time></trkpt><trkpt lat="45.84733396807347" lon="11.450300710068667"><ele>933.0</ele><time>2026-04-26T11:04:09.999Z</time></trkpt><trkpt lat="45.84747056921229" lon="11.450403175271457"><ele>934.6666666666667</ele><time>2026-04-26T11:04:10.999Z</time></trkpt><trkpt lat="45.8476038969065" lon="11.450539322803346"><ele>936.3333333333334</ele><time>2026-04-26T11:04:11.999Z</time></trkpt><trkpt lat="45.847744140893035" lon="11.450704749710338"><ele>938.0</ele><time>2026-04-26T11:04:12.999Z</time></trkpt><trkpt lat="45.847882415259846" lon="11.45087442328814"><ele>936.3333333333334</ele><time>2026-04-26T11:04:13.999Z</time></trkpt><trkpt lat="45.84802292720309" lon="11.451033301230213"><ele>934.6666666666667</ele><time>2026-04-26T11:04:14.999Z</time></trkpt><trkpt lat="45.84815582368821" lon="11.451188435602512"><ele>933.0</ele><time>2026-04-26T11:04:15.999Z</time></trkpt><trkpt lat="45.84827479616903" lon="11.451339156859623"><ele>933.0</ele><time>2026-04-26T11:04:16.999Z</time></trkpt><trkpt lat="45.84838529827049" lon="11.45146884630553"><ele>933.0</ele><time>2026-04-26T11:04:17.999Z</time></trkpt><trkpt lat="45.848486837939234" lon="11.451580491474921"><ele>933.0</ele><time>2026-04-26T11:04:18.999Z</time></trkpt><trkpt lat="45.84857305808586" lon="11.451674759692674"><ele>933.0</ele><time>2026-04-26T11:04:19.999Z</time></trkpt><trkpt lat="45.84864206532101" lon="11.451777522323145"><ele>930.5999999999999</ele><time>2026-04-26T11:04:20.999Z</time></trkpt><trkpt lat="45.84869052781955" lon="11.451905597360426"><ele>928.1999999999999</ele><time>2026-04-26T11:04:21.999Z</time></trkpt><trkpt lat="45.84872082476978" lon="11.452053319411135"><ele>925.8</ele><time>2026-04-26T11:04:22.999Z</time></trkpt><trkpt lat="45.84872960046009" lon="11.452220620977053"><ele>923.4</ele><time>2026-04-26T11:04:23.999Z</time></trkpt><trkpt lat="45.84871806132828" lon="11.452397049928603"><ele>921.0</ele><time>2026-04-26T11:04:24.999Z</time></trkpt><trkpt lat="45.84870393040163" lon="11.452581277406422"><ele>921.75</ele><time>2026-04-26T11:04:25.999Z</time></trkpt><trkpt lat="45.848677477941806" lon="11.452757191872626"><ele>922.5</ele><time>2026-04-26T11:04:26.999Z</time></trkpt><trkpt lat="45.84862306842463" lon="11.452914517117454"><ele>923.25</ele><time>2026-04-26T11:04:27.999Z</time></trkpt><trkpt lat="45.84854436242498" lon="11.453033366471528"><ele>924.0</ele><time>2026-04-26T11:04:28.998Z</time></trkpt><trkpt lat="45.84847878030817" lon="11.453144299863752"><ele>924.0</ele><time>2026-04-26T11:04:29.998Z</time></trkpt><trkpt lat="45.84846117949648" lon="11.453276780435973"><ele>924.0000000000001</ele><time>2026-04-26T11:04:30.998Z</time></trkpt><trkpt lat="45.848509626558524" lon="11.453393079450672"><ele>924.0000000000001</ele><time>2026-04-26T11:04:31.998Z</time></trkpt><trkpt lat="45.84861176603589" lon="11.453469473497007"><ele>924.0</ele><time>2026-04-26T11:04:32.998Z</time></trkpt><trkpt lat="45.84872496853811" lon="11.453477270687157"><ele>924.0</ele><time>2026-04-26T11:04:33.998Z</time></trkpt><trkpt lat="45.848849249200875" lon="11.453425296430469"><ele>924.0</ele><time>2026-04-26T11:04:34.998Z</time></trkpt><trkpt lat="45.848979277286524" lon="11.453360164548078"><ele>924.0</ele><time>2026-04-26T11:04:35.998Z</time></trkpt><trkpt lat="45.849117459546825" lon="11.453309484085178"><ele>924.0</ele><time>2026-04-26T11:04:36.998Z</time></trkpt><trkpt lat="45.849259208237726" lon="11.453278458426597"><ele>924.0</ele><time>2026-04-26T11:04:37.998Z</time></trkpt><trkpt lat="45.84939323141756" lon="11.453271881237502"><ele>922.25</ele><time>2026-04-26T11:04:38.998Z</time></trkpt><trkpt lat="45.84951359828764" lon="11.453298952856878"><ele>920.5</ele><time>2026-04-26T11:04:39.998Z</time></trkpt><trkpt lat="45.84962101582231" lon="11.453358485248463"><ele>918.75</ele><time>2026-04-26T11:04:40.998Z</time></trkpt><trkpt lat="45.84969764319368" lon="11.45350386953863"><ele>917.0</ele><time>2026-04-26T11:04:41.998Z</time></trkpt><trkpt lat="45.8497731319186" lon="11.453668024648925"><ele>919.6666666666667</ele><time>2026-04-26T11:04:42.998Z</time></trkpt><trkpt lat="45.84986987549197" lon="11.453849834608903"><ele>922.3333333333333</ele><time>2026-04-26T11:04:43.998Z</time></trkpt><trkpt lat="45.84996000990487" lon="11.454063359837804"><ele>925.0</ele><time>2026-04-26T11:04:44.998Z</time></trkpt><trkpt lat="45.85006626486318" lon="11.454284873468644"><ele>918.3333333333333</ele><time>2026-04-26T11:04:45.998Z</time></trkpt><trkpt lat="45.85020315394827" lon="11.454495695449998"><ele>911.6666666666667</ele><time>2026-04-26T11:04:46.998Z</time></trkpt><trkpt lat="45.85033232528716" lon="11.454686711096885"><ele>905.0</ele><time>2026-04-26T11:04:47.998Z</time></trkpt><trkpt lat="45.85041459145192" lon="11.454934289033844"><ele>905.0</ele><time>2026-04-26T11:04:48.998Z</time></trkpt><trkpt lat="45.85049816622878" lon="11.455171850441117"><ele>905.0</ele><time>2026-04-26T11:04:49.998Z</time></trkpt><trkpt lat="45.850593769633534" lon="11.455372716866293"><ele>905.0</ele><time>2026-04-26T11:04:50.998Z</time></trkpt><trkpt lat="45.850711714695706" lon="11.45555354945949"><ele>906.6666666666667</ele><time>2026-04-26T11:04:51.998Z</time></trkpt><trkpt lat="45.8508129466584" lon="11.455731382933177"><ele>908.3333333333333</ele><time>2026-04-26T11:04:52.998Z</time></trkpt><trkpt lat="45.85085376106656" lon="11.455960396712058"><ele>910.0</ele><time>2026-04-26T11:04:53.998Z</time></trkpt><trkpt lat="45.85090345376784" lon="11.456190364375583"><ele>907.0</ele><time>2026-04-26T11:04:55Z</time></trkpt><trkpt lat="45.85096155419164" lon="11.456398454142569"><ele>904.0</ele><time>2026-04-26T11:04:56Z</time></trkpt><trkpt lat="45.85099875535812" lon="11.456582185060714"><ele>901.0</ele><time>2026-04-26T11:04:57Z</time></trkpt><trkpt lat="45.85104002315264" lon="11.45673473363487"><ele>898.0</ele><time>2026-04-26T11:04:58Z</time></trkpt><trkpt lat="45.851112602247184" lon="11.456840132847542"><ele>898.0</ele><time>2026-04-26T11:04:59Z</time></trkpt><trkpt lat="45.851222235439785" lon="11.456890164966987"><ele>898.0</ele><time>2026-04-26T11:05:00Z</time></trkpt><trkpt lat="45.8513560623223" lon="11.45687456917704"><ele>898.0</ele><time>2026-04-26T11:05:01Z</time></trkpt><trkpt lat="45.85149716903107" lon="11.45681857543167"><ele>898.0</ele><time>2026-04-26T11:05:02Z</time></trkpt><trkpt lat="45.85164651170713" lon="11.456731218242387"><ele>897.6666666666666</ele><time>2026-04-26T11:05:03Z</time></trkpt><trkpt lat="45.85181366163201" lon="11.456642392933915"><ele>897.3333333333333</ele><time>2026-04-26T11:05:04Z</time></trkpt><trkpt lat="45.851984588454265" lon="11.456562594049691"><ele>897.0</ele><time>2026-04-26T11:05:05Z</time></trkpt><trkpt lat="45.85217143367205" lon="11.456477052147587"><ele>897.0</ele><time>2026-04-26T11:05:06Z</time></trkpt><trkpt lat="45.852356349598985" lon="11.456385917527687"><ele>897.0</ele><time>2026-04-26T11:05:07Z</time></trkpt><trkpt lat="45.852538533935686" lon="11.456291752404557"><ele>897.0</ele><time>2026-04-26T11:05:08Z</time></trkpt><trkpt lat="45.852713787562195" lon="11.456204986817614"><ele>903.3333333333333</ele><time>2026-04-26T11:05:09Z</time></trkpt><trkpt lat="45.85287496425375" lon="11.456159332452545"><ele>909.6666666666666</ele><time>2026-04-26T11:05:10Z</time></trkpt><trkpt lat="45.853023556205535" lon="11.456109752306395"><ele>916.0</ele><time>2026-04-26T11:05:11Z</time></trkpt><trkpt lat="45.853170733331666" lon="11.456096315120138"><ele>916.0</ele><time>2026-04-26T11:05:12Z</time></trkpt><trkpt lat="45.853320310102426" lon="11.456132401854207"><ele>916.0</ele><time>2026-04-26T11:05:13Z</time></trkpt><trkpt lat="45.85346091671289" lon="11.456232081652994"><ele>916.0</ele><time>2026-04-26T11:05:14Z</time></trkpt><trkpt lat="45.85360443989401" lon="11.456361330178156"><ele>913.3333333333333</ele><time>2026-04-26T11:05:15Z</time></trkpt><trkpt lat="45.85375831056958" lon="11.456485627725725"><ele>910.6666666666667</ele><time>2026-04-26T11:05:16Z</time></trkpt><trkpt lat="45.85390283348866" lon="11.456613663478509"><ele>908.0</ele><time>2026-04-26T11:05:17Z</time></trkpt><trkpt lat="45.85406794088286" lon="11.456716053684485"><ele>908.0</ele><time>2026-04-26T11:05:18Z</time></trkpt><trkpt lat="45.85423858722819" lon="11.456786148133137"><ele>908.0</ele><time>2026-04-26T11:05:19Z</time></trkpt><trkpt lat="45.854403457734286" lon="11.456835936701266"><ele>908.0</ele><time>2026-04-26T11:05:20Z</time></trkpt><trkpt lat="45.854556209729054" lon="11.456848083045845"><ele>910.6666666666667</ele><time>2026-04-26T11:05:21Z</time></trkpt><trkpt lat="45.85470581916493" lon="11.456795960122303"><ele>913.3333333333333</ele><time>2026-04-26T11:05:22Z</time></trkpt><trkpt lat="45.85485294152959" lon="11.45670274368592"><ele>916.0</ele><time>2026-04-26T11:05:23Z</time></trkpt><trkpt lat="45.855004993803156" lon="11.456618260702065"><ele>916.3333333333333</ele><time>2026-04-26T11:05:24Z</time></trkpt><trkpt lat="45.85516608320324" lon="11.456552247290958"><ele>916.6666666666667</ele><time>2026-04-26T11:05:25Z</time></trkpt><trkpt lat="45.85532827013845" lon="11.456536526562672"><ele>917.0</ele><time>2026-04-26T11:05:26Z</time></trkpt><trkpt lat="45.85548538261395" lon="11.456507233894683"><ele>917.0</ele><time>2026-04-26T11:05:27Z</time></trkpt><trkpt lat="45.85563098199559" lon="11.456466886922183"><ele>917.0</ele><time>2026-04-26T11:05:28Z</time></trkpt><trkpt lat="45.855755901109774" lon="11.456447564743815"><ele>917.0</ele><time>2026-04-26T11:05:29Z</time></trkpt><trkpt lat="45.85586890675549" lon="11.456432314548096"><ele>917.0</ele><time>2026-04-26T11:05:30Z</time></trkpt><trkpt lat="45.85596704389516" lon="11.456417755239395"><ele>919.8</ele><time>2026-04-26T11:05:31Z</time></trkpt><trkpt lat="45.85605689320576" lon="11.456414753024612"><ele>922.6</ele><time>2026-04-26T11:05:32Z</time></trkpt><trkpt lat="45.856142851532596" lon="11.456454453413054"><ele>925.3999999999999</ele><time>2026-04-26T11:05:33Z</time></trkpt><trkpt lat="45.85620819664117" lon="11.456565682854128"><ele>928.1999999999999</ele><time>2026-04-26T11:05:34Z</time></trkpt><trkpt lat="45.856249512433926" lon="11.456679650181758"><ele>931.0</ele><time>2026-04-26T11:05:35Z</time></trkpt><trkpt lat="45.85628502652658" lon="11.456802242592982"><ele>930.9999999999999</ele><time>2026-04-26T11:05:36Z</time></trkpt><trkpt lat="45.85632907434626" lon="11.456916105564892"><ele>931.0</ele><time>2026-04-26T11:05:36.999Z</time></trkpt><trkpt lat="45.856354916316306" lon="11.457037781680334"><ele>931.0</ele><time>2026-04-26T11:05:37.999Z</time></trkpt><trkpt lat="45.85639013519002" lon="11.457155918711555"><ele>931.0</ele><time>2026-04-26T11:05:38.999Z</time></trkpt><trkpt lat="45.856431439398015" lon="11.457261638924738"><ele>930.9999999999999</ele><time>2026-04-26T11:05:39.999Z</time></trkpt><trkpt lat="45.85648987335653" lon="11.457338516979656"><ele>931.0</ele><time>2026-04-26T11:05:40.999Z</time></trkpt><trkpt lat="45.85656640022207" lon="11.457380704324258"><ele>930.9999999999999</ele><time>2026-04-26T11:05:41.999Z</time></trkpt><trkpt lat="45.85665226157973" lon="11.457397308245106"><ele>931.0</ele><time>2026-04-26T11:05:42.999Z</time></trkpt><trkpt lat="45.856742492955334" lon="11.45738378855197"><ele>931.0</ele><time>2026-04-26T11:05:43.999Z</time></trkpt><trkpt lat="45.856823906647364" lon="11.457363377665205"><ele>931.0</ele><time>2026-04-26T11:05:44.999Z</time></trkpt><trkpt lat="45.856908962389504" lon="11.457348078997207"><ele>930.9999999999999</ele><time>2026-04-26T11:05:45.999Z</time></trkpt><trkpt lat="45.85700331208729" lon="11.457325890654536"><ele>931.0</ele><time>2026-04-26T11:05:46.999Z</time></trkpt><trkpt lat="45.857110078979936" lon="11.457300809000108"><ele>931.0</ele><time>2026-04-26T11:05:47.999Z</time></trkpt><trkpt lat="45.857231940215" lon="11.457279933752929"><ele>931.0</ele><time>2026-04-26T11:05:48.999Z</time></trkpt><trkpt lat="45.8573588538265" lon="11.457253544921372"><ele>931.0</ele><time>2026-04-26T11:05:49.999Z</time></trkpt><trkpt lat="45.85748431098559" lon="11.457233874290349"><ele>931.0</ele><time>2026-04-26T11:05:50.999Z</time></trkpt><trkpt lat="45.857623067868076" lon="11.457213841706492"><ele>932.5</ele><time>2026-04-26T11:05:51.999Z</time></trkpt><trkpt lat="45.85776389465358" lon="11.457188077458843"><ele>934.0</ele><time>2026-04-26T11:05:52.999Z</time></trkpt><trkpt lat="45.85791122687324" lon="11.457165274135889"><ele>935.5</ele><time>2026-04-26T11:05:53.999Z</time></trkpt><trkpt lat="45.85805223996604" lon="11.45716231385855"><ele>937.0</ele><time>2026-04-26T11:05:54.999Z</time></trkpt><trkpt lat="45.85819735451724" lon="11.45717157251416"><ele>937.0</ele><time>2026-04-26T11:05:55.999Z</time></trkpt><trkpt lat="45.858341889966596" lon="11.457192206763544"><ele>937.0</ele><time>2026-04-26T11:05:56.999Z</time></trkpt><trkpt lat="45.85848155124223" lon="11.457209531553016"><ele>937.0</ele><time>2026-04-26T11:05:57.999Z</time></trkpt><trkpt lat="45.85861664703309" lon="11.4572227987914"><ele>937.0</ele><time>2026-04-26T11:05:58.999Z</time></trkpt><trkpt lat="45.85874914395323" lon="11.45722384384039"><ele>937.0</ele><time>2026-04-26T11:05:59.999Z</time></trkpt><trkpt lat="45.858880633756954" lon="11.45720620556248"><ele>937.0</ele><time>2026-04-26T11:06:00.999Z</time></trkpt><trkpt lat="45.8590137145892" lon="11.457178404454549"><ele>937.0</ele><time>2026-04-26T11:06:01.999Z</time></trkpt><trkpt lat="45.85914144618822" lon="11.457163795182005"><ele>937.0</ele><time>2026-04-26T11:06:02.999Z</time></trkpt><trkpt lat="45.85926195829343" lon="11.457145373974555"><ele>938.2</ele><time>2026-04-26T11:06:03.999Z</time></trkpt><trkpt lat="45.85938816793387" lon="11.457123953321585"><ele>939.4000000000001</ele><time>2026-04-26T11:06:04.999Z</time></trkpt><trkpt lat="45.85950202926792" lon="11.457106707011476"><ele>940.5999999999999</ele><time>2026-04-26T11:06:05.999Z</time></trkpt><trkpt lat="45.85960137504712" lon="11.457128208963958"><ele>941.8</ele><time>2026-04-26T11:06:06.999Z</time></trkpt><trkpt lat="45.8596904497386" lon="11.45720354397702"><ele>943.0</ele><time>2026-04-26T11:06:07.999Z</time></trkpt><trkpt lat="45.85977592989889" lon="11.457290075579946"><ele>943.0</ele><time>2026-04-26T11:06:08.999Z</time></trkpt><trkpt lat="45.85985504462413" lon="11.457402480683497"><ele>943.0</ele><time>2026-04-26T11:06:09.999Z</time></trkpt><trkpt lat="45.85993105025413" lon="11.4575365974875"><ele>943.0</ele><time>2026-04-26T11:06:10.999Z</time></trkpt><trkpt lat="45.860013264725524" lon="11.457679361225827"><ele>943.0</ele><time>2026-04-26T11:06:11.999Z</time></trkpt><trkpt lat="45.86009507454761" lon="11.457824408338894"><ele>945.5</ele><time>2026-04-26T11:06:12.999Z</time></trkpt><trkpt lat="45.86017498792454" lon="11.45797027644843"><ele>948.0</ele><time>2026-04-26T11:06:13.999Z</time></trkpt><trkpt lat="45.86025492907409" lon="11.458119339723133"><ele>950.5</ele><time>2026-04-26T11:06:14.999Z</time></trkpt><trkpt lat="45.860335293740775" lon="11.458275085080164"><ele>953.0</ele><time>2026-04-26T11:06:15.999Z</time></trkpt><trkpt lat="45.86041171928644" lon="11.458429843732517"><ele>953.0</ele><time>2026-04-26T11:06:16.999Z</time></trkpt><trkpt lat="45.86047390395443" lon="11.458594746415535"><ele>953.0</ele><time>2026-04-26T11:06:17.999Z</time></trkpt><trkpt lat="45.860515889434794" lon="11.458761746120665"><ele>953.0</ele><time>2026-04-26T11:06:18.999Z</time></trkpt><trkpt lat="45.86055563183961" lon="11.458939182641032"><ele>953.0</ele><time>2026-04-26T11:06:19.999Z</time></trkpt><trkpt lat="45.86059558111813" lon="11.45911696370512"><ele>953.75</ele><time>2026-04-26T11:06:20.999Z</time></trkpt><trkpt lat="45.86063711494786" lon="11.459301798201375"><ele>954.5</ele><time>2026-04-26T11:06:21.999Z</time></trkpt><trkpt lat="45.86067839405643" lon="11.459486795692653"><ele>955.25</ele><time>2026-04-26T11:06:22.999Z</time></trkpt><trkpt lat="45.860717780221194" lon="11.459672037768376"><ele>956.0</ele><time>2026-04-26T11:06:23.999Z</time></trkpt><trkpt lat="45.86075801377729" lon="11.459858307098617"><ele>956.0</ele><time>2026-04-26T11:06:24.999Z</time></trkpt><trkpt lat="45.86081890379792" lon="11.460025559346155"><ele>956.0</ele><time>2026-04-26T11:06:25.999Z</time></trkpt><trkpt lat="45.86085241813402" lon="11.460202680395621"><ele>956.0</ele><time>2026-04-26T11:06:26.999Z</time></trkpt><trkpt lat="45.86087241733234" lon="11.460369150370335"><ele>956.0</ele><time>2026-04-26T11:06:27.999Z</time></trkpt><trkpt lat="45.86089626534924" lon="11.460537092538116"><ele>955.25</ele><time>2026-04-26T11:06:28.999Z</time></trkpt><trkpt lat="45.86088435810554" lon="11.46069761721087"><ele>954.5</ele><time>2026-04-26T11:06:29.999Z</time></trkpt><trkpt lat="45.860861714410746" lon="11.460851512307697"><ele>953.75</ele><time>2026-04-26T11:06:30.998Z</time></trkpt><trkpt lat="45.860821299054486" lon="11.461000011689729"><ele>953.0</ele><time>2026-04-26T11:06:31.998Z</time></trkpt><trkpt lat="45.86077763493659" lon="11.46116284149351"><ele>954.0</ele><time>2026-04-26T11:06:32.998Z</time></trkpt><trkpt lat="45.8607192981104" lon="11.461320026885847"><ele>955.0</ele><time>2026-04-26T11:06:33.998Z</time></trkpt><trkpt lat="45.860662231503525" lon="11.461481067458372"><ele>956.0</ele><time>2026-04-26T11:06:34.998Z</time></trkpt><trkpt lat="45.86061085062081" lon="11.461645047629206"><ele>957.0</ele><time>2026-04-26T11:06:35.998Z</time></trkpt><trkpt lat="45.86055615578473" lon="11.461808189075448"><ele>957.0</ele><time>2026-04-26T11:06:36.998Z</time></trkpt><trkpt lat="45.86050419257979" lon="11.461970278217057"><ele>957.0</ele><time>2026-04-26T11:06:37.998Z</time></trkpt><trkpt lat="45.860448215605224" lon="11.462132900504411"><ele>957.0</ele><time>2026-04-26T11:06:38.998Z</time></trkpt><trkpt lat="45.86039343307255" lon="11.462296107947992"><ele>957.0</ele><time>2026-04-26T11:06:39.998Z</time></trkpt><trkpt lat="45.86034282520193" lon="11.462447317804047"><ele>958.0</ele><time>2026-04-26T11:06:40.998Z</time></trkpt><trkpt lat="45.860301679443374" lon="11.462585869242249"><ele>959.0</ele><time>2026-04-26T11:06:41.998Z</time></trkpt><trkpt lat="45.86025520764611" lon="11.462714254359973"><ele>960.0</ele><time>2026-04-26T11:06:42.998Z</time></trkpt><trkpt lat="45.860255758126925" lon="11.462882922731596"><ele>961.0</ele><time>2026-04-26T11:06:43.998Z</time></trkpt><trkpt lat="45.86029655316003" lon="11.463026044155155"><ele>962.0</ele><time>2026-04-26T11:06:44.998Z</time></trkpt><trkpt lat="45.860353649443375" lon="11.463150695402492"><ele>962.0</ele><time>2026-04-26T11:06:45.998Z</time></trkpt><trkpt lat="45.860429008418954" lon="11.463239777063423"><ele>962.0</ele><time>2026-04-26T11:06:46.998Z</time></trkpt><trkpt lat="45.8605127730587" lon="11.463302060084954"><ele>962.0</ele><time>2026-04-26T11:06:47.998Z</time></trkpt><trkpt lat="45.860616515090086" lon="11.463344996331074"><ele>962.0</ele><time>2026-04-26T11:06:48.998Z</time></trkpt><trkpt lat="45.86075512987173" lon="11.46336928975828"><ele>962.0</ele><time>2026-04-26T11:06:49.998Z</time></trkpt><trkpt lat="45.86090206071582" lon="11.463399691313068"><ele>963.6666666666667</ele><time>2026-04-26T11:06:50.998Z</time></trkpt><trkpt lat="45.86105520783709" lon="11.46346300335912"><ele>965.3333333333333</ele><time>2026-04-26T11:06:51.998Z</time></trkpt><trkpt lat="45.86120644550407" lon="11.46358866575124"><ele>967.0</ele><time>2026-04-26T11:06:52.998Z</time></trkpt><trkpt lat="45.861364070220695" lon="11.463744537693522"><ele>966.3333333333333</ele><time>2026-04-26T11:06:53.998Z</time></trkpt><trkpt lat="45.86152037445767" lon="11.463919303546591"><ele>965.6666666666667</ele><time>2026-04-26T11:06:54.998Z</time></trkpt><trkpt lat="45.861662217580744" lon="11.464095203041591"><ele>965.0</ele><time>2026-04-26T11:06:55.998Z</time></trkpt><trkpt lat="45.861765263648195" lon="11.464312859705869"><ele>966.6666666666667</ele><time>2026-04-26T11:06:56.998Z</time></trkpt><trkpt lat="45.86180742362104" lon="11.464562219803492"><ele>968.3333333333333</ele><time>2026-04-26T11:06:57.998Z</time></trkpt><trkpt lat="45.86186626693951" lon="11.464787908797614"><ele>970.0</ele><time>2026-04-26T11:06:58.998Z</time></trkpt><trkpt lat="45.861924491742045" lon="11.465011248778149"><ele>969.6666666666666</ele><time>2026-04-26T11:06:59.998Z</time></trkpt><trkpt lat="45.862029205515" lon="11.46519695306408"><ele>969.3333333333333</ele><time>2026-04-26T11:07:01Z</time></trkpt><trkpt lat="45.862165792374356" lon="11.465348322327342"><ele>969.0</ele><time>2026-04-26T11:07:02Z</time></trkpt><trkpt lat="45.86231399314735" lon="11.46548197384865"><ele>969.0</ele><time>2026-04-26T11:07:03Z</time></trkpt><trkpt lat="45.8624575894945" lon="11.465623671763138"><ele>969.0</ele><time>2026-04-26T11:07:04Z</time></trkpt><trkpt lat="45.862578881350125" lon="11.465773314954939"><ele>969.0</ele><time>2026-04-26T11:07:05Z</time></trkpt><trkpt lat="45.8626923390034" lon="11.465892533894413"><ele>969.75</ele><time>2026-04-26T11:07:06Z</time></trkpt><trkpt lat="45.86276782513108" lon="11.466044941027183"><ele>970.5</ele><time>2026-04-26T11:07:07Z</time></trkpt><trkpt lat="45.86280959988166" lon="11.466239959161301"><ele>971.25</ele><time>2026-04-26T11:07:08Z</time></trkpt><trkpt lat="45.862865030156996" lon="11.46644562039776"><ele>972.0</ele><time>2026-04-26T11:07:09Z</time></trkpt><trkpt lat="45.86292441298194" lon="11.46666893197635"><ele>972.3333333333333</ele><time>2026-04-26T11:07:10Z</time></trkpt><trkpt lat="45.86299630303716" lon="11.466877859207239"><ele>972.6666666666666</ele><time>2026-04-26T11:07:11Z</time></trkpt><trkpt lat="45.86304527526304" lon="11.467086556941034"><ele>973.0</ele><time>2026-04-26T11:07:12Z</time></trkpt><trkpt lat="45.86308709824183" lon="11.46730028249874"><ele>973.0</ele><time>2026-04-26T11:07:13Z</time></trkpt><trkpt lat="45.86310186444143" lon="11.467534044684955"><ele>973.0</ele><time>2026-04-26T11:07:14Z</time></trkpt><trkpt lat="45.863135900033484" lon="11.467781737677829"><ele>973.0</ele><time>2026-04-26T11:07:15Z</time></trkpt><trkpt lat="45.86311476887292" lon="11.468024124310446"><ele>973.6666666666666</ele><time>2026-04-26T11:07:16Z</time></trkpt><trkpt lat="45.86309976615232" lon="11.468280775759368"><ele>974.3333333333333</ele><time>2026-04-26T11:07:17Z</time></trkpt><trkpt lat="45.8630755271839" lon="11.468530703320443"><ele>975.0</ele><time>2026-04-26T11:07:18Z</time></trkpt><trkpt lat="45.863054676029265" lon="11.468792024464033"><ele>975.6666666666667</ele><time>2026-04-26T11:07:19Z</time></trkpt><trkpt lat="45.86300146487243" lon="11.469053022192677"><ele>976.3333333333334</ele><time>2026-04-26T11:07:20Z</time></trkpt><trkpt lat="45.862960527173" lon="11.46934768287007"><ele>977.0</ele><time>2026-04-26T11:07:21Z</time></trkpt><trkpt lat="45.862931105823655" lon="11.46958171174435"><ele>976.3333333333334</ele><time>2026-04-26T11:07:22Z</time></trkpt><trkpt lat="45.86290337493594" lon="11.469862389004138"><ele>975.6666666666667</ele><time>2026-04-26T11:07:23Z</time></trkpt><trkpt lat="45.86287328378243" lon="11.470136785006277"><ele>975.0</ele><time>2026-04-26T11:07:24Z</time></trkpt><trkpt lat="45.862834748017626" lon="11.470404516865521"><ele>974.3333333333333</ele><time>2026-04-26T11:07:25Z</time></trkpt><trkpt lat="45.86278208106031" lon="11.470667893081359"><ele>973.6666666666666</ele><time>2026-04-26T11:07:26Z</time></trkpt><trkpt lat="45.86276009832739" lon="11.470921761986377"><ele>973.0</ele><time>2026-04-26T11:07:27Z</time></trkpt><trkpt lat="45.862716565672564" lon="11.471155498096717"><ele>975.5</ele><time>2026-04-26T11:07:28Z</time></trkpt><trkpt lat="45.862699521458644" lon="11.471388965750451"><ele>978.0</ele><time>2026-04-26T11:07:29Z</time></trkpt><trkpt lat="45.862660505427776" lon="11.471583054082545"><ele>980.5</ele><time>2026-04-26T11:07:30Z</time></trkpt><trkpt lat="45.86263956685269" lon="11.471755988719096"><ele>983.0</ele><time>2026-04-26T11:07:31Z</time></trkpt><trkpt lat="45.86262409130787" lon="11.471912553168071"><ele>982.9999999999999</ele><time>2026-04-26T11:07:32Z</time></trkpt><trkpt lat="45.86262104475829" lon="11.472043785113115"><ele>983.0</ele><time>2026-04-26T11:07:33Z</time></trkpt><trkpt lat="45.86261671448224" lon="11.472152352289019"><ele>982.9999999999999</ele><time>2026-04-26T11:07:34Z</time></trkpt><trkpt lat="45.86260808779512" lon="11.47224975732864"><ele>982.9999999999999</ele><time>2026-04-26T11:07:35Z</time></trkpt><trkpt lat="45.86260182273417" lon="11.472345088843857"><ele>983.0</ele><time>2026-04-26T11:07:35.999Z</time></trkpt><trkpt lat="45.8626347637264" lon="11.47243721082296"><ele>982.9999999999999</ele><time>2026-04-26T11:07:36.999Z</time></trkpt><trkpt lat="45.86269523463855" lon="11.472463385262747"><ele>982.9999999999999</ele><time>2026-04-26T11:07:37.999Z</time></trkpt><trkpt lat="45.86276322917551" lon="11.472432462696437"><ele>984.3333333333334</ele><time>2026-04-26T11:07:38.999Z</time></trkpt><trkpt lat="45.86283668226499" lon="11.472393659195902"><ele>985.6666666666667</ele><time>2026-04-26T11:07:39.999Z</time></trkpt><trkpt lat="45.86291553216415" lon="11.472383505574175"><ele>987.0</ele><time>2026-04-26T11:07:40.999Z</time></trkpt><trkpt lat="45.86299319810057" lon="11.472439366474031"><ele>988.3333333333333</ele><time>2026-04-26T11:07:41.999Z</time></trkpt><trkpt lat="45.8630879484609" lon="11.472468721852815"><ele>989.6666666666666</ele><time>2026-04-26T11:07:42.999Z</time></trkpt><trkpt lat="45.86317618704454" lon="11.472543369054291"><ele>991.0</ele><time>2026-04-26T11:07:43.999Z</time></trkpt><trkpt lat="45.86328542186273" lon="11.47261575207582"><ele>991.0</ele><time>2026-04-26T11:07:44.999Z</time></trkpt><trkpt lat="45.8633962434267" lon="11.472676034563568"><ele>991.0</ele><time>2026-04-26T11:07:45.999Z</time></trkpt><trkpt lat="45.863514985802546" lon="11.472747597483439"><ele>991.0</ele><time>2026-04-26T11:07:46.999Z</time></trkpt><trkpt lat="45.86363323178939" lon="11.472823494025405"><ele>991.0</ele><time>2026-04-26T11:07:47.999Z</time></trkpt><trkpt lat="45.86375284967941" lon="11.472917603226243"><ele>992.0</ele><time>2026-04-26T11:07:48.999Z</time></trkpt><trkpt lat="45.863863788935845" lon="11.473021190307932"><ele>993.0</ele><time>2026-04-26T11:07:49.999Z</time></trkpt><trkpt lat="45.863956982633994" lon="11.473164066070515"><ele>994.0</ele><time>2026-04-26T11:07:50.999Z</time></trkpt><trkpt lat="45.86400725342699" lon="11.473351733597136"><ele>995.0</ele><time>2026-04-26T11:07:51.999Z</time></trkpt><trkpt lat="45.86408388153885" lon="11.473529158355346"><ele>995.0</ele><time>2026-04-26T11:07:52.999Z</time></trkpt><trkpt lat="45.86417466324132" lon="11.473701660968656"><ele>995.0</ele><time>2026-04-26T11:07:53.999Z</time></trkpt><trkpt lat="45.86429036923832" lon="11.473857070704963"><ele>995.0</ele><time>2026-04-26T11:07:54.999Z</time></trkpt><trkpt lat="45.86442926207726" lon="11.474021775220463"><ele>995.3333333333334</ele><time>2026-04-26T11:07:55.999Z</time></trkpt><trkpt lat="45.86456948018677" lon="11.4741829130797"><ele>995.6666666666667</ele><time>2026-04-26T11:07:56.999Z</time></trkpt><trkpt lat="45.86471699212355" lon="11.474326572740578"><ele>996.0</ele><time>2026-04-26T11:07:57.999Z</time></trkpt><trkpt lat="45.864859839864046" lon="11.474480622568969"><ele>996.0</ele><time>2026-04-26T11:07:58.999Z</time></trkpt><trkpt lat="45.865001583859836" lon="11.474638036976375"><ele>996.0</ele><time>2026-04-26T11:07:59.999Z</time></trkpt><trkpt lat="45.86514973803294" lon="11.474786412340674"><ele>996.0</ele><time>2026-04-26T11:08:00.999Z</time></trkpt><trkpt lat="45.86529154484376" lon="11.474933272712505"><ele>995.6666666666667</ele><time>2026-04-26T11:08:01.999Z</time></trkpt><trkpt lat="45.865434848243716" lon="11.4750866993234"><ele>995.3333333333334</ele><time>2026-04-26T11:08:02.999Z</time></trkpt><trkpt lat="45.86558170238117" lon="11.475234747052117"><ele>995.0</ele><time>2026-04-26T11:08:03.999Z</time></trkpt><trkpt lat="45.86572269248158" lon="11.47539361701747"><ele>995.6666666666667</ele><time>2026-04-26T11:08:04.999Z</time></trkpt><trkpt lat="45.86585966483279" lon="11.475538860728694"><ele>996.3333333333333</ele><time>2026-04-26T11:08:05.999Z</time></trkpt><trkpt lat="45.86600106124639" lon="11.475682774166858"><ele>997.0</ele><time>2026-04-26T11:08:06.999Z</time></trkpt><trkpt lat="45.86614079010356" lon="11.475828283040668"><ele>997.3333333333333</ele><time>2026-04-26T11:08:07.999Z</time></trkpt><trkpt lat="45.86627806891667" lon="11.475976714304908"><ele>997.6666666666667</ele><time>2026-04-26T11:08:08.999Z</time></trkpt><trkpt lat="45.866418518348596" lon="11.476126103122045"><ele>998.0</ele><time>2026-04-26T11:08:09.999Z</time></trkpt><trkpt lat="45.866562742824215" lon="11.476270370265068"><ele>998.6666666666667</ele><time>2026-04-26T11:08:10.999Z</time></trkpt><trkpt lat="45.8667023750378" lon="11.476416635360705"><ele>999.3333333333333</ele><time>2026-04-26T11:08:11.999Z</time></trkpt><trkpt lat="45.86683621865884" lon="11.476582011772713"><ele>1000.0</ele><time>2026-04-26T11:08:12.999Z</time></trkpt><trkpt lat="45.86697963766949" lon="11.476731294759396"><ele>999.6666666666666</ele><time>2026-04-26T11:08:13.999Z</time></trkpt><trkpt lat="45.867121237255986" lon="11.47687924585469"><ele>999.3333333333333</ele><time>2026-04-26T11:08:14.999Z</time></trkpt><trkpt lat="45.86726065793624" lon="11.477027351638261"><ele>999.0</ele><time>2026-04-26T11:08:15.999Z</time></trkpt><trkpt lat="45.86740750803479" lon="11.477153581347347"><ele>999.0</ele><time>2026-04-26T11:08:16.999Z</time></trkpt><trkpt lat="45.867535868814144" lon="11.477308807382808"><ele>999.0</ele><time>2026-04-26T11:08:17.999Z</time></trkpt><trkpt lat="45.86767383909034" lon="11.477427926359592"><ele>999.0</ele><time>2026-04-26T11:08:18.999Z</time></trkpt><trkpt lat="45.86779164973482" lon="11.477546294983082"><ele>999.3333333333333</ele><time>2026-04-26T11:08:19.999Z</time></trkpt><trkpt lat="45.86790635364811" lon="11.477671873012667"><ele>999.6666666666666</ele><time>2026-04-26T11:08:20.999Z</time></trkpt><trkpt lat="45.86801993760468" lon="11.477811463132682"><ele>1000.0</ele><time>2026-04-26T11:08:21.999Z</time></trkpt><trkpt lat="45.86814779722514" lon="11.477942696917436"><ele>1000.0</ele><time>2026-04-26T11:08:22.999Z</time></trkpt><trkpt lat="45.86827905492496" lon="11.478078493508473"><ele>1000.0</ele><time>2026-04-26T11:08:23.999Z</time></trkpt><trkpt lat="45.86841434813385" lon="11.478227501370428"><ele>1000.0</ele><time>2026-04-26T11:08:24.999Z</time></trkpt><trkpt lat="45.86855033163344" lon="11.478364261194582"><ele>999.0</ele><time>2026-04-26T11:08:25.999Z</time></trkpt><trkpt lat="45.86867524638648" lon="11.478513988271624"><ele>998.0</ele><time>2026-04-26T11:08:26.999Z</time></trkpt><trkpt lat="45.86880327956896" lon="11.478648671929408"><ele>997.0</ele><time>2026-04-26T11:08:27.999Z</time></trkpt><trkpt lat="45.86894205358272" lon="11.47876538902347"><ele>998.6666666666666</ele><time>2026-04-26T11:08:28.999Z</time></trkpt><trkpt lat="45.86905939276534" lon="11.478917440062313"><ele>1000.3333333333333</ele><time>2026-04-26T11:08:29.999Z</time></trkpt><trkpt lat="45.8691869159671" lon="11.479051112379969"><ele>1002.0</ele><time>2026-04-26T11:08:30.999Z</time></trkpt><trkpt lat="45.86930813586252" lon="11.479156284398048"><ele>1002.8</ele><time>2026-04-26T11:08:31.998Z</time></trkpt><trkpt lat="45.86940269509368" lon="11.479266057036517"><ele>1003.6</ele><time>2026-04-26T11:08:32.998Z</time></trkpt><trkpt lat="45.86947307510589" lon="11.479373188839652"><ele>1004.3999999999999</ele><time>2026-04-26T11:08:33.998Z</time></trkpt><trkpt lat="45.86951918757831" lon="11.479484386978797"><ele>1005.1999999999999</ele><time>2026-04-26T11:08:34.998Z</time></trkpt><trkpt lat="45.86954294725432" lon="11.479599458474956"><ele>1006.0</ele><time>2026-04-26T11:08:35.998Z</time></trkpt><trkpt lat="45.86954628083353" lon="11.479711625468838"><ele>1005.9999999999999</ele><time>2026-04-26T11:08:36.998Z</time></trkpt><trkpt lat="45.86953676372034" lon="11.47982696427492"><ele>1006.0</ele><time>2026-04-26T11:08:37.998Z</time></trkpt><trkpt lat="45.869575225876254" lon="11.479903938194651"><ele>1006.0</ele><time>2026-04-26T11:08:38.998Z</time></trkpt><trkpt lat="45.86969804846215" lon="11.479915154078956"><ele>1006.0</ele><time>2026-04-26T11:08:40.998Z</time></trkpt><trkpt lat="45.86975533903984" lon="11.479842602463803"><ele>1005.9999999999999</ele><time>2026-04-26T11:08:41.998Z</time></trkpt><trkpt lat="45.869803274702306" lon="11.479742316021476"><ele>1006.0</ele><time>2026-04-26T11:08:42.998Z</time></trkpt><trkpt lat="45.869858094476555" lon="11.479645950611296"><ele>1005.9999999999999</ele><time>2026-04-26T11:08:43.998Z</time></trkpt><trkpt lat="45.86992168613699" lon="11.47955800016675"><ele>1006.0</ele><time>2026-04-26T11:08:44.998Z</time></trkpt><trkpt lat="45.86997562585505" lon="11.479469154806706"><ele>1006.0</ele><time>2026-04-26T11:08:45.998Z</time></trkpt><trkpt lat="45.87000693327763" lon="11.47936995668075"><ele>1006.0</ele><time>2026-04-26T11:08:46.998Z</time></trkpt><trkpt lat="45.870039762449586" lon="11.479278772015265"><ele>1005.9999999999999</ele><time>2026-04-26T11:08:47.998Z</time></trkpt><trkpt lat="45.87006868705833" lon="11.479174839365168"><ele>1006.0</ele><time>2026-04-26T11:08:48.998Z</time></trkpt><trkpt lat="45.87009645038208" lon="11.479075384280527"><ele>1005.9999999999999</ele><time>2026-04-26T11:08:49.998Z</time></trkpt><trkpt lat="45.87013143480196" lon="11.478986490851627"><ele>1006.0</ele><time>2026-04-26T11:08:50.998Z</time></trkpt><trkpt lat="45.870178840855644" lon="11.478853639769799"><ele>1006.0</ele><time>2026-04-26T11:08:52.998Z</time></trkpt><trkpt lat="45.87018730765691" lon="11.47875363074595"><ele>1006.0</ele><time>2026-04-26T11:08:59.998Z</time></trkpt><trkpt lat="45.870153250537726" lon="11.47888580165148"><ele>1005.9999999999999</ele><time>2026-04-26T11:09:02.998Z</time></trkpt><trkpt lat="45.87012704838834" lon="11.478973176197522"><ele>1006.0</ele><time>2026-04-26T11:09:03.998Z</time></trkpt><trkpt lat="45.87009623991242" lon="11.479075910996496"><ele>1006.0</ele><time>2026-04-26T11:09:04.998Z</time></trkpt><trkpt lat="45.87006201288224" lon="11.479190045396042"><ele>1005.9999999999999</ele><time>2026-04-26T11:09:05.998Z</time></trkpt><trkpt lat="45.87002920258075" lon="11.47929945566081"><ele>1005.9999999999999</ele><time>2026-04-26T11:09:07Z</time></trkpt><trkpt lat="45.86999136277573" lon="11.479400974832949"><ele>1006.0</ele><time>2026-04-26T11:09:08Z</time></trkpt><trkpt lat="45.86992650494939" lon="11.47956591839328"><ele>1006.0</ele><time>2026-04-26T11:09:10Z</time></trkpt><trkpt lat="45.869880952758685" lon="11.47968646098029"><ele>1006.0</ele><time>2026-04-26T11:09:12Z</time></trkpt><trkpt lat="45.86984617223227" lon="11.479778498758693"><ele>1006.0</ele><time>2026-04-26T11:09:14Z</time></trkpt><trkpt lat="45.869544049021385" lon="11.479738559190057"><ele>1006.0</ele><time>2026-04-26T11:09:16Z</time></trkpt><trkpt lat="45.869601927300536" lon="11.479920949756522"><ele>1006.0</ele><time>2026-04-26T11:09:18Z</time></trkpt><trkpt lat="45.869670609923254" lon="11.479944266392012"><ele>1006.0000000000001</ele><time>2026-04-26T11:09:19Z</time></trkpt><trkpt lat="45.86973559416909" lon="11.479891655027973"><ele>1006.0</ele><time>2026-04-26T11:09:20Z</time></trkpt><trkpt lat="45.869778170288924" lon="11.479806710823985"><ele>1006.0</ele><time>2026-04-26T11:09:21Z</time></trkpt><trkpt lat="45.869814990034534" lon="11.479717363883603"><ele>1006.0000000000001</ele><time>2026-04-26T11:09:22Z</time></trkpt><trkpt lat="45.86986897997057" lon="11.479641306850661"><ele>1006.0</ele><time>2026-04-26T11:09:23Z</time></trkpt><trkpt lat="45.869942755665065" lon="11.47959531682239"><ele>1006.0</ele><time>2026-04-26T11:09:24Z</time></trkpt><trkpt lat="45.86997925971664" lon="11.479498987611171"><ele>1006.75</ele><time>2026-04-26T11:09:25Z</time></trkpt><trkpt lat="45.87012943041667" lon="11.479560263762096"><ele>1007.5</ele><time>2026-04-26T11:09:26Z</time></trkpt><trkpt lat="45.870235815367536" lon="11.479538405029734"><ele>1008.25</ele><time>2026-04-26T11:09:27Z</time></trkpt><trkpt lat="45.87034806727706" lon="11.479508471779395"><ele>1009.0</ele><time>2026-04-26T11:09:28Z</time></trkpt><trkpt lat="45.870465121131446" lon="11.479501933043496"><ele>1009.0</ele><time>2026-04-26T11:09:29Z</time></trkpt><trkpt lat="45.87058901861996" lon="11.479539408207204"><ele>1009.0</ele><time>2026-04-26T11:09:30Z</time></trkpt><trkpt lat="45.870722018743486" lon="11.47960192433521"><ele>1009.0</ele><time>2026-04-26T11:09:31Z</time></trkpt><trkpt lat="45.87086341589382" lon="11.47967178024495"><ele>1009.0</ele><time>2026-04-26T11:09:32Z</time></trkpt><trkpt lat="45.87101442563819" lon="11.479740965689512"><ele>1012.6666666666666</ele><time>2026-04-26T11:09:33Z</time></trkpt><trkpt lat="45.871169603201174" lon="11.479805838971332"><ele>1016.3333333333333</ele><time>2026-04-26T11:09:34Z</time></trkpt><trkpt lat="45.87133014265504" lon="11.479875103049"><ele>1020.0</ele><time>2026-04-26T11:09:35Z</time></trkpt><trkpt lat="45.87148889317926" lon="11.479940922699464"><ele>1020.0</ele><time>2026-04-26T11:09:36Z</time></trkpt><trkpt lat="45.87164604977161" lon="11.480010166830201"><ele>1020.0</ele><time>2026-04-26T11:09:37Z</time></trkpt><trkpt lat="45.8717949105776" lon="11.480075354878245"><ele>1020.0</ele><time>2026-04-26T11:09:38Z</time></trkpt><trkpt lat="45.87193597647837" lon="11.480136067229592"><ele>1020.5</ele><time>2026-04-26T11:09:39Z</time></trkpt><trkpt lat="45.87206211328241" lon="11.480196010252243"><ele>1021.0</ele><time>2026-04-26T11:09:40Z</time></trkpt><trkpt lat="45.87217683535565" lon="11.480284681422198"><ele>1021.5</ele><time>2026-04-26T11:09:41Z</time></trkpt><trkpt lat="45.87229120573798" lon="11.480400180060528"><ele>1022.0</ele><time>2026-04-26T11:09:42Z</time></trkpt><trkpt lat="45.87240155135745" lon="11.480540736887695"><ele>1023.6666666666667</ele><time>2026-04-26T11:09:43Z</time></trkpt><trkpt lat="45.87250763755696" lon="11.480702317268255"><ele>1025.3333333333333</ele><time>2026-04-26T11:09:43.999Z</time></trkpt><trkpt lat="45.87262104034969" lon="11.480879813532903"><ele>1027.0</ele><time>2026-04-26T11:09:44.999Z</time></trkpt><trkpt lat="45.872740773862624" lon="11.481051688377406"><ele>1028.0</ele><time>2026-04-26T11:09:45.999Z</time></trkpt><trkpt lat="45.87286353076605" lon="11.481230966134703"><ele>1029.0</ele><time>2026-04-26T11:09:46.999Z</time></trkpt><trkpt lat="45.87298759664487" lon="11.481420670070397"><ele>1030.0</ele><time>2026-04-26T11:09:47.999Z</time></trkpt><trkpt lat="45.87311795415314" lon="11.481615250015226"><ele>1030.0</ele><time>2026-04-26T11:09:48.999Z</time></trkpt><trkpt lat="45.87322951615084" lon="11.481789412309283"><ele>1030.0</ele><time>2026-04-26T11:09:49.999Z</time></trkpt><trkpt lat="45.87332721540345" lon="11.481974584119472"><ele>1030.0</ele><time>2026-04-26T11:09:50.999Z</time></trkpt><trkpt lat="45.873414155041196" lon="11.482172159554047"><ele>1031.5</ele><time>2026-04-26T11:09:51.999Z</time></trkpt><trkpt lat="45.87356160509081" lon="11.482447532595971"><ele>1033.0</ele><time>2026-04-26T11:09:52.999Z</time></trkpt><trkpt lat="45.87370491304179" lon="11.482791464559291"><ele>1033.3333333333333</ele><time>2026-04-26T11:09:53.999Z</time></trkpt><trkpt lat="45.873833538269444" lon="11.483031101233257"><ele>1033.6666666666667</ele><time>2026-04-26T11:09:55.999Z</time></trkpt><trkpt lat="45.8739529883274" lon="11.483213625192864"><ele>1034.0</ele><time>2026-04-26T11:09:56.999Z</time></trkpt><trkpt lat="45.874088839868485" lon="11.483371602909378"><ele>1034.0</ele><time>2026-04-26T11:09:57.999Z</time></trkpt><trkpt lat="45.87424073967979" lon="11.483513975462994"><ele>1034.0</ele><time>2026-04-26T11:09:58.999Z</time></trkpt><trkpt lat="45.87439238225812" lon="11.483652869369497"><ele>1034.0</ele><time>2026-04-26T11:09:59.999Z</time></trkpt><trkpt lat="45.87453720633769" lon="11.483786788288732"><ele>1034.0</ele><time>2026-04-26T11:10:00.999Z</time></trkpt><trkpt lat="45.874682829176166" lon="11.483899307951564"><ele>1034.0</ele><time>2026-04-26T11:10:01.999Z</time></trkpt><trkpt lat="45.874842043219175" lon="11.483932660594055"><ele>1034.0</ele><time>2026-04-26T11:10:02.999Z</time></trkpt><trkpt lat="45.87500612786906" lon="11.483957218174531"><ele>1034.3333333333335</ele><time>2026-04-26T11:10:03.999Z</time></trkpt><trkpt lat="45.875178352190964" lon="11.483984246034744"><ele>1034.6666666666667</ele><time>2026-04-26T11:10:04.999Z</time></trkpt><trkpt lat="45.87535669775429" lon="11.484008597808476"><ele>1035.0</ele><time>2026-04-26T11:10:05.999Z</time></trkpt><trkpt lat="45.87553417031921" lon="11.484053645703547"><ele>1035.0</ele><time>2026-04-26T11:10:06.999Z</time></trkpt><trkpt lat="45.8757176116139" lon="11.484121136022036"><ele>1035.0</ele><time>2026-04-26T11:10:07.999Z</time></trkpt><trkpt lat="45.875903216692485" lon="11.484207974895861"><ele>1035.0</ele><time>2026-04-26T11:10:08.999Z</time></trkpt><trkpt lat="45.87609581043216" lon="11.484293797763952"><ele>1035.0</ele><time>2026-04-26T11:10:09.999Z</time></trkpt><trkpt lat="45.876295756687284" lon="11.484379042578126"><ele>1035.0</ele><time>2026-04-26T11:10:10.999Z</time></trkpt><trkpt lat="45.876499975991855" lon="11.484465490131425"><ele>1035.0</ele><time>2026-04-26T11:10:11.999Z</time></trkpt><trkpt lat="45.87670493100694" lon="11.484561310228374"><ele>1036.0</ele><time>2026-04-26T11:10:12.999Z</time></trkpt><trkpt lat="45.876915449575016" lon="11.484648194336518"><ele>1037.0</ele><time>2026-04-26T11:10:13.999Z</time></trkpt><trkpt lat="45.877130241618914" lon="11.484733521281878"><ele>1038.0</ele><time>2026-04-26T11:10:14.999Z</time></trkpt><trkpt lat="45.87734607113275" lon="11.484809968060663"><ele>1038.0</ele><time>2026-04-26T11:10:15.999Z</time></trkpt><trkpt lat="45.87755935964475" lon="11.484878754203123"><ele>1038.0</ele><time>2026-04-26T11:10:16.999Z</time></trkpt><trkpt lat="45.87777684795796" lon="11.484955488836114"><ele>1038.0</ele><time>2026-04-26T11:10:17.999Z</time></trkpt><trkpt lat="45.877979415800795" lon="11.485029369858328"><ele>1039.0</ele><time>2026-04-26T11:10:18.999Z</time></trkpt><trkpt lat="45.878169119954705" lon="11.48510085940431"><ele>1040.0</ele><time>2026-04-26T11:10:19.999Z</time></trkpt><trkpt lat="45.878324892529164" lon="11.48519336734042"><ele>1041.0</ele><time>2026-04-26T11:10:20.999Z</time></trkpt><trkpt lat="45.878545580942095" lon="11.48524454063305"><ele>1041.6666666666667</ele><time>2026-04-26T11:10:21.999Z</time></trkpt><trkpt lat="45.87874496152955" lon="11.485297244232656"><ele>1042.3333333333335</ele><time>2026-04-26T11:10:22.999Z</time></trkpt><trkpt lat="45.87892466159925" lon="11.485362064348823"><ele>1043.0</ele><time>2026-04-26T11:10:23.999Z</time></trkpt><trkpt lat="45.8790962847237" lon="11.485421683498089"><ele>1044.3333333333335</ele><time>2026-04-26T11:10:24.999Z</time></trkpt><trkpt lat="45.879265984682654" lon="11.485477444706065"><ele>1045.6666666666667</ele><time>2026-04-26T11:10:25.999Z</time></trkpt><trkpt lat="45.879425455159755" lon="11.485527617088586"><ele>1047.0</ele><time>2026-04-26T11:10:26.999Z</time></trkpt><trkpt lat="45.87956936777976" lon="11.485581859409507"><ele>1048.8</ele><time>2026-04-26T11:10:27.999Z</time></trkpt><trkpt lat="45.87969157607318" lon="11.48563200553281"><ele>1050.6</ele><time>2026-04-26T11:10:28.999Z</time></trkpt><trkpt lat="45.87979604257115" lon="11.485665963178477"><ele>1052.3999999999999</ele><time>2026-04-26T11:10:29.999Z</time></trkpt><trkpt lat="45.87988743991419" lon="11.485690697730353"><ele>1054.2</ele><time>2026-04-26T11:10:30.999Z</time></trkpt><trkpt lat="45.87995322281506" lon="11.485724779549027"><ele>1056.0</ele><time>2026-04-26T11:10:31.999Z</time></trkpt><trkpt lat="45.880019023851766" lon="11.485741863741064"><ele>1057.5</ele><time>2026-04-26T11:10:33.999Z</time></trkpt><trkpt lat="45.88011241440551" lon="11.48548822768726"><ele>1059.0</ele><time>2026-04-26T11:10:38.999Z</time></trkpt><trkpt lat="45.880132404075425" lon="11.485335670502675"><ele>1060.5</ele><time>2026-04-26T11:10:39.999Z</time></trkpt><trkpt lat="45.88015887375292" lon="11.485154749442795"><ele>1062.0</ele><time>2026-04-26T11:10:40.999Z</time></trkpt><trkpt lat="45.88019232314171" lon="11.484949793238384"><ele>1062.0</ele><time>2026-04-26T11:10:41.998Z</time></trkpt><trkpt lat="45.88023053210811" lon="11.484726503212176"><ele>1062.0</ele><time>2026-04-26T11:10:42.998Z</time></trkpt><trkpt lat="45.88027076602188" lon="11.484494393314778"><ele>1062.0</ele><time>2026-04-26T11:10:43.998Z</time></trkpt><trkpt lat="45.8803176445841" lon="11.48425400080515"><ele>1059.6666666666667</ele><time>2026-04-26T11:10:44.998Z</time></trkpt><trkpt lat="45.88036370511534" lon="11.484001625416242"><ele>1057.3333333333335</ele><time>2026-04-26T11:10:45.998Z</time></trkpt><trkpt lat="45.88042679956156" lon="11.48377348041048"><ele>1055.0</ele><time>2026-04-26T11:10:46.998Z</time></trkpt><trkpt lat="45.88047549578324" lon="11.483544199922788"><ele>1054.0</ele><time>2026-04-26T11:10:47.998Z</time></trkpt><trkpt lat="45.88051330264258" lon="11.483301987736894"><ele>1053.0</ele><time>2026-04-26T11:10:48.998Z</time></trkpt><trkpt lat="45.880589923835544" lon="11.483068069644832"><ele>1052.0</ele><time>2026-04-26T11:10:49.998Z</time></trkpt><trkpt lat="45.88067490042621" lon="11.482840433338454"><ele>1050.6666666666667</ele><time>2026-04-26T11:10:50.998Z</time></trkpt><trkpt lat="45.88077716328926" lon="11.48260405804811"><ele>1049.3333333333333</ele><time>2026-04-26T11:10:51.998Z</time></trkpt><trkpt lat="45.88085039968996" lon="11.482362798052439"><ele>1048.0</ele><time>2026-04-26T11:10:52.998Z</time></trkpt><trkpt lat="45.88091041928474" lon="11.482123552734423"><ele>1050.6666666666665</ele><time>2026-04-26T11:10:53.998Z</time></trkpt><trkpt lat="45.88100764185515" lon="11.481913427810191"><ele>1053.3333333333333</ele><time>2026-04-26T11:10:54.998Z</time></trkpt><trkpt lat="45.8810931647347" lon="11.48169966223563"><ele>1056.0</ele><time>2026-04-26T11:10:55.998Z</time></trkpt><trkpt lat="45.881154988047165" lon="11.481477404738039"><ele>1056.0</ele><time>2026-04-26T11:10:56.998Z</time></trkpt><trkpt lat="45.88122602001642" lon="11.481283175672056"><ele>1056.0</ele><time>2026-04-26T11:10:57.998Z</time></trkpt><trkpt lat="45.881325082719826" lon="11.481118098695214"><ele>1056.0</ele><time>2026-04-26T11:10:58.998Z</time></trkpt><trkpt lat="45.88144154260763" lon="11.480971968277426"><ele>1055.3333333333333</ele><time>2026-04-26T11:10:59.998Z</time></trkpt><trkpt lat="45.88155635159254" lon="11.48081033853202"><ele>1054.6666666666665</ele><time>2026-04-26T11:11:00.998Z</time></trkpt><trkpt lat="45.881650988653455" lon="11.480627639009478"><ele>1054.0</ele><time>2026-04-26T11:11:01.998Z</time></trkpt><trkpt lat="45.881732978869984" lon="11.480466072585386"><ele>1055.75</ele><time>2026-04-26T11:11:02.998Z</time></trkpt><trkpt lat="45.8817985742489" lon="11.480288101893652"><ele>1057.5</ele><time>2026-04-26T11:11:03.998Z</time></trkpt><trkpt lat="45.88182156321041" lon="11.480101665851402"><ele>1059.25</ele><time>2026-04-26T11:11:04.998Z</time></trkpt><trkpt lat="45.8818507348865" lon="11.479931977349246"><ele>1061.0</ele><time>2026-04-26T11:11:05.998Z</time></trkpt><trkpt lat="45.88188182723199" lon="11.479773691946223"><ele>1061.0</ele><time>2026-04-26T11:11:06.998Z</time></trkpt><trkpt lat="45.88193522043603" lon="11.479632455883857"><ele>1061.0</ele><time>2026-04-26T11:11:07.998Z</time></trkpt><trkpt lat="45.88201910863716" lon="11.479500473940302"><ele>1061.0</ele><time>2026-04-26T11:11:08.998Z</time></trkpt><trkpt lat="45.88212047692225" lon="11.479401189612911"><ele>1061.0</ele><time>2026-04-26T11:11:09.998Z</time></trkpt><trkpt lat="45.882236572970584" lon="11.479337926726329"><ele>1059.0</ele><time>2026-04-26T11:11:10.998Z</time></trkpt><trkpt lat="45.88238117600834" lon="11.479282750661268"><ele>1057.0</ele><time>2026-04-26T11:11:11.998Z</time></trkpt><trkpt lat="45.882534509999054" lon="11.479196010605525"><ele>1055.0</ele><time>2026-04-26T11:11:13Z</time></trkpt><trkpt lat="45.88269643918573" lon="11.479124923950367"><ele>1061.3333333333335</ele><time>2026-04-26T11:11:14Z</time></trkpt><trkpt lat="45.88286992379032" lon="11.479076565374534"><ele>1067.6666666666667</ele><time>2026-04-26T11:11:15Z</time></trkpt><trkpt lat="45.88303014187729" lon="11.479007184640862"><ele>1074.0</ele><time>2026-04-26T11:11:16Z</time></trkpt><trkpt lat="45.88316537541322" lon="11.478910925677974"><ele>1074.0</ele><time>2026-04-26T11:11:17Z</time></trkpt><trkpt lat="45.88327847535786" lon="11.47880273462312"><ele>1074.0</ele><time>2026-04-26T11:11:18Z</time></trkpt><trkpt lat="45.88334832944448" lon="11.478646872511584"><ele>1074.0</ele><time>2026-04-26T11:11:19Z</time></trkpt><trkpt lat="45.883370610402295" lon="11.478461142719954"><ele>1074.0</ele><time>2026-04-26T11:11:20Z</time></trkpt><trkpt lat="45.88336510827896" lon="11.478266914739764"><ele>1071.75</ele><time>2026-04-26T11:11:21Z</time></trkpt><trkpt lat="45.883384366377854" lon="11.478073008654386"><ele>1069.5</ele><time>2026-04-26T11:11:22Z</time></trkpt><trkpt lat="45.8834210689078" lon="11.477896065040762"><ele>1067.25</ele><time>2026-04-26T11:11:23Z</time></trkpt><trkpt lat="45.883474005866745" lon="11.477702867408594"><ele>1065.0</ele><time>2026-04-26T11:11:24Z</time></trkpt><trkpt lat="45.8835687081054" lon="11.477543404091943"><ele>1065.0</ele><time>2026-04-26T11:11:25Z</time></trkpt><trkpt lat="45.883664200861055" lon="11.477360345086069"><ele>1065.0</ele><time>2026-04-26T11:11:26Z</time></trkpt><trkpt lat="45.88375837064064" lon="11.477178452626003"><ele>1065.0</ele><time>2026-04-26T11:11:27Z</time></trkpt><trkpt lat="45.883840325864135" lon="11.47697320409574"><ele>1064.25</ele><time>2026-04-26T11:11:28Z</time></trkpt><trkpt lat="45.88392693768195" lon="11.476778645922332"><ele>1063.5</ele><time>2026-04-26T11:11:29Z</time></trkpt><trkpt lat="45.8839855802039" lon="11.47659053762764"><ele>1062.75</ele><time>2026-04-26T11:11:30Z</time></trkpt><trkpt lat="45.88402299734654" lon="11.47639941955063"><ele>1062.0</ele><time>2026-04-26T11:11:31Z</time></trkpt><trkpt lat="45.88404906751187" lon="11.47619391190702"><ele>1061.0</ele><time>2026-04-26T11:11:32Z</time></trkpt><trkpt lat="45.88407144130022" lon="11.475974388262607"><ele>1060.0</ele><time>2026-04-26T11:11:33Z</time></trkpt><trkpt lat="45.884095824445424" lon="11.475761896919646"><ele>1059.0</ele><time>2026-04-26T11:11:34Z</time></trkpt><trkpt lat="45.884123670618905" lon="11.475551292914172"><ele>1058.5</ele><time>2026-04-26T11:11:35Z</time></trkpt><trkpt lat="45.88416567473071" lon="11.475346199463736"><ele>1058.0</ele><time>2026-04-26T11:11:36Z</time></trkpt><trkpt lat="45.88419153997899" lon="11.475141832227841"><ele>1057.5</ele><time>2026-04-26T11:11:37Z</time></trkpt><trkpt lat="45.88419989129818" lon="11.474944765347116"><ele>1057.0</ele><time>2026-04-26T11:11:38Z</time></trkpt><trkpt lat="45.88423907394691" lon="11.47476659785228"><ele>1057.6</ele><time>2026-04-26T11:11:39Z</time></trkpt><trkpt lat="45.88424515660696" lon="11.474593073290006"><ele>1058.2</ele><time>2026-04-26T11:11:40Z</time></trkpt><trkpt lat="45.884271238856826" lon="11.474453173041018"><ele>1058.8</ele><time>2026-04-26T11:11:41Z</time></trkpt><trkpt lat="45.88428648120058" lon="11.474332426172845"><ele>1059.4</ele><time>2026-04-26T11:11:42Z</time></trkpt><trkpt lat="45.884307821992294" lon="11.474216418731912"><ele>1060.0</ele><time>2026-04-26T11:11:43Z</time></trkpt><trkpt lat="45.884324341798575" lon="11.474086126719591"><ele>1061.6</ele><time>2026-04-26T11:11:44Z</time></trkpt><trkpt lat="45.88434709767065" lon="11.473944926524949"><ele>1063.2</ele><time>2026-04-26T11:11:45Z</time></trkpt><trkpt lat="45.88437838114221" lon="11.47379483550145"><ele>1064.8</ele><time>2026-04-26T11:11:46Z</time></trkpt><trkpt lat="45.88444480333444" lon="11.473656246573466"><ele>1066.4</ele><time>2026-04-26T11:11:47Z</time></trkpt><trkpt lat="45.884507362755514" lon="11.473508286538575"><ele>1068.0</ele><time>2026-04-26T11:11:48Z</time></trkpt><trkpt lat="45.88456312854156" lon="11.473352062398522"><ele>1068.0</ele><time>2026-04-26T11:11:49Z</time></trkpt><trkpt lat="45.88462958133731" lon="11.473204586359248"><ele>1068.0</ele><time>2026-04-26T11:11:50Z</time></trkpt><trkpt lat="45.8846924376598" lon="11.473057357533435"><ele>1068.0</ele><time>2026-04-26T11:11:51Z</time></trkpt><trkpt lat="45.884757219661196" lon="11.472918161227769"><ele>1068.0</ele><time>2026-04-26T11:11:52Z</time></trkpt><trkpt lat="45.884816679978734" lon="11.472790053858594"><ele>1068.2</ele><time>2026-04-26T11:11:52.999Z</time></trkpt><trkpt lat="45.88487173956234" lon="11.472667018728286"><ele>1068.4</ele><time>2026-04-26T11:11:53.999Z</time></trkpt><trkpt lat="45.88493000535788" lon="11.472549945327884"><ele>1068.6000000000001</ele><time>2026-04-26T11:11:54.999Z</time></trkpt><trkpt lat="45.884996928830766" lon="11.472439229823792"><ele>1068.8</ele><time>2026-04-26T11:11:55.999Z</time></trkpt><trkpt lat="45.88508638308629" lon="11.472349778109598"><ele>1069.0</ele><time>2026-04-26T11:11:56.999Z</time></trkpt><trkpt lat="45.88520415647333" lon="11.47232651800093"><ele>1069.0</ele><time>2026-04-26T11:11:57.999Z</time></trkpt><trkpt lat="45.8853310496235" lon="11.472308978207176"><ele>1069.0</ele><time>2026-04-26T11:11:58.999Z</time></trkpt><trkpt lat="45.885467276256314" lon="11.472276650642856"><ele>1069.0</ele><time>2026-04-26T11:11:59.999Z</time></trkpt><trkpt lat="45.88561697030875" lon="11.472252578304246"><ele>1069.0</ele><time>2026-04-26T11:12:00.999Z</time></trkpt><trkpt lat="45.88577520468642" lon="11.472215749635028"><ele>1074.6666666666665</ele><time>2026-04-26T11:12:01.999Z</time></trkpt><trkpt lat="45.88594754761467" lon="11.472183514964033"><ele>1080.3333333333333</ele><time>2026-04-26T11:12:02.999Z</time></trkpt><trkpt lat="45.88612340077986" lon="11.4721589068857"><ele>1086.0</ele><time>2026-04-26T11:12:03.999Z</time></trkpt><trkpt lat="45.88629960458568" lon="11.472130365486715"><ele>1082.0</ele><time>2026-04-26T11:12:04.999Z</time></trkpt><trkpt lat="45.88647343254672" lon="11.472094938699147"><ele>1078.0</ele><time>2026-04-26T11:12:05.999Z</time></trkpt><trkpt lat="45.886646303105685" lon="11.472055479062995"><ele>1074.0</ele><time>2026-04-26T11:12:06.999Z</time></trkpt><trkpt lat="45.88680196526487" lon="11.471990597703014"><ele>1074.0</ele><time>2026-04-26T11:12:07.999Z</time></trkpt><trkpt lat="45.886937677732654" lon="11.471909373596315"><ele>1074.0</ele><time>2026-04-26T11:12:08.999Z</time></trkpt><trkpt lat="45.88706408903002" lon="11.471830660058455"><ele>1074.0</ele><time>2026-04-26T11:12:09.999Z</time></trkpt><trkpt lat="45.887193752567036" lon="11.471757718250824"><ele>1074.0</ele><time>2026-04-26T11:12:10.999Z</time></trkpt><trkpt lat="45.88731516445024" lon="11.471695369240887"><ele>1074.0</ele><time>2026-04-26T11:12:11.999Z</time></trkpt><trkpt lat="45.88742916349597" lon="11.471634831333324"><ele>1074.0</ele><time>2026-04-26T11:12:12.999Z</time></trkpt><trkpt lat="45.887552484742265" lon="11.47160660854435"><ele>1074.0</ele><time>2026-04-26T11:12:13.999Z</time></trkpt><trkpt lat="45.88766469685629" lon="11.471578830955838"><ele>1074.0</ele><time>2026-04-26T11:12:14.999Z</time></trkpt><trkpt lat="45.88777305632419" lon="11.471577841208534"><ele>1075.5</ele><time>2026-04-26T11:12:15.999Z</time></trkpt><trkpt lat="45.887879035858596" lon="11.471575797783206"><ele>1077.0</ele><time>2026-04-26T11:12:16.999Z</time></trkpt><trkpt lat="45.88798287614597" lon="11.471538594749992"><ele>1078.5</ele><time>2026-04-26T11:12:17.999Z</time></trkpt><trkpt lat="45.88809086452951" lon="11.471485232032467"><ele>1080.0</ele><time>2026-04-26T11:12:18.999Z</time></trkpt><trkpt lat="45.888200045919454" lon="11.47139035750707"><ele>1080.0</ele><time>2026-04-26T11:12:19.999Z</time></trkpt><trkpt lat="45.88830910627526" lon="11.471290537328297"><ele>1080.0</ele><time>2026-04-26T11:12:20.999Z</time></trkpt><trkpt lat="45.88841325883736" lon="11.471199421498985"><ele>1080.0</ele><time>2026-04-26T11:12:21.999Z</time></trkpt><trkpt lat="45.88851507755178" lon="11.471129541499678"><ele>1080.0</ele><time>2026-04-26T11:12:22.999Z</time></trkpt><trkpt lat="45.88861060833311" lon="11.4710722321053"><ele>1079.4</ele><time>2026-04-26T11:12:23.999Z</time></trkpt><trkpt lat="45.88870110237969" lon="11.471014655999909"><ele>1078.8</ele><time>2026-04-26T11:12:24.999Z</time></trkpt><trkpt lat="45.88879607347024" lon="11.470956346919134"><ele>1078.2</ele><time>2026-04-26T11:12:25.999Z</time></trkpt><trkpt lat="45.88887829129317" lon="11.470853030667346"><ele>1077.6</ele><time>2026-04-26T11:12:26.999Z</time></trkpt><trkpt lat="45.88893498420074" lon="11.4706896900912"><ele>1077.0</ele><time>2026-04-26T11:12:27.999Z</time></trkpt><trkpt lat="45.88901466618893" lon="11.470508482625542"><ele>1079.75</ele><time>2026-04-26T11:12:28.999Z</time></trkpt><trkpt lat="45.88907169561186" lon="11.470327810663155"><ele>1082.5</ele><time>2026-04-26T11:12:29.999Z</time></trkpt><trkpt lat="45.88914184936398" lon="11.470145552359813"><ele>1085.25</ele><time>2026-04-26T11:12:30.999Z</time></trkpt><trkpt lat="45.889227047888504" lon="11.469980267431225"><ele>1088.0</ele><time>2026-04-26T11:12:31.999Z</time></trkpt><trkpt lat="45.88930927598013" lon="11.469829765991653"><ele>1088.0</ele><time>2026-04-26T11:12:32.999Z</time></trkpt><trkpt lat="45.88937681645242" lon="11.469674566478377"><ele>1088.0</ele><time>2026-04-26T11:12:33.999Z</time></trkpt><trkpt lat="45.88946240866729" lon="11.469560662775985"><ele>1088.0</ele><time>2026-04-26T11:12:34.999Z</time></trkpt><trkpt lat="45.889525613442665" lon="11.469459386023003"><ele>1088.0</ele><time>2026-04-26T11:12:35.999Z</time></trkpt><trkpt lat="45.889588048662446" lon="11.469379666307493"><ele>1088.0</ele><time>2026-04-26T11:12:36.999Z</time></trkpt><trkpt lat="45.88965473426168" lon="11.46931259713851"><ele>1085.4</ele><time>2026-04-26T11:12:37.999Z</time></trkpt><trkpt lat="45.88975144034981" lon="11.469334315070183"><ele>1082.8</ele><time>2026-04-26T11:12:38.999Z</time></trkpt><trkpt lat="45.88984565934326" lon="11.469383297091547"><ele>1080.2</ele><time>2026-04-26T11:12:39.999Z</time></trkpt><trkpt lat="45.88994923974002" lon="11.469440592564869"><ele>1077.6</ele><time>2026-04-26T11:12:40.999Z</time></trkpt><trkpt lat="45.890041867554544" lon="11.469547611407709"><ele>1075.0</ele><time>2026-04-26T11:12:41.999Z</time></trkpt><trkpt lat="45.89013160712014" lon="11.469669854722204"><ele>1075.0</ele><time>2026-04-26T11:12:42.999Z</time></trkpt><trkpt lat="45.89023272329873" lon="11.469783749880516"><ele>1075.0</ele><time>2026-04-26T11:12:43.999Z</time></trkpt><trkpt lat="45.89033685160476" lon="11.469900891352449"><ele>1075.0</ele><time>2026-04-26T11:12:44.999Z</time></trkpt><trkpt lat="45.89047490422615" lon="11.469951743407476"><ele>1075.0</ele><time>2026-04-26T11:12:45.999Z</time></trkpt><trkpt lat="45.8906232894037" lon="11.469953577977545"><ele>1075.0</ele><time>2026-04-26T11:12:46.999Z</time></trkpt><trkpt lat="45.89076625927862" lon="11.469958479467335"><ele>1075.0</ele><time>2026-04-26T11:12:47.999Z</time></trkpt><trkpt lat="45.890916722081656" lon="11.469980059929853"><ele>1075.0</ele><time>2026-04-26T11:12:48.999Z</time></trkpt><trkpt lat="45.89105801198679" lon="11.470001069765928"><ele>1075.0</ele><time>2026-04-26T11:12:49.999Z</time></trkpt><trkpt lat="45.89115002384417" lon="11.470015142873919"><ele>1073.0</ele><time>2026-04-26T11:12:50.999Z</time></trkpt><trkpt lat="45.89121627913548" lon="11.470011329718574"><ele>1071.0</ele><time>2026-04-26T11:12:51.999Z</time></trkpt><trkpt lat="45.89154700191564" lon="11.470079868401596"><ele>1069.0</ele><time>2026-04-26T11:12:52.998Z</time></trkpt><trkpt lat="45.891704527777286" lon="11.470094440142859"><ele>1068.6666666666665</ele><time>2026-04-26T11:12:53.998Z</time></trkpt><trkpt lat="45.89184327666782" lon="11.470072352206618"><ele>1068.3333333333333</ele><time>2026-04-26T11:12:54.998Z</time></trkpt><trkpt lat="45.89200349617095" lon="11.470034316760158"><ele>1068.0</ele><time>2026-04-26T11:12:55.998Z</time></trkpt><trkpt lat="45.892149444975416" lon="11.470001738169849"><ele>1068.0</ele><time>2026-04-26T11:12:56.998Z</time></trkpt><trkpt lat="45.89228930087752" lon="11.469971594248467"><ele>1068.0</ele><time>2026-04-26T11:12:57.998Z</time></trkpt><trkpt lat="45.892425905839765" lon="11.469956235422575"><ele>1068.0</ele><time>2026-04-26T11:12:58.998Z</time></trkpt><trkpt lat="45.892557123336964" lon="11.469928207285472"><ele>1068.0</ele><time>2026-04-26T11:12:59.998Z</time></trkpt><trkpt lat="45.89267241858421" lon="11.469883312053064"><ele>1068.4</ele><time>2026-04-26T11:13:00.998Z</time></trkpt><trkpt lat="45.89278242193481" lon="11.46982855802592"><ele>1068.8</ele><time>2026-04-26T11:13:01.998Z</time></trkpt><trkpt lat="45.892886886452935" lon="11.469815431930376"><ele>1069.2</ele><time>2026-04-26T11:13:02.998Z</time></trkpt><trkpt lat="45.8929854308608" lon="11.469828658096286"><ele>1069.6</ele><time>2026-04-26T11:13:03.998Z</time></trkpt><trkpt lat="45.893083199294374" lon="11.46988083603436"><ele>1070.0</ele><time>2026-04-26T11:13:04.998Z</time></trkpt><trkpt lat="45.89317912989578" lon="11.4699247549801"><ele>1070.0</ele><time>2026-04-26T11:13:05.998Z</time></trkpt><trkpt lat="45.89326979475098" lon="11.469966100199166"><ele>1070.0</ele><time>2026-04-26T11:13:06.998Z</time></trkpt><trkpt lat="45.89336305159287" lon="11.47000225877727"><ele>1070.0</ele><time>2026-04-26T11:13:07.998Z</time></trkpt><trkpt lat="45.89347150848153" lon="11.470024430502093"><ele>1070.0</ele><time>2026-04-26T11:13:08.998Z</time></trkpt><trkpt lat="45.89359568266943" lon="11.469968461717738"><ele>1070.0</ele><time>2026-04-26T11:13:09.998Z</time></trkpt><trkpt lat="45.89370545818821" lon="11.469871489562664"><ele>1073.25</ele><time>2026-04-26T11:13:10.998Z</time></trkpt><trkpt lat="45.89382392549594" lon="11.46982610058766"><ele>1076.5</ele><time>2026-04-26T11:13:11.998Z</time></trkpt><trkpt lat="45.893941040130386" lon="11.469762986243722"><ele>1079.75</ele><time>2026-04-26T11:13:12.998Z</time></trkpt><trkpt lat="45.894035476714365" lon="11.46964640043723"><ele>1083.0</ele><time>2026-04-26T11:13:13.998Z</time></trkpt><trkpt lat="45.89412411552633" lon="11.469543368626264"><ele>1080.4</ele><time>2026-04-26T11:13:14.998Z</time></trkpt><trkpt lat="45.894175184459606" lon="11.469384657739226"><ele>1077.8</ele><time>2026-04-26T11:13:15.998Z</time></trkpt><trkpt lat="45.89422667565973" lon="11.469217816391955"><ele>1075.2</ele><time>2026-04-26T11:13:16.998Z</time></trkpt><trkpt lat="45.89429830227481" lon="11.469127108362422"><ele>1072.6</ele><time>2026-04-26T11:13:17.998Z</time></trkpt><trkpt lat="45.89438489858224" lon="11.46906868853024"><ele>1070.0</ele><time>2026-04-26T11:13:19Z</time></trkpt><trkpt lat="45.894497644663126" lon="11.469018609667948"><ele>1070.0</ele><time>2026-04-26T11:13:20Z</time></trkpt><trkpt lat="45.89462027778218" lon="11.468956511599004"><ele>1070.0</ele><time>2026-04-26T11:13:21Z</time></trkpt><trkpt lat="45.89473868610087" lon="11.468898857202927"><ele>1070.0</ele><time>2026-04-26T11:13:22Z</time></trkpt><trkpt lat="45.8948501335118" lon="11.46883784942427"><ele>1070.0</ele><time>2026-04-26T11:13:23Z</time></trkpt><trkpt lat="45.89494359992802" lon="11.4687497630044"><ele>1065.0</ele><time>2026-04-26T11:13:24Z</time></trkpt><trkpt lat="45.89502726417055" lon="11.468674798089527"><ele>1060.0</ele><time>2026-04-26T11:13:25Z</time></trkpt><trkpt lat="45.89511245378253" lon="11.468611295118686"><ele>1055.0</ele><time>2026-04-26T11:13:26Z</time></trkpt><trkpt lat="45.895202182892504" lon="11.46857239951368"><ele>1050.0</ele><time>2026-04-26T11:13:27Z</time></trkpt><trkpt lat="45.89529247032223" lon="11.468587264826724"><ele>1045.0</ele><time>2026-04-26T11:13:28Z</time></trkpt><trkpt lat="45.89536813932409" lon="11.468662563959596"><ele>1045.0</ele><time>2026-04-26T11:13:29Z</time></trkpt><trkpt lat="45.89545789996655" lon="11.468744465512264"><ele>1045.0</ele><time>2026-04-26T11:13:30Z</time></trkpt><trkpt lat="45.89555577965093" lon="11.468794769873202"><ele>1045.0</ele><time>2026-04-26T11:13:31Z</time></trkpt><trkpt lat="45.895649374613896" lon="11.468794029250748"><ele>1045.0</ele><time>2026-04-26T11:13:32Z</time></trkpt><trkpt lat="45.89575325991227" lon="11.468759485613305"><ele>1045.0</ele><time>2026-04-26T11:13:33Z</time></trkpt><trkpt lat="45.89583819477006" lon="11.46863847109682"><ele>1045.0</ele><time>2026-04-26T11:13:34Z</time></trkpt><trkpt lat="45.895917103799825" lon="11.468513134521206"><ele>1045.0</ele><time>2026-04-26T11:13:35Z</time></trkpt><trkpt lat="45.89600800151357" lon="11.468422007755116"><ele>1045.0</ele><time>2026-04-26T11:13:36Z</time></trkpt><trkpt lat="45.896135467308284" lon="11.46836817698529"><ele>1045.0</ele><time>2026-04-26T11:13:37Z</time></trkpt><trkpt lat="45.896274580791356" lon="11.468298831982562"><ele>1049.25</ele><time>2026-04-26T11:13:38Z</time></trkpt><trkpt lat="45.89641316423625" lon="11.468210855408447"><ele>1053.5</ele><time>2026-04-26T11:13:39Z</time></trkpt><trkpt lat="45.89654130199344" lon="11.468148260076877"><ele>1057.75</ele><time>2026-04-26T11:13:40Z</time></trkpt><trkpt lat="45.89667300868781" lon="11.468103982458079"><ele>1062.0</ele><time>2026-04-26T11:13:41Z</time></trkpt><trkpt lat="45.89679824525074" lon="11.468073151216991"><ele>1064.0</ele><time>2026-04-26T11:13:42Z</time></trkpt><trkpt lat="45.896912847247044" lon="11.468049288660533"><ele>1066.0</ele><time>2026-04-26T11:13:43Z</time></trkpt><trkpt lat="45.89701813938856" lon="11.468038622829912"><ele>1068.0</ele><time>2026-04-26T11:13:44Z</time></trkpt><trkpt lat="45.89709955257523" lon="11.468090241066129"><ele>1070.0</ele><time>2026-04-26T11:13:45Z</time></trkpt><trkpt lat="45.89718995309524" lon="11.468133787163131"><ele>1072.0</ele><time>2026-04-26T11:13:46Z</time></trkpt><trkpt lat="45.897278083287546" lon="11.468148971196891"><ele>1072.0</ele><time>2026-04-26T11:13:47Z</time></trkpt><trkpt lat="45.89739056856549" lon="11.468090347656412"><ele>1072.0</ele><time>2026-04-26T11:13:48Z</time></trkpt><trkpt lat="45.897472113532864" lon="11.467958016737535"><ele>1072.0</ele><time>2026-04-26T11:13:49Z</time></trkpt><trkpt lat="45.89752686894975" lon="11.467781810177419"><ele>1072.0</ele><time>2026-04-26T11:13:50Z</time></trkpt><trkpt lat="45.89756162560335" lon="11.467594293297982"><ele>1072.75</ele><time>2026-04-26T11:13:51Z</time></trkpt><trkpt lat="45.897573441383685" lon="11.467402268488065"><ele>1073.5</ele><time>2026-04-26T11:13:52Z</time></trkpt><trkpt lat="45.89755671958967" lon="11.467206141445303"><ele>1074.25</ele><time>2026-04-26T11:13:53Z</time></trkpt><trkpt lat="45.897597532357224" lon="11.46700602736384"><ele>1075.0</ele><time>2026-04-26T11:13:54Z</time></trkpt><trkpt lat="45.89765857227614" lon="11.466845509370744"><ele>1075.0</ele><time>2026-04-26T11:13:55Z</time></trkpt><trkpt lat="45.89771721605969" lon="11.466675561496322"><ele>1075.0</ele><time>2026-04-26T11:13:56Z</time></trkpt><trkpt lat="45.89778604309951" lon="11.466515424638562"><ele>1075.0</ele><time>2026-04-26T11:13:56.999Z</time></trkpt><trkpt lat="45.897868327290944" lon="11.466374604005171"><ele>1075.0</ele><time>2026-04-26T11:13:57.999Z</time></trkpt><trkpt lat="45.89797224071117" lon="11.466258870967922"><ele>1068.75</ele><time>2026-04-26T11:13:58.999Z</time></trkpt><trkpt lat="45.89808996064726" lon="11.466146865352021"><ele>1062.5</ele><time>2026-04-26T11:13:59.999Z</time></trkpt><trkpt lat="45.89821351544545" lon="11.466063013671599"><ele>1056.25</ele><time>2026-04-26T11:14:00.999Z</time></trkpt><trkpt lat="45.89834659988082" lon="11.465990500850939"><ele>1050.0</ele><time>2026-04-26T11:14:01.999Z</time></trkpt><trkpt lat="45.89848498943756" lon="11.465914964713763"><ele>1050.0</ele><time>2026-04-26T11:14:02.999Z</time></trkpt><trkpt lat="45.89863609100647" lon="11.465845600836909"><ele>1050.0</ele><time>2026-04-26T11:14:03.999Z</time></trkpt><trkpt lat="45.89879942618543" lon="11.465759150974074"><ele>1050.0</ele><time>2026-04-26T11:14:04.999Z</time></trkpt><trkpt lat="45.89898850471812" lon="11.465733079101426"><ele>1050.0</ele><time>2026-04-26T11:14:05.999Z</time></trkpt><trkpt lat="45.8991659352092" lon="11.465690129729095"><ele>1050.0</ele><time>2026-04-26T11:14:06.999Z</time></trkpt><trkpt lat="45.89933171517436" lon="11.465598537699004"><ele>1050.0</ele><time>2026-04-26T11:14:07.999Z</time></trkpt><trkpt lat="45.89950284330377" lon="11.465547467233279"><ele>1055.0</ele><time>2026-04-26T11:14:08.999Z</time></trkpt><trkpt lat="45.89967897306076" lon="11.465469681466699"><ele>1060.0</ele><time>2026-04-26T11:14:09.999Z</time></trkpt><trkpt lat="45.89987350262945" lon="11.46538811412229"><ele>1065.0</ele><time>2026-04-26T11:14:10.999Z</time></trkpt><trkpt lat="45.90005548522061" lon="11.465312245196749"><ele>1056.3333333333333</ele><time>2026-04-26T11:14:11.999Z</time></trkpt><trkpt lat="45.90021939706151" lon="11.4652415768602"><ele>1047.6666666666665</ele><time>2026-04-26T11:14:12.999Z</time></trkpt><trkpt lat="45.90035980163647" lon="11.465180564666468"><ele>1039.0</ele><time>2026-04-26T11:14:13.999Z</time></trkpt><trkpt lat="45.9004873831579" lon="11.465126710945215"><ele>1039.0</ele><time>2026-04-26T11:14:14.999Z</time></trkpt><trkpt lat="45.90060820333787" lon="11.465089707312695"><ele>1039.0</ele><time>2026-04-26T11:14:15.999Z</time></trkpt><trkpt lat="45.90072535912882" lon="11.46507374785239"><ele>1039.0</ele><time>2026-04-26T11:14:16.999Z</time></trkpt><trkpt lat="45.90083977182754" lon="11.465064096265381"><ele>1039.0</ele><time>2026-04-26T11:14:17.999Z</time></trkpt><trkpt lat="45.90095341833075" lon="11.465037103623889"><ele>1040.75</ele><time>2026-04-26T11:14:18.999Z</time></trkpt><trkpt lat="45.90105188489865" lon="11.464913845635914"><ele>1042.5</ele><time>2026-04-26T11:14:19.999Z</time></trkpt><trkpt lat="45.901148659365276" lon="11.46476626856904"><ele>1044.25</ele><time>2026-04-26T11:14:20.999Z</time></trkpt><trkpt lat="45.90127385322608" lon="11.464624010627897"><ele>1046.0</ele><time>2026-04-26T11:14:21.999Z</time></trkpt><trkpt lat="45.90140254197318" lon="11.464453128193307"><ele>1046.0</ele><time>2026-04-26T11:14:22.999Z</time></trkpt><trkpt lat="45.901519657032765" lon="11.464240063074874"><ele>1046.0</ele><time>2026-04-26T11:14:23.999Z</time></trkpt><trkpt lat="45.90162090739371" lon="11.46401326204267"><ele>1046.0</ele><time>2026-04-26T11:14:24.999Z</time></trkpt><trkpt lat="45.90170006386627" lon="11.46379549564026"><ele>1051.0</ele><time>2026-04-26T11:14:25.999Z</time></trkpt><trkpt lat="45.901776759313606" lon="11.463602575215267"><ele>1056.0</ele><time>2026-04-26T11:14:26.999Z</time></trkpt><trkpt lat="45.90187181293567" lon="11.463437123598922"><ele>1061.0</ele><time>2026-04-26T11:14:27.999Z</time></trkpt><trkpt lat="45.90198816694218" lon="11.46326653512927"><ele>1061.0</ele><time>2026-04-26T11:14:28.999Z</time></trkpt><trkpt lat="45.90212598932059" lon="11.463069305624796"><ele>1061.0</ele><time>2026-04-26T11:14:29.999Z</time></trkpt><trkpt lat="45.902281177740534" lon="11.462847224437896"><ele>1061.0</ele><time>2026-04-26T11:14:30.999Z</time></trkpt><trkpt lat="45.902429972568285" lon="11.462634719914659"><ele>1062.3333333333335</ele><time>2026-04-26T11:14:31.999Z</time></trkpt><trkpt lat="45.90258814151569" lon="11.462409568685352"><ele>1063.6666666666667</ele><time>2026-04-26T11:14:32.999Z</time></trkpt><trkpt lat="45.90274118219713" lon="11.462191147742882"><ele>1065.0</ele><time>2026-04-26T11:14:33.999Z</time></trkpt><trkpt lat="45.902882516088226" lon="11.461988896084707"><ele>1051.6666666666667</ele><time>2026-04-26T11:14:34.999Z</time></trkpt><trkpt lat="45.903015968856806" lon="11.461804175120223"><ele>1038.3333333333335</ele><time>2026-04-26T11:14:35.999Z</time></trkpt><trkpt lat="45.90315183520063" lon="11.461637875468764"><ele>1025.0</ele><time>2026-04-26T11:14:36.999Z</time></trkpt><trkpt lat="45.90330317011222" lon="11.461500126380367"><ele>1024.0</ele><time>2026-04-26T11:14:37.999Z</time></trkpt><trkpt lat="45.903478406228224" lon="11.461382006415636"><ele>1023.0</ele><time>2026-04-26T11:14:38.999Z</time></trkpt><trkpt lat="45.90366113146108" lon="11.461292983786858"><ele>1022.0</ele><time>2026-04-26T11:14:39.999Z</time></trkpt><trkpt lat="45.903838793233405" lon="11.461211065215792"><ele>1022.0</ele><time>2026-04-26T11:14:40.999Z</time></trkpt><trkpt lat="45.9040045413509" lon="11.461092460347158"><ele>1022.0</ele><time>2026-04-26T11:14:41.999Z</time></trkpt><trkpt lat="45.90415513685142" lon="11.460966554331533"><ele>1022.0</ele><time>2026-04-26T11:14:42.999Z</time></trkpt><trkpt lat="45.904279110227655" lon="11.460788446133181"><ele>1018.0</ele><time>2026-04-26T11:14:43.999Z</time></trkpt><trkpt lat="45.90437296241632" lon="11.460585699957944"><ele>1014.0</ele><time>2026-04-26T11:14:44.999Z</time></trkpt><trkpt lat="45.904454757033484" lon="11.46039029464656"><ele>1010.0</ele><time>2026-04-26T11:14:45.999Z</time></trkpt><trkpt lat="45.90456084467589" lon="11.460249218149189"><ele>1010.0</ele><time>2026-04-26T11:14:46.999Z</time></trkpt><trkpt lat="45.90468843406056" lon="11.460157962323187"><ele>1010.0</ele><time>2026-04-26T11:14:47.999Z</time></trkpt><trkpt lat="45.904841233453226" lon="11.460101566400912"><ele>1010.0</ele><time>2026-04-26T11:14:48.999Z</time></trkpt><trkpt lat="45.905015585575654" lon="11.460051622461654"><ele>1019.3333333333334</ele><time>2026-04-26T11:14:49.999Z</time></trkpt><trkpt lat="45.90520423977386" lon="11.459994287550613"><ele>1028.6666666666667</ele><time>2026-04-26T11:14:50.999Z</time></trkpt><trkpt lat="45.90539052946338" lon="11.459909300366244"><ele>1038.0</ele><time>2026-04-26T11:14:51.999Z</time></trkpt><trkpt lat="45.90556108060207" lon="11.45983315314162"><ele>1038.0</ele><time>2026-04-26T11:14:52.999Z</time></trkpt><trkpt lat="45.905721356879674" lon="11.459700627490136"><ele>1038.0</ele><time>2026-04-26T11:14:53.999Z</time></trkpt><trkpt lat="45.90585845844818" lon="11.459488962402515"><ele>1038.0</ele><time>2026-04-26T11:14:54.999Z</time></trkpt><trkpt lat="45.906002888885375" lon="11.459309337697078"><ele>1033.3333333333333</ele><time>2026-04-26T11:14:55.999Z</time></trkpt><trkpt lat="45.9061511813432" lon="11.45917480715691"><ele>1028.6666666666665</ele><time>2026-04-26T11:14:56.999Z</time></trkpt><trkpt lat="45.90631047516462" lon="11.45907059452048"><ele>1024.0</ele><time>2026-04-26T11:14:57.999Z</time></trkpt><trkpt lat="45.9064621148405" lon="11.458987680698707"><ele>1024.0</ele><time>2026-04-26T11:14:58.998Z</time></trkpt><trkpt lat="45.90658090970253" lon="11.45891710297548"><ele>1024.0</ele><time>2026-04-26T11:14:59.998Z</time></trkpt><trkpt lat="45.90677650633614" lon="11.458955061966583"><ele>1024.0</ele><time>2026-04-26T11:15:00.998Z</time></trkpt><trkpt lat="45.9070378725358" lon="11.458918202699275"><ele>1023.6666666666666</ele><time>2026-04-26T11:15:01.998Z</time></trkpt><trkpt lat="45.907244659221774" lon="11.45890184410578"><ele>1023.3333333333333</ele><time>2026-04-26T11:15:02.998Z</time></trkpt><trkpt lat="45.90743747336557" lon="11.458876549543179"><ele>1023.0</ele><time>2026-04-26T11:15:03.998Z</time></trkpt><trkpt lat="45.90760996019895" lon="11.458855620636086"><ele>1022.0</ele><time>2026-04-26T11:15:04.998Z</time></trkpt><trkpt lat="45.90776187398994" lon="11.45889662950221"><ele>1021.0</ele><time>2026-04-26T11:15:05.998Z</time></trkpt><trkpt lat="45.90790832535055" lon="11.45895864896637"><ele>1020.0</ele><time>2026-04-26T11:15:06.998Z</time></trkpt><trkpt lat="45.908065716311995" lon="11.4589632800597"><ele>1020.0</ele><time>2026-04-26T11:15:07.998Z</time></trkpt><trkpt lat="45.90822239382648" lon="11.458909988824873"><ele>1020.0</ele><time>2026-04-26T11:15:08.998Z</time></trkpt><trkpt lat="45.90837535478813" lon="11.458782670180192"><ele>1020.0</ele><time>2026-04-26T11:15:09.998Z</time></trkpt><trkpt lat="45.908527376589234" lon="11.458640640444356"><ele>1017.0</ele><time>2026-04-26T11:15:10.998Z</time></trkpt><trkpt lat="45.90868203469346" lon="11.458504739849875"><ele>1014.0</ele><time>2026-04-26T11:15:11.998Z</time></trkpt><trkpt lat="45.90883807339374" lon="11.45835065649087"><ele>1011.0</ele><time>2026-04-26T11:15:12.998Z</time></trkpt><trkpt lat="45.9089951992085" lon="11.458149842691684"><ele>1011.0</ele><time>2026-04-26T11:15:13.998Z</time></trkpt><trkpt lat="45.909165184536214" lon="11.457998671346735"><ele>1011.0</ele><time>2026-04-26T11:15:14.998Z</time></trkpt><trkpt lat="45.909310763017075" lon="11.457814843279031"><ele>1011.0</ele><time>2026-04-26T11:15:15.998Z</time></trkpt><trkpt lat="45.90944550669571" lon="11.457631507622224"><ele>1009.3333333333333</ele><time>2026-04-26T11:15:16.998Z</time></trkpt><trkpt lat="45.90954460260519" lon="11.457429326768828"><ele>1007.6666666666666</ele><time>2026-04-26T11:15:17.998Z</time></trkpt><trkpt lat="45.90965702071948" lon="11.4572675811829"><ele>1006.0</ele><time>2026-04-26T11:15:18.998Z</time></trkpt><trkpt lat="45.90976298612825" lon="11.457126730984575"><ele>1005.0</ele><time>2026-04-26T11:15:19.998Z</time></trkpt><trkpt lat="45.909890025672944" lon="11.457068575777463"><ele>1004.0</ele><time>2026-04-26T11:15:20.998Z</time></trkpt><trkpt lat="45.91003320501724" lon="11.457015820103873"><ele>1003.0</ele><time>2026-04-26T11:15:21.998Z</time></trkpt><trkpt lat="45.910186538208855" lon="11.45696739170423"><ele>1002.0</ele><time>2026-04-26T11:15:22.998Z</time></trkpt><trkpt lat="45.91033284379282" lon="11.456928926856586"><ele>1002.0</ele><time>2026-04-26T11:15:23.998Z</time></trkpt><trkpt lat="45.91047005953435" lon="11.456918439451947"><ele>1002.0</ele><time>2026-04-26T11:15:25Z</time></trkpt><trkpt lat="45.910599348681835" lon="11.456969849942373"><ele>1002.0</ele><time>2026-04-26T11:15:26Z</time></trkpt><trkpt lat="45.91074748889825" lon="11.457054661297574"><ele>1002.0</ele><time>2026-04-26T11:15:27Z</time></trkpt><trkpt lat="45.91087269674392" lon="11.457222454081462"><ele>1001.6666666666667</ele><time>2026-04-26T11:15:28Z</time></trkpt><trkpt lat="45.91101919546871" lon="11.457332087058708"><ele>1001.3333333333334</ele><time>2026-04-26T11:15:29Z</time></trkpt><trkpt lat="45.91117820556664" lon="11.457429608566825"><ele>1001.0</ele><time>2026-04-26T11:15:30Z</time></trkpt><trkpt lat="45.911283771082694" lon="11.457693600704554"><ele>1001.0</ele><time>2026-04-26T11:15:31Z</time></trkpt><trkpt lat="45.91141634857331" lon="11.457838403382008"><ele>1001.0</ele><time>2026-04-26T11:15:32Z</time></trkpt><trkpt lat="45.91154825221543" lon="11.457944896725326"><ele>1001.0</ele><time>2026-04-26T11:15:33Z</time></trkpt><trkpt lat="45.91168273966799" lon="11.457974216843377"><ele>1003.6666666666667</ele><time>2026-04-26T11:15:34Z</time></trkpt><trkpt lat="45.91182661172178" lon="11.457938934604755"><ele>1006.3333333333333</ele><time>2026-04-26T11:15:35Z</time></trkpt><trkpt lat="45.91198260016732" lon="11.457859503080597"><ele>1009.0</ele><time>2026-04-26T11:15:36Z</time></trkpt><trkpt lat="45.912154535812085" lon="11.457739916505366"><ele>1009.0</ele><time>2026-04-26T11:15:37Z</time></trkpt><trkpt lat="45.912363479865675" lon="11.457610999979293"><ele>1009.0</ele><time>2026-04-26T11:15:38Z</time></trkpt><trkpt lat="45.91254288363902" lon="11.457522392825348"><ele>1009.0</ele><time>2026-04-26T11:15:39Z</time></trkpt><trkpt lat="45.912716547676965" lon="11.457389749599686"><ele>1011.6666666666666</ele><time>2026-04-26T11:15:40Z</time></trkpt><trkpt lat="45.912916238823804" lon="11.457337264895314"><ele>1014.3333333333333</ele><time>2026-04-26T11:15:41Z</time></trkpt><trkpt lat="45.913112235701355" lon="11.457201869795519"><ele>1017.0</ele><time>2026-04-26T11:15:42Z</time></trkpt><trkpt lat="45.91327716413505" lon="11.457051542191268"><ele>1020.0</ele><time>2026-04-26T11:15:43Z</time></trkpt><trkpt lat="45.913410006809116" lon="11.45687738871359"><ele>1023.0</ele><time>2026-04-26T11:15:44Z</time></trkpt><trkpt lat="45.91353064109911" lon="11.456705073789776"><ele>1026.0</ele><time>2026-04-26T11:15:45Z</time></trkpt><trkpt lat="45.913665784980545" lon="11.456584367329372"><ele>1026.0</ele><time>2026-04-26T11:15:46Z</time></trkpt><trkpt lat="45.9138191939684" lon="11.456537763354492"><ele>1026.0</ele><time>2026-04-26T11:15:47Z</time></trkpt><trkpt lat="45.91398442742981" lon="11.456542523282646"><ele>1026.0</ele><time>2026-04-26T11:15:48Z</time></trkpt><trkpt lat="45.91415330920786" lon="11.45651496172637"><ele>1026.3333333333333</ele><time>2026-04-26T11:15:49Z</time></trkpt><trkpt lat="45.91431525274694" lon="11.456390516253636"><ele>1026.6666666666665</ele><time>2026-04-26T11:15:50Z</time></trkpt><trkpt lat="45.91445358546449" lon="11.45622464502481"><ele>1027.0</ele><time>2026-04-26T11:15:51Z</time></trkpt><trkpt lat="45.91456624440975" lon="11.456018458265351"><ele>1027.0</ele><time>2026-04-26T11:15:52Z</time></trkpt><trkpt lat="45.9146921979006" lon="11.455840982216607"><ele>1027.0</ele><time>2026-04-26T11:15:53Z</time></trkpt><trkpt lat="45.91484510810453" lon="11.455699839919934"><ele>1027.0</ele><time>2026-04-26T11:15:54Z</time></trkpt><trkpt lat="45.915025031977144" lon="11.455615754178917"><ele>1027.0</ele><time>2026-04-26T11:15:55Z</time></trkpt><trkpt lat="45.91521718232347" lon="11.455544836960328"><ele>1027.0</ele><time>2026-04-26T11:15:56Z</time></trkpt><trkpt lat="45.91542090501978" lon="11.455484680577712"><ele>1027.0</ele><time>2026-04-26T11:15:57Z</time></trkpt><trkpt lat="45.915628710457625" lon="11.455419722436918"><ele>1027.0</ele><time>2026-04-26T11:15:58Z</time></trkpt><trkpt lat="45.915825823285154" lon="11.455347079625094"><ele>1027.0</ele><time>2026-04-26T11:15:59Z</time></trkpt><trkpt lat="45.91602516561018" lon="11.455310758643275"><ele>1027.0</ele><time>2026-04-26T11:16:00Z</time></trkpt><trkpt lat="45.916223322184855" lon="11.455329615830598"><ele>1027.3333333333333</ele><time>2026-04-26T11:16:01Z</time></trkpt><trkpt lat="45.916394195444056" lon="11.455393048227709"><ele>1027.6666666666667</ele><time>2026-04-26T11:16:02Z</time></trkpt><trkpt lat="45.916554388988565" lon="11.455432980300394"><ele>1028.0</ele><time>2026-04-26T11:16:03Z</time></trkpt><trkpt lat="45.91670003326697" lon="11.455343073179916"><ele>1035.6666666666667</ele><time>2026-04-26T11:16:04Z</time></trkpt><trkpt lat="45.916841769177736" lon="11.455184618822107"><ele>1043.3333333333333</ele><time>2026-04-26T11:16:05Z</time></trkpt><trkpt lat="45.916953682883964" lon="11.454978394758294"><ele>1051.0</ele><time>2026-04-26T11:16:06Z</time></trkpt><trkpt lat="45.91706166765456" lon="11.45476517853935"><ele>1047.0</ele><time>2026-04-26T11:16:07Z</time></trkpt><trkpt lat="45.917177601034254" lon="11.454560572962311"><ele>1043.0</ele><time>2026-04-26T11:16:08Z</time></trkpt><trkpt lat="45.91730274286003" lon="11.454381475869372"><ele>1039.0</ele><time>2026-04-26T11:16:08.999Z</time></trkpt><trkpt lat="45.91744424714274" lon="11.454237108884538"><ele>1042.3333333333333</ele><time>2026-04-26T11:16:09.999Z</time></trkpt><trkpt lat="45.91760775930964" lon="11.454139919964657"><ele>1045.6666666666667</ele><time>2026-04-26T11:16:10.999Z</time></trkpt><trkpt lat="45.91777951298203" lon="11.454065676563578"><ele>1049.0</ele><time>2026-04-26T11:16:11.999Z</time></trkpt><trkpt lat="45.91795484308066" lon="11.453962096792004"><ele>1049.0</ele><time>2026-04-26T11:16:12.999Z</time></trkpt><trkpt lat="45.918141764261414" lon="11.453852645643634"><ele>1049.0</ele><time>2026-04-26T11:16:13.999Z</time></trkpt><trkpt lat="45.91833003141156" lon="11.453738457732108"><ele>1049.0</ele><time>2026-04-26T11:16:14.999Z</time></trkpt><trkpt lat="45.91851238681198" lon="11.453622629846098"><ele>1048.3333333333335</ele><time>2026-04-26T11:16:15.999Z</time></trkpt><trkpt lat="45.91868041084662" lon="11.45351366346138"><ele>1047.6666666666667</ele><time>2026-04-26T11:16:16.999Z</time></trkpt><trkpt lat="45.91884388879492" lon="11.45341914963107"><ele>1047.0</ele><time>2026-04-26T11:16:17.999Z</time></trkpt><trkpt lat="45.919006227676576" lon="11.453347752306106"><ele>1047.0</ele><time>2026-04-26T11:16:18.999Z</time></trkpt><trkpt lat="45.91914415374068" lon="11.453300727704857"><ele>1047.0</ele><time>2026-04-26T11:16:19.999Z</time></trkpt><trkpt lat="45.91941973963529" lon="11.453318465139995"><ele>1047.0</ele><time>2026-04-26T11:16:20.999Z</time></trkpt><trkpt lat="45.91963990449691" lon="11.453321411603957"><ele>1049.0</ele><time>2026-04-26T11:16:21.999Z</time></trkpt><trkpt lat="45.919866154685145" lon="11.453301248052304"><ele>1051.0</ele><time>2026-04-26T11:16:22.999Z</time></trkpt><trkpt lat="45.92009804321754" lon="11.453273577319996"><ele>1055.5</ele><time>2026-04-26T11:16:23.999Z</time></trkpt><trkpt lat="45.920328972138876" lon="11.453250653055163"><ele>1060.0</ele><time>2026-04-26T11:16:24.999Z</time></trkpt><trkpt lat="45.92055181058939" lon="11.453224093597683"><ele>1060.0</ele><time>2026-04-26T11:16:25.999Z</time></trkpt><trkpt lat="45.92076241815894" lon="11.453211147239747"><ele>1060.0</ele><time>2026-04-26T11:16:26.999Z</time></trkpt><trkpt lat="45.92097420193408" lon="11.453231372887137"><ele>1060.0</ele><time>2026-04-26T11:16:27.999Z</time></trkpt><trkpt lat="45.92118162792653" lon="11.453281336565185"><ele>1062.3333333333333</ele><time>2026-04-26T11:16:28.999Z</time></trkpt><trkpt lat="45.92138519427295" lon="11.453326994121783"><ele>1064.6666666666667</ele><time>2026-04-26T11:16:29.999Z</time></trkpt><trkpt lat="45.921592072203055" lon="11.453293064451772"><ele>1067.0</ele><time>2026-04-26T11:16:30.999Z</time></trkpt><trkpt lat="45.921787593467066" lon="11.453183876924047"><ele>1068.3333333333335</ele><time>2026-04-26T11:16:31.999Z</time></trkpt><trkpt lat="45.921956905429745" lon="11.453045550802157"><ele>1069.6666666666667</ele><time>2026-04-26T11:16:32.999Z</time></trkpt><trkpt lat="45.92213758924796" lon="11.452943919141552"><ele>1071.0</ele><time>2026-04-26T11:16:33.999Z</time></trkpt><trkpt lat="45.922320349570946" lon="11.452909408145127"><ele>1071.0</ele><time>2026-04-26T11:16:34.999Z</time></trkpt><trkpt lat="45.92249942047635" lon="11.452922518153436"><ele>1071.0</ele><time>2026-04-26T11:16:35.999Z</time></trkpt><trkpt lat="45.922649905373966" lon="11.452920966102054"><ele>1071.0</ele><time>2026-04-26T11:16:36.999Z</time></trkpt><trkpt lat="45.92278849106762" lon="11.452815253809934"><ele>1073.5</ele><time>2026-04-26T11:16:37.999Z</time></trkpt><trkpt lat="45.92301567055178" lon="11.452661699138835"><ele>1076.0</ele><time>2026-04-26T11:16:38.999Z</time></trkpt><trkpt lat="45.923190566989454" lon="11.452498035330256"><ele>1076.0</ele><time>2026-04-26T11:16:39.999Z</time></trkpt><trkpt lat="45.92336471752726" lon="11.452348410727193"><ele>1076.0</ele><time>2026-04-26T11:16:40.999Z</time></trkpt><trkpt lat="45.92353174992722" lon="11.452218788841668"><ele>1076.0</ele><time>2026-04-26T11:16:41.999Z</time></trkpt><trkpt lat="45.923702152614084" lon="11.452102387387948"><ele>1077.0</ele><time>2026-04-26T11:16:42.999Z</time></trkpt><trkpt lat="45.92388634937481" lon="11.45200003764158"><ele>1078.0</ele><time>2026-04-26T11:16:43.999Z</time></trkpt><trkpt lat="45.924088003187194" lon="11.451920837622717"><ele>1079.0</ele><time>2026-04-26T11:16:44.999Z</time></trkpt><trkpt lat="45.92429275747442" lon="11.451862807809741"><ele>1080.3333333333335</ele><time>2026-04-26T11:16:45.999Z</time></trkpt><trkpt lat="45.924508434055724" lon="11.45179957609891"><ele>1081.6666666666667</ele><time>2026-04-26T11:16:46.999Z</time></trkpt><trkpt lat="45.92471968733131" lon="11.45171598674898"><ele>1083.0</ele><time>2026-04-26T11:16:47.999Z</time></trkpt><trkpt lat="45.924925656942065" lon="11.45159470967929"><ele>1084.5</ele><time>2026-04-26T11:16:48.999Z</time></trkpt><trkpt lat="45.92512591420987" lon="11.451442581434868"><ele>1086.0</ele><time>2026-04-26T11:16:49.999Z</time></trkpt><trkpt lat="45.92531733661109" lon="11.451272333218606"><ele>1086.0</ele><time>2026-04-26T11:16:50.999Z</time></trkpt><trkpt lat="45.92549677272763" lon="11.451080420071952"><ele>1086.0</ele><time>2026-04-26T11:16:51.999Z</time></trkpt><trkpt lat="45.92567851963599" lon="11.450900664245367"><ele>1086.0</ele><time>2026-04-26T11:16:52.999Z</time></trkpt><trkpt lat="45.92586320100002" lon="11.450740129830232"><ele>1086.3333333333333</ele><time>2026-04-26T11:16:53.999Z</time></trkpt><trkpt lat="45.92605768116992" lon="11.450595182808245"><ele>1086.6666666666665</ele><time>2026-04-26T11:16:54.999Z</time></trkpt><trkpt lat="45.92626292588261" lon="11.450482531946136"><ele>1087.0</ele><time>2026-04-26T11:16:55.999Z</time></trkpt><trkpt lat="45.9264767640149" lon="11.450398875539369"><ele>1087.0</ele><time>2026-04-26T11:16:56.999Z</time></trkpt><trkpt lat="45.926694702788595" lon="11.45034539276468"><ele>1087.0</ele><time>2026-04-26T11:16:57.999Z</time></trkpt><trkpt lat="45.92692177197173" lon="11.450328728995732"><ele>1087.0</ele><time>2026-04-26T11:16:58.999Z</time></trkpt><trkpt lat="45.92714301447166" lon="11.450332356567062"><ele>1088.3333333333333</ele><time>2026-04-26T11:16:59.999Z</time></trkpt><trkpt lat="45.92735457517603" lon="11.450334357511164"><ele>1089.6666666666667</ele><time>2026-04-26T11:17:00.999Z</time></trkpt><trkpt lat="45.92754972706153" lon="11.450315441356276"><ele>1091.0</ele><time>2026-04-26T11:17:01.999Z</time></trkpt><trkpt lat="45.92773800092965" lon="11.45025212318644"><ele>1095.6666666666667</ele><time>2026-04-26T11:17:02.999Z</time></trkpt><trkpt lat="45.927911014812864" lon="11.450136232491886"><ele>1100.3333333333333</ele><time>2026-04-26T11:17:03.999Z</time></trkpt><trkpt lat="45.9280663508397" lon="11.449974179098005"><ele>1105.0</ele><time>2026-04-26T11:17:04.999Z</time></trkpt><trkpt lat="45.92820182295266" lon="11.449775087881148"><ele>1103.0</ele><time>2026-04-26T11:17:05.999Z</time></trkpt><trkpt lat="45.92830702300086" lon="11.449547633941819"><ele>1101.0</ele><time>2026-04-26T11:17:06.999Z</time></trkpt><trkpt lat="45.92841078444859" lon="11.449323356921488"><ele>1099.0</ele><time>2026-04-26T11:17:07.999Z</time></trkpt><trkpt lat="45.92854871957024" lon="11.449125577009907"><ele>1099.3333333333333</ele><time>2026-04-26T11:17:08.998Z</time></trkpt><trkpt lat="45.92871423168312" lon="11.448972810624367"><ele>1099.6666666666667</ele><time>2026-04-26T11:17:09.998Z</time></trkpt><trkpt lat="45.92888993249673" lon="11.448848019398937"><ele>1100.0</ele><time>2026-04-26T11:17:10.998Z</time></trkpt><trkpt lat="45.92905782085369" lon="11.448708321800456"><ele>1100.0</ele><time>2026-04-26T11:17:11.998Z</time></trkpt><trkpt lat="45.929210333352536" lon="11.44855048190822"><ele>1100.0</ele><time>2026-04-26T11:17:12.998Z</time></trkpt><trkpt lat="45.92934334004241" lon="11.448347543679871"><ele>1100.0</ele><time>2026-04-26T11:17:13.998Z</time></trkpt><trkpt lat="45.92945009178051" lon="11.448105097817745"><ele>1107.3333333333335</ele><time>2026-04-26T11:17:14.998Z</time></trkpt><trkpt lat="45.92952585670895" lon="11.447842681366879"><ele>1114.6666666666667</ele><time>2026-04-26T11:17:15.998Z</time></trkpt><trkpt lat="45.92957038190743" lon="11.44760646066995"><ele>1122.0</ele><time>2026-04-26T11:17:16.998Z</time></trkpt><trkpt lat="45.92959507103116" lon="11.447400466127108"><ele>1122.0</ele><time>2026-04-26T11:17:17.998Z</time></trkpt><trkpt lat="45.9295941955999" lon="11.447225219659872"><ele>1122.0</ele><time>2026-04-26T11:17:18.998Z</time></trkpt><trkpt lat="45.929579147003054" lon="11.447087170486164"><ele>1122.0</ele><time>2026-04-26T11:17:19.998Z</time></trkpt><trkpt lat="45.92956518843705" lon="11.446991416051615"><ele>1122.0</ele><time>2026-04-26T11:17:20.998Z</time></trkpt><trkpt lat="45.929571288652" lon="11.44688851421867"><ele>1122.0</ele><time>2026-04-26T11:17:23.998Z</time></trkpt><trkpt lat="45.92964732995247" lon="11.446762190891588"><ele>1121.0</ele><time>2026-04-26T11:24:38.999Z</time></trkpt><trkpt lat="45.929673687363845" lon="11.44665610438636"><ele>1120.0</ele><time>2026-04-26T11:24:39.999Z</time></trkpt><trkpt lat="45.92969715215223" lon="11.446524801408103"><ele>1119.0</ele><time>2026-04-26T11:24:40.999Z</time></trkpt><trkpt lat="45.92973312246408" lon="11.446384137037324"><ele>1118.0</ele><time>2026-04-26T11:24:41.999Z</time></trkpt><trkpt lat="45.92978828274819" lon="11.446243760256552"><ele>1117.0</ele><time>2026-04-26T11:24:42.999Z</time></trkpt><trkpt lat="45.929855541919956" lon="11.446108470843999"><ele>1117.0</ele><time>2026-04-26T11:24:43.999Z</time></trkpt><trkpt lat="45.92992301876199" lon="11.445955577797495"><ele>1117.0</ele><time>2026-04-26T11:24:44.999Z</time></trkpt><trkpt lat="45.93000276361458" lon="11.445808010055051"><ele>1117.0</ele><time>2026-04-26T11:24:45.999Z</time></trkpt><trkpt lat="45.93010028764453" lon="11.445674828703075"><ele>1117.0</ele><time>2026-04-26T11:24:46.999Z</time></trkpt><trkpt lat="45.93021260330613" lon="11.445555306090355"><ele>1117.5</ele><time>2026-04-26T11:24:47.999Z</time></trkpt><trkpt lat="45.93033276108082" lon="11.445454846320343"><ele>1118.0</ele><time>2026-04-26T11:24:48.999Z</time></trkpt><trkpt lat="45.93045799922174" lon="11.44535734871151"><ele>1118.5</ele><time>2026-04-26T11:24:49.999Z</time></trkpt><trkpt lat="45.93059167579625" lon="11.445254949963228"><ele>1119.0</ele><time>2026-04-26T11:24:50.999Z</time></trkpt><trkpt lat="45.93072217923989" lon="11.44516177663872"><ele>1119.0</ele><time>2026-04-26T11:24:51.999Z</time></trkpt><trkpt lat="45.93086641126263" lon="11.4450349499343"><ele>1119.0</ele><time>2026-04-26T11:24:52.999Z</time></trkpt><trkpt lat="45.93102879269469" lon="11.444906518567915"><ele>1119.0</ele><time>2026-04-26T11:24:53.999Z</time></trkpt><trkpt lat="45.93118645648213" lon="11.444777081682814"><ele>1119.5</ele><time>2026-04-26T11:24:54.999Z</time></trkpt><trkpt lat="45.93132673220167" lon="11.444656587496004"><ele>1120.0</ele><time>2026-04-26T11:24:55.999Z</time></trkpt><trkpt lat="45.931440985567825" lon="11.444525158501722"><ele>1120.5</ele><time>2026-04-26T11:24:56.999Z</time></trkpt><trkpt lat="45.93154798796488" lon="11.444397214664905"><ele>1121.0</ele><time>2026-04-26T11:24:57.999Z</time></trkpt><trkpt lat="45.9316371520513" lon="11.444270662339367"><ele>1122.5</ele><time>2026-04-26T11:24:58.999Z</time></trkpt><trkpt lat="45.93172956302876" lon="11.444145602185602"><ele>1124.0</ele><time>2026-04-26T11:24:59.999Z</time></trkpt><trkpt lat="45.932251736972766" lon="11.443937195162418"><ele>1124.6666666666667</ele><time>2026-04-26T11:25:00.999Z</time></trkpt><trkpt lat="45.932429315893685" lon="11.443795375793277"><ele>1125.3333333333333</ele><time>2026-04-26T11:25:01.999Z</time></trkpt><trkpt lat="45.932603162255056" lon="11.443660004361604"><ele>1126.0</ele><time>2026-04-26T11:25:02.999Z</time></trkpt><trkpt lat="45.9327656894993" lon="11.443530051456445"><ele>1126.0</ele><time>2026-04-26T11:25:03.999Z</time></trkpt><trkpt lat="45.93292197220594" lon="11.443412166568438"><ele>1126.0</ele><time>2026-04-26T11:25:04.999Z</time></trkpt><trkpt lat="45.9330794218304" lon="11.443315157878919"><ele>1126.0</ele><time>2026-04-26T11:25:05.999Z</time></trkpt><trkpt lat="45.93323651670377" lon="11.443285386323138"><ele>1129.0</ele><time>2026-04-26T11:25:06.999Z</time></trkpt><trkpt lat="45.933400028633685" lon="11.443308147116943"><ele>1132.0</ele><time>2026-04-26T11:25:07.999Z</time></trkpt><trkpt lat="45.93356825487245" lon="11.443354613999508"><ele>1135.0</ele><time>2026-04-26T11:25:08.999Z</time></trkpt><trkpt lat="45.93373956273594" lon="11.443385114716405"><ele>1135.0</ele><time>2026-04-26T11:25:09.999Z</time></trkpt><trkpt lat="45.93391631594079" lon="11.443376589682204"><ele>1135.0</ele><time>2026-04-26T11:25:10.999Z</time></trkpt><trkpt lat="45.934093687027925" lon="11.443286452915908"><ele>1135.0</ele><time>2026-04-26T11:25:11.999Z</time></trkpt><trkpt lat="45.93426465651941" lon="11.443154934505113"><ele>1133.3333333333333</ele><time>2026-04-26T11:25:12.999Z</time></trkpt><trkpt lat="45.934443358529485" lon="11.443002342402776"><ele>1131.6666666666667</ele><time>2026-04-26T11:25:13.999Z</time></trkpt><trkpt lat="45.934630673765625" lon="11.442868185691498"><ele>1130.0</ele><time>2026-04-26T11:25:14.999Z</time></trkpt><trkpt lat="45.93481909046263" lon="11.442738576412074"><ele>1130.0</ele><time>2026-04-26T11:25:15.999Z</time></trkpt><trkpt lat="45.935001666709276" lon="11.442607857348866"><ele>1130.0</ele><time>2026-04-26T11:25:16.999Z</time></trkpt><trkpt lat="45.93516772266105" lon="11.44246008837086"><ele>1130.0</ele><time>2026-04-26T11:25:17.999Z</time></trkpt><trkpt lat="45.935311730182626" lon="11.442284252273394"><ele>1129.0</ele><time>2026-04-26T11:25:18.999Z</time></trkpt><trkpt lat="45.9354329394836" lon="11.442064800199168"><ele>1128.0</ele><time>2026-04-26T11:25:19.999Z</time></trkpt><trkpt lat="45.93555892593423" lon="11.441849422495947"><ele>1127.0</ele><time>2026-04-26T11:25:20.998Z</time></trkpt><trkpt lat="45.93569922095022" lon="11.441642948904725"><ele>1127.0</ele><time>2026-04-26T11:25:21.998Z</time></trkpt><trkpt lat="45.93585504724161" lon="11.441471429128663"><ele>1127.0</ele><time>2026-04-26T11:25:22.998Z</time></trkpt><trkpt lat="45.936041876055754" lon="11.441379226784667"><ele>1127.0</ele><time>2026-04-26T11:25:23.998Z</time></trkpt><trkpt lat="45.93623421440976" lon="11.44131192825588"><ele>1130.3333333333335</ele><time>2026-04-26T11:25:24.998Z</time></trkpt><trkpt lat="45.93641937583758" lon="11.441261156938475"><ele>1133.6666666666667</ele><time>2026-04-26T11:25:25.998Z</time></trkpt><trkpt lat="45.93659161394776" lon="11.441195562386563"><ele>1137.0</ele><time>2026-04-26T11:25:26.998Z</time></trkpt><trkpt lat="45.936754747097474" lon="11.441109044330771"><ele>1140.3333333333333</ele><time>2026-04-26T11:25:27.998Z</time></trkpt><trkpt lat="45.936917941624365" lon="11.440995157345217"><ele>1143.6666666666665</ele><time>2026-04-26T11:25:28.998Z</time></trkpt><trkpt lat="45.937073142798724" lon="11.440860505849379"><ele>1147.0</ele><time>2026-04-26T11:25:29.998Z</time></trkpt><trkpt lat="45.93722900356238" lon="11.440701221375564"><ele>1147.0</ele><time>2026-04-26T11:25:30.998Z</time></trkpt><trkpt lat="45.93739445309274" lon="11.440535640943656"><ele>1147.0</ele><time>2026-04-26T11:25:31.998Z</time></trkpt><trkpt lat="45.93751331397488" lon="11.440416169879633"><ele>1147.0</ele><time>2026-04-26T11:25:32.998Z</time></trkpt><trkpt lat="45.9376057907791" lon="11.440341645697842"><ele>1144.0</ele><time>2026-04-26T11:25:33.998Z</time></trkpt><trkpt lat="45.9377148831951" lon="11.440243666321201"><ele>1141.0</ele><time>2026-04-26T11:25:34.998Z</time></trkpt><trkpt lat="45.93787587988983" lon="11.440073436783425"><ele>1138.0</ele><time>2026-04-26T11:25:35.998Z</time></trkpt><trkpt lat="45.93798301311338" lon="11.439953301844733"><ele>1138.0</ele><time>2026-04-26T11:25:36.998Z</time></trkpt><trkpt lat="45.938089909009754" lon="11.439845615235509"><ele>1138.0</ele><time>2026-04-26T11:25:37.998Z</time></trkpt><trkpt lat="45.93819643646332" lon="11.439729067222997"><ele>1138.0</ele><time>2026-04-26T11:25:38.998Z</time></trkpt><trkpt lat="45.93830537730664" lon="11.439604625351208"><ele>1138.0</ele><time>2026-04-26T11:25:39.998Z</time></trkpt><trkpt lat="45.93841318564491" lon="11.439467757227424"><ele>1139.0</ele><time>2026-04-26T11:25:40.998Z</time></trkpt><trkpt lat="45.93851949572548" lon="11.439319240958618"><ele>1140.0</ele><time>2026-04-26T11:25:41.998Z</time></trkpt><trkpt lat="45.9386304087484" lon="11.439160671959137"><ele>1141.0</ele><time>2026-04-26T11:25:42.998Z</time></trkpt><trkpt lat="45.93873997717372" lon="11.43900327756761"><ele>1141.0</ele><time>2026-04-26T11:25:43.998Z</time></trkpt><trkpt lat="45.93885128404265" lon="11.438841182862262"><ele>1141.0</ele><time>2026-04-26T11:25:44.998Z</time></trkpt><trkpt lat="45.93896203097814" lon="11.438691245760317"><ele>1141.0</ele><time>2026-04-26T11:25:45.998Z</time></trkpt><trkpt lat="45.939064683594424" lon="11.438553727762223"><ele>1140.3333333333333</ele><time>2026-04-26T11:25:46.998Z</time></trkpt><trkpt lat="45.93914845246854" lon="11.438502608678336"><ele>1139.6666666666667</ele><time>2026-04-26T11:25:47.998Z</time></trkpt><trkpt lat="45.93925357831989" lon="11.438422717896207"><ele>1139.0</ele><time>2026-04-26T11:25:48.998Z</time></trkpt><trkpt lat="45.93947698620633" lon="11.438183597085898"><ele>1138.6666666666667</ele><time>2026-04-26T11:25:49.998Z</time></trkpt><trkpt lat="45.939641086480584" lon="11.438058213970931"><ele>1138.3333333333333</ele><time>2026-04-26T11:25:50.998Z</time></trkpt><trkpt lat="45.9397832174621" lon="11.437941411833775"><ele>1138.0</ele><time>2026-04-26T11:25:51.998Z</time></trkpt><trkpt lat="45.939929069650326" lon="11.437810167524724"><ele>1140.6666666666665</ele><time>2026-04-26T11:25:52.998Z</time></trkpt><trkpt lat="45.940064954449" lon="11.437678046302686"><ele>1143.3333333333333</ele><time>2026-04-26T11:25:54Z</time></trkpt><trkpt lat="45.94020121779469" lon="11.43753747236915"><ele>1146.0</ele><time>2026-04-26T11:25:55Z</time></trkpt><trkpt lat="45.94032643591496" lon="11.437394445217826"><ele>1146.0</ele><time>2026-04-26T11:25:56Z</time></trkpt><trkpt lat="45.940450393702655" lon="11.43725352277213"><ele>1146.0</ele><time>2026-04-26T11:25:57Z</time></trkpt><trkpt lat="45.940575395010384" lon="11.437116520931092"><ele>1146.0</ele><time>2026-04-26T11:25:58Z</time></trkpt><trkpt lat="45.94069127454644" lon="11.436990668062878"><ele>1144.75</ele><time>2026-04-26T11:25:59Z</time></trkpt><trkpt lat="45.94080230461587" lon="11.43687331033409"><ele>1143.5</ele><time>2026-04-26T11:26:00Z</time></trkpt><trkpt lat="45.94091665680866" lon="11.436748988874394"><ele>1142.25</ele><time>2026-04-26T11:26:01Z</time></trkpt><trkpt lat="45.941034533137156" lon="11.436630555015363"><ele>1141.0</ele><time>2026-04-26T11:26:02Z</time></trkpt><trkpt lat="45.94115540864591" lon="11.436510391842765"><ele>1142.25</ele><time>2026-04-26T11:26:03Z</time></trkpt><trkpt lat="45.94128304200455" lon="11.436405663018897"><ele>1143.5</ele><time>2026-04-26T11:26:04Z</time></trkpt><trkpt lat="45.94141650344048" lon="11.436322302633824"><ele>1144.75</ele><time>2026-04-26T11:26:05Z</time></trkpt><trkpt lat="45.941557009015895" lon="11.436248550877984"><ele>1146.0</ele><time>2026-04-26T11:26:06Z</time></trkpt><trkpt lat="45.94169936749412" lon="11.436182301595403"><ele>1146.5</ele><time>2026-04-26T11:26:07Z</time></trkpt><trkpt lat="45.94184011799684" lon="11.436117533564092"><ele>1147.0</ele><time>2026-04-26T11:26:08Z</time></trkpt><trkpt lat="45.94198649108111" lon="11.436062705184508"><ele>1147.5</ele><time>2026-04-26T11:26:09Z</time></trkpt><trkpt lat="45.942129095405754" lon="11.436001384948247"><ele>1148.0</ele><time>2026-04-26T11:26:10Z</time></trkpt><trkpt lat="45.942259648425704" lon="11.43594699887189"><ele>1148.0</ele><time>2026-04-26T11:26:11Z</time></trkpt><trkpt lat="45.942389653784545" lon="11.435898742668494"><ele>1148.0</ele><time>2026-04-26T11:26:12Z</time></trkpt><trkpt lat="45.94252626408735" lon="11.43589865217945"><ele>1148.0</ele><time>2026-04-26T11:26:13Z</time></trkpt><trkpt lat="45.942657354058845" lon="11.435911214523072"><ele>1148.0</ele><time>2026-04-26T11:26:14Z</time></trkpt><trkpt lat="45.942771903719695" lon="11.435992487535335"><ele>1150.25</ele><time>2026-04-26T11:26:15Z</time></trkpt><trkpt lat="45.94288142130457" lon="11.436099356347055"><ele>1152.5</ele><time>2026-04-26T11:26:16Z</time></trkpt><trkpt lat="45.94299525491023" lon="11.436214917098827"><ele>1154.75</ele><time>2026-04-26T11:26:17Z</time></trkpt><trkpt lat="45.94312259568388" lon="11.436293188506367"><ele>1157.0</ele><time>2026-04-26T11:26:18Z</time></trkpt><trkpt lat="45.94326619435722" lon="11.436337191375888"><ele>1160.0</ele><time>2026-04-26T11:26:19Z</time></trkpt><trkpt lat="45.943427181173305" lon="11.436351659829526"><ele>1163.0</ele><time>2026-04-26T11:26:20Z</time></trkpt><trkpt lat="45.94360600326646" lon="11.436324299228549"><ele>1166.0</ele><time>2026-04-26T11:26:21Z</time></trkpt><trkpt lat="45.943808582050885" lon="11.436299211642112"><ele>1166.0</ele><time>2026-04-26T11:26:22Z</time></trkpt><trkpt lat="45.94403634199548" lon="11.436286587584982"><ele>1166.0</ele><time>2026-04-26T11:26:23Z</time></trkpt><trkpt lat="45.94428350433155" lon="11.436303033195795"><ele>1173.5</ele><time>2026-04-26T11:26:24Z</time></trkpt><trkpt lat="45.94452551936204" lon="11.436321580795875"><ele>1181.0</ele><time>2026-04-26T11:26:25Z</time></trkpt><trkpt lat="45.94474496368622" lon="11.436353827266268"><ele>1181.0</ele><time>2026-04-26T11:26:26Z</time></trkpt><trkpt lat="45.94494370833433" lon="11.436362036048726"><ele>1181.0</ele><time>2026-04-26T11:26:27Z</time></trkpt><trkpt lat="45.94513534790303" lon="11.436337719375006"><ele>1181.0</ele><time>2026-04-26T11:26:28Z</time></trkpt><trkpt lat="45.94532437612499" lon="11.436258299921109"><ele>1177.0</ele><time>2026-04-26T11:26:29Z</time></trkpt><trkpt lat="45.94551068327035" lon="11.436128715079573"><ele>1173.0</ele><time>2026-04-26T11:26:30Z</time></trkpt><trkpt lat="45.94568964729732" lon="11.435973683418256"><ele>1169.0</ele><time>2026-04-26T11:26:31Z</time></trkpt><trkpt lat="45.945871458455564" lon="11.43582233752609"><ele>1175.3333333333335</ele><time>2026-04-26T11:26:32Z</time></trkpt><trkpt lat="45.946046830908294" lon="11.435693765694458"><ele>1181.6666666666667</ele><time>2026-04-26T11:26:33Z</time></trkpt><trkpt lat="45.946222901392744" lon="11.435583406039038"><ele>1188.0</ele><time>2026-04-26T11:26:34Z</time></trkpt><trkpt lat="45.946381522866105" lon="11.435492751853454"><ele>1185.6666666666667</ele><time>2026-04-26T11:26:35Z</time></trkpt><trkpt lat="45.946532532875906" lon="11.43540241007838"><ele>1183.3333333333335</ele><time>2026-04-26T11:26:35.999Z</time></trkpt><trkpt lat="45.94666750223561" lon="11.435278977074505"><ele>1181.0</ele><time>2026-04-26T11:26:36.999Z</time></trkpt><trkpt lat="45.946784216778255" lon="11.435116175561634"><ele>1181.0</ele><time>2026-04-26T11:26:37.999Z</time></trkpt><trkpt lat="45.946884413643076" lon="11.434927601719737"><ele>1181.0</ele><time>2026-04-26T11:26:38.999Z</time></trkpt><trkpt lat="45.94698230569879" lon="11.434791949158543"><ele>1181.0</ele><time>2026-04-26T11:26:39.999Z</time></trkpt><trkpt lat="45.94709470427976" lon="11.434694739537678"><ele>1181.0</ele><time>2026-04-26T11:26:40.999Z</time></trkpt><trkpt lat="45.9472133211659" lon="11.434642399326572"><ele>1181.0</ele><time>2026-04-26T11:26:41.999Z</time></trkpt><trkpt lat="45.94733699580384" lon="11.434659452486562"><ele>1181.0</ele><time>2026-04-26T11:26:42.999Z</time></trkpt><trkpt lat="45.947462192818826" lon="11.434718110736267"><ele>1181.0</ele><time>2026-04-26T11:26:43.999Z</time></trkpt><trkpt lat="45.94757809053499" lon="11.434845362666591"><ele>1181.0</ele><time>2026-04-26T11:26:44.999Z</time></trkpt><trkpt lat="45.94768399620303" lon="11.434956582224093"><ele>1184.25</ele><time>2026-04-26T11:26:45.999Z</time></trkpt><trkpt lat="45.94779404761424" lon="11.435025535820586"><ele>1187.5</ele><time>2026-04-26T11:26:46.999Z</time></trkpt><trkpt lat="45.94792634943024" lon="11.435041693359201"><ele>1190.75</ele><time>2026-04-26T11:26:47.999Z</time></trkpt><trkpt lat="45.94806701158051" lon="11.435015400485852"><ele>1194.0</ele><time>2026-04-26T11:26:48.999Z</time></trkpt><trkpt lat="45.94819349108216" lon="11.434933729939816"><ele>1194.0</ele><time>2026-04-26T11:26:49.999Z</time></trkpt><trkpt lat="45.94830204412822" lon="11.434802780070289"><ele>1194.0</ele><time>2026-04-26T11:26:50.999Z</time></trkpt><trkpt lat="45.948395011998315" lon="11.434637799887179"><ele>1194.0</ele><time>2026-04-26T11:26:51.999Z</time></trkpt><trkpt lat="45.948456938755115" lon="11.434433455138079"><ele>1194.0</ele><time>2026-04-26T11:26:52.999Z</time></trkpt><trkpt lat="45.948490962983634" lon="11.43421551393801"><ele>1197.0</ele><time>2026-04-26T11:26:53.999Z</time></trkpt><trkpt lat="45.948510891451335" lon="11.433999227211029"><ele>1200.0</ele><time>2026-04-26T11:26:54.999Z</time></trkpt><trkpt lat="45.94854521825091" lon="11.43379422254507"><ele>1203.0</ele><time>2026-04-26T11:26:55.999Z</time></trkpt><trkpt lat="45.94861361814364" lon="11.433621890153066"><ele>1206.0</ele><time>2026-04-26T11:26:56.999Z</time></trkpt><trkpt lat="45.948719028963524" lon="11.433476873112392"><ele>1197.6666666666667</ele><time>2026-04-26T11:26:57.999Z</time></trkpt><trkpt lat="45.948848604274325" lon="11.433357678705145"><ele>1189.3333333333335</ele><time>2026-04-26T11:26:58.999Z</time></trkpt><trkpt lat="45.94899495042941" lon="11.43325490798395"><ele>1181.0</ele><time>2026-04-26T11:26:59.999Z</time></trkpt><trkpt lat="45.949150991823096" lon="11.433172446629241"><ele>1181.6666666666667</ele><time>2026-04-26T11:27:00.999Z</time></trkpt><trkpt lat="45.94930650598127" lon="11.43308705272098"><ele>1182.3333333333333</ele><time>2026-04-26T11:27:01.999Z</time></trkpt><trkpt lat="45.94945398799236" lon="11.432963593455893"><ele>1183.0</ele><time>2026-04-26T11:27:02.999Z</time></trkpt><trkpt lat="45.94958822322571" lon="11.432823585010988"><ele>1183.0</ele><time>2026-04-26T11:27:03.999Z</time></trkpt><trkpt lat="45.94971701616732" lon="11.432678524391145"><ele>1183.0</ele><time>2026-04-26T11:27:04.999Z</time></trkpt><trkpt lat="45.94984165382684" lon="11.432535190229338"><ele>1183.0</ele><time>2026-04-26T11:27:05.999Z</time></trkpt><trkpt lat="45.949958246361376" lon="11.432394682728752"><ele>1183.0</ele><time>2026-04-26T11:27:06.999Z</time></trkpt><trkpt lat="45.950029270081586" lon="11.432225799990798"><ele>1183.0</ele><time>2026-04-26T11:27:07.999Z</time></trkpt><trkpt lat="45.95008395596668" lon="11.432039190344778"><ele>1183.0</ele><time>2026-04-26T11:27:08.999Z</time></trkpt><trkpt lat="45.950112434721284" lon="11.431838478153686"><ele>1183.0</ele><time>2026-04-26T11:27:09.999Z</time></trkpt><trkpt lat="45.950132389596575" lon="11.431663874055452"><ele>1185.75</ele><time>2026-04-26T11:27:10.999Z</time></trkpt><trkpt lat="45.95010931788807" lon="11.43149538243026"><ele>1188.5</ele><time>2026-04-26T11:27:11.999Z</time></trkpt><trkpt lat="45.95005015493311" lon="11.431329364831152"><ele>1191.25</ele><time>2026-04-26T11:27:12.999Z</time></trkpt><trkpt lat="45.949950699153455" lon="11.43117928978647"><ele>1194.0</ele><time>2026-04-26T11:27:13.999Z</time></trkpt><trkpt lat="45.9498228156253" lon="11.431071318334546"><ele>1194.0</ele><time>2026-04-26T11:27:14.999Z</time></trkpt><trkpt lat="45.949701237584264" lon="11.430989348617963"><ele>1194.0</ele><time>2026-04-26T11:27:15.999Z</time></trkpt><trkpt lat="45.949592569322746" lon="11.430894636907885"><ele>1194.0</ele><time>2026-04-26T11:27:16.999Z</time></trkpt><trkpt lat="45.94950325163097" lon="11.430773507429617"><ele>1194.0</ele><time>2026-04-26T11:27:17.999Z</time></trkpt><trkpt lat="45.949444491999685" lon="11.4306121035039"><ele>1193.25</ele><time>2026-04-26T11:27:18.998Z</time></trkpt><trkpt lat="45.949406929015396" lon="11.43043403095774"><ele>1192.5</ele><time>2026-04-26T11:27:19.998Z</time></trkpt><trkpt lat="45.9494127091265" lon="11.430252245042423"><ele>1191.75</ele><time>2026-04-26T11:27:20.998Z</time></trkpt><trkpt lat="45.94945442275644" lon="11.430066691472893"><ele>1191.0</ele><time>2026-04-26T11:27:21.998Z</time></trkpt><trkpt lat="45.94950009637481" lon="11.429871381029463"><ele>1191.0</ele><time>2026-04-26T11:27:22.998Z</time></trkpt><trkpt lat="45.949541459023045" lon="11.42965870777782"><ele>1191.0</ele><time>2026-04-26T11:27:23.998Z</time></trkpt><trkpt lat="45.94957854485473" lon="11.429423527649536"><ele>1191.0</ele><time>2026-04-26T11:27:24.998Z</time></trkpt><trkpt lat="45.94960955383078" lon="11.429202154628017"><ele>1193.6666666666667</ele><time>2026-04-26T11:27:25.998Z</time></trkpt><trkpt lat="45.94965078143915" lon="11.428977368901236"><ele>1196.3333333333335</ele><time>2026-04-26T11:27:26.998Z</time></trkpt><trkpt lat="45.949689134121" lon="11.428768512904266"><ele>1199.0</ele><time>2026-04-26T11:27:27.998Z</time></trkpt><trkpt lat="45.94972983351398" lon="11.428566780858512"><ele>1199.0</ele><time>2026-04-26T11:27:28.998Z</time></trkpt><trkpt lat="45.949797004177384" lon="11.428346667395452"><ele>1199.0</ele><time>2026-04-26T11:27:29.998Z</time></trkpt><trkpt lat="45.9498967140875" lon="11.428193259065893"><ele>1199.0</ele><time>2026-04-26T11:27:30.998Z</time></trkpt><trkpt lat="45.95001776720499" lon="11.428032943136394"><ele>1204.6666666666667</ele><time>2026-04-26T11:27:31.998Z</time></trkpt><trkpt lat="45.950147817745915" lon="11.427863051022188"><ele>1210.3333333333333</ele><time>2026-04-26T11:27:32.998Z</time></trkpt><trkpt lat="45.95027359482329" lon="11.427676271499116"><ele>1216.0</ele><time>2026-04-26T11:27:33.998Z</time></trkpt><trkpt lat="45.95039532827947" lon="11.427503827667406"><ele>1216.0</ele><time>2026-04-26T11:27:34.998Z</time></trkpt><trkpt lat="45.95050382671333" lon="11.427349485682269"><ele>1216.0</ele><time>2026-04-26T11:27:35.998Z</time></trkpt><trkpt lat="45.95058252030119" lon="11.427170659823338"><ele>1216.0</ele><time>2026-04-26T11:27:36.998Z</time></trkpt><trkpt lat="45.95065086505739" lon="11.426987026228842"><ele>1216.0</ele><time>2026-04-26T11:27:37.998Z</time></trkpt><trkpt lat="45.950669451656445" lon="11.426780827303107"><ele>1213.6666666666665</ele><time>2026-04-26T11:27:38.998Z</time></trkpt><trkpt lat="45.950657168824655" lon="11.42655986598591"><ele>1211.3333333333333</ele><time>2026-04-26T11:27:39.998Z</time></trkpt><trkpt lat="45.95064160979447" lon="11.42631646258158"><ele>1209.0</ele><time>2026-04-26T11:27:40.998Z</time></trkpt><trkpt lat="45.9506282248526" lon="11.426052647974823"><ele>1206.3333333333333</ele><time>2026-04-26T11:27:41.998Z</time></trkpt><trkpt lat="45.95061339466205" lon="11.425767457930503"><ele>1203.6666666666665</ele><time>2026-04-26T11:27:42.998Z</time></trkpt><trkpt lat="45.95060264626467" lon="11.425470310693829"><ele>1201.0</ele><time>2026-04-26T11:27:43.998Z</time></trkpt><trkpt lat="45.95059118396225" lon="11.425185273875693"><ele>1200.3333333333333</ele><time>2026-04-26T11:27:44.998Z</time></trkpt><trkpt lat="45.95057369870162" lon="11.424922841442593"><ele>1199.6666666666667</ele><time>2026-04-26T11:27:45.998Z</time></trkpt><trkpt lat="45.950567890646" lon="11.424674890444216"><ele>1199.0</ele><time>2026-04-26T11:27:46.998Z</time></trkpt><trkpt lat="45.95054800398919" lon="11.424454493732252"><ele>1202.0</ele><time>2026-04-26T11:27:47.998Z</time></trkpt><trkpt lat="45.950503148213656" lon="11.424268960421374"><ele>1205.0</ele><time>2026-04-26T11:27:48.998Z</time></trkpt><trkpt lat="45.950415673441356" lon="11.424124965818699"><ele>1208.0</ele><time>2026-04-26T11:27:49.998Z</time></trkpt><trkpt lat="45.950293289642204" lon="11.42401654458176"><ele>1211.0</ele><time>2026-04-26T11:27:50.998Z</time></trkpt><trkpt lat="45.95017211454864" lon="11.423924975665724"><ele>1211.0</ele><time>2026-04-26T11:27:51.998Z</time></trkpt><trkpt lat="45.950088424761695" lon="11.42381748438014"><ele>1211.0</ele><time>2026-04-26T11:27:52.998Z</time></trkpt><trkpt lat="45.95005198291613" lon="11.42368567510844"><ele>1211.0</ele><time>2026-04-26T11:27:53.998Z</time></trkpt><trkpt lat="45.950050558519216" lon="11.423531279156435"><ele>1211.0</ele><time>2026-04-26T11:27:54.998Z</time></trkpt><trkpt lat="45.95008683335684" lon="11.423376977437202"><ele>1211.0</ele><time>2026-04-26T11:27:55.998Z</time></trkpt><trkpt lat="45.950155160156335" lon="11.42322381733877"><ele>1214.25</ele><time>2026-04-26T11:27:56.998Z</time></trkpt><trkpt lat="45.95023171849981" lon="11.423061853478348"><ele>1217.5</ele><time>2026-04-26T11:27:57.998Z</time></trkpt><trkpt lat="45.95030540480287" lon="11.42288161611753"><ele>1220.75</ele><time>2026-04-26T11:27:59Z</time></trkpt><trkpt lat="45.95037276973051" lon="11.422698225195763"><ele>1224.0</ele><time>2026-04-26T11:28:00Z</time></trkpt><trkpt lat="45.95046057249684" lon="11.42253567338312"><ele>1224.0</ele><time>2026-04-26T11:28:01Z</time></trkpt><trkpt lat="45.95051957453669" lon="11.422378778652595"><ele>1224.0</ele><time>2026-04-26T11:28:02Z</time></trkpt><trkpt lat="45.95056315416155" lon="11.42222138519188"><ele>1224.0</ele><time>2026-04-26T11:28:03Z</time></trkpt><trkpt lat="45.95058528104954" lon="11.422050407093803"><ele>1224.0</ele><time>2026-04-26T11:28:04Z</time></trkpt><trkpt lat="45.95056166234081" lon="11.421862077492186"><ele>1223.0</ele><time>2026-04-26T11:28:05Z</time></trkpt><trkpt lat="45.95051515955873" lon="11.42167591318563"><ele>1222.0</ele><time>2026-04-26T11:28:06Z</time></trkpt><trkpt lat="45.95045536287218" lon="11.4215082014615"><ele>1221.0</ele><time>2026-04-26T11:28:07Z</time></trkpt><trkpt lat="45.9503977864134" lon="11.421352399416406"><ele>1220.0</ele><time>2026-04-26T11:28:08Z</time></trkpt><trkpt lat="45.950353592867906" lon="11.421206502005287"><ele>1218.6666666666667</ele><time>2026-04-26T11:28:09Z</time></trkpt><trkpt lat="45.9503421382902" lon="11.421074533655862"><ele>1217.3333333333335</ele><time>2026-04-26T11:28:10Z</time></trkpt><trkpt lat="45.95035624228925" lon="11.420957292186445"><ele>1216.0</ele><time>2026-04-26T11:28:11Z</time></trkpt><trkpt lat="45.95040159895641" lon="11.420852265612004"><ele>1214.6666666666667</ele><time>2026-04-26T11:28:12Z</time></trkpt><trkpt lat="45.95047661188234" lon="11.420784903591521"><ele>1213.3333333333333</ele><time>2026-04-26T11:28:13Z</time></trkpt><trkpt lat="45.95056425124723" lon="11.420762393321905"><ele>1212.0</ele><time>2026-04-26T11:28:14Z</time></trkpt><trkpt lat="45.950661088340574" lon="11.420781488801087"><ele>1212.0</ele><time>2026-04-26T11:28:15Z</time></trkpt><trkpt lat="45.95077104149456" lon="11.420786894290858"><ele>1212.0</ele><time>2026-04-26T11:28:16Z</time></trkpt><trkpt lat="45.950903099428785" lon="11.420772099846761"><ele>1212.0</ele><time>2026-04-26T11:28:17Z</time></trkpt><trkpt lat="45.951054655205276" lon="11.42076233395139"><ele>1212.0</ele><time>2026-04-26T11:28:18Z</time></trkpt><trkpt lat="45.95121276540985" lon="11.420772114983022"><ele>1217.0</ele><time>2026-04-26T11:28:19Z</time></trkpt><trkpt lat="45.95137037293538" lon="11.42077511451956"><ele>1222.0</ele><time>2026-04-26T11:28:20Z</time></trkpt><trkpt lat="45.95151297756238" lon="11.420727629868981"><ele>1227.0</ele><time>2026-04-26T11:28:21Z</time></trkpt><trkpt lat="45.95165716189645" lon="11.420599124153267"><ele>1240.0</ele><time>2026-04-26T11:28:22Z</time></trkpt><trkpt lat="45.95177438355727" lon="11.420433691827547"><ele>1253.0</ele><time>2026-04-26T11:28:23Z</time></trkpt><trkpt lat="45.95185460815703" lon="11.420250879987528"><ele>1266.0</ele><time>2026-04-26T11:28:24Z</time></trkpt><trkpt lat="45.95189721657277" lon="11.420052499026964"><ele>1266.0</ele><time>2026-04-26T11:28:25Z</time></trkpt><trkpt lat="45.95189213833357" lon="11.419827520436284"><ele>1266.0</ele><time>2026-04-26T11:28:26Z</time></trkpt><trkpt lat="45.951838748159815" lon="11.419620134310177"><ele>1266.0</ele><time>2026-04-26T11:28:27Z</time></trkpt><trkpt lat="45.95174973505641" lon="11.41942783951597"><ele>1254.6666666666667</ele><time>2026-04-26T11:28:28Z</time></trkpt><trkpt lat="45.95163116236328" lon="11.41924946546129"><ele>1243.3333333333335</ele><time>2026-04-26T11:28:29Z</time></trkpt><trkpt lat="45.95151197299915" lon="11.419073269988074"><ele>1232.0</ele><time>2026-04-26T11:28:30Z</time></trkpt><trkpt lat="45.95140030451636" lon="11.418877335429704"><ele>1233.6666666666667</ele><time>2026-04-26T11:28:31Z</time></trkpt><trkpt lat="45.95130208761304" lon="11.418702208802843"><ele>1235.3333333333333</ele><time>2026-04-26T11:28:32Z</time></trkpt><trkpt lat="45.951209326398235" lon="11.418534026610095"><ele>1237.0</ele><time>2026-04-26T11:28:33Z</time></trkpt><trkpt lat="45.951129703276834" lon="11.418359804320907"><ele>1237.0</ele><time>2026-04-26T11:28:33.999Z</time></trkpt><trkpt lat="45.95108277034817" lon="11.418157654133584"><ele>1237.0</ele><time>2026-04-26T11:28:34.999Z</time></trkpt><trkpt lat="45.95106488621067" lon="11.4179520254774"><ele>1237.0</ele><time>2026-04-26T11:28:35.999Z</time></trkpt><trkpt lat="45.951083174585925" lon="11.417732343229323"><ele>1237.0</ele><time>2026-04-26T11:28:36.999Z</time></trkpt><trkpt lat="45.95111253801153" lon="11.417537438972232"><ele>1237.5</ele><time>2026-04-26T11:28:37.999Z</time></trkpt><trkpt lat="45.95114894459282" lon="11.417389007504376"><ele>1238.0</ele><time>2026-04-26T11:28:38.999Z</time></trkpt><trkpt lat="45.95120054843254" lon="11.417250043318626"><ele>1238.5</ele><time>2026-04-26T11:28:39.999Z</time></trkpt><trkpt lat="45.95129494335347" lon="11.417125181629919"><ele>1239.0</ele><time>2026-04-26T11:28:40.999Z</time></trkpt><trkpt lat="45.95141270719904" lon="11.417009469495191"><ele>1239.0</ele><time>2026-04-26T11:28:41.999Z</time></trkpt><trkpt lat="45.951540223964905" lon="11.41688898046071"><ele>1239.0</ele><time>2026-04-26T11:28:42.999Z</time></trkpt><trkpt lat="45.95165145536759" lon="11.416760199411627"><ele>1239.0</ele><time>2026-04-26T11:28:43.999Z</time></trkpt><trkpt lat="45.951728488215444" lon="11.416613342428821"><ele>1239.0</ele><time>2026-04-26T11:28:44.999Z</time></trkpt><trkpt lat="45.95176126002728" lon="11.416430357621671"><ele>1241.0</ele><time>2026-04-26T11:28:45.999Z</time></trkpt><trkpt lat="45.95173703072287" lon="11.416218850935206"><ele>1243.0</ele><time>2026-04-26T11:28:46.999Z</time></trkpt><trkpt lat="45.95167345991505" lon="11.416012780598093"><ele>1245.0</ele><time>2026-04-26T11:28:47.999Z</time></trkpt><trkpt lat="45.95156912372353" lon="11.41582341355158"><ele>1245.0</ele><time>2026-04-26T11:28:48.999Z</time></trkpt><trkpt lat="45.95143216295913" lon="11.41563282427121"><ele>1245.0</ele><time>2026-04-26T11:28:49.999Z</time></trkpt><trkpt lat="45.951281627860354" lon="11.415438588439931"><ele>1245.0</ele><time>2026-04-26T11:28:50.999Z</time></trkpt><trkpt lat="45.951121751302075" lon="11.415229395881223"><ele>1246.0</ele><time>2026-04-26T11:28:51.999Z</time></trkpt><trkpt lat="45.95095639875131" lon="11.41499880474004"><ele>1247.0</ele><time>2026-04-26T11:28:52.999Z</time></trkpt><trkpt lat="45.950780111892875" lon="11.41474981321299"><ele>1251.5</ele><time>2026-04-26T11:28:53.999Z</time></trkpt><trkpt lat="45.950598615722456" lon="11.41448183717392"><ele>1256.0</ele><time>2026-04-26T11:28:54.999Z</time></trkpt><trkpt lat="45.95039558722036" lon="11.414209642209634"><ele>1256.0</ele><time>2026-04-26T11:28:55.999Z</time></trkpt><trkpt lat="45.95019698515223" lon="11.413931543881098"><ele>1256.0</ele><time>2026-04-26T11:28:56.999Z</time></trkpt><trkpt lat="45.949994592775695" lon="11.41365394599698"><ele>1252.5</ele><time>2026-04-26T11:28:57.999Z</time></trkpt><trkpt lat="45.949785402669576" lon="11.413392124695909"><ele>1249.0</ele><time>2026-04-26T11:28:58.999Z</time></trkpt><trkpt lat="45.94959623254881" lon="11.413118152535073"><ele>1261.5</ele><time>2026-04-26T11:28:59.999Z</time></trkpt><trkpt lat="45.94943196260339" lon="11.412856450851029"><ele>1274.0</ele><time>2026-04-26T11:29:00.999Z</time></trkpt><trkpt lat="45.94927796801135" lon="11.412614030967541"><ele>1270.6666666666667</ele><time>2026-04-26T11:29:01.999Z</time></trkpt><trkpt lat="45.949121531095514" lon="11.412400963516646"><ele>1267.3333333333333</ele><time>2026-04-26T11:29:02.999Z</time></trkpt><trkpt lat="45.94897816584951" lon="11.41218976012461"><ele>1264.0</ele><time>2026-04-26T11:29:03.999Z</time></trkpt><trkpt lat="45.948852402102055" lon="11.411947360644175"><ele>1264.0</ele><time>2026-04-26T11:29:04.999Z</time></trkpt><trkpt lat="45.94873923468091" lon="11.411687281896048"><ele>1264.0</ele><time>2026-04-26T11:29:05.999Z</time></trkpt><trkpt lat="45.9486257498567" lon="11.411424281996075"><ele>1264.0</ele><time>2026-04-26T11:29:06.999Z</time></trkpt><trkpt lat="45.94849192156477" lon="11.411165069694551"><ele>1258.0</ele><time>2026-04-26T11:29:07.999Z</time></trkpt><trkpt lat="45.948345648217504" lon="11.410902923699126"><ele>1252.0</ele><time>2026-04-26T11:29:08.999Z</time></trkpt><trkpt lat="45.948185407254854" lon="11.41064200256592"><ele>1264.0</ele><time>2026-04-26T11:29:09.999Z</time></trkpt><trkpt lat="45.94801567074752" lon="11.410401924887264"><ele>1276.0</ele><time>2026-04-26T11:29:10.999Z</time></trkpt><trkpt lat="45.94784751731706" lon="11.410173319091523"><ele>1276.0</ele><time>2026-04-26T11:29:11.999Z</time></trkpt><trkpt lat="45.94768381234089" lon="11.409940612085133"><ele>1276.0</ele><time>2026-04-26T11:29:12.999Z</time></trkpt><trkpt lat="45.947530641320306" lon="11.409722725104773"><ele>1276.0</ele><time>2026-04-26T11:29:13.999Z</time></trkpt><trkpt lat="45.94738899038287" lon="11.409517917217311"><ele>1273.3333333333333</ele><time>2026-04-26T11:29:14.999Z</time></trkpt><trkpt lat="45.94725565695836" lon="11.409339466872602"><ele>1270.6666666666667</ele><time>2026-04-26T11:29:15.999Z</time></trkpt><trkpt lat="45.94710812560528" lon="11.40918858939655"><ele>1268.0</ele><time>2026-04-26T11:29:16.999Z</time></trkpt><trkpt lat="45.94693926615947" lon="11.409093765595168"><ele>1268.0</ele><time>2026-04-26T11:29:17.998Z</time></trkpt><trkpt lat="45.946767498976726" lon="11.409035474854088"><ele>1268.0</ele><time>2026-04-26T11:29:18.998Z</time></trkpt><trkpt lat="45.94660483083737" lon="11.408979370384973"><ele>1268.0</ele><time>2026-04-26T11:29:19.998Z</time></trkpt><trkpt lat="45.94645022184642" lon="11.408911081154928"><ele>1267.5</ele><time>2026-04-26T11:29:20.998Z</time></trkpt><trkpt lat="45.946308374881276" lon="11.408831261624716"><ele>1267.0</ele><time>2026-04-26T11:29:21.998Z</time></trkpt><trkpt lat="45.94618942133834" lon="11.408734442538115"><ele>1266.5</ele><time>2026-04-26T11:29:22.998Z</time></trkpt><trkpt lat="45.94609961999884" lon="11.408615158655957"><ele>1266.0</ele><time>2026-04-26T11:29:23.998Z</time></trkpt><trkpt lat="45.946023980206945" lon="11.408459119570919"><ele>1266.0</ele><time>2026-04-26T11:29:24.998Z</time></trkpt><trkpt lat="45.945948493090974" lon="11.408286206658323"><ele>1266.0</ele><time>2026-04-26T11:29:25.998Z</time></trkpt><trkpt lat="45.94587163743316" lon="11.40808712490006"><ele>1266.0</ele><time>2026-04-26T11:29:26.998Z</time></trkpt><trkpt lat="45.94579381855542" lon="11.407862402496779"><ele>1265.6666666666667</ele><time>2026-04-26T11:29:27.998Z</time></trkpt><trkpt lat="45.9457286822998" lon="11.40761881138019"><ele>1265.3333333333335</ele><time>2026-04-26T11:29:28.998Z</time></trkpt><trkpt lat="45.94566163518005" lon="11.407357306557923"><ele>1265.0</ele><time>2026-04-26T11:29:29.998Z</time></trkpt><trkpt lat="45.94559024939748" lon="11.407077971418396"><ele>1266.0</ele><time>2026-04-26T11:29:30.998Z</time></trkpt><trkpt lat="45.94553380078204" lon="11.406792436840883"><ele>1267.0</ele><time>2026-04-26T11:29:31.998Z</time></trkpt><trkpt lat="45.945484629271185" lon="11.406492856840059"><ele>1268.0</ele><time>2026-04-26T11:29:32.998Z</time></trkpt><trkpt lat="45.94543599885392" lon="11.406193145058223"><ele>1271.0</ele><time>2026-04-26T11:29:33.998Z</time></trkpt><trkpt lat="45.94538351133904" lon="11.405896472948355"><ele>1274.0</ele><time>2026-04-26T11:29:34.998Z</time></trkpt><trkpt lat="45.945314612458105" lon="11.405615486565736"><ele>1277.0</ele><time>2026-04-26T11:29:35.998Z</time></trkpt><trkpt lat="45.94522776178631" lon="11.405338201271118"><ele>1277.3333333333335</ele><time>2026-04-26T11:29:36.998Z</time></trkpt><trkpt lat="45.94513257179414" lon="11.40508345965009"><ele>1277.6666666666667</ele><time>2026-04-26T11:29:37.998Z</time></trkpt><trkpt lat="45.94502010949583" lon="11.404849225326373"><ele>1278.0</ele><time>2026-04-26T11:29:38.998Z</time></trkpt><trkpt lat="45.94488967573275" lon="11.40464360492636"><ele>1278.0</ele><time>2026-04-26T11:29:39.998Z</time></trkpt><trkpt lat="45.94475750278765" lon="11.40442933970974"><ele>1278.0</ele><time>2026-04-26T11:29:40.998Z</time></trkpt><trkpt lat="45.944634014183336" lon="11.404207609864851"><ele>1278.0</ele><time>2026-04-26T11:29:41.998Z</time></trkpt><trkpt lat="45.94451920455584" lon="11.40399666085167"><ele>1284.3333333333333</ele><time>2026-04-26T11:29:42.998Z</time></trkpt><trkpt lat="45.94441675141956" lon="11.403783071627522"><ele>1290.6666666666665</ele><time>2026-04-26T11:29:43.998Z</time></trkpt><trkpt lat="45.94434018049138" lon="11.403552546368756"><ele>1297.0</ele><time>2026-04-26T11:29:44.998Z</time></trkpt><trkpt lat="45.94428492551536" lon="11.403300173988097"><ele>1297.0</ele><time>2026-04-26T11:29:45.998Z</time></trkpt><trkpt lat="45.94424369712226" lon="11.403039220739497"><ele>1297.0</ele><time>2026-04-26T11:29:46.998Z</time></trkpt><trkpt lat="45.94422458161827" lon="11.402788395784224"><ele>1297.0</ele><time>2026-04-26T11:29:47.998Z</time></trkpt><trkpt lat="45.94423379633211" lon="11.402558280122356"><ele>1301.6666666666665</ele><time>2026-04-26T11:29:48.998Z</time></trkpt><trkpt lat="45.94426095388662" lon="11.402324022609461"><ele>1306.3333333333333</ele><time>2026-04-26T11:29:49.998Z</time></trkpt><trkpt lat="45.94431919021523" lon="11.402086966977842"><ele>1311.0</ele><time>2026-04-26T11:29:50.998Z</time></trkpt><trkpt lat="45.944386411739444" lon="11.40182846734941"><ele>1311.0</ele><time>2026-04-26T11:29:51.998Z</time></trkpt><trkpt lat="45.94444306956512" lon="11.40157840349213"><ele>1311.0</ele><time>2026-04-26T11:29:52.998Z</time></trkpt><trkpt lat="45.944497437977056" lon="11.401305592786219"><ele>1311.0</ele><time>2026-04-26T11:29:53.998Z</time></trkpt><trkpt lat="45.94455479537716" lon="11.401035917301424"><ele>1306.3333333333333</ele><time>2026-04-26T11:29:54.998Z</time></trkpt><trkpt lat="45.94461936067231" lon="11.400757670833542"><ele>1301.6666666666665</ele><time>2026-04-26T11:29:55.998Z</time></trkpt><trkpt lat="45.94470637443178" lon="11.400469784971216"><ele>1297.0</ele><time>2026-04-26T11:29:56.998Z</time></trkpt><trkpt lat="45.94482318966266" lon="11.400192496601681"><ele>1297.0</ele><time>2026-04-26T11:29:57.998Z</time></trkpt><trkpt lat="45.94494458404533" lon="11.399916990496717"><ele>1297.0</ele><time>2026-04-26T11:29:58.998Z</time></trkpt><trkpt lat="45.945057284436295" lon="11.399656990996215"><ele>1297.0</ele><time>2026-04-26T11:29:59.998Z</time></trkpt><trkpt lat="45.94515621945754" lon="11.39941397402393"><ele>1297.0</ele><time>2026-04-26T11:30:00.998Z</time></trkpt><trkpt lat="45.94525293918074" lon="11.399192434180605"><ele>1297.0</ele><time>2026-04-26T11:30:01.997Z</time></trkpt><trkpt lat="45.94537426470937" lon="11.398991801805172"><ele>1297.0</ele><time>2026-04-26T11:30:02.997Z</time></trkpt><trkpt lat="45.94552461352355" lon="11.398808590807624"><ele>1298.0</ele><time>2026-04-26T11:30:03.997Z</time></trkpt><trkpt lat="45.945707090646906" lon="11.398643556616333"><ele>1299.0</ele><time>2026-04-26T11:30:05Z</time></trkpt><trkpt lat="45.94588873315705" lon="11.398475926178303"><ele>1300.0</ele><time>2026-04-26T11:30:06Z</time></trkpt><trkpt lat="45.946055258077" lon="11.398299544548584"><ele>1300.0</ele><time>2026-04-26T11:30:07Z</time></trkpt><trkpt lat="45.94622091882791" lon="11.39813764495878"><ele>1300.0</ele><time>2026-04-26T11:30:08Z</time></trkpt><trkpt lat="45.94639712372286" lon="11.397996304707071"><ele>1300.0</ele><time>2026-04-26T11:30:09Z</time></trkpt><trkpt lat="45.94658466107118" lon="11.397877743865106"><ele>1300.0</ele><time>2026-04-26T11:30:10Z</time></trkpt><trkpt lat="45.94678016760743" lon="11.397758921889329"><ele>1300.0</ele><time>2026-04-26T11:30:11Z</time></trkpt><trkpt lat="45.94697680508463" lon="11.397630215522803"><ele>1300.0</ele><time>2026-04-26T11:30:12Z</time></trkpt><trkpt lat="45.94717332260983" lon="11.397485449973452"><ele>1300.0</ele><time>2026-04-26T11:30:13Z</time></trkpt><trkpt lat="45.94735899319555" lon="11.397295031352506"><ele>1300.0</ele><time>2026-04-26T11:30:14Z</time></trkpt><trkpt lat="45.947526314420195" lon="11.397076702270908"><ele>1302.3333333333333</ele><time>2026-04-26T11:30:15Z</time></trkpt><trkpt lat="45.94768155110483" lon="11.396853256063023"><ele>1304.6666666666667</ele><time>2026-04-26T11:30:16Z</time></trkpt><trkpt lat="45.947833974293175" lon="11.396630664891083"><ele>1307.0</ele><time>2026-04-26T11:30:17Z</time></trkpt><trkpt lat="45.947966687126566" lon="11.396382822112589"><ele>1301.0</ele><time>2026-04-26T11:30:18Z</time></trkpt><trkpt lat="45.948074814732166" lon="11.396094864273653"><ele>1295.0</ele><time>2026-04-26T11:30:19Z</time></trkpt><trkpt lat="45.94817511572772" lon="11.395799296819419"><ele>1295.0</ele><time>2026-04-26T11:30:20Z</time></trkpt><trkpt lat="45.94829471163965" lon="11.395531542684246"><ele>1295.0</ele><time>2026-04-26T11:30:21Z</time></trkpt><trkpt lat="45.94842364868054" lon="11.395277654152974"><ele>1295.0</ele><time>2026-04-26T11:30:22Z</time></trkpt><trkpt lat="45.948561124000385" lon="11.395048644201559"><ele>1293.6666666666667</ele><time>2026-04-26T11:30:23Z</time></trkpt><trkpt lat="45.94872632677027" lon="11.39484822825249"><ele>1292.3333333333333</ele><time>2026-04-26T11:30:24Z</time></trkpt><trkpt lat="45.94890791027643" lon="11.394674214076094"><ele>1291.0</ele><time>2026-04-26T11:30:25Z</time></trkpt><trkpt lat="45.94908751326355" lon="11.394514486817709"><ele>1293.0</ele><time>2026-04-26T11:30:26Z</time></trkpt><trkpt lat="45.94927671902896" lon="11.394378177739796"><ele>1295.0</ele><time>2026-04-26T11:30:27Z</time></trkpt><trkpt lat="45.94945134012841" lon="11.39423313422964"><ele>1297.0</ele><time>2026-04-26T11:30:28Z</time></trkpt><trkpt lat="45.949634072558084" lon="11.394132914924134"><ele>1297.0</ele><time>2026-04-26T11:30:29Z</time></trkpt><trkpt lat="45.94980741394324" lon="11.39407124407519"><ele>1297.0</ele><time>2026-04-26T11:30:30Z</time></trkpt><trkpt lat="45.949967329357875" lon="11.394036963362028"><ele>1297.0</ele><time>2026-04-26T11:30:31Z</time></trkpt><trkpt lat="45.95010789447092" lon="11.393991242111083"><ele>1300.25</ele><time>2026-04-26T11:30:32Z</time></trkpt><trkpt lat="45.95022306918335" lon="11.393933605420052"><ele>1303.5</ele><time>2026-04-26T11:30:33Z</time></trkpt><trkpt lat="45.95030547100138" lon="11.393845656661654"><ele>1306.75</ele><time>2026-04-26T11:30:34Z</time></trkpt><trkpt lat="45.95034773600538" lon="11.393688045773636"><ele>1310.0</ele><time>2026-04-26T11:30:35Z</time></trkpt><trkpt lat="45.950363422785294" lon="11.393499203339152"><ele>1310.0</ele><time>2026-04-26T11:30:36Z</time></trkpt><trkpt lat="45.95036535190354" lon="11.393285249401124"><ele>1310.0</ele><time>2026-04-26T11:30:36.999Z</time></trkpt><trkpt lat="45.95035607212532" lon="11.39304236156881"><ele>1310.0</ele><time>2026-04-26T11:30:37.999Z</time></trkpt><trkpt lat="45.950351241492264" lon="11.392797689062622"><ele>1310.3333333333335</ele><time>2026-04-26T11:30:38.999Z</time></trkpt><trkpt lat="45.95036110898677" lon="11.392544418374891"><ele>1310.6666666666667</ele><time>2026-04-26T11:30:39.999Z</time></trkpt><trkpt lat="45.95038639315944" lon="11.392300588175372"><ele>1311.0</ele><time>2026-04-26T11:30:40.999Z</time></trkpt><trkpt lat="45.95044083668443" lon="11.39207486478791"><ele>1308.3333333333333</ele><time>2026-04-26T11:30:41.999Z</time></trkpt><trkpt lat="45.95053811001484" lon="11.39188464939873"><ele>1305.6666666666665</ele><time>2026-04-26T11:30:42.999Z</time></trkpt><trkpt lat="45.9506643850554" lon="11.391714892091448"><ele>1303.0</ele><time>2026-04-26T11:30:43.999Z</time></trkpt><trkpt lat="45.950804466701086" lon="11.391551910766903"><ele>1307.6666666666665</ele><time>2026-04-26T11:30:44.999Z</time></trkpt><trkpt lat="45.950944857337426" lon="11.391362938241086"><ele>1312.3333333333333</ele><time>2026-04-26T11:30:45.999Z</time></trkpt><trkpt lat="45.951080788747866" lon="11.391164810661502"><ele>1317.0</ele><time>2026-04-26T11:30:46.999Z</time></trkpt><trkpt lat="45.951202584676714" lon="11.39094847918617"><ele>1317.0</ele><time>2026-04-26T11:30:47.999Z</time></trkpt><trkpt lat="45.95132841979156" lon="11.39072836982189"><ele>1317.0</ele><time>2026-04-26T11:30:48.999Z</time></trkpt><trkpt lat="45.95144069833904" lon="11.390506532400806"><ele>1317.0</ele><time>2026-04-26T11:30:49.999Z</time></trkpt><trkpt lat="45.95151624715125" lon="11.390280627036557"><ele>1312.0</ele><time>2026-04-26T11:30:50.999Z</time></trkpt><trkpt lat="45.95158839892943" lon="11.39006649154975"><ele>1307.0</ele><time>2026-04-26T11:30:51.999Z</time></trkpt><trkpt lat="45.95161377098624" lon="11.389818299705595"><ele>1302.0</ele><time>2026-04-26T11:30:52.999Z</time></trkpt><trkpt lat="45.95160751079375" lon="11.389544232991344"><ele>1301.0</ele><time>2026-04-26T11:30:53.999Z</time></trkpt><trkpt lat="45.951592185899734" lon="11.389272698752317"><ele>1300.0</ele><time>2026-04-26T11:30:54.999Z</time></trkpt><trkpt lat="45.951623945844084" lon="11.38900988760268"><ele>1299.0</ele><time>2026-04-26T11:30:55.999Z</time></trkpt><trkpt lat="45.9516579557874" lon="11.388752179612062"><ele>1307.6666666666667</ele><time>2026-04-26T11:30:56.999Z</time></trkpt><trkpt lat="45.95171093536817" lon="11.388487229976963"><ele>1316.3333333333335</ele><time>2026-04-26T11:30:57.999Z</time></trkpt><trkpt lat="45.95177854519423" lon="11.388224530583724"><ele>1325.0</ele><time>2026-04-26T11:30:58.999Z</time></trkpt><trkpt lat="45.95183236810466" lon="11.387945173346143"><ele>1327.6666666666667</ele><time>2026-04-26T11:30:59.999Z</time></trkpt><trkpt lat="45.95187623810612" lon="11.387656722598086"><ele>1330.3333333333333</ele><time>2026-04-26T11:31:00.999Z</time></trkpt><trkpt lat="45.9518771194508" lon="11.387358110847897"><ele>1333.0</ele><time>2026-04-26T11:31:01.999Z</time></trkpt><trkpt lat="45.95183731921664" lon="11.38705144090751"><ele>1337.6666666666665</ele><time>2026-04-26T11:31:02.999Z</time></trkpt><trkpt lat="45.95181250762728" lon="11.386747438232002"><ele>1342.3333333333333</ele><time>2026-04-26T11:31:03.999Z</time></trkpt><trkpt lat="45.95179753122636" lon="11.386453560947317"><ele>1347.0</ele><time>2026-04-26T11:31:04.999Z</time></trkpt><trkpt lat="45.95177534875913" lon="11.386160327108293"><ele>1339.3333333333333</ele><time>2026-04-26T11:31:05.999Z</time></trkpt><trkpt lat="45.951705085690705" lon="11.385894251384459"><ele>1331.6666666666665</ele><time>2026-04-26T11:31:06.999Z</time></trkpt><trkpt lat="45.951587500888756" lon="11.38564717679009"><ele>1324.0</ele><time>2026-04-26T11:31:07.999Z</time></trkpt><trkpt lat="45.95147798352968" lon="11.385400491212536"><ele>1324.0</ele><time>2026-04-26T11:31:08.999Z</time></trkpt><trkpt lat="45.951378749084704" lon="11.385160713454578"><ele>1324.0</ele><time>2026-04-26T11:31:09.999Z</time></trkpt><trkpt lat="45.951289791370165" lon="11.384943906401608"><ele>1324.0</ele><time>2026-04-26T11:31:10.999Z</time></trkpt><trkpt lat="45.951209120833695" lon="11.384742869510527"><ele>1323.5</ele><time>2026-04-26T11:31:11.999Z</time></trkpt><trkpt lat="45.95114052636152" lon="11.384566744623205"><ele>1323.0</ele><time>2026-04-26T11:31:12.999Z</time></trkpt><trkpt lat="45.95108478714826" lon="11.384396260262655"><ele>1322.5</ele><time>2026-04-26T11:31:13.999Z</time></trkpt><trkpt lat="45.95109544072778" lon="11.38420611394827"><ele>1322.0</ele><time>2026-04-26T11:31:14.999Z</time></trkpt><trkpt lat="45.95111376883348" lon="11.38400250335371"><ele>1320.0</ele><time>2026-04-26T11:31:15.999Z</time></trkpt><trkpt lat="45.95112567537638" lon="11.383780807126618"><ele>1318.0</ele><time>2026-04-26T11:31:16.999Z</time></trkpt><trkpt lat="45.95114280012086" lon="11.383561786884236"><ele>1316.0</ele><time>2026-04-26T11:31:17.999Z</time></trkpt><trkpt lat="45.951092605774335" lon="11.383321508159936"><ele>1316.0</ele><time>2026-04-26T11:31:18.999Z</time></trkpt><trkpt lat="45.9510299914718" lon="11.383018151842387"><ele>1316.0</ele><time>2026-04-26T11:31:19.999Z</time></trkpt><trkpt lat="45.95102332464716" lon="11.382817370293408"><ele>1316.0</ele><time>2026-04-26T11:31:20.999Z</time></trkpt><trkpt lat="45.950937270832604" lon="11.382721800147891"><ele>1317.5</ele><time>2026-04-26T11:31:21.999Z</time></trkpt><trkpt lat="45.9509168157932" lon="11.382563469981557"><ele>1319.0</ele><time>2026-04-26T11:31:22.998Z</time></trkpt><trkpt lat="45.95092762038881" lon="11.382396552536024"><ele>1320.5</ele><time>2026-04-26T11:31:23.998Z</time></trkpt><trkpt lat="45.951010032240745" lon="11.382252899744888"><ele>1322.0</ele><time>2026-04-26T11:31:24.998Z</time></trkpt><trkpt lat="45.951079333924525" lon="11.38208103012607"><ele>1325.0</ele><time>2026-04-26T11:31:25.998Z</time></trkpt><trkpt lat="45.951133030793784" lon="11.381885763758607"><ele>1328.0</ele><time>2026-04-26T11:31:26.998Z</time></trkpt><trkpt lat="45.95117455583602" lon="11.381654761586073"><ele>1331.0</ele><time>2026-04-26T11:31:27.998Z</time></trkpt><trkpt lat="45.95117460265084" lon="11.381407082114523"><ele>1335.0</ele><time>2026-04-26T11:31:28.998Z</time></trkpt><trkpt lat="45.951146707750446" lon="11.381156748489824"><ele>1339.0</ele><time>2026-04-26T11:31:29.998Z</time></trkpt><trkpt lat="45.95109710980462" lon="11.380913412129841"><ele>1343.0</ele><time>2026-04-26T11:31:30.998Z</time></trkpt><trkpt lat="45.9510322213119" lon="11.380679752317562"><ele>1347.6666666666667</ele><time>2026-04-26T11:31:31.998Z</time></trkpt><trkpt lat="45.95092730046045" lon="11.380472279530292"><ele>1352.3333333333333</ele><time>2026-04-26T11:31:32.998Z</time></trkpt><trkpt lat="45.95080239447163" lon="11.380299434835525"><ele>1357.0</ele><time>2026-04-26T11:31:33.998Z</time></trkpt><trkpt lat="45.950683708444046" lon="11.380154823354934"><ele>1352.25</ele><time>2026-04-26T11:31:34.998Z</time></trkpt><trkpt lat="45.9505862263051" lon="11.380016031843393"><ele>1347.5</ele><time>2026-04-26T11:31:35.998Z</time></trkpt><trkpt lat="45.95051517334606" lon="11.379824522957946"><ele>1342.75</ele><time>2026-04-26T11:31:36.998Z</time></trkpt><trkpt lat="45.95049480152599" lon="11.379609177433416"><ele>1338.0</ele><time>2026-04-26T11:31:37.998Z</time></trkpt><trkpt lat="45.95047275190398" lon="11.379402658902945"><ele>1338.0</ele><time>2026-04-26T11:31:38.998Z</time></trkpt><trkpt lat="45.95046854016688" lon="11.379176621864696"><ele>1338.0</ele><time>2026-04-26T11:31:39.998Z</time></trkpt><trkpt lat="45.950415109993735" lon="11.378876865651574"><ele>1338.0</ele><time>2026-04-26T11:31:40.998Z</time></trkpt><trkpt lat="45.95038095249746" lon="11.378603875682812"><ele>1339.6666666666667</ele><time>2026-04-26T11:31:41.998Z</time></trkpt><trkpt lat="45.95035440150408" lon="11.378323587656842"><ele>1341.3333333333335</ele><time>2026-04-26T11:31:42.998Z</time></trkpt><trkpt lat="45.95032850064567" lon="11.378039698770499"><ele>1343.0</ele><time>2026-04-26T11:31:43.998Z</time></trkpt><trkpt lat="45.950325437245034" lon="11.377746330043918"><ele>1343.0</ele><time>2026-04-26T11:31:44.998Z</time></trkpt><trkpt lat="45.950333412486366" lon="11.377443832513126"><ele>1343.0</ele><time>2026-04-26T11:31:45.998Z</time></trkpt><trkpt lat="45.95035051761674" lon="11.377128997638403"><ele>1343.0</ele><time>2026-04-26T11:31:46.998Z</time></trkpt><trkpt lat="45.95034779065041" lon="11.37681547707606"><ele>1342.0</ele><time>2026-04-26T11:31:47.998Z</time></trkpt><trkpt lat="45.95032345887256" lon="11.376487884278415"><ele>1341.0</ele><time>2026-04-26T11:31:48.998Z</time></trkpt><trkpt lat="45.950296560897925" lon="11.376163348330138"><ele>1343.5</ele><time>2026-04-26T11:31:49.998Z</time></trkpt><trkpt lat="45.950291002499256" lon="11.3758332216527"><ele>1346.0</ele><time>2026-04-26T11:31:50.998Z</time></trkpt><trkpt lat="45.95028849892047" lon="11.37549473996224"><ele>1346.0</ele><time>2026-04-26T11:31:51.998Z</time></trkpt><trkpt lat="45.950293584859295" lon="11.37515538263177"><ele>1346.0</ele><time>2026-04-26T11:31:52.998Z</time></trkpt><trkpt lat="45.95028186655225" lon="11.374797493526657"><ele>1345.0</ele><time>2026-04-26T11:31:53.998Z</time></trkpt><trkpt lat="45.950250754806454" lon="11.374450898690684"><ele>1344.0</ele><time>2026-04-26T11:31:54.998Z</time></trkpt><trkpt lat="45.950207174724454" lon="11.374096786046234"><ele>1347.5</ele><time>2026-04-26T11:31:55.998Z</time></trkpt><trkpt lat="45.950164165190444" lon="11.373732703431882"><ele>1351.0</ele><time>2026-04-26T11:31:56.998Z</time></trkpt><trkpt lat="45.95012728130155" lon="11.373365762808826"><ele>1351.5</ele><time>2026-04-26T11:31:57.998Z</time></trkpt><trkpt lat="45.95009415191929" lon="11.373003490801146"><ele>1352.0</ele><time>2026-04-26T11:31:58.998Z</time></trkpt><trkpt lat="45.95006346752149" lon="11.372646379707394"><ele>1340.0</ele><time>2026-04-26T11:31:59.998Z</time></trkpt><trkpt lat="45.95003089991344" lon="11.372291553276545"><ele>1328.0</ele><time>2026-04-26T11:32:00.998Z</time></trkpt><trkpt lat="45.950004060660696" lon="11.371946912456874"><ele>1328.0</ele><time>2026-04-26T11:32:01.998Z</time></trkpt><trkpt lat="45.949976329984636" lon="11.371634505981453"><ele>1328.0</ele><time>2026-04-26T11:32:02.998Z</time></trkpt><trkpt lat="45.949943185525086" lon="11.371304877763595"><ele>1331.0</ele><time>2026-04-26T11:32:03.998Z</time></trkpt><trkpt lat="45.949912437182384" lon="11.371009874897906"><ele>1334.0</ele><time>2026-04-26T11:32:04.998Z</time></trkpt><trkpt lat="45.94991411930251" lon="11.370710475971967"><ele>1337.0</ele><time>2026-04-26T11:32:05.998Z</time></trkpt><trkpt lat="45.949936410110624" lon="11.370414474697881"><ele>1338.3333333333335</ele><time>2026-04-26T11:32:06.998Z</time></trkpt><trkpt lat="45.949951686293076" lon="11.37010650944883"><ele>1339.6666666666667</ele><time>2026-04-26T11:32:07.997Z</time></trkpt><trkpt lat="45.94999147171865" lon="11.369844778797729"><ele>1341.0</ele><time>2026-04-26T11:32:08.997Z</time></trkpt><trkpt lat="45.95004140698104" lon="11.369643677388284"><ele>1355.6666666666667</ele><time>2026-04-26T11:32:09.997Z</time></trkpt><trkpt lat="45.95009046515521" lon="11.369403183362554"><ele>1370.3333333333335</ele><time>2026-04-26T11:32:11Z</time></trkpt><trkpt lat="45.9501111977469" lon="11.369029648592624"><ele>1385.0</ele><time>2026-04-26T11:32:12Z</time></trkpt><trkpt lat="45.950056035911615" lon="11.368573760723857"><ele>1385.0</ele><time>2026-04-26T11:32:13Z</time></trkpt><trkpt lat="45.95005290484794" lon="11.368223417380248"><ele>1385.0</ele><time>2026-04-26T11:32:14Z</time></trkpt><trkpt lat="45.950057073493554" lon="11.367889685911818"><ele>1385.0</ele><time>2026-04-26T11:32:15Z</time></trkpt><trkpt lat="45.950062440026855" lon="11.36757544099706"><ele>1385.0</ele><time>2026-04-26T11:32:16Z</time></trkpt><trkpt lat="45.95006901079433" lon="11.367278447429861"><ele>1385.0</ele><time>2026-04-26T11:32:17Z</time></trkpt><trkpt lat="45.95007784550235" lon="11.367003886747801"><ele>1383.0</ele><time>2026-04-26T11:32:18Z</time></trkpt><trkpt lat="45.95008825495081" lon="11.36672395539038"><ele>1381.0</ele><time>2026-04-26T11:32:19Z</time></trkpt><trkpt lat="45.95011026152486" lon="11.366435039715435"><ele>1379.0</ele><time>2026-04-26T11:32:20Z</time></trkpt><trkpt lat="45.95015662890939" lon="11.366132842531197"><ele>1377.0</ele><time>2026-04-26T11:32:21Z</time></trkpt><trkpt lat="45.95020849188335" lon="11.365815717182342"><ele>1375.0</ele><time>2026-04-26T11:32:22Z</time></trkpt><trkpt lat="45.95026795809793" lon="11.36550603842234"><ele>1374.0</ele><time>2026-04-26T11:32:23Z</time></trkpt><trkpt lat="45.950339809774675" lon="11.365189011638359"><ele>1373.0</ele><time>2026-04-26T11:32:24Z</time></trkpt><trkpt lat="45.95042475194295" lon="11.364873082195896"><ele>1369.0</ele><time>2026-04-26T11:32:25Z</time></trkpt><trkpt lat="45.95051675577033" lon="11.364550637954588"><ele>1365.0</ele><time>2026-04-26T11:32:26Z</time></trkpt><trkpt lat="45.95061568395244" lon="11.364218714691846"><ele>1365.0</ele><time>2026-04-26T11:32:27Z</time></trkpt><trkpt lat="45.950694429352" lon="11.363876738487868"><ele>1365.0</ele><time>2026-04-26T11:32:28Z</time></trkpt><trkpt lat="45.95078925174447" lon="11.363546831089876"><ele>1361.0</ele><time>2026-04-26T11:32:29Z</time></trkpt><trkpt lat="45.950869870892404" lon="11.363201261113971"><ele>1357.0</ele><time>2026-04-26T11:32:30Z</time></trkpt><trkpt lat="45.950931000908504" lon="11.362847668861022"><ele>1366.5</ele><time>2026-04-26T11:32:31Z</time></trkpt><trkpt lat="45.95098881289156" lon="11.362486993173587"><ele>1376.0</ele><time>2026-04-26T11:32:32Z</time></trkpt><trkpt lat="45.95105141255415" lon="11.362128211750477"><ele>1376.0</ele><time>2026-04-26T11:32:33Z</time></trkpt><trkpt lat="45.95111647666048" lon="11.361770401445508"><ele>1376.0</ele><time>2026-04-26T11:32:34Z</time></trkpt><trkpt lat="45.951181557656966" lon="11.361408380641906"><ele>1378.0</ele><time>2026-04-26T11:32:35Z</time></trkpt><trkpt lat="45.951238865332876" lon="11.361047134446876"><ele>1380.0</ele><time>2026-04-26T11:32:36Z</time></trkpt><trkpt lat="45.95129526971771" lon="11.360711467498499"><ele>1377.5</ele><time>2026-04-26T11:32:37Z</time></trkpt><trkpt lat="45.95134454835612" lon="11.360391255612004"><ele>1375.0</ele><time>2026-04-26T11:32:38Z</time></trkpt><trkpt lat="45.951396423775535" lon="11.360080087529267"><ele>1375.0</ele><time>2026-04-26T11:32:39Z</time></trkpt><trkpt lat="45.951444861743475" lon="11.359780941067399"><ele>1375.0</ele><time>2026-04-26T11:32:40Z</time></trkpt><trkpt lat="45.95149580740737" lon="11.359522432412412"><ele>1375.0</ele><time>2026-04-26T11:32:41Z</time></trkpt><trkpt lat="45.951541920564544" lon="11.359268428129875"><ele>1375.3333333333333</ele><time>2026-04-26T11:32:42Z</time></trkpt><trkpt lat="45.951563887761765" lon="11.359001319793709"><ele>1375.6666666666667</ele><time>2026-04-26T11:32:42.999Z</time></trkpt><trkpt lat="45.951535265557716" lon="11.358733832186338"><ele>1376.0</ele><time>2026-04-26T11:32:43.999Z</time></trkpt><trkpt lat="45.95147255024313" lon="11.35847253807903"><ele>1376.0</ele><time>2026-04-26T11:32:44.999Z</time></trkpt><trkpt lat="45.951392597828736" lon="11.358256867907711"><ele>1376.0</ele><time>2026-04-26T11:32:45.999Z</time></trkpt><trkpt lat="45.95130384541766" lon="11.358065336973787"><ele>1376.0</ele><time>2026-04-26T11:32:46.999Z</time></trkpt><trkpt lat="45.951242253813774" lon="11.357890265933195"><ele>1376.0</ele><time>2026-04-26T11:32:47.999Z</time></trkpt><trkpt lat="45.95121647157904" lon="11.35771311205425"><ele>1376.0</ele><time>2026-04-26T11:32:48.999Z</time></trkpt><trkpt lat="45.951233456289984" lon="11.357544913642538"><ele>1376.0</ele><time>2026-04-26T11:32:49.999Z</time></trkpt><trkpt lat="45.95129419681872" lon="11.357391628923883"><ele>1376.0</ele><time>2026-04-26T11:32:50.999Z</time></trkpt><trkpt lat="45.951383540474374" lon="11.357246485498605"><ele>1376.5</ele><time>2026-04-26T11:32:51.999Z</time></trkpt><trkpt lat="45.951481190689805" lon="11.357098797562838"><ele>1377.0</ele><time>2026-04-26T11:32:52.999Z</time></trkpt><trkpt lat="45.9515534726293" lon="11.35692824412089"><ele>1377.5</ele><time>2026-04-26T11:32:53.999Z</time></trkpt><trkpt lat="45.951597510938214" lon="11.356738984400412"><ele>1378.0</ele><time>2026-04-26T11:32:54.999Z</time></trkpt><trkpt lat="45.95160078674664" lon="11.356547416836433"><ele>1379.25</ele><time>2026-04-26T11:32:55.999Z</time></trkpt><trkpt lat="45.951556251840735" lon="11.356365653732322"><ele>1380.5</ele><time>2026-04-26T11:32:56.999Z</time></trkpt><trkpt lat="45.951466960447235" lon="11.356234624938915"><ele>1381.75</ele><time>2026-04-26T11:32:57.999Z</time></trkpt><trkpt lat="45.95136396635988" lon="11.356145475867555"><ele>1383.0</ele><time>2026-04-26T11:32:58.999Z</time></trkpt><trkpt lat="45.95127075934982" lon="11.356079491258429"><ele>1383.0</ele><time>2026-04-26T11:32:59.999Z</time></trkpt><trkpt lat="45.95121508548714" lon="11.356029338223276"><ele>1383.0</ele><time>2026-04-26T11:33:00.999Z</time></trkpt><trkpt lat="45.951145114537255" lon="11.355999993922689"><ele>1383.0</ele><time>2026-04-26T11:33:12.999Z</time></trkpt><trkpt lat="45.95110646914587" lon="11.355921980266945"><ele>1383.0</ele><time>2026-04-26T11:33:37.998Z</time></trkpt><trkpt lat="45.951018369936655" lon="11.355869315457097"><ele>1383.0</ele><time>2026-04-26T11:34:35Z</time></trkpt><trkpt lat="45.95096083462422" lon="11.355750058653285"><ele>1383.0</ele><time>2026-04-26T11:34:36Z</time></trkpt><trkpt lat="45.950870843967756" lon="11.355659845616168"><ele>1382.5</ele><time>2026-04-26T11:34:37Z</time></trkpt><trkpt lat="45.95077442188926" lon="11.355557318189208"><ele>1382.0</ele><time>2026-04-26T11:34:38Z</time></trkpt><trkpt lat="45.95069378592389" lon="11.355386219343899"><ele>1381.5</ele><time>2026-04-26T11:34:39Z</time></trkpt><trkpt lat="45.95063954331641" lon="11.355174310625488"><ele>1381.0</ele><time>2026-04-26T11:34:40Z</time></trkpt><trkpt lat="45.950593882067096" lon="11.354949668225775"><ele>1381.0</ele><time>2026-04-26T11:34:41Z</time></trkpt><trkpt lat="45.95053119276464" lon="11.354707716068946"><ele>1381.0</ele><time>2026-04-26T11:34:42Z</time></trkpt><trkpt lat="45.95047550780457" lon="11.35444774470162"><ele>1381.0</ele><time>2026-04-26T11:34:43Z</time></trkpt><trkpt lat="45.950419461181326" lon="11.354223021803595"><ele>1382.3333333333333</ele><time>2026-04-26T11:34:44Z</time></trkpt><trkpt lat="45.9503718707696" lon="11.354039604115465"><ele>1383.6666666666667</ele><time>2026-04-26T11:34:45Z</time></trkpt><trkpt lat="45.9503301554761" lon="11.353861293264448"><ele>1385.0</ele><time>2026-04-26T11:34:46Z</time></trkpt><trkpt lat="45.95031921145961" lon="11.353466891899489"><ele>1385.3333333333335</ele><time>2026-04-26T11:34:47Z</time></trkpt><trkpt lat="45.95035528112432" lon="11.353238598750668"><ele>1385.6666666666667</ele><time>2026-04-26T11:34:48Z</time></trkpt><trkpt lat="45.95039983762346" lon="11.352993216377543"><ele>1386.0</ele><time>2026-04-26T11:34:49Z</time></trkpt><trkpt lat="45.950415222956785" lon="11.35274048958436"><ele>1386.0</ele><time>2026-04-26T11:34:50Z</time></trkpt><trkpt lat="45.950431595911716" lon="11.35248922677122"><ele>1386.0</ele><time>2026-04-26T11:34:51Z</time></trkpt><trkpt lat="45.950395334505" lon="11.352240201719791"><ele>1386.0</ele><time>2026-04-26T11:34:52Z</time></trkpt><trkpt lat="45.95031385437891" lon="11.352002028479303"><ele>1387.6666666666667</ele><time>2026-04-26T11:34:53Z</time></trkpt><trkpt lat="45.95020883564541" lon="11.351787475813335"><ele>1389.3333333333335</ele><time>2026-04-26T11:34:53.999Z</time></trkpt><trkpt lat="45.95009731756131" lon="11.351599511237147"><ele>1391.0</ele><time>2026-04-26T11:34:54.999Z</time></trkpt><trkpt lat="45.949989053125925" lon="11.35144491037795"><ele>1389.0</ele><time>2026-04-26T11:34:55.999Z</time></trkpt><trkpt lat="45.949906117810215" lon="11.351308922997633"><ele>1387.0</ele><time>2026-04-26T11:34:56.999Z</time></trkpt><trkpt lat="45.949853833862676" lon="11.351167628216736"><ele>1385.0</ele><time>2026-04-26T11:34:57.999Z</time></trkpt><trkpt lat="45.94990004012433" lon="11.35101958262097"><ele>1383.0</ele><time>2026-04-26T11:34:58.999Z</time></trkpt><trkpt lat="45.94995768182117" lon="11.350880373975105"><ele>1383.0</ele><time>2026-04-26T11:34:59.999Z</time></trkpt><trkpt lat="45.95003003923247" lon="11.350715821597378"><ele>1383.0</ele><time>2026-04-26T11:35:00.999Z</time></trkpt><trkpt lat="45.95011711303608" lon="11.350521982269935"><ele>1383.0</ele><time>2026-04-26T11:35:01.999Z</time></trkpt><trkpt lat="45.95020104448028" lon="11.35029092990313"><ele>1387.0</ele><time>2026-04-26T11:35:02.999Z</time></trkpt><trkpt lat="45.9503133238163" lon="11.350062766800276"><ele>1391.0</ele><time>2026-04-26T11:35:03.999Z</time></trkpt><trkpt lat="45.95040370884941" lon="11.349796450564762"><ele>1395.0</ele><time>2026-04-26T11:35:04.999Z</time></trkpt><trkpt lat="45.95048304998057" lon="11.349501652105731"><ele>1395.0</ele><time>2026-04-26T11:35:05.999Z</time></trkpt><trkpt lat="45.95052730609627" lon="11.349173342437048"><ele>1395.0</ele><time>2026-04-26T11:35:06.999Z</time></trkpt><trkpt lat="45.9505422037251" lon="11.348832512572168"><ele>1393.0</ele><time>2026-04-26T11:35:07.999Z</time></trkpt><trkpt lat="45.950519054104305" lon="11.348456531365962"><ele>1391.0</ele><time>2026-04-26T11:35:08.999Z</time></trkpt><trkpt lat="45.9505363495862" lon="11.34816282819401"><ele>1390.6666666666667</ele><time>2026-04-26T11:35:09.999Z</time></trkpt><trkpt lat="45.95055253263421" lon="11.347861311320502"><ele>1390.3333333333333</ele><time>2026-04-26T11:35:10.999Z</time></trkpt><trkpt lat="45.9505729030473" lon="11.347577910087686"><ele>1390.0</ele><time>2026-04-26T11:35:11.999Z</time></trkpt><trkpt lat="45.95061024192532" lon="11.347332759259404"><ele>1390.0</ele><time>2026-04-26T11:35:12.999Z</time></trkpt><trkpt lat="45.95068313698788" lon="11.347106434312996"><ele>1390.0</ele><time>2026-04-26T11:35:13.999Z</time></trkpt><trkpt lat="45.95079758854336" lon="11.346890360373447"><ele>1390.0</ele><time>2026-04-26T11:35:14.999Z</time></trkpt><trkpt lat="45.95092975646899" lon="11.346641929004532"><ele>1391.5</ele><time>2026-04-26T11:35:15.999Z</time></trkpt><trkpt lat="45.95111808883047" lon="11.346402792521594"><ele>1393.0</ele><time>2026-04-26T11:35:16.999Z</time></trkpt><trkpt lat="45.95129557768188" lon="11.346173811054733"><ele>1393.0</ele><time>2026-04-26T11:35:17.999Z</time></trkpt><trkpt lat="45.951361258590055" lon="11.346092440817458"><ele>1393.0</ele><time>2026-04-26T11:35:18.999Z</time></trkpt><trkpt lat="45.95153942919968" lon="11.345928070919586"><ele>1393.0</ele><time>2026-04-26T11:35:19.999Z</time></trkpt><trkpt lat="45.951739349216766" lon="11.345741546890455"><ele>1395.0</ele><time>2026-04-26T11:35:20.999Z</time></trkpt><trkpt lat="45.95194363795534" lon="11.345548405386106"><ele>1397.0</ele><time>2026-04-26T11:35:21.999Z</time></trkpt><trkpt lat="45.95211070932557" lon="11.345371248209297"><ele>1397.0</ele><time>2026-04-26T11:35:22.999Z</time></trkpt><trkpt lat="45.95227688054183" lon="11.345153880342377"><ele>1397.0</ele><time>2026-04-26T11:35:23.999Z</time></trkpt><trkpt lat="45.95245254618525" lon="11.344965315813608"><ele>1397.0</ele><time>2026-04-26T11:35:24.999Z</time></trkpt><trkpt lat="45.95262471862784" lon="11.344768684483583"><ele>1398.3333333333335</ele><time>2026-04-26T11:35:25.999Z</time></trkpt><trkpt lat="45.95280628187307" lon="11.344625173558672"><ele>1399.6666666666667</ele><time>2026-04-26T11:35:26.999Z</time></trkpt><trkpt lat="45.952972512488834" lon="11.344496146596052"><ele>1401.0</ele><time>2026-04-26T11:35:27.999Z</time></trkpt><trkpt lat="45.95310587724708" lon="11.344360753953152"><ele>1401.0</ele><time>2026-04-26T11:35:28.999Z</time></trkpt><trkpt lat="45.95320621562412" lon="11.344192050467903"><ele>1401.0</ele><time>2026-04-26T11:35:29.999Z</time></trkpt><trkpt lat="45.953255485908066" lon="11.343991282458477"><ele>1401.0</ele><time>2026-04-26T11:35:30.999Z</time></trkpt><trkpt lat="45.9532650634765" lon="11.34378256228429"><ele>1401.0</ele><time>2026-04-26T11:35:31.999Z</time></trkpt><trkpt lat="45.95321078149368" lon="11.343581365264953"><ele>1399.6666666666667</ele><time>2026-04-26T11:35:32.999Z</time></trkpt><trkpt lat="45.95315019497016" lon="11.343371777769375"><ele>1398.3333333333335</ele><time>2026-04-26T11:35:33.999Z</time></trkpt><trkpt lat="45.9531261075078" lon="11.343141037097675"><ele>1397.0</ele><time>2026-04-26T11:35:34.999Z</time></trkpt><trkpt lat="45.95309584987839" lon="11.342904269885594"><ele>1397.0</ele><time>2026-04-26T11:35:35.999Z</time></trkpt><trkpt lat="45.953098435713414" lon="11.342665482979246"><ele>1397.0</ele><time>2026-04-26T11:35:36.999Z</time></trkpt><trkpt lat="45.95315299473405" lon="11.342431300844595"><ele>1397.0</ele><time>2026-04-26T11:35:37.999Z</time></trkpt><trkpt lat="45.953236732962935" lon="11.342192309625954"><ele>1398.0</ele><time>2026-04-26T11:35:38.999Z</time></trkpt><trkpt lat="45.95332837512269" lon="11.341926247328335"><ele>1399.0</ele><time>2026-04-26T11:35:39.998Z</time></trkpt><trkpt lat="45.9534087365362" lon="11.341649039825905"><ele>1400.0</ele><time>2026-04-26T11:35:40.998Z</time></trkpt><trkpt lat="45.953503462619516" lon="11.341376296610086"><ele>1401.6666666666667</ele><time>2026-04-26T11:35:41.998Z</time></trkpt><trkpt lat="45.9536031367595" lon="11.341103828311741"><ele>1403.3333333333333</ele><time>2026-04-26T11:35:42.998Z</time></trkpt><trkpt lat="45.95373175338282" lon="11.340863087774935"><ele>1405.0</ele><time>2026-04-26T11:35:43.998Z</time></trkpt><trkpt lat="45.953868957408176" lon="11.340632238788942"><ele>1406.0</ele><time>2026-04-26T11:35:44.998Z</time></trkpt><trkpt lat="45.95400049155907" lon="11.340377647205022"><ele>1407.0</ele><time>2026-04-26T11:35:45.998Z</time></trkpt><trkpt lat="45.95415128253155" lon="11.340139623113648"><ele>1408.0</ele><time>2026-04-26T11:35:46.998Z</time></trkpt><trkpt lat="45.95429684436755" lon="11.339890536930099"><ele>1409.0</ele><time>2026-04-26T11:35:47.998Z</time></trkpt><trkpt lat="45.95443876558575" lon="11.339662551961394"><ele>1410.0</ele><time>2026-04-26T11:35:48.998Z</time></trkpt><trkpt lat="45.95456837190997" lon="11.339451949378777"><ele>1411.0</ele><time>2026-04-26T11:35:49.998Z</time></trkpt><trkpt lat="45.954685252658834" lon="11.339249196591346"><ele>1411.0</ele><time>2026-04-26T11:35:50.998Z</time></trkpt><trkpt lat="45.95477015090145" lon="11.339051475435628"><ele>1411.0</ele><time>2026-04-26T11:35:51.998Z</time></trkpt><trkpt lat="45.954819529131036" lon="11.338821652517714"><ele>1411.0</ele><time>2026-04-26T11:35:52.998Z</time></trkpt><trkpt lat="45.95481067797809" lon="11.338575883352643"><ele>1411.3333333333333</ele><time>2026-04-26T11:35:53.998Z</time></trkpt><trkpt lat="45.95478462425633" lon="11.338333241675096"><ele>1411.6666666666667</ele><time>2026-04-26T11:35:54.998Z</time></trkpt><trkpt lat="45.954778271199814" lon="11.338108980379847"><ele>1412.0</ele><time>2026-04-26T11:35:55.998Z</time></trkpt><trkpt lat="45.9547985398459" lon="11.337906533945453"><ele>1412.3333333333335</ele><time>2026-04-26T11:35:56.998Z</time></trkpt><trkpt lat="45.95488995878906" lon="11.337742030927911"><ele>1412.6666666666667</ele><time>2026-04-26T11:35:57.998Z</time></trkpt><trkpt lat="45.95497184096488" lon="11.337544801441437"><ele>1413.0</ele><time>2026-04-26T11:35:58.998Z</time></trkpt><trkpt lat="45.95505445636882" lon="11.337316273474581"><ele>1414.3333333333333</ele><time>2026-04-26T11:35:59.998Z</time></trkpt><trkpt lat="45.955151874021986" lon="11.337080672815793"><ele>1415.6666666666665</ele><time>2026-04-26T11:36:00.998Z</time></trkpt><trkpt lat="45.95525274678628" lon="11.336829328938565"><ele>1417.0</ele><time>2026-04-26T11:36:01.998Z</time></trkpt><trkpt lat="45.955362956193774" lon="11.336558500273355"><ele>1416.0</ele><time>2026-04-26T11:36:02.998Z</time></trkpt><trkpt lat="45.9554779676611" lon="11.336285781124984"><ele>1415.0</ele><time>2026-04-26T11:36:03.998Z</time></trkpt><trkpt lat="45.955597989045074" lon="11.335992679349012"><ele>1415.0</ele><time>2026-04-26T11:36:04.998Z</time></trkpt><trkpt lat="45.95570754839157" lon="11.335698921977558"><ele>1415.0</ele><time>2026-04-26T11:36:05.998Z</time></trkpt><trkpt lat="45.95580109228869" lon="11.335386160018787"><ele>1417.5</ele><time>2026-04-26T11:36:06.998Z</time></trkpt><trkpt lat="45.955885555977424" lon="11.335067832363723"><ele>1420.0</ele><time>2026-04-26T11:36:07.998Z</time></trkpt><trkpt lat="45.9559473775285" lon="11.334756307243829"><ele>1419.3333333333333</ele><time>2026-04-26T11:36:08.998Z</time></trkpt><trkpt lat="45.956001119669956" lon="11.334447264397916"><ele>1418.6666666666667</ele><time>2026-04-26T11:36:09.998Z</time></trkpt><trkpt lat="45.956074980518714" lon="11.334166627877973"><ele>1418.0</ele><time>2026-04-26T11:36:10.998Z</time></trkpt><trkpt lat="45.95614695932219" lon="11.33391194591849"><ele>1417.0</ele><time>2026-04-26T11:36:11.998Z</time></trkpt><trkpt lat="45.95624789275016" lon="11.33369380281527"><ele>1416.0</ele><time>2026-04-26T11:36:12.998Z</time></trkpt><trkpt lat="45.956356977117515" lon="11.33347074813738"><ele>1415.0</ele><time>2026-04-26T11:36:13.998Z</time></trkpt><trkpt lat="45.956463006551274" lon="11.333229484286514"><ele>1414.6666666666667</ele><time>2026-04-26T11:36:14.998Z</time></trkpt><trkpt lat="45.95656706647084" lon="11.332990628739964"><ele>1414.3333333333333</ele><time>2026-04-26T11:36:15.998Z</time></trkpt><trkpt lat="45.95664170402467" lon="11.33274473111094"><ele>1414.0</ele><time>2026-04-26T11:36:16.998Z</time></trkpt><trkpt lat="45.956673404036245" lon="11.332486396510062"><ele>1415.0</ele><time>2026-04-26T11:36:17.998Z</time></trkpt><trkpt lat="45.956663962674924" lon="11.332219319819878"><ele>1416.0</ele><time>2026-04-26T11:36:18.998Z</time></trkpt><trkpt lat="45.956644257993084" lon="11.331956322832468"><ele>1417.0</ele><time>2026-04-26T11:36:19.998Z</time></trkpt><trkpt lat="45.956633604478405" lon="11.331695121425229"><ele>1417.0</ele><time>2026-04-26T11:36:20.998Z</time></trkpt><trkpt lat="45.95662646083066" lon="11.331420189346337"><ele>1417.0</ele><time>2026-04-26T11:36:21.998Z</time></trkpt><trkpt lat="45.95662206546462" lon="11.331153274266498"><ele>1417.0</ele><time>2026-04-26T11:36:23Z</time></trkpt><trkpt lat="45.95662006420602" lon="11.330899686993845"><ele>1416.6666666666665</ele><time>2026-04-26T11:36:24Z</time></trkpt><trkpt lat="45.9566140088763" lon="11.330664923236032"><ele>1416.3333333333333</ele><time>2026-04-26T11:36:25Z</time></trkpt><trkpt lat="45.95660900297218" lon="11.33042978380511"><ele>1416.0</ele><time>2026-04-26T11:36:26Z</time></trkpt><trkpt lat="45.956601701010385" lon="11.330195786774597"><ele>1416.6666666666667</ele><time>2026-04-26T11:36:27Z</time></trkpt><trkpt lat="45.956599525111656" lon="11.329949889527901"><ele>1417.3333333333335</ele><time>2026-04-26T11:36:28Z</time></trkpt><trkpt lat="45.95659731490914" lon="11.329706422313222"><ele>1418.0</ele><time>2026-04-26T11:36:29Z</time></trkpt><trkpt lat="45.956592094363245" lon="11.329459757409724"><ele>1418.5</ele><time>2026-04-26T11:36:30Z</time></trkpt><trkpt lat="45.956585096936024" lon="11.329231077182344"><ele>1419.0</ele><time>2026-04-26T11:36:31Z</time></trkpt><trkpt lat="45.95658571136117" lon="11.32902429073445"><ele>1419.5</ele><time>2026-04-26T11:36:32Z</time></trkpt><trkpt lat="45.9565916514528" lon="11.328821875733832"><ele>1420.0</ele><time>2026-04-26T11:36:33Z</time></trkpt><trkpt lat="45.95661140366296" lon="11.328617877066785"><ele>1420.0</ele><time>2026-04-26T11:36:34Z</time></trkpt><trkpt lat="45.95669062640934" lon="11.328438101581208"><ele>1420.0</ele><time>2026-04-26T11:36:35Z</time></trkpt><trkpt lat="45.95677787940987" lon="11.328241758350275"><ele>1420.0</ele><time>2026-04-26T11:36:36Z</time></trkpt><trkpt lat="45.956870087972405" lon="11.328044197934641"><ele>1420.0</ele><time>2026-04-26T11:36:37Z</time></trkpt><trkpt lat="45.9569560985766" lon="11.327842003915249"><ele>1420.0</ele><time>2026-04-26T11:36:38Z</time></trkpt><trkpt lat="45.95705815506194" lon="11.327632667279628"><ele>1420.0</ele><time>2026-04-26T11:36:39Z</time></trkpt><trkpt lat="45.9571432100427" lon="11.327406053504227"><ele>1419.6666666666665</ele><time>2026-04-26T11:36:40Z</time></trkpt><trkpt lat="45.957203669837725" lon="11.327209881327143"><ele>1419.3333333333333</ele><time>2026-04-26T11:36:41Z</time></trkpt><trkpt lat="45.95726596423762" lon="11.327003254788792"><ele>1419.0</ele><time>2026-04-26T11:36:42Z</time></trkpt><trkpt lat="45.95729854979692" lon="11.326602559862513"><ele>1418.6666666666667</ele><time>2026-04-26T11:36:43Z</time></trkpt><trkpt lat="45.957342986923294" lon="11.326322062314533"><ele>1418.3333333333335</ele><time>2026-04-26T11:36:44Z</time></trkpt><trkpt lat="45.9573810486317" lon="11.326032016788513"><ele>1418.0</ele><time>2026-04-26T11:36:45Z</time></trkpt><trkpt lat="45.957421121415415" lon="11.32573101802467"><ele>1418.3333333333335</ele><time>2026-04-26T11:36:46Z</time></trkpt><trkpt lat="45.95746761101672" lon="11.325441460646783"><ele>1418.6666666666667</ele><time>2026-04-26T11:36:47Z</time></trkpt><trkpt lat="45.95752183934887" lon="11.325165166286117"><ele>1419.0</ele><time>2026-04-26T11:36:48Z</time></trkpt><trkpt lat="45.95760560057249" lon="11.324921197562322"><ele>1415.3333333333333</ele><time>2026-04-26T11:36:49Z</time></trkpt><trkpt lat="45.957673104978376" lon="11.324679237490638"><ele>1411.6666666666665</ele><time>2026-04-26T11:36:50Z</time></trkpt><trkpt lat="45.95778310218729" lon="11.324480271018214"><ele>1408.0</ele><time>2026-04-26T11:36:51Z</time></trkpt><trkpt lat="45.95788669635381" lon="11.324266678127984"><ele>1408.0</ele><time>2026-04-26T11:36:52Z</time></trkpt><trkpt lat="45.95802187915254" lon="11.32405947644205"><ele>1408.0</ele><time>2026-04-26T11:36:53Z</time></trkpt><trkpt lat="45.95816383519985" lon="11.323862842792176"><ele>1408.0</ele><time>2026-04-26T11:36:54Z</time></trkpt><trkpt lat="45.958305820297994" lon="11.323661328329226"><ele>1405.0</ele><time>2026-04-26T11:36:55Z</time></trkpt><trkpt lat="45.958446665304955" lon="11.323451204092688"><ele>1402.0</ele><time>2026-04-26T11:36:56Z</time></trkpt><trkpt lat="45.958584562470605" lon="11.323238521008909"><ele>1399.0</ele><time>2026-04-26T11:36:57Z</time></trkpt><trkpt lat="45.9586931259871" lon="11.323023828080226"><ele>1399.0</ele><time>2026-04-26T11:36:58Z</time></trkpt><trkpt lat="45.95878848911032" lon="11.322796351467218"><ele>1399.0</ele><time>2026-04-26T11:36:59Z</time></trkpt><trkpt lat="45.95887025338604" lon="11.32256514714901"><ele>1399.0</ele><time>2026-04-26T11:37:00Z</time></trkpt><trkpt lat="45.95893085087635" lon="11.322336978517068"><ele>1399.3333333333333</ele><time>2026-04-26T11:37:01Z</time></trkpt><trkpt lat="45.958979682650856" lon="11.322118281338506"><ele>1399.6666666666667</ele><time>2026-04-26T11:37:01.999Z</time></trkpt><trkpt lat="45.95901359929388" lon="11.321901502255036"><ele>1400.0</ele><time>2026-04-26T11:37:02.999Z</time></trkpt><trkpt lat="45.95899707466461" lon="11.321658597763454"><ele>1399.3333333333335</ele><time>2026-04-26T11:37:03.999Z</time></trkpt><trkpt lat="45.95896272363133" lon="11.321391142735795"><ele>1398.6666666666667</ele><time>2026-04-26T11:37:04.999Z</time></trkpt><trkpt lat="45.95893103850106" lon="11.32113384345728"><ele>1398.0</ele><time>2026-04-26T11:37:05.999Z</time></trkpt><trkpt lat="45.958912008755476" lon="11.320840293828304"><ele>1396.3333333333333</ele><time>2026-04-26T11:37:06.999Z</time></trkpt><trkpt lat="45.95889743124027" lon="11.32055618012208"><ele>1394.6666666666665</ele><time>2026-04-26T11:37:07.999Z</time></trkpt><trkpt lat="45.95890227112657" lon="11.320277422723262"><ele>1393.0</ele><time>2026-04-26T11:37:08.999Z</time></trkpt><trkpt lat="45.95892268804149" lon="11.32001972519156"><ele>1393.0</ele><time>2026-04-26T11:37:09.999Z</time></trkpt><trkpt lat="45.958946646363565" lon="11.319762171426465"><ele>1393.0</ele><time>2026-04-26T11:37:10.999Z</time></trkpt><trkpt lat="45.95896309458106" lon="11.319499078645675"><ele>1393.0</ele><time>2026-04-26T11:37:11.999Z</time></trkpt><trkpt lat="45.95894379936031" lon="11.319222615198527"><ele>1393.3333333333333</ele><time>2026-04-26T11:37:12.999Z</time></trkpt><trkpt lat="45.958936664504314" lon="11.318964138436323"><ele>1393.6666666666667</ele><time>2026-04-26T11:37:13.999Z</time></trkpt><trkpt lat="45.95890107373601" lon="11.31868622185156"><ele>1394.0</ele><time>2026-04-26T11:37:14.999Z</time></trkpt><trkpt lat="45.9588612769731" lon="11.318417122145377"><ele>1392.0</ele><time>2026-04-26T11:37:15.999Z</time></trkpt><trkpt lat="45.95882901398033" lon="11.31815269224939"><ele>1390.0</ele><time>2026-04-26T11:37:16.999Z</time></trkpt><trkpt lat="45.95881598367431" lon="11.317895436159974"><ele>1388.0</ele><time>2026-04-26T11:37:17.999Z</time></trkpt><trkpt lat="45.95883217398058" lon="11.317618154395621"><ele>1387.3333333333335</ele><time>2026-04-26T11:37:18.999Z</time></trkpt><trkpt lat="45.95888734332865" lon="11.317309297695296"><ele>1386.6666666666667</ele><time>2026-04-26T11:37:19.999Z</time></trkpt><trkpt lat="45.95892897738059" lon="11.317126932560877"><ele>1386.0</ele><time>2026-04-26T11:37:20.999Z</time></trkpt><trkpt lat="45.95898640477605" lon="11.316896231184874"><ele>1384.6666666666667</ele><time>2026-04-26T11:37:21.999Z</time></trkpt><trkpt lat="45.95904901246276" lon="11.316682331136299"><ele>1383.3333333333335</ele><time>2026-04-26T11:37:22.999Z</time></trkpt><trkpt lat="45.95913096994973" lon="11.316497153642766"><ele>1382.0</ele><time>2026-04-26T11:37:23.999Z</time></trkpt><trkpt lat="45.95922925746899" lon="11.316355567352666"><ele>1382.0</ele><time>2026-04-26T11:37:24.999Z</time></trkpt><trkpt lat="45.95934034642681" lon="11.316259565522943"><ele>1382.0</ele><time>2026-04-26T11:37:25.999Z</time></trkpt><trkpt lat="45.95947229130358" lon="11.316193107034277"><ele>1382.0</ele><time>2026-04-26T11:37:26.999Z</time></trkpt><trkpt lat="45.959624798431676" lon="11.316147781289596"><ele>1382.0</ele><time>2026-04-26T11:37:27.999Z</time></trkpt><trkpt lat="45.95979883906181" lon="11.316098651181752"><ele>1382.0</ele><time>2026-04-26T11:37:28.999Z</time></trkpt><trkpt lat="45.959963171169655" lon="11.316049457347152"><ele>1382.0</ele><time>2026-04-26T11:37:29.999Z</time></trkpt><trkpt lat="45.96012020305585" lon="11.315974014680327"><ele>1382.0</ele><time>2026-04-26T11:37:30.999Z</time></trkpt><trkpt lat="45.96027941552156" lon="11.31588279757886"><ele>1379.6666666666667</ele><time>2026-04-26T11:37:31.999Z</time></trkpt><trkpt lat="45.96042171935178" lon="11.315776071436643"><ele>1377.3333333333333</ele><time>2026-04-26T11:37:32.999Z</time></trkpt><trkpt lat="45.960559804508506" lon="11.315675485880702"><ele>1375.0</ele><time>2026-04-26T11:37:33.999Z</time></trkpt><trkpt lat="45.96068030883329" lon="11.315565927753024"><ele>1374.0</ele><time>2026-04-26T11:37:34.999Z</time></trkpt><trkpt lat="45.96079547285533" lon="11.315429648848765"><ele>1373.0</ele><time>2026-04-26T11:37:35.999Z</time></trkpt><trkpt lat="45.96089943489607" lon="11.315276186670816"><ele>1372.0</ele><time>2026-04-26T11:37:36.999Z</time></trkpt><trkpt lat="45.96099335020106" lon="11.315129846551264"><ele>1371.0</ele><time>2026-04-26T11:37:37.999Z</time></trkpt><trkpt lat="45.96107687795659" lon="11.31500970404"><ele>1369.75</ele><time>2026-04-26T11:37:38.999Z</time></trkpt><trkpt lat="45.96110288479315" lon="11.314872469202696"><ele>1368.5</ele><time>2026-04-26T11:37:39.999Z</time></trkpt><trkpt lat="45.9610631133945" lon="11.314696841986528"><ele>1367.25</ele><time>2026-04-26T11:37:41.999Z</time></trkpt><trkpt lat="45.96096985464123" lon="11.3146616206444"><ele>1366.0</ele><time>2026-04-26T11:37:42.999Z</time></trkpt><trkpt lat="45.960817668120896" lon="11.314715391489791"><ele>1367.25</ele><time>2026-04-26T11:37:43.999Z</time></trkpt><trkpt lat="45.96071992956847" lon="11.314795866888346"><ele>1368.5</ele><time>2026-04-26T11:37:44.999Z</time></trkpt><trkpt lat="45.960611888920546" lon="11.31486883832423"><ele>1369.75</ele><time>2026-04-26T11:37:45.999Z</time></trkpt><trkpt lat="45.96048125662038" lon="11.314912889264166"><ele>1371.0</ele><time>2026-04-26T11:37:46.999Z</time></trkpt><trkpt lat="45.96034272161314" lon="11.314885122914783"><ele>1371.0</ele><time>2026-04-26T11:37:47.998Z</time></trkpt><trkpt lat="45.960199460496234" lon="11.314838467060541"><ele>1371.0</ele><time>2026-04-26T11:37:48.998Z</time></trkpt><trkpt lat="45.96006429057947" lon="11.314766536334636"><ele>1371.0</ele><time>2026-04-26T11:37:49.998Z</time></trkpt><trkpt lat="45.959966307548974" lon="11.314606477298314"><ele>1371.0</ele><time>2026-04-26T11:37:50.998Z</time></trkpt><trkpt lat="45.959892222030305" lon="11.314446274633683"><ele>1367.75</ele><time>2026-04-26T11:37:51.998Z</time></trkpt><trkpt lat="45.95983986223041" lon="11.31426127633646"><ele>1364.5</ele><time>2026-04-26T11:37:52.998Z</time></trkpt><trkpt lat="45.959823871455136" lon="11.314062859599497"><ele>1361.25</ele><time>2026-04-26T11:37:53.998Z</time></trkpt><trkpt lat="45.959828662847926" lon="11.313842865901963"><ele>1358.0</ele><time>2026-04-26T11:37:54.998Z</time></trkpt><trkpt lat="45.95982026187615" lon="11.313618718961342"><ele>1357.3333333333335</ele><time>2026-04-26T11:37:55.998Z</time></trkpt><trkpt lat="45.95983358526613" lon="11.313370115137415"><ele>1356.6666666666667</ele><time>2026-04-26T11:37:56.998Z</time></trkpt><trkpt lat="45.95982163872962" lon="11.313125053144"><ele>1356.0</ele><time>2026-04-26T11:37:57.998Z</time></trkpt><trkpt lat="45.95978331890924" lon="11.312892084315612"><ele>1355.0</ele><time>2026-04-26T11:37:58.998Z</time></trkpt><trkpt lat="45.959739343463525" lon="11.312674885250077"><ele>1354.0</ele><time>2026-04-26T11:37:59.998Z</time></trkpt><trkpt lat="45.959703380058045" lon="11.312462683974248"><ele>1353.0</ele><time>2026-04-26T11:38:00.998Z</time></trkpt><trkpt lat="45.95967129694845" lon="11.312262441603693"><ele>1353.25</ele><time>2026-04-26T11:38:01.998Z</time></trkpt><trkpt lat="45.95964346912092" lon="11.312074893892376"><ele>1353.5</ele><time>2026-04-26T11:38:02.998Z</time></trkpt><trkpt lat="45.95961608180465" lon="11.311897633516786"><ele>1353.75</ele><time>2026-04-26T11:38:03.998Z</time></trkpt><trkpt lat="45.95959205077908" lon="11.311717741917182"><ele>1354.0</ele><time>2026-04-26T11:38:04.998Z</time></trkpt><trkpt lat="45.959602255988806" lon="11.311526505660987"><ele>1356.0</ele><time>2026-04-26T11:38:05.998Z</time></trkpt><trkpt lat="45.95963003941748" lon="11.311318110781109"><ele>1358.0</ele><time>2026-04-26T11:38:06.998Z</time></trkpt><trkpt lat="45.959663667089416" lon="11.311077677726233"><ele>1360.0</ele><time>2026-04-26T11:38:07.998Z</time></trkpt><trkpt lat="45.95970294431987" lon="11.310804519048114"><ele>1360.0</ele><time>2026-04-26T11:38:08.998Z</time></trkpt><trkpt lat="45.959741988482136" lon="11.310512389713338"><ele>1360.0</ele><time>2026-04-26T11:38:09.998Z</time></trkpt><trkpt lat="45.959792379457404" lon="11.310214063428448"><ele>1360.0</ele><time>2026-04-26T11:38:10.998Z</time></trkpt><trkpt lat="45.95987176743002" lon="11.309910995471169"><ele>1359.0</ele><time>2026-04-26T11:38:11.998Z</time></trkpt><trkpt lat="45.95995842325694" lon="11.309608697532159"><ele>1358.0</ele><time>2026-04-26T11:38:12.998Z</time></trkpt><trkpt lat="45.96004405606156" lon="11.309313225395137"><ele>1353.3333333333335</ele><time>2026-04-26T11:38:13.998Z</time></trkpt><trkpt lat="45.96011577515775" lon="11.309020624226033"><ele>1348.6666666666667</ele><time>2026-04-26T11:38:14.998Z</time></trkpt><trkpt lat="45.96019630347789" lon="11.308738476613428"><ele>1344.0</ele><time>2026-04-26T11:38:15.998Z</time></trkpt><trkpt lat="45.96026631516283" lon="11.30847439638971"><ele>1343.0</ele><time>2026-04-26T11:38:16.998Z</time></trkpt><trkpt lat="45.96034030573387" lon="11.308231047839502"><ele>1342.0</ele><time>2026-04-26T11:38:17.998Z</time></trkpt><trkpt lat="45.96041185737594" lon="11.308011334398794"><ele>1341.0</ele><time>2026-04-26T11:38:18.998Z</time></trkpt><trkpt lat="45.960447375954686" lon="11.307799345590938"><ele>1340.3333333333333</ele><time>2026-04-26T11:38:19.998Z</time></trkpt><trkpt lat="45.96043603486492" lon="11.307596261195727"><ele>1339.6666666666665</ele><time>2026-04-26T11:38:20.998Z</time></trkpt><trkpt lat="45.96038687270708" lon="11.30739270473176"><ele>1339.0</ele><time>2026-04-26T11:38:21.998Z</time></trkpt><trkpt lat="45.96031305544484" lon="11.30718615926883"><ele>1339.0</ele><time>2026-04-26T11:38:22.998Z</time></trkpt><trkpt lat="45.96024003984929" lon="11.30698467419937"><ele>1339.0</ele><time>2026-04-26T11:38:23.998Z</time></trkpt><trkpt lat="45.960175282338646" lon="11.306773594242953"><ele>1339.0</ele><time>2026-04-26T11:38:24.998Z</time></trkpt><trkpt lat="45.960095512476165" lon="11.306581502900587"><ele>1342.25</ele><time>2026-04-26T11:38:25.998Z</time></trkpt><trkpt lat="45.95999908316687" lon="11.306398122273647"><ele>1345.5</ele><time>2026-04-26T11:38:26.998Z</time></trkpt><trkpt lat="45.95989605949596" lon="11.306245888819594"><ele>1348.75</ele><time>2026-04-26T11:38:27.998Z</time></trkpt><trkpt lat="45.95979285350882" lon="11.306126158018278"><ele>1352.0</ele><time>2026-04-26T11:38:29Z</time></trkpt><trkpt lat="45.95967504283418" lon="11.306056170753415"><ele>1352.0</ele><time>2026-04-26T11:38:30Z</time></trkpt><trkpt lat="45.95954515738998" lon="11.306023186556596"><ele>1352.0</ele><time>2026-04-26T11:38:31Z</time></trkpt><trkpt lat="45.95942775039843" lon="11.30599153310347"><ele>1352.0</ele><time>2026-04-26T11:38:32Z</time></trkpt><trkpt lat="45.9593203484547" lon="11.30592082928812"><ele>1352.0</ele><time>2026-04-26T11:38:33Z</time></trkpt><trkpt lat="45.959254119921795" lon="11.305774700764655"><ele>1351.75</ele><time>2026-04-26T11:38:34Z</time></trkpt><trkpt lat="45.959186815284866" lon="11.305613709476663"><ele>1351.5</ele><time>2026-04-26T11:38:35Z</time></trkpt><trkpt lat="45.95911906377668" lon="11.305468888606768"><ele>1351.25</ele><time>2026-04-26T11:38:36Z</time></trkpt><trkpt lat="45.95911764029899" lon="11.305301999694194"><ele>1351.0</ele><time>2026-04-26T11:38:37Z</time></trkpt><trkpt lat="45.95914120347205" lon="11.30510649073352"><ele>1351.6666666666665</ele><time>2026-04-26T11:38:38Z</time></trkpt><trkpt lat="45.959148530489216" lon="11.304904919635959"><ele>1352.3333333333333</ele><time>2026-04-26T11:38:39Z</time></trkpt><trkpt lat="45.959113721707546" lon="11.304694122021507"><ele>1353.0</ele><time>2026-04-26T11:38:40Z</time></trkpt><trkpt lat="45.959048575296684" lon="11.304460964954732"><ele>1353.0</ele><time>2026-04-26T11:38:41Z</time></trkpt><trkpt lat="45.95899835063446" lon="11.30425360228674"><ele>1353.0</ele><time>2026-04-26T11:38:42Z</time></trkpt><trkpt lat="45.95893560624217" lon="11.304066740312843"><ele>1353.0</ele><time>2026-04-26T11:38:43Z</time></trkpt><trkpt lat="45.958854203800826" lon="11.303882792998541"><ele>1353.0</ele><time>2026-04-26T11:38:44Z</time></trkpt><trkpt lat="45.95874684993362" lon="11.303733842791617"><ele>1351.0</ele><time>2026-04-26T11:38:45Z</time></trkpt><trkpt lat="45.95865129078966" lon="11.303592906922974"><ele>1349.0</ele><time>2026-04-26T11:38:46Z</time></trkpt><trkpt lat="45.95857635860494" lon="11.303465784116336"><ele>1347.0</ele><time>2026-04-26T11:38:47Z</time></trkpt><trkpt lat="45.95849599979392" lon="11.30336951833255"><ele>1345.0</ele><time>2026-04-26T11:38:48Z</time></trkpt><trkpt lat="45.95841613526095" lon="11.303320200070923"><ele>1343.0</ele><time>2026-04-26T11:38:49Z</time></trkpt><trkpt lat="45.958351394277145" lon="11.303275277124765"><ele>1339.4</ele><time>2026-04-26T11:38:50Z</time></trkpt><trkpt lat="45.95832541278086" lon="11.303192010654827"><ele>1335.8000000000002</ele><time>2026-04-26T11:38:51Z</time></trkpt><trkpt lat="45.958351013914964" lon="11.303080784195311"><ele>1332.2</ele><time>2026-04-26T11:38:52Z</time></trkpt><trkpt lat="45.95841251877109" lon="11.303005966899308"><ele>1328.6</ele><time>2026-04-26T11:38:53Z</time></trkpt><trkpt lat="45.958520884551554" lon="11.3029986299511"><ele>1325.0</ele><time>2026-04-26T11:38:54Z</time></trkpt><trkpt lat="45.95863146398304" lon="11.302948713371608"><ele>1325.0</ele><time>2026-04-26T11:38:55Z</time></trkpt><trkpt lat="45.95876715276356" lon="11.302915159516916"><ele>1325.0</ele><time>2026-04-26T11:38:56Z</time></trkpt><trkpt lat="45.958911073288355" lon="11.302847359262142"><ele>1325.0</ele><time>2026-04-26T11:38:57Z</time></trkpt><trkpt lat="45.959060060107525" lon="11.302723303042281"><ele>1325.0</ele><time>2026-04-26T11:38:58Z</time></trkpt><trkpt lat="45.959179839951155" lon="11.302565615211678"><ele>1325.0</ele><time>2026-04-26T11:38:59Z</time></trkpt><trkpt lat="45.959296108155634" lon="11.302394174757538"><ele>1325.0</ele><time>2026-04-26T11:39:00Z</time></trkpt><trkpt lat="45.95941789185647" lon="11.302246327791439"><ele>1320.5</ele><time>2026-04-26T11:39:01Z</time></trkpt><trkpt lat="45.95954568092071" lon="11.302126233829807"><ele>1316.0</ele><time>2026-04-26T11:39:02Z</time></trkpt><trkpt lat="45.95964953300386" lon="11.302015642339835"><ele>1311.5</ele><time>2026-04-26T11:39:03Z</time></trkpt><trkpt lat="45.95973931808618" lon="11.301908857929684"><ele>1307.0</ele><time>2026-04-26T11:39:04Z</time></trkpt><trkpt lat="45.95983697917941" lon="11.301859003395133"><ele>1307.0</ele><time>2026-04-26T11:39:05Z</time></trkpt><trkpt lat="45.959925576864784" lon="11.30188596468455"><ele>1307.0</ele><time>2026-04-26T11:39:06Z</time></trkpt><trkpt lat="45.95999896460081" lon="11.301964771473502"><ele>1307.0</ele><time>2026-04-26T11:39:06.999Z</time></trkpt><trkpt lat="45.96007859990643" lon="11.301999007385817"><ele>1307.0</ele><time>2026-04-26T11:39:07.999Z</time></trkpt><trkpt lat="45.9601397595435" lon="11.302040808837532"><ele>1307.0</ele><time>2026-04-26T11:39:08.999Z</time></trkpt><trkpt lat="45.960195802734816" lon="11.30197490668456"><ele>1307.0</ele><time>2026-04-26T11:39:09.999Z</time></trkpt><trkpt lat="45.96020746052742" lon="11.301840086996188"><ele>1299.75</ele><time>2026-04-26T11:39:10.999Z</time></trkpt><trkpt lat="45.960184165600054" lon="11.301707487698554"><ele>1292.5</ele><time>2026-04-26T11:39:11.999Z</time></trkpt><trkpt lat="45.96014077308891" lon="11.301557399400215"><ele>1285.25</ele><time>2026-04-26T11:39:12.999Z</time></trkpt><trkpt lat="45.96010907825635" lon="11.301398596378084"><ele>1278.0</ele><time>2026-04-26T11:39:13.999Z</time></trkpt><trkpt lat="45.96007051594273" lon="11.301217146337716"><ele>1281.25</ele><time>2026-04-26T11:39:14.999Z</time></trkpt><trkpt lat="45.96001530818627" lon="11.301024747435688"><ele>1284.5</ele><time>2026-04-26T11:39:15.999Z</time></trkpt><trkpt lat="45.95994203328904" lon="11.300843859540949"><ele>1287.75</ele><time>2026-04-26T11:39:16.999Z</time></trkpt><trkpt lat="45.95986556412463" lon="11.3006590757154"><ele>1291.0</ele><time>2026-04-26T11:39:17.999Z</time></trkpt><trkpt lat="45.95980608644061" lon="11.300490600611411"><ele>1291.0</ele><time>2026-04-26T11:39:18.999Z</time></trkpt><trkpt lat="45.95977649579584" lon="11.300321100500469"><ele>1291.0</ele><time>2026-04-26T11:39:19.999Z</time></trkpt><trkpt lat="45.9597767291556" lon="11.300130287867301"><ele>1291.0</ele><time>2026-04-26T11:39:20.999Z</time></trkpt><trkpt lat="45.95979564726861" lon="11.29992049719124"><ele>1291.0</ele><time>2026-04-26T11:39:21.999Z</time></trkpt><trkpt lat="45.95980333973361" lon="11.299692187570818"><ele>1288.5</ele><time>2026-04-26T11:39:22.999Z</time></trkpt><trkpt lat="45.95983898848858" lon="11.29947125435286"><ele>1286.0</ele><time>2026-04-26T11:39:23.999Z</time></trkpt><trkpt lat="45.9598342438367" lon="11.299251415716423"><ele>1283.5</ele><time>2026-04-26T11:39:24.999Z</time></trkpt><trkpt lat="45.95983676712763" lon="11.299053430614089"><ele>1281.0</ele><time>2026-04-26T11:39:25.999Z</time></trkpt><trkpt lat="45.95989412726794" lon="11.298880780213112"><ele>1279.25</ele><time>2026-04-26T11:39:26.999Z</time></trkpt><trkpt lat="45.95995577624272" lon="11.298718062726953"><ele>1277.5</ele><time>2026-04-26T11:39:27.999Z</time></trkpt><trkpt lat="45.95999737699482" lon="11.298554203057716"><ele>1275.75</ele><time>2026-04-26T11:39:28.999Z</time></trkpt><trkpt lat="45.9599871232703" lon="11.298377531742899"><ele>1274.0</ele><time>2026-04-26T11:39:29.999Z</time></trkpt><trkpt lat="45.95993475887877" lon="11.298213421109116"><ele>1272.0</ele><time>2026-04-26T11:39:30.999Z</time></trkpt><trkpt lat="45.959883595821395" lon="11.298061242333569"><ele>1270.0</ele><time>2026-04-26T11:39:31.999Z</time></trkpt><trkpt lat="45.959878429457085" lon="11.297919110853362"><ele>1268.0</ele><time>2026-04-26T11:39:32.999Z</time></trkpt><trkpt lat="45.9599177535346" lon="11.297788566266835"><ele>1266.0</ele><time>2026-04-26T11:39:33.999Z</time></trkpt><trkpt lat="45.96001486040685" lon="11.29772076892645"><ele>1264.0</ele><time>2026-04-26T11:39:34.999Z</time></trkpt><trkpt lat="45.96010768963024" lon="11.297706010296544"><ele>1263.0</ele><time>2026-04-26T11:39:35.999Z</time></trkpt><trkpt lat="45.96021538310861" lon="11.297715371490995"><ele>1262.0</ele><time>2026-04-26T11:39:36.999Z</time></trkpt><trkpt lat="45.9603588154961" lon="11.29772702880674"><ele>1261.0</ele><time>2026-04-26T11:39:37.999Z</time></trkpt><trkpt lat="45.960501690663136" lon="11.29775121574586"><ele>1260.0</ele><time>2026-04-26T11:39:38.999Z</time></trkpt><trkpt lat="45.96066137187396" lon="11.297729524753459"><ele>1260.0</ele><time>2026-04-26T11:39:39.999Z</time></trkpt><trkpt lat="45.96084209982305" lon="11.297669690149444"><ele>1260.0</ele><time>2026-04-26T11:39:40.999Z</time></trkpt><trkpt lat="45.9610163257078" lon="11.297586960627228"><ele>1260.0</ele><time>2026-04-26T11:39:41.999Z</time></trkpt><trkpt lat="45.96119069854407" lon="11.297510670189702"><ele>1258.0</ele><time>2026-04-26T11:39:42.999Z</time></trkpt><trkpt lat="45.961354306964644" lon="11.297443140673845"><ele>1256.0</ele><time>2026-04-26T11:39:43.999Z</time></trkpt><trkpt lat="45.961518527635185" lon="11.29740720894897"><ele>1254.0</ele><time>2026-04-26T11:39:44.999Z</time></trkpt><trkpt lat="45.96167665807915" lon="11.297341253914274"><ele>1254.3333333333333</ele><time>2026-04-26T11:39:45.999Z</time></trkpt><trkpt lat="45.96184064042936" lon="11.297339040877953"><ele>1254.6666666666665</ele><time>2026-04-26T11:39:46.999Z</time></trkpt><trkpt lat="45.962014854220975" lon="11.297331655122214"><ele>1255.0</ele><time>2026-04-26T11:39:47.999Z</time></trkpt><trkpt lat="45.96219849305638" lon="11.297348732343956"><ele>1255.0</ele><time>2026-04-26T11:39:48.999Z</time></trkpt><trkpt lat="45.96237857931204" lon="11.29738304696924"><ele>1255.0</ele><time>2026-04-26T11:39:49.999Z</time></trkpt><trkpt lat="45.96257826182061" lon="11.297421939335928"><ele>1255.0</ele><time>2026-04-26T11:39:50.999Z</time></trkpt><trkpt lat="45.9627713599708" lon="11.297436246285805"><ele>1256.6666666666665</ele><time>2026-04-26T11:39:51.998Z</time></trkpt><trkpt lat="45.96294903691258" lon="11.2974491529561"><ele>1258.3333333333333</ele><time>2026-04-26T11:39:52.998Z</time></trkpt><trkpt lat="45.96312743178035" lon="11.297419131146107"><ele>1260.0</ele><time>2026-04-26T11:39:53.998Z</time></trkpt><trkpt lat="45.96327250065646" lon="11.297348784745786"><ele>1263.0</ele><time>2026-04-26T11:39:54.998Z</time></trkpt><trkpt lat="45.963389612970744" lon="11.297277772532295"><ele>1266.0</ele><time>2026-04-26T11:39:55.998Z</time></trkpt><trkpt lat="45.96350677851334" lon="11.297219924760109"><ele>1269.0</ele><time>2026-04-26T11:39:56.998Z</time></trkpt><trkpt lat="45.96361832864281" lon="11.297193725774113"><ele>1272.0</ele><time>2026-04-26T11:39:57.998Z</time></trkpt><trkpt lat="45.96372298263207" lon="11.297175374402856"><ele>1272.0</ele><time>2026-04-26T11:39:58.998Z</time></trkpt><trkpt lat="45.96380722649515" lon="11.29712334493822"><ele>1272.0</ele><time>2026-04-26T11:39:59.998Z</time></trkpt><trkpt lat="45.963880084488366" lon="11.29703978089911"><ele>1272.0</ele><time>2026-04-26T11:40:00.998Z</time></trkpt><trkpt lat="45.96392290655303" lon="11.29690558398667"><ele>1272.0</ele><time>2026-04-26T11:40:01.998Z</time></trkpt><trkpt lat="45.9639449782424" lon="11.296759633968987"><ele>1272.0</ele><time>2026-04-26T11:40:02.998Z</time></trkpt><trkpt lat="45.96399114783709" lon="11.296631764306683"><ele>1272.0</ele><time>2026-04-26T11:40:03.998Z</time></trkpt><trkpt lat="45.96406279436446" lon="11.2965171916063"><ele>1272.0</ele><time>2026-04-26T11:40:04.998Z</time></trkpt><trkpt lat="45.964134377513254" lon="11.296398056689023"><ele>1272.0</ele><time>2026-04-26T11:40:05.998Z</time></trkpt><trkpt lat="45.964237109248224" lon="11.296293865708433"><ele>1272.0</ele><time>2026-04-26T11:40:06.998Z</time></trkpt><trkpt lat="45.96434059376866" lon="11.296188625432391"><ele>1275.0</ele><time>2026-04-26T11:40:07.998Z</time></trkpt><trkpt lat="45.9644472896244" lon="11.296097901057626"><ele>1278.0</ele><time>2026-04-26T11:40:08.998Z</time></trkpt><trkpt lat="45.96454462991369" lon="11.296017984468014"><ele>1281.0</ele><time>2026-04-26T11:40:09.998Z</time></trkpt><trkpt lat="45.96463048720106" lon="11.295950560360348"><ele>1284.0</ele><time>2026-04-26T11:40:10.998Z</time></trkpt><trkpt lat="45.964702438426606" lon="11.295902312791691"><ele>1287.0</ele><time>2026-04-26T11:40:11.998Z</time></trkpt><trkpt lat="45.96476246053401" lon="11.295850753667207"><ele>1287.0</ele><time>2026-04-26T11:40:12.998Z</time></trkpt><trkpt lat="45.9648141097934" lon="11.295775026516743"><ele>1287.0</ele><time>2026-04-26T11:40:13.998Z</time></trkpt><trkpt lat="45.96486294172687" lon="11.29570195736334"><ele>1287.0</ele><time>2026-04-26T11:40:14.998Z</time></trkpt><trkpt lat="45.96490520314923" lon="11.295618319734828"><ele>1287.0</ele><time>2026-04-26T11:40:15.998Z</time></trkpt><trkpt lat="45.9649424044358" lon="11.295538962675025"><ele>1287.0</ele><time>2026-04-26T11:40:16.998Z</time></trkpt><trkpt lat="45.96500977733253" lon="11.295394257821577"><ele>1287.0</ele><time>2026-04-26T11:40:18.998Z</time></trkpt><trkpt lat="45.96505155099621" lon="11.295315310757536"><ele>1285.8333333333333</ele><time>2026-04-26T11:40:19.998Z</time></trkpt><trkpt lat="45.96509637141974" lon="11.29523352074377"><ele>1284.6666666666667</ele><time>2026-04-26T11:40:20.998Z</time></trkpt><trkpt lat="45.96516073010783" lon="11.29516816780309"><ele>1283.5</ele><time>2026-04-26T11:40:21.998Z</time></trkpt><trkpt lat="45.96522253019586" lon="11.295098203749216"><ele>1282.3333333333335</ele><time>2026-04-26T11:40:22.998Z</time></trkpt><trkpt lat="45.96528704470008" lon="11.295025166194236"><ele>1281.1666666666667</ele><time>2026-04-26T11:40:23.998Z</time></trkpt><trkpt lat="45.96535226548569" lon="11.294952541542893"><ele>1280.0</ele><time>2026-04-26T11:40:24.998Z</time></trkpt><trkpt lat="45.96541215385078" lon="11.294864180559552"><ele>1280.0</ele><time>2026-04-26T11:40:25.998Z</time></trkpt><trkpt lat="45.965492914313465" lon="11.29481920816918"><ele>1280.0</ele><time>2026-04-26T11:40:26.998Z</time></trkpt><trkpt lat="45.96557199099361" lon="11.294764023166776"><ele>1280.0</ele><time>2026-04-26T11:40:27.998Z</time></trkpt><trkpt lat="45.9656588133184" lon="11.294717388276343"><ele>1280.0</ele><time>2026-04-26T11:40:28.998Z</time></trkpt><trkpt lat="45.96574578597644" lon="11.294671367622701"><ele>1280.0</ele><time>2026-04-26T11:40:29.998Z</time></trkpt><trkpt lat="45.96583984099708" lon="11.294649974720341"><ele>1273.6</ele><time>2026-04-26T11:40:30.998Z</time></trkpt><trkpt lat="45.96593613854268" lon="11.294657343331114"><ele>1267.2</ele><time>2026-04-26T11:40:31.998Z</time></trkpt><trkpt lat="45.96602818058366" lon="11.294624679268862"><ele>1260.8</ele><time>2026-04-26T11:40:32.998Z</time></trkpt><trkpt lat="45.96612269435921" lon="11.294620426067528"><ele>1254.4</ele><time>2026-04-26T11:40:33.998Z</time></trkpt><trkpt lat="45.96620695090676" lon="11.294619165310765"><ele>1248.0</ele><time>2026-04-26T11:40:35Z</time></trkpt><trkpt lat="45.966287908084475" lon="11.294611429023462"><ele>1248.0</ele><time>2026-04-26T11:40:36Z</time></trkpt><trkpt lat="45.96637145612464" lon="11.294606363688667"><ele>1248.0</ele><time>2026-04-26T11:40:37Z</time></trkpt><trkpt lat="45.96645590946808" lon="11.2946422450285"><ele>1248.0</ele><time>2026-04-26T11:40:38Z</time></trkpt><trkpt lat="45.96653456886304" lon="11.294704461518736"><ele>1248.0</ele><time>2026-04-26T11:40:39Z</time></trkpt><trkpt lat="45.96660884154274" lon="11.294801248437983"><ele>1248.0</ele><time>2026-04-26T11:40:40Z</time></trkpt><trkpt lat="45.9666659588328" lon="11.294916359659204"><ele>1250.2</ele><time>2026-04-26T11:40:41Z</time></trkpt><trkpt lat="45.966712481716286" lon="11.2950284558002"><ele>1252.4</ele><time>2026-04-26T11:40:42Z</time></trkpt><trkpt lat="45.9667638200117" lon="11.295132246474125"><ele>1254.6000000000001</ele><time>2026-04-26T11:40:43Z</time></trkpt><trkpt lat="45.96681278999874" lon="11.295239077706054"><ele>1256.8</ele><time>2026-04-26T11:40:44Z</time></trkpt><trkpt lat="45.966889487233516" lon="11.29533070638558"><ele>1259.0</ele><time>2026-04-26T11:40:45Z</time></trkpt><trkpt lat="45.96699460255448" lon="11.295388595356874"><ele>1259.0</ele><time>2026-04-26T11:40:46Z</time></trkpt><trkpt lat="45.96711487409511" lon="11.295403654924131"><ele>1259.0</ele><time>2026-04-26T11:40:47Z</time></trkpt><trkpt lat="45.96724121932358" lon="11.29536602443191"><ele>1259.0</ele><time>2026-04-26T11:40:48Z</time></trkpt><trkpt lat="45.967351738333605" lon="11.29525060690493"><ele>1259.0</ele><time>2026-04-26T11:40:49Z</time></trkpt><trkpt lat="45.96743524825604" lon="11.295090786195784"><ele>1259.0</ele><time>2026-04-26T11:40:50Z</time></trkpt><trkpt lat="45.96750727350666" lon="11.294913922256093"><ele>1259.0</ele><time>2026-04-26T11:40:51Z</time></trkpt><trkpt lat="45.96759309796769" lon="11.294719491522"><ele>1259.0</ele><time>2026-04-26T11:40:52Z</time></trkpt><trkpt lat="45.96765362769245" lon="11.294600166172183"><ele>1259.0</ele><time>2026-04-26T11:40:53Z</time></trkpt><trkpt lat="45.9677448284346" lon="11.2944655165948"><ele>1256.0</ele><time>2026-04-26T11:40:54Z</time></trkpt><trkpt lat="45.96785177563186" lon="11.294336768300004"><ele>1253.0</ele><time>2026-04-26T11:40:55Z</time></trkpt><trkpt lat="45.96794220550206" lon="11.294194746457428"><ele>1250.0</ele><time>2026-04-26T11:40:56Z</time></trkpt><trkpt lat="45.96801986682284" lon="11.293997775893203"><ele>1247.0</ele><time>2026-04-26T11:40:57Z</time></trkpt><trkpt lat="45.96802263045561" lon="11.293838664123696"><ele>1242.0</ele><time>2026-04-26T11:40:58Z</time></trkpt><trkpt lat="45.968011985455206" lon="11.29367934339184"><ele>1237.0</ele><time>2026-04-26T11:40:59Z</time></trkpt><trkpt lat="45.968011690191126" lon="11.293531583761826"><ele>1232.0</ele><time>2026-04-26T11:41:00Z</time></trkpt><trkpt lat="45.9680660542033" lon="11.29345843688945"><ele>1227.0</ele><time>2026-04-26T11:41:01Z</time></trkpt><trkpt lat="45.96813619654184" lon="11.293422315528893"><ele>1222.0</ele><time>2026-04-26T11:41:02Z</time></trkpt><trkpt lat="45.96820895604283" lon="11.29340283758166"><ele>1217.0</ele><time>2026-04-26T11:41:03Z</time></trkpt><trkpt lat="45.96829765654804" lon="11.29337313457758"><ele>1214.8</ele><time>2026-04-26T11:41:04Z</time></trkpt><trkpt lat="45.968398044509804" lon="11.2933468446188"><ele>1212.6</ele><time>2026-04-26T11:41:05Z</time></trkpt><trkpt lat="45.96848377984607" lon="11.29336146733647"><ele>1210.3999999999999</ele><time>2026-04-26T11:41:06Z</time></trkpt><trkpt lat="45.968576050257646" lon="11.293416237348021"><ele>1208.2</ele><time>2026-04-26T11:41:07Z</time></trkpt><trkpt lat="45.968664180542696" lon="11.293485144700563"><ele>1206.0</ele><time>2026-04-26T11:41:08Z</time></trkpt><trkpt lat="45.96877157781493" lon="11.293565615995425"><ele>1206.0</ele><time>2026-04-26T11:41:09Z</time></trkpt><trkpt lat="45.9688956621086" lon="11.293649730791108"><ele>1206.0</ele><time>2026-04-26T11:41:10Z</time></trkpt><trkpt lat="45.96903499670931" lon="11.293724410347224"><ele>1206.0</ele><time>2026-04-26T11:41:11Z</time></trkpt><trkpt lat="45.96918953515007" lon="11.293791509842968"><ele>1206.0</ele><time>2026-04-26T11:41:11.999Z</time></trkpt><trkpt lat="45.96935736366616" lon="11.29382416625396"><ele>1203.3333333333333</ele><time>2026-04-26T11:41:12.999Z</time></trkpt><trkpt lat="45.9695390799983" lon="11.293834700201712"><ele>1200.6666666666665</ele><time>2026-04-26T11:41:13.999Z</time></trkpt><trkpt lat="45.96972967924532" lon="11.293831325693484"><ele>1198.0</ele><time>2026-04-26T11:41:14.999Z</time></trkpt><trkpt lat="45.96993712965786" lon="11.29379990281404"><ele>1198.6666666666665</ele><time>2026-04-26T11:41:15.999Z</time></trkpt><trkpt lat="45.970150118460964" lon="11.293720626829522"><ele>1199.3333333333333</ele><time>2026-04-26T11:41:16.999Z</time></trkpt><trkpt lat="45.970350892220345" lon="11.29363785019897"><ele>1200.0</ele><time>2026-04-26T11:41:17.999Z</time></trkpt><trkpt lat="45.970516290069156" lon="11.293569664622233"><ele>1200.0</ele><time>2026-04-26T11:41:18.999Z</time></trkpt><trkpt lat="45.970742515045764" lon="11.293476444527455"><ele>1200.0</ele><time>2026-04-26T11:41:19.999Z</time></trkpt><trkpt lat="45.97065925578423" lon="11.29351072660563"><ele>1200.0</ele><time>2026-04-26T11:41:20.999Z</time></trkpt><trkpt lat="45.970814269226906" lon="11.29344741201225"><ele>1198.5</ele><time>2026-04-26T11:41:21.999Z</time></trkpt><trkpt lat="45.97095865133484" lon="11.29338568350003"><ele>1197.0</ele><time>2026-04-26T11:41:22.999Z</time></trkpt><trkpt lat="45.97108837433263" lon="11.293264457258731"><ele>1195.5</ele><time>2026-04-26T11:41:23.999Z</time></trkpt><trkpt lat="45.97120448200042" lon="11.293145811760171"><ele>1194.0</ele><time>2026-04-26T11:41:24.999Z</time></trkpt><trkpt lat="45.97129176367675" lon="11.293002646988747"><ele>1191.8</ele><time>2026-04-26T11:41:25.999Z</time></trkpt><trkpt lat="45.9713877530832" lon="11.292916635131242"><ele>1189.6000000000001</ele><time>2026-04-26T11:41:26.999Z</time></trkpt><trkpt lat="45.97149137534098" lon="11.292865040046824"><ele>1187.4</ele><time>2026-04-26T11:41:27.999Z</time></trkpt><trkpt lat="45.97159230633223" lon="11.29285783556172"><ele>1185.2</ele><time>2026-04-26T11:41:28.999Z</time></trkpt><trkpt lat="45.971690917877055" lon="11.292837222049812"><ele>1183.0</ele><time>2026-04-26T11:41:29.999Z</time></trkpt><trkpt lat="45.971771780279084" lon="11.29282031885893"><ele>1183.0</ele><time>2026-04-26T11:41:30.999Z</time></trkpt><trkpt lat="45.97183143335663" lon="11.292762346909884"><ele>1183.0</ele><time>2026-04-26T11:41:31.999Z</time></trkpt><trkpt lat="45.971812030748744" lon="11.29261193960449"><ele>1183.0</ele><time>2026-04-26T11:41:32.999Z</time></trkpt><trkpt lat="45.97173812073857" lon="11.292556428151771"><ele>1183.0</ele><time>2026-04-26T11:41:33.999Z</time></trkpt><trkpt lat="45.971649318819935" lon="11.292569449603128"><ele>1183.0</ele><time>2026-04-26T11:41:34.999Z</time></trkpt><trkpt lat="45.97154493866945" lon="11.292602445202078"><ele>1183.0</ele><time>2026-04-26T11:41:35.999Z</time></trkpt><trkpt lat="45.97142724589021" lon="11.292621530375929"><ele>1183.0</ele><time>2026-04-26T11:41:36.999Z</time></trkpt><trkpt lat="45.971312021838486" lon="11.292611353738703"><ele>1183.0</ele><time>2026-04-26T11:41:37.999Z</time></trkpt><trkpt lat="45.97121403756669" lon="11.292615855574764"><ele>1183.0</ele><time>2026-04-26T11:41:38.999Z</time></trkpt><trkpt lat="45.97110114837905" lon="11.292688584368335"><ele>1183.0</ele><time>2026-04-26T11:41:39.999Z</time></trkpt><trkpt lat="45.971018176605064" lon="11.292817974757083"><ele>1183.0</ele><time>2026-04-26T11:41:40.999Z</time></trkpt><trkpt lat="45.9709259794769" lon="11.292935174738165"><ele>1183.0</ele><time>2026-04-26T11:41:41.999Z</time></trkpt><trkpt lat="45.97081045372057" lon="11.29294813960598"><ele>1183.0</ele><time>2026-04-26T11:41:42.999Z</time></trkpt><trkpt lat="45.97068114071328" lon="11.292935788268013"><ele>1178.75</ele><time>2026-04-26T11:41:43.999Z</time></trkpt><trkpt lat="45.970541695795696" lon="11.292925541886813"><ele>1174.5</ele><time>2026-04-26T11:41:44.999Z</time></trkpt><trkpt lat="45.970402986075285" lon="11.292915349535146"><ele>1170.25</ele><time>2026-04-26T11:41:45.999Z</time></trkpt><trkpt lat="45.97025950873124" lon="11.29290558317986"><ele>1166.0</ele><time>2026-04-26T11:41:46.999Z</time></trkpt><trkpt lat="45.970128592701734" lon="11.292907220433536"><ele>1164.3999999999999</ele><time>2026-04-26T11:41:47.999Z</time></trkpt><trkpt lat="45.97000989632408" lon="11.292877489695307"><ele>1162.8</ele><time>2026-04-26T11:41:48.999Z</time></trkpt><trkpt lat="45.96989789712476" lon="11.29281076159662"><ele>1161.1999999999998</ele><time>2026-04-26T11:41:49.999Z</time></trkpt><trkpt lat="45.969828919883334" lon="11.292694582196287"><ele>1159.6</ele><time>2026-04-26T11:41:50.999Z</time></trkpt><trkpt lat="45.96980513693479" lon="11.292553030880303"><ele>1158.0</ele><time>2026-04-26T11:41:51.999Z</time></trkpt><trkpt lat="45.969777914006706" lon="11.292389032589917"><ele>1152.4</ele><time>2026-04-26T11:41:52.999Z</time></trkpt><trkpt lat="45.96973697321612" lon="11.292245526587534"><ele>1146.8</ele><time>2026-04-26T11:41:53.999Z</time></trkpt><trkpt lat="45.9696813179178" lon="11.292130258216217"><ele>1141.2</ele><time>2026-04-26T11:41:54.999Z</time></trkpt><trkpt lat="45.96955500248029" lon="11.29211096078944"><ele>1135.6</ele><time>2026-04-26T11:41:55.998Z</time></trkpt><trkpt lat="45.96945401279875" lon="11.292151076381852"><ele>1130.0</ele><time>2026-04-26T11:41:56.998Z</time></trkpt><trkpt lat="45.96936688759954" lon="11.292252827706095"><ele>1130.0</ele><time>2026-04-26T11:41:57.998Z</time></trkpt><trkpt lat="45.96933231621571" lon="11.292378441171824"><ele>1130.0</ele><time>2026-04-26T11:41:58.998Z</time></trkpt><trkpt lat="45.96934239680966" lon="11.292509849924832"><ele>1130.0</ele><time>2026-04-26T11:41:59.998Z</time></trkpt><trkpt lat="45.96925273633652" lon="11.292463431116436"><ele>1130.0</ele><time>2026-04-26T11:42:01.998Z</time></trkpt><trkpt lat="45.96926004140283" lon="11.292367435215864"><ele>1130.0</ele><time>2026-04-26T11:42:02.998Z</time></trkpt><trkpt lat="45.96933957046067" lon="11.292296006843186"><ele>1130.0</ele><time>2026-04-26T11:42:03.998Z</time></trkpt><trkpt lat="45.9693822807058" lon="11.292179330666867"><ele>1130.0</ele><time>2026-04-26T11:42:04.998Z</time></trkpt><trkpt lat="45.96946635291905" lon="11.292071922494511"><ele>1130.0</ele><time>2026-04-26T11:42:05.998Z</time></trkpt><trkpt lat="45.9695736839611" lon="11.292021256016868"><ele>1130.0</ele><time>2026-04-26T11:42:06.998Z</time></trkpt><trkpt lat="45.969680010093164" lon="11.291966562689701"><ele>1130.0</ele><time>2026-04-26T11:42:07.998Z</time></trkpt><trkpt lat="45.96979686243055" lon="11.29194401181855"><ele>1130.0</ele><time>2026-04-26T11:42:08.998Z</time></trkpt><trkpt lat="45.96989621609936" lon="11.291919874256795"><ele>1130.0</ele><time>2026-04-26T11:42:09.998Z</time></trkpt><trkpt lat="45.96999556004243" lon="11.291996591499375"><ele>1130.0</ele><time>2026-04-26T11:42:10.998Z</time></trkpt><trkpt lat="45.970069428311916" lon="11.292101391880758"><ele>1130.0</ele><time>2026-04-26T11:42:11.998Z</time></trkpt><trkpt lat="45.970163294318574" lon="11.292133876145048"><ele>1130.0</ele><time>2026-04-26T11:42:12.998Z</time></trkpt><trkpt lat="45.97026872506725" lon="11.292136419378071"><ele>1130.0</ele><time>2026-04-26T11:42:13.998Z</time></trkpt><trkpt lat="45.9703996489291" lon="11.292072150448439"><ele>1130.0</ele><time>2026-04-26T11:42:14.998Z</time></trkpt><trkpt lat="45.97054260649843" lon="11.29202122577333"><ele>1130.0</ele><time>2026-04-26T11:42:15.998Z</time></trkpt><trkpt lat="45.970702598768334" lon="11.291945307265008"><ele>1132.3333333333335</ele><time>2026-04-26T11:42:16.998Z</time></trkpt><trkpt lat="45.97087680809992" lon="11.291854247128844"><ele>1134.6666666666667</ele><time>2026-04-26T11:42:17.998Z</time></trkpt><trkpt lat="45.971032420189886" lon="11.291771107916391"><ele>1137.0</ele><time>2026-04-26T11:42:18.998Z</time></trkpt><trkpt lat="45.971180598131866" lon="11.291687866021826"><ele>1137.0</ele><time>2026-04-26T11:42:19.998Z</time></trkpt><trkpt lat="45.97133378464918" lon="11.291639653501084"><ele>1137.0</ele><time>2026-04-26T11:42:20.998Z</time></trkpt><trkpt lat="45.97149168371232" lon="11.291603050164413"><ele>1137.0</ele><time>2026-04-26T11:42:21.998Z</time></trkpt><trkpt lat="45.9716494258089" lon="11.291561159626037"><ele>1138.75</ele><time>2026-04-26T11:42:22.998Z</time></trkpt><trkpt lat="45.971795361356435" lon="11.291478790363838"><ele>1140.5</ele><time>2026-04-26T11:42:23.998Z</time></trkpt><trkpt lat="45.97190755908672" lon="11.291381951756339"><ele>1142.25</ele><time>2026-04-26T11:42:24.998Z</time></trkpt><trkpt lat="45.9720155015391" lon="11.29123246193044"><ele>1144.0</ele><time>2026-04-26T11:42:25.998Z</time></trkpt><trkpt lat="45.97212784938878" lon="11.291141611615556"><ele>1133.6666666666665</ele><time>2026-04-26T11:42:26.998Z</time></trkpt><trkpt lat="45.97225566971448" lon="11.291109667414208"><ele>1123.3333333333333</ele><time>2026-04-26T11:42:27.998Z</time></trkpt><trkpt lat="45.97241321393447" lon="11.29104794509174"><ele>1113.0</ele><time>2026-04-26T11:42:28.998Z</time></trkpt><trkpt lat="45.97256706328873" lon="11.290980413628953"><ele>1113.0</ele><time>2026-04-26T11:42:29.998Z</time></trkpt><trkpt lat="45.97270433490118" lon="11.29091921244959"><ele>1113.0</ele><time>2026-04-26T11:42:30.998Z</time></trkpt><trkpt lat="45.97283412352707" lon="11.290861347575852"><ele>1113.0</ele><time>2026-04-26T11:42:31.998Z</time></trkpt><trkpt lat="45.972953804587405" lon="11.290784320056007"><ele>1113.0</ele><time>2026-04-26T11:42:32.998Z</time></trkpt><trkpt lat="45.97306842838093" lon="11.290672382380059"><ele>1103.0</ele><time>2026-04-26T11:42:33.998Z</time></trkpt><trkpt lat="45.97315975604162" lon="11.290504810695534"><ele>1093.0</ele><time>2026-04-26T11:42:34.998Z</time></trkpt><trkpt lat="45.97325497720605" lon="11.290360976915503"><ele>1083.0</ele><time>2026-04-26T11:42:35.998Z</time></trkpt><trkpt lat="45.9733264060364" lon="11.2902256948917"><ele>1073.0</ele><time>2026-04-26T11:42:36.998Z</time></trkpt><trkpt lat="45.973384426632244" lon="11.290116040787673"><ele>1072.6666666666667</ele><time>2026-04-26T11:42:37.998Z</time></trkpt><trkpt lat="45.973437016462796" lon="11.290023484936027"><ele>1072.3333333333335</ele><time>2026-04-26T11:42:38.998Z</time></trkpt><trkpt lat="45.97349114864018" lon="11.289946940372845"><ele>1072.0</ele><time>2026-04-26T11:42:39.998Z</time></trkpt><trkpt lat="45.97355683031416" lon="11.28991856531978"><ele>1071.6666666666667</ele><time>2026-04-26T11:42:41Z</time></trkpt><trkpt lat="45.9736299244654" lon="11.289956252794228"><ele>1071.3333333333333</ele><time>2026-04-26T11:42:42Z</time></trkpt><trkpt lat="45.973738402748694" lon="11.289988055028322"><ele>1071.0</ele><time>2026-04-26T11:42:43Z</time></trkpt><trkpt lat="45.97383936999267" lon="11.290030360254894"><ele>1071.0</ele><time>2026-04-26T11:42:44Z</time></trkpt><trkpt lat="45.97392605708922" lon="11.29010550232912"><ele>1071.0</ele><time>2026-04-26T11:42:45Z</time></trkpt><trkpt lat="45.97401422359924" lon="11.29019333711148"><ele>1071.0</ele><time>2026-04-26T11:42:46Z</time></trkpt><trkpt lat="45.97411696132914" lon="11.290243550496045"><ele>1071.0</ele><time>2026-04-26T11:42:47Z</time></trkpt><trkpt lat="45.9742365859856" lon="11.290239247703632"><ele>1071.0</ele><time>2026-04-26T11:42:48Z</time></trkpt><trkpt lat="45.974343474569196" lon="11.290229294465906"><ele>1068.8</ele><time>2026-04-26T11:42:49Z</time></trkpt><trkpt lat="45.974449114640734" lon="11.290213523126102"><ele>1066.6</ele><time>2026-04-26T11:42:50Z</time></trkpt><trkpt lat="45.97451551213517" lon="11.290072283789993"><ele>1064.4</ele><time>2026-04-26T11:42:51Z</time></trkpt><trkpt lat="45.974584077986535" lon="11.28998681565488"><ele>1062.2</ele><time>2026-04-26T11:42:52Z</time></trkpt><trkpt lat="45.97465624963942" lon="11.289952819517824"><ele>1060.0</ele><time>2026-04-26T11:42:53Z</time></trkpt><trkpt lat="45.97473076524091" lon="11.289970424922236"><ele>1060.0</ele><time>2026-04-26T11:42:54Z</time></trkpt><trkpt lat="45.97483341222762" lon="11.289969692956365"><ele>1060.0</ele><time>2026-04-26T11:42:55Z</time></trkpt><trkpt lat="45.974941969832365" lon="11.289971424218363"><ele>1060.0</ele><time>2026-04-26T11:42:56Z</time></trkpt><trkpt lat="45.97503881461375" lon="11.289982980926876"><ele>1060.0</ele><time>2026-04-26T11:42:57Z</time></trkpt><trkpt lat="45.975133893245186" lon="11.290016869218045"><ele>1060.0</ele><time>2026-04-26T11:42:58Z</time></trkpt><trkpt lat="45.97521859710815" lon="11.29009906718843"><ele>1056.0</ele><time>2026-04-26T11:42:59Z</time></trkpt><trkpt lat="45.975320741136585" lon="11.290160260233291"><ele>1052.0</ele><time>2026-04-26T11:43:00Z</time></trkpt><trkpt lat="45.97542638391185" lon="11.290235163186491"><ele>1048.0</ele><time>2026-04-26T11:43:01Z</time></trkpt><trkpt lat="45.97553449385773" lon="11.290291821520816"><ele>1044.0</ele><time>2026-04-26T11:43:02Z</time></trkpt><trkpt lat="45.97563191575738" lon="11.29033316281739"><ele>1040.0</ele><time>2026-04-26T11:43:03Z</time></trkpt><trkpt lat="45.97572582886797" lon="11.290335541438766"><ele>1040.0</ele><time>2026-04-26T11:43:04Z</time></trkpt><trkpt lat="45.97582360723747" lon="11.290315098547696"><ele>1040.0</ele><time>2026-04-26T11:43:05Z</time></trkpt><trkpt lat="45.97590903102844" lon="11.290217279256499"><ele>1040.0</ele><time>2026-04-26T11:43:06Z</time></trkpt><trkpt lat="45.9759943102591" lon="11.290170344006837"><ele>1040.0</ele><time>2026-04-26T11:43:07Z</time></trkpt><trkpt lat="45.9760747792674" lon="11.290143299487607"><ele>1040.0</ele><time>2026-04-26T11:43:08Z</time></trkpt><trkpt lat="45.97614963400201" lon="11.290112045318756"><ele>1031.6666666666667</ele><time>2026-04-26T11:43:09Z</time></trkpt><trkpt lat="45.97622125793622" lon="11.290097946222017"><ele>1023.3333333333334</ele><time>2026-04-26T11:43:10Z</time></trkpt><trkpt lat="45.97625673260276" lon="11.289990762199725"><ele>1015.0</ele><time>2026-04-26T11:43:11Z</time></trkpt><trkpt lat="45.97622215380343" lon="11.289869756726334"><ele>1006.6666666666667</ele><time>2026-04-26T11:43:11.999Z</time></trkpt><trkpt lat="45.97612717249448" lon="11.289822073479757"><ele>998.3333333333334</ele><time>2026-04-26T11:43:12.999Z</time></trkpt><trkpt lat="45.976040285455184" lon="11.289837934390887"><ele>990.0</ele><time>2026-04-26T11:43:13.999Z</time></trkpt><trkpt lat="45.9759487393051" lon="11.289912537617981"><ele>1000.0</ele><time>2026-04-26T11:43:14.999Z</time></trkpt><trkpt lat="45.975853190863106" lon="11.2899875312289"><ele>1010.0</ele><time>2026-04-26T11:43:15.999Z</time></trkpt><trkpt lat="45.97575149276681" lon="11.290054462984717"><ele>1020.0</ele><time>2026-04-26T11:43:16.999Z</time></trkpt><trkpt lat="45.975655063231414" lon="11.290093981332305"><ele>1030.0</ele><time>2026-04-26T11:43:17.999Z</time></trkpt><trkpt lat="45.97555373959087" lon="11.290075636861998"><ele>1040.0</ele><time>2026-04-26T11:43:18.999Z</time></trkpt><trkpt lat="45.975457242622085" lon="11.290001843654917"><ele>1040.0</ele><time>2026-04-26T11:43:19.999Z</time></trkpt><trkpt lat="45.97536324432727" lon="11.289934864723376"><ele>1040.0</ele><time>2026-04-26T11:43:20.999Z</time></trkpt><trkpt lat="45.975273864202244" lon="11.289847112219736"><ele>1040.0</ele><time>2026-04-26T11:43:21.999Z</time></trkpt><trkpt lat="45.97524867901178" lon="11.28970572376761"><ele>1040.0</ele><time>2026-04-26T11:43:22.999Z</time></trkpt><trkpt lat="45.97519099194272" lon="11.28960309625229"><ele>1040.0</ele><time>2026-04-26T11:43:23.999Z</time></trkpt><trkpt lat="45.97512301315671" lon="11.289506407521765"><ele>1035.2</ele><time>2026-04-26T11:43:24.999Z</time></trkpt><trkpt lat="45.97501965460999" lon="11.289453664433124"><ele>1030.4</ele><time>2026-04-26T11:43:25.999Z</time></trkpt><trkpt lat="45.97492114374028" lon="11.289416324410169"><ele>1025.6</ele><time>2026-04-26T11:43:26.999Z</time></trkpt><trkpt lat="45.974840383255625" lon="11.289396405203648"><ele>1020.8</ele><time>2026-04-26T11:43:27.999Z</time></trkpt><trkpt lat="45.97477030924598" lon="11.289350777343213"><ele>1016.0</ele><time>2026-04-26T11:43:28.999Z</time></trkpt><trkpt lat="45.97472720160013" lon="11.289220537093215"><ele>1016.0000000000001</ele><time>2026-04-26T11:43:29.999Z</time></trkpt><trkpt lat="45.97467169722646" lon="11.289129883049284"><ele>1016.0</ele><time>2026-04-26T11:43:30.999Z</time></trkpt><trkpt lat="45.97461115176995" lon="11.289048792158537"><ele>1016.0</ele><time>2026-04-26T11:43:31.999Z</time></trkpt><trkpt lat="45.97452679186764" lon="11.28898931791642"><ele>1016.0</ele><time>2026-04-26T11:43:32.999Z</time></trkpt><trkpt lat="45.974437293043245" lon="11.288969554407995"><ele>1016.0000000000001</ele><time>2026-04-26T11:43:33.999Z</time></trkpt><trkpt lat="45.974353743575975" lon="11.288969440531444"><ele>1016.0</ele><time>2026-04-26T11:43:34.999Z</time></trkpt><trkpt lat="45.974275686286475" lon="11.288939794902234"><ele>1016.0000000000001</ele><time>2026-04-26T11:43:35.999Z</time></trkpt><trkpt lat="45.97421183101994" lon="11.288937836058558"><ele>1016.0</ele><time>2026-04-26T11:43:36.999Z</time></trkpt><trkpt lat="45.974155645705665" lon="11.289019609315742"><ele>1016.0</ele><time>2026-04-26T11:43:37.999Z</time></trkpt><trkpt lat="45.97413871722332" lon="11.289146170273245"><ele>1016.0</ele><time>2026-04-26T11:43:38.999Z</time></trkpt><trkpt lat="45.97411367791292" lon="11.289247756343157"><ele>1016.0000000000001</ele><time>2026-04-26T11:43:39.999Z</time></trkpt><trkpt lat="45.97406102272036" lon="11.289314558682822"><ele>1016.0</ele><time>2026-04-26T11:43:40.999Z</time></trkpt><trkpt lat="45.97393582023836" lon="11.289294931850714"><ele>1017.8333333333334</ele><time>2026-04-26T11:43:42.999Z</time></trkpt><trkpt lat="45.97386575471539" lon="11.28925364074318"><ele>1019.6666666666667</ele><time>2026-04-26T11:43:43.999Z</time></trkpt><trkpt lat="45.973804869818515" lon="11.289183628031012"><ele>1021.5</ele><time>2026-04-26T11:43:44.999Z</time></trkpt><trkpt lat="45.973729812992154" lon="11.289149349605953"><ele>1023.3333333333333</ele><time>2026-04-26T11:43:45.999Z</time></trkpt><trkpt lat="45.97364520404111" lon="11.289130153204447"><ele>1025.1666666666665</ele><time>2026-04-26T11:43:46.999Z</time></trkpt><trkpt lat="45.97354772676191" lon="11.289115860846001"><ele>1027.0</ele><time>2026-04-26T11:43:47.999Z</time></trkpt><trkpt lat="45.97346077283299" lon="11.289121740292648"><ele>1027.0</ele><time>2026-04-26T11:43:48.999Z</time></trkpt><trkpt lat="45.973366166446056" lon="11.289099183908919"><ele>1027.0</ele><time>2026-04-26T11:43:49.999Z</time></trkpt><trkpt lat="45.97328335095122" lon="11.289067344479236"><ele>1027.0</ele><time>2026-04-26T11:43:50.999Z</time></trkpt><trkpt lat="45.97321014038135" lon="11.289016874938007"><ele>1027.0</ele><time>2026-04-26T11:43:51.999Z</time></trkpt><trkpt lat="45.97313111329216" lon="11.28896885792439"><ele>1027.0</ele><time>2026-04-26T11:43:52.999Z</time></trkpt><trkpt lat="45.97303464029761" lon="11.288957757708097"><ele>1027.0</ele><time>2026-04-26T11:43:53.999Z</time></trkpt><trkpt lat="45.97293841420162" lon="11.288968114793127"><ele>1026.1666666666665</ele><time>2026-04-26T11:43:54.999Z</time></trkpt><trkpt lat="45.97284976886787" lon="11.288962467241461"><ele>1025.3333333333333</ele><time>2026-04-26T11:43:55.999Z</time></trkpt><trkpt lat="45.972758994408444" lon="11.288945702943755"><ele>1024.5</ele><time>2026-04-26T11:43:56.999Z</time></trkpt><trkpt lat="45.972669924619844" lon="11.288949545189151"><ele>1023.6666666666667</ele><time>2026-04-26T11:43:57.999Z</time></trkpt><trkpt lat="45.97259658353295" lon="11.288978076642307"><ele>1022.8333333333334</ele><time>2026-04-26T11:43:58.999Z</time></trkpt><trkpt lat="45.97253344057906" lon="11.289000167492853"><ele>1022.0</ele><time>2026-04-26T11:43:59.998Z</time></trkpt><trkpt lat="45.97245501733729" lon="11.289019755950596"><ele>1022.0000000000001</ele><time>2026-04-26T11:44:01.998Z</time></trkpt><trkpt lat="45.97246604724092" lon="11.288921609065"><ele>1022.0</ele><time>2026-04-26T11:44:03.998Z</time></trkpt><trkpt lat="45.972571434540924" lon="11.288955810133075"><ele>1022.0</ele><time>2026-04-26T11:44:05.998Z</time></trkpt><trkpt lat="45.97266121920884" lon="11.288951190659535"><ele>1022.0</ele><time>2026-04-26T11:44:06.998Z</time></trkpt><trkpt lat="45.97275645046723" lon="11.288941680277258"><ele>1022.0000000000001</ele><time>2026-04-26T11:44:07.998Z</time></trkpt><trkpt lat="45.97284127768945" lon="11.288930377873303"><ele>1022.0</ele><time>2026-04-26T11:44:08.998Z</time></trkpt><trkpt lat="45.97292159968743" lon="11.288911550094765"><ele>1009.0</ele><time>2026-04-26T11:44:09.998Z</time></trkpt><trkpt lat="45.97300702644169" lon="11.288882150566376"><ele>996.0</ele><time>2026-04-26T11:44:10.998Z</time></trkpt><trkpt lat="45.97315433800288" lon="11.28889969455352"><ele>983.0</ele><time>2026-04-26T11:44:12.998Z</time></trkpt><trkpt lat="45.973260245323694" lon="11.288910098857727"><ele>970.0</ele><time>2026-04-26T11:44:13.998Z</time></trkpt><trkpt lat="45.973363625791976" lon="11.2889102385043"><ele>957.0</ele><time>2026-04-26T11:44:14.998Z</time></trkpt><trkpt lat="45.97347520007567" lon="11.288896933056856"><ele>957.0</ele><time>2026-04-26T11:44:15.998Z</time></trkpt><trkpt lat="45.97358204074748" lon="11.288844777677646"><ele>957.0</ele><time>2026-04-26T11:44:16.998Z</time></trkpt><trkpt lat="45.973671522480764" lon="11.288741091406859"><ele>957.0</ele><time>2026-04-26T11:44:17.998Z</time></trkpt><trkpt lat="45.97375848621854" lon="11.28868845374734"><ele>957.0</ele><time>2026-04-26T11:44:18.998Z</time></trkpt><trkpt lat="45.97385839457579" lon="11.288652920627039"><ele>957.0</ele><time>2026-04-26T11:44:19.998Z</time></trkpt><trkpt lat="45.97395962368994" lon="11.288603103793193"><ele>957.0</ele><time>2026-04-26T11:44:20.998Z</time></trkpt><trkpt lat="45.97404239871792" lon="11.288558319987091"><ele>957.0</ele><time>2026-04-26T11:44:21.998Z</time></trkpt><trkpt lat="45.97412721201293" lon="11.288533995735325"><ele>957.0</ele><time>2026-04-26T11:44:22.998Z</time></trkpt><trkpt lat="45.974202655312" lon="11.288559338780592"><ele>957.0</ele><time>2026-04-26T11:44:23.998Z</time></trkpt><trkpt lat="45.97431203697137" lon="11.288587212603053"><ele>957.0</ele><time>2026-04-26T11:44:24.998Z</time></trkpt><trkpt lat="45.974421838373175" lon="11.288579756998669"><ele>955.0</ele><time>2026-04-26T11:44:25.998Z</time></trkpt><trkpt lat="45.974528930129864" lon="11.288558403054935"><ele>953.0</ele><time>2026-04-26T11:44:26.998Z</time></trkpt><trkpt lat="45.974624375700145" lon="11.288564353380997"><ele>951.0</ele><time>2026-04-26T11:44:27.998Z</time></trkpt><trkpt lat="45.97472935117692" lon="11.288595734582053"><ele>949.0</ele><time>2026-04-26T11:44:28.998Z</time></trkpt><trkpt lat="45.974840715157775" lon="11.288632880603346"><ele>947.0</ele><time>2026-04-26T11:44:29.998Z</time></trkpt><trkpt lat="45.97495067920494" lon="11.288670565221118"><ele>950.75</ele><time>2026-04-26T11:44:30.998Z</time></trkpt><trkpt lat="45.975057044111054" lon="11.288700365061482"><ele>954.5</ele><time>2026-04-26T11:44:31.998Z</time></trkpt><trkpt lat="45.97516295806354" lon="11.288704667987021"><ele>958.25</ele><time>2026-04-26T11:44:32.998Z</time></trkpt><trkpt lat="45.97526579946523" lon="11.288644559618161"><ele>962.0</ele><time>2026-04-26T11:44:33.998Z</time></trkpt><trkpt lat="45.97532419268595" lon="11.288479285619205"><ele>962.0</ele><time>2026-04-26T11:44:34.998Z</time></trkpt><trkpt lat="45.975413075944914" lon="11.288385460542232"><ele>962.0</ele><time>2026-04-26T11:44:35.998Z</time></trkpt><trkpt lat="45.97551772378087" lon="11.288329546685551"><ele>962.0</ele><time>2026-04-26T11:44:36.998Z</time></trkpt><trkpt lat="45.97563242004737" lon="11.28826731107011"><ele>962.0</ele><time>2026-04-26T11:44:37.998Z</time></trkpt><trkpt lat="45.975738802806184" lon="11.288152077867545"><ele>955.4000000000001</ele><time>2026-04-26T11:44:38.998Z</time></trkpt><trkpt lat="45.97581827302661" lon="11.287993023274987"><ele>948.8000000000001</ele><time>2026-04-26T11:44:39.998Z</time></trkpt><trkpt lat="45.97591329373026" lon="11.28785296509689"><ele>942.2</ele><time>2026-04-26T11:44:40.998Z</time></trkpt><trkpt lat="45.97594335665603" lon="11.287771547533458"><ele>935.6</ele><time>2026-04-26T11:44:41.998Z</time></trkpt><trkpt lat="45.97599649661178" lon="11.287655186125253"><ele>929.0</ele><time>2026-04-26T11:44:42.998Z</time></trkpt><trkpt lat="45.97607205576416" lon="11.287570974991844"><ele>924.8333333333334</ele><time>2026-04-26T11:44:43.998Z</time></trkpt><trkpt lat="45.976164034350965" lon="11.287553376412792"><ele>920.6666666666667</ele><time>2026-04-26T11:44:44.998Z</time></trkpt><trkpt lat="45.97623835362203" lon="11.287521951184592"><ele>916.5</ele><time>2026-04-26T11:44:45.998Z</time></trkpt><trkpt lat="45.97626461639406" lon="11.287383618009333"><ele>912.3333333333333</ele><time>2026-04-26T11:44:48Z</time></trkpt><trkpt lat="45.976198195151376" lon="11.28733995728999"><ele>908.1666666666666</ele><time>2026-04-26T11:44:49Z</time></trkpt><trkpt lat="45.97611120045859" lon="11.287356032580556"><ele>904.0</ele><time>2026-04-26T11:44:50Z</time></trkpt><trkpt lat="45.97601217214234" lon="11.287372623043824"><ele>904.0</ele><time>2026-04-26T11:44:51Z</time></trkpt><trkpt lat="45.975910214662484" lon="11.287409248968055"><ele>904.0000000000001</ele><time>2026-04-26T11:44:52Z</time></trkpt><trkpt lat="45.97581881678518" lon="11.287487727974417"><ele>904.0000000000001</ele><time>2026-04-26T11:44:53Z</time></trkpt><trkpt lat="45.97574828810413" lon="11.287616700342973"><ele>904.0</ele><time>2026-04-26T11:44:54Z</time></trkpt><trkpt lat="45.97567788348911" lon="11.287757746319953"><ele>904.0</ele><time>2026-04-26T11:44:55Z</time></trkpt><trkpt lat="45.97559166009767" lon="11.287873306020444"><ele>910.25</ele><time>2026-04-26T11:44:56Z</time></trkpt><trkpt lat="45.975485257095684" lon="11.287951264038236"><ele>916.5</ele><time>2026-04-26T11:44:57Z</time></trkpt><trkpt lat="45.97537712675516" lon="11.287979817664176"><ele>922.75</ele><time>2026-04-26T11:44:58Z</time></trkpt><trkpt lat="45.97525849951807" lon="11.28781660940627"><ele>929.0</ele><time>2026-04-26T11:44:59Z</time></trkpt><trkpt lat="45.97519086010545" lon="11.287815998247236"><ele>929.0</ele><time>2026-04-26T11:45:00Z</time></trkpt><trkpt lat="45.97507271222642" lon="11.287855472130303"><ele>929.0</ele><time>2026-04-26T11:45:01Z</time></trkpt><trkpt lat="45.974976697220924" lon="11.2879576841873"><ele>929.0</ele><time>2026-04-26T11:45:02Z</time></trkpt><trkpt lat="45.974886383087714" lon="11.288045608184492"><ele>929.0</ele><time>2026-04-26T11:45:03Z</time></trkpt><trkpt lat="45.97478278313956" lon="11.288081491428779"><ele>923.0</ele><time>2026-04-26T11:45:04Z</time></trkpt><trkpt lat="45.97468086563022" lon="11.288008458098448"><ele>917.0</ele><time>2026-04-26T11:45:05Z</time></trkpt><trkpt lat="45.974568349476726" lon="11.28794527217484"><ele>911.0</ele><time>2026-04-26T11:45:06Z</time></trkpt><trkpt lat="45.97445026518745" lon="11.287875676904367"><ele>905.0</ele><time>2026-04-26T11:45:07Z</time></trkpt><trkpt lat="45.974329793014114" lon="11.28781559137976"><ele>905.0</ele><time>2026-04-26T11:45:08Z</time></trkpt><trkpt lat="45.97422211310882" lon="11.287762401476199"><ele>905.0</ele><time>2026-04-26T11:45:09Z</time></trkpt><trkpt lat="45.974116540914046" lon="11.287714685383854"><ele>905.0</ele><time>2026-04-26T11:45:10Z</time></trkpt><trkpt lat="45.974032290669264" lon="11.287686168261013"><ele>905.0</ele><time>2026-04-26T11:45:11Z</time></trkpt><trkpt lat="45.9739531463202" lon="11.287665422330468"><ele>905.0</ele><time>2026-04-26T11:45:12Z</time></trkpt><trkpt lat="45.97389046698685" lon="11.287641525599241"><ele>905.0</ele><time>2026-04-26T11:45:13Z</time></trkpt><trkpt lat="45.973948671920006" lon="11.28757134904233"><ele>905.0</ele><time>2026-04-26T11:45:16.999Z</time></trkpt><trkpt lat="45.97407951401375" lon="11.287597495086759"><ele>905.0</ele><time>2026-04-26T11:45:18.999Z</time></trkpt><trkpt lat="45.974178661430976" lon="11.287615874887626"><ele>905.0</ele><time>2026-04-26T11:45:19.999Z</time></trkpt><trkpt lat="45.97429866245993" lon="11.287621854746142"><ele>905.0</ele><time>2026-04-26T11:45:20.999Z</time></trkpt><trkpt lat="45.974422627613286" lon="11.287626742765797"><ele>905.0</ele><time>2026-04-26T11:45:21.999Z</time></trkpt><trkpt lat="45.97454435092353" lon="11.287637602594172"><ele>905.0</ele><time>2026-04-26T11:45:22.999Z</time></trkpt><trkpt lat="45.9746623270823" lon="11.287638103492345"><ele>905.0</ele><time>2026-04-26T11:45:23.999Z</time></trkpt><trkpt lat="45.97477708678635" lon="11.287589513883646"><ele>905.0</ele><time>2026-04-26T11:45:24.999Z</time></trkpt><trkpt lat="45.9748784166894" lon="11.287490122597722"><ele>905.0</ele><time>2026-04-26T11:45:25.999Z</time></trkpt><trkpt lat="45.9749755604548" lon="11.287389669392285"><ele>905.0</ele><time>2026-04-26T11:45:26.999Z</time></trkpt><trkpt lat="45.97507927357668" lon="11.287341782122983"><ele>905.0</ele><time>2026-04-26T11:45:27.999Z</time></trkpt><trkpt lat="45.975186098124865" lon="11.28737166145701"><ele>905.0</ele><time>2026-04-26T11:45:28.999Z</time></trkpt><trkpt lat="45.97526424721317" lon="11.287340554323794"><ele>905.0</ele><time>2026-04-26T11:45:29.999Z</time></trkpt><trkpt lat="45.97531034658637" lon="11.287212914567172"><ele>901.5000000000001</ele><time>2026-04-26T11:45:30.999Z</time></trkpt><trkpt lat="45.97529967252407" lon="11.287060719512333"><ele>898.0</ele><time>2026-04-26T11:45:31.999Z</time></trkpt><trkpt lat="45.97533984216835" lon="11.286966376279372"><ele>894.5</ele><time>2026-04-26T11:45:32.999Z</time></trkpt><trkpt lat="45.97539738823696" lon="11.286910893873634"><ele>891.0</ele><time>2026-04-26T11:45:33.999Z</time></trkpt><trkpt lat="45.97546520081239" lon="11.286853108682966"><ele>887.5000000000001</ele><time>2026-04-26T11:45:34.999Z</time></trkpt><trkpt lat="45.97552589180938" lon="11.286801768450946"><ele>884.0</ele><time>2026-04-26T11:45:35.999Z</time></trkpt><trkpt lat="45.97558377813662" lon="11.2867478630147"><ele>884.0000000000001</ele><time>2026-04-26T11:45:36.999Z</time></trkpt><trkpt lat="45.97565634488914" lon="11.286766688715492"><ele>884.0</ele><time>2026-04-26T11:45:37.999Z</time></trkpt><trkpt lat="45.97571293963094" lon="11.286828482291563"><ele>884.0</ele><time>2026-04-26T11:45:38.999Z</time></trkpt><trkpt lat="45.97580649204158" lon="11.28682680084304"><ele>884.0</ele><time>2026-04-26T11:45:40.999Z</time></trkpt><trkpt lat="45.975886025068405" lon="11.286855208587658"><ele>884.0000000000001</ele><time>2026-04-26T11:45:42.999Z</time></trkpt><trkpt lat="45.97598964912573" lon="11.28686299990188"><ele>884.0</ele><time>2026-04-26T11:45:44.999Z</time></trkpt><trkpt lat="45.97615104378565" lon="11.286582949116207"><ele>877.5000000000001</ele><time>2026-04-26T11:45:46.999Z</time></trkpt><trkpt lat="45.976220003155404" lon="11.286511057169255"><ele>871.0</ele><time>2026-04-26T11:45:47.999Z</time></trkpt><trkpt lat="45.976288990881436" lon="11.286492837326007"><ele>864.5</ele><time>2026-04-26T11:45:48.999Z</time></trkpt><trkpt lat="45.976356832996" lon="11.28653762820498"><ele>858.0</ele><time>2026-04-26T11:45:49.999Z</time></trkpt><trkpt lat="45.976402185541936" lon="11.286636292630059"><ele>851.5000000000001</ele><time>2026-04-26T11:45:50.999Z</time></trkpt><trkpt lat="45.97641298989452" lon="11.286759281981102"><ele>845.0</ele><time>2026-04-26T11:45:51.999Z</time></trkpt><trkpt lat="45.97645483198233" lon="11.286887085927727"><ele>844.9999999999999</ele><time>2026-04-26T11:45:52.999Z</time></trkpt><trkpt lat="45.976502211132825" lon="11.286995334929735"><ele>845.0</ele><time>2026-04-26T11:45:53.999Z</time></trkpt><trkpt lat="45.976556716539086" lon="11.287086869040888"><ele>845.0</ele><time>2026-04-26T11:45:54.999Z</time></trkpt><trkpt lat="45.97660179407832" lon="11.287174519697313"><ele>845.0</ele><time>2026-04-26T11:45:55.999Z</time></trkpt><trkpt lat="45.97663541950044" lon="11.28726164502395"><ele>845.0</ele><time>2026-04-26T11:45:56.999Z</time></trkpt><trkpt lat="45.97666472959722" lon="11.287344714529393"><ele>844.9999999999999</ele><time>2026-04-26T11:45:57.999Z</time></trkpt><trkpt lat="45.97669389643162" lon="11.28742521014919"><ele>845.0</ele><time>2026-04-26T11:45:58.999Z</time></trkpt><trkpt lat="45.97675161071965" lon="11.287572025945988"><ele>838.2</ele><time>2026-04-26T11:46:00.999Z</time></trkpt><trkpt lat="45.976835540427224" lon="11.287672669875983"><ele>831.4</ele><time>2026-04-26T11:46:02.999Z</time></trkpt><trkpt lat="45.97692851463423" lon="11.287762871800409"><ele>824.5999999999999</ele><time>2026-04-26T11:46:04.999Z</time></trkpt><trkpt lat="45.97701686394591" lon="11.287843534735366"><ele>817.8</ele><time>2026-04-26T11:46:06.998Z</time></trkpt><trkpt lat="45.977117276935374" lon="11.287905562347156"><ele>811.0</ele><time>2026-04-26T11:46:08.998Z</time></trkpt><trkpt lat="45.97719745434535" lon="11.287999731213585"><ele>820.25</ele><time>2026-04-26T11:46:10.998Z</time></trkpt><trkpt lat="45.97723703571553" lon="11.288133604306354"><ele>829.5</ele><time>2026-04-26T11:46:12.998Z</time></trkpt><trkpt lat="45.977212684314495" lon="11.288265533395842"><ele>838.75</ele><time>2026-04-26T11:46:15.015Z</time></trkpt><trkpt lat="45.97723929596535" lon="11.288513376890677"><ele>848.0</ele><time>2026-04-26T11:46:17.998Z</time></trkpt><trkpt lat="45.97722658026808" lon="11.28867507104246"><ele>848.0</ele><time>2026-04-26T11:46:18.998Z</time></trkpt><trkpt lat="45.97725140953292" lon="11.288762573399056"><ele>848.0</ele><time>2026-04-26T11:46:19.998Z</time></trkpt><trkpt lat="45.977340249152455" lon="11.288849200425052"><ele>848.0</ele><time>2026-04-26T11:46:21.998Z</time></trkpt><trkpt lat="45.97744107758074" lon="11.288899709363983"><ele>848.0</ele><time>2026-04-26T11:46:23.998Z</time></trkpt><trkpt lat="45.97755597450705" lon="11.288988420848968"><ele>848.0</ele><time>2026-04-26T11:46:25.998Z</time></trkpt><trkpt lat="45.977615057050755" lon="11.289064613206358"><ele>850.0000000000001</ele><time>2026-04-26T11:46:26.998Z</time></trkpt><trkpt lat="45.97768229401468" lon="11.289131743846928"><ele>852.0</ele><time>2026-04-26T11:46:27.998Z</time></trkpt><trkpt lat="45.97776142422985" lon="11.28916932680327"><ele>854.0</ele><time>2026-04-26T11:46:28.998Z</time></trkpt><trkpt lat="45.97784843990269" lon="11.289169314672977"><ele>856.0</ele><time>2026-04-26T11:46:29.998Z</time></trkpt><trkpt lat="45.97793379422522" lon="11.289136580047193"><ele>858.0000000000001</ele><time>2026-04-26T11:46:30.998Z</time></trkpt><trkpt lat="45.97802105248866" lon="11.289133601513214"><ele>860.0</ele><time>2026-04-26T11:46:31.998Z</time></trkpt><trkpt lat="45.97810028630279" lon="11.289107921450881"><ele>860.0</ele><time>2026-04-26T11:46:32.998Z</time></trkpt><trkpt lat="45.97817879329766" lon="11.289078864959476"><ele>860.0</ele><time>2026-04-26T11:46:33.998Z</time></trkpt><trkpt lat="45.97825887824801" lon="11.289069889785868"><ele>860.0</ele><time>2026-04-26T11:46:34.998Z</time></trkpt><trkpt lat="45.97835334075202" lon="11.289078552167565"><ele>860.0</ele><time>2026-04-26T11:46:35.998Z</time></trkpt><trkpt lat="45.978467830693255" lon="11.289081568364935"><ele>860.0</ele><time>2026-04-26T11:46:36.998Z</time></trkpt><trkpt lat="45.97856434518651" lon="11.2890565401263"><ele>854.8333333333334</ele><time>2026-04-26T11:46:37.998Z</time></trkpt><trkpt lat="45.97865061458326" lon="11.288968442229077"><ele>849.6666666666667</ele><time>2026-04-26T11:46:38.998Z</time></trkpt><trkpt lat="45.97871784362788" lon="11.288896246130193"><ele>844.5</ele><time>2026-04-26T11:46:39.998Z</time></trkpt><trkpt lat="45.97878235874213" lon="11.288860478393866"><ele>839.3333333333333</ele><time>2026-04-26T11:46:40.998Z</time></trkpt><trkpt lat="45.97885091158026" lon="11.288877375993506"><ele>834.1666666666666</ele><time>2026-04-26T11:46:41.998Z</time></trkpt><trkpt lat="45.978894555179465" lon="11.288981885339055"><ele>829.0</ele><time>2026-04-26T11:46:42.998Z</time></trkpt><trkpt lat="45.9789120812034" lon="11.289107047012969"><ele>829.0</ele><time>2026-04-26T11:46:43.998Z</time></trkpt><trkpt lat="45.978932428271726" lon="11.289245516680014"><ele>829.0</ele><time>2026-04-26T11:46:44.998Z</time></trkpt><trkpt lat="45.97891131566895" lon="11.289383300170076"><ele>829.0</ele><time>2026-04-26T11:46:45.998Z</time></trkpt><trkpt lat="45.97885411997467" lon="11.289500772659364"><ele>829.0</ele><time>2026-04-26T11:46:46.998Z</time></trkpt><trkpt lat="45.978777495688064" lon="11.289585286169507"><ele>829.0</ele><time>2026-04-26T11:46:47.998Z</time></trkpt><trkpt lat="45.97870657921122" lon="11.289672365310057"><ele>827.2</ele><time>2026-04-26T11:46:48.998Z</time></trkpt><trkpt lat="45.97865411646962" lon="11.289791048856502"><ele>825.4000000000001</ele><time>2026-04-26T11:46:49.998Z</time></trkpt><trkpt lat="45.97861304699931" lon="11.289909262842281"><ele>823.6</ele><time>2026-04-26T11:46:50.998Z</time></trkpt><trkpt lat="45.978575064603305" lon="11.290020774882967"><ele>821.8</ele><time>2026-04-26T11:46:51.998Z</time></trkpt><trkpt lat="45.97855198571896" lon="11.290140555006515"><ele>820.0</ele><time>2026-04-26T11:46:52.999Z</time></trkpt><trkpt lat="45.97855106779963" lon="11.290277378190961"><ele>819.9999999999999</ele><time>2026-04-26T11:46:53.999Z</time></trkpt><trkpt lat="45.978557887980585" lon="11.29040523472568"><ele>820.0</ele><time>2026-04-26T11:46:54.999Z</time></trkpt><trkpt lat="45.97855191113209" lon="11.290533946928475"><ele>820.0</ele><time>2026-04-26T11:46:55.999Z</time></trkpt><trkpt lat="45.97854048900602" lon="11.290652000215102"><ele>820.0</ele><time>2026-04-26T11:46:56.999Z</time></trkpt><trkpt lat="45.97852349929268" lon="11.290753717138967"><ele>819.9999999999999</ele><time>2026-04-26T11:46:57.999Z</time></trkpt><trkpt lat="45.97852573043746" lon="11.29086664738881"><ele>820.0</ele><time>2026-04-26T11:47:00Z</time></trkpt><trkpt lat="45.978596918416265" lon="11.291001713188095"><ele>820.1666666666666</ele><time>2026-04-26T11:47:02Z</time></trkpt><trkpt lat="45.97864393931197" lon="11.291108737744464"><ele>820.3333333333333</ele><time>2026-04-26T11:47:03Z</time></trkpt><trkpt lat="45.97870690449968" lon="11.291208956678593"><ele>820.5</ele><time>2026-04-26T11:47:04Z</time></trkpt><trkpt lat="45.97877812092132" lon="11.29128274962606"><ele>820.6666666666667</ele><time>2026-04-26T11:47:05Z</time></trkpt><trkpt lat="45.978829605589546" lon="11.291368373967037"><ele>820.8333333333334</ele><time>2026-04-26T11:47:06Z</time></trkpt><trkpt lat="45.97888934123771" lon="11.29144583554632"><ele>821.0</ele><time>2026-04-26T11:47:07Z</time></trkpt><trkpt lat="45.9789423404744" lon="11.291519511934386"><ele>821.0000000000001</ele><time>2026-04-26T11:47:08Z</time></trkpt><trkpt lat="45.97898990150106" lon="11.291594476996213"><ele>821.0</ele><time>2026-04-26T11:47:09Z</time></trkpt><trkpt lat="45.9790337150684" lon="11.291673729121772"><ele>821.0</ele><time>2026-04-26T11:47:10Z</time></trkpt><trkpt lat="45.979072973422944" lon="11.291753649283041"><ele>821.0</ele><time>2026-04-26T11:47:11Z</time></trkpt><trkpt lat="45.97910540439159" lon="11.291844550069069"><ele>821.0</ele><time>2026-04-26T11:47:12Z</time></trkpt><trkpt lat="45.979127371744895" lon="11.29195156482627"><ele>821.0000000000001</ele><time>2026-04-26T11:47:13Z</time></trkpt><trkpt lat="45.979137467211956" lon="11.292078911146948"><ele>821.0</ele><time>2026-04-26T11:47:14Z</time></trkpt><trkpt lat="45.97913690144349" lon="11.292226847868951"><ele>821.5999999999999</ele><time>2026-04-26T11:47:14.999Z</time></trkpt><trkpt lat="45.979114575159734" lon="11.292386346779663"><ele>822.2</ele><time>2026-04-26T11:47:15.999Z</time></trkpt><trkpt lat="45.979117773147316" lon="11.292545506881801"><ele>822.8</ele><time>2026-04-26T11:47:16.999Z</time></trkpt><trkpt lat="45.97911221628021" lon="11.292698623277257"><ele>823.4000000000001</ele><time>2026-04-26T11:47:17.999Z</time></trkpt><trkpt lat="45.979099184927634" lon="11.292857206609826"><ele>824.0</ele><time>2026-04-26T11:47:18.999Z</time></trkpt><trkpt lat="45.979082772357174" lon="11.293014800739865"><ele>823.2</ele><time>2026-04-26T11:47:19.999Z</time></trkpt><trkpt lat="45.97906206331907" lon="11.293166047329906"><ele>822.4000000000001</ele><time>2026-04-26T11:47:20.999Z</time></trkpt><trkpt lat="45.97904633748777" lon="11.293316124868907"><ele>821.6</ele><time>2026-04-26T11:47:21.999Z</time></trkpt><trkpt lat="45.97903724488756" lon="11.293460073796853"><ele>820.8</ele><time>2026-04-26T11:47:22.999Z</time></trkpt><trkpt lat="45.979036734540266" lon="11.293603842229464"><ele>820.0</ele><time>2026-04-26T11:47:23.999Z</time></trkpt><trkpt lat="45.97905977189853" lon="11.293751198012469"><ele>820.0</ele><time>2026-04-26T11:47:24.999Z</time></trkpt><trkpt lat="45.97909008794517" lon="11.293913128187334"><ele>820.0</ele><time>2026-04-26T11:47:25.999Z</time></trkpt><trkpt lat="45.97916759104526" lon="11.294082531097931"><ele>820.0</ele><time>2026-04-26T11:47:26.999Z</time></trkpt><trkpt lat="45.979267682190624" lon="11.294253350945334"><ele>820.0</ele><time>2026-04-26T11:47:27.999Z</time></trkpt><trkpt lat="45.97936539834984" lon="11.294417291641544"><ele>810.3333333333333</ele><time>2026-04-26T11:47:28.999Z</time></trkpt><trkpt lat="45.979471604608214" lon="11.29459411509643"><ele>800.6666666666667</ele><time>2026-04-26T11:47:29.999Z</time></trkpt><trkpt lat="45.9795869294773" lon="11.294756712782593"><ele>791.0</ele><time>2026-04-26T11:47:30.999Z</time></trkpt><trkpt lat="45.97968862807176" lon="11.294934902413743"><ele>791.0</ele><time>2026-04-26T11:47:31.999Z</time></trkpt><trkpt lat="45.979785148655075" lon="11.295098441383056"><ele>791.0</ele><time>2026-04-26T11:47:32.999Z</time></trkpt><trkpt lat="45.97987461283131" lon="11.29525451071136"><ele>791.0</ele><time>2026-04-26T11:47:33.999Z</time></trkpt><trkpt lat="45.97995685133697" lon="11.29542381302423"><ele>791.0</ele><time>2026-04-26T11:47:34.999Z</time></trkpt><trkpt lat="45.97999119620799" lon="11.29563947643518"><ele>776.6666666666667</ele><time>2026-04-26T11:47:35.999Z</time></trkpt><trkpt lat="45.98004208018319" lon="11.295862649818709"><ele>762.3333333333334</ele><time>2026-04-26T11:47:36.999Z</time></trkpt><trkpt lat="45.98007809922256" lon="11.296099337669938"><ele>748.0</ele><time>2026-04-26T11:47:37.999Z</time></trkpt><trkpt lat="45.980120950374776" lon="11.29634100918053"><ele>750.3333333333334</ele><time>2026-04-26T11:47:38.999Z</time></trkpt><trkpt lat="45.98016698832279" lon="11.29656934810206"><ele>752.6666666666666</ele><time>2026-04-26T11:47:39.999Z</time></trkpt><trkpt lat="45.98022025231895" lon="11.296791097462911"><ele>755.0</ele><time>2026-04-26T11:47:40.999Z</time></trkpt><trkpt lat="45.98028049359726" lon="11.296999663498005"><ele>755.0</ele><time>2026-04-26T11:47:41.999Z</time></trkpt><trkpt lat="45.98034578177797" lon="11.297183278313751"><ele>755.0</ele><time>2026-04-26T11:47:42.999Z</time></trkpt><trkpt lat="45.980412584878316" lon="11.297344536136826"><ele>755.0</ele><time>2026-04-26T11:47:43.999Z</time></trkpt><trkpt lat="45.98047479414237" lon="11.297508178237434"><ele>755.0</ele><time>2026-04-26T11:47:44.999Z</time></trkpt><trkpt lat="45.980489928773636" lon="11.297680470794154"><ele>755.25</ele><time>2026-04-26T11:47:45.999Z</time></trkpt><trkpt lat="45.98047923189149" lon="11.297844311963857"><ele>755.5</ele><time>2026-04-26T11:47:46.999Z</time></trkpt><trkpt lat="45.98043984808483" lon="11.298016860379283"><ele>755.75</ele><time>2026-04-26T11:47:47.999Z</time></trkpt><trkpt lat="45.9803943598224" lon="11.298223297908677"><ele>756.0</ele><time>2026-04-26T11:47:48.999Z</time></trkpt><trkpt lat="45.98035167273203" lon="11.298419595018643"><ele>753.75</ele><time>2026-04-26T11:47:49.999Z</time></trkpt><trkpt lat="45.98030139049234" lon="11.298611781813845"><ele>751.5</ele><time>2026-04-26T11:47:50.999Z</time></trkpt><trkpt lat="45.98025371436768" lon="11.298801857752654"><ele>749.25</ele><time>2026-04-26T11:47:51.999Z</time></trkpt><trkpt lat="45.980212405703824" lon="11.29898607863424"><ele>747.0</ele><time>2026-04-26T11:47:52.999Z</time></trkpt><trkpt lat="45.98018995192917" lon="11.299174490745282"><ele>744.6</ele><time>2026-04-26T11:47:53.999Z</time></trkpt><trkpt lat="45.98019469680007" lon="11.29935006138038"><ele>742.2</ele><time>2026-04-26T11:47:54.999Z</time></trkpt><trkpt lat="45.98020035605952" lon="11.299509864163031"><ele>739.8</ele><time>2026-04-26T11:47:55.999Z</time></trkpt><trkpt lat="45.98019610813798" lon="11.299666827361955"><ele>737.4</ele><time>2026-04-26T11:47:56.999Z</time></trkpt><trkpt lat="45.980203786858596" lon="11.299786851165074"><ele>735.0</ele><time>2026-04-26T11:47:57.999Z</time></trkpt><trkpt lat="45.980213257352325" lon="11.299888084258093"><ele>735.0</ele><time>2026-04-26T11:47:58.999Z</time></trkpt><trkpt lat="45.980250222739436" lon="11.299967022668394"><ele>735.0</ele><time>2026-04-26T11:47:59.999Z</time></trkpt><trkpt lat="45.98032227486843" lon="11.29999173672814"><ele>735.0</ele><time>2026-04-26T11:48:00.999Z</time></trkpt><trkpt lat="45.980385731716254" lon="11.299928858535496"><ele>735.0</ele><time>2026-04-26T11:48:01.999Z</time></trkpt><trkpt lat="45.98040017473795" lon="11.299832497220917"><ele>735.0</ele><time>2026-04-26T11:48:02.999Z</time></trkpt><trkpt lat="45.98039156568548" lon="11.299694283153977"><ele>735.0</ele><time>2026-04-26T11:48:03.999Z</time></trkpt><trkpt lat="45.980384684741026" lon="11.299579713551493"><ele>735.0</ele><time>2026-04-26T11:48:04.999Z</time></trkpt><trkpt lat="45.98037348435813" lon="11.299428058725173"><ele>735.0</ele><time>2026-04-26T11:48:05.999Z</time></trkpt><trkpt lat="45.98037327904015" lon="11.299268755471115"><ele>735.0</ele><time>2026-04-26T11:48:06.999Z</time></trkpt><trkpt lat="45.980397659247096" lon="11.29910788671548"><ele>735.0</ele><time>2026-04-26T11:48:07.999Z</time></trkpt><trkpt lat="45.98047423669477" lon="11.298959198155451"><ele>738.0</ele><time>2026-04-26T11:48:08.999Z</time></trkpt><trkpt lat="45.98052612530785" lon="11.29882879447678"><ele>741.0</ele><time>2026-04-26T11:48:09.999Z</time></trkpt><trkpt lat="45.98060240777602" lon="11.298637298305266"><ele>744.0</ele><time>2026-04-26T11:48:10.999Z</time></trkpt><trkpt lat="45.98068077340151" lon="11.298440573590293"><ele>747.0</ele><time>2026-04-26T11:48:11.999Z</time></trkpt><trkpt lat="45.980762580737625" lon="11.298233620363256"><ele>750.0</ele><time>2026-04-26T11:48:12.998Z</time></trkpt><trkpt lat="45.98083999452378" lon="11.298035709756805"><ele>753.0</ele><time>2026-04-26T11:48:13.998Z</time></trkpt><trkpt lat="45.98091765920926" lon="11.297847948801026"><ele>756.0</ele><time>2026-04-26T11:48:14.998Z</time></trkpt><trkpt lat="45.98099373924082" lon="11.29766721864744"><ele>746.0</ele><time>2026-04-26T11:48:15.998Z</time></trkpt><trkpt lat="45.98105333389744" lon="11.297485180985232"><ele>736.0</ele><time>2026-04-26T11:48:16.998Z</time></trkpt><trkpt lat="45.9810993845898" lon="11.297298566802242"><ele>726.0</ele><time>2026-04-26T11:48:17.998Z</time></trkpt><trkpt lat="45.981098516547505" lon="11.297085655092589"><ele>716.0</ele><time>2026-04-26T11:48:18.998Z</time></trkpt><trkpt lat="45.98107299446997" lon="11.296846331265819"><ele>713.6666666666666</ele><time>2026-04-26T11:48:19.998Z</time></trkpt><trkpt lat="45.98105279124598" lon="11.29659838455276"><ele>711.3333333333334</ele><time>2026-04-26T11:48:20.998Z</time></trkpt><trkpt lat="45.98103528456854" lon="11.296347668936177"><ele>709.0</ele><time>2026-04-26T11:48:21.998Z</time></trkpt><trkpt lat="45.98101584996542" lon="11.296103963564658"><ele>705.6666666666667</ele><time>2026-04-26T11:48:22.998Z</time></trkpt><trkpt lat="45.981004042690444" lon="11.29586055094262"><ele>702.3333333333334</ele><time>2026-04-26T11:48:23.998Z</time></trkpt><trkpt lat="45.98101520032004" lon="11.295616866019872"><ele>699.0</ele><time>2026-04-26T11:48:24.998Z</time></trkpt><trkpt lat="45.98103039597162" lon="11.295379757097264"><ele>696.3333333333334</ele><time>2026-04-26T11:48:25.998Z</time></trkpt><trkpt lat="45.98104188998891" lon="11.29514673798862"><ele>693.6666666666667</ele><time>2026-04-26T11:48:26.998Z</time></trkpt><trkpt lat="45.981056579592305" lon="11.294920178073088"><ele>691.0</ele><time>2026-04-26T11:48:27.998Z</time></trkpt><trkpt lat="45.98105396742724" lon="11.29471148752391"><ele>689.5</ele><time>2026-04-26T11:48:28.998Z</time></trkpt><trkpt lat="45.98099696403064" lon="11.29453856665768"><ele>688.0</ele><time>2026-04-26T11:48:29.998Z</time></trkpt><trkpt lat="45.98091202234429" lon="11.294388691919174"><ele>686.5</ele><time>2026-04-26T11:48:30.998Z</time></trkpt><trkpt lat="45.98083438974697" lon="11.294239102067833"><ele>685.0</ele><time>2026-04-26T11:48:31.998Z</time></trkpt><trkpt lat="45.98074272404739" lon="11.294112710202347"><ele>688.5</ele><time>2026-04-26T11:48:32.998Z</time></trkpt><trkpt lat="45.98067146871186" lon="11.293959143329069"><ele>692.0</ele><time>2026-04-26T11:48:33.998Z</time></trkpt><trkpt lat="45.980629476177086" lon="11.293785392874"><ele>695.5</ele><time>2026-04-26T11:48:34.998Z</time></trkpt><trkpt lat="45.98061856682897" lon="11.293603761766029"><ele>699.0</ele><time>2026-04-26T11:48:35.998Z</time></trkpt><trkpt lat="45.98060913212226" lon="11.29343088972993"><ele>699.0</ele><time>2026-04-26T11:48:36.998Z</time></trkpt><trkpt lat="45.980584853839254" lon="11.2932823730798"><ele>699.0</ele><time>2026-04-26T11:48:37.998Z</time></trkpt><trkpt lat="45.980539345193385" lon="11.293163363158403"><ele>699.0</ele><time>2026-04-26T11:48:38.998Z</time></trkpt><trkpt lat="45.98048531646935" lon="11.29306213816478"><ele>699.0</ele><time>2026-04-26T11:48:39.998Z</time></trkpt><trkpt lat="45.98045247163398" lon="11.292972590753891"><ele>699.0</ele><time>2026-04-26T11:48:40.998Z</time></trkpt><trkpt lat="45.98054405562076" lon="11.29286722215454"><ele>699.0</ele><time>2026-04-26T11:48:42.998Z</time></trkpt><trkpt lat="45.980607565109935" lon="11.292906182843973"><ele>699.0</ele><time>2026-04-26T11:48:43.998Z</time></trkpt><trkpt lat="45.980629948864475" lon="11.293029046875228"><ele>699.0</ele><time>2026-04-26T11:48:44.998Z</time></trkpt><trkpt lat="45.98066635864983" lon="11.293134007228945"><ele>699.0</ele><time>2026-04-26T11:48:45.998Z</time></trkpt><trkpt lat="45.98072052698882" lon="11.293261103968321"><ele>699.0</ele><time>2026-04-26T11:48:46.998Z</time></trkpt><trkpt lat="45.9807787726625" lon="11.293404663574679"><ele>699.0</ele><time>2026-04-26T11:48:47.998Z</time></trkpt><trkpt lat="45.98082318488277" lon="11.293570134515983"><ele>699.0</ele><time>2026-04-26T11:48:48.998Z</time></trkpt><trkpt lat="45.98087236968709" lon="11.293732383794806"><ele>699.0</ele><time>2026-04-26T11:48:49.998Z</time></trkpt><trkpt lat="45.98093412375734" lon="11.293873229949073"><ele>699.0</ele><time>2026-04-26T11:48:50.998Z</time></trkpt><trkpt lat="45.98102500950804" lon="11.293992278842746"><ele>695.5</ele><time>2026-04-26T11:48:51.998Z</time></trkpt><trkpt lat="45.9811280668178" lon="11.29406347852903"><ele>692.0</ele><time>2026-04-26T11:48:52.998Z</time></trkpt><trkpt lat="45.981237959229546" lon="11.294106379969941"><ele>688.5</ele><time>2026-04-26T11:48:53.998Z</time></trkpt><trkpt lat="45.98134371708434" lon="11.29416178684055"><ele>685.0</ele><time>2026-04-26T11:48:54.998Z</time></trkpt><trkpt lat="45.98142610806476" lon="11.294270777955875"><ele>685.0</ele><time>2026-04-26T11:48:55.998Z</time></trkpt><trkpt lat="45.981438810662866" lon="11.294450511971617"><ele>685.0</ele><time>2026-04-26T11:48:56.998Z</time></trkpt><trkpt lat="45.981484103915555" lon="11.294618653219077"><ele>685.0</ele><time>2026-04-26T11:48:57.998Z</time></trkpt><trkpt lat="45.981545942820475" lon="11.294806444573478"><ele>685.0</ele><time>2026-04-26T11:48:59Z</time></trkpt><trkpt lat="45.98160011512056" lon="11.295025848409763"><ele>687.0</ele><time>2026-04-26T11:49:00Z</time></trkpt><trkpt lat="45.98164618647782" lon="11.295246477006684"><ele>689.0</ele><time>2026-04-26T11:49:01Z</time></trkpt><trkpt lat="45.98169975482934" lon="11.295460576870662"><ele>691.0</ele><time>2026-04-26T11:49:02Z</time></trkpt><trkpt lat="45.98175265650501" lon="11.295675544156673"><ele>687.75</ele><time>2026-04-26T11:49:03Z</time></trkpt><trkpt lat="45.98179632928292" lon="11.29586525536993"><ele>684.5</ele><time>2026-04-26T11:49:04Z</time></trkpt><trkpt lat="45.98184460110263" lon="11.29606128874219"><ele>681.25</ele><time>2026-04-26T11:49:05Z</time></trkpt><trkpt lat="45.98189337260766" lon="11.296258511042668"><ele>678.0</ele><time>2026-04-26T11:49:06Z</time></trkpt><trkpt lat="45.981951399336474" lon="11.296442230056678"><ele>678.0</ele><time>2026-04-26T11:49:07Z</time></trkpt><trkpt lat="45.982039088121425" lon="11.296601460469384"><ele>678.0</ele><time>2026-04-26T11:49:08Z</time></trkpt><trkpt lat="45.98215515114522" lon="11.29669790644867"><ele>678.0</ele><time>2026-04-26T11:49:09Z</time></trkpt><trkpt lat="45.98228070066869" lon="11.29679167741131"><ele>678.0</ele><time>2026-04-26T11:49:10Z</time></trkpt><trkpt lat="45.982355901345485" lon="11.296944615311146"><ele>678.0</ele><time>2026-04-26T11:49:11Z</time></trkpt><trkpt lat="45.98240657686715" lon="11.297124243558141"><ele>678.0</ele><time>2026-04-26T11:49:12Z</time></trkpt><trkpt lat="45.98249519931345" lon="11.297279430128185"><ele>678.0</ele><time>2026-04-26T11:49:13Z</time></trkpt><trkpt lat="45.982578058421105" lon="11.297451326026149"><ele>678.0</ele><time>2026-04-26T11:49:14Z</time></trkpt><trkpt lat="45.98269130750357" lon="11.297583382162165"><ele>673.0</ele><time>2026-04-26T11:49:15Z</time></trkpt><trkpt lat="45.98281921520101" lon="11.297704534062701"><ele>668.0</ele><time>2026-04-26T11:49:16Z</time></trkpt><trkpt lat="45.982943024083546" lon="11.297823140779569"><ele>663.0</ele><time>2026-04-26T11:49:17Z</time></trkpt><trkpt lat="45.983055564727024" lon="11.297924073470561"><ele>658.0</ele><time>2026-04-26T11:49:18Z</time></trkpt><trkpt lat="45.983155873521724" lon="11.29803667504408"><ele>660.75</ele><time>2026-04-26T11:49:19Z</time></trkpt><trkpt lat="45.98323662183658" lon="11.298157373894838"><ele>663.5</ele><time>2026-04-26T11:49:20Z</time></trkpt><trkpt lat="45.983313843296436" lon="11.298286939093051"><ele>666.25</ele><time>2026-04-26T11:49:21Z</time></trkpt><trkpt lat="45.983398316027014" lon="11.29840840866053"><ele>669.0</ele><time>2026-04-26T11:49:22Z</time></trkpt><trkpt lat="45.98347296904272" lon="11.298507529666464"><ele>664.0</ele><time>2026-04-26T11:49:23Z</time></trkpt><trkpt lat="45.98353419263366" lon="11.29859587458835"><ele>659.0</ele><time>2026-04-26T11:49:24Z</time></trkpt><trkpt lat="45.983580443124445" lon="11.298678584524673"><ele>654.0</ele><time>2026-04-26T11:49:25Z</time></trkpt><trkpt lat="45.983616149552454" lon="11.298755109786441"><ele>649.0</ele><time>2026-04-26T11:49:26Z</time></trkpt><trkpt lat="45.98360886174996" lon="11.29892183941765"><ele>644.0</ele><time>2026-04-26T11:49:28Z</time></trkpt><trkpt lat="45.98353555358678" lon="11.298991837596192"><ele>639.0</ele><time>2026-04-26T11:49:28.999Z</time></trkpt><trkpt lat="45.98346709871957" lon="11.299097136767847"><ele>639.0</ele><time>2026-04-26T11:49:29.999Z</time></trkpt><trkpt lat="45.98340665436389" lon="11.29921849449665"><ele>639.0</ele><time>2026-04-26T11:49:30.999Z</time></trkpt><trkpt lat="45.98334073449393" lon="11.299322542991487"><ele>639.0</ele><time>2026-04-26T11:49:31.999Z</time></trkpt><trkpt lat="45.983279646257714" lon="11.29941545858602"><ele>639.0</ele><time>2026-04-26T11:49:32.999Z</time></trkpt><trkpt lat="45.98322401505092" lon="11.299493893491325"><ele>639.0</ele><time>2026-04-26T11:49:33.999Z</time></trkpt><trkpt lat="45.98314574328515" lon="11.299521210310887"><ele>639.0</ele><time>2026-04-26T11:49:34.999Z</time></trkpt><trkpt lat="45.98305899833808" lon="11.299482588933145"><ele>643.8</ele><time>2026-04-26T11:49:35.999Z</time></trkpt><trkpt lat="45.982969600298155" lon="11.29939503157961"><ele>648.5999999999999</ele><time>2026-04-26T11:49:36.999Z</time></trkpt><trkpt lat="45.98286918043586" lon="11.299320239490472"><ele>653.4</ele><time>2026-04-26T11:49:37.999Z</time></trkpt><trkpt lat="45.98276007368295" lon="11.299300849688121"><ele>658.1999999999999</ele><time>2026-04-26T11:49:38.999Z</time></trkpt><trkpt lat="45.98264831526686" lon="11.299336391956357"><ele>663.0</ele><time>2026-04-26T11:49:39.999Z</time></trkpt><trkpt lat="45.982540592956845" lon="11.299409985228024"><ele>664.25</ele><time>2026-04-26T11:49:40.999Z</time></trkpt><trkpt lat="45.982442592215406" lon="11.299524481152964"><ele>665.5</ele><time>2026-04-26T11:49:41.999Z</time></trkpt><trkpt lat="45.98235332054084" lon="11.299666169085558"><ele>666.75</ele><time>2026-04-26T11:49:42.999Z</time></trkpt><trkpt lat="45.98228467381068" lon="11.299822822950176"><ele>668.0</ele><time>2026-04-26T11:49:43.999Z</time></trkpt><trkpt lat="45.98223491236042" lon="11.30002684950933"><ele>663.25</ele><time>2026-04-26T11:49:44.999Z</time></trkpt><trkpt lat="45.98220182886858" lon="11.300230738183293"><ele>658.5</ele><time>2026-04-26T11:49:45.999Z</time></trkpt><trkpt lat="45.98214537269729" lon="11.300427209713941"><ele>653.75</ele><time>2026-04-26T11:49:46.999Z</time></trkpt><trkpt lat="45.98210491791867" lon="11.300617244752438"><ele>649.0</ele><time>2026-04-26T11:49:47.999Z</time></trkpt><trkpt lat="45.9820686993961" lon="11.300787380019619"><ele>645.3333333333334</ele><time>2026-04-26T11:49:48.999Z</time></trkpt><trkpt lat="45.98204416346142" lon="11.300928826542371"><ele>641.6666666666667</ele><time>2026-04-26T11:49:49.999Z</time></trkpt><trkpt lat="45.9820101608159" lon="11.30103869359093"><ele>638.0</ele><time>2026-04-26T11:49:50.999Z</time></trkpt><trkpt lat="45.981983172786606" lon="11.301121393089659"><ele>634.3333333333334</ele><time>2026-04-26T11:49:51.999Z</time></trkpt><trkpt lat="45.982044350323534" lon="11.301212961961367"><ele>630.6666666666666</ele><time>2026-04-26T11:49:53.999Z</time></trkpt><trkpt lat="45.982107177361364" lon="11.30117618419643"><ele>627.0</ele><time>2026-04-26T11:49:54.999Z</time></trkpt><trkpt lat="45.98216037538581" lon="11.301076396736885"><ele>627.0</ele><time>2026-04-26T11:49:55.999Z</time></trkpt><trkpt lat="45.98219871723561" lon="11.300945232639377"><ele>627.0</ele><time>2026-04-26T11:49:56.999Z</time></trkpt><trkpt lat="45.982241507294866" lon="11.300810280170404"><ele>627.0</ele><time>2026-04-26T11:49:57.999Z</time></trkpt><trkpt lat="45.98230383642607" lon="11.300702326232443"><ele>627.0</ele><time>2026-04-26T11:49:58.999Z</time></trkpt><trkpt lat="45.98240391536265" lon="11.30065453179262"><ele>627.0</ele><time>2026-04-26T11:49:59.999Z</time></trkpt><trkpt lat="45.98249853243971" lon="11.300571983530272"><ele>631.5</ele><time>2026-04-26T11:50:00.999Z</time></trkpt><trkpt lat="45.98260910914867" lon="11.300525643568774"><ele>636.0</ele><time>2026-04-26T11:50:01.999Z</time></trkpt><trkpt lat="45.98273200723873" lon="11.30049162320667"><ele>640.5</ele><time>2026-04-26T11:50:02.999Z</time></trkpt><trkpt lat="45.982854039097724" lon="11.300521459437705"><ele>645.0</ele><time>2026-04-26T11:50:03.999Z</time></trkpt><trkpt lat="45.98297545639926" lon="11.300558698810908"><ele>638.25</ele><time>2026-04-26T11:50:04.999Z</time></trkpt><trkpt lat="45.98309237192488" lon="11.300595815362152"><ele>631.5</ele><time>2026-04-26T11:50:05.999Z</time></trkpt><trkpt lat="45.98319493363407" lon="11.300671843675705"><ele>624.75</ele><time>2026-04-26T11:50:06.999Z</time></trkpt><trkpt lat="45.983290316406794" lon="11.300776741387937"><ele>618.0</ele><time>2026-04-26T11:50:07.999Z</time></trkpt><trkpt lat="45.98334754132478" lon="11.300935131031705"><ele>614.1999999999999</ele><time>2026-04-26T11:50:08.999Z</time></trkpt><trkpt lat="45.983420528551115" lon="11.301046783581386"><ele>610.4</ele><time>2026-04-26T11:50:09.999Z</time></trkpt><trkpt lat="45.98350058537831" lon="11.301125641946754"><ele>606.5999999999999</ele><time>2026-04-26T11:50:10.999Z</time></trkpt><trkpt lat="45.98359843872223" lon="11.301144716265425"><ele>602.8</ele><time>2026-04-26T11:50:11.999Z</time></trkpt><trkpt lat="45.983681463057" lon="11.301114231256228"><ele>599.0</ele><time>2026-04-26T11:50:12.999Z</time></trkpt><trkpt lat="45.983741152260514" lon="11.300961810699006"><ele>599.0</ele><time>2026-04-26T11:50:13.999Z</time></trkpt><trkpt lat="45.98381270016178" lon="11.300831695119873"><ele>599.0</ele><time>2026-04-26T11:50:14.999Z</time></trkpt><trkpt lat="45.98391725222113" lon="11.300740704261047"><ele>599.0</ele><time>2026-04-26T11:50:15.999Z</time></trkpt><trkpt lat="45.98404931030054" lon="11.300659279075457"><ele>599.0</ele><time>2026-04-26T11:50:16.999Z</time></trkpt><trkpt lat="45.984185447873784" lon="11.300558464692704"><ele>596.5</ele><time>2026-04-26T11:50:17.999Z</time></trkpt><trkpt lat="45.984314890872476" lon="11.300454402859705"><ele>594.0</ele><time>2026-04-26T11:50:18.999Z</time></trkpt><trkpt lat="45.984428642307115" lon="11.300344890498915"><ele>591.5</ele><time>2026-04-26T11:50:19.999Z</time></trkpt><trkpt lat="45.98454264197876" lon="11.30021068015227"><ele>589.0</ele><time>2026-04-26T11:50:20.999Z</time></trkpt><trkpt lat="45.98465667038438" lon="11.30007023177547"><ele>589.0</ele><time>2026-04-26T11:50:21.999Z</time></trkpt><trkpt lat="45.98477677685114" lon="11.299939722364712"><ele>589.0</ele><time>2026-04-26T11:50:22.999Z</time></trkpt><trkpt lat="45.984893353526836" lon="11.29982040244041"><ele>589.0</ele><time>2026-04-26T11:50:23.999Z</time></trkpt><trkpt lat="45.98498703369135" lon="11.299708931406222"><ele>589.0</ele><time>2026-04-26T11:50:24.999Z</time></trkpt><trkpt lat="45.98508603561513" lon="11.299605063239065"><ele>580.6</ele><time>2026-04-26T11:50:25.998Z</time></trkpt><trkpt lat="45.98517330002351" lon="11.299533128264828"><ele>572.2</ele><time>2026-04-26T11:50:26.998Z</time></trkpt><trkpt lat="45.98523491782193" lon="11.299449774634107"><ele>563.8000000000001</ele><time>2026-04-26T11:50:27.998Z</time></trkpt><trkpt lat="45.98527114742859" lon="11.299326551893786"><ele>555.4</ele><time>2026-04-26T11:50:28.998Z</time></trkpt><trkpt lat="45.985270666536046" lon="11.299193932494253"><ele>547.0</ele><time>2026-04-26T11:50:29.998Z</time></trkpt><trkpt lat="45.985232019145954" lon="11.299089014150756"><ele>547.0</ele><time>2026-04-26T11:50:30.998Z</time></trkpt><trkpt lat="45.985218997119425" lon="11.298933223704289"><ele>547.0</ele><time>2026-04-26T11:50:32.998Z</time></trkpt><trkpt lat="45.98532879338795" lon="11.298965166864967"><ele>547.0</ele><time>2026-04-26T11:50:34.998Z</time></trkpt><trkpt lat="45.98535722406173" lon="11.29906872199846"><ele>547.0</ele><time>2026-04-26T11:50:35.998Z</time></trkpt><trkpt lat="45.98534693478346" lon="11.299204606734126"><ele>547.0</ele><time>2026-04-26T11:50:36.998Z</time></trkpt><trkpt lat="45.985379010139134" lon="11.29933662955585"><ele>547.0</ele><time>2026-04-26T11:50:37.998Z</time></trkpt><trkpt lat="45.98542862677571" lon="11.299466348434478"><ele>547.0</ele><time>2026-04-26T11:50:38.998Z</time></trkpt><trkpt lat="45.98546565993205" lon="11.299587865383147"><ele>547.0</ele><time>2026-04-26T11:50:39.998Z</time></trkpt><trkpt lat="45.985488897517754" lon="11.299715205688441"><ele>547.0</ele><time>2026-04-26T11:50:40.998Z</time></trkpt><trkpt lat="45.98547751434008" lon="11.299855545315411"><ele>547.0</ele><time>2026-04-26T11:50:41.998Z</time></trkpt><trkpt lat="45.98540831064796" lon="11.299977711056707"><ele>547.0</ele><time>2026-04-26T11:50:42.998Z</time></trkpt><trkpt lat="45.98534881045604" lon="11.30015023424577"><ele>547.0</ele><time>2026-04-26T11:50:43.998Z</time></trkpt><trkpt lat="45.98525889307839" lon="11.300318848229177"><ele>547.0</ele><time>2026-04-26T11:50:44.998Z</time></trkpt><trkpt lat="45.98517563954635" lon="11.30050255432477"><ele>547.0</ele><time>2026-04-26T11:50:45.998Z</time></trkpt><trkpt lat="45.98509201904952" lon="11.300681294993595"><ele>554.3333333333334</ele><time>2026-04-26T11:50:46.998Z</time></trkpt><trkpt lat="45.98500172007979" lon="11.300852990272139"><ele>561.6666666666666</ele><time>2026-04-26T11:50:47.998Z</time></trkpt><trkpt lat="45.98489111567684" lon="11.301015023469102"><ele>569.0</ele><time>2026-04-26T11:50:48.998Z</time></trkpt><trkpt lat="45.98475844835201" lon="11.301146751075024"><ele>569.0</ele><time>2026-04-26T11:50:49.998Z</time></trkpt><trkpt lat="45.98462945736597" lon="11.301294375239397"><ele>569.0</ele><time>2026-04-26T11:50:50.998Z</time></trkpt><trkpt lat="45.98452288914817" lon="11.301469675886336"><ele>569.0</ele><time>2026-04-26T11:50:51.998Z</time></trkpt><trkpt lat="45.98442635609554" lon="11.301630776303076"><ele>567.75</ele><time>2026-04-26T11:50:52.998Z</time></trkpt><trkpt lat="45.984335563596616" lon="11.301757399891224"><ele>566.5</ele><time>2026-04-26T11:50:53.998Z</time></trkpt><trkpt lat="45.98425731594414" lon="11.301894080102146"><ele>565.25</ele><time>2026-04-26T11:50:54.998Z</time></trkpt><trkpt lat="45.98417857733187" lon="11.302014638782156"><ele>564.0</ele><time>2026-04-26T11:50:55.998Z</time></trkpt><trkpt lat="45.98409244928154" lon="11.30208551451559"><ele>564.0</ele><time>2026-04-26T11:50:56.998Z</time></trkpt><trkpt lat="45.98400441774704" lon="11.302121726323726"><ele>564.0</ele><time>2026-04-26T11:50:57.998Z</time></trkpt><trkpt lat="45.98392598196409" lon="11.302168001796854"><ele>564.0</ele><time>2026-04-26T11:50:58.998Z</time></trkpt><trkpt lat="45.98384293069893" lon="11.302207590401538"><ele>564.0</ele><time>2026-04-26T11:50:59.998Z</time></trkpt><trkpt lat="45.98379973050016" lon="11.30230130749911"><ele>564.0</ele><time>2026-04-26T11:51:00.998Z</time></trkpt><trkpt lat="45.983816669347874" lon="11.302431677301078"><ele>564.0</ele><time>2026-04-26T11:51:01.998Z</time></trkpt><trkpt lat="45.98391245187622" lon="11.302481351299132"><ele>558.0</ele><time>2026-04-26T11:51:02.998Z</time></trkpt><trkpt lat="45.984006046034104" lon="11.3024751817681"><ele>552.0</ele><time>2026-04-26T11:51:03.998Z</time></trkpt><trkpt lat="45.984111207716474" lon="11.302423884184483"><ele>546.0</ele><time>2026-04-26T11:51:05Z</time></trkpt><trkpt lat="45.984231511298" lon="11.302344271254134"><ele>540.0</ele><time>2026-04-26T11:51:06Z</time></trkpt><trkpt lat="45.984362583453226" lon="11.3022706019785"><ele>541.3333333333334</ele><time>2026-04-26T11:51:07Z</time></trkpt><trkpt lat="45.9845098643389" lon="11.30220216067311"><ele>542.6666666666667</ele><time>2026-04-26T11:51:08Z</time></trkpt><trkpt lat="45.984660492264744" lon="11.302149995805372"><ele>544.0</ele><time>2026-04-26T11:51:09Z</time></trkpt><trkpt lat="45.98479865307304" lon="11.30210909161347"><ele>544.0</ele><time>2026-04-26T11:51:10Z</time></trkpt><trkpt lat="45.984911442472324" lon="11.302075282787348"><ele>544.0</ele><time>2026-04-26T11:51:11Z</time></trkpt><trkpt lat="45.98521305618034" lon="11.30185946089012"><ele>537.5</ele><time>2026-04-26T11:51:12Z</time></trkpt><trkpt lat="45.98543348007094" lon="11.301753335885513"><ele>531.0</ele><time>2026-04-26T11:51:13Z</time></trkpt><trkpt lat="45.985654442633034" lon="11.301650775393648"><ele>526.5</ele><time>2026-04-26T11:51:14Z</time></trkpt><trkpt lat="45.98587682596368" lon="11.301545213668208"><ele>522.0</ele><time>2026-04-26T11:51:15Z</time></trkpt><trkpt lat="45.98608984026829" lon="11.301442439300889"><ele>522.0</ele><time>2026-04-26T11:51:16Z</time></trkpt><trkpt lat="45.98629899611896" lon="11.301340570631561"><ele>522.0</ele><time>2026-04-26T11:51:17Z</time></trkpt><trkpt lat="45.986505886057856" lon="11.301257368718797"><ele>522.0</ele><time>2026-04-26T11:51:18Z</time></trkpt><trkpt lat="45.98670970032987" lon="11.301193026943482"><ele>520.0</ele><time>2026-04-26T11:51:19Z</time></trkpt><trkpt lat="45.986908147527004" lon="11.301133314832953"><ele>518.0</ele><time>2026-04-26T11:51:20Z</time></trkpt><trkpt lat="45.98710442820455" lon="11.301087739972226"><ele>516.0</ele><time>2026-04-26T11:51:21Z</time></trkpt><trkpt lat="45.987290864276574" lon="11.30104203422117"><ele>516.0</ele><time>2026-04-26T11:51:22Z</time></trkpt><trkpt lat="45.98746527469843" lon="11.301002330292121"><ele>516.0</ele><time>2026-04-26T11:51:23Z</time></trkpt><trkpt lat="45.98763145045545" lon="11.300966470115293"><ele>516.0</ele><time>2026-04-26T11:51:24Z</time></trkpt><trkpt lat="45.987803129884185" lon="11.300984157052557"><ele>513.0</ele><time>2026-04-26T11:51:25Z</time></trkpt><trkpt lat="45.98797451951263" lon="11.30098267391242"><ele>510.0</ele><time>2026-04-26T11:51:26Z</time></trkpt><trkpt lat="45.988145928970006" lon="11.300983438826465"><ele>507.0</ele><time>2026-04-26T11:51:27Z</time></trkpt><trkpt lat="45.98832094016324" lon="11.30098588568186"><ele>504.0</ele><time>2026-04-26T11:51:28Z</time></trkpt><trkpt lat="45.988486511659886" lon="11.300961337192204"><ele>501.0</ele><time>2026-04-26T11:51:29Z</time></trkpt><trkpt lat="45.988650271727835" lon="11.300962615062108"><ele>498.0</ele><time>2026-04-26T11:51:30Z</time></trkpt><trkpt lat="45.988809542912946" lon="11.300946787560626"><ele>498.0</ele><time>2026-04-26T11:51:31Z</time></trkpt><trkpt lat="45.98896387720238" lon="11.300920200843874"><ele>498.0</ele><time>2026-04-26T11:51:32Z</time></trkpt><trkpt lat="45.989112436445254" lon="11.300900688798054"><ele>498.0</ele><time>2026-04-26T11:51:33Z</time></trkpt><trkpt lat="45.98925993620971" lon="11.300885469974189"><ele>496.5</ele><time>2026-04-26T11:51:34Z</time></trkpt><trkpt lat="45.989403024170585" lon="11.300865559644691"><ele>495.0</ele><time>2026-04-26T11:51:35Z</time></trkpt><trkpt lat="45.98950564549633" lon="11.300859997284407"><ele>493.5</ele><time>2026-04-26T11:51:36Z</time></trkpt><trkpt lat="45.98964360334815" lon="11.300833689430025"><ele>492.0</ele><time>2026-04-26T11:51:37Z</time></trkpt><trkpt lat="45.989782076541104" lon="11.300807381280158"><ele>492.0</ele><time>2026-04-26T11:51:38Z</time></trkpt><trkpt lat="45.989916018762024" lon="11.300773700035068"><ele>492.0</ele><time>2026-04-26T11:51:39Z</time></trkpt><trkpt lat="45.990042998784084" lon="11.300724913865292"><ele>492.0</ele><time>2026-04-26T11:51:40Z</time></trkpt><trkpt lat="45.9901730006965" lon="11.300674995815854"><ele>492.0</ele><time>2026-04-26T11:51:40.999Z</time></trkpt><trkpt lat="45.99032076337083" lon="11.300625062793483"><ele>489.0</ele><time>2026-04-26T11:51:41.999Z</time></trkpt><trkpt lat="45.99046812366081" lon="11.30057014052401"><ele>486.0</ele><time>2026-04-26T11:51:42.999Z</time></trkpt><trkpt lat="45.99061347627329" lon="11.300520232551756"><ele>483.0</ele><time>2026-04-26T11:51:43.999Z</time></trkpt><trkpt lat="45.9907656178249" lon="11.300458449669394"><ele>480.0</ele><time>2026-04-26T11:51:44.999Z</time></trkpt><trkpt lat="45.990935060062824" lon="11.3003722590645"><ele>477.0</ele><time>2026-04-26T11:51:45.999Z</time></trkpt><trkpt lat="45.99109494119148" lon="11.300281262751337"><ele>474.0</ele><time>2026-04-26T11:51:46.999Z</time></trkpt><trkpt lat="45.991254984965614" lon="11.300181437419745"><ele>474.0</ele><time>2026-04-26T11:51:47.999Z</time></trkpt><trkpt lat="45.9914171044802" lon="11.300084175260812"><ele>474.0</ele><time>2026-04-26T11:51:48.999Z</time></trkpt><trkpt lat="45.99156934745615" lon="11.299972836301604"><ele>474.0</ele><time>2026-04-26T11:51:49.999Z</time></trkpt><trkpt lat="45.991734288605514" lon="11.299871897260704"><ele>472.0</ele><time>2026-04-26T11:51:50.999Z</time></trkpt><trkpt lat="45.99190310691044" lon="11.299766121195354"><ele>470.0</ele><time>2026-04-26T11:51:51.999Z</time></trkpt><trkpt lat="45.992070056095315" lon="11.299650192631052"><ele>468.0</ele><time>2026-04-26T11:51:52.999Z</time></trkpt><trkpt lat="45.992229939651466" lon="11.299543751569301"><ele>468.0</ele><time>2026-04-26T11:51:53.999Z</time></trkpt><trkpt lat="45.99239377937932" lon="11.299447852855112"><ele>468.0</ele><time>2026-04-26T11:51:54.999Z</time></trkpt><trkpt lat="45.99255705571518" lon="11.299347964646028"><ele>468.0</ele><time>2026-04-26T11:51:55.999Z</time></trkpt><trkpt lat="45.99272839375943" lon="11.299243965139754"><ele>466.66666666666663</ele><time>2026-04-26T11:51:56.999Z</time></trkpt><trkpt lat="45.9929056285373" lon="11.299137514867018"><ele>465.3333333333333</ele><time>2026-04-26T11:51:57.999Z</time></trkpt><trkpt lat="45.99310749117414" lon="11.299070262041177"><ele>464.0</ele><time>2026-04-26T11:51:58.999Z</time></trkpt><trkpt lat="45.993253246185134" lon="11.298959282053739"><ele>461.3333333333333</ele><time>2026-04-26T11:51:59.999Z</time></trkpt><trkpt lat="45.993396069312624" lon="11.298839495689876"><ele>458.66666666666663</ele><time>2026-04-26T11:52:00.999Z</time></trkpt><trkpt lat="45.99355487887589" lon="11.298727121438912"><ele>456.0</ele><time>2026-04-26T11:52:01.999Z</time></trkpt><trkpt lat="45.9937283569613" lon="11.298630579294336"><ele>456.0</ele><time>2026-04-26T11:52:02.999Z</time></trkpt><trkpt lat="45.99390017797697" lon="11.298543853875385"><ele>456.0</ele><time>2026-04-26T11:52:03.999Z</time></trkpt><trkpt lat="45.994079097263445" lon="11.298456348576032"><ele>456.0</ele><time>2026-04-26T11:52:04.999Z</time></trkpt><trkpt lat="45.99424310138992" lon="11.298343368731352"><ele>453.33333333333337</ele><time>2026-04-26T11:52:05.999Z</time></trkpt><trkpt lat="45.99441465947843" lon="11.298243390923732"><ele>450.6666666666667</ele><time>2026-04-26T11:52:06.999Z</time></trkpt><trkpt lat="45.994588770437204" lon="11.29815245820114"><ele>448.0</ele><time>2026-04-26T11:52:07.999Z</time></trkpt><trkpt lat="45.99476018385115" lon="11.298057877983492"><ele>448.0</ele><time>2026-04-26T11:52:08.999Z</time></trkpt><trkpt lat="45.99492905308961" lon="11.297952343817064"><ele>448.0</ele><time>2026-04-26T11:52:09.999Z</time></trkpt><trkpt lat="45.995094649262896" lon="11.297837030463105"><ele>448.0</ele><time>2026-04-26T11:52:10.999Z</time></trkpt><trkpt lat="45.99526233669786" lon="11.29772126389714"><ele>447.6666666666667</ele><time>2026-04-26T11:52:11.999Z</time></trkpt><trkpt lat="45.995434360974855" lon="11.297625989536947"><ele>447.33333333333337</ele><time>2026-04-26T11:52:12.999Z</time></trkpt><trkpt lat="45.995615017706946" lon="11.297581038360052"><ele>447.0</ele><time>2026-04-26T11:52:13.999Z</time></trkpt><trkpt lat="45.99579671370449" lon="11.297541280428604"><ele>446.0</ele><time>2026-04-26T11:52:14.999Z</time></trkpt><trkpt lat="45.99598115789318" lon="11.297493126391684"><ele>445.0</ele><time>2026-04-26T11:52:15.999Z</time></trkpt><trkpt lat="45.99617214056109" lon="11.297468451199501"><ele>444.0</ele><time>2026-04-26T11:52:16.999Z</time></trkpt><trkpt lat="45.99636705682021" lon="11.297449238957475"><ele>444.0</ele><time>2026-04-26T11:52:17.999Z</time></trkpt><trkpt lat="45.99655015600834" lon="11.297441012894728"><ele>444.0</ele><time>2026-04-26T11:52:18.999Z</time></trkpt><trkpt lat="45.996732408458634" lon="11.297429107399648"><ele>444.0</ele><time>2026-04-26T11:52:19.999Z</time></trkpt><trkpt lat="45.996904022046856" lon="11.29743549673801"><ele>444.0</ele><time>2026-04-26T11:52:20.999Z</time></trkpt><trkpt lat="45.99707224789641" lon="11.297465528907315"><ele>444.0</ele><time>2026-04-26T11:52:21.999Z</time></trkpt><trkpt lat="45.99720036345078" lon="11.297558968656602"><ele>444.0</ele><time>2026-04-26T11:52:22.999Z</time></trkpt><trkpt lat="45.99737172667393" lon="11.297645586152884"><ele>443.33333333333337</ele><time>2026-04-26T11:52:23.999Z</time></trkpt><trkpt lat="45.99762872801975" lon="11.297668007600791"><ele>442.6666666666667</ele><time>2026-04-26T11:52:24.999Z</time></trkpt><trkpt lat="45.99781736427986" lon="11.297714562029698"><ele>442.0</ele><time>2026-04-26T11:52:25.999Z</time></trkpt><trkpt lat="45.99799090544666" lon="11.297739468879643"><ele>442.0</ele><time>2026-04-26T11:52:26.999Z</time></trkpt><trkpt lat="45.998167389938935" lon="11.297776743824203"><ele>442.0</ele><time>2026-04-26T11:52:27.999Z</time></trkpt><trkpt lat="45.998340327697136" lon="11.297828285211931"><ele>442.0</ele><time>2026-04-26T11:52:28.999Z</time></trkpt><trkpt lat="45.9985158918382" lon="11.297884054157954"><ele>442.33333333333337</ele><time>2026-04-26T11:52:29.999Z</time></trkpt><trkpt lat="45.998689767304256" lon="11.297946591103107"><ele>442.66666666666663</ele><time>2026-04-26T11:52:30.999Z</time></trkpt><trkpt lat="45.998858811357636" lon="11.298028559221045"><ele>443.0</ele><time>2026-04-26T11:52:31.999Z</time></trkpt><trkpt lat="45.999037950630814" lon="11.298155079858754"><ele>443.0</ele><time>2026-04-26T11:52:32.999Z</time></trkpt><trkpt lat="45.999202935205865" lon="11.298242273461135"><ele>443.0</ele><time>2026-04-26T11:52:33.999Z</time></trkpt><trkpt lat="45.99936807581238" lon="11.29834685765586"><ele>443.0</ele><time>2026-04-26T11:52:34.999Z</time></trkpt><trkpt lat="45.99954466977339" lon="11.298450659038167"><ele>443.0</ele><time>2026-04-26T11:52:35.999Z</time></trkpt><trkpt lat="45.99972085159312" lon="11.298543689283113"><ele>443.0</ele><time>2026-04-26T11:52:36.999Z</time></trkpt><trkpt lat="45.99989940241025" lon="11.29863960695641"><ele>443.0</ele><time>2026-04-26T11:52:37.998Z</time></trkpt><trkpt lat="46.000071104078" lon="11.298737513799642"><ele>443.0</ele><time>2026-04-26T11:52:38.998Z</time></trkpt><trkpt lat="46.000246599763365" lon="11.29882999519278"><ele>443.0</ele><time>2026-04-26T11:52:39.998Z</time></trkpt><trkpt lat="46.00042049296117" lon="11.298918027212476"><ele>443.0</ele><time>2026-04-26T11:52:40.998Z</time></trkpt><trkpt lat="46.00060157321289" lon="11.299001043262509"><ele>442.66666666666663</ele><time>2026-04-26T11:52:41.998Z</time></trkpt><trkpt lat="46.00078161603672" lon="11.299068013160676"><ele>442.33333333333337</ele><time>2026-04-26T11:52:42.998Z</time></trkpt><trkpt lat="46.00096990184404" lon="11.299121852880154"><ele>442.0</ele><time>2026-04-26T11:52:43.998Z</time></trkpt><trkpt lat="46.00115559132274" lon="11.299165741479507"><ele>442.0</ele><time>2026-04-26T11:52:44.998Z</time></trkpt><trkpt lat="46.00134351282688" lon="11.299210285590583"><ele>442.0</ele><time>2026-04-26T11:52:45.998Z</time></trkpt><trkpt lat="46.00153447485905" lon="11.29926306131247"><ele>442.0</ele><time>2026-04-26T11:52:46.998Z</time></trkpt><trkpt lat="46.00172458728482" lon="11.29931903852776"><ele>442.0</ele><time>2026-04-26T11:52:47.998Z</time></trkpt><trkpt lat="46.00190983063644" lon="11.2993720684721"><ele>442.0</ele><time>2026-04-26T11:52:48.998Z</time></trkpt><trkpt lat="46.002092682382624" lon="11.299423808418704"><ele>442.0</ele><time>2026-04-26T11:52:49.998Z</time></trkpt><trkpt lat="46.00227177717481" lon="11.29947576169605"><ele>442.0</ele><time>2026-04-26T11:52:50.998Z</time></trkpt><trkpt lat="46.00244927499918" lon="11.299525826008555"><ele>442.0</ele><time>2026-04-26T11:52:51.998Z</time></trkpt><trkpt lat="46.002636140445894" lon="11.29957555323309"><ele>442.0</ele><time>2026-04-26T11:52:52.998Z</time></trkpt><trkpt lat="46.00280419500028" lon="11.299629668710848"><ele>441.33333333333337</ele><time>2026-04-26T11:52:53.998Z</time></trkpt><trkpt lat="46.00296874298373" lon="11.29968052051271"><ele>440.66666666666663</ele><time>2026-04-26T11:52:54.998Z</time></trkpt><trkpt lat="46.00312568540342" lon="11.299733657926918"><ele>440.0</ele><time>2026-04-26T11:52:55.998Z</time></trkpt><trkpt lat="46.003273683628535" lon="11.299786328663258"><ele>439.4</ele><time>2026-04-26T11:52:56.998Z</time></trkpt><trkpt lat="46.00340860851077" lon="11.29983160753128"><ele>438.8</ele><time>2026-04-26T11:52:57.998Z</time></trkpt><trkpt lat="46.00352577706975" lon="11.299872421309562"><ele>438.20000000000005</ele><time>2026-04-26T11:52:58.998Z</time></trkpt><trkpt lat="46.00362781390326" lon="11.299908407026246"><ele>437.6</ele><time>2026-04-26T11:52:59.998Z</time></trkpt><trkpt lat="46.003708854752844" lon="11.299940398862107"><ele>437.0</ele><time>2026-04-26T11:53:00.998Z</time></trkpt><trkpt lat="46.00377885689276" lon="11.29996865399889"><ele>436.99999999999994</ele><time>2026-04-26T11:53:01.998Z</time></trkpt><trkpt lat="46.00384545377235" lon="11.299992708900977"><ele>437.0</ele><time>2026-04-26T11:53:02.998Z</time></trkpt><trkpt lat="46.00391547322126" lon="11.300013483708836"><ele>437.0</ele><time>2026-04-26T11:53:03.998Z</time></trkpt><trkpt lat="46.00398908850208" lon="11.300038494428462"><ele>437.0</ele><time>2026-04-26T11:53:04.998Z</time></trkpt><trkpt lat="46.00407374502432" lon="11.300073558271377"><ele>436.99999999999994</ele><time>2026-04-26T11:53:05.998Z</time></trkpt><trkpt lat="46.00416699340015" lon="11.300112566436036"><ele>437.0</ele><time>2026-04-26T11:53:06.998Z</time></trkpt><trkpt lat="46.00425631578682" lon="11.300148341989617"><ele>437.0</ele><time>2026-04-26T11:53:07.998Z</time></trkpt><trkpt lat="46.00434238268958" lon="11.300182063798086"><ele>437.00000000000006</ele><time>2026-04-26T11:53:08.998Z</time></trkpt><trkpt lat="46.00443600572544" lon="11.300220428180317"><ele>437.00000000000006</ele><time>2026-04-26T11:53:09.998Z</time></trkpt><trkpt lat="46.0045271176772" lon="11.300257078082026"><ele>437.0</ele><time>2026-04-26T11:53:11Z</time></trkpt><trkpt lat="46.00463245304542" lon="11.30030356519088"><ele>437.0</ele><time>2026-04-26T11:53:12Z</time></trkpt><trkpt lat="46.0047453656355" lon="11.300354817307795"><ele>437.0</ele><time>2026-04-26T11:53:13Z</time></trkpt><trkpt lat="46.004863871541524" lon="11.30040764077177"><ele>437.0</ele><time>2026-04-26T11:53:14Z</time></trkpt><trkpt lat="46.00498048646576" lon="11.300457788820678"><ele>437.0</ele><time>2026-04-26T11:53:15Z</time></trkpt><trkpt lat="46.00509592893358" lon="11.300508635515248"><ele>437.0</ele><time>2026-04-26T11:53:16Z</time></trkpt><trkpt lat="46.005205868157745" lon="11.300555594010689"><ele>438.40000000000003</ele><time>2026-04-26T11:53:17Z</time></trkpt><trkpt lat="46.00530771046749" lon="11.300599477108028"><ele>439.80000000000007</ele><time>2026-04-26T11:53:18Z</time></trkpt><trkpt lat="46.005389335555975" lon="11.30063523596713"><ele>441.2</ele><time>2026-04-26T11:53:19Z</time></trkpt><trkpt lat="46.00546090475256" lon="11.300665455685612"><ele>442.6</ele><time>2026-04-26T11:53:20Z</time></trkpt><trkpt lat="46.005569573584026" lon="11.300712875017027"><ele>444.0</ele><time>2026-04-26T11:53:22Z</time></trkpt><trkpt lat="46.00566341443774" lon="11.300753056046796"><ele>444.0</ele><time>2026-04-26T11:53:24Z</time></trkpt><trkpt lat="46.00574796582358" lon="11.300792078586277"><ele>444.0</ele><time>2026-04-26T11:53:26Z</time></trkpt><trkpt lat="46.005818686055505" lon="11.300826680113897"><ele>444.0</ele><time>2026-04-26T11:53:28Z</time></trkpt><trkpt lat="46.005894849086815" lon="11.300864281511084"><ele>444.0</ele><time>2026-04-26T11:53:30Z</time></trkpt><trkpt lat="46.005965442619164" lon="11.300903120610057"><ele>444.0</ele><time>2026-04-26T11:53:32Z</time></trkpt><trkpt lat="46.0060596681822" lon="11.300941629663665"><ele>444.0</ele><time>2026-04-26T11:53:35Z</time></trkpt><trkpt lat="46.006123486583505" lon="11.300966280775372"><ele>444.6666666666667</ele><time>2026-04-26T11:53:37Z</time></trkpt><trkpt lat="46.00618309409823" lon="11.3009995281426"><ele>445.33333333333337</ele><time>2026-04-26T11:53:39Z</time></trkpt><trkpt lat="46.00624945629355" lon="11.30103837737131"><ele>446.0</ele><time>2026-04-26T11:53:41Z</time></trkpt><trkpt lat="46.00632385358645" lon="11.301083592061355"><ele>446.6666666666667</ele><time>2026-04-26T11:53:43Z</time></trkpt><trkpt lat="46.00640506011672" lon="11.301147272582867"><ele>447.33333333333337</ele><time>2026-04-26T11:53:45Z</time></trkpt><trkpt lat="46.0065126358148" lon="11.301210635479077"><ele>448.0</ele><time>2026-04-26T11:53:46.999Z</time></trkpt><trkpt lat="46.006578083986255" lon="11.301251133513535"><ele>448.00000000000006</ele><time>2026-04-26T11:53:47.999Z</time></trkpt><trkpt lat="46.006646825343694" lon="11.301295893223077"><ele>448.0</ele><time>2026-04-26T11:53:48.999Z</time></trkpt><trkpt lat="46.00670417287546" lon="11.301334899678073"><ele>448.0</ele><time>2026-04-26T11:53:49.999Z</time></trkpt><trkpt lat="46.00679257454257" lon="11.301387322453037"><ele>448.0</ele><time>2026-04-26T11:53:51.999Z</time></trkpt><trkpt lat="46.00688809172738" lon="11.30145298509308"><ele>448.00000000000006</ele><time>2026-04-26T11:53:53.999Z</time></trkpt><trkpt lat="46.00698045540134" lon="11.301534163146453"><ele>448.0</ele><time>2026-04-26T11:53:55.999Z</time></trkpt><trkpt lat="46.00705425440124" lon="11.301619537014254"><ele>449.2</ele><time>2026-04-26T11:53:57.999Z</time></trkpt><trkpt lat="46.00711735363212" lon="11.301662600168688"><ele>450.4</ele><time>2026-04-26T11:53:59.999Z</time></trkpt><trkpt lat="46.00719209876622" lon="11.301495718852571"><ele>451.59999999999997</ele><time>2026-04-26T11:54:00.999Z</time></trkpt><trkpt lat="46.00730322244093" lon="11.301413388230804"><ele>452.79999999999995</ele><time>2026-04-26T11:54:02.999Z</time></trkpt><trkpt lat="46.007364808063905" lon="11.301373913824275"><ele>454.0</ele><time>2026-04-26T11:54:03.999Z</time></trkpt><trkpt lat="46.007433064038906" lon="11.30133908951703"><ele>455.00000000000006</ele><time>2026-04-26T11:54:04.999Z</time></trkpt><trkpt lat="46.007506028862466" lon="11.301305432048181"><ele>456.0</ele><time>2026-04-26T11:54:05.999Z</time></trkpt><trkpt lat="46.00757473822449" lon="11.301271837353871"><ele>457.0</ele><time>2026-04-26T11:54:06.999Z</time></trkpt><trkpt lat="46.00764444686061" lon="11.301233998778562"><ele>458.0</ele><time>2026-04-26T11:54:07.999Z</time></trkpt><trkpt lat="46.00771823209013" lon="11.301192064632351"><ele>459.00000000000006</ele><time>2026-04-26T11:54:08.999Z</time></trkpt><trkpt lat="46.007793340229064" lon="11.301140660606427"><ele>460.0</ele><time>2026-04-26T11:54:09.999Z</time></trkpt><trkpt lat="46.007859967115664" lon="11.301097369470224"><ele>460.00000000000006</ele><time>2026-04-26T11:54:10.999Z</time></trkpt><trkpt lat="46.00791905409088" lon="11.301059997364497"><ele>460.0</ele><time>2026-04-26T11:54:11.999Z</time></trkpt><trkpt lat="46.008024558043445" lon="11.301015493208128"><ele>460.0</ele><time>2026-04-26T11:54:13.999Z</time></trkpt><trkpt lat="46.008096400174985" lon="11.30099177789377"><ele>460.0</ele><time>2026-04-26T11:54:15.999Z</time></trkpt><trkpt lat="46.00817019686292" lon="11.300953548722731"><ele>460.00000000000006</ele><time>2026-04-26T11:54:17.999Z</time></trkpt><trkpt lat="46.008263841995294" lon="11.300968474797154"><ele>460.0</ele><time>2026-04-26T11:54:19.999Z</time></trkpt><trkpt lat="46.008359910616136" lon="11.300989897397965"><ele>462.0</ele><time>2026-04-26T11:54:21.999Z</time></trkpt><trkpt lat="46.00845804874481" lon="11.301010835583932"><ele>464.0</ele><time>2026-04-26T11:54:23.999Z</time></trkpt><trkpt lat="46.00855111285107" lon="11.300947579196919"><ele>466.0</ele><time>2026-04-26T11:54:26.999Z</time></trkpt><trkpt lat="46.00859132199754" lon="11.300830299238967"><ele>468.0</ele><time>2026-04-26T11:54:28.999Z</time></trkpt><trkpt lat="46.00863611171993" lon="11.300717529866338"><ele>470.0</ele><time>2026-04-26T11:54:30.999Z</time></trkpt><trkpt lat="46.00869335350604" lon="11.30058651353515"><ele>470.0</ele><time>2026-04-26T11:54:32.999Z</time></trkpt><trkpt lat="46.00875540164332" lon="11.300446943768867"><ele>470.0</ele><time>2026-04-26T11:54:34.999Z</time></trkpt><trkpt lat="46.00881831179674" lon="11.300320923425557"><ele>470.0</ele><time>2026-04-26T11:54:36.999Z</time></trkpt><trkpt lat="46.008865548304605" lon="11.300192027763387"><ele>470.0</ele><time>2026-04-26T11:54:38.999Z</time></trkpt><trkpt lat="46.00889977979784" lon="11.300098133068934"><ele>470.0</ele><time>2026-04-26T11:54:40.999Z</time></trkpt><trkpt lat="46.00894100896938" lon="11.300003324425662"><ele>469.99999999999994</ele><time>2026-04-26T11:54:45.998Z</time></trkpt><trkpt lat="46.00898262287521" lon="11.299932516909097"><ele>470.0</ele><time>2026-04-26T11:54:50.998Z</time></trkpt><trkpt lat="46.00909422347758" lon="11.299990138036996"><ele>470.0</ele><time>2026-04-26T11:54:54.998Z</time></trkpt><trkpt lat="46.00919136441555" lon="11.300050180277292"><ele>470.0</ele><time>2026-04-26T11:54:56.998Z</time></trkpt><trkpt lat="46.00925000249869" lon="11.300085520581396"><ele>469.99999999999994</ele><time>2026-04-26T11:54:58.998Z</time></trkpt><trkpt lat="46.009327570715" lon="11.300127025370132"><ele>470.0</ele><time>2026-04-26T11:55:01.998Z</time></trkpt><trkpt lat="46.00939130069651" lon="11.300159551959412"><ele>471.6</ele><time>2026-04-26T11:55:03.998Z</time></trkpt><trkpt lat="46.00945971552721" lon="11.300178400984048"><ele>473.2</ele><time>2026-04-26T11:55:42.999Z</time></trkpt><trkpt lat="46.00951084380247" lon="11.3002423538836"><ele>474.79999999999995</ele><time>2026-04-26T11:55:44.999Z</time></trkpt><trkpt lat="46.00964476468171" lon="11.300154676722457"><ele>476.4</ele><time>2026-04-26T11:55:46.999Z</time></trkpt><trkpt lat="46.00968782290401" lon="11.300041402497241"><ele>478.0</ele><time>2026-04-26T11:55:47.999Z</time></trkpt><trkpt lat="46.009731379741815" lon="11.29992557706704"><ele>478.0</ele><time>2026-04-26T11:55:48.999Z</time></trkpt><trkpt lat="46.00978570341012" lon="11.299805240003874"><ele>477.99999999999994</ele><time>2026-04-26T11:55:49.999Z</time></trkpt><trkpt lat="46.009844570269685" lon="11.299687901932227"><ele>477.99999999999994</ele><time>2026-04-26T11:55:50.999Z</time></trkpt><trkpt lat="46.009899518866845" lon="11.299572913099789"><ele>478.0</ele><time>2026-04-26T11:55:51.999Z</time></trkpt><trkpt lat="46.00995309779683" lon="11.299451751919037"><ele>478.0</ele><time>2026-04-26T11:55:52.999Z</time></trkpt><trkpt lat="46.010003292297334" lon="11.299336383722869"><ele>478.1666666666667</ele><time>2026-04-26T11:55:53.999Z</time></trkpt><trkpt lat="46.01004288473199" lon="11.299227808212361"><ele>478.33333333333337</ele><time>2026-04-26T11:55:54.999Z</time></trkpt><trkpt lat="46.01007444565409" lon="11.299125608295553"><ele>478.5</ele><time>2026-04-26T11:55:55.999Z</time></trkpt><trkpt lat="46.01010184798324" lon="11.299036000296839"><ele>478.66666666666663</ele><time>2026-04-26T11:55:56.999Z</time></trkpt><trkpt lat="46.010129291214206" lon="11.298952729265478"><ele>478.8333333333333</ele><time>2026-04-26T11:55:57.999Z</time></trkpt><trkpt lat="46.01019302897536" lon="11.298809480763424"><ele>479.0</ele><time>2026-04-26T11:55:59.999Z</time></trkpt><trkpt lat="46.010255587914834" lon="11.298681141799383"><ele>477.66666666666663</ele><time>2026-04-26T11:56:01.999Z</time></trkpt><trkpt lat="46.010231279326746" lon="11.298515520648989"><ele>476.3333333333333</ele><time>2026-04-26T11:56:03.999Z</time></trkpt><trkpt lat="46.01016208442051" lon="11.298480457454902"><ele>475.0</ele><time>2026-04-26T11:56:04.999Z</time></trkpt><trkpt lat="46.01009043570846" lon="11.298468670116645"><ele>473.66666666666663</ele><time>2026-04-26T11:56:05.999Z</time></trkpt><trkpt lat="46.01001860106239" lon="11.298446798160784"><ele>472.3333333333333</ele><time>2026-04-26T11:56:06.999Z</time></trkpt><trkpt lat="46.00994228899432" lon="11.298427545928002"><ele>471.0</ele><time>2026-04-26T11:56:07.999Z</time></trkpt><trkpt lat="46.009855363265885" lon="11.298408717025922"><ele>470.6</ele><time>2026-04-26T11:56:08.999Z</time></trkpt><trkpt lat="46.009766229804846" lon="11.298385162649964"><ele>470.20000000000005</ele><time>2026-04-26T11:56:09.999Z</time></trkpt><trkpt lat="46.009676940314016" lon="11.298360850487713"><ele>469.79999999999995</ele><time>2026-04-26T11:56:10.999Z</time></trkpt><trkpt lat="46.00958866098773" lon="11.2983406859852"><ele>469.4</ele><time>2026-04-26T11:56:11.999Z</time></trkpt><trkpt lat="46.00950251810255" lon="11.29831109888307"><ele>469.0</ele><time>2026-04-26T11:56:12.999Z</time></trkpt><trkpt lat="46.00941686143448" lon="11.29826792102585"><ele>469.0</ele><time>2026-04-26T11:56:13.999Z</time></trkpt><trkpt lat="46.00933223303182" lon="11.298198365427258"><ele>469.0</ele><time>2026-04-26T11:56:14.999Z</time></trkpt><trkpt lat="46.009253294539086" lon="11.298110535539406"><ele>469.0</ele><time>2026-04-26T11:56:15.999Z</time></trkpt><trkpt lat="46.009183368939304" lon="11.298008368614447"><ele>469.0</ele><time>2026-04-26T11:56:16.999Z</time></trkpt><trkpt lat="46.00912096440446" lon="11.29789260462466"><ele>469.0</ele><time>2026-04-26T11:56:17.999Z</time></trkpt><trkpt lat="46.00907026665569" lon="11.297762292576682"><ele>466.0</ele><time>2026-04-26T11:56:18.999Z</time></trkpt><trkpt lat="46.009028880882326" lon="11.297612971826188"><ele>463.0</ele><time>2026-04-26T11:56:19.999Z</time></trkpt><trkpt lat="46.0089880886543" lon="11.297458089579267"><ele>460.0</ele><time>2026-04-26T11:56:20.999Z</time></trkpt><trkpt lat="46.00894473129813" lon="11.297290635612628"><ele>457.0</ele><time>2026-04-26T11:56:21.999Z</time></trkpt><trkpt lat="46.00889860392027" lon="11.29711409308234"><ele>456.25</ele><time>2026-04-26T11:56:22.999Z</time></trkpt><trkpt lat="46.00885028798365" lon="11.296926924376027"><ele>455.5</ele><time>2026-04-26T11:56:23.999Z</time></trkpt><trkpt lat="46.008799716509394" lon="11.29673132724142"><ele>454.75</ele><time>2026-04-26T11:56:24.999Z</time></trkpt><trkpt lat="46.00874996592068" lon="11.296529931262446"><ele>454.0</ele><time>2026-04-26T11:56:25.999Z</time></trkpt><trkpt lat="46.008700031756995" lon="11.296324436186906"><ele>453.75</ele><time>2026-04-26T11:56:26.999Z</time></trkpt><trkpt lat="46.008646956267086" lon="11.296115319124105"><ele>453.5</ele><time>2026-04-26T11:56:27.999Z</time></trkpt><trkpt lat="46.0085955443565" lon="11.295914726498308"><ele>453.25</ele><time>2026-04-26T11:56:28.999Z</time></trkpt><trkpt lat="46.008546713355784" lon="11.295722061227048"><ele>453.0</ele><time>2026-04-26T11:56:29.999Z</time></trkpt><trkpt lat="46.00850062101348" lon="11.295539766621646"><ele>452.5</ele><time>2026-04-26T11:56:30.999Z</time></trkpt><trkpt lat="46.00845105899591" lon="11.295359514099058"><ele>452.0</ele><time>2026-04-26T11:56:31.999Z</time></trkpt><trkpt lat="46.0083928190267" lon="11.295179078193105"><ele>451.5</ele><time>2026-04-26T11:56:32.999Z</time></trkpt><trkpt lat="46.00832711855963" lon="11.294997146371195"><ele>451.0</ele><time>2026-04-26T11:56:33.999Z</time></trkpt><trkpt lat="46.008277213249414" lon="11.294827514015072"><ele>449.5</ele><time>2026-04-26T11:56:34.999Z</time></trkpt><trkpt lat="46.008206365178474" lon="11.294651872714676"><ele>448.0</ele><time>2026-04-26T11:56:35.999Z</time></trkpt><trkpt lat="46.008138154960626" lon="11.294474805362276"><ele>446.5</ele><time>2026-04-26T11:56:36.999Z</time></trkpt><trkpt lat="46.008067616651175" lon="11.29429310386974"><ele>445.0</ele><time>2026-04-26T11:56:37.999Z</time></trkpt><trkpt lat="46.00799834396562" lon="11.294111419717797"><ele>445.0</ele><time>2026-04-26T11:56:38.999Z</time></trkpt><trkpt lat="46.007928328096995" lon="11.293929773759738"><ele>445.0</ele><time>2026-04-26T11:56:39.999Z</time></trkpt><trkpt lat="46.00785830042631" lon="11.293753908332171"><ele>445.0</ele><time>2026-04-26T11:56:40.999Z</time></trkpt><trkpt lat="46.00779080028405" lon="11.293594001336857"><ele>445.0</ele><time>2026-04-26T11:56:41.999Z</time></trkpt><trkpt lat="46.007724583950214" lon="11.29345430156924"><ele>445.1666666666667</ele><time>2026-04-26T11:56:42.999Z</time></trkpt><trkpt lat="46.00765972456305" lon="11.29334578940984"><ele>445.33333333333337</ele><time>2026-04-26T11:56:43.999Z</time></trkpt><trkpt lat="46.00760552956169" lon="11.29325851243383"><ele>445.5</ele><time>2026-04-26T11:56:44.999Z</time></trkpt><trkpt lat="46.00756907250247" lon="11.29318318053571"><ele>445.66666666666663</ele><time>2026-04-26T11:56:45.999Z</time></trkpt><trkpt lat="46.007538924590314" lon="11.293022289755298"><ele>445.8333333333333</ele><time>2026-04-26T11:56:47.999Z</time></trkpt><trkpt lat="46.007558569473346" lon="11.292928832317845"><ele>446.0</ele><time>2026-04-26T11:56:48.999Z</time></trkpt><trkpt lat="46.007572878453566" lon="11.292825820360557"><ele>445.99999999999994</ele><time>2026-04-26T11:56:49.999Z</time></trkpt><trkpt lat="46.00757534115386" lon="11.292729839582226"><ele>446.0</ele><time>2026-04-26T11:56:50.998Z</time></trkpt><trkpt lat="46.00761666831123" lon="11.292567556609784"><ele>446.0</ele><time>2026-04-26T11:56:52.998Z</time></trkpt><trkpt lat="46.00766585215382" lon="11.292500675745268"><ele>446.0</ele><time>2026-04-26T11:56:53.998Z</time></trkpt><trkpt lat="46.00773683587213" lon="11.292461212258724"><ele>445.99999999999994</ele><time>2026-04-26T11:56:54.998Z</time></trkpt><trkpt lat="46.00778108259933" lon="11.292387078568398"><ele>446.0</ele><time>2026-04-26T11:56:55.998Z</time></trkpt><trkpt lat="46.00782991207478" lon="11.29230672639523"><ele>445.66666666666663</ele><time>2026-04-26T11:56:56.998Z</time></trkpt><trkpt lat="46.00787746435487" lon="11.292212687972913"><ele>445.3333333333333</ele><time>2026-04-26T11:56:57.998Z</time></trkpt><trkpt lat="46.007936240559864" lon="11.292120461791356"><ele>445.0</ele><time>2026-04-26T11:56:58.998Z</time></trkpt><trkpt lat="46.00800008898313" lon="11.292025709821095"><ele>444.66666666666663</ele><time>2026-04-26T11:56:59.998Z</time></trkpt><trkpt lat="46.00806064520977" lon="11.291935261093274"><ele>444.3333333333333</ele><time>2026-04-26T11:57:00.998Z</time></trkpt><trkpt lat="46.008117210046606" lon="11.29184570338023"><ele>444.0</ele><time>2026-04-26T11:57:01.998Z</time></trkpt><trkpt lat="46.00817019554563" lon="11.2917581281411"><ele>444.0</ele><time>2026-04-26T11:57:02.998Z</time></trkpt><trkpt lat="46.008223802950646" lon="11.291675627797753"><ele>444.0</ele><time>2026-04-26T11:57:03.998Z</time></trkpt><trkpt lat="46.00827992202887" lon="11.29159092005851"><ele>444.0</ele><time>2026-04-26T11:57:04.998Z</time></trkpt><trkpt lat="46.00835044559131" lon="11.291524269227644"><ele>444.0</ele><time>2026-04-26T11:57:05.998Z</time></trkpt><trkpt lat="46.00840694474928" lon="11.29141684906284"><ele>444.0</ele><time>2026-04-26T11:57:06.998Z</time></trkpt><trkpt lat="46.00847980360552" lon="11.291328154679602"><ele>444.0</ele><time>2026-04-26T11:57:07.998Z</time></trkpt><trkpt lat="46.00855319297485" lon="11.291236838942027"><ele>444.0</ele><time>2026-04-26T11:57:08.998Z</time></trkpt><trkpt lat="46.00862557267027" lon="11.291149285114045"><ele>444.0</ele><time>2026-04-26T11:57:09.998Z</time></trkpt><trkpt lat="46.00868466247934" lon="11.291073641636547"><ele>444.0</ele><time>2026-04-26T11:57:10.998Z</time></trkpt><trkpt lat="46.0087591325424" lon="11.29097385271543"><ele>444.0</ele><time>2026-04-26T11:57:12.998Z</time></trkpt><trkpt lat="46.00883802184515" lon="11.290865360137603"><ele>444.0</ele><time>2026-04-26T11:57:14.998Z</time></trkpt><trkpt lat="46.00889917975716" lon="11.290791807481972"><ele>444.0</ele><time>2026-04-26T11:57:15.998Z</time></trkpt><trkpt lat="46.00896862454353" lon="11.29070308344131"><ele>444.0</ele><time>2026-04-26T11:57:16.998Z</time></trkpt><trkpt lat="46.00903847039783" lon="11.290602489947041"><ele>444.0</ele><time>2026-04-26T11:57:17.998Z</time></trkpt><trkpt lat="46.009108669647766" lon="11.290497569390004"><ele>444.0</ele><time>2026-04-26T11:57:18.998Z</time></trkpt><trkpt lat="46.00917455777216" lon="11.290409833681824"><ele>444.0</ele><time>2026-04-26T11:57:19.998Z</time></trkpt><trkpt lat="46.00924420521402" lon="11.290331137168513"><ele>444.1666666666667</ele><time>2026-04-26T11:57:20.998Z</time></trkpt><trkpt lat="46.00931303689297" lon="11.290252899129793"><ele>444.33333333333337</ele><time>2026-04-26T11:57:21.998Z</time></trkpt><trkpt lat="46.00937995945427" lon="11.290201115002956"><ele>444.5</ele><time>2026-04-26T11:57:22.999Z</time></trkpt><trkpt lat="46.00944948707299" lon="11.29014799746404"><ele>444.6666666666667</ele><time>2026-04-26T11:57:23.999Z</time></trkpt><trkpt lat="46.00952700534862" lon="11.290103705206857"><ele>444.83333333333337</ele><time>2026-04-26T11:57:24.999Z</time></trkpt><trkpt lat="46.00960855041566" lon="11.290056071135258"><ele>445.0</ele><time>2026-04-26T11:57:25.999Z</time></trkpt><trkpt lat="46.009693774589884" lon="11.290010983604654"><ele>445.00000000000006</ele><time>2026-04-26T11:57:26.999Z</time></trkpt><trkpt lat="46.00978313587824" lon="11.289970101540417"><ele>445.0</ele><time>2026-04-26T11:57:27.999Z</time></trkpt><trkpt lat="46.0098703485726" lon="11.289926269106914"><ele>445.0</ele><time>2026-04-26T11:57:28.999Z</time></trkpt><trkpt lat="46.00995111865115" lon="11.289878834973077"><ele>445.0</ele><time>2026-04-26T11:57:29.999Z</time></trkpt><trkpt lat="46.01002732142546" lon="11.289835618062774"><ele>445.00000000000006</ele><time>2026-04-26T11:57:30.999Z</time></trkpt><trkpt lat="46.01009696799901" lon="11.28979693218552"><ele>445.0</ele><time>2026-04-26T11:57:31.999Z</time></trkpt><trkpt lat="46.010157991211216" lon="11.289766449780384"><ele>445.2</ele><time>2026-04-26T11:57:32.999Z</time></trkpt><trkpt lat="46.0102561453994" lon="11.28972282854055"><ele>445.4</ele><time>2026-04-26T11:57:34.999Z</time></trkpt><trkpt lat="46.01032078865599" lon="11.289707256908432"><ele>445.6</ele><time>2026-04-26T11:57:36.999Z</time></trkpt><trkpt lat="46.010388687345134" lon="11.289697166879057"><ele>445.8</ele><time>2026-04-26T11:57:39.999Z</time></trkpt><trkpt lat="46.01051483483417" lon="11.289635474154904"><ele>446.0</ele><time>2026-04-26T11:57:41.999Z</time></trkpt><trkpt lat="46.010600467658854" lon="11.289617144260752"><ele>446.0</ele><time>2026-04-26T11:57:42.999Z</time></trkpt><trkpt lat="46.01069706061032" lon="11.289597146400862"><ele>446.0</ele><time>2026-04-26T11:57:43.999Z</time></trkpt><trkpt lat="46.01079615313116" lon="11.289577096757716"><ele>446.0</ele><time>2026-04-26T11:57:44.999Z</time></trkpt><trkpt lat="46.01090090803286" lon="11.289557066174451"><ele>446.0</ele><time>2026-04-26T11:57:45.999Z</time></trkpt><trkpt lat="46.01100129118387" lon="11.289535259111442"><ele>446.0</ele><time>2026-04-26T11:57:46.999Z</time></trkpt><trkpt lat="46.01109328622812" lon="11.289515414019997"><ele>445.99999999999994</ele><time>2026-04-26T11:57:47.999Z</time></trkpt><trkpt lat="46.01118143418072" lon="11.289492801119074"><ele>446.0</ele><time>2026-04-26T11:57:48.999Z</time></trkpt><trkpt lat="46.01127070935491" lon="11.289472005272401"><ele>446.0</ele><time>2026-04-26T11:57:49.999Z</time></trkpt><trkpt lat="46.01136280392101" lon="11.289455656425075"><ele>446.0</ele><time>2026-04-26T11:57:50.999Z</time></trkpt><trkpt lat="46.011443274186774" lon="11.289436386165661"><ele>445.99999999999994</ele><time>2026-04-26T11:57:51.999Z</time></trkpt><trkpt lat="46.0115190705314" lon="11.289420129496571"><ele>446.0</ele><time>2026-04-26T11:57:52.999Z</time></trkpt><trkpt lat="46.01158513586878" lon="11.289400869192136"><ele>445.75</ele><time>2026-04-26T11:57:53.999Z</time></trkpt><trkpt lat="46.01170252866158" lon="11.289377221415236"><ele>445.5</ele><time>2026-04-26T11:57:55.999Z</time></trkpt><trkpt lat="46.01182708227827" lon="11.289347273505982"><ele>445.25</ele><time>2026-04-26T11:57:57.999Z</time></trkpt><trkpt lat="46.01193779688666" lon="11.289320033010316"><ele>445.0</ele><time>2026-04-26T11:57:59.999Z</time></trkpt><trkpt lat="46.012035498173965" lon="11.28930008618433"><ele>445.00000000000006</ele><time>2026-04-26T11:58:01.999Z</time></trkpt><trkpt lat="46.01212809188554" lon="11.289279341890444"><ele>445.0</ele><time>2026-04-26T11:58:03.999Z</time></trkpt><trkpt lat="46.01219388326762" lon="11.289251969996824"><ele>445.0</ele><time>2026-04-26T11:58:05.999Z</time></trkpt><trkpt lat="46.01226916923805" lon="11.289203391991084"><ele>445.0</ele><time>2026-04-26T11:58:08.999Z</time></trkpt><trkpt lat="46.012329705273906" lon="11.289176588815735"><ele>445.00000000000006</ele><time>2026-04-26T11:58:19.999Z</time></trkpt><trkpt lat="46.012402431267496" lon="11.289132294017277"><ele>445.0</ele><time>2026-04-26T11:58:27.999Z</time></trkpt><trkpt lat="46.012406677026526" lon="11.288855615364914"><ele>443.0</ele><time>2026-04-26T11:58:31.999Z</time></trkpt><trkpt lat="46.012481035936474" lon="11.288806192680093"><ele>443.0</ele><time>2026-04-26T11:58:34.999Z</time></trkpt><trkpt lat="46.01257133408836" lon="11.288964465071896"><ele>444.0</ele><time>2026-04-26T11:59:03.998Z</time></trkpt></trkseg></trk></gpx>